<?xml version='1.0' encoding='UTF-8'?><gpx version="1.1" creator="JPX - https://github.com/jenetics/jpx" xmlns="http://www.topografix.com/GPX/1/1"><trk><trkseg><trkpt lat="45.4715285" lon="10.5332058"><ele>95.0</ele><time>2026-04-08T08:37:25.42Z</time></trkpt><trkpt lat="45.4714563" lon="10.5331167"><ele>95.0</ele><time>2026-04-08T08:37:27.42Z</time></trkpt><trkpt lat="45.4714037" lon="10.5330318"><ele>95.0</ele><time>2026-04-08T08:37:29.421Z</time></trkpt><trkpt lat="45.4713705" lon="10.5329492"><ele>95.0</ele><time>2026-04-08T08:37:31.421Z</time></trkpt><trkpt lat="45.4713123" lon="10.5328805"><ele>95.0</ele><time>2026-04-08T08:37:33.421Z</time></trkpt><trkpt lat="45.4711994" lon="10.5328138"><ele>95.0</ele><time>2026-04-08T08:37:35.421Z</time></trkpt><trkpt lat="45.4711284" lon="10.5327787"><ele>95.0</ele><time>2026-04-08T08:37:36.421Z</time></trkpt><trkpt lat="45.4710574" lon="10.5327402"><ele>95.0</ele><time>2026-04-08T08:37:37.421Z</time></trkpt><trkpt lat="45.4709882" lon="10.5326984"><ele>95.0</ele><time>2026-04-08T08:37:38.421Z</time></trkpt><trkpt lat="45.4709216" lon="10.5326588"><ele>95.0</ele><time>2026-04-08T08:37:39.421Z</time></trkpt><trkpt lat="45.4708596" lon="10.5326312"><ele>95.0</ele><time>2026-04-08T08:37:40.422Z</time></trkpt><trkpt lat="45.4707576" lon="10.5325848"><ele>95.0</ele><time>2026-04-08T08:37:42.421Z</time></trkpt><trkpt lat="45.4706525" lon="10.5325518"><ele>95.0</ele><time>2026-04-08T08:37:44.422Z</time></trkpt><trkpt lat="45.4705908" lon="10.5325268"><ele>95.0</ele><time>2026-04-08T08:37:45.422Z</time></trkpt><trkpt lat="45.4705286" lon="10.5324939"><ele>95.0</ele><time>2026-04-08T08:37:46.422Z</time></trkpt><trkpt lat="45.4704678" lon="10.5324551"><ele>95.0</ele><time>2026-04-08T08:37:47.421Z</time></trkpt><trkpt lat="45.4704007" lon="10.5324217"><ele>95.0</ele><time>2026-04-08T08:37:48.422Z</time></trkpt><trkpt lat="45.4703343" lon="10.5323874"><ele>95.0</ele><time>2026-04-08T08:37:49.421Z</time></trkpt><trkpt lat="45.4702662" lon="10.5323568"><ele>95.0</ele><time>2026-04-08T08:37:50.422Z</time></trkpt><trkpt lat="45.4702005" lon="10.5323173"><ele>95.0</ele><time>2026-04-08T08:37:51.421Z</time></trkpt><trkpt lat="45.4701135" lon="10.532254"><ele>95.0</ele><time>2026-04-08T08:37:53.422Z</time></trkpt><trkpt lat="45.4700458" lon="10.5322252"><ele>95.0</ele><time>2026-04-08T08:37:55.422Z</time></trkpt><trkpt lat="45.4699721" lon="10.532171"><ele>95.0</ele><time>2026-04-08T08:37:58.421Z</time></trkpt><trkpt lat="45.4699193" lon="10.5320954"><ele>95.0</ele><time>2026-04-08T08:38:00.421Z</time></trkpt><trkpt lat="45.4698685" lon="10.5319545"><ele>95.0</ele><time>2026-04-08T08:38:02.421Z</time></trkpt><trkpt lat="45.4698449" lon="10.5318712"><ele>95.0</ele><time>2026-04-08T08:38:03.422Z</time></trkpt><trkpt lat="45.4698168" lon="10.5317238"><ele>95.0</ele><time>2026-04-08T08:38:05.422Z</time></trkpt><trkpt lat="45.4697947" lon="10.5315934"><ele>95.0</ele><time>2026-04-08T08:38:07.421Z</time></trkpt><trkpt lat="45.4697659" lon="10.5314417"><ele>95.0</ele><time>2026-04-08T08:38:09.422Z</time></trkpt><trkpt lat="45.4697479" lon="10.5313426"><ele>95.0</ele><time>2026-04-08T08:38:10.421Z</time></trkpt><trkpt lat="45.469732" lon="10.5312399"><ele>95.16666666666667</ele><time>2026-04-08T08:38:11.422Z</time></trkpt><trkpt lat="45.4697123" lon="10.531119"><ele>95.33333333333334</ele><time>2026-04-08T08:38:12.421Z</time></trkpt><trkpt lat="45.4696917" lon="10.5310026"><ele>95.5</ele><time>2026-04-08T08:38:13.421Z</time></trkpt><trkpt lat="45.4696754" lon="10.5309"><ele>95.66666666666667</ele><time>2026-04-08T08:38:14.421Z</time></trkpt><trkpt lat="45.4696628" lon="10.5308027"><ele>95.83333333333333</ele><time>2026-04-08T08:38:15.422Z</time></trkpt><trkpt lat="45.4696512" lon="10.5307132"><ele>96.0</ele><time>2026-04-08T08:38:16.421Z</time></trkpt><trkpt lat="45.469629" lon="10.5305695"><ele>96.16666666666667</ele><time>2026-04-08T08:38:18.422Z</time></trkpt><trkpt lat="45.4696035" lon="10.5304222"><ele>96.33333333333334</ele><time>2026-04-08T08:38:20.423Z</time></trkpt><trkpt lat="45.4695858" lon="10.5302973"><ele>96.5</ele><time>2026-04-08T08:38:22.422Z</time></trkpt><trkpt lat="45.4695655" lon="10.5301819"><ele>96.66666666666667</ele><time>2026-04-08T08:38:24.422Z</time></trkpt><trkpt lat="45.4695477" lon="10.5300643"><ele>96.83333333333334</ele><time>2026-04-08T08:38:26.423Z</time></trkpt><trkpt lat="45.4695335" lon="10.5299523"><ele>97.0</ele><time>2026-04-08T08:38:29.423Z</time></trkpt><trkpt lat="45.4695062" lon="10.5298132"><ele>96.8</ele><time>2026-04-08T08:38:32.423Z</time></trkpt><trkpt lat="45.46948" lon="10.5296571"><ele>96.6</ele><time>2026-04-08T08:38:34.422Z</time></trkpt><trkpt lat="45.4694542" lon="10.5295322"><ele>96.39999999999999</ele><time>2026-04-08T08:38:36.423Z</time></trkpt><trkpt lat="45.4694209" lon="10.5294269"><ele>96.19999999999999</ele><time>2026-04-08T08:38:38.422Z</time></trkpt><trkpt lat="45.4693719" lon="10.5293445"><ele>96.0</ele><time>2026-04-08T08:38:40.422Z</time></trkpt><trkpt lat="45.4693146" lon="10.5292123"><ele>96.0</ele><time>2026-04-08T08:38:42.423Z</time></trkpt><trkpt lat="45.4692927" lon="10.5290831"><ele>96.0</ele><time>2026-04-08T08:38:44.422Z</time></trkpt><trkpt lat="45.4693098" lon="10.5289576"><ele>96.0</ele><time>2026-04-08T08:38:46.422Z</time></trkpt><trkpt lat="45.4693381" lon="10.5288153"><ele>96.0</ele><time>2026-04-08T08:38:48.422Z</time></trkpt><trkpt lat="45.4693273" lon="10.528721"><ele>96.0</ele><time>2026-04-08T08:38:49.423Z</time></trkpt><trkpt lat="45.4693106" lon="10.5285969"><ele>96.0</ele><time>2026-04-08T08:38:50.423Z</time></trkpt><trkpt lat="45.469305" lon="10.528472"><ele>96.5</ele><time>2026-04-08T08:38:51.422Z</time></trkpt><trkpt lat="45.4692871" lon="10.5283361"><ele>97.0</ele><time>2026-04-08T08:38:52.423Z</time></trkpt><trkpt lat="45.4692565" lon="10.5281774"><ele>97.5</ele><time>2026-04-08T08:38:53.423Z</time></trkpt><trkpt lat="45.4692294" lon="10.5280128"><ele>98.0</ele><time>2026-04-08T08:38:54.422Z</time></trkpt><trkpt lat="45.4692059" lon="10.5278413"><ele>99.0</ele><time>2026-04-08T08:38:55.422Z</time></trkpt><trkpt lat="45.4691804" lon="10.5276665"><ele>100.0</ele><time>2026-04-08T08:38:56.422Z</time></trkpt><trkpt lat="45.4691508" lon="10.5274995"><ele>101.0</ele><time>2026-04-08T08:38:57.422Z</time></trkpt><trkpt lat="45.4691185" lon="10.5273188"><ele>102.0</ele><time>2026-04-08T08:38:58.422Z</time></trkpt><trkpt lat="45.4690864" lon="10.5271503"><ele>102.75</ele><time>2026-04-08T08:38:59.423Z</time></trkpt><trkpt lat="45.4690621" lon="10.5269842"><ele>103.5</ele><time>2026-04-08T08:39:00.422Z</time></trkpt><trkpt lat="45.4690336" lon="10.5268223"><ele>104.25</ele><time>2026-04-08T08:39:01.423Z</time></trkpt><trkpt lat="45.4690125" lon="10.5266477"><ele>105.0</ele><time>2026-04-08T08:39:02.423Z</time></trkpt><trkpt lat="45.4689881" lon="10.5264768"><ele>105.0</ele><time>2026-04-08T08:39:03.422Z</time></trkpt><trkpt lat="45.4689605" lon="10.526312"><ele>105.0</ele><time>2026-04-08T08:39:04.423Z</time></trkpt><trkpt lat="45.468935" lon="10.5261573"><ele>105.0</ele><time>2026-04-08T08:39:05.423Z</time></trkpt><trkpt lat="45.4689123" lon="10.5260008"><ele>105.0</ele><time>2026-04-08T08:39:06.424Z</time></trkpt><trkpt lat="45.4688852" lon="10.5258587"><ele>105.0</ele><time>2026-04-08T08:39:07.423Z</time></trkpt><trkpt lat="45.4688599" lon="10.5257303"><ele>106.16666666666667</ele><time>2026-04-08T08:39:08.424Z</time></trkpt><trkpt lat="45.4688406" lon="10.5256118"><ele>107.33333333333334</ele><time>2026-04-08T08:39:09.423Z</time></trkpt><trkpt lat="45.4688204" lon="10.525504"><ele>108.5</ele><time>2026-04-08T08:39:10.424Z</time></trkpt><trkpt lat="45.4688015" lon="10.5254086"><ele>109.66666666666667</ele><time>2026-04-08T08:39:11.424Z</time></trkpt><trkpt lat="45.4687848" lon="10.5253037"><ele>110.83333333333334</ele><time>2026-04-08T08:39:12.424Z</time></trkpt><trkpt lat="45.4687663" lon="10.5251849"><ele>112.0</ele><time>2026-04-08T08:39:13.424Z</time></trkpt><trkpt lat="45.4687463" lon="10.5250642"><ele>112.39999999999999</ele><time>2026-04-08T08:39:14.424Z</time></trkpt><trkpt lat="45.4687283" lon="10.5249364"><ele>112.79999999999998</ele><time>2026-04-08T08:39:15.424Z</time></trkpt><trkpt lat="45.468703" lon="10.5247816"><ele>113.2</ele><time>2026-04-08T08:39:16.424Z</time></trkpt><trkpt lat="45.4686816" lon="10.5246269"><ele>113.6</ele><time>2026-04-08T08:39:17.424Z</time></trkpt><trkpt lat="45.4686569" lon="10.5244668"><ele>114.0</ele><time>2026-04-08T08:39:18.423Z</time></trkpt><trkpt lat="45.4686522" lon="10.5243075"><ele>114.75</ele><time>2026-04-08T08:39:19.423Z</time></trkpt><trkpt lat="45.4686601" lon="10.5241451"><ele>115.5</ele><time>2026-04-08T08:39:20.423Z</time></trkpt><trkpt lat="45.468668" lon="10.5239732"><ele>116.25</ele><time>2026-04-08T08:39:21.423Z</time></trkpt><trkpt lat="45.4686707" lon="10.523798"><ele>117.0</ele><time>2026-04-08T08:39:22.423Z</time></trkpt><trkpt lat="45.4686848" lon="10.523615"><ele>118.0</ele><time>2026-04-08T08:39:23.424Z</time></trkpt><trkpt lat="45.4686995" lon="10.5234301"><ele>119.0</ele><time>2026-04-08T08:39:24.423Z</time></trkpt><trkpt lat="45.4687133" lon="10.5232499"><ele>120.0</ele><time>2026-04-08T08:39:25.424Z</time></trkpt><trkpt lat="45.4687264" lon="10.5230748"><ele>121.0</ele><time>2026-04-08T08:39:26.423Z</time></trkpt><trkpt lat="45.4687328" lon="10.5228994"><ele>123.0</ele><time>2026-04-08T08:39:27.423Z</time></trkpt><trkpt lat="45.468744" lon="10.5227168"><ele>125.0</ele><time>2026-04-08T08:39:28.423Z</time></trkpt><trkpt lat="45.4687613" lon="10.5225314"><ele>127.0</ele><time>2026-04-08T08:39:29.423Z</time></trkpt><trkpt lat="45.4687788" lon="10.5223493"><ele>129.0</ele><time>2026-04-08T08:39:30.424Z</time></trkpt><trkpt lat="45.468787" lon="10.5221594"><ele>131.5</ele><time>2026-04-08T08:39:31.424Z</time></trkpt><trkpt lat="45.4687962" lon="10.5219601"><ele>134.0</ele><time>2026-04-08T08:39:32.424Z</time></trkpt><trkpt lat="45.4688017" lon="10.5217588"><ele>136.5</ele><time>2026-04-08T08:39:33.423Z</time></trkpt><trkpt lat="45.4688007" lon="10.5215463"><ele>139.0</ele><time>2026-04-08T08:39:34.424Z</time></trkpt><trkpt lat="45.4688128" lon="10.5213531"><ele>138.5</ele><time>2026-04-08T08:39:35.424Z</time></trkpt><trkpt lat="45.4688234" lon="10.5211705"><ele>138.0</ele><time>2026-04-08T08:39:36.424Z</time></trkpt><trkpt lat="45.4688375" lon="10.5209926"><ele>137.5</ele><time>2026-04-08T08:39:37.423Z</time></trkpt><trkpt lat="45.4688454" lon="10.5208162"><ele>137.0</ele><time>2026-04-08T08:39:38.423Z</time></trkpt><trkpt lat="45.4688511" lon="10.5206654"><ele>137.0</ele><time>2026-04-08T08:39:39.423Z</time></trkpt><trkpt lat="45.4688555" lon="10.5205344"><ele>137.0</ele><time>2026-04-08T08:39:40.424Z</time></trkpt><trkpt lat="45.4688615" lon="10.5204171"><ele>137.0</ele><time>2026-04-08T08:39:41.424Z</time></trkpt><trkpt lat="45.4688745" lon="10.5203044"><ele>137.0</ele><time>2026-04-08T08:39:42.424Z</time></trkpt><trkpt lat="45.4689052" lon="10.5202066"><ele>137.0</ele><time>2026-04-08T08:39:43.424Z</time></trkpt><trkpt lat="45.4690117" lon="10.5201209"><ele>135.33333333333331</ele><time>2026-04-08T08:39:45.423Z</time></trkpt><trkpt lat="45.4690443" lon="10.5199803"><ele>133.66666666666666</ele><time>2026-04-08T08:39:47.424Z</time></trkpt><trkpt lat="45.4690008" lon="10.5198802"><ele>132.0</ele><time>2026-04-08T08:39:48.424Z</time></trkpt><trkpt lat="45.4689443" lon="10.5198035"><ele>130.33333333333334</ele><time>2026-04-08T08:39:49.423Z</time></trkpt><trkpt lat="45.4688974" lon="10.5197032"><ele>128.66666666666669</ele><time>2026-04-08T08:39:50.424Z</time></trkpt><trkpt lat="45.4688848" lon="10.5195707"><ele>127.0</ele><time>2026-04-08T08:39:51.424Z</time></trkpt><trkpt lat="45.4688923" lon="10.5194188"><ele>126.25</ele><time>2026-04-08T08:39:52.425Z</time></trkpt><trkpt lat="45.4688915" lon="10.5192588"><ele>125.5</ele><time>2026-04-08T08:39:53.424Z</time></trkpt><trkpt lat="45.4688859" lon="10.5190855"><ele>124.75</ele><time>2026-04-08T08:39:54.424Z</time></trkpt><trkpt lat="45.4688677" lon="10.5189141"><ele>124.0</ele><time>2026-04-08T08:39:55.425Z</time></trkpt><trkpt lat="45.468838" lon="10.5187338"><ele>124.0</ele><time>2026-04-08T08:39:56.424Z</time></trkpt><trkpt lat="45.4688156" lon="10.5185456"><ele>124.0</ele><time>2026-04-08T08:39:57.424Z</time></trkpt><trkpt lat="45.4687839" lon="10.5183621"><ele>124.0</ele><time>2026-04-08T08:39:58.425Z</time></trkpt><trkpt lat="45.4687545" lon="10.5181766"><ele>124.0</ele><time>2026-04-08T08:39:59.424Z</time></trkpt><trkpt lat="45.4687237" lon="10.5179978"><ele>124.75</ele><time>2026-04-08T08:40:00.425Z</time></trkpt><trkpt lat="45.4686917" lon="10.5178199"><ele>125.5</ele><time>2026-04-08T08:40:01.425Z</time></trkpt><trkpt lat="45.4686581" lon="10.5176378"><ele>126.25</ele><time>2026-04-08T08:40:02.425Z</time></trkpt><trkpt lat="45.4686214" lon="10.5174606"><ele>127.0</ele><time>2026-04-08T08:40:03.425Z</time></trkpt><trkpt lat="45.4685894" lon="10.5172914"><ele>127.0</ele><time>2026-04-08T08:40:04.424Z</time></trkpt><trkpt lat="45.4685675" lon="10.5171189"><ele>127.0</ele><time>2026-04-08T08:40:05.424Z</time></trkpt><trkpt lat="45.4685475" lon="10.5169478"><ele>127.0</ele><time>2026-04-08T08:40:06.425Z</time></trkpt><trkpt lat="45.4685221" lon="10.5167763"><ele>127.0</ele><time>2026-04-08T08:40:07.424Z</time></trkpt><trkpt lat="45.4684926" lon="10.5166029"><ele>127.5</ele><time>2026-04-08T08:40:08.425Z</time></trkpt><trkpt lat="45.4684624" lon="10.5164355"><ele>128.0</ele><time>2026-04-08T08:40:09.424Z</time></trkpt><trkpt lat="45.4684349" lon="10.5162665"><ele>128.5</ele><time>2026-04-08T08:40:10.424Z</time></trkpt><trkpt lat="45.4684097" lon="10.5160984"><ele>129.0</ele><time>2026-04-08T08:40:11.424Z</time></trkpt><trkpt lat="45.4683775" lon="10.5159285"><ele>130.75</ele><time>2026-04-08T08:40:12.425Z</time></trkpt><trkpt lat="45.4683538" lon="10.5157603"><ele>132.5</ele><time>2026-04-08T08:40:13.425Z</time></trkpt><trkpt lat="45.4683214" lon="10.515589"><ele>134.25</ele><time>2026-04-08T08:40:14.425Z</time></trkpt><trkpt lat="45.4682928" lon="10.5154191"><ele>136.0</ele><time>2026-04-08T08:40:15.425Z</time></trkpt><trkpt lat="45.4682582" lon="10.5152517"><ele>137.25</ele><time>2026-04-08T08:40:16.425Z</time></trkpt><trkpt lat="45.4682199" lon="10.5150885"><ele>138.5</ele><time>2026-04-08T08:40:17.425Z</time></trkpt><trkpt lat="45.4681736" lon="10.5149211"><ele>139.75</ele><time>2026-04-08T08:40:18.424Z</time></trkpt><trkpt lat="45.4681224" lon="10.5147539"><ele>141.0</ele><time>2026-04-08T08:40:19.425Z</time></trkpt><trkpt lat="45.4680666" lon="10.5145851"><ele>141.0</ele><time>2026-04-08T08:40:20.425Z</time></trkpt><trkpt lat="45.4680117" lon="10.5144169"><ele>141.0</ele><time>2026-04-08T08:40:21.424Z</time></trkpt><trkpt lat="45.4679479" lon="10.5142577"><ele>141.0</ele><time>2026-04-08T08:40:22.425Z</time></trkpt><trkpt lat="45.4678837" lon="10.514099"><ele>141.0</ele><time>2026-04-08T08:40:23.424Z</time></trkpt><trkpt lat="45.4678246" lon="10.5139365"><ele>141.0</ele><time>2026-04-08T08:40:24.425Z</time></trkpt><trkpt lat="45.4677688" lon="10.5137704"><ele>141.0</ele><time>2026-04-08T08:40:25.425Z</time></trkpt><trkpt lat="45.4677121" lon="10.5136066"><ele>141.0</ele><time>2026-04-08T08:40:26.425Z</time></trkpt><trkpt lat="45.4676547" lon="10.5134433"><ele>141.0</ele><time>2026-04-08T08:40:27.424Z</time></trkpt><trkpt lat="45.467601" lon="10.5132735"><ele>140.5</ele><time>2026-04-08T08:40:28.424Z</time></trkpt><trkpt lat="45.4675494" lon="10.5131039"><ele>140.0</ele><time>2026-04-08T08:40:29.424Z</time></trkpt><trkpt lat="45.4674905" lon="10.5129358"><ele>139.5</ele><time>2026-04-08T08:40:30.424Z</time></trkpt><trkpt lat="45.4674286" lon="10.5127735"><ele>139.0</ele><time>2026-04-08T08:40:31.424Z</time></trkpt><trkpt lat="45.467366" lon="10.5126125"><ele>139.25</ele><time>2026-04-08T08:40:32.424Z</time></trkpt><trkpt lat="45.4673033" lon="10.5124506"><ele>139.5</ele><time>2026-04-08T08:40:33.424Z</time></trkpt><trkpt lat="45.4672365" lon="10.5122918"><ele>139.75</ele><time>2026-04-08T08:40:34.425Z</time></trkpt><trkpt lat="45.4671668" lon="10.5121329"><ele>140.0</ele><time>2026-04-08T08:40:35.425Z</time></trkpt><trkpt lat="45.4671" lon="10.5119727"><ele>140.0</ele><time>2026-04-08T08:40:36.424Z</time></trkpt><trkpt lat="45.4670295" lon="10.5118092"><ele>140.0</ele><time>2026-04-08T08:40:37.426Z</time></trkpt><trkpt lat="45.4669611" lon="10.5116423"><ele>140.0</ele><time>2026-04-08T08:40:38.426Z</time></trkpt><trkpt lat="45.466892" lon="10.5114748"><ele>140.0</ele><time>2026-04-08T08:40:39.426Z</time></trkpt><trkpt lat="45.4668247" lon="10.5113035"><ele>140.75</ele><time>2026-04-08T08:40:40.425Z</time></trkpt><trkpt lat="45.4667535" lon="10.5111284"><ele>141.5</ele><time>2026-04-08T08:40:41.426Z</time></trkpt><trkpt lat="45.4666832" lon="10.5109579"><ele>142.25</ele><time>2026-04-08T08:40:42.425Z</time></trkpt><trkpt lat="45.4666126" lon="10.510783"><ele>143.0</ele><time>2026-04-08T08:40:43.425Z</time></trkpt><trkpt lat="45.4665398" lon="10.5106087"><ele>143.0</ele><time>2026-04-08T08:40:44.426Z</time></trkpt><trkpt lat="45.4664679" lon="10.5104336"><ele>143.0</ele><time>2026-04-08T08:40:45.425Z</time></trkpt><trkpt lat="45.4663913" lon="10.5102592"><ele>143.0</ele><time>2026-04-08T08:40:46.425Z</time></trkpt><trkpt lat="45.4663195" lon="10.5100842"><ele>143.0</ele><time>2026-04-08T08:40:47.426Z</time></trkpt><trkpt lat="45.466248" lon="10.5099088"><ele>142.5</ele><time>2026-04-08T08:40:48.426Z</time></trkpt><trkpt lat="45.4661791" lon="10.5097385"><ele>142.0</ele><time>2026-04-08T08:40:49.426Z</time></trkpt><trkpt lat="45.4661116" lon="10.509579"><ele>141.5</ele><time>2026-04-08T08:40:50.426Z</time></trkpt><trkpt lat="45.4660453" lon="10.5094283"><ele>141.0</ele><time>2026-04-08T08:40:51.426Z</time></trkpt><trkpt lat="45.465985" lon="10.5092854"><ele>141.0</ele><time>2026-04-08T08:40:52.426Z</time></trkpt><trkpt lat="45.4659209" lon="10.5091538"><ele>141.0</ele><time>2026-04-08T08:40:53.425Z</time></trkpt><trkpt lat="45.4658635" lon="10.5090231"><ele>141.0</ele><time>2026-04-08T08:40:54.426Z</time></trkpt><trkpt lat="45.4658141" lon="10.5088928"><ele>141.0</ele><time>2026-04-08T08:40:55.425Z</time></trkpt><trkpt lat="45.4657655" lon="10.5087651"><ele>141.0</ele><time>2026-04-08T08:40:56.426Z</time></trkpt><trkpt lat="45.4657205" lon="10.5086389"><ele>141.2</ele><time>2026-04-08T08:40:57.426Z</time></trkpt><trkpt lat="45.4656823" lon="10.5085135"><ele>141.39999999999998</ele><time>2026-04-08T08:40:58.426Z</time></trkpt><trkpt lat="45.4656503" lon="10.5083876"><ele>141.6</ele><time>2026-04-08T08:40:59.426Z</time></trkpt><trkpt lat="45.465619" lon="10.5082599"><ele>141.79999999999998</ele><time>2026-04-08T08:41:00.425Z</time></trkpt><trkpt lat="45.4655837" lon="10.5081351"><ele>142.0</ele><time>2026-04-08T08:41:01.426Z</time></trkpt><trkpt lat="45.4655566" lon="10.5080104"><ele>142.2</ele><time>2026-04-08T08:41:02.425Z</time></trkpt><trkpt lat="45.4655362" lon="10.5078885"><ele>142.39999999999998</ele><time>2026-04-08T08:41:03.425Z</time></trkpt><trkpt lat="45.465512" lon="10.5077589"><ele>142.60000000000002</ele><time>2026-04-08T08:41:04.425Z</time></trkpt><trkpt lat="45.4654877" lon="10.5076285"><ele>142.8</ele><time>2026-04-08T08:41:05.426Z</time></trkpt><trkpt lat="45.4654634" lon="10.5074965"><ele>143.0</ele><time>2026-04-08T08:41:06.426Z</time></trkpt><trkpt lat="45.4654291" lon="10.5073631"><ele>142.8</ele><time>2026-04-08T08:41:07.426Z</time></trkpt><trkpt lat="45.4653919" lon="10.5072253"><ele>142.60000000000002</ele><time>2026-04-08T08:41:08.425Z</time></trkpt><trkpt lat="45.4653493" lon="10.5070895"><ele>142.39999999999998</ele><time>2026-04-08T08:41:09.425Z</time></trkpt><trkpt lat="45.4652983" lon="10.5069569"><ele>142.2</ele><time>2026-04-08T08:41:10.426Z</time></trkpt><trkpt lat="45.4652446" lon="10.5068238"><ele>142.0</ele><time>2026-04-08T08:41:11.477Z</time></trkpt><trkpt lat="45.4651947" lon="10.5066905"><ele>142.0</ele><time>2026-04-08T08:41:12.477Z</time></trkpt><trkpt lat="45.465142" lon="10.5065537"><ele>142.0</ele><time>2026-04-08T08:41:13.477Z</time></trkpt><trkpt lat="45.4650864" lon="10.5064232"><ele>142.0</ele><time>2026-04-08T08:41:14.478Z</time></trkpt><trkpt lat="45.4650282" lon="10.5062897"><ele>142.0</ele><time>2026-04-08T08:41:15.477Z</time></trkpt><trkpt lat="45.4649728" lon="10.5061519"><ele>142.0</ele><time>2026-04-08T08:41:16.477Z</time></trkpt><trkpt lat="45.4649152" lon="10.5060157"><ele>141.25</ele><time>2026-04-08T08:41:17.477Z</time></trkpt><trkpt lat="45.4648573" lon="10.5058782"><ele>140.5</ele><time>2026-04-08T08:41:18.477Z</time></trkpt><trkpt lat="45.4647985" lon="10.5057389"><ele>139.75</ele><time>2026-04-08T08:41:19.477Z</time></trkpt><trkpt lat="45.4647415" lon="10.505601"><ele>139.0</ele><time>2026-04-08T08:41:20.478Z</time></trkpt><trkpt lat="45.4646843" lon="10.5054636"><ele>139.0</ele><time>2026-04-08T08:41:21.477Z</time></trkpt><trkpt lat="45.4646301" lon="10.5053272"><ele>139.0</ele><time>2026-04-08T08:41:22.478Z</time></trkpt><trkpt lat="45.4645797" lon="10.5051896"><ele>139.0</ele><time>2026-04-08T08:41:23.477Z</time></trkpt><trkpt lat="45.4645312" lon="10.5050486"><ele>139.0</ele><time>2026-04-08T08:41:24.477Z</time></trkpt><trkpt lat="45.4645032" lon="10.5049052"><ele>139.0</ele><time>2026-04-08T08:41:25.477Z</time></trkpt><trkpt lat="45.4644968" lon="10.5047493"><ele>139.25</ele><time>2026-04-08T08:41:26.478Z</time></trkpt><trkpt lat="45.4645216" lon="10.504597"><ele>139.5</ele><time>2026-04-08T08:41:27.477Z</time></trkpt><trkpt lat="45.464561" lon="10.5044479"><ele>139.75</ele><time>2026-04-08T08:41:28.477Z</time></trkpt><trkpt lat="45.4646179" lon="10.5043057"><ele>140.0</ele><time>2026-04-08T08:41:29.477Z</time></trkpt><trkpt lat="45.4646896" lon="10.5041698"><ele>140.0</ele><time>2026-04-08T08:41:30.477Z</time></trkpt><trkpt lat="45.4647628" lon="10.5040395"><ele>140.0</ele><time>2026-04-08T08:41:31.478Z</time></trkpt><trkpt lat="45.4648412" lon="10.5039148"><ele>140.0</ele><time>2026-04-08T08:41:32.478Z</time></trkpt><trkpt lat="45.464916" lon="10.5037953"><ele>140.0</ele><time>2026-04-08T08:41:33.477Z</time></trkpt><trkpt lat="45.4649919" lon="10.5036897"><ele>140.5</ele><time>2026-04-08T08:41:34.477Z</time></trkpt><trkpt lat="45.46506" lon="10.5035831"><ele>141.0</ele><time>2026-04-08T08:41:35.478Z</time></trkpt><trkpt lat="45.4651264" lon="10.5034912"><ele>141.5</ele><time>2026-04-08T08:41:36.478Z</time></trkpt><trkpt lat="45.4651911" lon="10.5034243"><ele>142.0</ele><time>2026-04-08T08:41:37.478Z</time></trkpt><trkpt lat="45.4652509" lon="10.5033727"><ele>142.5</ele><time>2026-04-08T08:41:38.477Z</time></trkpt><trkpt lat="45.4653139" lon="10.5033282"><ele>143.0</ele><time>2026-04-08T08:41:39.477Z</time></trkpt><trkpt lat="45.4653803" lon="10.5032867"><ele>142.83333333333331</ele><time>2026-04-08T08:41:40.477Z</time></trkpt><trkpt lat="45.4654514" lon="10.5032453"><ele>142.66666666666666</ele><time>2026-04-08T08:41:41.478Z</time></trkpt><trkpt lat="45.4655239" lon="10.5031984"><ele>142.5</ele><time>2026-04-08T08:41:42.477Z</time></trkpt><trkpt lat="45.4656051" lon="10.5031542"><ele>142.33333333333334</ele><time>2026-04-08T08:41:43.477Z</time></trkpt><trkpt lat="45.4656922" lon="10.5031119"><ele>142.16666666666669</ele><time>2026-04-08T08:41:44.478Z</time></trkpt><trkpt lat="45.4657804" lon="10.5030607"><ele>142.0</ele><time>2026-04-08T08:41:45.477Z</time></trkpt><trkpt lat="45.4658682" lon="10.5030038"><ele>142.0</ele><time>2026-04-08T08:41:46.477Z</time></trkpt><trkpt lat="45.4659544" lon="10.5029537"><ele>142.0</ele><time>2026-04-08T08:41:47.477Z</time></trkpt><trkpt lat="45.4660403" lon="10.502915"><ele>142.0</ele><time>2026-04-08T08:41:48.477Z</time></trkpt><trkpt lat="45.4661254" lon="10.5028869"><ele>142.0</ele><time>2026-04-08T08:41:49.478Z</time></trkpt><trkpt lat="45.4662108" lon="10.5028614"><ele>142.0</ele><time>2026-04-08T08:41:50.478Z</time></trkpt><trkpt lat="45.4662921" lon="10.5028358"><ele>142.0</ele><time>2026-04-08T08:41:51.477Z</time></trkpt><trkpt lat="45.4663672" lon="10.5028232"><ele>142.0</ele><time>2026-04-08T08:41:52.478Z</time></trkpt><trkpt lat="45.4664397" lon="10.5027994"><ele>142.0</ele><time>2026-04-08T08:41:53.478Z</time></trkpt><trkpt lat="45.4665087" lon="10.5027735"><ele>142.0</ele><time>2026-04-08T08:41:54.478Z</time></trkpt><trkpt lat="45.4665732" lon="10.502726"><ele>142.0</ele><time>2026-04-08T08:41:55.478Z</time></trkpt><trkpt lat="45.4666194" lon="10.5026457"><ele>142.0</ele><time>2026-04-08T08:41:56.477Z</time></trkpt><trkpt lat="45.4666391" lon="10.5025557"><ele>142.0</ele><time>2026-04-08T08:41:57.477Z</time></trkpt><trkpt lat="45.4666327" lon="10.5024383"><ele>142.0</ele><time>2026-04-08T08:41:58.477Z</time></trkpt><trkpt lat="45.4666232" lon="10.5023005"><ele>142.0</ele><time>2026-04-08T08:41:59.477Z</time></trkpt><trkpt lat="45.4666246" lon="10.502156"><ele>142.0</ele><time>2026-04-08T08:42:00.477Z</time></trkpt><trkpt lat="45.4666283" lon="10.5020048"><ele>142.0</ele><time>2026-04-08T08:42:01.477Z</time></trkpt><trkpt lat="45.46663" lon="10.5018483"><ele>142.0</ele><time>2026-04-08T08:42:02.477Z</time></trkpt><trkpt lat="45.4666201" lon="10.501677"><ele>142.0</ele><time>2026-04-08T08:42:03.477Z</time></trkpt><trkpt lat="45.4665907" lon="10.5015059"><ele>142.0</ele><time>2026-04-08T08:42:04.478Z</time></trkpt><trkpt lat="45.4665375" lon="10.501336"><ele>142.0</ele><time>2026-04-08T08:42:05.478Z</time></trkpt><trkpt lat="45.466462" lon="10.5011687"><ele>142.0</ele><time>2026-04-08T08:42:06.477Z</time></trkpt><trkpt lat="45.46637" lon="10.5010099"><ele>142.0</ele><time>2026-04-08T08:42:07.477Z</time></trkpt><trkpt lat="45.4662838" lon="10.5008636"><ele>141.75</ele><time>2026-04-08T08:42:08.478Z</time></trkpt><trkpt lat="45.4662123" lon="10.5007366"><ele>141.5</ele><time>2026-04-08T08:42:09.478Z</time></trkpt><trkpt lat="45.4661409" lon="10.5006159"><ele>141.25</ele><time>2026-04-08T08:42:10.478Z</time></trkpt><trkpt lat="45.466073" lon="10.5004803"><ele>141.0</ele><time>2026-04-08T08:42:11.477Z</time></trkpt><trkpt lat="45.4660123" lon="10.5003415"><ele>141.4</ele><time>2026-04-08T08:42:12.478Z</time></trkpt><trkpt lat="45.4659559" lon="10.5002089"><ele>141.8</ele><time>2026-04-08T08:42:13.478Z</time></trkpt><trkpt lat="45.4659045" lon="10.5000708"><ele>142.20000000000002</ele><time>2026-04-08T08:42:14.477Z</time></trkpt><trkpt lat="45.4658485" lon="10.4999363"><ele>142.6</ele><time>2026-04-08T08:42:15.478Z</time></trkpt><trkpt lat="45.4657874" lon="10.4998074"><ele>143.0</ele><time>2026-04-08T08:42:16.477Z</time></trkpt><trkpt lat="45.4657206" lon="10.4996826"><ele>143.6</ele><time>2026-04-08T08:42:17.477Z</time></trkpt><trkpt lat="45.4656501" lon="10.4995629"><ele>144.20000000000002</ele><time>2026-04-08T08:42:18.477Z</time></trkpt><trkpt lat="45.4655719" lon="10.4994478"><ele>144.8</ele><time>2026-04-08T08:42:19.477Z</time></trkpt><trkpt lat="45.465492" lon="10.4993312"><ele>145.4</ele><time>2026-04-08T08:42:20.477Z</time></trkpt><trkpt lat="45.4654154" lon="10.4992128"><ele>146.0</ele><time>2026-04-08T08:42:21.478Z</time></trkpt><trkpt lat="45.4653373" lon="10.4990973"><ele>146.4</ele><time>2026-04-08T08:42:22.477Z</time></trkpt><trkpt lat="45.4652608" lon="10.4989845"><ele>146.8</ele><time>2026-04-08T08:42:23.478Z</time></trkpt><trkpt lat="45.4651802" lon="10.4988709"><ele>147.20000000000002</ele><time>2026-04-08T08:42:24.478Z</time></trkpt><trkpt lat="45.465102" lon="10.4987604"><ele>147.6</ele><time>2026-04-08T08:42:25.477Z</time></trkpt><trkpt lat="45.4650197" lon="10.4986441"><ele>148.0</ele><time>2026-04-08T08:42:26.477Z</time></trkpt><trkpt lat="45.4649382" lon="10.4985261"><ele>149.0</ele><time>2026-04-08T08:42:27.478Z</time></trkpt><trkpt lat="45.4648575" lon="10.4984045"><ele>150.0</ele><time>2026-04-08T08:42:28.478Z</time></trkpt><trkpt lat="45.4647729" lon="10.4982845"><ele>151.0</ele><time>2026-04-08T08:42:29.477Z</time></trkpt><trkpt lat="45.4646895" lon="10.4981639"><ele>152.0</ele><time>2026-04-08T08:42:30.477Z</time></trkpt><trkpt lat="45.464605" lon="10.4980471"><ele>153.0</ele><time>2026-04-08T08:42:31.478Z</time></trkpt><trkpt lat="45.4645239" lon="10.4979297"><ele>154.0</ele><time>2026-04-08T08:42:32.477Z</time></trkpt><trkpt lat="45.4644459" lon="10.4978154"><ele>155.0</ele><time>2026-04-08T08:42:33.477Z</time></trkpt><trkpt lat="45.4643646" lon="10.497702"><ele>156.0</ele><time>2026-04-08T08:42:34.478Z</time></trkpt><trkpt lat="45.4642768" lon="10.4975918"><ele>157.5</ele><time>2026-04-08T08:42:35.477Z</time></trkpt><trkpt lat="45.464189" lon="10.4974861"><ele>159.0</ele><time>2026-04-08T08:42:36.478Z</time></trkpt><trkpt lat="45.4640971" lon="10.4973844"><ele>160.5</ele><time>2026-04-08T08:42:37.477Z</time></trkpt><trkpt lat="45.4640028" lon="10.4972898"><ele>162.0</ele><time>2026-04-08T08:42:38.477Z</time></trkpt><trkpt lat="45.4639065" lon="10.4972029"><ele>162.0</ele><time>2026-04-08T08:42:39.478Z</time></trkpt><trkpt lat="45.4638101" lon="10.4971247"><ele>162.0</ele><time>2026-04-08T08:42:40.478Z</time></trkpt><trkpt lat="45.4637168" lon="10.4970575"><ele>162.0</ele><time>2026-04-08T08:42:41.477Z</time></trkpt><trkpt lat="45.4636285" lon="10.4969844"><ele>162.0</ele><time>2026-04-08T08:42:42.477Z</time></trkpt><trkpt lat="45.4635427" lon="10.4969015"><ele>162.0</ele><time>2026-04-08T08:42:43.478Z</time></trkpt><trkpt lat="45.4634642" lon="10.4968178"><ele>161.2</ele><time>2026-04-08T08:42:44.478Z</time></trkpt><trkpt lat="45.4633903" lon="10.4967331"><ele>160.39999999999998</ele><time>2026-04-08T08:42:45.478Z</time></trkpt><trkpt lat="45.46332" lon="10.4966397"><ele>159.60000000000002</ele><time>2026-04-08T08:42:46.478Z</time></trkpt><trkpt lat="45.4632517" lon="10.496543"><ele>158.8</ele><time>2026-04-08T08:42:47.478Z</time></trkpt><trkpt lat="45.4631806" lon="10.4964409"><ele>158.0</ele><time>2026-04-08T08:42:48.427Z</time></trkpt><trkpt lat="45.4631105" lon="10.4963294"><ele>157.5</ele><time>2026-04-08T08:42:49.427Z</time></trkpt><trkpt lat="45.4630328" lon="10.496222"><ele>157.0</ele><time>2026-04-08T08:42:50.427Z</time></trkpt><trkpt lat="45.4629381" lon="10.4961155"><ele>156.5</ele><time>2026-04-08T08:42:51.428Z</time></trkpt><trkpt lat="45.4628337" lon="10.4960169"><ele>156.0</ele><time>2026-04-08T08:42:52.428Z</time></trkpt><trkpt lat="45.4627246" lon="10.4959269"><ele>156.0</ele><time>2026-04-08T08:42:53.428Z</time></trkpt><trkpt lat="45.4626093" lon="10.4958383"><ele>156.0</ele><time>2026-04-08T08:42:54.429Z</time></trkpt><trkpt lat="45.4624917" lon="10.495746"><ele>156.0</ele><time>2026-04-08T08:42:55.429Z</time></trkpt><trkpt lat="45.4623767" lon="10.4956573"><ele>156.0</ele><time>2026-04-08T08:42:56.428Z</time></trkpt><trkpt lat="45.4622633" lon="10.4955697"><ele>156.0</ele><time>2026-04-08T08:42:57.428Z</time></trkpt><trkpt lat="45.4621561" lon="10.4954816"><ele>156.0</ele><time>2026-04-08T08:42:58.429Z</time></trkpt><trkpt lat="45.4620529" lon="10.4953912"><ele>156.0</ele><time>2026-04-08T08:42:59.429Z</time></trkpt><trkpt lat="45.4619482" lon="10.4953007"><ele>156.0</ele><time>2026-04-08T08:43:00.429Z</time></trkpt><trkpt lat="45.4618462" lon="10.4952175"><ele>156.6</ele><time>2026-04-08T08:43:01.429Z</time></trkpt><trkpt lat="45.4617472" lon="10.4951439"><ele>157.2</ele><time>2026-04-08T08:43:02.428Z</time></trkpt><trkpt lat="45.4616575" lon="10.4950733"><ele>157.8</ele><time>2026-04-08T08:43:03.429Z</time></trkpt><trkpt lat="45.461572" lon="10.495007"><ele>158.4</ele><time>2026-04-08T08:43:04.428Z</time></trkpt><trkpt lat="45.4614925" lon="10.4949546"><ele>159.0</ele><time>2026-04-08T08:43:05.428Z</time></trkpt><trkpt lat="45.4614139" lon="10.4949215"><ele>159.0</ele><time>2026-04-08T08:43:06.428Z</time></trkpt><trkpt lat="45.4613507" lon="10.4949025"><ele>159.0</ele><time>2026-04-08T08:43:07.428Z</time></trkpt><trkpt lat="45.4612416" lon="10.4949107"><ele>159.0</ele><time>2026-04-08T08:43:09.428Z</time></trkpt><trkpt lat="45.4611736" lon="10.4948895"><ele>159.0</ele><time>2026-04-08T08:43:10.429Z</time></trkpt><trkpt lat="45.4610962" lon="10.4948497"><ele>159.0</ele><time>2026-04-08T08:43:11.428Z</time></trkpt><trkpt lat="45.4610162" lon="10.4947888"><ele>159.0</ele><time>2026-04-08T08:43:12.429Z</time></trkpt><trkpt lat="45.4609322" lon="10.4947148"><ele>159.0</ele><time>2026-04-08T08:43:13.428Z</time></trkpt><trkpt lat="45.4608433" lon="10.4946381"><ele>159.0</ele><time>2026-04-08T08:43:14.428Z</time></trkpt><trkpt lat="45.4607559" lon="10.4945548"><ele>159.0</ele><time>2026-04-08T08:43:15.429Z</time></trkpt><trkpt lat="45.4606635" lon="10.4944611"><ele>159.0</ele><time>2026-04-08T08:43:16.429Z</time></trkpt><trkpt lat="45.4605769" lon="10.4943356"><ele>159.0</ele><time>2026-04-08T08:43:17.429Z</time></trkpt><trkpt lat="45.4605103" lon="10.494177"><ele>159.0</ele><time>2026-04-08T08:43:18.429Z</time></trkpt><trkpt lat="45.460463" lon="10.494005"><ele>159.0</ele><time>2026-04-08T08:43:19.429Z</time></trkpt><trkpt lat="45.4604402" lon="10.4938164"><ele>159.0</ele><time>2026-04-08T08:43:20.428Z</time></trkpt><trkpt lat="45.4604451" lon="10.4936283"><ele>159.0</ele><time>2026-04-08T08:43:21.429Z</time></trkpt><trkpt lat="45.4604692" lon="10.4934337"><ele>160.25</ele><time>2026-04-08T08:43:22.429Z</time></trkpt><trkpt lat="45.4605051" lon="10.4932414"><ele>161.5</ele><time>2026-04-08T08:43:23.429Z</time></trkpt><trkpt lat="45.4605404" lon="10.4930623"><ele>162.75</ele><time>2026-04-08T08:43:24.429Z</time></trkpt><trkpt lat="45.4605694" lon="10.4929012"><ele>164.0</ele><time>2026-04-08T08:43:25.428Z</time></trkpt><trkpt lat="45.460597" lon="10.4927492"><ele>164.0</ele><time>2026-04-08T08:43:26.428Z</time></trkpt><trkpt lat="45.4606214" lon="10.4925971"><ele>164.0</ele><time>2026-04-08T08:43:27.428Z</time></trkpt><trkpt lat="45.4606432" lon="10.4924475"><ele>164.0</ele><time>2026-04-08T08:43:28.428Z</time></trkpt><trkpt lat="45.4606682" lon="10.4923011"><ele>164.0</ele><time>2026-04-08T08:43:29.428Z</time></trkpt><trkpt lat="45.4606925" lon="10.4921526"><ele>164.0</ele><time>2026-04-08T08:43:30.429Z</time></trkpt><trkpt lat="45.4607127" lon="10.4920124"><ele>164.0</ele><time>2026-04-08T08:43:31.428Z</time></trkpt><trkpt lat="45.460728" lon="10.4918803"><ele>164.0</ele><time>2026-04-08T08:43:32.429Z</time></trkpt><trkpt lat="45.4607406" lon="10.4917544"><ele>164.0</ele><time>2026-04-08T08:43:33.428Z</time></trkpt><trkpt lat="45.4607521" lon="10.4916406"><ele>164.0</ele><time>2026-04-08T08:43:34.429Z</time></trkpt><trkpt lat="45.4607575" lon="10.4915411"><ele>164.0</ele><time>2026-04-08T08:43:35.429Z</time></trkpt><trkpt lat="45.4607575" lon="10.4913824"><ele>164.0</ele><time>2026-04-08T08:43:37.429Z</time></trkpt><trkpt lat="45.4607862" lon="10.4912513"><ele>164.0</ele><time>2026-04-08T08:43:39.43Z</time></trkpt><trkpt lat="45.4608768" lon="10.4911656"><ele>164.0</ele><time>2026-04-08T08:43:41.429Z</time></trkpt><trkpt lat="45.460971" lon="10.4910978"><ele>164.0</ele><time>2026-04-08T08:43:43.429Z</time></trkpt><trkpt lat="45.4610486" lon="10.4909861"><ele>164.0</ele><time>2026-04-08T08:43:45.429Z</time></trkpt><trkpt lat="45.4610858" lon="10.4908088"><ele>164.0</ele><time>2026-04-08T08:43:47.43Z</time></trkpt><trkpt lat="45.4611042" lon="10.49071"><ele>164.0</ele><time>2026-04-08T08:43:48.43Z</time></trkpt><trkpt lat="45.461132" lon="10.4906121"><ele>164.0</ele><time>2026-04-08T08:43:49.43Z</time></trkpt><trkpt lat="45.4611736" lon="10.490508"><ele>164.0</ele><time>2026-04-08T08:43:50.429Z</time></trkpt><trkpt lat="45.461231" lon="10.4904032"><ele>164.0</ele><time>2026-04-08T08:43:51.429Z</time></trkpt><trkpt lat="45.4612922" lon="10.4902994"><ele>164.0</ele><time>2026-04-08T08:43:52.43Z</time></trkpt><trkpt lat="45.4613476" lon="10.4901941"><ele>164.33333333333331</ele><time>2026-04-08T08:43:53.43Z</time></trkpt><trkpt lat="45.4613963" lon="10.4900988"><ele>164.66666666666666</ele><time>2026-04-08T08:43:54.43Z</time></trkpt><trkpt lat="45.4614485" lon="10.4900128"><ele>165.0</ele><time>2026-04-08T08:43:55.429Z</time></trkpt><trkpt lat="45.4615143" lon="10.4899383"><ele>165.33333333333334</ele><time>2026-04-08T08:43:56.429Z</time></trkpt><trkpt lat="45.4615888" lon="10.4898816"><ele>165.66666666666669</ele><time>2026-04-08T08:43:57.43Z</time></trkpt><trkpt lat="45.4616642" lon="10.4898319"><ele>166.0</ele><time>2026-04-08T08:43:58.429Z</time></trkpt><trkpt lat="45.4617355" lon="10.4897744"><ele>166.0</ele><time>2026-04-08T08:43:59.429Z</time></trkpt><trkpt lat="45.4617894" lon="10.4896817"><ele>166.0</ele><time>2026-04-08T08:44:00.43Z</time></trkpt><trkpt lat="45.4618108" lon="10.4895678"><ele>166.0</ele><time>2026-04-08T08:44:01.429Z</time></trkpt><trkpt lat="45.4618061" lon="10.4894393"><ele>166.0</ele><time>2026-04-08T08:44:02.43Z</time></trkpt><trkpt lat="45.4617735" lon="10.4893102"><ele>166.0</ele><time>2026-04-08T08:44:03.429Z</time></trkpt><trkpt lat="45.4617145" lon="10.4891708"><ele>166.5</ele><time>2026-04-08T08:44:04.429Z</time></trkpt><trkpt lat="45.4616601" lon="10.4890166"><ele>167.0</ele><time>2026-04-08T08:44:05.429Z</time></trkpt><trkpt lat="45.4616125" lon="10.488843"><ele>167.5</ele><time>2026-04-08T08:44:06.429Z</time></trkpt><trkpt lat="45.4615621" lon="10.4886758"><ele>168.0</ele><time>2026-04-08T08:44:07.429Z</time></trkpt><trkpt lat="45.4615056" lon="10.4885262"><ele>168.0</ele><time>2026-04-08T08:44:08.429Z</time></trkpt><trkpt lat="45.461438" lon="10.4883844"><ele>168.0</ele><time>2026-04-08T08:44:09.429Z</time></trkpt><trkpt lat="45.4613573" lon="10.4882511"><ele>168.0</ele><time>2026-04-08T08:44:10.429Z</time></trkpt><trkpt lat="45.4612607" lon="10.4881401"><ele>168.0</ele><time>2026-04-08T08:44:11.429Z</time></trkpt><trkpt lat="45.4611491" lon="10.4880372"><ele>168.0</ele><time>2026-04-08T08:44:12.43Z</time></trkpt><trkpt lat="45.4610423" lon="10.4879344"><ele>168.0</ele><time>2026-04-08T08:44:13.429Z</time></trkpt><trkpt lat="45.4609313" lon="10.4878334"><ele>168.0</ele><time>2026-04-08T08:44:14.43Z</time></trkpt><trkpt lat="45.460816" lon="10.4877419"><ele>168.0</ele><time>2026-04-08T08:44:15.43Z</time></trkpt><trkpt lat="45.4606982" lon="10.4876512"><ele>168.5</ele><time>2026-04-08T08:44:16.429Z</time></trkpt><trkpt lat="45.4605772" lon="10.4875654"><ele>169.0</ele><time>2026-04-08T08:44:17.43Z</time></trkpt><trkpt lat="45.4604518" lon="10.487487"><ele>169.5</ele><time>2026-04-08T08:44:18.43Z</time></trkpt><trkpt lat="45.4603208" lon="10.4874119"><ele>170.0</ele><time>2026-04-08T08:44:19.43Z</time></trkpt><trkpt lat="45.4601981" lon="10.4873542"><ele>170.0</ele><time>2026-04-08T08:44:20.429Z</time></trkpt><trkpt lat="45.4600851" lon="10.487293"><ele>170.0</ele><time>2026-04-08T08:44:21.43Z</time></trkpt><trkpt lat="45.459975" lon="10.4872459"><ele>170.0</ele><time>2026-04-08T08:44:22.429Z</time></trkpt><trkpt lat="45.4598691" lon="10.4872038"><ele>170.0</ele><time>2026-04-08T08:44:23.43Z</time></trkpt><trkpt lat="45.4597735" lon="10.4871563"><ele>170.0</ele><time>2026-04-08T08:44:24.431Z</time></trkpt><trkpt lat="45.459689" lon="10.4871042"><ele>171.2</ele><time>2026-04-08T08:44:25.43Z</time></trkpt><trkpt lat="45.4596061" lon="10.4870427"><ele>172.4</ele><time>2026-04-08T08:44:26.431Z</time></trkpt><trkpt lat="45.4595256" lon="10.4869692"><ele>173.60000000000002</ele><time>2026-04-08T08:44:27.431Z</time></trkpt><trkpt lat="45.4594585" lon="10.4868822"><ele>174.8</ele><time>2026-04-08T08:44:28.43Z</time></trkpt><trkpt lat="45.4593997" lon="10.4867788"><ele>176.0</ele><time>2026-04-08T08:44:29.431Z</time></trkpt><trkpt lat="45.4593639" lon="10.4866753"><ele>176.0</ele><time>2026-04-08T08:44:30.431Z</time></trkpt><trkpt lat="45.4593474" lon="10.4865838"><ele>176.0</ele><time>2026-04-08T08:44:31.43Z</time></trkpt><trkpt lat="45.4593512" lon="10.4864926"><ele>176.0</ele><time>2026-04-08T08:44:32.431Z</time></trkpt><trkpt lat="45.4593622" lon="10.4864006"><ele>176.0</ele><time>2026-04-08T08:44:33.43Z</time></trkpt><trkpt lat="45.4593736" lon="10.4863033"><ele>176.0</ele><time>2026-04-08T08:44:34.431Z</time></trkpt><trkpt lat="45.4593856" lon="10.4862033"><ele>176.0</ele><time>2026-04-08T08:44:35.431Z</time></trkpt><trkpt lat="45.4594073" lon="10.486097"><ele>176.0</ele><time>2026-04-08T08:44:36.431Z</time></trkpt><trkpt lat="45.4594266" lon="10.4859936"><ele>176.57142857142858</ele><time>2026-04-08T08:44:37.43Z</time></trkpt><trkpt lat="45.4594437" lon="10.4858879"><ele>177.14285714285714</ele><time>2026-04-08T08:44:38.43Z</time></trkpt><trkpt lat="45.4594636" lon="10.4857847"><ele>177.71428571428572</ele><time>2026-04-08T08:44:39.431Z</time></trkpt><trkpt lat="45.4594786" lon="10.4856884"><ele>178.28571428571428</ele><time>2026-04-08T08:44:40.43Z</time></trkpt><trkpt lat="45.4594899" lon="10.4855953"><ele>178.85714285714286</ele><time>2026-04-08T08:44:41.43Z</time></trkpt><trkpt lat="45.4595083" lon="10.4855021"><ele>179.42857142857142</ele><time>2026-04-08T08:44:42.431Z</time></trkpt><trkpt lat="45.459525" lon="10.4853858"><ele>180.0</ele><time>2026-04-08T08:44:43.43Z</time></trkpt><trkpt lat="45.4595396" lon="10.485275"><ele>180.16666666666666</ele><time>2026-04-08T08:44:44.43Z</time></trkpt><trkpt lat="45.4595564" lon="10.4851705"><ele>180.33333333333334</ele><time>2026-04-08T08:44:45.43Z</time></trkpt><trkpt lat="45.4595709" lon="10.485071"><ele>180.5</ele><time>2026-04-08T08:44:46.431Z</time></trkpt><trkpt lat="45.4595959" lon="10.484906"><ele>180.66666666666669</ele><time>2026-04-08T08:44:48.431Z</time></trkpt><trkpt lat="45.4596198" lon="10.4848182"><ele>180.83333333333334</ele><time>2026-04-08T08:44:49.43Z</time></trkpt><trkpt lat="45.4596204" lon="10.4846648"><ele>181.0</ele><time>2026-04-08T08:44:51.43Z</time></trkpt><trkpt lat="45.4596433" lon="10.4844858"><ele>181.0</ele><time>2026-04-08T08:44:53.43Z</time></trkpt><trkpt lat="45.4596716" lon="10.4843057"><ele>181.0</ele><time>2026-04-08T08:44:55.43Z</time></trkpt><trkpt lat="45.4597015" lon="10.4841718"><ele>181.0</ele><time>2026-04-08T08:44:57.43Z</time></trkpt><trkpt lat="45.4597289" lon="10.4840374"><ele>181.0</ele><time>2026-04-08T08:44:59.43Z</time></trkpt><trkpt lat="45.4597577" lon="10.4839007"><ele>181.0</ele><time>2026-04-08T08:45:01.431Z</time></trkpt><trkpt lat="45.4597836" lon="10.4837578"><ele>180.83333333333334</ele><time>2026-04-08T08:45:03.43Z</time></trkpt><trkpt lat="45.4597719" lon="10.4836694"><ele>180.66666666666669</ele><time>2026-04-08T08:45:05.431Z</time></trkpt><trkpt lat="45.4596923" lon="10.4836457"><ele>180.5</ele><time>2026-04-08T08:45:07.431Z</time></trkpt><trkpt lat="45.4595906" lon="10.4836154"><ele>180.33333333333334</ele><time>2026-04-08T08:45:09.432Z</time></trkpt><trkpt lat="45.4594829" lon="10.4836196"><ele>180.16666666666666</ele><time>2026-04-08T08:45:11.432Z</time></trkpt><trkpt lat="45.4594015" lon="10.4836491"><ele>180.0</ele><time>2026-04-08T08:45:13.431Z</time></trkpt><trkpt lat="45.4593256" lon="10.4836785"><ele>179.6</ele><time>2026-04-08T08:45:15.431Z</time></trkpt><trkpt lat="45.4592804" lon="10.4834249"><ele>179.2</ele><time>2026-04-08T08:45:21.431Z</time></trkpt><trkpt lat="45.4592717" lon="10.483326"><ele>178.8</ele><time>2026-04-08T08:45:22.431Z</time></trkpt><trkpt lat="45.4592558" lon="10.4831809"><ele>178.4</ele><time>2026-04-08T08:45:24.431Z</time></trkpt><trkpt lat="45.4592409" lon="10.4830697"><ele>178.0</ele><time>2026-04-08T08:45:26.431Z</time></trkpt><trkpt lat="45.4591493" lon="10.4830825"><ele>178.0</ele><time>2026-04-08T08:45:30.432Z</time></trkpt><trkpt lat="45.4590136" lon="10.4831148"><ele>178.0</ele><time>2026-04-08T08:45:32.432Z</time></trkpt><trkpt lat="45.4589493" lon="10.483113"><ele>178.0</ele><time>2026-04-08T08:45:33.432Z</time></trkpt><trkpt lat="45.4588867" lon="10.4831228"><ele>178.0</ele><time>2026-04-08T08:45:34.431Z</time></trkpt><trkpt lat="45.4587994" lon="10.4832541"><ele>178.0</ele><time>2026-04-08T08:45:36.432Z</time></trkpt><trkpt lat="45.4587733" lon="10.4833628"><ele>177.83333333333334</ele><time>2026-04-08T08:45:37.432Z</time></trkpt><trkpt lat="45.4587346" lon="10.4834884"><ele>177.66666666666669</ele><time>2026-04-08T08:45:38.431Z</time></trkpt><trkpt lat="45.4587042" lon="10.483629"><ele>177.5</ele><time>2026-04-08T08:45:39.432Z</time></trkpt><trkpt lat="45.4586778" lon="10.4837591"><ele>177.33333333333334</ele><time>2026-04-08T08:45:40.432Z</time></trkpt><trkpt lat="45.4586548" lon="10.4838658"><ele>177.16666666666666</ele><time>2026-04-08T08:45:41.432Z</time></trkpt><trkpt lat="45.4586271" lon="10.4839678"><ele>177.0</ele><time>2026-04-08T08:45:42.431Z</time></trkpt><trkpt lat="45.4585973" lon="10.484067"><ele>177.0</ele><time>2026-04-08T08:45:43.431Z</time></trkpt><trkpt lat="45.4585647" lon="10.4841588"><ele>177.0</ele><time>2026-04-08T08:45:44.431Z</time></trkpt><trkpt lat="45.458533" lon="10.4842539"><ele>177.0</ele><time>2026-04-08T08:45:45.432Z</time></trkpt><trkpt lat="45.4585049" lon="10.48435"><ele>177.0</ele><time>2026-04-08T08:45:46.431Z</time></trkpt><trkpt lat="45.458478" lon="10.484435"><ele>177.0</ele><time>2026-04-08T08:45:47.431Z</time></trkpt><trkpt lat="45.4584355" lon="10.4845908"><ele>177.0</ele><time>2026-04-08T08:45:49.432Z</time></trkpt><trkpt lat="45.4583882" lon="10.4846862"><ele>177.5</ele><time>2026-04-08T08:45:51.431Z</time></trkpt><trkpt lat="45.4583359" lon="10.4847613"><ele>178.0</ele><time>2026-04-08T08:45:54.432Z</time></trkpt><trkpt lat="45.4582866" lon="10.4848785"><ele>178.5</ele><time>2026-04-08T08:45:56.433Z</time></trkpt><trkpt lat="45.458228" lon="10.4850313"><ele>179.0</ele><time>2026-04-08T08:45:58.433Z</time></trkpt><trkpt lat="45.4581847" lon="10.4851163"><ele>179.5</ele><time>2026-04-08T08:45:59.433Z</time></trkpt><trkpt lat="45.4581335" lon="10.4852082"><ele>180.0</ele><time>2026-04-08T08:46:00.432Z</time></trkpt><trkpt lat="45.4580903" lon="10.4852964"><ele>180.0</ele><time>2026-04-08T08:46:01.432Z</time></trkpt><trkpt lat="45.4580519" lon="10.4853714"><ele>180.0</ele><time>2026-04-08T08:46:02.432Z</time></trkpt><trkpt lat="45.4580047" lon="10.4855142"><ele>180.0</ele><time>2026-04-08T08:46:04.433Z</time></trkpt><trkpt lat="45.4579724" lon="10.4856027"><ele>180.0</ele><time>2026-04-08T08:46:06.433Z</time></trkpt><trkpt lat="45.4579837" lon="10.4857048"><ele>180.0</ele><time>2026-04-08T08:46:10.432Z</time></trkpt><trkpt lat="45.4579891" lon="10.4856118"><ele>180.0</ele><time>2026-04-08T08:46:34.432Z</time></trkpt><trkpt lat="45.4580169" lon="10.4854891"><ele>180.0</ele><time>2026-04-08T08:46:36.433Z</time></trkpt><trkpt lat="45.4580824" lon="10.4853533"><ele>180.0</ele><time>2026-04-08T08:46:38.432Z</time></trkpt><trkpt lat="45.4581335" lon="10.4852396"><ele>180.0</ele><time>2026-04-08T08:46:40.434Z</time></trkpt><trkpt lat="45.4582099" lon="10.4851004"><ele>180.0</ele><time>2026-04-08T08:46:42.433Z</time></trkpt><trkpt lat="45.458248" lon="10.4850234"><ele>180.0</ele><time>2026-04-08T08:46:43.434Z</time></trkpt><trkpt lat="45.4583118" lon="10.4848989"><ele>180.0</ele><time>2026-04-08T08:46:45.433Z</time></trkpt><trkpt lat="45.4583492" lon="10.4847944"><ele>180.0</ele><time>2026-04-08T08:46:47.433Z</time></trkpt><trkpt lat="45.4582931" lon="10.4847096"><ele>180.0</ele><time>2026-04-08T08:46:52.433Z</time></trkpt><trkpt lat="45.4582221" lon="10.484679"><ele>180.0</ele><time>2026-04-08T08:46:54.434Z</time></trkpt><trkpt lat="45.4581811" lon="10.4846064"><ele>180.0</ele><time>2026-04-08T08:46:56.433Z</time></trkpt><trkpt lat="45.4582573" lon="10.4844957"><ele>180.0</ele><time>2026-04-08T08:46:58.433Z</time></trkpt><trkpt lat="45.4583065" lon="10.4844235"><ele>179.5</ele><time>2026-04-08T08:46:59.433Z</time></trkpt><trkpt lat="45.4583534" lon="10.4843339"><ele>179.0</ele><time>2026-04-08T08:47:00.433Z</time></trkpt><trkpt lat="45.4583896" lon="10.4842359"><ele>178.5</ele><time>2026-04-08T08:47:01.434Z</time></trkpt><trkpt lat="45.4584197" lon="10.4841399"><ele>178.0</ele><time>2026-04-08T08:47:02.433Z</time></trkpt><trkpt lat="45.4584466" lon="10.4840583"><ele>177.5</ele><time>2026-04-08T08:47:03.433Z</time></trkpt><trkpt lat="45.4584997" lon="10.4839054"><ele>177.0</ele><time>2026-04-08T08:47:05.434Z</time></trkpt><trkpt lat="45.4584884" lon="10.4837638"><ele>175.83333333333334</ele><time>2026-04-08T08:47:07.434Z</time></trkpt><trkpt lat="45.4583899" lon="10.4836483"><ele>174.66666666666666</ele><time>2026-04-08T08:47:09.433Z</time></trkpt><trkpt lat="45.4583306" lon="10.4835975"><ele>173.5</ele><time>2026-04-08T08:47:10.434Z</time></trkpt><trkpt lat="45.4582675" lon="10.4835361"><ele>172.33333333333331</ele><time>2026-04-08T08:47:11.433Z</time></trkpt><trkpt lat="45.4581962" lon="10.4834757"><ele>171.16666666666666</ele><time>2026-04-08T08:47:12.433Z</time></trkpt><trkpt lat="45.4581249" lon="10.4834092"><ele>170.0</ele><time>2026-04-08T08:47:13.434Z</time></trkpt><trkpt lat="45.4580548" lon="10.4833398"><ele>170.0</ele><time>2026-04-08T08:47:14.434Z</time></trkpt><trkpt lat="45.4579811" lon="10.4832733"><ele>170.0</ele><time>2026-04-08T08:47:15.433Z</time></trkpt><trkpt lat="45.4579065" lon="10.4832082"><ele>170.0</ele><time>2026-04-08T08:47:16.433Z</time></trkpt><trkpt lat="45.4578355" lon="10.4831475"><ele>170.0</ele><time>2026-04-08T08:47:17.434Z</time></trkpt><trkpt lat="45.4577623" lon="10.4830867"><ele>170.0</ele><time>2026-04-08T08:47:18.433Z</time></trkpt><trkpt lat="45.457696" lon="10.4830305"><ele>170.0</ele><time>2026-04-08T08:47:19.433Z</time></trkpt><trkpt lat="45.4576332" lon="10.4829862"><ele>168.6</ele><time>2026-04-08T08:47:20.433Z</time></trkpt><trkpt lat="45.4575668" lon="10.4829545"><ele>167.2</ele><time>2026-04-08T08:47:21.433Z</time></trkpt><trkpt lat="45.4575014" lon="10.4829242"><ele>165.8</ele><time>2026-04-08T08:47:22.434Z</time></trkpt><trkpt lat="45.4573904" lon="10.4828387"><ele>164.4</ele><time>2026-04-08T08:47:24.434Z</time></trkpt><trkpt lat="45.4572907" lon="10.4827363"><ele>163.0</ele><time>2026-04-08T08:47:26.435Z</time></trkpt><trkpt lat="45.4572031" lon="10.4826403"><ele>162.60000000000002</ele><time>2026-04-08T08:47:28.434Z</time></trkpt><trkpt lat="45.4571399" lon="10.4826627"><ele>162.20000000000002</ele><time>2026-04-08T08:47:31.434Z</time></trkpt><trkpt lat="45.4570975" lon="10.4828135"><ele>161.8</ele><time>2026-04-08T08:47:34.434Z</time></trkpt><trkpt lat="45.4570915" lon="10.4829938"><ele>161.4</ele><time>2026-04-08T08:47:36.434Z</time></trkpt><trkpt lat="45.457091" lon="10.4831015"><ele>161.0</ele><time>2026-04-08T08:47:37.435Z</time></trkpt><trkpt lat="45.4570869" lon="10.4832191"><ele>160.20000000000002</ele><time>2026-04-08T08:47:38.435Z</time></trkpt><trkpt lat="45.4570844" lon="10.4833516"><ele>159.4</ele><time>2026-04-08T08:47:39.434Z</time></trkpt><trkpt lat="45.4570851" lon="10.4834948"><ele>158.6</ele><time>2026-04-08T08:47:40.434Z</time></trkpt><trkpt lat="45.4570857" lon="10.4836432"><ele>157.8</ele><time>2026-04-08T08:47:41.434Z</time></trkpt><trkpt lat="45.4570857" lon="10.4837993"><ele>157.0</ele><time>2026-04-08T08:47:42.435Z</time></trkpt><trkpt lat="45.4570892" lon="10.4839611"><ele>156.75</ele><time>2026-04-08T08:47:43.435Z</time></trkpt><trkpt lat="45.4570972" lon="10.4841295"><ele>156.5</ele><time>2026-04-08T08:47:44.434Z</time></trkpt><trkpt lat="45.4571229" lon="10.4842968"><ele>156.25</ele><time>2026-04-08T08:47:45.435Z</time></trkpt><trkpt lat="45.4571625" lon="10.4844677"><ele>156.0</ele><time>2026-04-08T08:47:46.435Z</time></trkpt><trkpt lat="45.4572231" lon="10.4846294"><ele>158.8</ele><time>2026-04-08T08:47:47.434Z</time></trkpt><trkpt lat="45.4572773" lon="10.4847822"><ele>161.6</ele><time>2026-04-08T08:47:48.434Z</time></trkpt><trkpt lat="45.4573152" lon="10.4849297"><ele>164.4</ele><time>2026-04-08T08:47:49.434Z</time></trkpt><trkpt lat="45.4573355" lon="10.4850797"><ele>167.2</ele><time>2026-04-08T08:47:50.435Z</time></trkpt><trkpt lat="45.457348" lon="10.4852201"><ele>170.0</ele><time>2026-04-08T08:47:51.435Z</time></trkpt><trkpt lat="45.4573531" lon="10.4853642"><ele>169.4</ele><time>2026-04-08T08:47:52.486Z</time></trkpt><trkpt lat="45.4573524" lon="10.4855051"><ele>168.8</ele><time>2026-04-08T08:47:53.486Z</time></trkpt><trkpt lat="45.4573653" lon="10.4856439"><ele>168.2</ele><time>2026-04-08T08:47:54.486Z</time></trkpt><trkpt lat="45.4573935" lon="10.4857771"><ele>167.6</ele><time>2026-04-08T08:47:55.487Z</time></trkpt><trkpt lat="45.4574318" lon="10.4859079"><ele>167.0</ele><time>2026-04-08T08:47:56.486Z</time></trkpt><trkpt lat="45.4574802" lon="10.4860372"><ele>167.0</ele><time>2026-04-08T08:47:57.487Z</time></trkpt><trkpt lat="45.4575349" lon="10.486163"><ele>167.0</ele><time>2026-04-08T08:47:58.487Z</time></trkpt><trkpt lat="45.4575903" lon="10.4862838"><ele>167.0</ele><time>2026-04-08T08:47:59.487Z</time></trkpt><trkpt lat="45.4576385" lon="10.4863943"><ele>167.0</ele><time>2026-04-08T08:48:00.486Z</time></trkpt><trkpt lat="45.4576788" lon="10.4865121"><ele>167.0</ele><time>2026-04-08T08:48:01.486Z</time></trkpt><trkpt lat="45.4577045" lon="10.4866235"><ele>166.0</ele><time>2026-04-08T08:48:02.486Z</time></trkpt><trkpt lat="45.4577121" lon="10.4867379"><ele>165.0</ele><time>2026-04-08T08:48:03.486Z</time></trkpt><trkpt lat="45.4576963" lon="10.486854"><ele>164.0</ele><time>2026-04-08T08:48:04.486Z</time></trkpt><trkpt lat="45.4576731" lon="10.4869674"><ele>163.0</ele><time>2026-04-08T08:48:05.487Z</time></trkpt><trkpt lat="45.4576433" lon="10.4871072"><ele>162.0</ele><time>2026-04-08T08:48:06.487Z</time></trkpt><trkpt lat="45.4576103" lon="10.487263"><ele>160.75</ele><time>2026-04-08T08:48:07.487Z</time></trkpt><trkpt lat="45.4575994" lon="10.4874371"><ele>159.5</ele><time>2026-04-08T08:48:08.486Z</time></trkpt><trkpt lat="45.4576153" lon="10.4876384"><ele>158.25</ele><time>2026-04-08T08:48:09.486Z</time></trkpt><trkpt lat="45.457653" lon="10.4878312"><ele>157.0</ele><time>2026-04-08T08:48:10.486Z</time></trkpt><trkpt lat="45.4577092" lon="10.4880236"><ele>157.0</ele><time>2026-04-08T08:48:11.486Z</time></trkpt><trkpt lat="45.4577734" lon="10.4882126"><ele>157.0</ele><time>2026-04-08T08:48:12.486Z</time></trkpt><trkpt lat="45.4578379" lon="10.4883883"><ele>157.0</ele><time>2026-04-08T08:48:13.487Z</time></trkpt><trkpt lat="45.4578991" lon="10.4885477"><ele>157.0</ele><time>2026-04-08T08:48:14.487Z</time></trkpt><trkpt lat="45.4579544" lon="10.4886982"><ele>158.2</ele><time>2026-04-08T08:48:15.487Z</time></trkpt><trkpt lat="45.4580045" lon="10.4888389"><ele>159.39999999999998</ele><time>2026-04-08T08:48:16.487Z</time></trkpt><trkpt lat="45.4580508" lon="10.4889697"><ele>160.60000000000002</ele><time>2026-04-08T08:48:17.486Z</time></trkpt><trkpt lat="45.4580861" lon="10.4890995"><ele>161.8</ele><time>2026-04-08T08:48:18.486Z</time></trkpt><trkpt lat="45.4580944" lon="10.4892142"><ele>163.0</ele><time>2026-04-08T08:48:19.486Z</time></trkpt><trkpt lat="45.4580571" lon="10.4893661"><ele>163.2</ele><time>2026-04-08T08:48:21.486Z</time></trkpt><trkpt lat="45.4579434" lon="10.489468"><ele>163.4</ele><time>2026-04-08T08:48:23.486Z</time></trkpt><trkpt lat="45.4578718" lon="10.4895212"><ele>163.6</ele><time>2026-04-08T08:48:24.486Z</time></trkpt><trkpt lat="45.4577942" lon="10.4895745"><ele>163.79999999999998</ele><time>2026-04-08T08:48:25.486Z</time></trkpt><trkpt lat="45.4577121" lon="10.4896308"><ele>164.0</ele><time>2026-04-08T08:48:26.486Z</time></trkpt><trkpt lat="45.4576365" lon="10.4896824"><ele>164.0</ele><time>2026-04-08T08:48:27.486Z</time></trkpt><trkpt lat="45.4575595" lon="10.4897277"><ele>164.0</ele><time>2026-04-08T08:48:28.487Z</time></trkpt><trkpt lat="45.4574871" lon="10.4897616"><ele>164.0</ele><time>2026-04-08T08:48:29.486Z</time></trkpt><trkpt lat="45.4574196" lon="10.4897637"><ele>164.0</ele><time>2026-04-08T08:48:30.486Z</time></trkpt><trkpt lat="45.4573499" lon="10.4897295"><ele>164.0</ele><time>2026-04-08T08:48:31.486Z</time></trkpt><trkpt lat="45.4572822" lon="10.4896506"><ele>164.0</ele><time>2026-04-08T08:48:32.486Z</time></trkpt><trkpt lat="45.4572196" lon="10.4895642"><ele>163.39999999999998</ele><time>2026-04-08T08:48:33.487Z</time></trkpt><trkpt lat="45.4571546" lon="10.4894699"><ele>162.8</ele><time>2026-04-08T08:48:34.486Z</time></trkpt><trkpt lat="45.4570771" lon="10.4893658"><ele>162.2</ele><time>2026-04-08T08:48:35.486Z</time></trkpt><trkpt lat="45.457006" lon="10.4892539"><ele>161.60000000000002</ele><time>2026-04-08T08:48:36.487Z</time></trkpt><trkpt lat="45.456939" lon="10.4891547"><ele>161.0</ele><time>2026-04-08T08:48:37.487Z</time></trkpt><trkpt lat="45.4568737" lon="10.4890555"><ele>160.8</ele><time>2026-04-08T08:48:38.487Z</time></trkpt><trkpt lat="45.4568232" lon="10.488948"><ele>160.60000000000002</ele><time>2026-04-08T08:48:39.487Z</time></trkpt><trkpt lat="45.4567868" lon="10.4888336"><ele>160.4</ele><time>2026-04-08T08:48:40.487Z</time></trkpt><trkpt lat="45.4567526" lon="10.4887112"><ele>160.2</ele><time>2026-04-08T08:48:41.487Z</time></trkpt><trkpt lat="45.4567095" lon="10.4885954"><ele>160.0</ele><time>2026-04-08T08:48:42.486Z</time></trkpt><trkpt lat="45.4566605" lon="10.4884809"><ele>159.8</ele><time>2026-04-08T08:48:43.486Z</time></trkpt><trkpt lat="45.4566151" lon="10.4883571"><ele>159.6</ele><time>2026-04-08T08:48:44.487Z</time></trkpt><trkpt lat="45.4565762" lon="10.4882236"><ele>159.4</ele><time>2026-04-08T08:48:45.486Z</time></trkpt><trkpt lat="45.4565279" lon="10.4880868"><ele>159.2</ele><time>2026-04-08T08:48:46.487Z</time></trkpt><trkpt lat="45.4564752" lon="10.4879516"><ele>159.0</ele><time>2026-04-08T08:48:47.486Z</time></trkpt><trkpt lat="45.4564232" lon="10.4878102"><ele>158.33333333333334</ele><time>2026-04-08T08:48:48.486Z</time></trkpt><trkpt lat="45.4563758" lon="10.487681"><ele>157.66666666666666</ele><time>2026-04-08T08:48:49.486Z</time></trkpt><trkpt lat="45.4563264" lon="10.4875687"><ele>157.0</ele><time>2026-04-08T08:48:50.486Z</time></trkpt><trkpt lat="45.4562838" lon="10.4874705"><ele>156.33333333333331</ele><time>2026-04-08T08:48:51.486Z</time></trkpt><trkpt lat="45.4562518" lon="10.4873819"><ele>155.66666666666666</ele><time>2026-04-08T08:48:52.487Z</time></trkpt><trkpt lat="45.4562285" lon="10.4872967"><ele>155.0</ele><time>2026-04-08T08:48:53.487Z</time></trkpt><trkpt lat="45.4561734" lon="10.4871798"><ele>155.5</ele><time>2026-04-08T08:48:55.486Z</time></trkpt><trkpt lat="45.4560937" lon="10.4871167"><ele>156.0</ele><time>2026-04-08T08:50:03.437Z</time></trkpt><trkpt lat="45.4560165" lon="10.4870412"><ele>156.5</ele><time>2026-04-08T08:50:05.437Z</time></trkpt><trkpt lat="45.4559632" lon="10.486985"><ele>157.0</ele><time>2026-04-08T08:50:06.437Z</time></trkpt><trkpt lat="45.4559058" lon="10.4869241"><ele>157.5</ele><time>2026-04-08T08:50:07.437Z</time></trkpt><trkpt lat="45.4558304" lon="10.4868562"><ele>158.0</ele><time>2026-04-08T08:50:08.438Z</time></trkpt><trkpt lat="45.4557475" lon="10.4867856"><ele>158.0</ele><time>2026-04-08T08:50:09.438Z</time></trkpt><trkpt lat="45.45566" lon="10.4867125"><ele>158.0</ele><time>2026-04-08T08:50:10.438Z</time></trkpt><trkpt lat="45.4555678" lon="10.4866451"><ele>158.0</ele><time>2026-04-08T08:50:11.438Z</time></trkpt><trkpt lat="45.455473" lon="10.486576"><ele>158.0</ele><time>2026-04-08T08:50:12.437Z</time></trkpt><trkpt lat="45.4553815" lon="10.4865048"><ele>158.0</ele><time>2026-04-08T08:50:13.438Z</time></trkpt><trkpt lat="45.455288" lon="10.4864362"><ele>157.0</ele><time>2026-04-08T08:50:14.438Z</time></trkpt><trkpt lat="45.4551902" lon="10.4863622"><ele>156.0</ele><time>2026-04-08T08:50:15.438Z</time></trkpt><trkpt lat="45.4550902" lon="10.4862865"><ele>155.0</ele><time>2026-04-08T08:50:16.437Z</time></trkpt><trkpt lat="45.4549871" lon="10.4862094"><ele>154.0</ele><time>2026-04-08T08:50:17.437Z</time></trkpt><trkpt lat="45.4548874" lon="10.4861282"><ele>154.0</ele><time>2026-04-08T08:50:18.438Z</time></trkpt><trkpt lat="45.4547878" lon="10.4860526"><ele>154.0</ele><time>2026-04-08T08:50:19.437Z</time></trkpt><trkpt lat="45.4546813" lon="10.4859713"><ele>154.0</ele><time>2026-04-08T08:50:20.437Z</time></trkpt><trkpt lat="45.454573" lon="10.4858839"><ele>154.0</ele><time>2026-04-08T08:50:21.438Z</time></trkpt><trkpt lat="45.4544701" lon="10.4858033"><ele>153.6</ele><time>2026-04-08T08:50:22.437Z</time></trkpt><trkpt lat="45.4543631" lon="10.48572"><ele>153.2</ele><time>2026-04-08T08:50:23.437Z</time></trkpt><trkpt lat="45.4542652" lon="10.4856475"><ele>152.79999999999998</ele><time>2026-04-08T08:50:24.437Z</time></trkpt><trkpt lat="45.4541728" lon="10.4855728"><ele>152.4</ele><time>2026-04-08T08:50:25.437Z</time></trkpt><trkpt lat="45.4540777" lon="10.4855004"><ele>152.0</ele><time>2026-04-08T08:50:26.438Z</time></trkpt><trkpt lat="45.4539895" lon="10.4854272"><ele>152.0</ele><time>2026-04-08T08:50:27.437Z</time></trkpt><trkpt lat="45.4539038" lon="10.4853607"><ele>152.0</ele><time>2026-04-08T08:50:28.437Z</time></trkpt><trkpt lat="45.4538208" lon="10.4852905"><ele>152.0</ele><time>2026-04-08T08:50:29.438Z</time></trkpt><trkpt lat="45.4537382" lon="10.4852211"><ele>152.0</ele><time>2026-04-08T08:50:30.438Z</time></trkpt><trkpt lat="45.4536592" lon="10.4851628"><ele>152.0</ele><time>2026-04-08T08:50:31.439Z</time></trkpt><trkpt lat="45.4535818" lon="10.4851038"><ele>152.33333333333331</ele><time>2026-04-08T08:50:32.439Z</time></trkpt><trkpt lat="45.4535087" lon="10.4850492"><ele>152.66666666666666</ele><time>2026-04-08T08:50:33.438Z</time></trkpt><trkpt lat="45.4534391" lon="10.4849899"><ele>153.0</ele><time>2026-04-08T08:50:34.438Z</time></trkpt><trkpt lat="45.4533754" lon="10.4849408"><ele>153.33333333333334</ele><time>2026-04-08T08:50:35.438Z</time></trkpt><trkpt lat="45.4532586" lon="10.4848447"><ele>153.66666666666669</ele><time>2026-04-08T08:50:37.438Z</time></trkpt><trkpt lat="45.4532064" lon="10.4847641"><ele>154.0</ele><time>2026-04-08T08:50:38.439Z</time></trkpt><trkpt lat="45.4531428" lon="10.4847405"><ele>154.0</ele><time>2026-04-08T08:50:39.438Z</time></trkpt><trkpt lat="45.4530732" lon="10.4846851"><ele>154.0</ele><time>2026-04-08T08:50:41.438Z</time></trkpt><trkpt lat="45.4530121" lon="10.4847488"><ele>154.0</ele><time>2026-04-08T08:50:49.439Z</time></trkpt><trkpt lat="45.4529613" lon="10.4848112"><ele>154.0</ele><time>2026-04-08T08:50:51.438Z</time></trkpt><trkpt lat="45.4529191" lon="10.4849218"><ele>154.0</ele><time>2026-04-08T08:50:54.439Z</time></trkpt><trkpt lat="45.4528841" lon="10.4850122"><ele>154.0</ele><time>2026-04-08T08:50:57.439Z</time></trkpt><trkpt lat="45.4528196" lon="10.4850616"><ele>154.4</ele><time>2026-04-08T08:50:59.439Z</time></trkpt><trkpt lat="45.4527404" lon="10.4850732"><ele>154.8</ele><time>2026-04-08T08:51:01.438Z</time></trkpt><trkpt lat="45.452659" lon="10.4850798"><ele>155.2</ele><time>2026-04-08T08:51:03.438Z</time></trkpt><trkpt lat="45.4525634" lon="10.4850875"><ele>155.6</ele><time>2026-04-08T08:51:05.439Z</time></trkpt><trkpt lat="45.4524583" lon="10.485098"><ele>156.0</ele><time>2026-04-08T08:51:07.438Z</time></trkpt><trkpt lat="45.4523466" lon="10.4850884"><ele>156.0</ele><time>2026-04-08T08:51:09.439Z</time></trkpt><trkpt lat="45.4522301" lon="10.4850642"><ele>156.0</ele><time>2026-04-08T08:51:11.438Z</time></trkpt><trkpt lat="45.452121" lon="10.4850472"><ele>156.0</ele><time>2026-04-08T08:51:13.438Z</time></trkpt><trkpt lat="45.4520063" lon="10.4850256"><ele>156.0</ele><time>2026-04-08T08:51:15.439Z</time></trkpt><trkpt lat="45.4518906" lon="10.4849907"><ele>156.0</ele><time>2026-04-08T08:51:17.439Z</time></trkpt><trkpt lat="45.4518272" lon="10.4849752"><ele>156.0</ele><time>2026-04-08T08:51:18.44Z</time></trkpt><trkpt lat="45.4517609" lon="10.4849529"><ele>156.0</ele><time>2026-04-08T08:51:19.44Z</time></trkpt><trkpt lat="45.4516959" lon="10.4849179"><ele>156.0</ele><time>2026-04-08T08:51:20.439Z</time></trkpt><trkpt lat="45.4516322" lon="10.4848797"><ele>156.0</ele><time>2026-04-08T08:51:21.44Z</time></trkpt><trkpt lat="45.4515709" lon="10.4848475"><ele>156.0</ele><time>2026-04-08T08:51:22.439Z</time></trkpt><trkpt lat="45.4514498" lon="10.4847842"><ele>156.0</ele><time>2026-04-08T08:51:24.44Z</time></trkpt><trkpt lat="45.4513886" lon="10.4847504"><ele>156.0</ele><time>2026-04-08T08:51:25.439Z</time></trkpt><trkpt lat="45.4513275" lon="10.484721"><ele>156.0</ele><time>2026-04-08T08:51:26.44Z</time></trkpt><trkpt lat="45.4512038" lon="10.4846802"><ele>156.0</ele><time>2026-04-08T08:51:28.439Z</time></trkpt><trkpt lat="45.4511392" lon="10.4846659"><ele>156.0</ele><time>2026-04-08T08:51:29.44Z</time></trkpt><trkpt lat="45.4510698" lon="10.4846538"><ele>156.0</ele><time>2026-04-08T08:51:30.439Z</time></trkpt><trkpt lat="45.4510051" lon="10.4846435"><ele>156.33333333333334</ele><time>2026-04-08T08:51:31.44Z</time></trkpt><trkpt lat="45.4509414" lon="10.4846302"><ele>156.66666666666666</ele><time>2026-04-08T08:51:32.439Z</time></trkpt><trkpt lat="45.4508748" lon="10.4846151"><ele>157.0</ele><time>2026-04-08T08:51:33.439Z</time></trkpt><trkpt lat="45.4508085" lon="10.4846064"><ele>157.33333333333331</ele><time>2026-04-08T08:51:34.44Z</time></trkpt><trkpt lat="45.4507445" lon="10.4845954"><ele>157.66666666666666</ele><time>2026-04-08T08:51:35.44Z</time></trkpt><trkpt lat="45.4506208" lon="10.4845581"><ele>158.0</ele><time>2026-04-08T08:51:37.439Z</time></trkpt><trkpt lat="45.4505254" lon="10.4845126"><ele>156.0</ele><time>2026-04-08T08:51:39.44Z</time></trkpt><trkpt lat="45.4504355" lon="10.4844654"><ele>154.0</ele><time>2026-04-08T08:51:41.44Z</time></trkpt><trkpt lat="45.4503307" lon="10.4844411"><ele>152.0</ele><time>2026-04-08T08:51:43.439Z</time></trkpt><trkpt lat="45.4502173" lon="10.4844175"><ele>150.0</ele><time>2026-04-08T08:51:45.439Z</time></trkpt><trkpt lat="45.4501149" lon="10.4843945"><ele>148.0</ele><time>2026-04-08T08:51:47.439Z</time></trkpt><trkpt lat="45.4500202" lon="10.4843712"><ele>148.0</ele><time>2026-04-08T08:51:49.44Z</time></trkpt><trkpt lat="45.4499213" lon="10.4843499"><ele>148.0</ele><time>2026-04-08T08:51:51.439Z</time></trkpt><trkpt lat="45.4497957" lon="10.4843545"><ele>148.0</ele><time>2026-04-08T08:51:53.44Z</time></trkpt><trkpt lat="45.4497178" lon="10.4843695"><ele>148.0</ele><time>2026-04-08T08:51:54.44Z</time></trkpt><trkpt lat="45.4496341" lon="10.4843864"><ele>148.0</ele><time>2026-04-08T08:51:55.44Z</time></trkpt><trkpt lat="45.4495482" lon="10.484403"><ele>147.6</ele><time>2026-04-08T08:51:56.439Z</time></trkpt><trkpt lat="45.4494629" lon="10.4844091"><ele>147.20000000000002</ele><time>2026-04-08T08:51:57.44Z</time></trkpt><trkpt lat="45.4493767" lon="10.4844128"><ele>146.8</ele><time>2026-04-08T08:51:58.439Z</time></trkpt><trkpt lat="45.4492853" lon="10.4844165"><ele>146.4</ele><time>2026-04-08T08:51:59.439Z</time></trkpt><trkpt lat="45.4491914" lon="10.4844248"><ele>146.0</ele><time>2026-04-08T08:52:00.439Z</time></trkpt><trkpt lat="45.4490961" lon="10.484433"><ele>146.0</ele><time>2026-04-08T08:52:01.441Z</time></trkpt><trkpt lat="45.4489979" lon="10.4844315"><ele>146.0</ele><time>2026-04-08T08:52:02.44Z</time></trkpt><trkpt lat="45.4488992" lon="10.4844254"><ele>146.0</ele><time>2026-04-08T08:52:03.44Z</time></trkpt><trkpt lat="45.4488045" lon="10.4844208"><ele>146.0</ele><time>2026-04-08T08:52:04.441Z</time></trkpt><trkpt lat="45.448713" lon="10.4844249"><ele>146.0</ele><time>2026-04-08T08:52:05.441Z</time></trkpt><trkpt lat="45.4486288" lon="10.4844308"><ele>146.16666666666666</ele><time>2026-04-08T08:52:06.441Z</time></trkpt><trkpt lat="45.4485536" lon="10.4844303"><ele>146.33333333333331</ele><time>2026-04-08T08:52:07.44Z</time></trkpt><trkpt lat="45.4484807" lon="10.4844214"><ele>146.5</ele><time>2026-04-08T08:52:08.441Z</time></trkpt><trkpt lat="45.4484067" lon="10.4844152"><ele>146.66666666666666</ele><time>2026-04-08T08:52:09.441Z</time></trkpt><trkpt lat="45.4483289" lon="10.4844125"><ele>146.83333333333334</ele><time>2026-04-08T08:52:10.441Z</time></trkpt><trkpt lat="45.4482477" lon="10.4844096"><ele>147.0</ele><time>2026-04-08T08:52:11.441Z</time></trkpt><trkpt lat="45.448165" lon="10.4844039"><ele>147.0</ele><time>2026-04-08T08:52:12.44Z</time></trkpt><trkpt lat="45.4480878" lon="10.4844016"><ele>147.0</ele><time>2026-04-08T08:52:13.44Z</time></trkpt><trkpt lat="45.4480169" lon="10.4843986"><ele>147.0</ele><time>2026-04-08T08:52:14.441Z</time></trkpt><trkpt lat="45.4479493" lon="10.4843962"><ele>147.0</ele><time>2026-04-08T08:52:15.441Z</time></trkpt><trkpt lat="45.4478359" lon="10.4843556"><ele>147.0</ele><time>2026-04-08T08:52:17.441Z</time></trkpt><trkpt lat="45.4477319" lon="10.4842692"><ele>147.79999999999998</ele><time>2026-04-08T08:52:19.441Z</time></trkpt><trkpt lat="45.4476255" lon="10.4841714"><ele>148.6</ele><time>2026-04-08T08:52:21.441Z</time></trkpt><trkpt lat="45.4475763" lon="10.484106"><ele>149.39999999999998</ele><time>2026-04-08T08:52:22.44Z</time></trkpt><trkpt lat="45.4475341" lon="10.4840318"><ele>150.2</ele><time>2026-04-08T08:52:23.441Z</time></trkpt><trkpt lat="45.4474556" lon="10.4839251"><ele>151.0</ele><time>2026-04-08T08:52:25.44Z</time></trkpt><trkpt lat="45.4473465" lon="10.4838638"><ele>151.00000000000003</ele><time>2026-04-08T08:52:27.44Z</time></trkpt><trkpt lat="45.4472802" lon="10.4838351"><ele>151.0</ele><time>2026-04-08T08:52:28.441Z</time></trkpt><trkpt lat="45.4472118" lon="10.4838102"><ele>151.0</ele><time>2026-04-08T08:52:29.44Z</time></trkpt><trkpt lat="45.447143" lon="10.4837889"><ele>151.0</ele><time>2026-04-08T08:52:30.441Z</time></trkpt><trkpt lat="45.4470731" lon="10.483773"><ele>151.0</ele><time>2026-04-08T08:52:31.441Z</time></trkpt><trkpt lat="45.447001" lon="10.4837574"><ele>151.00000000000003</ele><time>2026-04-08T08:52:32.44Z</time></trkpt><trkpt lat="45.4469263" lon="10.4837443"><ele>151.0</ele><time>2026-04-08T08:52:33.441Z</time></trkpt><trkpt lat="45.4468472" lon="10.4837292"><ele>149.6</ele><time>2026-04-08T08:52:34.44Z</time></trkpt><trkpt lat="45.4467583" lon="10.4837146"><ele>148.2</ele><time>2026-04-08T08:52:35.44Z</time></trkpt><trkpt lat="45.4466633" lon="10.4836934"><ele>146.8</ele><time>2026-04-08T08:52:36.441Z</time></trkpt><trkpt lat="45.4465711" lon="10.4836696"><ele>145.4</ele><time>2026-04-08T08:52:37.441Z</time></trkpt><trkpt lat="45.4464747" lon="10.4836473"><ele>144.0</ele><time>2026-04-08T08:52:38.44Z</time></trkpt><trkpt lat="45.4463748" lon="10.4836309"><ele>143.8</ele><time>2026-04-08T08:52:39.44Z</time></trkpt><trkpt lat="45.4462719" lon="10.4836107"><ele>143.60000000000002</ele><time>2026-04-08T08:52:40.44Z</time></trkpt><trkpt lat="45.4461692" lon="10.4835906"><ele>143.4</ele><time>2026-04-08T08:52:41.44Z</time></trkpt><trkpt lat="45.4460647" lon="10.4835755"><ele>143.20000000000002</ele><time>2026-04-08T08:52:42.44Z</time></trkpt><trkpt lat="45.4459628" lon="10.483559"><ele>143.0</ele><time>2026-04-08T08:52:43.441Z</time></trkpt><trkpt lat="45.4458641" lon="10.4835423"><ele>143.0</ele><time>2026-04-08T08:52:44.44Z</time></trkpt><trkpt lat="45.445765" lon="10.4835254"><ele>143.0</ele><time>2026-04-08T08:52:45.44Z</time></trkpt><trkpt lat="45.4456648" lon="10.4835051"><ele>143.0</ele><time>2026-04-08T08:52:46.442Z</time></trkpt><trkpt lat="45.4455642" lon="10.4834862"><ele>143.0</ele><time>2026-04-08T08:52:47.442Z</time></trkpt><trkpt lat="45.4454628" lon="10.4834677"><ele>143.0</ele><time>2026-04-08T08:52:48.442Z</time></trkpt><trkpt lat="45.4453616" lon="10.4834498"><ele>143.20000000000002</ele><time>2026-04-08T08:52:49.442Z</time></trkpt><trkpt lat="45.4452604" lon="10.4834313"><ele>143.4</ele><time>2026-04-08T08:52:50.441Z</time></trkpt><trkpt lat="45.4451618" lon="10.4834096"><ele>143.60000000000002</ele><time>2026-04-08T08:52:51.441Z</time></trkpt><trkpt lat="45.4450611" lon="10.4833831"><ele>143.8</ele><time>2026-04-08T08:52:52.442Z</time></trkpt><trkpt lat="45.4449596" lon="10.4833581"><ele>144.0</ele><time>2026-04-08T08:52:53.442Z</time></trkpt><trkpt lat="45.4448612" lon="10.483334"><ele>144.0</ele><time>2026-04-08T08:52:54.442Z</time></trkpt><trkpt lat="45.4447718" lon="10.4833096"><ele>144.0</ele><time>2026-04-08T08:52:55.442Z</time></trkpt><trkpt lat="45.4446856" lon="10.4832948"><ele>144.0</ele><time>2026-04-08T08:52:56.441Z</time></trkpt><trkpt lat="45.4445969" lon="10.483289"><ele>144.0</ele><time>2026-04-08T08:52:57.441Z</time></trkpt><trkpt lat="45.4445087" lon="10.4832847"><ele>144.0</ele><time>2026-04-08T08:52:58.442Z</time></trkpt><trkpt lat="45.4444275" lon="10.4832768"><ele>144.0</ele><time>2026-04-08T08:52:59.441Z</time></trkpt><trkpt lat="45.4443549" lon="10.4832687"><ele>144.00000000000003</ele><time>2026-04-08T08:53:00.442Z</time></trkpt><trkpt lat="45.4442898" lon="10.48326"><ele>144.0</ele><time>2026-04-08T08:53:01.441Z</time></trkpt><trkpt lat="45.4442243" lon="10.4832476"><ele>144.0</ele><time>2026-04-08T08:53:02.442Z</time></trkpt><trkpt lat="45.4441552" lon="10.4832288"><ele>144.0</ele><time>2026-04-08T08:53:03.442Z</time></trkpt><trkpt lat="45.4440836" lon="10.4832095"><ele>144.0</ele><time>2026-04-08T08:53:04.442Z</time></trkpt><trkpt lat="45.4440113" lon="10.4831897"><ele>144.00000000000003</ele><time>2026-04-08T08:53:05.441Z</time></trkpt><trkpt lat="45.4439376" lon="10.4831681"><ele>144.0</ele><time>2026-04-08T08:53:06.441Z</time></trkpt><trkpt lat="45.4438619" lon="10.4831444"><ele>144.16666666666666</ele><time>2026-04-08T08:53:07.442Z</time></trkpt><trkpt lat="45.4437818" lon="10.4831236"><ele>144.33333333333334</ele><time>2026-04-08T08:53:08.442Z</time></trkpt><trkpt lat="45.4437009" lon="10.4831018"><ele>144.5</ele><time>2026-04-08T08:53:09.442Z</time></trkpt><trkpt lat="45.4436179" lon="10.483084"><ele>144.66666666666669</ele><time>2026-04-08T08:53:10.442Z</time></trkpt><trkpt lat="45.4435342" lon="10.4830725"><ele>144.83333333333334</ele><time>2026-04-08T08:53:11.441Z</time></trkpt><trkpt lat="45.443456" lon="10.4830565"><ele>145.0</ele><time>2026-04-08T08:53:12.441Z</time></trkpt><trkpt lat="45.4433776" lon="10.4830431"><ele>145.0</ele><time>2026-04-08T08:53:13.442Z</time></trkpt><trkpt lat="45.4432918" lon="10.4830309"><ele>145.0</ele><time>2026-04-08T08:53:14.441Z</time></trkpt><trkpt lat="45.4432043" lon="10.4830112"><ele>145.0</ele><time>2026-04-08T08:53:15.441Z</time></trkpt><trkpt lat="45.4431154" lon="10.4829888"><ele>145.0</ele><time>2026-04-08T08:53:16.441Z</time></trkpt><trkpt lat="45.4430249" lon="10.4829656"><ele>145.0</ele><time>2026-04-08T08:53:17.442Z</time></trkpt><trkpt lat="45.4429351" lon="10.4829397"><ele>145.0</ele><time>2026-04-08T08:53:18.441Z</time></trkpt><trkpt lat="45.4428477" lon="10.4829099"><ele>144.33333333333334</ele><time>2026-04-08T08:53:19.441Z</time></trkpt><trkpt lat="45.4427606" lon="10.4828709"><ele>143.66666666666669</ele><time>2026-04-08T08:53:20.441Z</time></trkpt><trkpt lat="45.4426769" lon="10.4828246"><ele>143.0</ele><time>2026-04-08T08:53:21.441Z</time></trkpt><trkpt lat="45.4425978" lon="10.4827723"><ele>142.33333333333334</ele><time>2026-04-08T08:53:22.441Z</time></trkpt><trkpt lat="45.4425238" lon="10.4827186"><ele>141.66666666666666</ele><time>2026-04-08T08:53:23.441Z</time></trkpt><trkpt lat="45.4424561" lon="10.4826672"><ele>141.0</ele><time>2026-04-08T08:53:24.441Z</time></trkpt><trkpt lat="45.4423899" lon="10.4826201"><ele>141.0</ele><time>2026-04-08T08:53:25.441Z</time></trkpt><trkpt lat="45.4423261" lon="10.48257"><ele>141.0</ele><time>2026-04-08T08:53:26.442Z</time></trkpt><trkpt lat="45.4422659" lon="10.4825207"><ele>141.0</ele><time>2026-04-08T08:53:27.441Z</time></trkpt><trkpt lat="45.4422002" lon="10.4824676"><ele>141.0</ele><time>2026-04-08T08:53:28.441Z</time></trkpt><trkpt lat="45.4421313" lon="10.482416"><ele>141.0</ele><time>2026-04-08T08:53:29.441Z</time></trkpt><trkpt lat="45.4420637" lon="10.4823661"><ele>141.0</ele><time>2026-04-08T08:53:30.442Z</time></trkpt><trkpt lat="45.4419987" lon="10.4823198"><ele>141.0</ele><time>2026-04-08T08:53:31.442Z</time></trkpt><trkpt lat="45.4419344" lon="10.4822759"><ele>141.0</ele><time>2026-04-08T08:53:32.443Z</time></trkpt><trkpt lat="45.4418777" lon="10.4822339"><ele>141.0</ele><time>2026-04-08T08:53:33.443Z</time></trkpt><trkpt lat="45.4418212" lon="10.4821913"><ele>141.0</ele><time>2026-04-08T08:53:34.442Z</time></trkpt><trkpt lat="45.4417618" lon="10.4821334"><ele>141.0</ele><time>2026-04-08T08:53:35.442Z</time></trkpt><trkpt lat="45.4417001" lon="10.4820724"><ele>141.0</ele><time>2026-04-08T08:53:36.443Z</time></trkpt><trkpt lat="45.4416333" lon="10.4820174"><ele>141.0</ele><time>2026-04-08T08:53:37.442Z</time></trkpt><trkpt lat="45.44156" lon="10.4819619"><ele>141.0</ele><time>2026-04-08T08:53:38.442Z</time></trkpt><trkpt lat="45.4414905" lon="10.4819104"><ele>140.5</ele><time>2026-04-08T08:53:39.442Z</time></trkpt><trkpt lat="45.4414187" lon="10.4818596"><ele>140.0</ele><time>2026-04-08T08:53:40.443Z</time></trkpt><trkpt lat="45.4413467" lon="10.481811"><ele>139.5</ele><time>2026-04-08T08:53:41.443Z</time></trkpt><trkpt lat="45.4412791" lon="10.4817666"><ele>139.0</ele><time>2026-04-08T08:53:42.442Z</time></trkpt><trkpt lat="45.4412133" lon="10.481722"><ele>138.5</ele><time>2026-04-08T08:53:43.443Z</time></trkpt><trkpt lat="45.441146" lon="10.4816731"><ele>138.0</ele><time>2026-04-08T08:53:44.442Z</time></trkpt><trkpt lat="45.4410813" lon="10.4816232"><ele>138.0</ele><time>2026-04-08T08:53:45.442Z</time></trkpt><trkpt lat="45.4410155" lon="10.4815723"><ele>138.0</ele><time>2026-04-08T08:53:46.442Z</time></trkpt><trkpt lat="45.4409384" lon="10.4815237"><ele>138.0</ele><time>2026-04-08T08:53:47.443Z</time></trkpt><trkpt lat="45.4408576" lon="10.4814778"><ele>138.0</ele><time>2026-04-08T08:53:48.443Z</time></trkpt><trkpt lat="45.4407803" lon="10.4814225"><ele>138.0</ele><time>2026-04-08T08:53:49.442Z</time></trkpt><trkpt lat="45.4407047" lon="10.4813598"><ele>138.0</ele><time>2026-04-08T08:53:50.442Z</time></trkpt><trkpt lat="45.4406321" lon="10.4812917"><ele>137.66666666666666</ele><time>2026-04-08T08:53:51.442Z</time></trkpt><trkpt lat="45.4405562" lon="10.4812299"><ele>137.33333333333334</ele><time>2026-04-08T08:53:52.443Z</time></trkpt><trkpt lat="45.4404807" lon="10.4811688"><ele>137.0</ele><time>2026-04-08T08:53:53.443Z</time></trkpt><trkpt lat="45.4403989" lon="10.4811193"><ele>136.66666666666669</ele><time>2026-04-08T08:53:54.442Z</time></trkpt><trkpt lat="45.4403169" lon="10.4810814"><ele>136.33333333333334</ele><time>2026-04-08T08:53:55.443Z</time></trkpt><trkpt lat="45.4402389" lon="10.4810503"><ele>136.0</ele><time>2026-04-08T08:53:56.443Z</time></trkpt><trkpt lat="45.4401686" lon="10.4810163"><ele>135.66666666666669</ele><time>2026-04-08T08:53:57.442Z</time></trkpt><trkpt lat="45.4400968" lon="10.4809849"><ele>135.33333333333334</ele><time>2026-04-08T08:53:58.442Z</time></trkpt><trkpt lat="45.4400188" lon="10.4809609"><ele>135.0</ele><time>2026-04-08T08:53:59.442Z</time></trkpt><trkpt lat="45.4399383" lon="10.4809325"><ele>134.66666666666666</ele><time>2026-04-08T08:54:00.443Z</time></trkpt><trkpt lat="45.4398569" lon="10.4809061"><ele>134.33333333333331</ele><time>2026-04-08T08:54:01.443Z</time></trkpt><trkpt lat="45.4397698" lon="10.4808837"><ele>134.0</ele><time>2026-04-08T08:54:02.442Z</time></trkpt><trkpt lat="45.4396777" lon="10.4808622"><ele>134.16666666666666</ele><time>2026-04-08T08:54:03.443Z</time></trkpt><trkpt lat="45.4395885" lon="10.4808468"><ele>134.33333333333331</ele><time>2026-04-08T08:54:04.442Z</time></trkpt><trkpt lat="45.4394998" lon="10.4808276"><ele>134.5</ele><time>2026-04-08T08:54:05.443Z</time></trkpt><trkpt lat="45.439411" lon="10.4808029"><ele>134.66666666666666</ele><time>2026-04-08T08:54:06.443Z</time></trkpt><trkpt lat="45.4393242" lon="10.4807791"><ele>134.83333333333334</ele><time>2026-04-08T08:54:07.443Z</time></trkpt><trkpt lat="45.4392432" lon="10.4807584"><ele>135.0</ele><time>2026-04-08T08:54:08.442Z</time></trkpt><trkpt lat="45.4391705" lon="10.4807334"><ele>135.0</ele><time>2026-04-08T08:54:09.443Z</time></trkpt><trkpt lat="45.439101" lon="10.4807109"><ele>135.0</ele><time>2026-04-08T08:54:10.443Z</time></trkpt><trkpt lat="45.4390333" lon="10.4806866"><ele>135.0</ele><time>2026-04-08T08:54:11.443Z</time></trkpt><trkpt lat="45.4389625" lon="10.4806736"><ele>135.0</ele><time>2026-04-08T08:54:12.442Z</time></trkpt><trkpt lat="45.4388842" lon="10.4806604"><ele>135.0</ele><time>2026-04-08T08:54:13.442Z</time></trkpt><trkpt lat="45.4388014" lon="10.4806391"><ele>135.0</ele><time>2026-04-08T08:54:14.442Z</time></trkpt><trkpt lat="45.4387162" lon="10.480614"><ele>134.66666666666666</ele><time>2026-04-08T08:54:15.442Z</time></trkpt><trkpt lat="45.4386319" lon="10.4805897"><ele>134.33333333333334</ele><time>2026-04-08T08:54:16.443Z</time></trkpt><trkpt lat="45.4385513" lon="10.4805756"><ele>134.0</ele><time>2026-04-08T08:54:17.443Z</time></trkpt><trkpt lat="45.4384708" lon="10.4805529"><ele>133.66666666666669</ele><time>2026-04-08T08:54:18.443Z</time></trkpt><trkpt lat="45.4383875" lon="10.4805166"><ele>133.33333333333334</ele><time>2026-04-08T08:54:19.443Z</time></trkpt><trkpt lat="45.4382991" lon="10.4804855"><ele>133.0</ele><time>2026-04-08T08:54:20.444Z</time></trkpt><trkpt lat="45.4382019" lon="10.4804647"><ele>133.0</ele><time>2026-04-08T08:54:21.444Z</time></trkpt><trkpt lat="45.4380939" lon="10.4804522"><ele>133.0</ele><time>2026-04-08T08:54:22.443Z</time></trkpt><trkpt lat="45.4379789" lon="10.4804399"><ele>133.0</ele><time>2026-04-08T08:54:23.443Z</time></trkpt><trkpt lat="45.4378581" lon="10.4804343"><ele>133.0</ele><time>2026-04-08T08:54:24.443Z</time></trkpt><trkpt lat="45.437725" lon="10.4804339"><ele>132.5</ele><time>2026-04-08T08:54:25.444Z</time></trkpt><trkpt lat="45.4375866" lon="10.4804337"><ele>132.0</ele><time>2026-04-08T08:54:26.443Z</time></trkpt><trkpt lat="45.4374382" lon="10.480427"><ele>131.5</ele><time>2026-04-08T08:54:27.444Z</time></trkpt><trkpt lat="45.4372868" lon="10.4804249"><ele>131.0</ele><time>2026-04-08T08:54:28.443Z</time></trkpt><trkpt lat="45.4371476" lon="10.4804295"><ele>131.0</ele><time>2026-04-08T08:54:29.444Z</time></trkpt><trkpt lat="45.4370272" lon="10.4804294"><ele>131.0</ele><time>2026-04-08T08:54:30.443Z</time></trkpt><trkpt lat="45.4369035" lon="10.4804324"><ele>131.0</ele><time>2026-04-08T08:54:31.444Z</time></trkpt><trkpt lat="45.4367699" lon="10.480436"><ele>131.0</ele><time>2026-04-08T08:54:32.496Z</time></trkpt><trkpt lat="45.4366369" lon="10.4804474"><ele>131.0</ele><time>2026-04-08T08:54:33.495Z</time></trkpt><trkpt lat="45.4364999" lon="10.480474"><ele>131.0</ele><time>2026-04-08T08:54:34.495Z</time></trkpt><trkpt lat="45.4363642" lon="10.4805197"><ele>131.0</ele><time>2026-04-08T08:54:35.496Z</time></trkpt><trkpt lat="45.4362303" lon="10.480584"><ele>131.0</ele><time>2026-04-08T08:54:36.496Z</time></trkpt><trkpt lat="45.436094" lon="10.4806576"><ele>131.0</ele><time>2026-04-08T08:54:37.495Z</time></trkpt><trkpt lat="45.435954" lon="10.4807283"><ele>131.0</ele><time>2026-04-08T08:54:38.495Z</time></trkpt><trkpt lat="45.4358129" lon="10.4807963"><ele>131.0</ele><time>2026-04-08T08:54:39.496Z</time></trkpt><trkpt lat="45.435673" lon="10.4808686"><ele>131.0</ele><time>2026-04-08T08:54:40.495Z</time></trkpt><trkpt lat="45.4355316" lon="10.4809501"><ele>130.66666666666666</ele><time>2026-04-08T08:54:41.495Z</time></trkpt><trkpt lat="45.4353879" lon="10.4810268"><ele>130.33333333333334</ele><time>2026-04-08T08:54:42.495Z</time></trkpt><trkpt lat="45.4352446" lon="10.4811"><ele>130.0</ele><time>2026-04-08T08:54:43.495Z</time></trkpt><trkpt lat="45.435097" lon="10.4811784"><ele>130.0</ele><time>2026-04-08T08:54:44.495Z</time></trkpt><trkpt lat="45.4349494" lon="10.4812445"><ele>130.0</ele><time>2026-04-08T08:54:45.496Z</time></trkpt><trkpt lat="45.4347956" lon="10.481293"><ele>130.0</ele><time>2026-04-08T08:54:46.495Z</time></trkpt><trkpt lat="45.4346357" lon="10.4813288"><ele>130.33333333333334</ele><time>2026-04-08T08:54:47.495Z</time></trkpt><trkpt lat="45.4344748" lon="10.4813546"><ele>130.66666666666666</ele><time>2026-04-08T08:54:48.495Z</time></trkpt><trkpt lat="45.4343141" lon="10.4813729"><ele>131.0</ele><time>2026-04-08T08:54:49.495Z</time></trkpt><trkpt lat="45.4341557" lon="10.4813868"><ele>131.0</ele><time>2026-04-08T08:54:50.495Z</time></trkpt><trkpt lat="45.434001" lon="10.4813967"><ele>131.0</ele><time>2026-04-08T08:54:51.495Z</time></trkpt><trkpt lat="45.4338429" lon="10.4813886"><ele>131.0</ele><time>2026-04-08T08:54:52.495Z</time></trkpt><trkpt lat="45.4336847" lon="10.4813514"><ele>131.0</ele><time>2026-04-08T08:54:53.496Z</time></trkpt><trkpt lat="45.433529" lon="10.4812982"><ele>131.0</ele><time>2026-04-08T08:54:54.495Z</time></trkpt><trkpt lat="45.4333756" lon="10.4812309"><ele>131.0</ele><time>2026-04-08T08:54:55.496Z</time></trkpt><trkpt lat="45.4332286" lon="10.4811512"><ele>131.33333333333331</ele><time>2026-04-08T08:54:56.496Z</time></trkpt><trkpt lat="45.4330805" lon="10.4810716"><ele>131.66666666666666</ele><time>2026-04-08T08:54:57.495Z</time></trkpt><trkpt lat="45.4329292" lon="10.4809916"><ele>132.0</ele><time>2026-04-08T08:54:58.496Z</time></trkpt><trkpt lat="45.4327793" lon="10.4809101"><ele>132.0</ele><time>2026-04-08T08:54:59.495Z</time></trkpt><trkpt lat="45.4326322" lon="10.4808267"><ele>132.0</ele><time>2026-04-08T08:55:00.496Z</time></trkpt><trkpt lat="45.432483" lon="10.4807431"><ele>132.0</ele><time>2026-04-08T08:55:01.496Z</time></trkpt><trkpt lat="45.432333" lon="10.4806616"><ele>132.0</ele><time>2026-04-08T08:55:02.496Z</time></trkpt><trkpt lat="45.4321838" lon="10.4805854"><ele>132.0</ele><time>2026-04-08T08:55:03.495Z</time></trkpt><trkpt lat="45.4320338" lon="10.4805123"><ele>132.0</ele><time>2026-04-08T08:55:04.496Z</time></trkpt><trkpt lat="45.4318821" lon="10.4804443"><ele>131.25</ele><time>2026-04-08T08:55:05.495Z</time></trkpt><trkpt lat="45.4317341" lon="10.4803912"><ele>130.5</ele><time>2026-04-08T08:55:06.495Z</time></trkpt><trkpt lat="45.4315921" lon="10.4803464"><ele>129.75</ele><time>2026-04-08T08:55:07.496Z</time></trkpt><trkpt lat="45.4314575" lon="10.4803079"><ele>129.0</ele><time>2026-04-08T08:55:08.495Z</time></trkpt><trkpt lat="45.4313286" lon="10.4802737"><ele>129.0</ele><time>2026-04-08T08:55:09.495Z</time></trkpt><trkpt lat="45.4312025" lon="10.4802392"><ele>129.0</ele><time>2026-04-08T08:55:10.495Z</time></trkpt><trkpt lat="45.4310814" lon="10.4802099"><ele>129.0</ele><time>2026-04-08T08:55:11.495Z</time></trkpt><trkpt lat="45.4309733" lon="10.4801828"><ele>129.0</ele><time>2026-04-08T08:55:12.496Z</time></trkpt><trkpt lat="45.430882" lon="10.4801585"><ele>129.0</ele><time>2026-04-08T08:55:13.495Z</time></trkpt><trkpt lat="45.4308051" lon="10.4801384"><ele>129.0</ele><time>2026-04-08T08:55:14.496Z</time></trkpt><trkpt lat="45.4307085" lon="10.4801203"><ele>129.0</ele><time>2026-04-08T08:55:16.495Z</time></trkpt><trkpt lat="45.4306445" lon="10.4800924"><ele>129.0</ele><time>2026-04-08T08:55:19.496Z</time></trkpt><trkpt lat="45.430567" lon="10.4801135"><ele>129.0</ele><time>2026-04-08T08:55:24.496Z</time></trkpt><trkpt lat="45.4304562" lon="10.4800639"><ele>129.0</ele><time>2026-04-08T08:55:26.495Z</time></trkpt><trkpt lat="45.4303415" lon="10.4800406"><ele>129.4</ele><time>2026-04-08T08:55:28.496Z</time></trkpt><trkpt lat="45.4302702" lon="10.4800058"><ele>129.8</ele><time>2026-04-08T08:55:29.496Z</time></trkpt><trkpt lat="45.4301826" lon="10.4799681"><ele>130.2</ele><time>2026-04-08T08:55:30.495Z</time></trkpt><trkpt lat="45.4300867" lon="10.479937"><ele>130.6</ele><time>2026-04-08T08:55:31.496Z</time></trkpt><trkpt lat="45.42999" lon="10.4799144"><ele>131.0</ele><time>2026-04-08T08:55:32.496Z</time></trkpt><trkpt lat="45.4298885" lon="10.4798917"><ele>131.0</ele><time>2026-04-08T08:55:33.495Z</time></trkpt><trkpt lat="45.429783" lon="10.4798594"><ele>131.0</ele><time>2026-04-08T08:55:34.496Z</time></trkpt><trkpt lat="45.4296715" lon="10.4798313"><ele>131.0</ele><time>2026-04-08T08:55:35.495Z</time></trkpt><trkpt lat="45.4295553" lon="10.4798044"><ele>131.0</ele><time>2026-04-08T08:55:36.495Z</time></trkpt><trkpt lat="45.4294371" lon="10.4797838"><ele>130.25</ele><time>2026-04-08T08:55:37.496Z</time></trkpt><trkpt lat="45.4293097" lon="10.4797656"><ele>129.5</ele><time>2026-04-08T08:55:38.496Z</time></trkpt><trkpt lat="45.429185" lon="10.4797533"><ele>128.75</ele><time>2026-04-08T08:55:39.495Z</time></trkpt><trkpt lat="45.4290548" lon="10.4797438"><ele>128.0</ele><time>2026-04-08T08:55:40.496Z</time></trkpt><trkpt lat="45.4289213" lon="10.479735"><ele>127.25</ele><time>2026-04-08T08:55:41.496Z</time></trkpt><trkpt lat="45.4287848" lon="10.47973"><ele>126.5</ele><time>2026-04-08T08:55:42.496Z</time></trkpt><trkpt lat="45.4286521" lon="10.4797341"><ele>125.75</ele><time>2026-04-08T08:55:43.495Z</time></trkpt><trkpt lat="45.4285303" lon="10.4797383"><ele>125.0</ele><time>2026-04-08T08:55:44.495Z</time></trkpt><trkpt lat="45.4284094" lon="10.4797414"><ele>125.0</ele><time>2026-04-08T08:55:45.495Z</time></trkpt><trkpt lat="45.4282924" lon="10.4797465"><ele>125.0</ele><time>2026-04-08T08:55:46.495Z</time></trkpt><trkpt lat="45.4281753" lon="10.4797523"><ele>125.0</ele><time>2026-04-08T08:55:47.495Z</time></trkpt><trkpt lat="45.4280592" lon="10.4797557"><ele>125.0</ele><time>2026-04-08T08:55:48.495Z</time></trkpt><trkpt lat="45.4279457" lon="10.4797587"><ele>125.25</ele><time>2026-04-08T08:55:49.496Z</time></trkpt><trkpt lat="45.4278301" lon="10.4797587"><ele>125.5</ele><time>2026-04-08T08:55:50.495Z</time></trkpt><trkpt lat="45.4277138" lon="10.479756"><ele>125.75</ele><time>2026-04-08T08:55:51.496Z</time></trkpt><trkpt lat="45.4275952" lon="10.4797553"><ele>126.0</ele><time>2026-04-08T08:55:52.495Z</time></trkpt><trkpt lat="45.4274778" lon="10.479754"><ele>126.0</ele><time>2026-04-08T08:55:53.495Z</time></trkpt><trkpt lat="45.4273572" lon="10.4797448"><ele>126.0</ele><time>2026-04-08T08:55:54.496Z</time></trkpt><trkpt lat="45.4272347" lon="10.479726"><ele>126.0</ele><time>2026-04-08T08:55:55.495Z</time></trkpt><trkpt lat="45.4271114" lon="10.4797026"><ele>126.0</ele><time>2026-04-08T08:55:56.495Z</time></trkpt><trkpt lat="45.4269899" lon="10.4796761"><ele>126.0</ele><time>2026-04-08T08:55:57.495Z</time></trkpt><trkpt lat="45.4268656" lon="10.479645"><ele>126.0</ele><time>2026-04-08T08:55:58.495Z</time></trkpt><trkpt lat="45.4267393" lon="10.4796041"><ele>126.0</ele><time>2026-04-08T08:55:59.495Z</time></trkpt><trkpt lat="45.4266119" lon="10.4795589"><ele>126.0</ele><time>2026-04-08T08:56:00.496Z</time></trkpt><trkpt lat="45.4264884" lon="10.4795236"><ele>125.5</ele><time>2026-04-08T08:56:01.495Z</time></trkpt><trkpt lat="45.426359" lon="10.4794873"><ele>125.0</ele><time>2026-04-08T08:56:02.496Z</time></trkpt><trkpt lat="45.426229" lon="10.4794508"><ele>124.5</ele><time>2026-04-08T08:56:03.495Z</time></trkpt><trkpt lat="45.4261015" lon="10.479405"><ele>124.0</ele><time>2026-04-08T08:56:04.446Z</time></trkpt><trkpt lat="45.4259721" lon="10.4793594"><ele>124.0</ele><time>2026-04-08T08:56:05.446Z</time></trkpt><trkpt lat="45.4258418" lon="10.4793159"><ele>124.0</ele><time>2026-04-08T08:56:06.445Z</time></trkpt><trkpt lat="45.4257103" lon="10.4792718"><ele>124.0</ele><time>2026-04-08T08:56:07.445Z</time></trkpt><trkpt lat="45.4255841" lon="10.4792332"><ele>124.0</ele><time>2026-04-08T08:56:08.445Z</time></trkpt><trkpt lat="45.4254621" lon="10.4791913"><ele>124.25</ele><time>2026-04-08T08:56:09.445Z</time></trkpt><trkpt lat="45.4253386" lon="10.479145"><ele>124.5</ele><time>2026-04-08T08:56:10.446Z</time></trkpt><trkpt lat="45.4252189" lon="10.4790985"><ele>124.75</ele><time>2026-04-08T08:56:11.445Z</time></trkpt><trkpt lat="45.4250972" lon="10.4790543"><ele>125.0</ele><time>2026-04-08T08:56:12.445Z</time></trkpt><trkpt lat="45.4249776" lon="10.479008"><ele>125.0</ele><time>2026-04-08T08:56:13.446Z</time></trkpt><trkpt lat="45.4248578" lon="10.4789624"><ele>125.0</ele><time>2026-04-08T08:56:14.445Z</time></trkpt><trkpt lat="45.4247334" lon="10.4789149"><ele>125.0</ele><time>2026-04-08T08:56:15.445Z</time></trkpt><trkpt lat="45.4246084" lon="10.4788707"><ele>125.0</ele><time>2026-04-08T08:56:16.445Z</time></trkpt><trkpt lat="45.4244839" lon="10.4788237"><ele>124.75</ele><time>2026-04-08T08:56:17.446Z</time></trkpt><trkpt lat="45.4243613" lon="10.4787748"><ele>124.5</ele><time>2026-04-08T08:56:18.446Z</time></trkpt><trkpt lat="45.4242405" lon="10.4787346"><ele>124.25</ele><time>2026-04-08T08:56:19.445Z</time></trkpt><trkpt lat="45.4241243" lon="10.478692"><ele>124.0</ele><time>2026-04-08T08:56:20.445Z</time></trkpt><trkpt lat="45.4240129" lon="10.4786484"><ele>123.80000000000001</ele><time>2026-04-08T08:56:21.445Z</time></trkpt><trkpt lat="45.4239007" lon="10.4786011"><ele>123.60000000000001</ele><time>2026-04-08T08:56:22.446Z</time></trkpt><trkpt lat="45.4237915" lon="10.478558"><ele>123.4</ele><time>2026-04-08T08:56:23.446Z</time></trkpt><trkpt lat="45.4236861" lon="10.4785152"><ele>123.2</ele><time>2026-04-08T08:56:24.445Z</time></trkpt><trkpt lat="45.4235828" lon="10.4784643"><ele>123.0</ele><time>2026-04-08T08:56:25.445Z</time></trkpt><trkpt lat="45.423471" lon="10.4784122"><ele>123.0</ele><time>2026-04-08T08:56:26.445Z</time></trkpt><trkpt lat="45.4233597" lon="10.4783567"><ele>123.0</ele><time>2026-04-08T08:56:27.445Z</time></trkpt><trkpt lat="45.4232445" lon="10.4783045"><ele>123.0</ele><time>2026-04-08T08:56:28.446Z</time></trkpt><trkpt lat="45.4231223" lon="10.4782435"><ele>123.0</ele><time>2026-04-08T08:56:29.445Z</time></trkpt><trkpt lat="45.423002" lon="10.4781801"><ele>123.5</ele><time>2026-04-08T08:56:30.445Z</time></trkpt><trkpt lat="45.4228767" lon="10.4781102"><ele>124.0</ele><time>2026-04-08T08:56:31.445Z</time></trkpt><trkpt lat="45.4227512" lon="10.4780376"><ele>124.5</ele><time>2026-04-08T08:56:32.446Z</time></trkpt><trkpt lat="45.4226257" lon="10.4779686"><ele>125.0</ele><time>2026-04-08T08:56:33.446Z</time></trkpt><trkpt lat="45.4225075" lon="10.4779043"><ele>123.5</ele><time>2026-04-08T08:56:34.446Z</time></trkpt><trkpt lat="45.4223815" lon="10.4778352"><ele>122.0</ele><time>2026-04-08T08:56:35.447Z</time></trkpt><trkpt lat="45.422263" lon="10.4777618"><ele>120.5</ele><time>2026-04-08T08:56:36.446Z</time></trkpt><trkpt lat="45.4221444" lon="10.4776866"><ele>119.0</ele><time>2026-04-08T08:56:37.446Z</time></trkpt><trkpt lat="45.422024" lon="10.4776218"><ele>119.0</ele><time>2026-04-08T08:56:38.446Z</time></trkpt><trkpt lat="45.4219055" lon="10.4775602"><ele>119.0</ele><time>2026-04-08T08:56:39.447Z</time></trkpt><trkpt lat="45.4217921" lon="10.4774957"><ele>119.0</ele><time>2026-04-08T08:56:40.446Z</time></trkpt><trkpt lat="45.4216753" lon="10.4774296"><ele>119.0</ele><time>2026-04-08T08:56:41.446Z</time></trkpt><trkpt lat="45.4215569" lon="10.4773738"><ele>119.0</ele><time>2026-04-08T08:56:42.447Z</time></trkpt><trkpt lat="45.421438" lon="10.4773367"><ele>119.0</ele><time>2026-04-08T08:56:43.446Z</time></trkpt><trkpt lat="45.4213158" lon="10.4772998"><ele>119.0</ele><time>2026-04-08T08:56:44.446Z</time></trkpt><trkpt lat="45.4211928" lon="10.4772635"><ele>119.0</ele><time>2026-04-08T08:56:45.446Z</time></trkpt><trkpt lat="45.4210709" lon="10.4772315"><ele>119.5</ele><time>2026-04-08T08:56:46.446Z</time></trkpt><trkpt lat="45.4209473" lon="10.4772008"><ele>120.0</ele><time>2026-04-08T08:56:47.446Z</time></trkpt><trkpt lat="45.4208204" lon="10.4771655"><ele>120.5</ele><time>2026-04-08T08:56:48.446Z</time></trkpt><trkpt lat="45.420696" lon="10.4771276"><ele>121.0</ele><time>2026-04-08T08:56:49.447Z</time></trkpt><trkpt lat="45.4205695" lon="10.4770892"><ele>119.5</ele><time>2026-04-08T08:56:50.446Z</time></trkpt><trkpt lat="45.4204473" lon="10.4770578"><ele>118.0</ele><time>2026-04-08T08:56:51.446Z</time></trkpt><trkpt lat="45.4203198" lon="10.4770283"><ele>116.5</ele><time>2026-04-08T08:56:52.446Z</time></trkpt><trkpt lat="45.4201919" lon="10.4769982"><ele>115.0</ele><time>2026-04-08T08:56:53.447Z</time></trkpt><trkpt lat="45.4200661" lon="10.4769668"><ele>115.0</ele><time>2026-04-08T08:56:54.446Z</time></trkpt><trkpt lat="45.419936" lon="10.4769329"><ele>115.0</ele><time>2026-04-08T08:56:55.447Z</time></trkpt><trkpt lat="45.4198079" lon="10.4769038"><ele>115.0</ele><time>2026-04-08T08:56:56.446Z</time></trkpt><trkpt lat="45.4196903" lon="10.4768737"><ele>115.0</ele><time>2026-04-08T08:56:57.446Z</time></trkpt><trkpt lat="45.4195795" lon="10.4768434"><ele>115.4</ele><time>2026-04-08T08:56:58.446Z</time></trkpt><trkpt lat="45.4194708" lon="10.4768095"><ele>115.8</ele><time>2026-04-08T08:56:59.447Z</time></trkpt><trkpt lat="45.4193668" lon="10.4767816"><ele>116.19999999999999</ele><time>2026-04-08T08:57:00.446Z</time></trkpt><trkpt lat="45.4192677" lon="10.4767572"><ele>116.6</ele><time>2026-04-08T08:57:01.446Z</time></trkpt><trkpt lat="45.4191724" lon="10.4767319"><ele>117.0</ele><time>2026-04-08T08:57:02.446Z</time></trkpt><trkpt lat="45.4190828" lon="10.476702"><ele>117.0</ele><time>2026-04-08T08:57:03.447Z</time></trkpt><trkpt lat="45.4189986" lon="10.4766788"><ele>117.0</ele><time>2026-04-08T08:57:04.446Z</time></trkpt><trkpt lat="45.4189214" lon="10.4766645"><ele>117.0</ele><time>2026-04-08T08:57:05.446Z</time></trkpt><trkpt lat="45.4188492" lon="10.476656"><ele>117.0</ele><time>2026-04-08T08:57:06.446Z</time></trkpt><trkpt lat="45.4187843" lon="10.4766468"><ele>117.0</ele><time>2026-04-08T08:57:07.447Z</time></trkpt><trkpt lat="45.4186848" lon="10.4766782"><ele>117.0</ele><time>2026-04-08T08:57:09.447Z</time></trkpt><trkpt lat="45.4186714" lon="10.4768192"><ele>116.6</ele><time>2026-04-08T08:57:11.447Z</time></trkpt><trkpt lat="45.4186664" lon="10.4769914"><ele>116.19999999999999</ele><time>2026-04-08T08:57:13.447Z</time></trkpt><trkpt lat="45.4186298" lon="10.4770939"><ele>115.8</ele><time>2026-04-08T08:57:14.446Z</time></trkpt><trkpt lat="45.4185844" lon="10.4772"><ele>115.4</ele><time>2026-04-08T08:57:15.446Z</time></trkpt><trkpt lat="45.4185308" lon="10.4773148"><ele>115.0</ele><time>2026-04-08T08:57:16.446Z</time></trkpt><trkpt lat="45.4184659" lon="10.4774368"><ele>116.0</ele><time>2026-04-08T08:57:17.446Z</time></trkpt><trkpt lat="45.4183922" lon="10.4775514"><ele>117.0</ele><time>2026-04-08T08:57:18.447Z</time></trkpt><trkpt lat="45.4183141" lon="10.4776554"><ele>118.0</ele><time>2026-04-08T08:57:19.447Z</time></trkpt><trkpt lat="45.4182379" lon="10.477772"><ele>119.0</ele><time>2026-04-08T08:57:20.448Z</time></trkpt><trkpt lat="45.4181708" lon="10.477913"><ele>120.0</ele><time>2026-04-08T08:57:21.447Z</time></trkpt><trkpt lat="45.418117" lon="10.4780813"><ele>119.5</ele><time>2026-04-08T08:57:22.447Z</time></trkpt><trkpt lat="45.4180726" lon="10.4782628"><ele>119.0</ele><time>2026-04-08T08:57:23.448Z</time></trkpt><trkpt lat="45.4180241" lon="10.478442"><ele>118.5</ele><time>2026-04-08T08:57:24.448Z</time></trkpt><trkpt lat="45.4179791" lon="10.4786055"><ele>118.0</ele><time>2026-04-08T08:57:25.447Z</time></trkpt><trkpt lat="45.4179422" lon="10.4787516"><ele>118.83333333333334</ele><time>2026-04-08T08:57:26.447Z</time></trkpt><trkpt lat="45.4179067" lon="10.4788856"><ele>119.66666666666667</ele><time>2026-04-08T08:57:27.448Z</time></trkpt><trkpt lat="45.4178779" lon="10.4790087"><ele>120.5</ele><time>2026-04-08T08:57:28.448Z</time></trkpt><trkpt lat="45.4178581" lon="10.4791196"><ele>121.33333333333334</ele><time>2026-04-08T08:57:29.448Z</time></trkpt><trkpt lat="45.417849" lon="10.4792306"><ele>122.16666666666667</ele><time>2026-04-08T08:57:30.447Z</time></trkpt><trkpt lat="45.4178579" lon="10.4793442"><ele>123.0</ele><time>2026-04-08T08:57:31.447Z</time></trkpt><trkpt lat="45.4178836" lon="10.4794609"><ele>123.0</ele><time>2026-04-08T08:57:32.447Z</time></trkpt><trkpt lat="45.4179199" lon="10.479582"><ele>123.00000000000001</ele><time>2026-04-08T08:57:33.447Z</time></trkpt><trkpt lat="45.4179671" lon="10.4796923"><ele>123.00000000000001</ele><time>2026-04-08T08:57:34.447Z</time></trkpt><trkpt lat="45.4180098" lon="10.4798119"><ele>123.0</ele><time>2026-04-08T08:57:35.448Z</time></trkpt><trkpt lat="45.4180544" lon="10.4799527"><ele>123.0</ele><time>2026-04-08T08:57:36.447Z</time></trkpt><trkpt lat="45.4180928" lon="10.4801012"><ele>123.80000000000001</ele><time>2026-04-08T08:57:37.447Z</time></trkpt><trkpt lat="45.4181366" lon="10.4802483"><ele>124.60000000000001</ele><time>2026-04-08T08:57:38.448Z</time></trkpt><trkpt lat="45.418177" lon="10.480386"><ele>125.39999999999999</ele><time>2026-04-08T08:57:39.448Z</time></trkpt><trkpt lat="45.4182244" lon="10.4805211"><ele>126.19999999999999</ele><time>2026-04-08T08:57:40.447Z</time></trkpt><trkpt lat="45.4182821" lon="10.4806508"><ele>127.0</ele><time>2026-04-08T08:57:41.448Z</time></trkpt><trkpt lat="45.4183572" lon="10.4807567"><ele>127.0</ele><time>2026-04-08T08:57:42.448Z</time></trkpt><trkpt lat="45.4184378" lon="10.4808459"><ele>126.99999999999999</ele><time>2026-04-08T08:57:43.448Z</time></trkpt><trkpt lat="45.4185208" lon="10.4809258"><ele>126.99999999999999</ele><time>2026-04-08T08:57:44.447Z</time></trkpt><trkpt lat="45.4185987" lon="10.4810042"><ele>127.0</ele><time>2026-04-08T08:57:45.447Z</time></trkpt><trkpt lat="45.41867" lon="10.4810947"><ele>127.0</ele><time>2026-04-08T08:57:46.448Z</time></trkpt><trkpt lat="45.418718" lon="10.4812066"><ele>126.50000000000001</ele><time>2026-04-08T08:57:47.447Z</time></trkpt><trkpt lat="45.4187426" lon="10.4813227"><ele>126.0</ele><time>2026-04-08T08:57:48.447Z</time></trkpt><trkpt lat="45.4187284" lon="10.4814351"><ele>125.5</ele><time>2026-04-08T08:57:49.447Z</time></trkpt><trkpt lat="45.418707" lon="10.4815475"><ele>125.0</ele><time>2026-04-08T08:57:50.448Z</time></trkpt><trkpt lat="45.4186792" lon="10.4816366"><ele>124.50000000000001</ele><time>2026-04-08T08:57:51.448Z</time></trkpt><trkpt lat="45.4186424" lon="10.4817876"><ele>124.0</ele><time>2026-04-08T08:57:53.447Z</time></trkpt><trkpt lat="45.4187052" lon="10.481922"><ele>124.00000000000001</ele><time>2026-04-08T08:57:55.447Z</time></trkpt><trkpt lat="45.4187559" lon="10.4819915"><ele>124.0</ele><time>2026-04-08T08:57:56.447Z</time></trkpt><trkpt lat="45.4188002" lon="10.482077"><ele>124.0</ele><time>2026-04-08T08:57:57.447Z</time></trkpt><trkpt lat="45.4188105" lon="10.4821977"><ele>124.0</ele><time>2026-04-08T08:57:58.447Z</time></trkpt><trkpt lat="45.4188136" lon="10.4823324"><ele>124.00000000000001</ele><time>2026-04-08T08:57:59.447Z</time></trkpt><trkpt lat="45.418816" lon="10.4824772"><ele>124.0</ele><time>2026-04-08T08:58:00.448Z</time></trkpt><trkpt lat="45.4188206" lon="10.4826108"><ele>124.00000000000001</ele><time>2026-04-08T08:58:01.448Z</time></trkpt><trkpt lat="45.4188176" lon="10.4827391"><ele>124.0</ele><time>2026-04-08T08:58:02.448Z</time></trkpt><trkpt lat="45.4188186" lon="10.4828614"><ele>124.0</ele><time>2026-04-08T08:58:03.447Z</time></trkpt><trkpt lat="45.4188377" lon="10.4829774"><ele>124.0</ele><time>2026-04-08T08:58:04.448Z</time></trkpt><trkpt lat="45.4188883" lon="10.4830678"><ele>124.00000000000001</ele><time>2026-04-08T08:58:05.448Z</time></trkpt><trkpt lat="45.4189598" lon="10.4831459"><ele>124.0</ele><time>2026-04-08T08:58:06.448Z</time></trkpt><trkpt lat="45.4190355" lon="10.4832179"><ele>124.16666666666667</ele><time>2026-04-08T08:58:07.448Z</time></trkpt><trkpt lat="45.4191043" lon="10.4832811"><ele>124.33333333333334</ele><time>2026-04-08T08:58:08.448Z</time></trkpt><trkpt lat="45.419159" lon="10.483344"><ele>124.5</ele><time>2026-04-08T08:58:09.448Z</time></trkpt><trkpt lat="45.4192122" lon="10.483411"><ele>124.66666666666666</ele><time>2026-04-08T08:58:10.448Z</time></trkpt><trkpt lat="45.4192687" lon="10.4834913"><ele>124.83333333333333</ele><time>2026-04-08T08:58:11.448Z</time></trkpt><trkpt lat="45.419326" lon="10.4835755"><ele>125.0</ele><time>2026-04-08T08:58:12.449Z</time></trkpt><trkpt lat="45.4193693" lon="10.483653"><ele>125.6</ele><time>2026-04-08T08:58:13.448Z</time></trkpt><trkpt lat="45.4194034" lon="10.4838124"><ele>126.2</ele><time>2026-04-08T08:58:15.448Z</time></trkpt><trkpt lat="45.4193779" lon="10.4839689"><ele>126.80000000000001</ele><time>2026-04-08T08:58:17.449Z</time></trkpt><trkpt lat="45.4193717" lon="10.4840628"><ele>127.4</ele><time>2026-04-08T08:58:18.448Z</time></trkpt><trkpt lat="45.4193616" lon="10.4841651"><ele>128.0</ele><time>2026-04-08T08:58:19.448Z</time></trkpt><trkpt lat="45.4193539" lon="10.4842842"><ele>127.99999999999999</ele><time>2026-04-08T08:58:20.449Z</time></trkpt><trkpt lat="45.4193503" lon="10.484393"><ele>128.0</ele><time>2026-04-08T08:58:21.449Z</time></trkpt><trkpt lat="45.4193646" lon="10.4844911"><ele>128.0</ele><time>2026-04-08T08:58:22.449Z</time></trkpt><trkpt lat="45.4193873" lon="10.4845758"><ele>128.0</ele><time>2026-04-08T08:58:23.449Z</time></trkpt><trkpt lat="45.4194638" lon="10.4847251"><ele>127.99999999999999</ele><time>2026-04-08T08:58:25.449Z</time></trkpt><trkpt lat="45.4195182" lon="10.48481"><ele>128.0</ele><time>2026-04-08T08:58:26.448Z</time></trkpt><trkpt lat="45.4195834" lon="10.4848995"><ele>128.0</ele><time>2026-04-08T08:58:27.448Z</time></trkpt><trkpt lat="45.4196557" lon="10.4849871"><ele>128.0</ele><time>2026-04-08T08:58:28.449Z</time></trkpt><trkpt lat="45.419729" lon="10.4850689"><ele>128.0</ele><time>2026-04-08T08:58:29.448Z</time></trkpt><trkpt lat="45.4198049" lon="10.4851429"><ele>128.0</ele><time>2026-04-08T08:58:30.448Z</time></trkpt><trkpt lat="45.41988" lon="10.485219"><ele>128.0</ele><time>2026-04-08T08:58:31.448Z</time></trkpt><trkpt lat="45.4199528" lon="10.485274"><ele>127.99999999999999</ele><time>2026-04-08T08:58:32.448Z</time></trkpt><trkpt lat="45.420031" lon="10.4853215"><ele>128.0</ele><time>2026-04-08T08:58:33.448Z</time></trkpt><trkpt lat="45.4201183" lon="10.4853703"><ele>128.0</ele><time>2026-04-08T08:58:34.448Z</time></trkpt><trkpt lat="45.4202048" lon="10.4854084"><ele>128.0</ele><time>2026-04-08T08:58:35.449Z</time></trkpt><trkpt lat="45.4202936" lon="10.4854413"><ele>127.99999999999999</ele><time>2026-04-08T08:58:36.448Z</time></trkpt><trkpt lat="45.4203728" lon="10.485459"><ele>128.0</ele><time>2026-04-08T08:58:37.449Z</time></trkpt><trkpt lat="45.4204596" lon="10.4854911"><ele>129.83333333333331</ele><time>2026-04-08T08:58:38.448Z</time></trkpt><trkpt lat="45.420543" lon="10.4855041"><ele>131.66666666666666</ele><time>2026-04-08T08:58:39.448Z</time></trkpt><trkpt lat="45.4206248" lon="10.4855118"><ele>133.5</ele><time>2026-04-08T08:58:40.448Z</time></trkpt><trkpt lat="45.4207096" lon="10.4855053"><ele>135.33333333333334</ele><time>2026-04-08T08:58:41.449Z</time></trkpt><trkpt lat="45.4207932" lon="10.4855013"><ele>137.16666666666669</ele><time>2026-04-08T08:58:42.448Z</time></trkpt><trkpt lat="45.4208812" lon="10.4854991"><ele>139.0</ele><time>2026-04-08T08:58:43.448Z</time></trkpt><trkpt lat="45.4209627" lon="10.4855006"><ele>139.0</ele><time>2026-04-08T08:58:44.448Z</time></trkpt><trkpt lat="45.4210442" lon="10.4854931"><ele>139.0</ele><time>2026-04-08T08:58:45.449Z</time></trkpt><trkpt lat="45.4211279" lon="10.4854909"><ele>139.0</ele><time>2026-04-08T08:58:46.449Z</time></trkpt><trkpt lat="45.4212119" lon="10.4854983"><ele>139.0</ele><time>2026-04-08T08:58:47.448Z</time></trkpt><trkpt lat="45.4212905" lon="10.485516"><ele>139.0</ele><time>2026-04-08T08:58:48.448Z</time></trkpt><trkpt lat="45.4213766" lon="10.4855364"><ele>139.0</ele><time>2026-04-08T08:58:49.449Z</time></trkpt><trkpt lat="45.4214617" lon="10.4855562"><ele>139.16666666666669</ele><time>2026-04-08T08:58:50.45Z</time></trkpt><trkpt lat="45.4215443" lon="10.4855765"><ele>139.33333333333334</ele><time>2026-04-08T08:58:51.449Z</time></trkpt><trkpt lat="45.4216267" lon="10.4856025"><ele>139.5</ele><time>2026-04-08T08:58:52.45Z</time></trkpt><trkpt lat="45.4217062" lon="10.4856296"><ele>139.66666666666666</ele><time>2026-04-08T08:58:53.45Z</time></trkpt><trkpt lat="45.4217873" lon="10.4856458"><ele>139.83333333333331</ele><time>2026-04-08T08:58:54.45Z</time></trkpt><trkpt lat="45.4218691" lon="10.4856818"><ele>140.0</ele><time>2026-04-08T08:58:55.45Z</time></trkpt><trkpt lat="45.421945" lon="10.4857304"><ele>140.0</ele><time>2026-04-08T08:58:56.449Z</time></trkpt><trkpt lat="45.4220173" lon="10.4857778"><ele>140.0</ele><time>2026-04-08T08:58:57.449Z</time></trkpt><trkpt lat="45.4220854" lon="10.4858496"><ele>140.0</ele><time>2026-04-08T08:58:58.45Z</time></trkpt><trkpt lat="45.422148" lon="10.4859148"><ele>140.0</ele><time>2026-04-08T08:58:59.449Z</time></trkpt><trkpt lat="45.4222035" lon="10.4859759"><ele>140.0</ele><time>2026-04-08T08:59:00.45Z</time></trkpt><trkpt lat="45.4222543" lon="10.4860519"><ele>140.0</ele><time>2026-04-08T08:59:01.449Z</time></trkpt><trkpt lat="45.4222958" lon="10.486132"><ele>140.28571428571428</ele><time>2026-04-08T08:59:02.45Z</time></trkpt><trkpt lat="45.4223253" lon="10.4862179"><ele>140.57142857142856</ele><time>2026-04-08T08:59:03.449Z</time></trkpt><trkpt lat="45.4223606" lon="10.4863032"><ele>140.85714285714286</ele><time>2026-04-08T08:59:04.449Z</time></trkpt><trkpt lat="45.422392" lon="10.4863877"><ele>141.14285714285714</ele><time>2026-04-08T08:59:05.45Z</time></trkpt><trkpt lat="45.4224136" lon="10.4864865"><ele>141.42857142857142</ele><time>2026-04-08T08:59:06.449Z</time></trkpt><trkpt lat="45.4224252" lon="10.48659"><ele>141.71428571428572</ele><time>2026-04-08T08:59:07.449Z</time></trkpt><trkpt lat="45.4224304" lon="10.4866873"><ele>142.0</ele><time>2026-04-08T08:59:08.449Z</time></trkpt><trkpt lat="45.4224247" lon="10.4867876"><ele>142.33333333333334</ele><time>2026-04-08T08:59:09.45Z</time></trkpt><trkpt lat="45.4224173" lon="10.4868992"><ele>142.66666666666669</ele><time>2026-04-08T08:59:10.449Z</time></trkpt><trkpt lat="45.4223965" lon="10.4870107"><ele>143.0</ele><time>2026-04-08T08:59:11.45Z</time></trkpt><trkpt lat="45.422392" lon="10.4871301"><ele>143.33333333333334</ele><time>2026-04-08T08:59:12.449Z</time></trkpt><trkpt lat="45.4223903" lon="10.4872453"><ele>143.66666666666666</ele><time>2026-04-08T08:59:13.45Z</time></trkpt><trkpt lat="45.4223924" lon="10.4873724"><ele>144.0</ele><time>2026-04-08T08:59:14.449Z</time></trkpt><trkpt lat="45.4223996" lon="10.4874968"><ele>144.5</ele><time>2026-04-08T08:59:15.449Z</time></trkpt><trkpt lat="45.4224134" lon="10.4876205"><ele>145.0</ele><time>2026-04-08T08:59:16.45Z</time></trkpt><trkpt lat="45.4224359" lon="10.4877439"><ele>145.5</ele><time>2026-04-08T08:59:17.449Z</time></trkpt><trkpt lat="45.4224671" lon="10.4878629"><ele>146.0</ele><time>2026-04-08T08:59:18.45Z</time></trkpt><trkpt lat="45.4224969" lon="10.4879746"><ele>146.5</ele><time>2026-04-08T08:59:19.45Z</time></trkpt><trkpt lat="45.4225364" lon="10.4880683"><ele>147.0</ele><time>2026-04-08T08:59:20.45Z</time></trkpt><trkpt lat="45.4225824" lon="10.4881605"><ele>147.6</ele><time>2026-04-08T08:59:21.449Z</time></trkpt><trkpt lat="45.4226407" lon="10.4882447"><ele>148.2</ele><time>2026-04-08T08:59:22.449Z</time></trkpt><trkpt lat="45.4227088" lon="10.4883187"><ele>148.8</ele><time>2026-04-08T08:59:23.45Z</time></trkpt><trkpt lat="45.4227854" lon="10.4883936"><ele>149.4</ele><time>2026-04-08T08:59:24.449Z</time></trkpt><trkpt lat="45.4228645" lon="10.4884759"><ele>150.0</ele><time>2026-04-08T08:59:25.449Z</time></trkpt><trkpt lat="45.4229451" lon="10.488554"><ele>150.0</ele><time>2026-04-08T08:59:26.449Z</time></trkpt><trkpt lat="45.4230234" lon="10.4886312"><ele>150.0</ele><time>2026-04-08T08:59:27.45Z</time></trkpt><trkpt lat="45.4231049" lon="10.4886995"><ele>150.0</ele><time>2026-04-08T08:59:28.45Z</time></trkpt><trkpt lat="45.4231927" lon="10.4887653"><ele>150.0</ele><time>2026-04-08T08:59:29.45Z</time></trkpt><trkpt lat="45.4232782" lon="10.4888348"><ele>150.0</ele><time>2026-04-08T08:59:30.449Z</time></trkpt><trkpt lat="45.4233629" lon="10.4889083"><ele>150.6</ele><time>2026-04-08T08:59:31.449Z</time></trkpt><trkpt lat="45.4234466" lon="10.4889804"><ele>151.2</ele><time>2026-04-08T08:59:32.449Z</time></trkpt><trkpt lat="45.423531" lon="10.4890516"><ele>151.8</ele><time>2026-04-08T08:59:33.451Z</time></trkpt><trkpt lat="45.4236151" lon="10.4891185"><ele>152.4</ele><time>2026-04-08T08:59:34.451Z</time></trkpt><trkpt lat="45.4236903" lon="10.4891888"><ele>153.0</ele><time>2026-04-08T08:59:35.451Z</time></trkpt><trkpt lat="45.4237605" lon="10.4892712"><ele>153.0</ele><time>2026-04-08T08:59:36.45Z</time></trkpt><trkpt lat="45.4238305" lon="10.4893532"><ele>153.0</ele><time>2026-04-08T08:59:37.451Z</time></trkpt><trkpt lat="45.4238954" lon="10.4894285"><ele>153.0</ele><time>2026-04-08T08:59:38.451Z</time></trkpt><trkpt lat="45.4239584" lon="10.4895054"><ele>153.0</ele><time>2026-04-08T08:59:39.451Z</time></trkpt><trkpt lat="45.4240206" lon="10.4895896"><ele>153.0</ele><time>2026-04-08T08:59:40.45Z</time></trkpt><trkpt lat="45.4240877" lon="10.4896874"><ele>153.0</ele><time>2026-04-08T08:59:41.45Z</time></trkpt><trkpt lat="45.4241539" lon="10.4897857"><ele>152.8</ele><time>2026-04-08T08:59:42.45Z</time></trkpt><trkpt lat="45.4242295" lon="10.4898805"><ele>152.60000000000002</ele><time>2026-04-08T08:59:43.451Z</time></trkpt><trkpt lat="45.4242988" lon="10.4899713"><ele>152.39999999999998</ele><time>2026-04-08T08:59:44.451Z</time></trkpt><trkpt lat="45.4243685" lon="10.4900665"><ele>152.2</ele><time>2026-04-08T08:59:45.451Z</time></trkpt><trkpt lat="45.4244419" lon="10.4901641"><ele>152.0</ele><time>2026-04-08T08:59:46.451Z</time></trkpt><trkpt lat="45.4245146" lon="10.4902692"><ele>152.0</ele><time>2026-04-08T08:59:47.451Z</time></trkpt><trkpt lat="45.4245916" lon="10.4903715"><ele>152.0</ele><time>2026-04-08T08:59:48.451Z</time></trkpt><trkpt lat="45.4246697" lon="10.4904679"><ele>152.0</ele><time>2026-04-08T08:59:49.45Z</time></trkpt><trkpt lat="45.424746" lon="10.490558"><ele>152.0</ele><time>2026-04-08T08:59:50.451Z</time></trkpt><trkpt lat="45.4248205" lon="10.4906446"><ele>152.0</ele><time>2026-04-08T08:59:51.451Z</time></trkpt><trkpt lat="45.424883" lon="10.4907232"><ele>152.16666666666666</ele><time>2026-04-08T08:59:52.451Z</time></trkpt><trkpt lat="45.4249354" lon="10.4908098"><ele>152.33333333333331</ele><time>2026-04-08T08:59:53.451Z</time></trkpt><trkpt lat="45.4249873" lon="10.4909208"><ele>152.5</ele><time>2026-04-08T08:59:54.451Z</time></trkpt><trkpt lat="45.4250204" lon="10.4910323"><ele>152.66666666666666</ele><time>2026-04-08T08:59:55.45Z</time></trkpt><trkpt lat="45.4250398" lon="10.4911359"><ele>152.83333333333334</ele><time>2026-04-08T08:59:56.45Z</time></trkpt><trkpt lat="45.4250584" lon="10.4912382"><ele>153.0</ele><time>2026-04-08T08:59:57.45Z</time></trkpt><trkpt lat="45.4250582" lon="10.4913334"><ele>153.0</ele><time>2026-04-08T08:59:58.45Z</time></trkpt><trkpt lat="45.4250457" lon="10.4914261"><ele>153.0</ele><time>2026-04-08T08:59:59.45Z</time></trkpt><trkpt lat="45.4250341" lon="10.4915238"><ele>153.0</ele><time>2026-04-08T09:00:00.451Z</time></trkpt><trkpt lat="45.4250307" lon="10.49163"><ele>153.0</ele><time>2026-04-08T09:00:01.451Z</time></trkpt><trkpt lat="45.4250302" lon="10.4917416"><ele>153.0</ele><time>2026-04-08T09:00:02.451Z</time></trkpt><trkpt lat="45.425028" lon="10.4918414"><ele>153.0</ele><time>2026-04-08T09:00:03.45Z</time></trkpt><trkpt lat="45.4250314" lon="10.4919424"><ele>153.0</ele><time>2026-04-08T09:00:04.451Z</time></trkpt><trkpt lat="45.4250363" lon="10.4920597"><ele>152.16666666666666</ele><time>2026-04-08T09:00:05.451Z</time></trkpt><trkpt lat="45.4250376" lon="10.4921888"><ele>151.33333333333334</ele><time>2026-04-08T09:00:06.451Z</time></trkpt><trkpt lat="45.4250399" lon="10.4923127"><ele>150.5</ele><time>2026-04-08T09:00:07.451Z</time></trkpt><trkpt lat="45.4250438" lon="10.4924239"><ele>149.66666666666669</ele><time>2026-04-08T09:00:08.451Z</time></trkpt><trkpt lat="45.4250621" lon="10.4925228"><ele>148.83333333333334</ele><time>2026-04-08T09:00:09.451Z</time></trkpt><trkpt lat="45.4250897" lon="10.4926203"><ele>148.0</ele><time>2026-04-08T09:00:10.45Z</time></trkpt><trkpt lat="45.4251325" lon="10.4927076"><ele>148.0</ele><time>2026-04-08T09:00:11.451Z</time></trkpt><trkpt lat="45.4251841" lon="10.492783"><ele>148.0</ele><time>2026-04-08T09:00:12.451Z</time></trkpt><trkpt lat="45.4252496" lon="10.4928481"><ele>148.0</ele><time>2026-04-08T09:00:13.45Z</time></trkpt><trkpt lat="45.42533" lon="10.4929058"><ele>148.0</ele><time>2026-04-08T09:00:14.451Z</time></trkpt><trkpt lat="45.4254175" lon="10.4929646"><ele>148.0</ele><time>2026-04-08T09:00:15.45Z</time></trkpt><trkpt lat="45.4255133" lon="10.4930364"><ele>148.0</ele><time>2026-04-08T09:00:16.451Z</time></trkpt><trkpt lat="45.4256078" lon="10.4930977"><ele>147.4</ele><time>2026-04-08T09:00:17.45Z</time></trkpt><trkpt lat="45.4256985" lon="10.4931553"><ele>146.8</ele><time>2026-04-08T09:00:18.451Z</time></trkpt><trkpt lat="45.4257821" lon="10.4932082"><ele>146.2</ele><time>2026-04-08T09:00:19.451Z</time></trkpt><trkpt lat="45.4258676" lon="10.4932647"><ele>145.6</ele><time>2026-04-08T09:00:20.451Z</time></trkpt><trkpt lat="45.4259551" lon="10.4933162"><ele>145.0</ele><time>2026-04-08T09:00:21.452Z</time></trkpt><trkpt lat="45.4260431" lon="10.4933663"><ele>145.0</ele><time>2026-04-08T09:00:22.452Z</time></trkpt><trkpt lat="45.4261334" lon="10.4934168"><ele>145.0</ele><time>2026-04-08T09:00:23.452Z</time></trkpt><trkpt lat="45.4262256" lon="10.4934741"><ele>145.0</ele><time>2026-04-08T09:00:24.451Z</time></trkpt><trkpt lat="45.4263185" lon="10.493534"><ele>145.0</ele><time>2026-04-08T09:00:25.452Z</time></trkpt><trkpt lat="45.4264129" lon="10.4935989"><ele>145.0</ele><time>2026-04-08T09:00:26.452Z</time></trkpt><trkpt lat="45.4265087" lon="10.4936762"><ele>144.4</ele><time>2026-04-08T09:00:27.451Z</time></trkpt><trkpt lat="45.4266036" lon="10.4937568"><ele>143.8</ele><time>2026-04-08T09:00:28.451Z</time></trkpt><trkpt lat="45.4266948" lon="10.4938365"><ele>143.2</ele><time>2026-04-08T09:00:29.451Z</time></trkpt><trkpt lat="45.4267848" lon="10.4939114"><ele>142.6</ele><time>2026-04-08T09:00:30.452Z</time></trkpt><trkpt lat="45.4268725" lon="10.4939829"><ele>142.0</ele><time>2026-04-08T09:00:31.452Z</time></trkpt><trkpt lat="45.4269492" lon="10.4940436"><ele>142.0</ele><time>2026-04-08T09:00:32.452Z</time></trkpt><trkpt lat="45.4270152" lon="10.494095"><ele>142.0</ele><time>2026-04-08T09:00:33.452Z</time></trkpt><trkpt lat="45.427084" lon="10.4941371"><ele>142.0</ele><time>2026-04-08T09:00:34.451Z</time></trkpt><trkpt lat="45.4271598" lon="10.4941538"><ele>142.0</ele><time>2026-04-08T09:00:35.451Z</time></trkpt><trkpt lat="45.4272415" lon="10.4941441"><ele>142.0</ele><time>2026-04-08T09:00:36.452Z</time></trkpt><trkpt lat="45.4273278" lon="10.4941209"><ele>142.0</ele><time>2026-04-08T09:00:37.451Z</time></trkpt><trkpt lat="45.4274185" lon="10.4941024"><ele>142.6</ele><time>2026-04-08T09:00:38.452Z</time></trkpt><trkpt lat="45.4275132" lon="10.4940875"><ele>143.2</ele><time>2026-04-08T09:00:39.451Z</time></trkpt><trkpt lat="45.4276113" lon="10.4940789"><ele>143.8</ele><time>2026-04-08T09:00:40.452Z</time></trkpt><trkpt lat="45.4277119" lon="10.4940683"><ele>144.4</ele><time>2026-04-08T09:00:41.452Z</time></trkpt><trkpt lat="45.4278161" lon="10.4940568"><ele>145.0</ele><time>2026-04-08T09:00:42.452Z</time></trkpt><trkpt lat="45.4279275" lon="10.4940528"><ele>145.5</ele><time>2026-04-08T09:00:43.452Z</time></trkpt><trkpt lat="45.4280364" lon="10.494048"><ele>146.0</ele><time>2026-04-08T09:00:44.451Z</time></trkpt><trkpt lat="45.4281313" lon="10.4940379"><ele>146.5</ele><time>2026-04-08T09:00:45.452Z</time></trkpt><trkpt lat="45.4282177" lon="10.4940455"><ele>147.0</ele><time>2026-04-08T09:00:46.452Z</time></trkpt><trkpt lat="45.4282929" lon="10.4940674"><ele>147.5</ele><time>2026-04-08T09:00:47.451Z</time></trkpt><trkpt lat="45.4283648" lon="10.4940978"><ele>148.0</ele><time>2026-04-08T09:00:48.451Z</time></trkpt><trkpt lat="45.4284348" lon="10.494142"><ele>148.0</ele><time>2026-04-08T09:00:49.452Z</time></trkpt><trkpt lat="45.4285071" lon="10.4941906"><ele>148.0</ele><time>2026-04-08T09:00:50.452Z</time></trkpt><trkpt lat="45.4285851" lon="10.4942361"><ele>148.0</ele><time>2026-04-08T09:00:51.452Z</time></trkpt><trkpt lat="45.428666" lon="10.4942859"><ele>148.0</ele><time>2026-04-08T09:00:52.451Z</time></trkpt><trkpt lat="45.4287492" lon="10.4943422"><ele>148.0</ele><time>2026-04-08T09:00:53.451Z</time></trkpt><trkpt lat="45.4288363" lon="10.4943983"><ele>148.0</ele><time>2026-04-08T09:00:54.452Z</time></trkpt><trkpt lat="45.4289289" lon="10.4944497"><ele>148.4</ele><time>2026-04-08T09:00:55.451Z</time></trkpt><trkpt lat="45.4290271" lon="10.4944993"><ele>148.8</ele><time>2026-04-08T09:00:56.452Z</time></trkpt><trkpt lat="45.4291252" lon="10.4945517"><ele>149.2</ele><time>2026-04-08T09:00:57.451Z</time></trkpt><trkpt lat="45.4292242" lon="10.4946078"><ele>149.6</ele><time>2026-04-08T09:00:58.451Z</time></trkpt><trkpt lat="45.4293193" lon="10.4946681"><ele>150.0</ele><time>2026-04-08T09:00:59.451Z</time></trkpt><trkpt lat="45.4294047" lon="10.4947251"><ele>149.0</ele><time>2026-04-08T09:01:00.452Z</time></trkpt><trkpt lat="45.4294796" lon="10.4947781"><ele>148.0</ele><time>2026-04-08T09:01:01.451Z</time></trkpt><trkpt lat="45.4295585" lon="10.4948406"><ele>147.0</ele><time>2026-04-08T09:01:02.452Z</time></trkpt><trkpt lat="45.4296353" lon="10.4949083"><ele>146.0</ele><time>2026-04-08T09:01:03.452Z</time></trkpt><trkpt lat="45.4297095" lon="10.49498"><ele>145.0</ele><time>2026-04-08T09:01:04.453Z</time></trkpt><trkpt lat="45.4297829" lon="10.4950613"><ele>144.0</ele><time>2026-04-08T09:01:05.452Z</time></trkpt><trkpt lat="45.4298598" lon="10.4951494"><ele>145.2</ele><time>2026-04-08T09:01:06.453Z</time></trkpt><trkpt lat="45.4299362" lon="10.4952416"><ele>146.4</ele><time>2026-04-08T09:01:07.452Z</time></trkpt><trkpt lat="45.4300101" lon="10.495333"><ele>147.6</ele><time>2026-04-08T09:01:08.452Z</time></trkpt><trkpt lat="45.4300821" lon="10.4954171"><ele>148.8</ele><time>2026-04-08T09:01:09.452Z</time></trkpt><trkpt lat="45.4301464" lon="10.4955061"><ele>150.0</ele><time>2026-04-08T09:01:10.452Z</time></trkpt><trkpt lat="45.4302036" lon="10.4956069"><ele>150.0</ele><time>2026-04-08T09:01:11.453Z</time></trkpt><trkpt lat="45.4302511" lon="10.4957265"><ele>150.0</ele><time>2026-04-08T09:01:12.505Z</time></trkpt><trkpt lat="45.4302937" lon="10.4958449"><ele>150.0</ele><time>2026-04-08T09:01:13.506Z</time></trkpt><trkpt lat="45.4303376" lon="10.4959541"><ele>150.0</ele><time>2026-04-08T09:01:14.506Z</time></trkpt><trkpt lat="45.430377" lon="10.4960552"><ele>150.0</ele><time>2026-04-08T09:01:15.506Z</time></trkpt><trkpt lat="45.4304254" lon="10.496157"><ele>150.0</ele><time>2026-04-08T09:01:16.506Z</time></trkpt><trkpt lat="45.4304802" lon="10.4962529"><ele>151.33333333333334</ele><time>2026-04-08T09:01:17.505Z</time></trkpt><trkpt lat="45.4305325" lon="10.4963352"><ele>152.66666666666666</ele><time>2026-04-08T09:01:18.505Z</time></trkpt><trkpt lat="45.4305832" lon="10.4964129"><ele>154.0</ele><time>2026-04-08T09:01:19.506Z</time></trkpt><trkpt lat="45.4306415" lon="10.4964918"><ele>155.33333333333331</ele><time>2026-04-08T09:01:20.505Z</time></trkpt><trkpt lat="45.4307029" lon="10.4965633"><ele>156.66666666666666</ele><time>2026-04-08T09:01:21.506Z</time></trkpt><trkpt lat="45.4307706" lon="10.4966248"><ele>158.0</ele><time>2026-04-08T09:01:22.505Z</time></trkpt><trkpt lat="45.4308502" lon="10.496687"><ele>158.0</ele><time>2026-04-08T09:01:23.505Z</time></trkpt><trkpt lat="45.4309393" lon="10.4967564"><ele>158.0</ele><time>2026-04-08T09:01:24.505Z</time></trkpt><trkpt lat="45.431025" lon="10.4968282"><ele>158.0</ele><time>2026-04-08T09:01:25.505Z</time></trkpt><trkpt lat="45.4311028" lon="10.4968894"><ele>158.0</ele><time>2026-04-08T09:01:26.506Z</time></trkpt><trkpt lat="45.4311764" lon="10.4969501"><ele>158.0</ele><time>2026-04-08T09:01:27.505Z</time></trkpt><trkpt lat="45.4312423" lon="10.4970183"><ele>157.66666666666666</ele><time>2026-04-08T09:01:28.505Z</time></trkpt><trkpt lat="45.4313033" lon="10.4970922"><ele>157.33333333333331</ele><time>2026-04-08T09:01:29.505Z</time></trkpt><trkpt lat="45.4313592" lon="10.497172"><ele>157.0</ele><time>2026-04-08T09:01:30.505Z</time></trkpt><trkpt lat="45.4314034" lon="10.4972523"><ele>156.66666666666666</ele><time>2026-04-08T09:01:31.506Z</time></trkpt><trkpt lat="45.4314414" lon="10.4973486"><ele>156.33333333333334</ele><time>2026-04-08T09:01:32.505Z</time></trkpt><trkpt lat="45.4314814" lon="10.4974634"><ele>156.0</ele><time>2026-04-08T09:01:33.505Z</time></trkpt><trkpt lat="45.4315241" lon="10.4975818"><ele>156.0</ele><time>2026-04-08T09:01:34.505Z</time></trkpt><trkpt lat="45.4315736" lon="10.4976947"><ele>156.0</ele><time>2026-04-08T09:01:35.505Z</time></trkpt><trkpt lat="45.4316194" lon="10.4978236"><ele>156.0</ele><time>2026-04-08T09:01:36.505Z</time></trkpt><trkpt lat="45.4316565" lon="10.497965"><ele>156.0</ele><time>2026-04-08T09:01:37.506Z</time></trkpt><trkpt lat="45.4316967" lon="10.4981087"><ele>156.0</ele><time>2026-04-08T09:01:38.506Z</time></trkpt><trkpt lat="45.4317373" lon="10.4982582"><ele>154.8</ele><time>2026-04-08T09:01:39.505Z</time></trkpt><trkpt lat="45.4317629" lon="10.4984057"><ele>153.6</ele><time>2026-04-08T09:01:40.505Z</time></trkpt><trkpt lat="45.4317763" lon="10.4985396"><ele>152.4</ele><time>2026-04-08T09:01:41.506Z</time></trkpt><trkpt lat="45.4317751" lon="10.4986704"><ele>151.2</ele><time>2026-04-08T09:01:42.506Z</time></trkpt><trkpt lat="45.4317591" lon="10.4988125"><ele>150.0</ele><time>2026-04-08T09:01:43.505Z</time></trkpt><trkpt lat="45.4317418" lon="10.4989621"><ele>150.0</ele><time>2026-04-08T09:01:44.505Z</time></trkpt><trkpt lat="45.4317255" lon="10.4991148"><ele>150.0</ele><time>2026-04-08T09:01:45.506Z</time></trkpt><trkpt lat="45.4317049" lon="10.4992778"><ele>150.0</ele><time>2026-04-08T09:01:46.505Z</time></trkpt><trkpt lat="45.4316809" lon="10.4994403"><ele>150.0</ele><time>2026-04-08T09:01:47.505Z</time></trkpt><trkpt lat="45.431657" lon="10.4996098"><ele>150.0</ele><time>2026-04-08T09:01:48.505Z</time></trkpt><trkpt lat="45.431631" lon="10.4997729"><ele>150.0</ele><time>2026-04-08T09:01:49.506Z</time></trkpt><trkpt lat="45.4316048" lon="10.4999325"><ele>150.0</ele><time>2026-04-08T09:01:50.505Z</time></trkpt><trkpt lat="45.4315753" lon="10.5000945"><ele>150.0</ele><time>2026-04-08T09:01:51.505Z</time></trkpt><trkpt lat="45.431547" lon="10.5002614"><ele>149.5</ele><time>2026-04-08T09:01:52.505Z</time></trkpt><trkpt lat="45.4315164" lon="10.5004346"><ele>149.0</ele><time>2026-04-08T09:01:53.505Z</time></trkpt><trkpt lat="45.4314828" lon="10.5006115"><ele>148.5</ele><time>2026-04-08T09:01:54.506Z</time></trkpt><trkpt lat="45.431452" lon="10.5007936"><ele>148.0</ele><time>2026-04-08T09:01:55.505Z</time></trkpt><trkpt lat="45.4314226" lon="10.5009742"><ele>148.0</ele><time>2026-04-08T09:01:56.505Z</time></trkpt><trkpt lat="45.4313922" lon="10.5011403"><ele>148.0</ele><time>2026-04-08T09:01:57.506Z</time></trkpt><trkpt lat="45.4313662" lon="10.5012885"><ele>148.0</ele><time>2026-04-08T09:01:58.506Z</time></trkpt><trkpt lat="45.4313447" lon="10.5014279"><ele>148.0</ele><time>2026-04-08T09:01:59.505Z</time></trkpt><trkpt lat="45.4313267" lon="10.5015606"><ele>148.0</ele><time>2026-04-08T09:02:00.505Z</time></trkpt><trkpt lat="45.4313117" lon="10.5016869"><ele>147.8</ele><time>2026-04-08T09:02:01.505Z</time></trkpt><trkpt lat="45.4312923" lon="10.5017958"><ele>147.60000000000002</ele><time>2026-04-08T09:02:02.505Z</time></trkpt><trkpt lat="45.4312705" lon="10.501885"><ele>147.39999999999998</ele><time>2026-04-08T09:02:03.506Z</time></trkpt><trkpt lat="45.4312286" lon="10.5020125"><ele>147.2</ele><time>2026-04-08T09:02:05.506Z</time></trkpt><trkpt lat="45.4311408" lon="10.5020238"><ele>147.0</ele><time>2026-04-08T09:02:07.506Z</time></trkpt><trkpt lat="45.4310293" lon="10.5019579"><ele>147.0</ele><time>2026-04-08T09:02:09.506Z</time></trkpt><trkpt lat="45.4309661" lon="10.5018885"><ele>147.0</ele><time>2026-04-08T09:02:10.505Z</time></trkpt><trkpt lat="45.4308988" lon="10.5018136"><ele>147.0</ele><time>2026-04-08T09:02:11.505Z</time></trkpt><trkpt lat="45.4308224" lon="10.5017326"><ele>147.0</ele><time>2026-04-08T09:02:12.506Z</time></trkpt><trkpt lat="45.4307401" lon="10.5016526"><ele>147.0</ele><time>2026-04-08T09:02:13.505Z</time></trkpt><trkpt lat="45.4306512" lon="10.501565"><ele>147.0</ele><time>2026-04-08T09:02:14.506Z</time></trkpt><trkpt lat="45.4305604" lon="10.5014717"><ele>147.0</ele><time>2026-04-08T09:02:15.505Z</time></trkpt><trkpt lat="45.4304628" lon="10.5013667"><ele>147.0</ele><time>2026-04-08T09:02:16.505Z</time></trkpt><trkpt lat="45.4303617" lon="10.5012594"><ele>147.0</ele><time>2026-04-08T09:02:17.506Z</time></trkpt><trkpt lat="45.4302624" lon="10.5011593"><ele>146.66666666666666</ele><time>2026-04-08T09:02:18.505Z</time></trkpt><trkpt lat="45.4301716" lon="10.5010689"><ele>146.33333333333334</ele><time>2026-04-08T09:02:19.506Z</time></trkpt><trkpt lat="45.4300927" lon="10.5009895"><ele>146.0</ele><time>2026-04-08T09:02:20.505Z</time></trkpt><trkpt lat="45.4300248" lon="10.5009203"><ele>145.66666666666669</ele><time>2026-04-08T09:02:21.505Z</time></trkpt><trkpt lat="45.4299642" lon="10.5008604"><ele>145.33333333333334</ele><time>2026-04-08T09:02:22.505Z</time></trkpt><trkpt lat="45.429909" lon="10.5008061"><ele>145.0</ele><time>2026-04-08T09:02:23.505Z</time></trkpt><trkpt lat="45.4298248" lon="10.500781"><ele>145.0</ele><time>2026-04-08T09:02:25.506Z</time></trkpt><trkpt lat="45.4297431" lon="10.500835"><ele>145.0</ele><time>2026-04-08T09:02:27.506Z</time></trkpt><trkpt lat="45.4296659" lon="10.5009609"><ele>145.0</ele><time>2026-04-08T09:02:29.506Z</time></trkpt><trkpt lat="45.4296272" lon="10.5010433"><ele>145.0</ele><time>2026-04-08T09:02:30.505Z</time></trkpt><trkpt lat="45.4295815" lon="10.5011268"><ele>145.0</ele><time>2026-04-08T09:02:31.506Z</time></trkpt><trkpt lat="45.4295433" lon="10.5012084"><ele>145.0</ele><time>2026-04-08T09:02:32.505Z</time></trkpt><trkpt lat="45.4295013" lon="10.50129"><ele>145.85714285714286</ele><time>2026-04-08T09:02:33.505Z</time></trkpt><trkpt lat="45.4294553" lon="10.5013691"><ele>146.71428571428572</ele><time>2026-04-08T09:02:34.506Z</time></trkpt><trkpt lat="45.429402" lon="10.5014442"><ele>147.57142857142858</ele><time>2026-04-08T09:02:35.505Z</time></trkpt><trkpt lat="45.4293494" lon="10.5015152"><ele>148.42857142857144</ele><time>2026-04-08T09:02:36.505Z</time></trkpt><trkpt lat="45.4293016" lon="10.501582"><ele>149.28571428571428</ele><time>2026-04-08T09:02:37.506Z</time></trkpt><trkpt lat="45.4292523" lon="10.501652"><ele>150.14285714285717</ele><time>2026-04-08T09:02:38.505Z</time></trkpt><trkpt lat="45.4292031" lon="10.5017172"><ele>151.0</ele><time>2026-04-08T09:02:39.505Z</time></trkpt><trkpt lat="45.4291608" lon="10.5017935"><ele>151.0</ele><time>2026-04-08T09:02:40.505Z</time></trkpt><trkpt lat="45.4291244" lon="10.5018736"><ele>151.0</ele><time>2026-04-08T09:02:41.506Z</time></trkpt><trkpt lat="45.4290973" lon="10.5019573"><ele>151.0</ele><time>2026-04-08T09:02:42.505Z</time></trkpt><trkpt lat="45.4290674" lon="10.5020567"><ele>151.0</ele><time>2026-04-08T09:02:43.505Z</time></trkpt><trkpt lat="45.4290259" lon="10.5021579"><ele>151.0</ele><time>2026-04-08T09:02:44.505Z</time></trkpt><trkpt lat="45.4289939" lon="10.5022636"><ele>151.0</ele><time>2026-04-08T09:02:45.505Z</time></trkpt><trkpt lat="45.4289597" lon="10.5023688"><ele>151.2</ele><time>2026-04-08T09:02:46.506Z</time></trkpt><trkpt lat="45.4289233" lon="10.5024772"><ele>151.39999999999998</ele><time>2026-04-08T09:02:47.506Z</time></trkpt><trkpt lat="45.4288953" lon="10.5025791"><ele>151.6</ele><time>2026-04-08T09:02:48.505Z</time></trkpt><trkpt lat="45.4288667" lon="10.5026641"><ele>151.79999999999998</ele><time>2026-04-08T09:02:49.505Z</time></trkpt><trkpt lat="45.4288084" lon="10.5028092"><ele>152.0</ele><time>2026-04-08T09:02:51.506Z</time></trkpt><trkpt lat="45.4287455" lon="10.5029391"><ele>151.6</ele><time>2026-04-08T09:02:53.505Z</time></trkpt><trkpt lat="45.4286758" lon="10.5030357"><ele>151.2</ele><time>2026-04-08T09:02:55.506Z</time></trkpt><trkpt lat="45.4285812" lon="10.5030965"><ele>150.8</ele><time>2026-04-08T09:02:57.506Z</time></trkpt><trkpt lat="45.4284928" lon="10.5031565"><ele>150.4</ele><time>2026-04-08T09:02:59.506Z</time></trkpt><trkpt lat="45.4284" lon="10.5032085"><ele>150.0</ele><time>2026-04-08T09:03:01.505Z</time></trkpt><trkpt lat="45.4283241" lon="10.5032757"><ele>150.0</ele><time>2026-04-08T09:03:03.506Z</time></trkpt><trkpt lat="45.4282485" lon="10.5033794"><ele>150.0</ele><time>2026-04-08T09:03:05.505Z</time></trkpt><trkpt lat="45.4281797" lon="10.5035087"><ele>150.0</ele><time>2026-04-08T09:03:07.505Z</time></trkpt><trkpt lat="45.4281158" lon="10.5036285"><ele>150.0</ele><time>2026-04-08T09:03:09.505Z</time></trkpt><trkpt lat="45.4280477" lon="10.5037348"><ele>150.0</ele><time>2026-04-08T09:03:11.505Z</time></trkpt><trkpt lat="45.4279865" lon="10.5038062"><ele>148.16666666666666</ele><time>2026-04-08T09:03:13.505Z</time></trkpt><trkpt lat="45.4279035" lon="10.5038341"><ele>146.33333333333334</ele><time>2026-04-08T09:03:15.506Z</time></trkpt><trkpt lat="45.4278117" lon="10.5038858"><ele>144.5</ele><time>2026-04-08T09:03:17.506Z</time></trkpt><trkpt lat="45.4277482" lon="10.5039332"><ele>142.66666666666669</ele><time>2026-04-08T09:03:18.505Z</time></trkpt><trkpt lat="45.4276815" lon="10.5039891"><ele>140.83333333333334</ele><time>2026-04-08T09:03:19.505Z</time></trkpt><trkpt lat="45.4276211" lon="10.504044"><ele>139.0</ele><time>2026-04-08T09:03:20.506Z</time></trkpt><trkpt lat="45.4275552" lon="10.5040863"><ele>139.0</ele><time>2026-04-08T09:03:21.505Z</time></trkpt><trkpt lat="45.427488" lon="10.5041196"><ele>139.0</ele><time>2026-04-08T09:03:22.505Z</time></trkpt><trkpt lat="45.4274198" lon="10.5041386"><ele>139.0</ele><time>2026-04-08T09:03:23.505Z</time></trkpt><trkpt lat="45.4273478" lon="10.5041513"><ele>139.0</ele><time>2026-04-08T09:03:24.505Z</time></trkpt><trkpt lat="45.4272732" lon="10.5041615"><ele>139.0</ele><time>2026-04-08T09:03:25.506Z</time></trkpt><trkpt lat="45.4272081" lon="10.5041685"><ele>139.0</ele><time>2026-04-08T09:03:26.505Z</time></trkpt><trkpt lat="45.4270916" lon="10.5041609"><ele>139.25</ele><time>2026-04-08T09:03:28.506Z</time></trkpt><trkpt lat="45.4269759" lon="10.5041383"><ele>139.5</ele><time>2026-04-08T09:03:30.506Z</time></trkpt><trkpt lat="45.4268594" lon="10.5041409"><ele>139.75</ele><time>2026-04-08T09:03:32.456Z</time></trkpt><trkpt lat="45.4267352" lon="10.5041425"><ele>140.0</ele><time>2026-04-08T09:03:34.456Z</time></trkpt><trkpt lat="45.4266152" lon="10.5041575"><ele>140.0</ele><time>2026-04-08T09:03:36.455Z</time></trkpt><trkpt lat="45.426498" lon="10.5042183"><ele>140.0</ele><time>2026-04-08T09:03:38.455Z</time></trkpt><trkpt lat="45.4264381" lon="10.5042595"><ele>140.0</ele><time>2026-04-08T09:03:39.456Z</time></trkpt><trkpt lat="45.4263821" lon="10.5043062"><ele>140.0</ele><time>2026-04-08T09:03:40.456Z</time></trkpt><trkpt lat="45.4262912" lon="10.5043937"><ele>140.0</ele><time>2026-04-08T09:03:42.455Z</time></trkpt><trkpt lat="45.4262234" lon="10.5044658"><ele>139.66666666666666</ele><time>2026-04-08T09:03:44.456Z</time></trkpt><trkpt lat="45.426172" lon="10.5045187"><ele>139.33333333333331</ele><time>2026-04-08T09:03:46.456Z</time></trkpt><trkpt lat="45.4260907" lon="10.5045779"><ele>139.0</ele><time>2026-04-08T09:03:49.456Z</time></trkpt><trkpt lat="45.4260234" lon="10.5046491"><ele>138.66666666666666</ele><time>2026-04-08T09:03:52.455Z</time></trkpt><trkpt lat="45.4259618" lon="10.5046969"><ele>138.33333333333334</ele><time>2026-04-08T09:03:54.455Z</time></trkpt><trkpt lat="45.4258847" lon="10.5047648"><ele>138.0</ele><time>2026-04-08T09:03:56.455Z</time></trkpt><trkpt lat="45.4258136" lon="10.5048429"><ele>136.20000000000002</ele><time>2026-04-08T09:03:58.455Z</time></trkpt><trkpt lat="45.42574" lon="10.5049025"><ele>134.4</ele><time>2026-04-08T09:04:00.456Z</time></trkpt><trkpt lat="45.4256623" lon="10.5049585"><ele>132.60000000000002</ele><time>2026-04-08T09:04:02.455Z</time></trkpt><trkpt lat="45.4255866" lon="10.505018"><ele>130.8</ele><time>2026-04-08T09:04:05.456Z</time></trkpt><trkpt lat="45.425469" lon="10.5050314"><ele>129.0</ele><time>2026-04-08T09:04:07.456Z</time></trkpt><trkpt lat="45.4253884" lon="10.5050143"><ele>129.0</ele><time>2026-04-08T09:04:08.456Z</time></trkpt><trkpt lat="45.4252977" lon="10.5049975"><ele>129.0</ele><time>2026-04-08T09:04:09.457Z</time></trkpt><trkpt lat="45.425194" lon="10.5049828"><ele>129.0</ele><time>2026-04-08T09:04:10.456Z</time></trkpt><trkpt lat="45.4250782" lon="10.5049701"><ele>129.0</ele><time>2026-04-08T09:04:11.457Z</time></trkpt><trkpt lat="45.4249574" lon="10.5049589"><ele>129.0</ele><time>2026-04-08T09:04:12.457Z</time></trkpt><trkpt lat="45.4248338" lon="10.5049568"><ele>129.0</ele><time>2026-04-08T09:04:13.456Z</time></trkpt><trkpt lat="45.4247041" lon="10.5049672"><ele>129.0</ele><time>2026-04-08T09:04:14.456Z</time></trkpt><trkpt lat="45.424579" lon="10.5049685"><ele>129.0</ele><time>2026-04-08T09:04:15.457Z</time></trkpt><trkpt lat="45.4244615" lon="10.504952"><ele>129.0</ele><time>2026-04-08T09:04:16.456Z</time></trkpt><trkpt lat="45.4243472" lon="10.5049325"><ele>129.0</ele><time>2026-04-08T09:04:17.456Z</time></trkpt><trkpt lat="45.4242327" lon="10.5049077"><ele>129.0</ele><time>2026-04-08T09:04:18.456Z</time></trkpt><trkpt lat="45.4241196" lon="10.5048773"><ele>129.0</ele><time>2026-04-08T09:04:19.457Z</time></trkpt><trkpt lat="45.4240076" lon="10.5048408"><ele>129.0</ele><time>2026-04-08T09:04:20.456Z</time></trkpt><trkpt lat="45.4239078" lon="10.5047944"><ele>128.6</ele><time>2026-04-08T09:04:21.456Z</time></trkpt><trkpt lat="45.4238126" lon="10.5047372"><ele>128.2</ele><time>2026-04-08T09:04:22.456Z</time></trkpt><trkpt lat="45.4237145" lon="10.5046696"><ele>127.79999999999998</ele><time>2026-04-08T09:04:23.456Z</time></trkpt><trkpt lat="45.4236223" lon="10.5045952"><ele>127.39999999999999</ele><time>2026-04-08T09:04:24.456Z</time></trkpt><trkpt lat="45.4235419" lon="10.5045204"><ele>127.0</ele><time>2026-04-08T09:04:25.457Z</time></trkpt><trkpt lat="45.4234652" lon="10.5044489"><ele>127.00000000000001</ele><time>2026-04-08T09:04:26.456Z</time></trkpt><trkpt lat="45.4233882" lon="10.5043814"><ele>127.0</ele><time>2026-04-08T09:04:27.457Z</time></trkpt><trkpt lat="45.4233169" lon="10.5043136"><ele>127.0</ele><time>2026-04-08T09:04:28.457Z</time></trkpt><trkpt lat="45.4232478" lon="10.5042486"><ele>127.0</ele><time>2026-04-08T09:04:29.456Z</time></trkpt><trkpt lat="45.4231744" lon="10.5041955"><ele>127.00000000000001</ele><time>2026-04-08T09:04:30.457Z</time></trkpt><trkpt lat="45.4230958" lon="10.504144"><ele>127.0</ele><time>2026-04-08T09:04:31.456Z</time></trkpt><trkpt lat="45.4230144" lon="10.5040974"><ele>126.33333333333334</ele><time>2026-04-08T09:04:32.457Z</time></trkpt><trkpt lat="45.4229298" lon="10.5040514"><ele>125.66666666666667</ele><time>2026-04-08T09:04:33.457Z</time></trkpt><trkpt lat="45.4228499" lon="10.5040061"><ele>125.0</ele><time>2026-04-08T09:04:34.457Z</time></trkpt><trkpt lat="45.4227744" lon="10.5039595"><ele>124.33333333333334</ele><time>2026-04-08T09:04:35.457Z</time></trkpt><trkpt lat="45.4226991" lon="10.5039187"><ele>123.66666666666667</ele><time>2026-04-08T09:04:36.456Z</time></trkpt><trkpt lat="45.4226229" lon="10.5038794"><ele>123.0</ele><time>2026-04-08T09:04:37.456Z</time></trkpt><trkpt lat="45.4225454" lon="10.5038415"><ele>123.0</ele><time>2026-04-08T09:04:38.456Z</time></trkpt><trkpt lat="45.4224654" lon="10.5038032"><ele>123.0</ele><time>2026-04-08T09:04:39.456Z</time></trkpt><trkpt lat="45.4223852" lon="10.5037632"><ele>123.0</ele><time>2026-04-08T09:04:40.457Z</time></trkpt><trkpt lat="45.4223025" lon="10.5037209"><ele>123.0</ele><time>2026-04-08T09:04:41.457Z</time></trkpt><trkpt lat="45.4222192" lon="10.5036791"><ele>123.0</ele><time>2026-04-08T09:04:42.457Z</time></trkpt><trkpt lat="45.422134" lon="10.503642"><ele>123.0</ele><time>2026-04-08T09:04:43.457Z</time></trkpt><trkpt lat="45.4220422" lon="10.5036069"><ele>123.2</ele><time>2026-04-08T09:04:44.457Z</time></trkpt><trkpt lat="45.4219509" lon="10.5035782"><ele>123.4</ele><time>2026-04-08T09:04:45.457Z</time></trkpt><trkpt lat="45.4218675" lon="10.5035514"><ele>123.60000000000001</ele><time>2026-04-08T09:04:46.457Z</time></trkpt><trkpt lat="45.4217868" lon="10.5035121"><ele>123.80000000000001</ele><time>2026-04-08T09:04:47.456Z</time></trkpt><trkpt lat="45.4217119" lon="10.5034386"><ele>124.0</ele><time>2026-04-08T09:04:48.456Z</time></trkpt><trkpt lat="45.4216427" lon="10.5033404"><ele>124.00000000000001</ele><time>2026-04-08T09:04:49.457Z</time></trkpt><trkpt lat="45.4215631" lon="10.5032482"><ele>124.0</ele><time>2026-04-08T09:04:50.457Z</time></trkpt><trkpt lat="45.4214909" lon="10.5031716"><ele>124.0</ele><time>2026-04-08T09:04:51.457Z</time></trkpt><trkpt lat="45.4214208" lon="10.5030988"><ele>124.0</ele><time>2026-04-08T09:04:52.456Z</time></trkpt><trkpt lat="45.4213421" lon="10.5030778"><ele>124.00000000000001</ele><time>2026-04-08T09:04:53.457Z</time></trkpt><trkpt lat="45.4212821" lon="10.5031147"><ele>124.0</ele><time>2026-04-08T09:04:54.458Z</time></trkpt><trkpt lat="45.4212027" lon="10.5032918"><ele>124.0</ele><time>2026-04-08T09:04:56.458Z</time></trkpt><trkpt lat="45.4211727" lon="10.5034231"><ele>124.0</ele><time>2026-04-08T09:04:57.457Z</time></trkpt><trkpt lat="45.4211426" lon="10.5035705"><ele>124.0</ele><time>2026-04-08T09:04:58.458Z</time></trkpt><trkpt lat="45.4211033" lon="10.503724"><ele>124.0</ele><time>2026-04-08T09:04:59.458Z</time></trkpt><trkpt lat="45.4210362" lon="10.5038686"><ele>124.0</ele><time>2026-04-08T09:05:00.457Z</time></trkpt><trkpt lat="45.4209628" lon="10.5040011"><ele>124.0</ele><time>2026-04-08T09:05:01.457Z</time></trkpt><trkpt lat="45.4208944" lon="10.5041246"><ele>124.0</ele><time>2026-04-08T09:05:02.458Z</time></trkpt><trkpt lat="45.4208311" lon="10.5042486"><ele>124.0</ele><time>2026-04-08T09:05:03.458Z</time></trkpt><trkpt lat="45.4207798" lon="10.5043838"><ele>124.0</ele><time>2026-04-08T09:05:04.458Z</time></trkpt><trkpt lat="45.4207522" lon="10.5045309"><ele>124.0</ele><time>2026-04-08T09:05:05.457Z</time></trkpt><trkpt lat="45.4207441" lon="10.5046723"><ele>123.4</ele><time>2026-04-08T09:05:06.457Z</time></trkpt><trkpt lat="45.4207317" lon="10.5048268"><ele>122.80000000000001</ele><time>2026-04-08T09:05:07.457Z</time></trkpt><trkpt lat="45.4207135" lon="10.5049828"><ele>122.19999999999999</ele><time>2026-04-08T09:05:08.457Z</time></trkpt><trkpt lat="45.420687" lon="10.5051403"><ele>121.6</ele><time>2026-04-08T09:05:09.457Z</time></trkpt><trkpt lat="45.4206603" lon="10.505299"><ele>121.0</ele><time>2026-04-08T09:05:10.458Z</time></trkpt><trkpt lat="45.420635" lon="10.5054612"><ele>121.0</ele><time>2026-04-08T09:05:11.457Z</time></trkpt><trkpt lat="45.4206059" lon="10.505633"><ele>121.0</ele><time>2026-04-08T09:05:12.457Z</time></trkpt><trkpt lat="45.4205802" lon="10.5058069"><ele>121.0</ele><time>2026-04-08T09:05:13.457Z</time></trkpt><trkpt lat="45.4205568" lon="10.5059858"><ele>121.0</ele><time>2026-04-08T09:05:14.457Z</time></trkpt><trkpt lat="45.4205367" lon="10.5061566"><ele>121.0</ele><time>2026-04-08T09:05:15.458Z</time></trkpt><trkpt lat="45.4205176" lon="10.5063172"><ele>121.0</ele><time>2026-04-08T09:05:16.457Z</time></trkpt><trkpt lat="45.4204977" lon="10.5064746"><ele>121.0</ele><time>2026-04-08T09:05:17.458Z</time></trkpt><trkpt lat="45.4204752" lon="10.5066312"><ele>121.0</ele><time>2026-04-08T09:05:18.458Z</time></trkpt><trkpt lat="45.4204575" lon="10.5067935"><ele>120.8</ele><time>2026-04-08T09:05:19.458Z</time></trkpt><trkpt lat="45.4204464" lon="10.5069632"><ele>120.6</ele><time>2026-04-08T09:05:20.457Z</time></trkpt><trkpt lat="45.4204301" lon="10.5071252"><ele>120.4</ele><time>2026-04-08T09:05:21.457Z</time></trkpt><trkpt lat="45.4204104" lon="10.5072765"><ele>120.2</ele><time>2026-04-08T09:05:22.457Z</time></trkpt><trkpt lat="45.4203988" lon="10.5074189"><ele>120.0</ele><time>2026-04-08T09:05:23.457Z</time></trkpt><trkpt lat="45.4203897" lon="10.5075458"><ele>119.83333333333333</ele><time>2026-04-08T09:05:24.457Z</time></trkpt><trkpt lat="45.4203812" lon="10.5076433"><ele>119.66666666666666</ele><time>2026-04-08T09:05:25.457Z</time></trkpt><trkpt lat="45.4203678" lon="10.5077428"><ele>119.5</ele><time>2026-04-08T09:05:27.457Z</time></trkpt><trkpt lat="45.4203835" lon="10.5078949"><ele>119.33333333333333</ele><time>2026-04-08T09:05:30.458Z</time></trkpt><trkpt lat="45.4204054" lon="10.5079795"><ele>119.16666666666666</ele><time>2026-04-08T09:05:31.458Z</time></trkpt><trkpt lat="45.4204365" lon="10.5080692"><ele>119.0</ele><time>2026-04-08T09:05:32.457Z</time></trkpt><trkpt lat="45.4204747" lon="10.5081681"><ele>119.2</ele><time>2026-04-08T09:05:33.457Z</time></trkpt><trkpt lat="45.4205118" lon="10.508284"><ele>119.4</ele><time>2026-04-08T09:05:34.457Z</time></trkpt><trkpt lat="45.4205463" lon="10.5084119"><ele>119.6</ele><time>2026-04-08T09:05:35.457Z</time></trkpt><trkpt lat="45.4205806" lon="10.5085436"><ele>119.8</ele><time>2026-04-08T09:05:36.457Z</time></trkpt><trkpt lat="45.4206156" lon="10.5086787"><ele>120.0</ele><time>2026-04-08T09:05:37.458Z</time></trkpt><trkpt lat="45.4206518" lon="10.5088175"><ele>119.16666666666667</ele><time>2026-04-08T09:05:38.458Z</time></trkpt><trkpt lat="45.4206848" lon="10.5089473"><ele>118.33333333333334</ele><time>2026-04-08T09:05:39.458Z</time></trkpt><trkpt lat="45.4207168" lon="10.5090614"><ele>117.5</ele><time>2026-04-08T09:05:40.457Z</time></trkpt><trkpt lat="45.4207475" lon="10.509172"><ele>116.66666666666667</ele><time>2026-04-08T09:05:41.458Z</time></trkpt><trkpt lat="45.4207766" lon="10.5092791"><ele>115.83333333333334</ele><time>2026-04-08T09:05:42.459Z</time></trkpt><trkpt lat="45.4208026" lon="10.5093832"><ele>115.0</ele><time>2026-04-08T09:05:43.459Z</time></trkpt><trkpt lat="45.4208319" lon="10.509489"><ele>115.50000000000001</ele><time>2026-04-08T09:05:44.459Z</time></trkpt><trkpt lat="45.4208733" lon="10.509589"><ele>116.0</ele><time>2026-04-08T09:05:45.458Z</time></trkpt><trkpt lat="45.4209271" lon="10.5096826"><ele>116.5</ele><time>2026-04-08T09:05:46.458Z</time></trkpt><trkpt lat="45.4209918" lon="10.5097588"><ele>117.0</ele><time>2026-04-08T09:05:47.458Z</time></trkpt><trkpt lat="45.4210603" lon="10.5098388"><ele>117.50000000000001</ele><time>2026-04-08T09:05:48.459Z</time></trkpt><trkpt lat="45.4211345" lon="10.5099158"><ele>118.0</ele><time>2026-04-08T09:05:49.459Z</time></trkpt><trkpt lat="45.4211996" lon="10.5099905"><ele>118.0</ele><time>2026-04-08T09:05:50.458Z</time></trkpt><trkpt lat="45.4212573" lon="10.5100569"><ele>118.0</ele><time>2026-04-08T09:05:51.458Z</time></trkpt><trkpt lat="45.4213089" lon="10.5101287"><ele>118.0</ele><time>2026-04-08T09:05:52.458Z</time></trkpt><trkpt lat="45.4213461" lon="10.5102078"><ele>118.0</ele><time>2026-04-08T09:05:53.459Z</time></trkpt><trkpt lat="45.4213684" lon="10.5103513"><ele>118.0</ele><time>2026-04-08T09:05:55.458Z</time></trkpt><trkpt lat="45.4213236" lon="10.5104149"><ele>118.0</ele><time>2026-04-08T09:05:57.458Z</time></trkpt><trkpt lat="45.4212608" lon="10.5104465"><ele>118.0</ele><time>2026-04-08T09:06:00.458Z</time></trkpt><trkpt lat="45.4211711" lon="10.5104729"><ele>118.66666666666667</ele><time>2026-04-08T09:06:03.458Z</time></trkpt><trkpt lat="45.4210533" lon="10.5105059"><ele>119.33333333333334</ele><time>2026-04-08T09:06:05.459Z</time></trkpt><trkpt lat="45.4209885" lon="10.5105322"><ele>120.0</ele><time>2026-04-08T09:06:06.459Z</time></trkpt><trkpt lat="45.4209189" lon="10.5105759"><ele>120.66666666666666</ele><time>2026-04-08T09:06:07.459Z</time></trkpt><trkpt lat="45.4208511" lon="10.5106333"><ele>121.33333333333333</ele><time>2026-04-08T09:06:08.458Z</time></trkpt><trkpt lat="45.4207827" lon="10.5106925"><ele>122.0</ele><time>2026-04-08T09:06:09.459Z</time></trkpt><trkpt lat="45.4207283" lon="10.5107859"><ele>121.99999999999999</ele><time>2026-04-08T09:06:10.459Z</time></trkpt><trkpt lat="45.4206839" lon="10.5108843"><ele>122.0</ele><time>2026-04-08T09:06:11.459Z</time></trkpt><trkpt lat="45.4206578" lon="10.5109917"><ele>122.0</ele><time>2026-04-08T09:06:12.459Z</time></trkpt><trkpt lat="45.4206423" lon="10.5111155"><ele>122.0</ele><time>2026-04-08T09:06:13.459Z</time></trkpt><trkpt lat="45.4206396" lon="10.5112496"><ele>121.99999999999999</ele><time>2026-04-08T09:06:14.458Z</time></trkpt><trkpt lat="45.4206484" lon="10.5113916"><ele>122.0</ele><time>2026-04-08T09:06:15.459Z</time></trkpt><trkpt lat="45.4206756" lon="10.5115385"><ele>121.75</ele><time>2026-04-08T09:06:16.458Z</time></trkpt><trkpt lat="45.4207379" lon="10.5116849"><ele>121.5</ele><time>2026-04-08T09:06:17.458Z</time></trkpt><trkpt lat="45.4208176" lon="10.5118101"><ele>121.25</ele><time>2026-04-08T09:06:18.459Z</time></trkpt><trkpt lat="45.4209225" lon="10.5118981"><ele>121.0</ele><time>2026-04-08T09:06:19.459Z</time></trkpt><trkpt lat="45.4210396" lon="10.5119473"><ele>121.0</ele><time>2026-04-08T09:06:20.459Z</time></trkpt><trkpt lat="45.4211658" lon="10.511958"><ele>121.0</ele><time>2026-04-08T09:06:21.458Z</time></trkpt><trkpt lat="45.4212786" lon="10.5119319"><ele>121.0</ele><time>2026-04-08T09:06:22.458Z</time></trkpt><trkpt lat="45.4213788" lon="10.5118757"><ele>121.0</ele><time>2026-04-08T09:06:23.459Z</time></trkpt><trkpt lat="45.4214665" lon="10.5118012"><ele>121.0</ele><time>2026-04-08T09:06:24.459Z</time></trkpt><trkpt lat="45.4215305" lon="10.5116998"><ele>121.0</ele><time>2026-04-08T09:06:25.459Z</time></trkpt><trkpt lat="45.4215819" lon="10.5115918"><ele>121.0</ele><time>2026-04-08T09:06:26.459Z</time></trkpt><trkpt lat="45.4216186" lon="10.5114702"><ele>121.0</ele><time>2026-04-08T09:06:27.46Z</time></trkpt><trkpt lat="45.421642" lon="10.5113475"><ele>121.0</ele><time>2026-04-08T09:06:28.459Z</time></trkpt><trkpt lat="45.4216567" lon="10.5112327"><ele>121.00000000000001</ele><time>2026-04-08T09:06:29.459Z</time></trkpt><trkpt lat="45.4216699" lon="10.5111308"><ele>121.0</ele><time>2026-04-08T09:06:30.459Z</time></trkpt><trkpt lat="45.4216947" lon="10.5110425"><ele>121.0</ele><time>2026-04-08T09:06:31.46Z</time></trkpt><trkpt lat="45.4218015" lon="10.510992"><ele>121.0</ele><time>2026-04-08T09:06:33.46Z</time></trkpt><trkpt lat="45.4218666" lon="10.5110378"><ele>121.00000000000001</ele><time>2026-04-08T09:06:34.46Z</time></trkpt><trkpt lat="45.421908" lon="10.511127"><ele>121.0</ele><time>2026-04-08T09:06:35.459Z</time></trkpt><trkpt lat="45.4219203" lon="10.5112445"><ele>121.0</ele><time>2026-04-08T09:06:36.46Z</time></trkpt><trkpt lat="45.4219208" lon="10.5113851"><ele>121.0</ele><time>2026-04-08T09:06:37.459Z</time></trkpt><trkpt lat="45.4219357" lon="10.5115344"><ele>121.0</ele><time>2026-04-08T09:06:38.459Z</time></trkpt><trkpt lat="45.4219761" lon="10.511687"><ele>121.0</ele><time>2026-04-08T09:06:39.459Z</time></trkpt><trkpt lat="45.4220416" lon="10.5118341"><ele>121.0</ele><time>2026-04-08T09:06:40.459Z</time></trkpt><trkpt lat="45.4221202" lon="10.5119788"><ele>121.25</ele><time>2026-04-08T09:06:41.459Z</time></trkpt><trkpt lat="45.4222095" lon="10.5121243"><ele>121.5</ele><time>2026-04-08T09:06:42.46Z</time></trkpt><trkpt lat="45.4223062" lon="10.5122783"><ele>121.75</ele><time>2026-04-08T09:06:43.459Z</time></trkpt><trkpt lat="45.4224123" lon="10.5124266"><ele>122.0</ele><time>2026-04-08T09:06:44.46Z</time></trkpt><trkpt lat="45.422522" lon="10.5125549"><ele>122.0</ele><time>2026-04-08T09:06:45.46Z</time></trkpt><trkpt lat="45.4226403" lon="10.5126508"><ele>122.0</ele><time>2026-04-08T09:06:46.46Z</time></trkpt><trkpt lat="45.4227647" lon="10.512718"><ele>122.0</ele><time>2026-04-08T09:06:47.459Z</time></trkpt><trkpt lat="45.4228888" lon="10.5127766"><ele>122.0</ele><time>2026-04-08T09:06:48.46Z</time></trkpt><trkpt lat="45.4229985" lon="10.5128389"><ele>121.6</ele><time>2026-04-08T09:06:49.46Z</time></trkpt><trkpt lat="45.4230996" lon="10.5129085"><ele>121.19999999999999</ele><time>2026-04-08T09:06:50.46Z</time></trkpt><trkpt lat="45.4231955" lon="10.5129827"><ele>120.8</ele><time>2026-04-08T09:06:51.46Z</time></trkpt><trkpt lat="45.4232877" lon="10.5130667"><ele>120.4</ele><time>2026-04-08T09:06:52.459Z</time></trkpt><trkpt lat="45.423384" lon="10.5131452"><ele>120.0</ele><time>2026-04-08T09:06:53.459Z</time></trkpt><trkpt lat="45.4234799" lon="10.5132283"><ele>120.0</ele><time>2026-04-08T09:06:54.46Z</time></trkpt><trkpt lat="45.4235765" lon="10.5133098"><ele>120.0</ele><time>2026-04-08T09:06:55.459Z</time></trkpt><trkpt lat="45.4236723" lon="10.5133964"><ele>120.0</ele><time>2026-04-08T09:06:56.459Z</time></trkpt><trkpt lat="45.4237687" lon="10.5134917"><ele>120.0</ele><time>2026-04-08T09:06:57.459Z</time></trkpt><trkpt lat="45.4238647" lon="10.5135893"><ele>120.0</ele><time>2026-04-08T09:06:58.46Z</time></trkpt><trkpt lat="45.4239637" lon="10.5136897"><ele>120.0</ele><time>2026-04-08T09:06:59.46Z</time></trkpt><trkpt lat="45.4240685" lon="10.5137906"><ele>120.0</ele><time>2026-04-08T09:07:00.46Z</time></trkpt><trkpt lat="45.4241782" lon="10.5138939"><ele>120.0</ele><time>2026-04-08T09:07:01.459Z</time></trkpt><trkpt lat="45.4242923" lon="10.5140002"><ele>120.0</ele><time>2026-04-08T09:07:02.459Z</time></trkpt><trkpt lat="45.4244107" lon="10.5141133"><ele>120.0</ele><time>2026-04-08T09:07:03.46Z</time></trkpt><trkpt lat="45.4245343" lon="10.5142236"><ele>120.0</ele><time>2026-04-08T09:07:04.459Z</time></trkpt><trkpt lat="45.4246612" lon="10.5143299"><ele>120.0</ele><time>2026-04-08T09:07:05.46Z</time></trkpt><trkpt lat="45.42479" lon="10.5144363"><ele>120.25</ele><time>2026-04-08T09:07:06.46Z</time></trkpt><trkpt lat="45.4249179" lon="10.5145417"><ele>120.5</ele><time>2026-04-08T09:07:07.459Z</time></trkpt><trkpt lat="45.4250487" lon="10.5146462"><ele>120.75</ele><time>2026-04-08T09:07:08.46Z</time></trkpt><trkpt lat="45.4251781" lon="10.5147472"><ele>121.0</ele><time>2026-04-08T09:07:09.46Z</time></trkpt><trkpt lat="45.4253116" lon="10.5148476"><ele>121.33333333333334</ele><time>2026-04-08T09:07:10.46Z</time></trkpt><trkpt lat="45.4254471" lon="10.5149499"><ele>121.66666666666666</ele><time>2026-04-08T09:07:11.46Z</time></trkpt><trkpt lat="45.4255848" lon="10.5150503"><ele>122.0</ele><time>2026-04-08T09:07:12.459Z</time></trkpt><trkpt lat="45.4257199" lon="10.5151453"><ele>122.0</ele><time>2026-04-08T09:07:13.46Z</time></trkpt><trkpt lat="45.4258586" lon="10.5152381"><ele>122.0</ele><time>2026-04-08T09:07:14.461Z</time></trkpt><trkpt lat="45.4259957" lon="10.5153242"><ele>122.0</ele><time>2026-04-08T09:07:15.46Z</time></trkpt><trkpt lat="45.4261257" lon="10.5153948"><ele>122.0</ele><time>2026-04-08T09:07:16.461Z</time></trkpt><trkpt lat="45.4262467" lon="10.5154614"><ele>122.25</ele><time>2026-04-08T09:07:17.46Z</time></trkpt><trkpt lat="45.4263605" lon="10.5155243"><ele>122.5</ele><time>2026-04-08T09:07:18.461Z</time></trkpt><trkpt lat="45.4264743" lon="10.5155863"><ele>122.75</ele><time>2026-04-08T09:07:19.461Z</time></trkpt><trkpt lat="45.4265841" lon="10.5156391"><ele>123.0</ele><time>2026-04-08T09:07:20.46Z</time></trkpt><trkpt lat="45.4266931" lon="10.5156788"><ele>123.0</ele><time>2026-04-08T09:07:21.461Z</time></trkpt><trkpt lat="45.4267996" lon="10.5157004"><ele>123.0</ele><time>2026-04-08T09:07:22.46Z</time></trkpt><trkpt lat="45.426897" lon="10.5157309"><ele>123.0</ele><time>2026-04-08T09:07:23.461Z</time></trkpt><trkpt lat="45.4269826" lon="10.5157729"><ele>123.0</ele><time>2026-04-08T09:07:24.46Z</time></trkpt><trkpt lat="45.427059" lon="10.5157934"><ele>123.0</ele><time>2026-04-08T09:07:25.46Z</time></trkpt><trkpt lat="45.4271251" lon="10.5157658"><ele>123.0</ele><time>2026-04-08T09:07:26.46Z</time></trkpt><trkpt lat="45.4271764" lon="10.5156869"><ele>122.80000000000001</ele><time>2026-04-08T09:07:27.46Z</time></trkpt><trkpt lat="45.4272053" lon="10.5155774"><ele>122.60000000000001</ele><time>2026-04-08T09:07:28.461Z</time></trkpt><trkpt lat="45.4271994" lon="10.5154491"><ele>122.39999999999999</ele><time>2026-04-08T09:07:29.46Z</time></trkpt><trkpt lat="45.4271712" lon="10.5153011"><ele>122.19999999999999</ele><time>2026-04-08T09:07:30.461Z</time></trkpt><trkpt lat="45.4271649" lon="10.5151523"><ele>122.0</ele><time>2026-04-08T09:07:31.46Z</time></trkpt><trkpt lat="45.4271774" lon="10.5149906"><ele>122.0</ele><time>2026-04-08T09:07:32.461Z</time></trkpt><trkpt lat="45.427208" lon="10.5148198"><ele>122.0</ele><time>2026-04-08T09:07:33.461Z</time></trkpt><trkpt lat="45.4272552" lon="10.5146456"><ele>122.0</ele><time>2026-04-08T09:07:34.461Z</time></trkpt><trkpt lat="45.4273146" lon="10.5144699"><ele>122.0</ele><time>2026-04-08T09:07:35.461Z</time></trkpt><trkpt lat="45.4273854" lon="10.5142857"><ele>122.0</ele><time>2026-04-08T09:07:36.46Z</time></trkpt><trkpt lat="45.4274622" lon="10.5140999"><ele>122.0</ele><time>2026-04-08T09:07:37.46Z</time></trkpt><trkpt lat="45.427539" lon="10.5139163"><ele>122.0</ele><time>2026-04-08T09:07:38.46Z</time></trkpt><trkpt lat="45.4276134" lon="10.5137204"><ele>121.33333333333333</ele><time>2026-04-08T09:07:39.461Z</time></trkpt><trkpt lat="45.4276841" lon="10.5135214"><ele>120.66666666666666</ele><time>2026-04-08T09:07:40.46Z</time></trkpt><trkpt lat="45.4277628" lon="10.5133206"><ele>120.0</ele><time>2026-04-08T09:07:41.46Z</time></trkpt><trkpt lat="45.427845" lon="10.513119"><ele>120.0</ele><time>2026-04-08T09:07:42.461Z</time></trkpt><trkpt lat="45.4279301" lon="10.5129135"><ele>120.0</ele><time>2026-04-08T09:07:43.46Z</time></trkpt><trkpt lat="45.4280154" lon="10.5127034"><ele>120.0</ele><time>2026-04-08T09:07:44.46Z</time></trkpt><trkpt lat="45.4280961" lon="10.5124832"><ele>120.0</ele><time>2026-04-08T09:07:45.461Z</time></trkpt><trkpt lat="45.4281894" lon="10.5122804"><ele>120.0</ele><time>2026-04-08T09:07:46.461Z</time></trkpt><trkpt lat="45.4282854" lon="10.5120718"><ele>120.0</ele><time>2026-04-08T09:07:47.461Z</time></trkpt><trkpt lat="45.4283816" lon="10.5118692"><ele>120.0</ele><time>2026-04-08T09:07:48.461Z</time></trkpt><trkpt lat="45.428476" lon="10.5116635"><ele>120.0</ele><time>2026-04-08T09:07:49.461Z</time></trkpt><trkpt lat="45.4285691" lon="10.5114606"><ele>120.0</ele><time>2026-04-08T09:07:50.461Z</time></trkpt><trkpt lat="45.4286662" lon="10.5112645"><ele>120.0</ele><time>2026-04-08T09:07:51.46Z</time></trkpt><trkpt lat="45.4287649" lon="10.5110661"><ele>120.0</ele><time>2026-04-08T09:07:52.46Z</time></trkpt><trkpt lat="45.428862" lon="10.5108655"><ele>120.0</ele><time>2026-04-08T09:07:53.513Z</time></trkpt><trkpt lat="45.4289547" lon="10.5106644"><ele>121.0</ele><time>2026-04-08T09:07:54.513Z</time></trkpt><trkpt lat="45.4290513" lon="10.5104627"><ele>122.0</ele><time>2026-04-08T09:07:55.514Z</time></trkpt><trkpt lat="45.4291461" lon="10.5102595"><ele>123.0</ele><time>2026-04-08T09:07:56.513Z</time></trkpt><trkpt lat="45.4292405" lon="10.5100577"><ele>123.33333333333334</ele><time>2026-04-08T09:07:57.513Z</time></trkpt><trkpt lat="45.429337" lon="10.5098588"><ele>123.66666666666667</ele><time>2026-04-08T09:07:58.513Z</time></trkpt><trkpt lat="45.4294331" lon="10.5096592"><ele>124.0</ele><time>2026-04-08T09:07:59.513Z</time></trkpt><trkpt lat="45.4295219" lon="10.5094683"><ele>124.25</ele><time>2026-04-08T09:08:00.514Z</time></trkpt><trkpt lat="45.4296003" lon="10.5092854"><ele>124.5</ele><time>2026-04-08T09:08:01.514Z</time></trkpt><trkpt lat="45.4296761" lon="10.5091159"><ele>124.75</ele><time>2026-04-08T09:08:02.514Z</time></trkpt><trkpt lat="45.4297517" lon="10.5089597"><ele>125.0</ele><time>2026-04-08T09:08:03.514Z</time></trkpt><trkpt lat="45.4298342" lon="10.5088134"><ele>125.75</ele><time>2026-04-08T09:08:04.513Z</time></trkpt><trkpt lat="45.4299286" lon="10.5086822"><ele>126.5</ele><time>2026-04-08T09:08:05.513Z</time></trkpt><trkpt lat="45.4300242" lon="10.5085562"><ele>127.25</ele><time>2026-04-08T09:08:06.513Z</time></trkpt><trkpt lat="45.4301282" lon="10.5084452"><ele>128.0</ele><time>2026-04-08T09:08:07.513Z</time></trkpt><trkpt lat="45.4302338" lon="10.5083538"><ele>128.0</ele><time>2026-04-08T09:08:08.514Z</time></trkpt><trkpt lat="45.4303398" lon="10.508264"><ele>128.0</ele><time>2026-04-08T09:08:09.513Z</time></trkpt><trkpt lat="45.4304468" lon="10.5081634"><ele>128.0</ele><time>2026-04-08T09:08:10.513Z</time></trkpt><trkpt lat="45.4305513" lon="10.5080423"><ele>128.0</ele><time>2026-04-08T09:08:11.513Z</time></trkpt><trkpt lat="45.4306613" lon="10.5079122"><ele>129.5</ele><time>2026-04-08T09:08:12.514Z</time></trkpt><trkpt lat="45.4307799" lon="10.5077926"><ele>131.0</ele><time>2026-04-08T09:08:13.514Z</time></trkpt><trkpt lat="45.4309093" lon="10.5076806"><ele>132.5</ele><time>2026-04-08T09:08:14.513Z</time></trkpt><trkpt lat="45.4310421" lon="10.50758"><ele>134.0</ele><time>2026-04-08T09:08:15.513Z</time></trkpt><trkpt lat="45.4311635" lon="10.5074946"><ele>134.0</ele><time>2026-04-08T09:08:16.513Z</time></trkpt><trkpt lat="45.4312804" lon="10.5074264"><ele>134.0</ele><time>2026-04-08T09:08:17.514Z</time></trkpt><trkpt lat="45.4313883" lon="10.5073687"><ele>134.0</ele><time>2026-04-08T09:08:18.513Z</time></trkpt><trkpt lat="45.4314871" lon="10.5072991"><ele>134.0</ele><time>2026-04-08T09:08:19.514Z</time></trkpt><trkpt lat="45.4315736" lon="10.5072007"><ele>134.8</ele><time>2026-04-08T09:08:20.514Z</time></trkpt><trkpt lat="45.4316528" lon="10.5070862"><ele>135.60000000000002</ele><time>2026-04-08T09:08:21.514Z</time></trkpt><trkpt lat="45.4317281" lon="10.5069766"><ele>136.4</ele><time>2026-04-08T09:08:22.513Z</time></trkpt><trkpt lat="45.4317883" lon="10.506862"><ele>137.20000000000002</ele><time>2026-04-08T09:08:23.513Z</time></trkpt><trkpt lat="45.4318398" lon="10.506758"><ele>138.0</ele><time>2026-04-08T09:08:24.513Z</time></trkpt><trkpt lat="45.4318838" lon="10.5066716"><ele>138.0</ele><time>2026-04-08T09:08:25.513Z</time></trkpt><trkpt lat="45.4319071" lon="10.5065368"><ele>138.0</ele><time>2026-04-08T09:08:27.513Z</time></trkpt><trkpt lat="45.4318323" lon="10.506444"><ele>138.0</ele><time>2026-04-08T09:08:29.513Z</time></trkpt><trkpt lat="45.4317673" lon="10.5064274"><ele>138.0</ele><time>2026-04-08T09:08:30.513Z</time></trkpt><trkpt lat="45.4316873" lon="10.5064209"><ele>138.0</ele><time>2026-04-08T09:08:31.514Z</time></trkpt><trkpt lat="45.4315945" lon="10.5064109"><ele>138.0</ele><time>2026-04-08T09:08:32.513Z</time></trkpt><trkpt lat="45.4314961" lon="10.5063968"><ele>138.0</ele><time>2026-04-08T09:08:33.513Z</time></trkpt><trkpt lat="45.4313874" lon="10.5063788"><ele>138.0</ele><time>2026-04-08T09:08:34.513Z</time></trkpt><trkpt lat="45.4312697" lon="10.5063586"><ele>138.0</ele><time>2026-04-08T09:08:35.514Z</time></trkpt><trkpt lat="45.4311511" lon="10.5063341"><ele>138.0</ele><time>2026-04-08T09:08:36.514Z</time></trkpt><trkpt lat="45.4310313" lon="10.5063145"><ele>137.25</ele><time>2026-04-08T09:08:37.513Z</time></trkpt><trkpt lat="45.4309045" lon="10.5063101"><ele>136.5</ele><time>2026-04-08T09:08:38.514Z</time></trkpt><trkpt lat="45.4307771" lon="10.5063115"><ele>135.75</ele><time>2026-04-08T09:08:39.513Z</time></trkpt><trkpt lat="45.4306447" lon="10.5063006"><ele>135.0</ele><time>2026-04-08T09:08:40.513Z</time></trkpt><trkpt lat="45.430508" lon="10.5062819"><ele>134.25</ele><time>2026-04-08T09:08:41.514Z</time></trkpt><trkpt lat="45.4303752" lon="10.5062514"><ele>133.5</ele><time>2026-04-08T09:08:42.514Z</time></trkpt><trkpt lat="45.4302458" lon="10.5062136"><ele>132.75</ele><time>2026-04-08T09:08:43.514Z</time></trkpt><trkpt lat="45.4301185" lon="10.5061537"><ele>132.0</ele><time>2026-04-08T09:08:44.513Z</time></trkpt><trkpt lat="45.4299962" lon="10.5060721"><ele>132.0</ele><time>2026-04-08T09:08:45.514Z</time></trkpt><trkpt lat="45.4298798" lon="10.5059761"><ele>132.0</ele><time>2026-04-08T09:08:46.514Z</time></trkpt><trkpt lat="45.4297636" lon="10.5058734"><ele>132.0</ele><time>2026-04-08T09:08:47.513Z</time></trkpt><trkpt lat="45.4296433" lon="10.505773"><ele>132.0</ele><time>2026-04-08T09:08:48.514Z</time></trkpt><trkpt lat="45.4295116" lon="10.5056872"><ele>132.0</ele><time>2026-04-08T09:08:49.514Z</time></trkpt><trkpt lat="45.4293715" lon="10.5056189"><ele>132.0</ele><time>2026-04-08T09:08:50.514Z</time></trkpt><trkpt lat="45.4292293" lon="10.5055562"><ele>132.0</ele><time>2026-04-08T09:08:51.513Z</time></trkpt><trkpt lat="45.4290882" lon="10.5054918"><ele>132.0</ele><time>2026-04-08T09:08:52.514Z</time></trkpt><trkpt lat="45.428943" lon="10.505426"><ele>132.66666666666666</ele><time>2026-04-08T09:08:53.514Z</time></trkpt><trkpt lat="45.4287965" lon="10.5053639"><ele>133.33333333333331</ele><time>2026-04-08T09:08:54.513Z</time></trkpt><trkpt lat="45.4286497" lon="10.5053012"><ele>134.0</ele><time>2026-04-08T09:08:55.513Z</time></trkpt><trkpt lat="45.4285006" lon="10.5052341"><ele>134.0</ele><time>2026-04-08T09:08:56.514Z</time></trkpt><trkpt lat="45.4283492" lon="10.5051625"><ele>134.0</ele><time>2026-04-08T09:08:57.514Z</time></trkpt><trkpt lat="45.428197" lon="10.5050908"><ele>134.0</ele><time>2026-04-08T09:08:58.514Z</time></trkpt><trkpt lat="45.4280462" lon="10.5050201"><ele>133.0</ele><time>2026-04-08T09:08:59.513Z</time></trkpt><trkpt lat="45.4279036" lon="10.5049526"><ele>132.0</ele><time>2026-04-08T09:09:00.513Z</time></trkpt><trkpt lat="45.4277695" lon="10.5048857"><ele>131.0</ele><time>2026-04-08T09:09:01.513Z</time></trkpt><trkpt lat="45.4276427" lon="10.5048158"><ele>130.0</ele><time>2026-04-08T09:09:02.514Z</time></trkpt><trkpt lat="45.427519" lon="10.5047597"><ele>130.0</ele><time>2026-04-08T09:09:03.513Z</time></trkpt><trkpt lat="45.427392" lon="10.5047267"><ele>130.0</ele><time>2026-04-08T09:09:04.513Z</time></trkpt><trkpt lat="45.4272589" lon="10.5047161"><ele>130.0</ele><time>2026-04-08T09:09:05.514Z</time></trkpt><trkpt lat="45.4271317" lon="10.504715"><ele>130.0</ele><time>2026-04-08T09:09:06.514Z</time></trkpt><trkpt lat="45.4270264" lon="10.5047065"><ele>129.71428571428572</ele><time>2026-04-08T09:09:07.513Z</time></trkpt><trkpt lat="45.4269506" lon="10.5046979"><ele>129.42857142857144</ele><time>2026-04-08T09:09:08.514Z</time></trkpt><trkpt lat="45.4268818" lon="10.5046893"><ele>129.14285714285714</ele><time>2026-04-08T09:09:09.514Z</time></trkpt><trkpt lat="45.4268083" lon="10.5046833"><ele>128.85714285714286</ele><time>2026-04-08T09:09:10.514Z</time></trkpt><trkpt lat="45.4267375" lon="10.5046786"><ele>128.57142857142856</ele><time>2026-04-08T09:09:11.514Z</time></trkpt><trkpt lat="45.4266676" lon="10.5046878"><ele>128.28571428571428</ele><time>2026-04-08T09:09:12.514Z</time></trkpt><trkpt lat="45.4266023" lon="10.5047173"><ele>128.0</ele><time>2026-04-08T09:09:13.514Z</time></trkpt><trkpt lat="45.4265424" lon="10.5047465"><ele>128.0</ele><time>2026-04-08T09:09:14.513Z</time></trkpt><trkpt lat="45.4264805" lon="10.5047668"><ele>128.0</ele><time>2026-04-08T09:09:15.514Z</time></trkpt><trkpt lat="45.4263634" lon="10.5047982"><ele>128.0</ele><time>2026-04-08T09:09:17.513Z</time></trkpt><trkpt lat="45.426264" lon="10.5048489"><ele>128.0</ele><time>2026-04-08T09:09:19.514Z</time></trkpt><trkpt lat="45.4261735" lon="10.5048982"><ele>128.0</ele><time>2026-04-08T09:09:21.514Z</time></trkpt><trkpt lat="45.426084" lon="10.5049192"><ele>128.16666666666666</ele><time>2026-04-08T09:09:23.513Z</time></trkpt><trkpt lat="45.426021" lon="10.5049419"><ele>128.33333333333331</ele><time>2026-04-08T09:09:25.513Z</time></trkpt><trkpt lat="45.4259736" lon="10.5048713"><ele>128.5</ele><time>2026-04-08T09:09:29.513Z</time></trkpt><trkpt lat="45.4259122" lon="10.5049845"><ele>128.66666666666666</ele><time>2026-04-08T09:15:23.521Z</time></trkpt><trkpt lat="45.4257959" lon="10.5050085"><ele>128.83333333333334</ele><time>2026-04-08T09:15:25.521Z</time></trkpt><trkpt lat="45.4257328" lon="10.5050207"><ele>129.0</ele><time>2026-04-08T09:15:26.522Z</time></trkpt><trkpt lat="45.4256683" lon="10.5050321"><ele>129.0</ele><time>2026-04-08T09:15:27.521Z</time></trkpt><trkpt lat="45.4256016" lon="10.5050405"><ele>129.0</ele><time>2026-04-08T09:15:28.521Z</time></trkpt><trkpt lat="45.4255299" lon="10.5050558"><ele>129.0</ele><time>2026-04-08T09:15:29.521Z</time></trkpt><trkpt lat="45.4254535" lon="10.5050491"><ele>129.0</ele><time>2026-04-08T09:15:30.521Z</time></trkpt><trkpt lat="45.4253658" lon="10.5050223"><ele>129.0</ele><time>2026-04-08T09:15:31.521Z</time></trkpt><trkpt lat="45.4252746" lon="10.504998"><ele>129.0</ele><time>2026-04-08T09:15:32.521Z</time></trkpt><trkpt lat="45.425179" lon="10.5049838"><ele>129.0</ele><time>2026-04-08T09:15:33.521Z</time></trkpt><trkpt lat="45.4250748" lon="10.5049653"><ele>129.0</ele><time>2026-04-08T09:15:34.521Z</time></trkpt><trkpt lat="45.42497" lon="10.5049586"><ele>129.0</ele><time>2026-04-08T09:15:35.521Z</time></trkpt><trkpt lat="45.4248689" lon="10.5049588"><ele>129.0</ele><time>2026-04-08T09:15:36.522Z</time></trkpt><trkpt lat="45.4247692" lon="10.5049636"><ele>129.0</ele><time>2026-04-08T09:15:37.521Z</time></trkpt><trkpt lat="45.4246722" lon="10.5049603"><ele>129.0</ele><time>2026-04-08T09:15:38.522Z</time></trkpt><trkpt lat="45.4245785" lon="10.5049486"><ele>129.0</ele><time>2026-04-08T09:15:39.521Z</time></trkpt><trkpt lat="45.4244835" lon="10.5049293"><ele>129.0</ele><time>2026-04-08T09:15:40.521Z</time></trkpt><trkpt lat="45.4243846" lon="10.5049119"><ele>129.0</ele><time>2026-04-08T09:15:41.522Z</time></trkpt><trkpt lat="45.4242751" lon="10.504896"><ele>129.0</ele><time>2026-04-08T09:15:42.522Z</time></trkpt><trkpt lat="45.4241696" lon="10.5048799"><ele>129.0</ele><time>2026-04-08T09:15:43.521Z</time></trkpt><trkpt lat="45.4240677" lon="10.504851"><ele>129.0</ele><time>2026-04-08T09:15:44.521Z</time></trkpt><trkpt lat="45.4239682" lon="10.504829"><ele>129.0</ele><time>2026-04-08T09:15:45.521Z</time></trkpt><trkpt lat="45.4238745" lon="10.5047833"><ele>129.0</ele><time>2026-04-08T09:15:46.522Z</time></trkpt><trkpt lat="45.4237799" lon="10.5047206"><ele>129.0</ele><time>2026-04-08T09:15:47.522Z</time></trkpt><trkpt lat="45.4236883" lon="10.5046547"><ele>128.5</ele><time>2026-04-08T09:15:48.521Z</time></trkpt><trkpt lat="45.4235927" lon="10.5045743"><ele>128.0</ele><time>2026-04-08T09:15:49.521Z</time></trkpt><trkpt lat="45.4234958" lon="10.5044829"><ele>127.5</ele><time>2026-04-08T09:15:50.522Z</time></trkpt><trkpt lat="45.4233942" lon="10.5043932"><ele>127.0</ele><time>2026-04-08T09:15:51.521Z</time></trkpt><trkpt lat="45.4232942" lon="10.5042947"><ele>127.0</ele><time>2026-04-08T09:15:52.521Z</time></trkpt><trkpt lat="45.4231876" lon="10.5042014"><ele>127.0</ele><time>2026-04-08T09:15:53.521Z</time></trkpt><trkpt lat="45.4230803" lon="10.5041307"><ele>127.0</ele><time>2026-04-08T09:15:54.522Z</time></trkpt><trkpt lat="45.4229735" lon="10.5040711"><ele>127.0</ele><time>2026-04-08T09:15:55.522Z</time></trkpt><trkpt lat="45.4228758" lon="10.504022"><ele>126.33333333333334</ele><time>2026-04-08T09:15:56.522Z</time></trkpt><trkpt lat="45.4227761" lon="10.5039658"><ele>125.66666666666667</ele><time>2026-04-08T09:15:57.522Z</time></trkpt><trkpt lat="45.4226798" lon="10.5039077"><ele>125.0</ele><time>2026-04-08T09:15:58.522Z</time></trkpt><trkpt lat="45.4225983" lon="10.5038636"><ele>124.33333333333334</ele><time>2026-04-08T09:15:59.521Z</time></trkpt><trkpt lat="45.4225296" lon="10.5038328"><ele>123.66666666666667</ele><time>2026-04-08T09:16:00.521Z</time></trkpt><trkpt lat="45.4224643" lon="10.5037996"><ele>123.0</ele><time>2026-04-08T09:16:01.522Z</time></trkpt><trkpt lat="45.4224009" lon="10.5037657"><ele>123.16666666666667</ele><time>2026-04-08T09:16:02.522Z</time></trkpt><trkpt lat="45.4223336" lon="10.5037317"><ele>123.33333333333334</ele><time>2026-04-08T09:16:03.521Z</time></trkpt><trkpt lat="45.422258" lon="10.5037035"><ele>123.5</ele><time>2026-04-08T09:16:04.522Z</time></trkpt><trkpt lat="45.4221719" lon="10.5036683"><ele>123.66666666666667</ele><time>2026-04-08T09:16:05.521Z</time></trkpt><trkpt lat="45.422082" lon="10.503627"><ele>123.83333333333334</ele><time>2026-04-08T09:16:06.521Z</time></trkpt><trkpt lat="45.4219843" lon="10.5035924"><ele>124.0</ele><time>2026-04-08T09:16:07.522Z</time></trkpt><trkpt lat="45.421889" lon="10.5035603"><ele>124.0</ele><time>2026-04-08T09:16:08.521Z</time></trkpt><trkpt lat="45.4217971" lon="10.5035175"><ele>124.0</ele><time>2026-04-08T09:16:09.522Z</time></trkpt><trkpt lat="45.4217152" lon="10.5034448"><ele>124.0</ele><time>2026-04-08T09:16:10.521Z</time></trkpt><trkpt lat="45.4216335" lon="10.5033463"><ele>124.0</ele><time>2026-04-08T09:16:11.521Z</time></trkpt><trkpt lat="45.4215578" lon="10.5032507"><ele>124.0</ele><time>2026-04-08T09:16:12.521Z</time></trkpt><trkpt lat="45.4214837" lon="10.5031699"><ele>124.00000000000001</ele><time>2026-04-08T09:16:13.522Z</time></trkpt><trkpt lat="45.4214148" lon="10.5031039"><ele>124.0</ele><time>2026-04-08T09:16:14.522Z</time></trkpt><trkpt lat="45.4213522" lon="10.5030829"><ele>124.0</ele><time>2026-04-08T09:16:15.521Z</time></trkpt><trkpt lat="45.4212533" lon="10.5031935"><ele>124.0</ele><time>2026-04-08T09:16:17.521Z</time></trkpt><trkpt lat="45.4212209" lon="10.5032979"><ele>124.00000000000001</ele><time>2026-04-08T09:16:18.522Z</time></trkpt><trkpt lat="45.4211837" lon="10.5034186"><ele>124.0</ele><time>2026-04-08T09:16:19.521Z</time></trkpt><trkpt lat="45.421146" lon="10.5035496"><ele>124.0</ele><time>2026-04-08T09:16:20.522Z</time></trkpt><trkpt lat="45.4211081" lon="10.5037015"><ele>124.0</ele><time>2026-04-08T09:16:21.521Z</time></trkpt><trkpt lat="45.4210491" lon="10.503858"><ele>124.0</ele><time>2026-04-08T09:16:22.521Z</time></trkpt><trkpt lat="45.4209733" lon="10.5039949"><ele>124.0</ele><time>2026-04-08T09:16:23.522Z</time></trkpt><trkpt lat="45.4209023" lon="10.5041251"><ele>124.0</ele><time>2026-04-08T09:16:24.522Z</time></trkpt><trkpt lat="45.4208412" lon="10.504247"><ele>124.0</ele><time>2026-04-08T09:16:25.521Z</time></trkpt><trkpt lat="45.4207892" lon="10.5043705"><ele>124.0</ele><time>2026-04-08T09:16:26.521Z</time></trkpt><trkpt lat="45.4207524" lon="10.5045142"><ele>124.0</ele><time>2026-04-08T09:16:27.522Z</time></trkpt><trkpt lat="45.4207457" lon="10.5046765"><ele>124.0</ele><time>2026-04-08T09:16:28.521Z</time></trkpt><trkpt lat="45.4207344" lon="10.504841"><ele>123.25</ele><time>2026-04-08T09:16:29.521Z</time></trkpt><trkpt lat="45.4207151" lon="10.5050134"><ele>122.5</ele><time>2026-04-08T09:16:30.522Z</time></trkpt><trkpt lat="45.4206884" lon="10.5051881"><ele>121.75</ele><time>2026-04-08T09:16:31.522Z</time></trkpt><trkpt lat="45.4206583" lon="10.5053626"><ele>121.0</ele><time>2026-04-08T09:16:32.521Z</time></trkpt><trkpt lat="45.420626" lon="10.5055477"><ele>121.0</ele><time>2026-04-08T09:16:33.521Z</time></trkpt><trkpt lat="45.4205985" lon="10.5057434"><ele>121.0</ele><time>2026-04-08T09:16:34.521Z</time></trkpt><trkpt lat="45.4205685" lon="10.5059247"><ele>121.0</ele><time>2026-04-08T09:16:35.471Z</time></trkpt><trkpt lat="45.4205408" lon="10.5061239"><ele>121.0</ele><time>2026-04-08T09:16:36.472Z</time></trkpt><trkpt lat="45.4205115" lon="10.5063228"><ele>121.0</ele><time>2026-04-08T09:16:37.471Z</time></trkpt><trkpt lat="45.4204849" lon="10.5065274"><ele>121.0</ele><time>2026-04-08T09:16:38.471Z</time></trkpt><trkpt lat="45.4204664" lon="10.5067224"><ele>121.0</ele><time>2026-04-08T09:16:39.472Z</time></trkpt><trkpt lat="45.4204524" lon="10.5069142"><ele>121.0</ele><time>2026-04-08T09:16:40.472Z</time></trkpt><trkpt lat="45.4204346" lon="10.5070816"><ele>120.66666666666667</ele><time>2026-04-08T09:16:41.471Z</time></trkpt><trkpt lat="45.420422" lon="10.5072309"><ele>120.33333333333334</ele><time>2026-04-08T09:16:42.471Z</time></trkpt><trkpt lat="45.4204084" lon="10.5073678"><ele>120.0</ele><time>2026-04-08T09:16:43.471Z</time></trkpt><trkpt lat="45.4203973" lon="10.5074936"><ele>119.66666666666666</ele><time>2026-04-08T09:16:44.471Z</time></trkpt><trkpt lat="45.4203889" lon="10.5076076"><ele>119.33333333333333</ele><time>2026-04-08T09:16:45.471Z</time></trkpt><trkpt lat="45.420383" lon="10.5077032"><ele>119.0</ele><time>2026-04-08T09:16:46.472Z</time></trkpt><trkpt lat="45.4203893" lon="10.5078451"><ele>118.80000000000001</ele><time>2026-04-08T09:16:48.472Z</time></trkpt><trkpt lat="45.4204146" lon="10.5079359"><ele>118.60000000000001</ele><time>2026-04-08T09:16:49.471Z</time></trkpt><trkpt lat="45.4204438" lon="10.5080343"><ele>118.4</ele><time>2026-04-08T09:16:50.472Z</time></trkpt><trkpt lat="45.4204827" lon="10.5081511"><ele>118.2</ele><time>2026-04-08T09:16:51.472Z</time></trkpt><trkpt lat="45.4205216" lon="10.5082901"><ele>118.0</ele><time>2026-04-08T09:16:52.472Z</time></trkpt><trkpt lat="45.420561" lon="10.5084446"><ele>118.5</ele><time>2026-04-08T09:16:53.472Z</time></trkpt><trkpt lat="45.4206039" lon="10.5086059"><ele>119.0</ele><time>2026-04-08T09:16:54.472Z</time></trkpt><trkpt lat="45.4206489" lon="10.5087803"><ele>119.5</ele><time>2026-04-08T09:16:55.471Z</time></trkpt><trkpt lat="45.4206925" lon="10.5089588"><ele>120.0</ele><time>2026-04-08T09:16:56.471Z</time></trkpt><trkpt lat="45.4207427" lon="10.5091382"><ele>119.5</ele><time>2026-04-08T09:16:57.473Z</time></trkpt><trkpt lat="45.4207922" lon="10.5093207"><ele>119.0</ele><time>2026-04-08T09:16:58.473Z</time></trkpt><trkpt lat="45.4208455" lon="10.5094962"><ele>118.5</ele><time>2026-04-08T09:16:59.472Z</time></trkpt><trkpt lat="45.4209159" lon="10.5096562"><ele>118.0</ele><time>2026-04-08T09:17:00.472Z</time></trkpt><trkpt lat="45.4210198" lon="10.5097953"><ele>118.0</ele><time>2026-04-08T09:17:01.473Z</time></trkpt><trkpt lat="45.4211229" lon="10.5099031"><ele>118.00000000000001</ele><time>2026-04-08T09:17:02.473Z</time></trkpt><trkpt lat="45.4212164" lon="10.5100003"><ele>118.00000000000001</ele><time>2026-04-08T09:17:03.472Z</time></trkpt><trkpt lat="45.4212935" lon="10.5101018"><ele>118.0</ele><time>2026-04-08T09:17:04.473Z</time></trkpt><trkpt lat="45.4213429" lon="10.5102017"><ele>118.0</ele><time>2026-04-08T09:17:05.472Z</time></trkpt><trkpt lat="45.4213541" lon="10.5103043"><ele>118.66666666666667</ele><time>2026-04-08T09:17:06.472Z</time></trkpt><trkpt lat="45.4213044" lon="10.5104313"><ele>119.33333333333334</ele><time>2026-04-08T09:17:08.472Z</time></trkpt><trkpt lat="45.4212141" lon="10.5104805"><ele>120.0</ele><time>2026-04-08T09:17:10.473Z</time></trkpt><trkpt lat="45.4211507" lon="10.5104784"><ele>120.66666666666666</ele><time>2026-04-08T09:17:11.472Z</time></trkpt><trkpt lat="45.4210756" lon="10.5104895"><ele>121.33333333333333</ele><time>2026-04-08T09:17:12.473Z</time></trkpt><trkpt lat="45.4209966" lon="10.5105165"><ele>122.0</ele><time>2026-04-08T09:17:13.472Z</time></trkpt><trkpt lat="45.4209183" lon="10.5105663"><ele>121.99999999999999</ele><time>2026-04-08T09:17:14.472Z</time></trkpt><trkpt lat="45.42084" lon="10.5106342"><ele>122.0</ele><time>2026-04-08T09:17:15.472Z</time></trkpt><trkpt lat="45.4207637" lon="10.510686"><ele>122.0</ele><time>2026-04-08T09:17:16.472Z</time></trkpt><trkpt lat="45.4207059" lon="10.5107656"><ele>122.0</ele><time>2026-04-08T09:17:17.473Z</time></trkpt><trkpt lat="45.4206684" lon="10.5108659"><ele>121.99999999999999</ele><time>2026-04-08T09:17:18.473Z</time></trkpt><trkpt lat="45.4206383" lon="10.5109887"><ele>122.0</ele><time>2026-04-08T09:17:19.473Z</time></trkpt><trkpt lat="45.4206145" lon="10.5111279"><ele>121.8</ele><time>2026-04-08T09:17:20.472Z</time></trkpt><trkpt lat="45.4206114" lon="10.5112771"><ele>121.6</ele><time>2026-04-08T09:17:21.472Z</time></trkpt><trkpt lat="45.4206264" lon="10.5114234"><ele>121.39999999999999</ele><time>2026-04-08T09:17:22.472Z</time></trkpt><trkpt lat="45.4206554" lon="10.5115559"><ele>121.19999999999999</ele><time>2026-04-08T09:17:23.473Z</time></trkpt><trkpt lat="45.4207005" lon="10.5116733"><ele>121.0</ele><time>2026-04-08T09:17:24.473Z</time></trkpt><trkpt lat="45.4207547" lon="10.5117728"><ele>121.0</ele><time>2026-04-08T09:17:25.473Z</time></trkpt><trkpt lat="45.420808" lon="10.5118677"><ele>121.0</ele><time>2026-04-08T09:17:26.472Z</time></trkpt><trkpt lat="45.420844" lon="10.5119681"><ele>121.0</ele><time>2026-04-08T09:17:27.472Z</time></trkpt><trkpt lat="45.420857" lon="10.5120644"><ele>121.0</ele><time>2026-04-08T09:17:28.473Z</time></trkpt><trkpt lat="45.4208256" lon="10.5122178"><ele>121.0</ele><time>2026-04-08T09:17:30.472Z</time></trkpt><trkpt lat="45.4207125" lon="10.5122587"><ele>121.0</ele><time>2026-04-08T09:17:32.472Z</time></trkpt><trkpt lat="45.4206455" lon="10.5122668"><ele>121.0</ele><time>2026-04-08T09:17:33.473Z</time></trkpt><trkpt lat="45.4205639" lon="10.5123011"><ele>121.0</ele><time>2026-04-08T09:17:34.473Z</time></trkpt><trkpt lat="45.4204716" lon="10.512341"><ele>121.0</ele><time>2026-04-08T09:17:35.472Z</time></trkpt><trkpt lat="45.4203724" lon="10.5123814"><ele>121.0</ele><time>2026-04-08T09:17:36.472Z</time></trkpt><trkpt lat="45.4202677" lon="10.512431"><ele>121.0</ele><time>2026-04-08T09:17:37.473Z</time></trkpt><trkpt lat="45.4201533" lon="10.5124934"><ele>121.0</ele><time>2026-04-08T09:17:38.472Z</time></trkpt><trkpt lat="45.4200259" lon="10.512553"><ele>121.0</ele><time>2026-04-08T09:17:39.473Z</time></trkpt><trkpt lat="45.4198922" lon="10.5126044"><ele>121.0</ele><time>2026-04-08T09:17:40.473Z</time></trkpt><trkpt lat="45.4197523" lon="10.5126542"><ele>121.33333333333334</ele><time>2026-04-08T09:17:41.472Z</time></trkpt><trkpt lat="45.4196034" lon="10.5126928"><ele>121.66666666666666</ele><time>2026-04-08T09:17:42.472Z</time></trkpt><trkpt lat="45.4194532" lon="10.5127174"><ele>122.0</ele><time>2026-04-08T09:17:43.472Z</time></trkpt><trkpt lat="45.4192977" lon="10.5127337"><ele>122.0</ele><time>2026-04-08T09:17:44.474Z</time></trkpt><trkpt lat="45.4191384" lon="10.5127452"><ele>122.0</ele><time>2026-04-08T09:17:45.473Z</time></trkpt><trkpt lat="45.4189745" lon="10.5127545"><ele>122.0</ele><time>2026-04-08T09:17:46.473Z</time></trkpt><trkpt lat="45.4188119" lon="10.5127695"><ele>120.33333333333333</ele><time>2026-04-08T09:17:47.473Z</time></trkpt><trkpt lat="45.4186469" lon="10.5127898"><ele>118.66666666666666</ele><time>2026-04-08T09:17:48.474Z</time></trkpt><trkpt lat="45.4184789" lon="10.5128049"><ele>117.0</ele><time>2026-04-08T09:17:49.473Z</time></trkpt><trkpt lat="45.4183091" lon="10.512821"><ele>117.0</ele><time>2026-04-08T09:17:50.473Z</time></trkpt><trkpt lat="45.4181367" lon="10.5128292"><ele>117.0</ele><time>2026-04-08T09:17:51.473Z</time></trkpt><trkpt lat="45.4179639" lon="10.5128421"><ele>117.0</ele><time>2026-04-08T09:17:52.473Z</time></trkpt><trkpt lat="45.4177917" lon="10.5128601"><ele>116.33333333333334</ele><time>2026-04-08T09:17:53.473Z</time></trkpt><trkpt lat="45.4176217" lon="10.5128723"><ele>115.66666666666667</ele><time>2026-04-08T09:17:54.474Z</time></trkpt><trkpt lat="45.4174524" lon="10.5128845"><ele>115.0</ele><time>2026-04-08T09:17:55.473Z</time></trkpt><trkpt lat="45.4172917" lon="10.5129006"><ele>114.75</ele><time>2026-04-08T09:17:56.473Z</time></trkpt><trkpt lat="45.4171389" lon="10.512914"><ele>114.5</ele><time>2026-04-08T09:17:57.474Z</time></trkpt><trkpt lat="45.4169906" lon="10.5129191"><ele>114.25</ele><time>2026-04-08T09:17:58.474Z</time></trkpt><trkpt lat="45.4168482" lon="10.5129265"><ele>114.0</ele><time>2026-04-08T09:17:59.473Z</time></trkpt><trkpt lat="45.4167047" lon="10.5129317"><ele>114.0</ele><time>2026-04-08T09:18:00.474Z</time></trkpt><trkpt lat="45.4165598" lon="10.5129477"><ele>114.0</ele><time>2026-04-08T09:18:01.473Z</time></trkpt><trkpt lat="45.4164175" lon="10.5129661"><ele>114.0</ele><time>2026-04-08T09:18:02.474Z</time></trkpt><trkpt lat="45.4162721" lon="10.5129763"><ele>114.0</ele><time>2026-04-08T09:18:03.474Z</time></trkpt><trkpt lat="45.4161252" lon="10.512986"><ele>114.5</ele><time>2026-04-08T09:18:04.473Z</time></trkpt><trkpt lat="45.4159799" lon="10.5129977"><ele>115.0</ele><time>2026-04-08T09:18:05.474Z</time></trkpt><trkpt lat="45.4158323" lon="10.5130102"><ele>115.5</ele><time>2026-04-08T09:18:06.473Z</time></trkpt><trkpt lat="45.415685" lon="10.5130081"><ele>116.0</ele><time>2026-04-08T09:18:07.474Z</time></trkpt><trkpt lat="45.4155486" lon="10.5129889"><ele>116.19999999999999</ele><time>2026-04-08T09:18:08.474Z</time></trkpt><trkpt lat="45.4154197" lon="10.5129672"><ele>116.39999999999999</ele><time>2026-04-08T09:18:09.473Z</time></trkpt><trkpt lat="45.4153054" lon="10.5129405"><ele>116.6</ele><time>2026-04-08T09:18:10.473Z</time></trkpt><trkpt lat="45.4152065" lon="10.5129122"><ele>116.8</ele><time>2026-04-08T09:18:11.474Z</time></trkpt><trkpt lat="45.4151279" lon="10.5128887"><ele>117.0</ele><time>2026-04-08T09:18:12.474Z</time></trkpt><trkpt lat="45.4150543" lon="10.5128871"><ele>117.0</ele><time>2026-04-08T09:18:14.473Z</time></trkpt><trkpt lat="45.4149887" lon="10.5129819"><ele>117.0</ele><time>2026-04-08T09:18:17.474Z</time></trkpt><trkpt lat="45.4149756" lon="10.5131455"><ele>117.0</ele><time>2026-04-08T09:18:19.474Z</time></trkpt><trkpt lat="45.4149692" lon="10.5132574"><ele>117.0</ele><time>2026-04-08T09:18:20.474Z</time></trkpt><trkpt lat="45.4149646" lon="10.513374"><ele>117.0</ele><time>2026-04-08T09:18:21.474Z</time></trkpt><trkpt lat="45.4149598" lon="10.5134847"><ele>117.0</ele><time>2026-04-08T09:18:22.474Z</time></trkpt><trkpt lat="45.4149617" lon="10.5135864"><ele>117.0</ele><time>2026-04-08T09:18:23.474Z</time></trkpt><trkpt lat="45.4149692" lon="10.5136897"><ele>116.99999999999999</ele><time>2026-04-08T09:18:24.474Z</time></trkpt><trkpt lat="45.4149686" lon="10.5137796"><ele>116.99999999999999</ele><time>2026-04-08T09:18:25.473Z</time></trkpt><trkpt lat="45.4149395" lon="10.51392"><ele>117.0</ele><time>2026-04-08T09:18:27.474Z</time></trkpt><trkpt lat="45.4148427" lon="10.5140175"><ele>117.0</ele><time>2026-04-08T09:18:29.474Z</time></trkpt><trkpt lat="45.414739" lon="10.5140094"><ele>116.8</ele><time>2026-04-08T09:18:31.474Z</time></trkpt><trkpt lat="45.4146196" lon="10.5140101"><ele>116.6</ele><time>2026-04-08T09:18:33.474Z</time></trkpt><trkpt lat="45.4145417" lon="10.5140154"><ele>116.39999999999999</ele><time>2026-04-08T09:18:34.474Z</time></trkpt><trkpt lat="45.4144449" lon="10.5140231"><ele>116.19999999999999</ele><time>2026-04-08T09:18:35.475Z</time></trkpt><trkpt lat="45.4143481" lon="10.5140299"><ele>116.0</ele><time>2026-04-08T09:18:36.475Z</time></trkpt><trkpt lat="45.4142577" lon="10.5140584"><ele>116.0</ele><time>2026-04-08T09:18:37.474Z</time></trkpt><trkpt lat="45.4141699" lon="10.5141002"><ele>116.0</ele><time>2026-04-08T09:18:38.474Z</time></trkpt><trkpt lat="45.4140844" lon="10.5141614"><ele>116.0</ele><time>2026-04-08T09:18:39.475Z</time></trkpt><trkpt lat="45.4140035" lon="10.5142261"><ele>116.0</ele><time>2026-04-08T09:18:40.474Z</time></trkpt><trkpt lat="45.4139113" lon="10.514262"><ele>116.0</ele><time>2026-04-08T09:18:41.474Z</time></trkpt><trkpt lat="45.4138181" lon="10.5142857"><ele>116.00000000000001</ele><time>2026-04-08T09:18:42.475Z</time></trkpt><trkpt lat="45.4137378" lon="10.5143054"><ele>116.0</ele><time>2026-04-08T09:18:43.475Z</time></trkpt><trkpt lat="45.4136608" lon="10.5143332"><ele>116.00000000000001</ele><time>2026-04-08T09:18:44.475Z</time></trkpt><trkpt lat="45.4135946" lon="10.5143674"><ele>116.00000000000001</ele><time>2026-04-08T09:18:45.474Z</time></trkpt><trkpt lat="45.413532" lon="10.5144147"><ele>116.0</ele><time>2026-04-08T09:18:46.474Z</time></trkpt><trkpt lat="45.4134816" lon="10.5144781"><ele>116.00000000000001</ele><time>2026-04-08T09:18:47.474Z</time></trkpt><trkpt lat="45.4134429" lon="10.5145608"><ele>116.00000000000001</ele><time>2026-04-08T09:18:48.474Z</time></trkpt><trkpt lat="45.4134057" lon="10.514656"><ele>116.0</ele><time>2026-04-08T09:18:49.474Z</time></trkpt><trkpt lat="45.4133831" lon="10.5147775"><ele>116.0</ele><time>2026-04-08T09:18:50.475Z</time></trkpt><trkpt lat="45.4133535" lon="10.5149025"><ele>116.0</ele><time>2026-04-08T09:18:51.474Z</time></trkpt><trkpt lat="45.4133229" lon="10.5150354"><ele>116.0</ele><time>2026-04-08T09:18:52.474Z</time></trkpt><trkpt lat="45.4132911" lon="10.515172"><ele>116.0</ele><time>2026-04-08T09:18:53.474Z</time></trkpt><trkpt lat="45.4132559" lon="10.5153182"><ele>116.0</ele><time>2026-04-08T09:18:54.474Z</time></trkpt><trkpt lat="45.4132227" lon="10.5154508"><ele>116.0</ele><time>2026-04-08T09:18:55.475Z</time></trkpt><trkpt lat="45.4131861" lon="10.5155855"><ele>116.0</ele><time>2026-04-08T09:18:56.474Z</time></trkpt><trkpt lat="45.4131453" lon="10.5157239"><ele>116.0</ele><time>2026-04-08T09:18:57.474Z</time></trkpt><trkpt lat="45.4131023" lon="10.5158583"><ele>116.0</ele><time>2026-04-08T09:18:58.474Z</time></trkpt><trkpt lat="45.4130573" lon="10.5159863"><ele>116.0</ele><time>2026-04-08T09:18:59.474Z</time></trkpt><trkpt lat="45.4130112" lon="10.516104"><ele>116.0</ele><time>2026-04-08T09:19:00.474Z</time></trkpt><trkpt lat="45.4129681" lon="10.5162256"><ele>116.0</ele><time>2026-04-08T09:19:01.475Z</time></trkpt><trkpt lat="45.4129234" lon="10.5163495"><ele>116.0</ele><time>2026-04-08T09:19:02.475Z</time></trkpt><trkpt lat="45.4128757" lon="10.5164771"><ele>116.0</ele><time>2026-04-08T09:19:03.475Z</time></trkpt><trkpt lat="45.4128281" lon="10.5166126"><ele>115.6</ele><time>2026-04-08T09:19:04.475Z</time></trkpt><trkpt lat="45.412784" lon="10.5167515"><ele>115.19999999999999</ele><time>2026-04-08T09:19:05.474Z</time></trkpt><trkpt lat="45.4127418" lon="10.5168859"><ele>114.80000000000001</ele><time>2026-04-08T09:19:06.474Z</time></trkpt><trkpt lat="45.4126966" lon="10.5170229"><ele>114.4</ele><time>2026-04-08T09:19:07.474Z</time></trkpt><trkpt lat="45.4126544" lon="10.5171562"><ele>114.0</ele><time>2026-04-08T09:19:08.475Z</time></trkpt><trkpt lat="45.4126131" lon="10.5172818"><ele>114.0</ele><time>2026-04-08T09:19:09.474Z</time></trkpt><trkpt lat="45.4125642" lon="10.5173931"><ele>114.0</ele><time>2026-04-08T09:19:10.474Z</time></trkpt><trkpt lat="45.4125099" lon="10.5174983"><ele>114.0</ele><time>2026-04-08T09:19:11.475Z</time></trkpt><trkpt lat="45.4124434" lon="10.5175965"><ele>114.0</ele><time>2026-04-08T09:19:12.475Z</time></trkpt><trkpt lat="45.412374" lon="10.5176903"><ele>114.0</ele><time>2026-04-08T09:19:13.475Z</time></trkpt><trkpt lat="45.4122986" lon="10.5177804"><ele>114.0</ele><time>2026-04-08T09:19:14.475Z</time></trkpt><trkpt lat="45.4122272" lon="10.5178718"><ele>114.0</ele><time>2026-04-08T09:19:15.474Z</time></trkpt><trkpt lat="45.4121542" lon="10.5179565"><ele>114.0</ele><time>2026-04-08T09:19:16.475Z</time></trkpt><trkpt lat="45.4120831" lon="10.5180329"><ele>114.0</ele><time>2026-04-08T09:19:17.474Z</time></trkpt><trkpt lat="45.412014" lon="10.51812"><ele>114.0</ele><time>2026-04-08T09:19:18.476Z</time></trkpt><trkpt lat="45.4119442" lon="10.518228"><ele>115.0</ele><time>2026-04-08T09:19:19.475Z</time></trkpt><trkpt lat="45.4118731" lon="10.5183502"><ele>116.0</ele><time>2026-04-08T09:19:20.475Z</time></trkpt><trkpt lat="45.4118073" lon="10.5184738"><ele>117.0</ele><time>2026-04-08T09:19:21.475Z</time></trkpt><trkpt lat="45.41175" lon="10.5185869"><ele>118.0</ele><time>2026-04-08T09:19:22.475Z</time></trkpt><trkpt lat="45.4116969" lon="10.5186966"><ele>119.0</ele><time>2026-04-08T09:19:23.475Z</time></trkpt><trkpt lat="45.4116432" lon="10.5187901"><ele>118.99999999999999</ele><time>2026-04-08T09:19:24.476Z</time></trkpt><trkpt lat="45.4115933" lon="10.5188856"><ele>119.0</ele><time>2026-04-08T09:19:25.476Z</time></trkpt><trkpt lat="45.4115413" lon="10.5189781"><ele>119.0</ele><time>2026-04-08T09:19:26.475Z</time></trkpt><trkpt lat="45.4114925" lon="10.5190641"><ele>119.0</ele><time>2026-04-08T09:19:27.475Z</time></trkpt><trkpt lat="45.4114496" lon="10.5191327"><ele>118.99999999999999</ele><time>2026-04-08T09:19:28.476Z</time></trkpt><trkpt lat="45.411402" lon="10.5192566"><ele>119.0</ele><time>2026-04-08T09:19:30.475Z</time></trkpt><trkpt lat="45.411408" lon="10.519372"><ele>119.0</ele><time>2026-04-08T09:19:32.475Z</time></trkpt><trkpt lat="45.4114629" lon="10.5194839"><ele>119.0</ele><time>2026-04-08T09:19:34.475Z</time></trkpt><trkpt lat="45.4115389" lon="10.5195943"><ele>119.0</ele><time>2026-04-08T09:19:36.476Z</time></trkpt><trkpt lat="45.4115856" lon="10.5197471"><ele>119.0</ele><time>2026-04-08T09:19:38.475Z</time></trkpt><trkpt lat="45.4115981" lon="10.5198467"><ele>119.0</ele><time>2026-04-08T09:19:39.475Z</time></trkpt><trkpt lat="45.4116021" lon="10.519963"><ele>118.66666666666666</ele><time>2026-04-08T09:19:40.475Z</time></trkpt><trkpt lat="45.4115978" lon="10.5200807"><ele>118.33333333333333</ele><time>2026-04-08T09:19:41.476Z</time></trkpt><trkpt lat="45.4115916" lon="10.5202045"><ele>118.0</ele><time>2026-04-08T09:19:42.475Z</time></trkpt><trkpt lat="45.4115875" lon="10.5203254"><ele>117.66666666666666</ele><time>2026-04-08T09:19:43.475Z</time></trkpt><trkpt lat="45.4115873" lon="10.5204331"><ele>117.33333333333333</ele><time>2026-04-08T09:19:44.475Z</time></trkpt><trkpt lat="45.4115814" lon="10.520532"><ele>117.0</ele><time>2026-04-08T09:19:45.475Z</time></trkpt><trkpt lat="45.4115775" lon="10.5206292"><ele>116.85714285714286</ele><time>2026-04-08T09:19:46.475Z</time></trkpt><trkpt lat="45.4115784" lon="10.5207318"><ele>116.71428571428572</ele><time>2026-04-08T09:19:47.475Z</time></trkpt><trkpt lat="45.4115987" lon="10.5208299"><ele>116.57142857142858</ele><time>2026-04-08T09:19:48.475Z</time></trkpt><trkpt lat="45.4116348" lon="10.5209139"><ele>116.42857142857144</ele><time>2026-04-08T09:19:49.475Z</time></trkpt><trkpt lat="45.4116791" lon="10.5209777"><ele>116.28571428571429</ele><time>2026-04-08T09:19:50.475Z</time></trkpt><trkpt lat="45.4117288" lon="10.5210358"><ele>116.14285714285717</ele><time>2026-04-08T09:19:51.475Z</time></trkpt><trkpt lat="45.4117848" lon="10.5210828"><ele>116.00000000000001</ele><time>2026-04-08T09:19:52.476Z</time></trkpt><trkpt lat="45.4118529" lon="10.5211229"><ele>115.99999999999999</ele><time>2026-04-08T09:19:53.475Z</time></trkpt><trkpt lat="45.4119208" lon="10.5211593"><ele>116.0</ele><time>2026-04-08T09:19:54.475Z</time></trkpt><trkpt lat="45.4119844" lon="10.5211928"><ele>116.0</ele><time>2026-04-08T09:19:55.475Z</time></trkpt><trkpt lat="45.4120871" lon="10.5212711"><ele>116.0</ele><time>2026-04-08T09:19:57.476Z</time></trkpt><trkpt lat="45.4121331" lon="10.5213377"><ele>115.99999999999999</ele><time>2026-04-08T09:19:58.475Z</time></trkpt><trkpt lat="45.4121883" lon="10.5214907"><ele>116.0</ele><time>2026-04-08T09:20:00.476Z</time></trkpt><trkpt lat="45.4121925" lon="10.5216531"><ele>116.16666666666666</ele><time>2026-04-08T09:20:02.476Z</time></trkpt><trkpt lat="45.4121728" lon="10.5217507"><ele>116.33333333333333</ele><time>2026-04-08T09:20:03.476Z</time></trkpt><trkpt lat="45.4121435" lon="10.5218507"><ele>116.5</ele><time>2026-04-08T09:20:04.475Z</time></trkpt><trkpt lat="45.4121139" lon="10.5219594"><ele>116.66666666666666</ele><time>2026-04-08T09:20:05.476Z</time></trkpt><trkpt lat="45.4120864" lon="10.5220539"><ele>116.83333333333333</ele><time>2026-04-08T09:20:06.476Z</time></trkpt><trkpt lat="45.4120677" lon="10.5221815"><ele>117.0</ele><time>2026-04-08T09:20:08.476Z</time></trkpt><trkpt lat="45.4121294" lon="10.5222856"><ele>117.5</ele><time>2026-04-08T09:20:11.476Z</time></trkpt><trkpt lat="45.4121878" lon="10.5223192"><ele>118.0</ele><time>2026-04-08T09:20:12.477Z</time></trkpt><trkpt lat="45.4122649" lon="10.5223609"><ele>118.5</ele><time>2026-04-08T09:20:13.476Z</time></trkpt><trkpt lat="45.4123546" lon="10.5224086"><ele>119.0</ele><time>2026-04-08T09:20:14.476Z</time></trkpt><trkpt lat="45.4124464" lon="10.5224548"><ele>119.5</ele><time>2026-04-08T09:20:15.476Z</time></trkpt><trkpt lat="45.4125416" lon="10.5224984"><ele>120.0</ele><time>2026-04-08T09:20:16.477Z</time></trkpt><trkpt lat="45.4126297" lon="10.522541"><ele>120.0</ele><time>2026-04-08T09:20:17.477Z</time></trkpt><trkpt lat="45.412713" lon="10.5225813"><ele>120.0</ele><time>2026-04-08T09:20:18.477Z</time></trkpt><trkpt lat="45.412792" lon="10.5226207"><ele>120.0</ele><time>2026-04-08T09:20:19.476Z</time></trkpt><trkpt lat="45.4128732" lon="10.5226617"><ele>120.0</ele><time>2026-04-08T09:20:20.477Z</time></trkpt><trkpt lat="45.4129546" lon="10.5227066"><ele>120.0</ele><time>2026-04-08T09:20:21.477Z</time></trkpt><trkpt lat="45.4130382" lon="10.5227495"><ele>120.0</ele><time>2026-04-08T09:20:22.476Z</time></trkpt><trkpt lat="45.4131218" lon="10.5227914"><ele>120.0</ele><time>2026-04-08T09:20:23.476Z</time></trkpt><trkpt lat="45.4132052" lon="10.5228336"><ele>120.0</ele><time>2026-04-08T09:20:24.476Z</time></trkpt><trkpt lat="45.4132815" lon="10.5228751"><ele>120.0</ele><time>2026-04-08T09:20:25.476Z</time></trkpt><trkpt lat="45.4133523" lon="10.5229126"><ele>120.0</ele><time>2026-04-08T09:20:26.476Z</time></trkpt><trkpt lat="45.4134229" lon="10.5229445"><ele>120.0</ele><time>2026-04-08T09:20:27.476Z</time></trkpt><trkpt lat="45.4134978" lon="10.5229688"><ele>120.0</ele><time>2026-04-08T09:20:28.476Z</time></trkpt><trkpt lat="45.4135785" lon="10.5229901"><ele>119.66666666666667</ele><time>2026-04-08T09:20:29.477Z</time></trkpt><trkpt lat="45.4136633" lon="10.5230106"><ele>119.33333333333334</ele><time>2026-04-08T09:20:30.476Z</time></trkpt><trkpt lat="45.4137482" lon="10.5230274"><ele>119.0</ele><time>2026-04-08T09:20:31.476Z</time></trkpt><trkpt lat="45.4138276" lon="10.5230407"><ele>118.66666666666667</ele><time>2026-04-08T09:20:32.477Z</time></trkpt><trkpt lat="45.4139004" lon="10.5230494"><ele>118.33333333333334</ele><time>2026-04-08T09:20:33.477Z</time></trkpt><trkpt lat="45.413969" lon="10.5230553"><ele>118.0</ele><time>2026-04-08T09:20:34.476Z</time></trkpt><trkpt lat="45.4140339" lon="10.5230636"><ele>117.4</ele><time>2026-04-08T09:20:35.476Z</time></trkpt><trkpt lat="45.4141487" lon="10.5230913"><ele>116.80000000000001</ele><time>2026-04-08T09:20:37.476Z</time></trkpt><trkpt lat="45.41422" lon="10.5231457"><ele>116.2</ele><time>2026-04-08T09:20:39.477Z</time></trkpt><trkpt lat="45.4142584" lon="10.5232688"><ele>115.6</ele><time>2026-04-08T09:20:41.476Z</time></trkpt><trkpt lat="45.4142284" lon="10.5234489"><ele>115.0</ele><time>2026-04-08T09:20:43.476Z</time></trkpt><trkpt lat="45.4141973" lon="10.5235626"><ele>115.00000000000001</ele><time>2026-04-08T09:20:44.477Z</time></trkpt><trkpt lat="45.4141657" lon="10.5236807"><ele>115.0</ele><time>2026-04-08T09:20:45.477Z</time></trkpt><trkpt lat="45.4141381" lon="10.5237937"><ele>115.0</ele><time>2026-04-08T09:20:46.476Z</time></trkpt><trkpt lat="45.4141145" lon="10.5239038"><ele>115.0</ele><time>2026-04-08T09:20:47.477Z</time></trkpt><trkpt lat="45.4140904" lon="10.5240028"><ele>115.00000000000001</ele><time>2026-04-08T09:20:48.476Z</time></trkpt><trkpt lat="45.4140901" lon="10.5241586"><ele>115.0</ele><time>2026-04-08T09:20:50.477Z</time></trkpt><trkpt lat="45.4141574" lon="10.5242878"><ele>115.00000000000001</ele><time>2026-04-08T09:20:52.477Z</time></trkpt><trkpt lat="45.4142155" lon="10.5243321"><ele>115.0</ele><time>2026-04-08T09:20:53.477Z</time></trkpt><trkpt lat="45.4142831" lon="10.5243826"><ele>115.0</ele><time>2026-04-08T09:20:54.477Z</time></trkpt><trkpt lat="45.4143653" lon="10.5244425"><ele>115.0</ele><time>2026-04-08T09:20:55.477Z</time></trkpt><trkpt lat="45.4144534" lon="10.5245077"><ele>115.00000000000001</ele><time>2026-04-08T09:20:56.478Z</time></trkpt><trkpt lat="45.4145455" lon="10.5245833"><ele>115.0</ele><time>2026-04-08T09:20:57.478Z</time></trkpt><trkpt lat="45.4146375" lon="10.5246551"><ele>115.25</ele><time>2026-04-08T09:20:58.478Z</time></trkpt><trkpt lat="45.4147312" lon="10.5247304"><ele>115.5</ele><time>2026-04-08T09:20:59.477Z</time></trkpt><trkpt lat="45.4148257" lon="10.5248122"><ele>115.75</ele><time>2026-04-08T09:21:00.478Z</time></trkpt><trkpt lat="45.4149232" lon="10.5248985"><ele>116.0</ele><time>2026-04-08T09:21:01.478Z</time></trkpt><trkpt lat="45.4150209" lon="10.5249919"><ele>116.0</ele><time>2026-04-08T09:21:02.477Z</time></trkpt><trkpt lat="45.4151188" lon="10.5250848"><ele>116.0</ele><time>2026-04-08T09:21:03.478Z</time></trkpt><trkpt lat="45.4152131" lon="10.5251749"><ele>116.0</ele><time>2026-04-08T09:21:04.478Z</time></trkpt><trkpt lat="45.4153084" lon="10.5252686"><ele>116.0</ele><time>2026-04-08T09:21:05.477Z</time></trkpt><trkpt lat="45.415406" lon="10.5253623"><ele>115.8</ele><time>2026-04-08T09:21:06.478Z</time></trkpt><trkpt lat="45.4155019" lon="10.5254567"><ele>115.6</ele><time>2026-04-08T09:21:07.478Z</time></trkpt><trkpt lat="45.4155947" lon="10.5255485"><ele>115.4</ele><time>2026-04-08T09:21:08.478Z</time></trkpt><trkpt lat="45.4156812" lon="10.5256302"><ele>115.2</ele><time>2026-04-08T09:21:09.478Z</time></trkpt><trkpt lat="45.4157672" lon="10.5257147"><ele>115.0</ele><time>2026-04-08T09:21:10.477Z</time></trkpt><trkpt lat="45.4158563" lon="10.525801"><ele>115.0</ele><time>2026-04-08T09:21:11.477Z</time></trkpt><trkpt lat="45.415948" lon="10.5258847"><ele>115.0</ele><time>2026-04-08T09:21:12.477Z</time></trkpt><trkpt lat="45.4160433" lon="10.5259693"><ele>115.0</ele><time>2026-04-08T09:21:13.531Z</time></trkpt><trkpt lat="45.4161346" lon="10.5260454"><ele>115.0</ele><time>2026-04-08T09:21:14.53Z</time></trkpt><trkpt lat="45.4162206" lon="10.5261161"><ele>115.0</ele><time>2026-04-08T09:21:15.53Z</time></trkpt><trkpt lat="45.4163096" lon="10.5261889"><ele>114.6</ele><time>2026-04-08T09:21:16.531Z</time></trkpt><trkpt lat="45.4163994" lon="10.5262627"><ele>114.2</ele><time>2026-04-08T09:21:17.531Z</time></trkpt><trkpt lat="45.4164904" lon="10.5263341"><ele>113.80000000000001</ele><time>2026-04-08T09:21:18.53Z</time></trkpt><trkpt lat="45.4165809" lon="10.5264068"><ele>113.4</ele><time>2026-04-08T09:21:19.53Z</time></trkpt><trkpt lat="45.4166702" lon="10.5264777"><ele>113.0</ele><time>2026-04-08T09:21:20.531Z</time></trkpt><trkpt lat="45.4167637" lon="10.5265462"><ele>113.0</ele><time>2026-04-08T09:21:21.531Z</time></trkpt><trkpt lat="45.4168583" lon="10.5266138"><ele>113.00000000000001</ele><time>2026-04-08T09:21:22.53Z</time></trkpt><trkpt lat="45.4169458" lon="10.5266759"><ele>113.00000000000001</ele><time>2026-04-08T09:21:23.531Z</time></trkpt><trkpt lat="45.4170254" lon="10.5267314"><ele>113.0</ele><time>2026-04-08T09:21:24.531Z</time></trkpt><trkpt lat="45.4170973" lon="10.526786"><ele>113.0</ele><time>2026-04-08T09:21:25.531Z</time></trkpt><trkpt lat="45.4171643" lon="10.5268388"><ele>113.33333333333333</ele><time>2026-04-08T09:21:26.53Z</time></trkpt><trkpt lat="45.4172303" lon="10.5268811"><ele>113.66666666666666</ele><time>2026-04-08T09:21:27.53Z</time></trkpt><trkpt lat="45.4172963" lon="10.526914"><ele>114.0</ele><time>2026-04-08T09:21:28.53Z</time></trkpt><trkpt lat="45.41736" lon="10.5269445"><ele>114.33333333333334</ele><time>2026-04-08T09:21:29.53Z</time></trkpt><trkpt lat="45.4174738" lon="10.5270108"><ele>114.66666666666667</ele><time>2026-04-08T09:21:31.53Z</time></trkpt><trkpt lat="45.4175507" lon="10.5270563"><ele>115.0</ele><time>2026-04-08T09:21:32.53Z</time></trkpt><trkpt lat="45.4176443" lon="10.5271116"><ele>115.0</ele><time>2026-04-08T09:21:33.53Z</time></trkpt><trkpt lat="45.417738" lon="10.527171"><ele>115.0</ele><time>2026-04-08T09:21:34.53Z</time></trkpt><trkpt lat="45.4178351" lon="10.5272307"><ele>115.0</ele><time>2026-04-08T09:21:35.53Z</time></trkpt><trkpt lat="45.4179393" lon="10.5272967"><ele>115.0</ele><time>2026-04-08T09:21:36.531Z</time></trkpt><trkpt lat="45.4180489" lon="10.5273669"><ele>115.0</ele><time>2026-04-08T09:21:37.531Z</time></trkpt><trkpt lat="45.4181587" lon="10.5274379"><ele>115.75</ele><time>2026-04-08T09:21:38.531Z</time></trkpt><trkpt lat="45.4182703" lon="10.5275113"><ele>116.5</ele><time>2026-04-08T09:21:39.531Z</time></trkpt><trkpt lat="45.4183836" lon="10.5275841"><ele>117.25</ele><time>2026-04-08T09:21:40.53Z</time></trkpt><trkpt lat="45.4184977" lon="10.5276562"><ele>118.0</ele><time>2026-04-08T09:21:41.53Z</time></trkpt><trkpt lat="45.4186116" lon="10.5277255"><ele>118.0</ele><time>2026-04-08T09:21:42.53Z</time></trkpt><trkpt lat="45.418725" lon="10.5277972"><ele>118.00000000000001</ele><time>2026-04-08T09:21:43.531Z</time></trkpt><trkpt lat="45.4188307" lon="10.5278614"><ele>118.00000000000001</ele><time>2026-04-08T09:21:44.531Z</time></trkpt><trkpt lat="45.4189241" lon="10.5279181"><ele>118.0</ele><time>2026-04-08T09:21:45.531Z</time></trkpt><trkpt lat="45.4190097" lon="10.5279738"><ele>118.0</ele><time>2026-04-08T09:21:46.53Z</time></trkpt><trkpt lat="45.4190855" lon="10.528029"><ele>118.00000000000001</ele><time>2026-04-08T09:21:47.531Z</time></trkpt><trkpt lat="45.4191551" lon="10.5280976"><ele>118.0</ele><time>2026-04-08T09:21:48.531Z</time></trkpt><trkpt lat="45.4192247" lon="10.5281843"><ele>118.0</ele><time>2026-04-08T09:21:49.53Z</time></trkpt><trkpt lat="45.4192891" lon="10.5282839"><ele>118.0</ele><time>2026-04-08T09:21:50.53Z</time></trkpt><trkpt lat="45.4193502" lon="10.5283698"><ele>118.00000000000001</ele><time>2026-04-08T09:21:51.531Z</time></trkpt><trkpt lat="45.4194136" lon="10.5284363"><ele>118.0</ele><time>2026-04-08T09:21:52.531Z</time></trkpt><trkpt lat="45.4194899" lon="10.5284952"><ele>118.0</ele><time>2026-04-08T09:21:53.53Z</time></trkpt><trkpt lat="45.4195799" lon="10.5285517"><ele>118.00000000000001</ele><time>2026-04-08T09:21:54.531Z</time></trkpt><trkpt lat="45.419677" lon="10.5286095"><ele>118.00000000000001</ele><time>2026-04-08T09:21:55.531Z</time></trkpt><trkpt lat="45.4197692" lon="10.5286747"><ele>118.0</ele><time>2026-04-08T09:21:56.53Z</time></trkpt><trkpt lat="45.4198488" lon="10.5287378"><ele>118.0</ele><time>2026-04-08T09:21:57.53Z</time></trkpt><trkpt lat="45.4199226" lon="10.5288008"><ele>118.60000000000001</ele><time>2026-04-08T09:21:58.53Z</time></trkpt><trkpt lat="45.4199936" lon="10.5288705"><ele>119.20000000000002</ele><time>2026-04-08T09:21:59.53Z</time></trkpt><trkpt lat="45.4200583" lon="10.5289479"><ele>119.8</ele><time>2026-04-08T09:22:00.531Z</time></trkpt><trkpt lat="45.4201225" lon="10.5290363"><ele>120.4</ele><time>2026-04-08T09:22:01.53Z</time></trkpt><trkpt lat="45.4201885" lon="10.5291397"><ele>121.0</ele><time>2026-04-08T09:22:02.531Z</time></trkpt><trkpt lat="45.4202595" lon="10.5292555"><ele>121.0</ele><time>2026-04-08T09:22:03.531Z</time></trkpt><trkpt lat="45.4203326" lon="10.5293845"><ele>121.0</ele><time>2026-04-08T09:22:04.531Z</time></trkpt><trkpt lat="45.4204001" lon="10.5295041"><ele>121.0</ele><time>2026-04-08T09:22:05.53Z</time></trkpt><trkpt lat="45.4204612" lon="10.529609"><ele>121.0</ele><time>2026-04-08T09:22:06.53Z</time></trkpt><trkpt lat="45.4205242" lon="10.5297218"><ele>121.0</ele><time>2026-04-08T09:22:07.53Z</time></trkpt><trkpt lat="45.4205895" lon="10.5298401"><ele>121.19999999999999</ele><time>2026-04-08T09:22:08.531Z</time></trkpt><trkpt lat="45.4206593" lon="10.5299555"><ele>121.39999999999999</ele><time>2026-04-08T09:22:09.531Z</time></trkpt><trkpt lat="45.4207286" lon="10.53005"><ele>121.6</ele><time>2026-04-08T09:22:10.53Z</time></trkpt><trkpt lat="45.4207927" lon="10.5301326"><ele>121.8</ele><time>2026-04-08T09:22:11.53Z</time></trkpt><trkpt lat="45.4208623" lon="10.5302113"><ele>122.0</ele><time>2026-04-08T09:22:12.53Z</time></trkpt><trkpt lat="45.4209416" lon="10.5302809"><ele>122.0</ele><time>2026-04-08T09:22:13.53Z</time></trkpt><trkpt lat="45.4210301" lon="10.5303429"><ele>121.99999999999999</ele><time>2026-04-08T09:22:14.531Z</time></trkpt><trkpt lat="45.4211276" lon="10.530398"><ele>121.99999999999999</ele><time>2026-04-08T09:22:15.531Z</time></trkpt><trkpt lat="45.4212386" lon="10.5304341"><ele>122.0</ele><time>2026-04-08T09:22:16.531Z</time></trkpt><trkpt lat="45.4213569" lon="10.5304403"><ele>122.0</ele><time>2026-04-08T09:22:17.531Z</time></trkpt><trkpt lat="45.4214827" lon="10.5304324"><ele>123.5</ele><time>2026-04-08T09:22:18.531Z</time></trkpt><trkpt lat="45.4216008" lon="10.5304329"><ele>125.0</ele><time>2026-04-08T09:22:19.531Z</time></trkpt><trkpt lat="45.4217084" lon="10.5304679"><ele>126.5</ele><time>2026-04-08T09:22:20.53Z</time></trkpt><trkpt lat="45.4218137" lon="10.5305461"><ele>128.0</ele><time>2026-04-08T09:22:21.53Z</time></trkpt><trkpt lat="45.4219111" lon="10.530653"><ele>128.0</ele><time>2026-04-08T09:22:22.53Z</time></trkpt><trkpt lat="45.4219924" lon="10.5307853"><ele>128.0</ele><time>2026-04-08T09:22:23.53Z</time></trkpt><trkpt lat="45.4220513" lon="10.530947"><ele>128.0</ele><time>2026-04-08T09:22:24.531Z</time></trkpt><trkpt lat="45.422081" lon="10.5311193"><ele>128.0</ele><time>2026-04-08T09:22:25.531Z</time></trkpt><trkpt lat="45.422087" lon="10.5312616"><ele>128.83333333333331</ele><time>2026-04-08T09:22:26.531Z</time></trkpt><trkpt lat="45.4220853" lon="10.5313847"><ele>129.66666666666666</ele><time>2026-04-08T09:22:27.531Z</time></trkpt><trkpt lat="45.422082" lon="10.5314801"><ele>130.5</ele><time>2026-04-08T09:22:28.531Z</time></trkpt><trkpt lat="45.4220774" lon="10.5316549"><ele>131.33333333333334</ele><time>2026-04-08T09:22:30.531Z</time></trkpt><trkpt lat="45.4220604" lon="10.5317537"><ele>132.16666666666669</ele><time>2026-04-08T09:22:31.531Z</time></trkpt><trkpt lat="45.422035" lon="10.5318562"><ele>133.0</ele><time>2026-04-08T09:22:32.531Z</time></trkpt><trkpt lat="45.4220007" lon="10.5319681"><ele>133.8</ele><time>2026-04-08T09:22:33.53Z</time></trkpt><trkpt lat="45.4219541" lon="10.5320812"><ele>134.60000000000002</ele><time>2026-04-08T09:22:34.53Z</time></trkpt><trkpt lat="45.4219049" lon="10.5322005"><ele>135.39999999999998</ele><time>2026-04-08T09:22:35.53Z</time></trkpt><trkpt lat="45.421853" lon="10.5323232"><ele>136.2</ele><time>2026-04-08T09:22:36.53Z</time></trkpt><trkpt lat="45.4217877" lon="10.5324481"><ele>137.0</ele><time>2026-04-08T09:22:37.53Z</time></trkpt><trkpt lat="45.4217126" lon="10.5325499"><ele>137.0</ele><time>2026-04-08T09:22:38.531Z</time></trkpt><trkpt lat="45.4216373" lon="10.532632"><ele>137.0</ele><time>2026-04-08T09:22:39.53Z</time></trkpt><trkpt lat="45.4215541" lon="10.5327128"><ele>137.0</ele><time>2026-04-08T09:22:40.531Z</time></trkpt><trkpt lat="45.4214567" lon="10.5327813"><ele>137.0</ele><time>2026-04-08T09:22:41.531Z</time></trkpt><trkpt lat="45.4213544" lon="10.5328392"><ele>137.0</ele><time>2026-04-08T09:22:42.53Z</time></trkpt><trkpt lat="45.4212462" lon="10.532891"><ele>137.25</ele><time>2026-04-08T09:22:43.53Z</time></trkpt><trkpt lat="45.4211296" lon="10.5329408"><ele>137.5</ele><time>2026-04-08T09:22:44.531Z</time></trkpt><trkpt lat="45.4210066" lon="10.5329856"><ele>137.75</ele><time>2026-04-08T09:22:45.531Z</time></trkpt><trkpt lat="45.4208818" lon="10.5330411"><ele>138.0</ele><time>2026-04-08T09:22:46.531Z</time></trkpt><trkpt lat="45.4207564" lon="10.5331127"><ele>138.0</ele><time>2026-04-08T09:22:47.53Z</time></trkpt><trkpt lat="45.4206307" lon="10.5331966"><ele>138.0</ele><time>2026-04-08T09:22:48.531Z</time></trkpt><trkpt lat="45.420505" lon="10.5332758"><ele>138.0</ele><time>2026-04-08T09:22:49.53Z</time></trkpt><trkpt lat="45.4203812" lon="10.53335"><ele>138.0</ele><time>2026-04-08T09:22:50.53Z</time></trkpt><trkpt lat="45.4202598" lon="10.5334233"><ele>137.25</ele><time>2026-04-08T09:22:51.53Z</time></trkpt><trkpt lat="45.4201413" lon="10.5335143"><ele>136.5</ele><time>2026-04-08T09:22:52.53Z</time></trkpt><trkpt lat="45.4200198" lon="10.5336113"><ele>135.75</ele><time>2026-04-08T09:22:53.531Z</time></trkpt><trkpt lat="45.4198988" lon="10.5337131"><ele>135.0</ele><time>2026-04-08T09:22:54.531Z</time></trkpt><trkpt lat="45.4197743" lon="10.5338232"><ele>134.0</ele><time>2026-04-08T09:22:55.531Z</time></trkpt><trkpt lat="45.4196453" lon="10.5339354"><ele>133.0</ele><time>2026-04-08T09:22:56.53Z</time></trkpt><trkpt lat="45.4195159" lon="10.5340498"><ele>132.0</ele><time>2026-04-08T09:22:57.53Z</time></trkpt><trkpt lat="45.4193905" lon="10.534166"><ele>132.0</ele><time>2026-04-08T09:22:58.531Z</time></trkpt><trkpt lat="45.4192714" lon="10.5342742"><ele>132.0</ele><time>2026-04-08T09:22:59.531Z</time></trkpt><trkpt lat="45.4191592" lon="10.5343735"><ele>132.0</ele><time>2026-04-08T09:23:00.53Z</time></trkpt><trkpt lat="45.4190434" lon="10.5344667"><ele>132.0</ele><time>2026-04-08T09:23:01.531Z</time></trkpt><trkpt lat="45.4189235" lon="10.5345521"><ele>131.25</ele><time>2026-04-08T09:23:02.531Z</time></trkpt><trkpt lat="45.4187935" lon="10.5346255"><ele>130.5</ele><time>2026-04-08T09:23:03.531Z</time></trkpt><trkpt lat="45.4186553" lon="10.5346888"><ele>129.75</ele><time>2026-04-08T09:23:04.53Z</time></trkpt><trkpt lat="45.418515" lon="10.5347507"><ele>129.0</ele><time>2026-04-08T09:23:05.53Z</time></trkpt><trkpt lat="45.4183702" lon="10.534812"><ele>129.0</ele><time>2026-04-08T09:23:06.531Z</time></trkpt><trkpt lat="45.4182237" lon="10.5348643"><ele>129.0</ele><time>2026-04-08T09:23:07.53Z</time></trkpt><trkpt lat="45.4180804" lon="10.5349279"><ele>129.0</ele><time>2026-04-08T09:23:08.53Z</time></trkpt><trkpt lat="45.4179381" lon="10.5350046"><ele>128.0</ele><time>2026-04-08T09:23:09.53Z</time></trkpt><trkpt lat="45.417799" lon="10.5351041"><ele>127.0</ele><time>2026-04-08T09:23:10.531Z</time></trkpt><trkpt lat="45.4176637" lon="10.5352244"><ele>126.0</ele><time>2026-04-08T09:23:11.53Z</time></trkpt><trkpt lat="45.4175418" lon="10.5353524"><ele>126.0</ele><time>2026-04-08T09:23:12.531Z</time></trkpt><trkpt lat="45.417432" lon="10.5354749"><ele>126.0</ele><time>2026-04-08T09:23:13.53Z</time></trkpt><trkpt lat="45.4173117" lon="10.5355771"><ele>126.0</ele><time>2026-04-08T09:23:14.531Z</time></trkpt><trkpt lat="45.4171769" lon="10.5356565"><ele>126.0</ele><time>2026-04-08T09:23:15.531Z</time></trkpt><trkpt lat="45.4170286" lon="10.535708"><ele>126.0</ele><time>2026-04-08T09:23:16.53Z</time></trkpt><trkpt lat="45.4168733" lon="10.5357466"><ele>126.0</ele><time>2026-04-08T09:23:17.53Z</time></trkpt><trkpt lat="45.416724" lon="10.5357802"><ele>126.0</ele><time>2026-04-08T09:23:18.53Z</time></trkpt><trkpt lat="45.4165841" lon="10.5358123"><ele>126.0</ele><time>2026-04-08T09:23:19.53Z</time></trkpt><trkpt lat="45.4164509" lon="10.5358526"><ele>126.0</ele><time>2026-04-08T09:23:20.53Z</time></trkpt><trkpt lat="45.4163167" lon="10.5359192"><ele>126.0</ele><time>2026-04-08T09:23:21.531Z</time></trkpt><trkpt lat="45.4161856" lon="10.5360193"><ele>126.0</ele><time>2026-04-08T09:23:22.531Z</time></trkpt><trkpt lat="45.4160629" lon="10.5361317"><ele>126.25</ele><time>2026-04-08T09:23:23.53Z</time></trkpt><trkpt lat="45.4159473" lon="10.5362593"><ele>126.5</ele><time>2026-04-08T09:23:24.531Z</time></trkpt><trkpt lat="45.4158316" lon="10.5363881"><ele>126.75</ele><time>2026-04-08T09:23:25.53Z</time></trkpt><trkpt lat="45.4157198" lon="10.536527"><ele>127.0</ele><time>2026-04-08T09:23:26.53Z</time></trkpt><trkpt lat="45.4156137" lon="10.5366731"><ele>127.0</ele><time>2026-04-08T09:23:27.53Z</time></trkpt><trkpt lat="45.4155169" lon="10.5368303"><ele>127.0</ele><time>2026-04-08T09:23:28.531Z</time></trkpt><trkpt lat="45.4154342" lon="10.5370023"><ele>127.0</ele><time>2026-04-08T09:23:29.53Z</time></trkpt><trkpt lat="45.4153584" lon="10.5371856"><ele>127.0</ele><time>2026-04-08T09:23:30.53Z</time></trkpt><trkpt lat="45.4152868" lon="10.5373686"><ele>126.75</ele><time>2026-04-08T09:23:31.531Z</time></trkpt><trkpt lat="45.4152096" lon="10.5375462"><ele>126.5</ele><time>2026-04-08T09:23:32.53Z</time></trkpt><trkpt lat="45.4151304" lon="10.5377151"><ele>126.25</ele><time>2026-04-08T09:23:33.53Z</time></trkpt><trkpt lat="45.4150463" lon="10.5378611"><ele>126.0</ele><time>2026-04-08T09:23:34.53Z</time></trkpt><trkpt lat="45.4149534" lon="10.5379961"><ele>125.75</ele><time>2026-04-08T09:23:35.53Z</time></trkpt><trkpt lat="45.4148514" lon="10.5381209"><ele>125.5</ele><time>2026-04-08T09:23:36.53Z</time></trkpt><trkpt lat="45.4147476" lon="10.5382357"><ele>125.25</ele><time>2026-04-08T09:23:37.531Z</time></trkpt><trkpt lat="45.4146416" lon="10.5383439"><ele>125.0</ele><time>2026-04-08T09:23:38.531Z</time></trkpt><trkpt lat="45.4145336" lon="10.5384528"><ele>125.0</ele><time>2026-04-08T09:23:39.531Z</time></trkpt><trkpt lat="45.4144232" lon="10.5385645"><ele>125.0</ele><time>2026-04-08T09:23:40.53Z</time></trkpt><trkpt lat="45.4143118" lon="10.5386722"><ele>125.0</ele><time>2026-04-08T09:23:41.53Z</time></trkpt><trkpt lat="45.4142002" lon="10.5387758"><ele>125.0</ele><time>2026-04-08T09:23:42.48Z</time></trkpt><trkpt lat="45.4140922" lon="10.538881"><ele>125.0</ele><time>2026-04-08T09:23:43.481Z</time></trkpt><trkpt lat="45.4139784" lon="10.5389854"><ele>125.0</ele><time>2026-04-08T09:23:44.48Z</time></trkpt><trkpt lat="45.4138687" lon="10.5390911"><ele>125.0</ele><time>2026-04-08T09:23:45.48Z</time></trkpt><trkpt lat="45.4137604" lon="10.5391941"><ele>125.0</ele><time>2026-04-08T09:23:46.481Z</time></trkpt><trkpt lat="45.4136507" lon="10.5392935"><ele>125.0</ele><time>2026-04-08T09:23:47.48Z</time></trkpt><trkpt lat="45.4135398" lon="10.5393848"><ele>125.0</ele><time>2026-04-08T09:23:48.481Z</time></trkpt><trkpt lat="45.4134253" lon="10.5394719"><ele>125.0</ele><time>2026-04-08T09:23:49.48Z</time></trkpt><trkpt lat="45.4133104" lon="10.5395564"><ele>125.0</ele><time>2026-04-08T09:23:50.481Z</time></trkpt><trkpt lat="45.4131995" lon="10.539639"><ele>125.2</ele><time>2026-04-08T09:23:51.48Z</time></trkpt><trkpt lat="45.4130973" lon="10.5397154"><ele>125.4</ele><time>2026-04-08T09:23:52.48Z</time></trkpt><trkpt lat="45.4129992" lon="10.5397869"><ele>125.6</ele><time>2026-04-08T09:23:53.48Z</time></trkpt><trkpt lat="45.4129034" lon="10.5398693"><ele>125.8</ele><time>2026-04-08T09:23:54.481Z</time></trkpt><trkpt lat="45.4128164" lon="10.5399677"><ele>126.0</ele><time>2026-04-08T09:23:55.481Z</time></trkpt><trkpt lat="45.412737" lon="10.5400852"><ele>126.0</ele><time>2026-04-08T09:23:56.481Z</time></trkpt><trkpt lat="45.4126689" lon="10.5402192"><ele>126.0</ele><time>2026-04-08T09:23:57.481Z</time></trkpt><trkpt lat="45.4126072" lon="10.5403747"><ele>126.0</ele><time>2026-04-08T09:23:58.481Z</time></trkpt><trkpt lat="45.4125444" lon="10.540537"><ele>126.0</ele><time>2026-04-08T09:23:59.481Z</time></trkpt><trkpt lat="45.4124786" lon="10.5407129"><ele>127.0</ele><time>2026-04-08T09:24:00.48Z</time></trkpt><trkpt lat="45.4124045" lon="10.5409011"><ele>128.0</ele><time>2026-04-08T09:24:01.481Z</time></trkpt><trkpt lat="45.4123254" lon="10.5410914"><ele>129.0</ele><time>2026-04-08T09:24:02.481Z</time></trkpt><trkpt lat="45.4122306" lon="10.5412779"><ele>128.33333333333334</ele><time>2026-04-08T09:24:03.481Z</time></trkpt><trkpt lat="45.4121226" lon="10.5414631"><ele>127.66666666666667</ele><time>2026-04-08T09:24:04.481Z</time></trkpt><trkpt lat="45.412018" lon="10.5416323"><ele>127.0</ele><time>2026-04-08T09:24:05.481Z</time></trkpt><trkpt lat="45.4119194" lon="10.5417905"><ele>127.0</ele><time>2026-04-08T09:24:06.481Z</time></trkpt><trkpt lat="45.4118306" lon="10.5419422"><ele>127.0</ele><time>2026-04-08T09:24:07.481Z</time></trkpt><trkpt lat="45.4117499" lon="10.5420945"><ele>127.0</ele><time>2026-04-08T09:24:08.481Z</time></trkpt><trkpt lat="45.4116755" lon="10.5422434"><ele>127.0</ele><time>2026-04-08T09:24:09.482Z</time></trkpt><trkpt lat="45.4116009" lon="10.5423917"><ele>126.75</ele><time>2026-04-08T09:24:10.482Z</time></trkpt><trkpt lat="45.4115256" lon="10.5425437"><ele>126.5</ele><time>2026-04-08T09:24:11.482Z</time></trkpt><trkpt lat="45.4114493" lon="10.5426971"><ele>126.25</ele><time>2026-04-08T09:24:12.482Z</time></trkpt><trkpt lat="45.4113737" lon="10.5428551"><ele>126.0</ele><time>2026-04-08T09:24:13.482Z</time></trkpt><trkpt lat="45.4113011" lon="10.5430085"><ele>124.5</ele><time>2026-04-08T09:24:14.482Z</time></trkpt><trkpt lat="45.4112375" lon="10.5431651"><ele>123.0</ele><time>2026-04-08T09:24:15.481Z</time></trkpt><trkpt lat="45.4111849" lon="10.5433268"><ele>121.5</ele><time>2026-04-08T09:24:16.482Z</time></trkpt><trkpt lat="45.4111467" lon="10.5434904"><ele>120.0</ele><time>2026-04-08T09:24:17.482Z</time></trkpt><trkpt lat="45.4111152" lon="10.5436423"><ele>120.5</ele><time>2026-04-08T09:24:18.481Z</time></trkpt><trkpt lat="45.41108" lon="10.5437895"><ele>121.0</ele><time>2026-04-08T09:24:19.481Z</time></trkpt><trkpt lat="45.4110295" lon="10.5439257"><ele>121.5</ele><time>2026-04-08T09:24:20.482Z</time></trkpt><trkpt lat="45.4109642" lon="10.5440577"><ele>122.0</ele><time>2026-04-08T09:24:21.481Z</time></trkpt><trkpt lat="45.4108817" lon="10.5441862"><ele>122.0</ele><time>2026-04-08T09:24:22.482Z</time></trkpt><trkpt lat="45.4107852" lon="10.5443166"><ele>122.0</ele><time>2026-04-08T09:24:23.482Z</time></trkpt><trkpt lat="45.4106778" lon="10.5444472"><ele>122.0</ele><time>2026-04-08T09:24:24.482Z</time></trkpt><trkpt lat="45.4105636" lon="10.5445856"><ele>122.0</ele><time>2026-04-08T09:24:25.482Z</time></trkpt><trkpt lat="45.4104452" lon="10.5447211"><ele>121.66666666666666</ele><time>2026-04-08T09:24:26.481Z</time></trkpt><trkpt lat="45.4103242" lon="10.5448561"><ele>121.33333333333334</ele><time>2026-04-08T09:24:27.482Z</time></trkpt><trkpt lat="45.4102005" lon="10.5450023"><ele>121.0</ele><time>2026-04-08T09:24:28.481Z</time></trkpt><trkpt lat="45.410085" lon="10.5451395"><ele>121.0</ele><time>2026-04-08T09:24:29.481Z</time></trkpt><trkpt lat="45.4099699" lon="10.5452709"><ele>121.0</ele><time>2026-04-08T09:24:30.482Z</time></trkpt><trkpt lat="45.4098555" lon="10.545398"><ele>121.0</ele><time>2026-04-08T09:24:31.482Z</time></trkpt><trkpt lat="45.4097436" lon="10.5455327"><ele>121.0</ele><time>2026-04-08T09:24:32.481Z</time></trkpt><trkpt lat="45.4096312" lon="10.5456527"><ele>119.25</ele><time>2026-04-08T09:24:33.481Z</time></trkpt><trkpt lat="45.4095138" lon="10.5457421"><ele>117.5</ele><time>2026-04-08T09:24:34.481Z</time></trkpt><trkpt lat="45.4093906" lon="10.5458128"><ele>115.75</ele><time>2026-04-08T09:24:35.482Z</time></trkpt><trkpt lat="45.4092653" lon="10.5458667"><ele>114.0</ele><time>2026-04-08T09:24:36.481Z</time></trkpt><trkpt lat="45.4091388" lon="10.5459025"><ele>114.0</ele><time>2026-04-08T09:24:37.482Z</time></trkpt><trkpt lat="45.4090209" lon="10.54591"><ele>114.0</ele><time>2026-04-08T09:24:38.482Z</time></trkpt><trkpt lat="45.4089054" lon="10.545895"><ele>114.0</ele><time>2026-04-08T09:24:39.482Z</time></trkpt><trkpt lat="45.4087944" lon="10.545876"><ele>114.0</ele><time>2026-04-08T09:24:40.481Z</time></trkpt><trkpt lat="45.4086805" lon="10.5458523"><ele>113.6</ele><time>2026-04-08T09:24:41.482Z</time></trkpt><trkpt lat="45.4085668" lon="10.5458341"><ele>113.2</ele><time>2026-04-08T09:24:42.481Z</time></trkpt><trkpt lat="45.408458" lon="10.545823"><ele>112.79999999999998</ele><time>2026-04-08T09:24:43.482Z</time></trkpt><trkpt lat="45.4083571" lon="10.5458097"><ele>112.39999999999999</ele><time>2026-04-08T09:24:44.481Z</time></trkpt><trkpt lat="45.4082654" lon="10.545799"><ele>112.0</ele><time>2026-04-08T09:24:45.481Z</time></trkpt><trkpt lat="45.4081791" lon="10.5457943"><ele>112.0</ele><time>2026-04-08T09:24:46.481Z</time></trkpt><trkpt lat="45.4080863" lon="10.5458089"><ele>111.99999999999999</ele><time>2026-04-08T09:24:47.481Z</time></trkpt><trkpt lat="45.4079854" lon="10.545836"><ele>111.99999999999999</ele><time>2026-04-08T09:24:48.481Z</time></trkpt><trkpt lat="45.4078796" lon="10.5458682"><ele>112.0</ele><time>2026-04-08T09:24:49.482Z</time></trkpt><trkpt lat="45.4077731" lon="10.5458973"><ele>112.0</ele><time>2026-04-08T09:24:50.482Z</time></trkpt><trkpt lat="45.4076676" lon="10.5459205"><ele>112.0</ele><time>2026-04-08T09:24:51.482Z</time></trkpt><trkpt lat="45.4075616" lon="10.5459421"><ele>111.99999999999999</ele><time>2026-04-08T09:24:52.483Z</time></trkpt><trkpt lat="45.4074623" lon="10.5459643"><ele>111.99999999999999</ele><time>2026-04-08T09:24:53.483Z</time></trkpt><trkpt lat="45.4073708" lon="10.5459909"><ele>112.0</ele><time>2026-04-08T09:24:54.482Z</time></trkpt><trkpt lat="45.4072837" lon="10.5460252"><ele>112.0</ele><time>2026-04-08T09:24:55.482Z</time></trkpt><trkpt lat="45.4072027" lon="10.546077"><ele>112.39999999999999</ele><time>2026-04-08T09:24:56.482Z</time></trkpt><trkpt lat="45.407127" lon="10.5461431"><ele>112.79999999999998</ele><time>2026-04-08T09:24:57.482Z</time></trkpt><trkpt lat="45.407051" lon="10.5462138"><ele>113.2</ele><time>2026-04-08T09:24:58.482Z</time></trkpt><trkpt lat="45.4069773" lon="10.5462992"><ele>113.6</ele><time>2026-04-08T09:24:59.483Z</time></trkpt><trkpt lat="45.406904" lon="10.5463954"><ele>114.0</ele><time>2026-04-08T09:25:00.482Z</time></trkpt><trkpt lat="45.4068295" lon="10.5464948"><ele>114.4</ele><time>2026-04-08T09:25:01.483Z</time></trkpt><trkpt lat="45.4067569" lon="10.5465976"><ele>114.80000000000001</ele><time>2026-04-08T09:25:02.483Z</time></trkpt><trkpt lat="45.4066865" lon="10.5466917"><ele>115.19999999999999</ele><time>2026-04-08T09:25:03.482Z</time></trkpt><trkpt lat="45.4066176" lon="10.5467792"><ele>115.6</ele><time>2026-04-08T09:25:04.483Z</time></trkpt><trkpt lat="45.4065477" lon="10.5468629"><ele>116.0</ele><time>2026-04-08T09:25:05.482Z</time></trkpt><trkpt lat="45.4064734" lon="10.5469477"><ele>116.0</ele><time>2026-04-08T09:25:06.483Z</time></trkpt><trkpt lat="45.4063961" lon="10.5470322"><ele>116.0</ele><time>2026-04-08T09:25:07.483Z</time></trkpt><trkpt lat="45.4063171" lon="10.5470982"><ele>116.0</ele><time>2026-04-08T09:25:08.483Z</time></trkpt><trkpt lat="45.4062343" lon="10.547156"><ele>116.0</ele><time>2026-04-08T09:25:09.482Z</time></trkpt><trkpt lat="45.4061548" lon="10.547206"><ele>116.0</ele><time>2026-04-08T09:25:10.482Z</time></trkpt><trkpt lat="45.4060767" lon="10.5472451"><ele>116.99999999999999</ele><time>2026-04-08T09:25:11.482Z</time></trkpt><trkpt lat="45.4059981" lon="10.5472782"><ele>118.0</ele><time>2026-04-08T09:25:12.482Z</time></trkpt><trkpt lat="45.4059175" lon="10.5473097"><ele>119.0</ele><time>2026-04-08T09:25:13.482Z</time></trkpt><trkpt lat="45.4058365" lon="10.5473461"><ele>120.0</ele><time>2026-04-08T09:25:14.483Z</time></trkpt><trkpt lat="45.4057522" lon="10.5473841"><ele>120.99999999999999</ele><time>2026-04-08T09:25:15.483Z</time></trkpt><trkpt lat="45.4056683" lon="10.5474228"><ele>122.0</ele><time>2026-04-08T09:25:16.483Z</time></trkpt><trkpt lat="45.4055833" lon="10.5474653"><ele>122.0</ele><time>2026-04-08T09:25:17.482Z</time></trkpt><trkpt lat="45.4055005" lon="10.5475076"><ele>121.99999999999999</ele><time>2026-04-08T09:25:18.482Z</time></trkpt><trkpt lat="45.4054196" lon="10.5475581"><ele>121.99999999999999</ele><time>2026-04-08T09:25:19.483Z</time></trkpt><trkpt lat="45.4053376" lon="10.5476183"><ele>122.0</ele><time>2026-04-08T09:25:20.483Z</time></trkpt><trkpt lat="45.405253" lon="10.5476867"><ele>122.0</ele><time>2026-04-08T09:25:21.483Z</time></trkpt><trkpt lat="45.4051644" lon="10.5477591"><ele>122.19999999999999</ele><time>2026-04-08T09:25:22.482Z</time></trkpt><trkpt lat="45.4050779" lon="10.5478277"><ele>122.39999999999999</ele><time>2026-04-08T09:25:23.482Z</time></trkpt><trkpt lat="45.4049904" lon="10.5478996"><ele>122.60000000000001</ele><time>2026-04-08T09:25:24.482Z</time></trkpt><trkpt lat="45.4049021" lon="10.547976"><ele>122.80000000000001</ele><time>2026-04-08T09:25:25.482Z</time></trkpt><trkpt lat="45.4048109" lon="10.5480566"><ele>123.0</ele><time>2026-04-08T09:25:26.483Z</time></trkpt><trkpt lat="45.4047171" lon="10.5481356"><ele>122.0</ele><time>2026-04-08T09:25:27.483Z</time></trkpt><trkpt lat="45.4046236" lon="10.548212"><ele>121.00000000000001</ele><time>2026-04-08T09:25:28.482Z</time></trkpt><trkpt lat="45.4045319" lon="10.5482874"><ele>120.00000000000001</ele><time>2026-04-08T09:25:29.482Z</time></trkpt><trkpt lat="45.4044373" lon="10.5483682"><ele>119.0</ele><time>2026-04-08T09:25:30.483Z</time></trkpt><trkpt lat="45.4043406" lon="10.5484536"><ele>118.0</ele><time>2026-04-08T09:25:31.482Z</time></trkpt><trkpt lat="45.4042486" lon="10.548534"><ele>118.0</ele><time>2026-04-08T09:25:32.482Z</time></trkpt><trkpt lat="45.4041649" lon="10.5486049"><ele>118.00000000000001</ele><time>2026-04-08T09:25:33.482Z</time></trkpt><trkpt lat="45.4040877" lon="10.548679"><ele>118.00000000000001</ele><time>2026-04-08T09:25:34.483Z</time></trkpt><trkpt lat="45.4040152" lon="10.5487555"><ele>118.0</ele><time>2026-04-08T09:25:35.482Z</time></trkpt><trkpt lat="45.4039501" lon="10.548836"><ele>118.0</ele><time>2026-04-08T09:25:36.482Z</time></trkpt><trkpt lat="45.4038825" lon="10.5489302"><ele>117.80000000000001</ele><time>2026-04-08T09:25:37.484Z</time></trkpt><trkpt lat="45.4038177" lon="10.5490183"><ele>117.60000000000001</ele><time>2026-04-08T09:25:38.484Z</time></trkpt><trkpt lat="45.4037556" lon="10.5491108"><ele>117.39999999999999</ele><time>2026-04-08T09:25:39.484Z</time></trkpt><trkpt lat="45.403683" lon="10.5491971"><ele>117.19999999999999</ele><time>2026-04-08T09:25:40.483Z</time></trkpt><trkpt lat="45.4036046" lon="10.5492695"><ele>117.0</ele><time>2026-04-08T09:25:41.483Z</time></trkpt><trkpt lat="45.4035202" lon="10.549332"><ele>117.0</ele><time>2026-04-08T09:25:42.483Z</time></trkpt><trkpt lat="45.4034325" lon="10.5493883"><ele>116.99999999999999</ele><time>2026-04-08T09:25:43.484Z</time></trkpt><trkpt lat="45.4033417" lon="10.5494405"><ele>116.99999999999999</ele><time>2026-04-08T09:25:44.483Z</time></trkpt><trkpt lat="45.403246" lon="10.5494853"><ele>117.0</ele><time>2026-04-08T09:25:45.484Z</time></trkpt><trkpt lat="45.4031472" lon="10.5495139"><ele>117.0</ele><time>2026-04-08T09:25:46.484Z</time></trkpt><trkpt lat="45.4030529" lon="10.5495208"><ele>116.66666666666667</ele><time>2026-04-08T09:25:47.484Z</time></trkpt><trkpt lat="45.4029652" lon="10.5495064"><ele>116.33333333333334</ele><time>2026-04-08T09:25:48.483Z</time></trkpt><trkpt lat="45.4028837" lon="10.5494745"><ele>116.0</ele><time>2026-04-08T09:25:49.484Z</time></trkpt><trkpt lat="45.4028069" lon="10.5494481"><ele>115.66666666666667</ele><time>2026-04-08T09:25:50.484Z</time></trkpt><trkpt lat="45.402732" lon="10.5494367"><ele>115.33333333333334</ele><time>2026-04-08T09:25:51.483Z</time></trkpt><trkpt lat="45.4026678" lon="10.5494509"><ele>115.0</ele><time>2026-04-08T09:25:52.484Z</time></trkpt><trkpt lat="45.4025561" lon="10.5494883"><ele>115.0</ele><time>2026-04-08T09:25:54.483Z</time></trkpt><trkpt lat="45.4024748" lon="10.5495277"><ele>115.0</ele><time>2026-04-08T09:25:56.483Z</time></trkpt><trkpt lat="45.4023983" lon="10.5495964"><ele>115.0</ele><time>2026-04-08T09:29:26.539Z</time></trkpt><trkpt lat="45.4023184" lon="10.5496922"><ele>115.0</ele><time>2026-04-08T09:29:28.538Z</time></trkpt><trkpt lat="45.4022203" lon="10.5498087"><ele>115.0</ele><time>2026-04-08T09:29:30.539Z</time></trkpt><trkpt lat="45.4021709" lon="10.5498766"><ele>115.16666666666667</ele><time>2026-04-08T09:29:31.539Z</time></trkpt><trkpt lat="45.4021237" lon="10.5499385"><ele>115.33333333333334</ele><time>2026-04-08T09:29:32.539Z</time></trkpt><trkpt lat="45.4020415" lon="10.550046"><ele>115.5</ele><time>2026-04-08T09:29:34.538Z</time></trkpt><trkpt lat="45.4019742" lon="10.5501413"><ele>115.66666666666666</ele><time>2026-04-08T09:29:36.538Z</time></trkpt><trkpt lat="45.4019209" lon="10.5502306"><ele>115.83333333333333</ele><time>2026-04-08T09:29:38.538Z</time></trkpt><trkpt lat="45.4018644" lon="10.5503087"><ele>116.0</ele><time>2026-04-08T09:29:40.538Z</time></trkpt><trkpt lat="45.4017959" lon="10.5503998"><ele>116.19999999999999</ele><time>2026-04-08T09:29:42.538Z</time></trkpt><trkpt lat="45.4017318" lon="10.55049"><ele>116.39999999999999</ele><time>2026-04-08T09:29:44.538Z</time></trkpt><trkpt lat="45.401643" lon="10.5506088"><ele>116.6</ele><time>2026-04-08T09:29:47.538Z</time></trkpt><trkpt lat="45.4015759" lon="10.5506967"><ele>116.8</ele><time>2026-04-08T09:29:48.538Z</time></trkpt><trkpt lat="45.401515" lon="10.5507685"><ele>117.0</ele><time>2026-04-08T09:29:49.539Z</time></trkpt><trkpt lat="45.4014641" lon="10.5508331"><ele>117.0</ele><time>2026-04-08T09:29:50.538Z</time></trkpt><trkpt lat="45.4014002" lon="10.5508941"><ele>117.0</ele><time>2026-04-08T09:29:51.539Z</time></trkpt><trkpt lat="45.4013393" lon="10.5509481"><ele>117.0</ele><time>2026-04-08T09:29:52.538Z</time></trkpt><trkpt lat="45.401271" lon="10.5509971"><ele>117.0</ele><time>2026-04-08T09:29:53.539Z</time></trkpt><trkpt lat="45.4012036" lon="10.5510395"><ele>117.0</ele><time>2026-04-08T09:29:54.538Z</time></trkpt><trkpt lat="45.4011299" lon="10.5510717"><ele>117.0</ele><time>2026-04-08T09:29:55.538Z</time></trkpt><trkpt lat="45.4010483" lon="10.5510968"><ele>116.5</ele><time>2026-04-08T09:29:56.538Z</time></trkpt><trkpt lat="45.4009676" lon="10.5511084"><ele>116.0</ele><time>2026-04-08T09:29:57.539Z</time></trkpt><trkpt lat="45.4008798" lon="10.5511074"><ele>115.5</ele><time>2026-04-08T09:29:58.539Z</time></trkpt><trkpt lat="45.4007856" lon="10.5511061"><ele>115.0</ele><time>2026-04-08T09:29:59.538Z</time></trkpt><trkpt lat="45.4006974" lon="10.5511034"><ele>114.5</ele><time>2026-04-08T09:30:00.538Z</time></trkpt><trkpt lat="45.4006141" lon="10.5511086"><ele>114.0</ele><time>2026-04-08T09:30:01.539Z</time></trkpt><trkpt lat="45.4005246" lon="10.5511195"><ele>114.16666666666667</ele><time>2026-04-08T09:30:02.488Z</time></trkpt><trkpt lat="45.4004365" lon="10.5511333"><ele>114.33333333333334</ele><time>2026-04-08T09:30:03.489Z</time></trkpt><trkpt lat="45.4003623" lon="10.5511483"><ele>114.5</ele><time>2026-04-08T09:30:04.489Z</time></trkpt><trkpt lat="45.4002915" lon="10.5511724"><ele>114.66666666666667</ele><time>2026-04-08T09:30:05.488Z</time></trkpt><trkpt lat="45.4002181" lon="10.5512198"><ele>114.83333333333334</ele><time>2026-04-08T09:30:06.489Z</time></trkpt><trkpt lat="45.400145" lon="10.5512831"><ele>115.0</ele><time>2026-04-08T09:30:07.488Z</time></trkpt><trkpt lat="45.4000758" lon="10.5513441"><ele>115.00000000000001</ele><time>2026-04-08T09:30:08.488Z</time></trkpt><trkpt lat="45.4000124" lon="10.5513971"><ele>115.0</ele><time>2026-04-08T09:30:09.488Z</time></trkpt><trkpt lat="45.3999472" lon="10.5514511"><ele>115.0</ele><time>2026-04-08T09:30:10.489Z</time></trkpt><trkpt lat="45.3998748" lon="10.5514979"><ele>115.0</ele><time>2026-04-08T09:30:11.488Z</time></trkpt><trkpt lat="45.399797" lon="10.5515286"><ele>115.00000000000001</ele><time>2026-04-08T09:30:12.488Z</time></trkpt><trkpt lat="45.3997121" lon="10.5515495"><ele>115.0</ele><time>2026-04-08T09:30:13.489Z</time></trkpt><trkpt lat="45.399633" lon="10.5515567"><ele>115.0</ele><time>2026-04-08T09:30:14.488Z</time></trkpt><trkpt lat="45.39956" lon="10.5515652"><ele>115.0</ele><time>2026-04-08T09:30:15.488Z</time></trkpt><trkpt lat="45.3994944" lon="10.55157"><ele>115.0</ele><time>2026-04-08T09:30:16.489Z</time></trkpt><trkpt lat="45.3993836" lon="10.5515824"><ele>115.0</ele><time>2026-04-08T09:30:18.488Z</time></trkpt><trkpt lat="45.3992758" lon="10.5515848"><ele>115.0</ele><time>2026-04-08T09:30:20.489Z</time></trkpt><trkpt lat="45.3991604" lon="10.5515762"><ele>115.0</ele><time>2026-04-08T09:30:22.489Z</time></trkpt><trkpt lat="45.3990446" lon="10.5515759"><ele>115.0</ele><time>2026-04-08T09:30:24.489Z</time></trkpt><trkpt lat="45.3989354" lon="10.5515853"><ele>115.0</ele><time>2026-04-08T09:30:26.49Z</time></trkpt><trkpt lat="45.3988159" lon="10.5516334"><ele>115.0</ele><time>2026-04-08T09:30:28.489Z</time></trkpt><trkpt lat="45.398757" lon="10.5516697"><ele>115.0</ele><time>2026-04-08T09:30:29.49Z</time></trkpt><trkpt lat="45.3986891" lon="10.5517033"><ele>116.14285714285712</ele><time>2026-04-08T09:30:30.489Z</time></trkpt><trkpt lat="45.3986265" lon="10.5517311"><ele>117.28571428571428</ele><time>2026-04-08T09:30:31.489Z</time></trkpt><trkpt lat="45.3985652" lon="10.5517554"><ele>118.42857142857143</ele><time>2026-04-08T09:30:32.489Z</time></trkpt><trkpt lat="45.3985051" lon="10.5517933"><ele>119.57142857142857</ele><time>2026-04-08T09:30:33.49Z</time></trkpt><trkpt lat="45.3984394" lon="10.5518332"><ele>120.71428571428572</ele><time>2026-04-08T09:30:34.489Z</time></trkpt><trkpt lat="45.3983759" lon="10.5518714"><ele>121.85714285714288</ele><time>2026-04-08T09:30:35.49Z</time></trkpt><trkpt lat="45.3983107" lon="10.5518986"><ele>123.00000000000001</ele><time>2026-04-08T09:30:36.489Z</time></trkpt><trkpt lat="45.3981789" lon="10.551924"><ele>123.00000000000001</ele><time>2026-04-08T09:30:38.49Z</time></trkpt><trkpt lat="45.3981099" lon="10.5519293"><ele>123.0</ele><time>2026-04-08T09:30:39.49Z</time></trkpt><trkpt lat="45.3980365" lon="10.5519279"><ele>123.00000000000001</ele><time>2026-04-08T09:30:40.49Z</time></trkpt><trkpt lat="45.3979654" lon="10.5519224"><ele>123.00000000000001</ele><time>2026-04-08T09:30:41.49Z</time></trkpt><trkpt lat="45.3978922" lon="10.5519102"><ele>123.0</ele><time>2026-04-08T09:30:42.49Z</time></trkpt><trkpt lat="45.3978151" lon="10.5518886"><ele>123.00000000000001</ele><time>2026-04-08T09:30:43.489Z</time></trkpt><trkpt lat="45.3977369" lon="10.5518678"><ele>123.00000000000001</ele><time>2026-04-08T09:30:44.489Z</time></trkpt><trkpt lat="45.3976567" lon="10.551857"><ele>122.83333333333333</ele><time>2026-04-08T09:30:45.489Z</time></trkpt><trkpt lat="45.3975744" lon="10.5518395"><ele>122.66666666666666</ele><time>2026-04-08T09:30:46.489Z</time></trkpt><trkpt lat="45.397495" lon="10.5518178"><ele>122.5</ele><time>2026-04-08T09:30:47.489Z</time></trkpt><trkpt lat="45.3974166" lon="10.5518027"><ele>122.33333333333333</ele><time>2026-04-08T09:30:48.489Z</time></trkpt><trkpt lat="45.3973409" lon="10.5517896"><ele>122.16666666666666</ele><time>2026-04-08T09:30:49.49Z</time></trkpt><trkpt lat="45.397267" lon="10.5517695"><ele>122.0</ele><time>2026-04-08T09:30:50.489Z</time></trkpt><trkpt lat="45.3971887" lon="10.5517555"><ele>121.8</ele><time>2026-04-08T09:30:51.489Z</time></trkpt><trkpt lat="45.3971103" lon="10.5517394"><ele>121.6</ele><time>2026-04-08T09:30:52.489Z</time></trkpt><trkpt lat="45.3970386" lon="10.5517321"><ele>121.39999999999999</ele><time>2026-04-08T09:30:53.49Z</time></trkpt><trkpt lat="45.3969362" lon="10.5517809"><ele>121.19999999999999</ele><time>2026-04-08T09:30:55.489Z</time></trkpt><trkpt lat="45.3969091" lon="10.5519688"><ele>121.0</ele><time>2026-04-08T09:30:57.49Z</time></trkpt><trkpt lat="45.3969177" lon="10.5520849"><ele>122.50000000000001</ele><time>2026-04-08T09:30:58.49Z</time></trkpt><trkpt lat="45.3969199" lon="10.5522148"><ele>124.0</ele><time>2026-04-08T09:30:59.489Z</time></trkpt><trkpt lat="45.3969428" lon="10.552349"><ele>125.5</ele><time>2026-04-08T09:31:00.489Z</time></trkpt><trkpt lat="45.3969739" lon="10.5524656"><ele>127.0</ele><time>2026-04-08T09:31:01.489Z</time></trkpt><trkpt lat="45.397013" lon="10.5525698"><ele>128.5</ele><time>2026-04-08T09:31:02.489Z</time></trkpt><trkpt lat="45.3970536" lon="10.5526822"><ele>130.0</ele><time>2026-04-08T09:31:03.489Z</time></trkpt><trkpt lat="45.3970848" lon="10.552802"><ele>130.0</ele><time>2026-04-08T09:31:04.489Z</time></trkpt><trkpt lat="45.3971263" lon="10.5529194"><ele>130.0</ele><time>2026-04-08T09:31:05.489Z</time></trkpt><trkpt lat="45.3971559" lon="10.5530442"><ele>130.0</ele><time>2026-04-08T09:31:06.49Z</time></trkpt><trkpt lat="45.3971881" lon="10.5531686"><ele>130.0</ele><time>2026-04-08T09:31:07.489Z</time></trkpt><trkpt lat="45.3972064" lon="10.553291"><ele>130.0</ele><time>2026-04-08T09:31:08.489Z</time></trkpt><trkpt lat="45.3972301" lon="10.5533994"><ele>130.0</ele><time>2026-04-08T09:31:09.489Z</time></trkpt><trkpt lat="45.3972658" lon="10.5534938"><ele>127.50000000000001</ele><time>2026-04-08T09:31:10.489Z</time></trkpt><trkpt lat="45.3972986" lon="10.553588"><ele>125.0</ele><time>2026-04-08T09:31:11.489Z</time></trkpt><trkpt lat="45.3973274" lon="10.5536727"><ele>122.5</ele><time>2026-04-08T09:31:12.489Z</time></trkpt><trkpt lat="45.3973809" lon="10.5538201"><ele>120.0</ele><time>2026-04-08T09:31:14.49Z</time></trkpt><trkpt lat="45.3974312" lon="10.5539679"><ele>117.50000000000001</ele><time>2026-04-08T09:31:16.491Z</time></trkpt><trkpt lat="45.3974566" lon="10.5540519"><ele>115.0</ele><time>2026-04-08T09:31:17.49Z</time></trkpt><trkpt lat="45.3974825" lon="10.5541425"><ele>114.66666666666667</ele><time>2026-04-08T09:31:18.49Z</time></trkpt><trkpt lat="45.3975174" lon="10.5542341"><ele>114.33333333333334</ele><time>2026-04-08T09:31:19.49Z</time></trkpt><trkpt lat="45.3975496" lon="10.5543386"><ele>114.0</ele><time>2026-04-08T09:31:20.49Z</time></trkpt><trkpt lat="45.397575" lon="10.5544458"><ele>113.66666666666666</ele><time>2026-04-08T09:31:21.491Z</time></trkpt><trkpt lat="45.3975978" lon="10.5545644"><ele>113.33333333333333</ele><time>2026-04-08T09:31:22.49Z</time></trkpt><trkpt lat="45.3976138" lon="10.5546914"><ele>113.0</ele><time>2026-04-08T09:31:23.49Z</time></trkpt><trkpt lat="45.3976153" lon="10.5548199"><ele>112.4</ele><time>2026-04-08T09:31:24.491Z</time></trkpt><trkpt lat="45.3976002" lon="10.5549515"><ele>111.80000000000001</ele><time>2026-04-08T09:31:25.49Z</time></trkpt><trkpt lat="45.3975742" lon="10.5550877"><ele>111.2</ele><time>2026-04-08T09:31:26.49Z</time></trkpt><trkpt lat="45.397534" lon="10.5552167"><ele>110.6</ele><time>2026-04-08T09:31:27.49Z</time></trkpt><trkpt lat="45.3975048" lon="10.5553489"><ele>110.0</ele><time>2026-04-08T09:31:28.491Z</time></trkpt><trkpt lat="45.3974667" lon="10.5554728"><ele>109.0</ele><time>2026-04-08T09:31:29.491Z</time></trkpt><trkpt lat="45.3974265" lon="10.5556025"><ele>108.0</ele><time>2026-04-08T09:31:30.49Z</time></trkpt><trkpt lat="45.3973984" lon="10.5557325"><ele>107.0</ele><time>2026-04-08T09:31:31.491Z</time></trkpt><trkpt lat="45.3973693" lon="10.5558658"><ele>106.0</ele><time>2026-04-08T09:31:32.491Z</time></trkpt><trkpt lat="45.3973447" lon="10.5560025"><ele>105.0</ele><time>2026-04-08T09:31:33.49Z</time></trkpt><trkpt lat="45.3973251" lon="10.5561388"><ele>105.2</ele><time>2026-04-08T09:31:34.491Z</time></trkpt><trkpt lat="45.3973104" lon="10.5562777"><ele>105.4</ele><time>2026-04-08T09:31:35.49Z</time></trkpt><trkpt lat="45.3972951" lon="10.5564124"><ele>105.6</ele><time>2026-04-08T09:31:36.491Z</time></trkpt><trkpt lat="45.3972834" lon="10.5565493"><ele>105.8</ele><time>2026-04-08T09:31:37.49Z</time></trkpt><trkpt lat="45.3972654" lon="10.5566847"><ele>106.0</ele><time>2026-04-08T09:31:38.491Z</time></trkpt><trkpt lat="45.3972492" lon="10.5568259"><ele>106.0</ele><time>2026-04-08T09:31:39.49Z</time></trkpt><trkpt lat="45.3972325" lon="10.5569645"><ele>106.0</ele><time>2026-04-08T09:31:40.491Z</time></trkpt><trkpt lat="45.3972041" lon="10.5571082"><ele>106.0</ele><time>2026-04-08T09:31:41.49Z</time></trkpt><trkpt lat="45.3971596" lon="10.5572396"><ele>106.0</ele><time>2026-04-08T09:31:42.491Z</time></trkpt><trkpt lat="45.3971081" lon="10.5573552"><ele>106.0</ele><time>2026-04-08T09:31:43.49Z</time></trkpt><trkpt lat="45.3970572" lon="10.5574601"><ele>105.6</ele><time>2026-04-08T09:31:44.49Z</time></trkpt><trkpt lat="45.3969951" lon="10.5575684"><ele>105.19999999999999</ele><time>2026-04-08T09:31:45.491Z</time></trkpt><trkpt lat="45.3969294" lon="10.5576946"><ele>104.80000000000001</ele><time>2026-04-08T09:31:46.491Z</time></trkpt><trkpt lat="45.3968689" lon="10.5578333"><ele>104.4</ele><time>2026-04-08T09:31:47.49Z</time></trkpt><trkpt lat="45.3968161" lon="10.5579938"><ele>104.0</ele><time>2026-04-08T09:31:48.49Z</time></trkpt><trkpt lat="45.3967763" lon="10.5581742"><ele>104.0</ele><time>2026-04-08T09:31:49.491Z</time></trkpt><trkpt lat="45.3967523" lon="10.5583711"><ele>104.0</ele><time>2026-04-08T09:31:50.49Z</time></trkpt><trkpt lat="45.3967462" lon="10.5585812"><ele>104.0</ele><time>2026-04-08T09:31:51.49Z</time></trkpt><trkpt lat="45.3967557" lon="10.5587957"><ele>104.0</ele><time>2026-04-08T09:31:52.49Z</time></trkpt><trkpt lat="45.3967716" lon="10.5590089"><ele>104.0</ele><time>2026-04-08T09:31:53.49Z</time></trkpt><trkpt lat="45.3967853" lon="10.559231"><ele>104.0</ele><time>2026-04-08T09:31:54.491Z</time></trkpt><trkpt lat="45.3967978" lon="10.5594551"><ele>104.0</ele><time>2026-04-08T09:31:55.491Z</time></trkpt><trkpt lat="45.3968167" lon="10.5596825"><ele>104.0</ele><time>2026-04-08T09:31:56.49Z</time></trkpt><trkpt lat="45.396833" lon="10.5599175"><ele>104.0</ele><time>2026-04-08T09:31:57.49Z</time></trkpt><trkpt lat="45.3968454" lon="10.5601339"><ele>104.0</ele><time>2026-04-08T09:31:58.491Z</time></trkpt><trkpt lat="45.3968541" lon="10.5603323"><ele>104.0</ele><time>2026-04-08T09:31:59.49Z</time></trkpt><trkpt lat="45.3968614" lon="10.5605218"><ele>104.0</ele><time>2026-04-08T09:32:00.49Z</time></trkpt><trkpt lat="45.3968643" lon="10.5606963"><ele>104.0</ele><time>2026-04-08T09:32:01.492Z</time></trkpt><trkpt lat="45.396859" lon="10.5608599"><ele>104.0</ele><time>2026-04-08T09:32:02.491Z</time></trkpt><trkpt lat="45.3968477" lon="10.5610132"><ele>104.0</ele><time>2026-04-08T09:32:03.491Z</time></trkpt><trkpt lat="45.3968311" lon="10.5611642"><ele>104.0</ele><time>2026-04-08T09:32:04.491Z</time></trkpt><trkpt lat="45.3968099" lon="10.5613167"><ele>104.0</ele><time>2026-04-08T09:32:05.491Z</time></trkpt><trkpt lat="45.39678" lon="10.5614638"><ele>104.0</ele><time>2026-04-08T09:32:06.491Z</time></trkpt><trkpt lat="45.3967473" lon="10.5616095"><ele>104.0</ele><time>2026-04-08T09:32:07.491Z</time></trkpt><trkpt lat="45.3967115" lon="10.5617525"><ele>104.0</ele><time>2026-04-08T09:32:08.491Z</time></trkpt><trkpt lat="45.3966795" lon="10.5619017"><ele>104.0</ele><time>2026-04-08T09:32:09.491Z</time></trkpt><trkpt lat="45.3966482" lon="10.5620493"><ele>104.0</ele><time>2026-04-08T09:32:10.491Z</time></trkpt><trkpt lat="45.396612" lon="10.5621952"><ele>104.0</ele><time>2026-04-08T09:32:11.492Z</time></trkpt><trkpt lat="45.3965725" lon="10.5623412"><ele>104.0</ele><time>2026-04-08T09:32:12.491Z</time></trkpt><trkpt lat="45.3965284" lon="10.5624907"><ele>103.6</ele><time>2026-04-08T09:32:13.492Z</time></trkpt><trkpt lat="45.3964831" lon="10.5626337"><ele>103.2</ele><time>2026-04-08T09:32:14.491Z</time></trkpt><trkpt lat="45.3964365" lon="10.5627663"><ele>102.8</ele><time>2026-04-08T09:32:15.491Z</time></trkpt><trkpt lat="45.3963643" lon="10.5628844"><ele>102.39999999999999</ele><time>2026-04-08T09:32:16.491Z</time></trkpt><trkpt lat="45.3963263" lon="10.5629985"><ele>102.0</ele><time>2026-04-08T09:32:17.491Z</time></trkpt><trkpt lat="45.3962899" lon="10.5631121"><ele>101.83333333333333</ele><time>2026-04-08T09:32:18.491Z</time></trkpt><trkpt lat="45.3962516" lon="10.5632169"><ele>101.66666666666666</ele><time>2026-04-08T09:32:19.491Z</time></trkpt><trkpt lat="45.3962158" lon="10.5633167"><ele>101.5</ele><time>2026-04-08T09:32:20.492Z</time></trkpt><trkpt lat="45.3961785" lon="10.5633989"><ele>101.33333333333333</ele><time>2026-04-08T09:32:21.492Z</time></trkpt><trkpt lat="45.3961221" lon="10.563523"><ele>101.16666666666666</ele><time>2026-04-08T09:32:23.491Z</time></trkpt><trkpt lat="45.396105" lon="10.5636304"><ele>101.0</ele><time>2026-04-08T09:32:26.491Z</time></trkpt><trkpt lat="45.3961871" lon="10.5637235"><ele>101.0</ele><time>2026-04-08T09:32:28.492Z</time></trkpt><trkpt lat="45.3962502" lon="10.5637671"><ele>101.0</ele><time>2026-04-08T09:32:29.492Z</time></trkpt><trkpt lat="45.3963121" lon="10.5638219"><ele>101.0</ele><time>2026-04-08T09:32:30.491Z</time></trkpt><trkpt lat="45.3963429" lon="10.5639031"><ele>101.0</ele><time>2026-04-08T09:32:31.492Z</time></trkpt><trkpt lat="45.3963975" lon="10.5640197"><ele>101.0</ele><time>2026-04-08T09:32:33.492Z</time></trkpt><trkpt lat="45.3964323" lon="10.5641038"><ele>101.0</ele><time>2026-04-08T09:32:38.491Z</time></trkpt><trkpt lat="45.3964898" lon="10.5641479"><ele>101.0</ele><time>2026-04-08T09:32:59.492Z</time></trkpt><trkpt lat="45.3965646" lon="10.5642708"><ele>101.16666666666666</ele><time>2026-04-08T09:33:01.492Z</time></trkpt><trkpt lat="45.396608" lon="10.5643364"><ele>101.33333333333333</ele><time>2026-04-08T09:33:02.492Z</time></trkpt><trkpt lat="45.3966554" lon="10.564405"><ele>101.5</ele><time>2026-04-08T09:33:03.493Z</time></trkpt><trkpt lat="45.3967114" lon="10.5644871"><ele>101.66666666666666</ele><time>2026-04-08T09:33:04.493Z</time></trkpt><trkpt lat="45.3967739" lon="10.564574"><ele>101.83333333333333</ele><time>2026-04-08T09:33:05.493Z</time></trkpt><trkpt lat="45.3968392" lon="10.5646641"><ele>102.0</ele><time>2026-04-08T09:33:06.492Z</time></trkpt><trkpt lat="45.3969095" lon="10.5647555"><ele>102.0</ele><time>2026-04-08T09:33:07.492Z</time></trkpt><trkpt lat="45.3969812" lon="10.564852"><ele>102.0</ele><time>2026-04-08T09:33:08.492Z</time></trkpt><trkpt lat="45.3970556" lon="10.5649523"><ele>102.0</ele><time>2026-04-08T09:33:09.493Z</time></trkpt><trkpt lat="45.397128" lon="10.5650596"><ele>102.0</ele><time>2026-04-08T09:33:10.492Z</time></trkpt><trkpt lat="45.3972036" lon="10.5651667"><ele>102.0</ele><time>2026-04-08T09:33:11.492Z</time></trkpt><trkpt lat="45.3972831" lon="10.5652758"><ele>102.0</ele><time>2026-04-08T09:33:12.492Z</time></trkpt><trkpt lat="45.3973564" lon="10.5653983"><ele>102.0</ele><time>2026-04-08T09:33:13.492Z</time></trkpt><trkpt lat="45.3974148" lon="10.5655394"><ele>102.0</ele><time>2026-04-08T09:33:14.493Z</time></trkpt><trkpt lat="45.3974545" lon="10.5656905"><ele>102.0</ele><time>2026-04-08T09:33:15.493Z</time></trkpt><trkpt lat="45.3974857" lon="10.5658455"><ele>102.0</ele><time>2026-04-08T09:33:16.492Z</time></trkpt><trkpt lat="45.3975329" lon="10.5659883"><ele>102.0</ele><time>2026-04-08T09:33:17.492Z</time></trkpt><trkpt lat="45.3975996" lon="10.5661349"><ele>102.0</ele><time>2026-04-08T09:33:18.493Z</time></trkpt><trkpt lat="45.3976791" lon="10.5662714"><ele>102.0</ele><time>2026-04-08T09:33:19.493Z</time></trkpt><trkpt lat="45.397762" lon="10.5664012"><ele>102.0</ele><time>2026-04-08T09:33:20.493Z</time></trkpt><trkpt lat="45.3978489" lon="10.5665395"><ele>102.0</ele><time>2026-04-08T09:33:21.492Z</time></trkpt><trkpt lat="45.3979424" lon="10.5666796"><ele>102.0</ele><time>2026-04-08T09:33:22.492Z</time></trkpt><trkpt lat="45.3980426" lon="10.5668088"><ele>102.0</ele><time>2026-04-08T09:33:23.493Z</time></trkpt><trkpt lat="45.3981373" lon="10.5669274"><ele>102.75</ele><time>2026-04-08T09:33:24.492Z</time></trkpt><trkpt lat="45.3982254" lon="10.5670381"><ele>103.5</ele><time>2026-04-08T09:33:25.493Z</time></trkpt><trkpt lat="45.3983106" lon="10.5671492"><ele>104.25</ele><time>2026-04-08T09:33:26.492Z</time></trkpt><trkpt lat="45.3983958" lon="10.5672603"><ele>105.0</ele><time>2026-04-08T09:33:27.493Z</time></trkpt><trkpt lat="45.3984912" lon="10.5673751"><ele>105.0</ele><time>2026-04-08T09:33:28.492Z</time></trkpt><trkpt lat="45.3985903" lon="10.5674802"><ele>105.0</ele><time>2026-04-08T09:33:29.492Z</time></trkpt><trkpt lat="45.3986874" lon="10.5675844"><ele>105.0</ele><time>2026-04-08T09:33:30.493Z</time></trkpt><trkpt lat="45.3987809" lon="10.5676911"><ele>105.0</ele><time>2026-04-08T09:33:31.493Z</time></trkpt><trkpt lat="45.3988691" lon="10.5678024"><ele>106.0</ele><time>2026-04-08T09:33:32.493Z</time></trkpt><trkpt lat="45.398954" lon="10.5679101"><ele>107.0</ele><time>2026-04-08T09:33:33.492Z</time></trkpt><trkpt lat="45.3990386" lon="10.5680217"><ele>108.0</ele><time>2026-04-08T09:33:34.492Z</time></trkpt><trkpt lat="45.3991238" lon="10.5681346"><ele>109.0</ele><time>2026-04-08T09:33:35.494Z</time></trkpt><trkpt lat="45.3992091" lon="10.5682493"><ele>109.00000000000001</ele><time>2026-04-08T09:33:36.493Z</time></trkpt><trkpt lat="45.3992868" lon="10.5683469"><ele>109.0</ele><time>2026-04-08T09:33:37.493Z</time></trkpt><trkpt lat="45.3993572" lon="10.5684343"><ele>109.0</ele><time>2026-04-08T09:33:38.494Z</time></trkpt><trkpt lat="45.3994181" lon="10.5685088"><ele>109.0</ele><time>2026-04-08T09:33:39.494Z</time></trkpt><trkpt lat="45.399471" lon="10.5685777"><ele>109.00000000000001</ele><time>2026-04-08T09:33:40.494Z</time></trkpt><trkpt lat="45.3995231" lon="10.5686435"><ele>109.0</ele><time>2026-04-08T09:33:41.493Z</time></trkpt><trkpt lat="45.3995839" lon="10.5687483"><ele>109.83333333333334</ele><time>2026-04-08T09:33:43.493Z</time></trkpt><trkpt lat="45.3996177" lon="10.5688376"><ele>110.66666666666667</ele><time>2026-04-08T09:33:45.493Z</time></trkpt><trkpt lat="45.3995792" lon="10.5689394"><ele>111.5</ele><time>2026-04-08T09:33:47.493Z</time></trkpt><trkpt lat="45.3994847" lon="10.5690703"><ele>112.33333333333334</ele><time>2026-04-08T09:33:49.493Z</time></trkpt><trkpt lat="45.3994313" lon="10.5691413"><ele>113.16666666666667</ele><time>2026-04-08T09:33:50.494Z</time></trkpt><trkpt lat="45.3993779" lon="10.5692204"><ele>114.0</ele><time>2026-04-08T09:33:51.494Z</time></trkpt><trkpt lat="45.3993121" lon="10.5693138"><ele>114.0</ele><time>2026-04-08T09:33:52.493Z</time></trkpt><trkpt lat="45.3992405" lon="10.5694149"><ele>114.0</ele><time>2026-04-08T09:33:53.494Z</time></trkpt><trkpt lat="45.3991634" lon="10.5695166"><ele>114.0</ele><time>2026-04-08T09:33:54.493Z</time></trkpt><trkpt lat="45.39908" lon="10.56964"><ele>114.0</ele><time>2026-04-08T09:33:55.493Z</time></trkpt><trkpt lat="45.3989881" lon="10.5697655"><ele>114.75</ele><time>2026-04-08T09:33:56.494Z</time></trkpt><trkpt lat="45.3988979" lon="10.5699025"><ele>115.5</ele><time>2026-04-08T09:33:57.494Z</time></trkpt><trkpt lat="45.3988004" lon="10.5700298"><ele>116.25</ele><time>2026-04-08T09:33:58.494Z</time></trkpt><trkpt lat="45.3986974" lon="10.5701808"><ele>117.0</ele><time>2026-04-08T09:33:59.494Z</time></trkpt><trkpt lat="45.398588" lon="10.5703322"><ele>117.5</ele><time>2026-04-08T09:34:00.494Z</time></trkpt><trkpt lat="45.3984805" lon="10.5704631"><ele>118.0</ele><time>2026-04-08T09:34:01.494Z</time></trkpt><trkpt lat="45.398366" lon="10.5705832"><ele>118.5</ele><time>2026-04-08T09:34:02.493Z</time></trkpt><trkpt lat="45.3982551" lon="10.5707168"><ele>119.0</ele><time>2026-04-08T09:34:03.493Z</time></trkpt><trkpt lat="45.3981383" lon="10.5708473"><ele>119.0</ele><time>2026-04-08T09:34:04.494Z</time></trkpt><trkpt lat="45.3980087" lon="10.5709739"><ele>119.0</ele><time>2026-04-08T09:34:05.494Z</time></trkpt><trkpt lat="45.3978814" lon="10.5711061"><ele>119.0</ele><time>2026-04-08T09:34:06.493Z</time></trkpt><trkpt lat="45.3977512" lon="10.5712441"><ele>118.66666666666666</ele><time>2026-04-08T09:34:07.493Z</time></trkpt><trkpt lat="45.3976268" lon="10.571388"><ele>118.33333333333334</ele><time>2026-04-08T09:34:08.494Z</time></trkpt><trkpt lat="45.3975033" lon="10.5715364"><ele>118.0</ele><time>2026-04-08T09:34:09.493Z</time></trkpt><trkpt lat="45.3973821" lon="10.5716866"><ele>118.0</ele><time>2026-04-08T09:34:10.493Z</time></trkpt><trkpt lat="45.397267" lon="10.5718367"><ele>118.0</ele><time>2026-04-08T09:34:11.494Z</time></trkpt><trkpt lat="45.3971492" lon="10.5719785"><ele>118.0</ele><time>2026-04-08T09:34:12.494Z</time></trkpt><trkpt lat="45.3970274" lon="10.5721182"><ele>117.66666666666667</ele><time>2026-04-08T09:34:13.494Z</time></trkpt><trkpt lat="45.3969044" lon="10.5722639"><ele>117.33333333333334</ele><time>2026-04-08T09:34:14.493Z</time></trkpt><trkpt lat="45.3967824" lon="10.5724094"><ele>117.0</ele><time>2026-04-08T09:34:15.494Z</time></trkpt><trkpt lat="45.3966622" lon="10.5725493"><ele>117.0</ele><time>2026-04-08T09:34:16.493Z</time></trkpt><trkpt lat="45.3965391" lon="10.5726847"><ele>117.0</ele><time>2026-04-08T09:34:17.493Z</time></trkpt><trkpt lat="45.3964124" lon="10.572804"><ele>117.0</ele><time>2026-04-08T09:34:18.494Z</time></trkpt><trkpt lat="45.3962827" lon="10.5729082"><ele>117.5</ele><time>2026-04-08T09:34:19.493Z</time></trkpt><trkpt lat="45.3961517" lon="10.5729944"><ele>118.0</ele><time>2026-04-08T09:34:20.493Z</time></trkpt><trkpt lat="45.3960162" lon="10.5730715"><ele>118.5</ele><time>2026-04-08T09:34:21.493Z</time></trkpt><trkpt lat="45.3958829" lon="10.5731424"><ele>119.0</ele><time>2026-04-08T09:34:22.495Z</time></trkpt><trkpt lat="45.39575" lon="10.5732195"><ele>119.0</ele><time>2026-04-08T09:34:23.495Z</time></trkpt><trkpt lat="45.3956218" lon="10.573307"><ele>119.0</ele><time>2026-04-08T09:34:24.494Z</time></trkpt><trkpt lat="45.3954989" lon="10.5734147"><ele>119.0</ele><time>2026-04-08T09:34:25.494Z</time></trkpt><trkpt lat="45.3953853" lon="10.5735378"><ele>119.0</ele><time>2026-04-08T09:34:26.494Z</time></trkpt><trkpt lat="45.3952709" lon="10.5736668"><ele>119.0</ele><time>2026-04-08T09:34:27.494Z</time></trkpt><trkpt lat="45.395154" lon="10.5737786"><ele>119.0</ele><time>2026-04-08T09:34:28.494Z</time></trkpt><trkpt lat="45.3950351" lon="10.5738824"><ele>119.0</ele><time>2026-04-08T09:34:29.495Z</time></trkpt><trkpt lat="45.3949141" lon="10.5740102"><ele>119.0</ele><time>2026-04-08T09:34:30.495Z</time></trkpt><trkpt lat="45.3947832" lon="10.5741568"><ele>119.0</ele><time>2026-04-08T09:34:31.494Z</time></trkpt><trkpt lat="45.3946558" lon="10.574302"><ele>119.0</ele><time>2026-04-08T09:34:32.494Z</time></trkpt><trkpt lat="45.3945354" lon="10.5744515"><ele>119.0</ele><time>2026-04-08T09:34:33.547Z</time></trkpt><trkpt lat="45.3944128" lon="10.5746004"><ele>119.0</ele><time>2026-04-08T09:34:34.546Z</time></trkpt><trkpt lat="45.3942864" lon="10.5747451"><ele>119.0</ele><time>2026-04-08T09:34:35.546Z</time></trkpt><trkpt lat="45.3941647" lon="10.5748987"><ele>119.0</ele><time>2026-04-08T09:34:36.546Z</time></trkpt><trkpt lat="45.3940458" lon="10.5750551"><ele>119.0</ele><time>2026-04-08T09:34:37.547Z</time></trkpt><trkpt lat="45.3939248" lon="10.5752114"><ele>119.0</ele><time>2026-04-08T09:34:38.546Z</time></trkpt><trkpt lat="45.3938042" lon="10.5753695"><ele>119.0</ele><time>2026-04-08T09:34:39.547Z</time></trkpt><trkpt lat="45.3936874" lon="10.5755285"><ele>118.66666666666666</ele><time>2026-04-08T09:34:40.547Z</time></trkpt><trkpt lat="45.3935763" lon="10.5756994"><ele>118.33333333333334</ele><time>2026-04-08T09:34:41.547Z</time></trkpt><trkpt lat="45.3934747" lon="10.5758855"><ele>118.0</ele><time>2026-04-08T09:34:42.546Z</time></trkpt><trkpt lat="45.3933809" lon="10.5760745"><ele>118.66666666666667</ele><time>2026-04-08T09:34:43.546Z</time></trkpt><trkpt lat="45.3932912" lon="10.5762702"><ele>119.33333333333334</ele><time>2026-04-08T09:34:44.547Z</time></trkpt><trkpt lat="45.3931933" lon="10.5764619"><ele>120.0</ele><time>2026-04-08T09:34:45.546Z</time></trkpt><trkpt lat="45.3930825" lon="10.5766644"><ele>119.33333333333334</ele><time>2026-04-08T09:34:46.546Z</time></trkpt><trkpt lat="45.3929871" lon="10.5768559"><ele>118.66666666666667</ele><time>2026-04-08T09:34:47.546Z</time></trkpt><trkpt lat="45.3928908" lon="10.5770493"><ele>118.0</ele><time>2026-04-08T09:34:48.547Z</time></trkpt><trkpt lat="45.3927873" lon="10.5772349"><ele>118.0</ele><time>2026-04-08T09:34:49.547Z</time></trkpt><trkpt lat="45.3926798" lon="10.5774243"><ele>118.0</ele><time>2026-04-08T09:34:50.546Z</time></trkpt><trkpt lat="45.3925725" lon="10.5776092"><ele>118.0</ele><time>2026-04-08T09:34:51.547Z</time></trkpt><trkpt lat="45.3924666" lon="10.5777827"><ele>117.66666666666667</ele><time>2026-04-08T09:34:52.546Z</time></trkpt><trkpt lat="45.3923586" lon="10.5779485"><ele>117.33333333333334</ele><time>2026-04-08T09:34:53.546Z</time></trkpt><trkpt lat="45.3922539" lon="10.5781063"><ele>117.0</ele><time>2026-04-08T09:34:54.547Z</time></trkpt><trkpt lat="45.3921545" lon="10.5782638"><ele>117.0</ele><time>2026-04-08T09:34:55.546Z</time></trkpt><trkpt lat="45.3920575" lon="10.5784194"><ele>117.0</ele><time>2026-04-08T09:34:56.546Z</time></trkpt><trkpt lat="45.391947" lon="10.5785806"><ele>117.0</ele><time>2026-04-08T09:34:57.546Z</time></trkpt><trkpt lat="45.3918427" lon="10.5787349"><ele>117.0</ele><time>2026-04-08T09:34:58.547Z</time></trkpt><trkpt lat="45.3917243" lon="10.5788834"><ele>117.0</ele><time>2026-04-08T09:34:59.547Z</time></trkpt><trkpt lat="45.3916112" lon="10.5790193"><ele>117.0</ele><time>2026-04-08T09:35:00.546Z</time></trkpt><trkpt lat="45.3915144" lon="10.5791354"><ele>117.0</ele><time>2026-04-08T09:35:01.546Z</time></trkpt><trkpt lat="45.3914093" lon="10.579247"><ele>117.16666666666667</ele><time>2026-04-08T09:35:02.546Z</time></trkpt><trkpt lat="45.3913131" lon="10.5793381"><ele>117.33333333333334</ele><time>2026-04-08T09:35:03.546Z</time></trkpt><trkpt lat="45.3912372" lon="10.579426"><ele>117.5</ele><time>2026-04-08T09:35:04.547Z</time></trkpt><trkpt lat="45.3911739" lon="10.5795088"><ele>117.66666666666667</ele><time>2026-04-08T09:35:05.546Z</time></trkpt><trkpt lat="45.3911306" lon="10.5795762"><ele>117.83333333333334</ele><time>2026-04-08T09:35:06.547Z</time></trkpt><trkpt lat="45.3910927" lon="10.5796715"><ele>118.0</ele><time>2026-04-08T09:35:07.546Z</time></trkpt><trkpt lat="45.3910526" lon="10.5797591"><ele>118.66666666666667</ele><time>2026-04-08T09:35:08.546Z</time></trkpt><trkpt lat="45.3910175" lon="10.5798437"><ele>119.33333333333334</ele><time>2026-04-08T09:35:09.547Z</time></trkpt><trkpt lat="45.3909881" lon="10.5799239"><ele>120.0</ele><time>2026-04-08T09:35:10.546Z</time></trkpt><trkpt lat="45.3909536" lon="10.5800712"><ele>120.66666666666666</ele><time>2026-04-08T09:35:12.547Z</time></trkpt><trkpt lat="45.3910007" lon="10.5801615"><ele>121.33333333333333</ele><time>2026-04-08T09:35:14.546Z</time></trkpt><trkpt lat="45.3910727" lon="10.5801955"><ele>122.0</ele><time>2026-04-08T09:35:16.546Z</time></trkpt><trkpt lat="45.3911081" lon="10.5802926"><ele>122.0</ele><time>2026-04-08T09:35:18.547Z</time></trkpt><trkpt lat="45.3910898" lon="10.5804397"><ele>121.99999999999999</ele><time>2026-04-08T09:35:20.546Z</time></trkpt><trkpt lat="45.3910341" lon="10.5806068"><ele>121.99999999999999</ele><time>2026-04-08T09:35:22.546Z</time></trkpt><trkpt lat="45.3910004" lon="10.5807021"><ele>122.0</ele><time>2026-04-08T09:35:23.547Z</time></trkpt><trkpt lat="45.3909621" lon="10.5807987"><ele>122.0</ele><time>2026-04-08T09:35:24.546Z</time></trkpt><trkpt lat="45.3909172" lon="10.58091"><ele>122.0</ele><time>2026-04-08T09:35:25.546Z</time></trkpt><trkpt lat="45.3908807" lon="10.5810339"><ele>121.99999999999999</ele><time>2026-04-08T09:35:26.547Z</time></trkpt><trkpt lat="45.3908396" lon="10.5811608"><ele>121.99999999999999</ele><time>2026-04-08T09:35:27.546Z</time></trkpt><trkpt lat="45.3907864" lon="10.5812854"><ele>122.0</ele><time>2026-04-08T09:35:28.546Z</time></trkpt><trkpt lat="45.3907211" lon="10.5814071"><ele>122.0</ele><time>2026-04-08T09:35:29.546Z</time></trkpt><trkpt lat="45.3906515" lon="10.5815151"><ele>121.33333333333333</ele><time>2026-04-08T09:35:30.547Z</time></trkpt><trkpt lat="45.3906009" lon="10.5815818"><ele>120.66666666666666</ele><time>2026-04-08T09:35:31.546Z</time></trkpt><trkpt lat="45.3905519" lon="10.5816914"><ele>120.0</ele><time>2026-04-08T09:35:32.546Z</time></trkpt><trkpt lat="45.3905215" lon="10.5817896"><ele>119.33333333333334</ele><time>2026-04-08T09:35:33.547Z</time></trkpt><trkpt lat="45.3904877" lon="10.5819141"><ele>118.66666666666667</ele><time>2026-04-08T09:35:34.547Z</time></trkpt><trkpt lat="45.3904486" lon="10.5820507"><ele>118.0</ele><time>2026-04-08T09:35:35.547Z</time></trkpt><trkpt lat="45.3904064" lon="10.582182"><ele>118.0</ele><time>2026-04-08T09:35:36.547Z</time></trkpt><trkpt lat="45.3903525" lon="10.582328"><ele>118.0</ele><time>2026-04-08T09:35:37.546Z</time></trkpt><trkpt lat="45.3902934" lon="10.5824915"><ele>118.0</ele><time>2026-04-08T09:35:38.547Z</time></trkpt><trkpt lat="45.3902408" lon="10.5827102"><ele>118.0</ele><time>2026-04-08T09:35:39.546Z</time></trkpt><trkpt lat="45.3901772" lon="10.5828487"><ele>118.4</ele><time>2026-04-08T09:35:40.547Z</time></trkpt><trkpt lat="45.3901141" lon="10.582971"><ele>118.80000000000001</ele><time>2026-04-08T09:35:41.546Z</time></trkpt><trkpt lat="45.3900597" lon="10.5830858"><ele>119.2</ele><time>2026-04-08T09:35:42.546Z</time></trkpt><trkpt lat="45.3900056" lon="10.5831868"><ele>119.6</ele><time>2026-04-08T09:35:43.547Z</time></trkpt><trkpt lat="45.3899566" lon="10.5832874"><ele>120.0</ele><time>2026-04-08T09:35:44.547Z</time></trkpt><trkpt lat="45.3899108" lon="10.58337"><ele>120.0</ele><time>2026-04-08T09:35:45.547Z</time></trkpt><trkpt lat="45.3898761" lon="10.5835005"><ele>120.0</ele><time>2026-04-08T09:35:47.547Z</time></trkpt><trkpt lat="45.3898986" lon="10.5836279"><ele>120.0</ele><time>2026-04-08T09:35:49.546Z</time></trkpt><trkpt lat="45.3899333" lon="10.5837769"><ele>120.0</ele><time>2026-04-08T09:35:51.546Z</time></trkpt><trkpt lat="45.3900178" lon="10.5838956"><ele>120.0</ele><time>2026-04-08T09:35:53.547Z</time></trkpt><trkpt lat="45.3900835" lon="10.5839274"><ele>119.83333333333333</ele><time>2026-04-08T09:35:54.546Z</time></trkpt><trkpt lat="45.3901562" lon="10.5839445"><ele>119.66666666666666</ele><time>2026-04-08T09:35:55.546Z</time></trkpt><trkpt lat="45.390236" lon="10.5839527"><ele>119.5</ele><time>2026-04-08T09:35:56.547Z</time></trkpt><trkpt lat="45.3903187" lon="10.5839595"><ele>119.33333333333333</ele><time>2026-04-08T09:35:57.547Z</time></trkpt><trkpt lat="45.3903988" lon="10.5839589"><ele>119.16666666666666</ele><time>2026-04-08T09:35:58.546Z</time></trkpt><trkpt lat="45.3904816" lon="10.5839489"><ele>119.0</ele><time>2026-04-08T09:35:59.546Z</time></trkpt><trkpt lat="45.3905673" lon="10.5839416"><ele>118.99999999999999</ele><time>2026-04-08T09:36:00.546Z</time></trkpt><trkpt lat="45.3906523" lon="10.5839354"><ele>119.0</ele><time>2026-04-08T09:36:01.547Z</time></trkpt><trkpt lat="45.3907384" lon="10.5839343"><ele>119.0</ele><time>2026-04-08T09:36:02.546Z</time></trkpt><trkpt lat="45.3908147" lon="10.5839307"><ele>119.0</ele><time>2026-04-08T09:36:03.547Z</time></trkpt><trkpt lat="45.3908853" lon="10.5839271"><ele>118.99999999999999</ele><time>2026-04-08T09:36:04.546Z</time></trkpt><trkpt lat="45.3909519" lon="10.5839311"><ele>119.0</ele><time>2026-04-08T09:36:05.547Z</time></trkpt><trkpt lat="45.3910603" lon="10.5839565"><ele>118.99999999999999</ele><time>2026-04-08T09:36:07.546Z</time></trkpt><trkpt lat="45.3911614" lon="10.584028"><ele>119.0</ele><time>2026-04-08T09:36:09.546Z</time></trkpt><trkpt lat="45.3912167" lon="10.5840886"><ele>119.0</ele><time>2026-04-08T09:36:10.547Z</time></trkpt><trkpt lat="45.3912773" lon="10.5841608"><ele>119.0</ele><time>2026-04-08T09:36:11.547Z</time></trkpt><trkpt lat="45.3913411" lon="10.5842326"><ele>118.99999999999999</ele><time>2026-04-08T09:36:12.546Z</time></trkpt><trkpt lat="45.3914079" lon="10.5843061"><ele>119.0</ele><time>2026-04-08T09:36:13.546Z</time></trkpt><trkpt lat="45.391469" lon="10.5843759"><ele>118.33333333333333</ele><time>2026-04-08T09:36:14.546Z</time></trkpt><trkpt lat="45.391528" lon="10.5844428"><ele>117.66666666666666</ele><time>2026-04-08T09:36:15.546Z</time></trkpt><trkpt lat="45.391582" lon="10.5845048"><ele>117.0</ele><time>2026-04-08T09:36:16.547Z</time></trkpt><trkpt lat="45.3916317" lon="10.5845606"><ele>116.33333333333334</ele><time>2026-04-08T09:36:17.547Z</time></trkpt><trkpt lat="45.3916812" lon="10.5846204"><ele>115.66666666666667</ele><time>2026-04-08T09:36:18.546Z</time></trkpt><trkpt lat="45.391754" lon="10.5847465"><ele>115.0</ele><time>2026-04-08T09:36:20.546Z</time></trkpt><trkpt lat="45.3917807" lon="10.5848887"><ele>115.0</ele><time>2026-04-08T09:36:22.546Z</time></trkpt><trkpt lat="45.3917631" lon="10.5850852"><ele>115.0</ele><time>2026-04-08T09:36:24.547Z</time></trkpt><trkpt lat="45.3917434" lon="10.5852055"><ele>115.0</ele><time>2026-04-08T09:36:25.546Z</time></trkpt><trkpt lat="45.3917204" lon="10.5853335"><ele>115.0</ele><time>2026-04-08T09:36:26.546Z</time></trkpt><trkpt lat="45.391699" lon="10.5854797"><ele>115.0</ele><time>2026-04-08T09:36:27.547Z</time></trkpt><trkpt lat="45.3916775" lon="10.5856393"><ele>115.0</ele><time>2026-04-08T09:36:28.546Z</time></trkpt><trkpt lat="45.3916571" lon="10.58578"><ele>115.0</ele><time>2026-04-08T09:36:29.547Z</time></trkpt><trkpt lat="45.3916535" lon="10.5859061"><ele>115.0</ele><time>2026-04-08T09:36:30.546Z</time></trkpt><trkpt lat="45.3916289" lon="10.5860261"><ele>115.0</ele><time>2026-04-08T09:36:31.546Z</time></trkpt><trkpt lat="45.3916023" lon="10.5861539"><ele>115.0</ele><time>2026-04-08T09:36:32.496Z</time></trkpt><trkpt lat="45.3915547" lon="10.586274"><ele>115.00000000000001</ele><time>2026-04-08T09:36:33.497Z</time></trkpt><trkpt lat="45.391513" lon="10.586408"><ele>115.0</ele><time>2026-04-08T09:36:34.497Z</time></trkpt><trkpt lat="45.3914638" lon="10.5865258"><ele>115.0</ele><time>2026-04-08T09:36:35.497Z</time></trkpt><trkpt lat="45.391414" lon="10.5866247"><ele>115.0</ele><time>2026-04-08T09:36:36.496Z</time></trkpt><trkpt lat="45.3913718" lon="10.586721"><ele>115.00000000000001</ele><time>2026-04-08T09:36:37.497Z</time></trkpt><trkpt lat="45.3913394" lon="10.586819"><ele>115.0</ele><time>2026-04-08T09:36:38.497Z</time></trkpt><trkpt lat="45.3913135" lon="10.5869195"><ele>115.00000000000001</ele><time>2026-04-08T09:36:39.496Z</time></trkpt><trkpt lat="45.3913001" lon="10.5870181"><ele>115.0</ele><time>2026-04-08T09:36:40.497Z</time></trkpt><trkpt lat="45.3912978" lon="10.5871132"><ele>115.0</ele><time>2026-04-08T09:36:41.496Z</time></trkpt><trkpt lat="45.3913049" lon="10.5872882"><ele>115.0</ele><time>2026-04-08T09:36:43.497Z</time></trkpt><trkpt lat="45.3913241" lon="10.5873769"><ele>115.00000000000001</ele><time>2026-04-08T09:36:44.497Z</time></trkpt><trkpt lat="45.3913565" lon="10.5874588"><ele>115.0</ele><time>2026-04-08T09:36:45.498Z</time></trkpt><trkpt lat="45.3914432" lon="10.5875831"><ele>114.99999999999999</ele><time>2026-04-08T09:36:47.497Z</time></trkpt><trkpt lat="45.3914978" lon="10.5876296"><ele>115.0</ele><time>2026-04-08T09:36:48.498Z</time></trkpt><trkpt lat="45.3915528" lon="10.5876733"><ele>114.99999999999999</ele><time>2026-04-08T09:36:49.498Z</time></trkpt><trkpt lat="45.3916307" lon="10.5877644"><ele>114.99999999999999</ele><time>2026-04-08T09:36:51.497Z</time></trkpt><trkpt lat="45.3916473" lon="10.5878555"><ele>115.0</ele><time>2026-04-08T09:37:23.497Z</time></trkpt><trkpt lat="45.3916896" lon="10.587788"><ele>114.99999999999999</ele><time>2026-04-08T09:38:04.499Z</time></trkpt><trkpt lat="45.3916301" lon="10.5878362"><ele>114.99999999999999</ele><time>2026-04-08T09:39:18.659Z</time></trkpt><trkpt lat="45.3917893" lon="10.5880418"><ele>115.50000000000001</ele><time>2026-04-08T09:39:21.501Z</time></trkpt><trkpt lat="45.3918244" lon="10.5881354"><ele>116.0</ele><time>2026-04-08T09:39:22.5Z</time></trkpt><trkpt lat="45.3918487" lon="10.5882197"><ele>116.5</ele><time>2026-04-08T09:39:23.5Z</time></trkpt><trkpt lat="45.3918887" lon="10.5883788"><ele>117.0</ele><time>2026-04-08T09:39:25.501Z</time></trkpt><trkpt lat="45.3919229" lon="10.5884969"><ele>117.50000000000001</ele><time>2026-04-08T09:39:27.501Z</time></trkpt><trkpt lat="45.3919413" lon="10.5886064"><ele>118.0</ele><time>2026-04-08T09:39:29.501Z</time></trkpt><trkpt lat="45.3919804" lon="10.5887051"><ele>118.0</ele><time>2026-04-08T09:42:23.555Z</time></trkpt><trkpt lat="45.391991" lon="10.5888029"><ele>118.0</ele><time>2026-04-08T09:42:24.556Z</time></trkpt><trkpt lat="45.392004" lon="10.5888993"><ele>118.0</ele><time>2026-04-08T09:42:25.556Z</time></trkpt><trkpt lat="45.3920162" lon="10.5889954"><ele>118.0</ele><time>2026-04-08T09:42:26.555Z</time></trkpt><trkpt lat="45.3920267" lon="10.5890901"><ele>118.0</ele><time>2026-04-08T09:42:27.556Z</time></trkpt><trkpt lat="45.3920382" lon="10.5891972"><ele>118.0</ele><time>2026-04-08T09:42:28.556Z</time></trkpt><trkpt lat="45.3920443" lon="10.5893188"><ele>118.0</ele><time>2026-04-08T09:42:29.556Z</time></trkpt><trkpt lat="45.3920446" lon="10.5894469"><ele>117.83333333333334</ele><time>2026-04-08T09:42:30.555Z</time></trkpt><trkpt lat="45.392043" lon="10.5895782"><ele>117.66666666666667</ele><time>2026-04-08T09:42:31.555Z</time></trkpt><trkpt lat="45.392041" lon="10.5896933"><ele>117.5</ele><time>2026-04-08T09:42:32.556Z</time></trkpt><trkpt lat="45.3920407" lon="10.5897962"><ele>117.33333333333334</ele><time>2026-04-08T09:42:33.555Z</time></trkpt><trkpt lat="45.3920392" lon="10.5898951"><ele>117.16666666666667</ele><time>2026-04-08T09:42:34.555Z</time></trkpt><trkpt lat="45.3920377" lon="10.5899921"><ele>117.0</ele><time>2026-04-08T09:42:35.555Z</time></trkpt><trkpt lat="45.3920361" lon="10.5901034"><ele>117.0</ele><time>2026-04-08T09:42:36.556Z</time></trkpt><trkpt lat="45.3920406" lon="10.5902271"><ele>117.0</ele><time>2026-04-08T09:42:37.556Z</time></trkpt><trkpt lat="45.3920475" lon="10.5903511"><ele>117.0</ele><time>2026-04-08T09:42:38.555Z</time></trkpt><trkpt lat="45.3920507" lon="10.5904753"><ele>117.0</ele><time>2026-04-08T09:42:39.556Z</time></trkpt><trkpt lat="45.3920589" lon="10.590589"><ele>117.0</ele><time>2026-04-08T09:42:40.555Z</time></trkpt><trkpt lat="45.392071" lon="10.5906958"><ele>117.0</ele><time>2026-04-08T09:42:41.555Z</time></trkpt><trkpt lat="45.3920895" lon="10.5908029"><ele>116.83333333333333</ele><time>2026-04-08T09:42:42.556Z</time></trkpt><trkpt lat="45.3921117" lon="10.590919"><ele>116.66666666666666</ele><time>2026-04-08T09:42:43.556Z</time></trkpt><trkpt lat="45.3921543" lon="10.5910296"><ele>116.5</ele><time>2026-04-08T09:42:44.555Z</time></trkpt><trkpt lat="45.3922032" lon="10.5911308"><ele>116.33333333333333</ele><time>2026-04-08T09:42:45.555Z</time></trkpt><trkpt lat="45.3922621" lon="10.5912225"><ele>116.16666666666666</ele><time>2026-04-08T09:42:46.556Z</time></trkpt><trkpt lat="45.3923196" lon="10.5913153"><ele>116.0</ele><time>2026-04-08T09:42:47.556Z</time></trkpt><trkpt lat="45.3923752" lon="10.5914143"><ele>116.66666666666666</ele><time>2026-04-08T09:42:48.555Z</time></trkpt><trkpt lat="45.3924246" lon="10.5915177"><ele>117.33333333333333</ele><time>2026-04-08T09:42:49.556Z</time></trkpt><trkpt lat="45.3924706" lon="10.5916231"><ele>118.0</ele><time>2026-04-08T09:42:50.555Z</time></trkpt><trkpt lat="45.3925123" lon="10.5917253"><ele>118.66666666666666</ele><time>2026-04-08T09:42:51.555Z</time></trkpt><trkpt lat="45.3925452" lon="10.5918226"><ele>119.33333333333333</ele><time>2026-04-08T09:42:52.556Z</time></trkpt><trkpt lat="45.3925714" lon="10.5919157"><ele>120.0</ele><time>2026-04-08T09:42:53.556Z</time></trkpt><trkpt lat="45.3925953" lon="10.5920162"><ele>120.0</ele><time>2026-04-08T09:42:54.556Z</time></trkpt><trkpt lat="45.3926086" lon="10.5921247"><ele>120.0</ele><time>2026-04-08T09:42:55.555Z</time></trkpt><trkpt lat="45.3926116" lon="10.5922233"><ele>120.0</ele><time>2026-04-08T09:42:56.556Z</time></trkpt><trkpt lat="45.3926087" lon="10.5923175"><ele>120.0</ele><time>2026-04-08T09:42:57.555Z</time></trkpt><trkpt lat="45.3925974" lon="10.5924192"><ele>120.0</ele><time>2026-04-08T09:42:58.555Z</time></trkpt><trkpt lat="45.3925747" lon="10.5925119"><ele>120.0</ele><time>2026-04-08T09:42:59.556Z</time></trkpt><trkpt lat="45.3925546" lon="10.5925989"><ele>120.0</ele><time>2026-04-08T09:43:00.556Z</time></trkpt><trkpt lat="45.3925412" lon="10.5926885"><ele>120.0</ele><time>2026-04-08T09:43:01.555Z</time></trkpt><trkpt lat="45.3925397" lon="10.5927815"><ele>120.0</ele><time>2026-04-08T09:43:02.556Z</time></trkpt><trkpt lat="45.3925783" lon="10.5929382"><ele>120.0</ele><time>2026-04-08T09:43:04.556Z</time></trkpt><trkpt lat="45.3926538" lon="10.5930534"><ele>120.0</ele><time>2026-04-08T09:43:06.555Z</time></trkpt><trkpt lat="45.3927775" lon="10.5931313"><ele>120.0</ele><time>2026-04-08T09:43:08.555Z</time></trkpt><trkpt lat="45.3928554" lon="10.5931628"><ele>119.83333333333333</ele><time>2026-04-08T09:43:09.506Z</time></trkpt><trkpt lat="45.3929369" lon="10.5931916"><ele>119.66666666666666</ele><time>2026-04-08T09:43:10.505Z</time></trkpt><trkpt lat="45.3930164" lon="10.5932144"><ele>119.5</ele><time>2026-04-08T09:43:11.505Z</time></trkpt><trkpt lat="45.3930921" lon="10.593237"><ele>119.33333333333333</ele><time>2026-04-08T09:43:12.505Z</time></trkpt><trkpt lat="45.3931713" lon="10.5932659"><ele>119.16666666666666</ele><time>2026-04-08T09:43:13.505Z</time></trkpt><trkpt lat="45.393247" lon="10.5933159"><ele>119.0</ele><time>2026-04-08T09:43:14.505Z</time></trkpt><trkpt lat="45.3933177" lon="10.5933763"><ele>118.57142857142857</ele><time>2026-04-08T09:43:15.506Z</time></trkpt><trkpt lat="45.3933759" lon="10.5934435"><ele>118.14285714285714</ele><time>2026-04-08T09:43:16.506Z</time></trkpt><trkpt lat="45.3934277" lon="10.5935006"><ele>117.71428571428572</ele><time>2026-04-08T09:43:17.505Z</time></trkpt><trkpt lat="45.3934852" lon="10.593556"><ele>117.28571428571429</ele><time>2026-04-08T09:43:18.506Z</time></trkpt><trkpt lat="45.3935426" lon="10.5936034"><ele>116.85714285714286</ele><time>2026-04-08T09:43:19.505Z</time></trkpt><trkpt lat="45.3936048" lon="10.5936466"><ele>116.42857142857144</ele><time>2026-04-08T09:43:20.505Z</time></trkpt><trkpt lat="45.3936717" lon="10.5936901"><ele>116.00000000000001</ele><time>2026-04-08T09:43:21.505Z</time></trkpt><trkpt lat="45.3937378" lon="10.593733"><ele>115.99999999999999</ele><time>2026-04-08T09:43:22.506Z</time></trkpt><trkpt lat="45.393804" lon="10.5937748"><ele>116.0</ele><time>2026-04-08T09:43:23.505Z</time></trkpt><trkpt lat="45.3938595" lon="10.5938358"><ele>116.0</ele><time>2026-04-08T09:43:24.506Z</time></trkpt><trkpt lat="45.3939192" lon="10.5939779"><ele>116.0</ele><time>2026-04-08T09:43:26.505Z</time></trkpt><trkpt lat="45.3939316" lon="10.5940696"><ele>115.99999999999999</ele><time>2026-04-08T09:43:27.505Z</time></trkpt><trkpt lat="45.3939316" lon="10.5941718"><ele>116.0</ele><time>2026-04-08T09:43:28.505Z</time></trkpt><trkpt lat="45.393934" lon="10.5942859"><ele>115.66666666666666</ele><time>2026-04-08T09:43:29.506Z</time></trkpt><trkpt lat="45.3939303" lon="10.5944037"><ele>115.33333333333333</ele><time>2026-04-08T09:43:30.505Z</time></trkpt><trkpt lat="45.3939276" lon="10.5945233"><ele>115.0</ele><time>2026-04-08T09:43:31.506Z</time></trkpt><trkpt lat="45.3939287" lon="10.5946287"><ele>114.66666666666666</ele><time>2026-04-08T09:43:32.505Z</time></trkpt><trkpt lat="45.3939243" lon="10.5947285"><ele>114.33333333333333</ele><time>2026-04-08T09:43:33.505Z</time></trkpt><trkpt lat="45.3939169" lon="10.5948331"><ele>114.0</ele><time>2026-04-08T09:43:34.506Z</time></trkpt><trkpt lat="45.3939088" lon="10.5949432"><ele>113.85714285714285</ele><time>2026-04-08T09:43:35.505Z</time></trkpt><trkpt lat="45.3938979" lon="10.595051"><ele>113.7142857142857</ele><time>2026-04-08T09:43:36.505Z</time></trkpt><trkpt lat="45.3938847" lon="10.5951673"><ele>113.57142857142857</ele><time>2026-04-08T09:43:37.506Z</time></trkpt><trkpt lat="45.3938757" lon="10.5952858"><ele>113.42857142857142</ele><time>2026-04-08T09:43:38.505Z</time></trkpt><trkpt lat="45.3938644" lon="10.5953905"><ele>113.28571428571428</ele><time>2026-04-08T09:43:39.506Z</time></trkpt><trkpt lat="45.3938564" lon="10.5954839"><ele>113.14285714285714</ele><time>2026-04-08T09:43:40.505Z</time></trkpt><trkpt lat="45.3938552" lon="10.5955762"><ele>113.0</ele><time>2026-04-08T09:43:41.505Z</time></trkpt><trkpt lat="45.3938704" lon="10.5956651"><ele>113.49999999999999</ele><time>2026-04-08T09:43:42.506Z</time></trkpt><trkpt lat="45.3939388" lon="10.5958069"><ele>114.0</ele><time>2026-04-08T09:43:44.506Z</time></trkpt><trkpt lat="45.3939909" lon="10.5958588"><ele>114.5</ele><time>2026-04-08T09:43:45.506Z</time></trkpt><trkpt lat="45.3940569" lon="10.5959015"><ele>115.0</ele><time>2026-04-08T09:43:46.506Z</time></trkpt><trkpt lat="45.3941307" lon="10.5959429"><ele>115.49999999999999</ele><time>2026-04-08T09:43:47.505Z</time></trkpt><trkpt lat="45.3942111" lon="10.5959784"><ele>116.0</ele><time>2026-04-08T09:43:48.506Z</time></trkpt><trkpt lat="45.3942845" lon="10.5960111"><ele>115.99999999999999</ele><time>2026-04-08T09:43:49.505Z</time></trkpt><trkpt lat="45.3943532" lon="10.5960353"><ele>116.0</ele><time>2026-04-08T09:43:50.505Z</time></trkpt><trkpt lat="45.3944226" lon="10.5960639"><ele>116.0</ele><time>2026-04-08T09:43:51.506Z</time></trkpt><trkpt lat="45.3944888" lon="10.5960897"><ele>116.0</ele><time>2026-04-08T09:43:52.506Z</time></trkpt><trkpt lat="45.3946127" lon="10.5961344"><ele>115.99999999999999</ele><time>2026-04-08T09:43:54.506Z</time></trkpt><trkpt lat="45.3946838" lon="10.5961532"><ele>116.0</ele><time>2026-04-08T09:43:55.506Z</time></trkpt><trkpt lat="45.3947585" lon="10.5961769"><ele>115.33333333333333</ele><time>2026-04-08T09:43:56.507Z</time></trkpt><trkpt lat="45.39484" lon="10.5962021"><ele>114.66666666666666</ele><time>2026-04-08T09:43:57.506Z</time></trkpt><trkpt lat="45.3949267" lon="10.5962299"><ele>114.0</ele><time>2026-04-08T09:43:58.507Z</time></trkpt><trkpt lat="45.3950094" lon="10.596254"><ele>113.33333333333334</ele><time>2026-04-08T09:43:59.506Z</time></trkpt><trkpt lat="45.3950885" lon="10.5962877"><ele>112.66666666666667</ele><time>2026-04-08T09:44:00.507Z</time></trkpt><trkpt lat="45.3951653" lon="10.5963243"><ele>112.0</ele><time>2026-04-08T09:44:01.507Z</time></trkpt><trkpt lat="45.3952334" lon="10.5963612"><ele>112.0</ele><time>2026-04-08T09:44:02.507Z</time></trkpt><trkpt lat="45.3952981" lon="10.5964072"><ele>112.0</ele><time>2026-04-08T09:44:03.507Z</time></trkpt><trkpt lat="45.3953585" lon="10.5964711"><ele>112.0</ele><time>2026-04-08T09:44:04.506Z</time></trkpt><trkpt lat="45.3954126" lon="10.5965415"><ele>112.0</ele><time>2026-04-08T09:44:05.507Z</time></trkpt><trkpt lat="45.3954592" lon="10.5966223"><ele>112.0</ele><time>2026-04-08T09:44:06.507Z</time></trkpt><trkpt lat="45.3955059" lon="10.5967103"><ele>112.0</ele><time>2026-04-08T09:44:07.507Z</time></trkpt><trkpt lat="45.3955518" lon="10.5967964"><ele>112.0</ele><time>2026-04-08T09:44:08.507Z</time></trkpt><trkpt lat="45.3955989" lon="10.5968745"><ele>111.33333333333334</ele><time>2026-04-08T09:44:09.506Z</time></trkpt><trkpt lat="45.3956527" lon="10.5969482"><ele>110.66666666666667</ele><time>2026-04-08T09:44:10.506Z</time></trkpt><trkpt lat="45.3957145" lon="10.5970077"><ele>110.0</ele><time>2026-04-08T09:44:11.507Z</time></trkpt><trkpt lat="45.3957819" lon="10.597053"><ele>109.33333333333334</ele><time>2026-04-08T09:44:12.506Z</time></trkpt><trkpt lat="45.3958512" lon="10.5970896"><ele>108.66666666666667</ele><time>2026-04-08T09:44:13.506Z</time></trkpt><trkpt lat="45.3959305" lon="10.5971211"><ele>108.0</ele><time>2026-04-08T09:44:14.506Z</time></trkpt><trkpt lat="45.3960103" lon="10.5971434"><ele>108.0</ele><time>2026-04-08T09:44:15.506Z</time></trkpt><trkpt lat="45.3960882" lon="10.5971624"><ele>108.0</ele><time>2026-04-08T09:44:16.507Z</time></trkpt><trkpt lat="45.3961683" lon="10.5971798"><ele>108.0</ele><time>2026-04-08T09:44:17.507Z</time></trkpt><trkpt lat="45.3962489" lon="10.5971972"><ele>108.0</ele><time>2026-04-08T09:44:18.507Z</time></trkpt><trkpt lat="45.396328" lon="10.5972383"><ele>108.0</ele><time>2026-04-08T09:44:19.506Z</time></trkpt><trkpt lat="45.3964153" lon="10.5972768"><ele>108.0</ele><time>2026-04-08T09:44:20.507Z</time></trkpt><trkpt lat="45.3965081" lon="10.5972735"><ele>107.16666666666667</ele><time>2026-04-08T09:44:21.506Z</time></trkpt><trkpt lat="45.3965962" lon="10.5972487"><ele>106.33333333333334</ele><time>2026-04-08T09:44:22.507Z</time></trkpt><trkpt lat="45.3966729" lon="10.5972067"><ele>105.5</ele><time>2026-04-08T09:44:23.506Z</time></trkpt><trkpt lat="45.3967476" lon="10.5971677"><ele>104.66666666666667</ele><time>2026-04-08T09:44:24.507Z</time></trkpt><trkpt lat="45.3968271" lon="10.5971365"><ele>103.83333333333334</ele><time>2026-04-08T09:44:25.507Z</time></trkpt><trkpt lat="45.3969068" lon="10.5971163"><ele>103.0</ele><time>2026-04-08T09:44:26.506Z</time></trkpt><trkpt lat="45.3969902" lon="10.5971051"><ele>103.00000000000001</ele><time>2026-04-08T09:44:27.506Z</time></trkpt><trkpt lat="45.397073" lon="10.597109"><ele>103.0</ele><time>2026-04-08T09:44:28.507Z</time></trkpt><trkpt lat="45.3971435" lon="10.5971093"><ele>103.0</ele><time>2026-04-08T09:44:29.507Z</time></trkpt><trkpt lat="45.3972487" lon="10.5971068"><ele>103.0</ele><time>2026-04-08T09:44:31.507Z</time></trkpt><trkpt lat="45.3973036" lon="10.5971792"><ele>103.00000000000001</ele><time>2026-04-08T09:44:33.506Z</time></trkpt><trkpt lat="45.397303" lon="10.597283"><ele>103.0</ele><time>2026-04-08T09:44:35.506Z</time></trkpt><trkpt lat="45.3972995" lon="10.5973849"><ele>103.16666666666667</ele><time>2026-04-08T09:44:36.507Z</time></trkpt><trkpt lat="45.3972834" lon="10.597496"><ele>103.33333333333334</ele><time>2026-04-08T09:44:37.506Z</time></trkpt><trkpt lat="45.3972711" lon="10.5976005"><ele>103.5</ele><time>2026-04-08T09:44:38.506Z</time></trkpt><trkpt lat="45.3972563" lon="10.5977024"><ele>103.66666666666666</ele><time>2026-04-08T09:44:39.506Z</time></trkpt><trkpt lat="45.3972349" lon="10.5978147"><ele>103.83333333333333</ele><time>2026-04-08T09:44:40.506Z</time></trkpt><trkpt lat="45.397214" lon="10.5979402"><ele>104.0</ele><time>2026-04-08T09:44:41.507Z</time></trkpt><trkpt lat="45.3971917" lon="10.5980536"><ele>103.83333333333333</ele><time>2026-04-08T09:44:42.506Z</time></trkpt><trkpt lat="45.3971663" lon="10.5981606"><ele>103.66666666666666</ele><time>2026-04-08T09:44:43.506Z</time></trkpt><trkpt lat="45.3971357" lon="10.5982702"><ele>103.5</ele><time>2026-04-08T09:44:44.508Z</time></trkpt><trkpt lat="45.3971023" lon="10.5983875"><ele>103.33333333333334</ele><time>2026-04-08T09:44:45.507Z</time></trkpt><trkpt lat="45.3970676" lon="10.5985032"><ele>103.16666666666667</ele><time>2026-04-08T09:44:46.507Z</time></trkpt><trkpt lat="45.3970347" lon="10.5986217"><ele>103.0</ele><time>2026-04-08T09:44:47.507Z</time></trkpt><trkpt lat="45.3970022" lon="10.598746"><ele>102.66666666666667</ele><time>2026-04-08T09:44:48.508Z</time></trkpt><trkpt lat="45.3969711" lon="10.5988764"><ele>102.33333333333334</ele><time>2026-04-08T09:44:49.507Z</time></trkpt><trkpt lat="45.3969425" lon="10.5990096"><ele>102.0</ele><time>2026-04-08T09:44:50.508Z</time></trkpt><trkpt lat="45.3969205" lon="10.5991301"><ele>101.66666666666666</ele><time>2026-04-08T09:44:51.508Z</time></trkpt><trkpt lat="45.3969062" lon="10.5992243"><ele>101.33333333333333</ele><time>2026-04-08T09:44:52.507Z</time></trkpt><trkpt lat="45.3969024" lon="10.5993392"><ele>101.0</ele><time>2026-04-08T09:44:55.508Z</time></trkpt><trkpt lat="45.3968713" lon="10.5994533"><ele>101.33333333333333</ele><time>2026-04-08T09:45:09.508Z</time></trkpt><trkpt lat="45.3968277" lon="10.5996191"><ele>101.66666666666666</ele><time>2026-04-08T09:45:11.507Z</time></trkpt><trkpt lat="45.3967988" lon="10.5997078"><ele>102.0</ele><time>2026-04-08T09:45:12.507Z</time></trkpt><trkpt lat="45.3967698" lon="10.5997969"><ele>102.33333333333334</ele><time>2026-04-08T09:45:13.508Z</time></trkpt><trkpt lat="45.396729" lon="10.5998772"><ele>102.66666666666667</ele><time>2026-04-08T09:45:14.507Z</time></trkpt><trkpt lat="45.3966841" lon="10.5999573"><ele>103.0</ele><time>2026-04-08T09:45:15.508Z</time></trkpt><trkpt lat="45.3966149" lon="10.6001067"><ele>103.00000000000001</ele><time>2026-04-08T09:45:17.507Z</time></trkpt><trkpt lat="45.3965877" lon="10.6001897"><ele>103.0</ele><time>2026-04-08T09:45:18.508Z</time></trkpt><trkpt lat="45.3965587" lon="10.600277"><ele>103.0</ele><time>2026-04-08T09:45:19.507Z</time></trkpt><trkpt lat="45.3965318" lon="10.6003679"><ele>103.0</ele><time>2026-04-08T09:45:20.507Z</time></trkpt><trkpt lat="45.3965104" lon="10.6004541"><ele>103.00000000000001</ele><time>2026-04-08T09:45:21.507Z</time></trkpt><trkpt lat="45.3964597" lon="10.6006079"><ele>103.0</ele><time>2026-04-08T09:45:23.507Z</time></trkpt><trkpt lat="45.3964137" lon="10.6007678"><ele>102.66666666666667</ele><time>2026-04-08T09:45:25.508Z</time></trkpt><trkpt lat="45.3963508" lon="10.6009218"><ele>102.33333333333334</ele><time>2026-04-08T09:45:27.507Z</time></trkpt><trkpt lat="45.3963202" lon="10.6010068"><ele>102.0</ele><time>2026-04-08T09:45:28.507Z</time></trkpt><trkpt lat="45.3962946" lon="10.6011063"><ele>101.66666666666666</ele><time>2026-04-08T09:45:29.507Z</time></trkpt><trkpt lat="45.3962641" lon="10.6012105"><ele>101.33333333333333</ele><time>2026-04-08T09:45:30.507Z</time></trkpt><trkpt lat="45.3962355" lon="10.6013152"><ele>101.0</ele><time>2026-04-08T09:45:31.509Z</time></trkpt><trkpt lat="45.3962043" lon="10.6014262"><ele>100.99999999999999</ele><time>2026-04-08T09:45:32.509Z</time></trkpt><trkpt lat="45.3961785" lon="10.6015395"><ele>101.0</ele><time>2026-04-08T09:45:33.508Z</time></trkpt><trkpt lat="45.3961509" lon="10.6016468"><ele>101.0</ele><time>2026-04-08T09:45:34.509Z</time></trkpt><trkpt lat="45.3961196" lon="10.6017549"><ele>101.0</ele><time>2026-04-08T09:45:35.508Z</time></trkpt><trkpt lat="45.3960903" lon="10.6018604"><ele>100.99999999999999</ele><time>2026-04-08T09:45:36.509Z</time></trkpt><trkpt lat="45.3960613" lon="10.6019629"><ele>101.0</ele><time>2026-04-08T09:45:37.508Z</time></trkpt><trkpt lat="45.3960299" lon="10.6020697"><ele>101.16666666666666</ele><time>2026-04-08T09:45:38.509Z</time></trkpt><trkpt lat="45.395995" lon="10.6021778"><ele>101.33333333333333</ele><time>2026-04-08T09:45:39.509Z</time></trkpt><trkpt lat="45.3959596" lon="10.6022829"><ele>101.5</ele><time>2026-04-08T09:45:40.508Z</time></trkpt><trkpt lat="45.3959218" lon="10.6023936"><ele>101.66666666666666</ele><time>2026-04-08T09:45:41.509Z</time></trkpt><trkpt lat="45.3958872" lon="10.6025106"><ele>101.83333333333333</ele><time>2026-04-08T09:45:42.508Z</time></trkpt><trkpt lat="45.3958511" lon="10.6026272"><ele>102.0</ele><time>2026-04-08T09:45:43.508Z</time></trkpt><trkpt lat="45.3958157" lon="10.6027476"><ele>102.5</ele><time>2026-04-08T09:45:44.508Z</time></trkpt><trkpt lat="45.3957747" lon="10.6028729"><ele>103.0</ele><time>2026-04-08T09:45:45.508Z</time></trkpt><trkpt lat="45.3957396" lon="10.6029983"><ele>103.5</ele><time>2026-04-08T09:45:46.509Z</time></trkpt><trkpt lat="45.3957025" lon="10.6031173"><ele>104.0</ele><time>2026-04-08T09:45:47.509Z</time></trkpt><trkpt lat="45.3956642" lon="10.6032287"><ele>104.5</ele><time>2026-04-08T09:45:48.509Z</time></trkpt><trkpt lat="45.3956302" lon="10.6033258"><ele>105.0</ele><time>2026-04-08T09:45:49.508Z</time></trkpt><trkpt lat="45.3955984" lon="10.6034057"><ele>105.0</ele><time>2026-04-08T09:45:50.508Z</time></trkpt><trkpt lat="45.395547" lon="10.6035563"><ele>105.0</ele><time>2026-04-08T09:45:52.509Z</time></trkpt><trkpt lat="45.395509" lon="10.6036624"><ele>105.0</ele><time>2026-04-08T09:45:54.509Z</time></trkpt><trkpt lat="45.3954408" lon="10.6038815"><ele>105.0</ele><time>2026-04-08T09:46:07.508Z</time></trkpt><trkpt lat="45.3954024" lon="10.6039922"><ele>104.16666666666667</ele><time>2026-04-08T09:46:08.509Z</time></trkpt><trkpt lat="45.3953749" lon="10.6040802"><ele>103.33333333333334</ele><time>2026-04-08T09:46:09.508Z</time></trkpt><trkpt lat="45.3953468" lon="10.6041651"><ele>102.5</ele><time>2026-04-08T09:46:10.508Z</time></trkpt><trkpt lat="45.3953009" lon="10.6043015"><ele>101.66666666666667</ele><time>2026-04-08T09:46:12.509Z</time></trkpt><trkpt lat="45.3952657" lon="10.6044089"><ele>100.83333333333334</ele><time>2026-04-08T09:46:14.509Z</time></trkpt><trkpt lat="45.3952417" lon="10.6044986"><ele>100.0</ele><time>2026-04-08T09:46:16.508Z</time></trkpt><trkpt lat="45.3952106" lon="10.6045906"><ele>100.00000000000001</ele><time>2026-04-08T09:46:28.51Z</time></trkpt><trkpt lat="45.3951898" lon="10.604685"><ele>100.0</ele><time>2026-04-08T09:46:30.509Z</time></trkpt><trkpt lat="45.3951624" lon="10.6047825"><ele>100.0</ele><time>2026-04-08T09:46:32.51Z</time></trkpt><trkpt lat="45.3951449" lon="10.6048861"><ele>100.0</ele><time>2026-04-08T09:46:34.509Z</time></trkpt><trkpt lat="45.3951165" lon="10.6050414"><ele>100.00000000000001</ele><time>2026-04-08T09:46:36.51Z</time></trkpt><trkpt lat="45.3951008" lon="10.6051316"><ele>100.0</ele><time>2026-04-08T09:46:37.51Z</time></trkpt><trkpt lat="45.3950831" lon="10.6052288"><ele>100.00000000000001</ele><time>2026-04-08T09:46:38.509Z</time></trkpt><trkpt lat="45.3950676" lon="10.6053271"><ele>100.0</ele><time>2026-04-08T09:46:39.509Z</time></trkpt><trkpt lat="45.3950515" lon="10.6054164"><ele>100.0</ele><time>2026-04-08T09:46:40.51Z</time></trkpt><trkpt lat="45.395024" lon="10.6055732"><ele>100.0</ele><time>2026-04-08T09:46:42.509Z</time></trkpt><trkpt lat="45.3949886" lon="10.6057331"><ele>100.00000000000001</ele><time>2026-04-08T09:46:44.509Z</time></trkpt><trkpt lat="45.3949754" lon="10.6058216"><ele>100.0</ele><time>2026-04-08T09:46:45.509Z</time></trkpt><trkpt lat="45.3949574" lon="10.6059168"><ele>100.28571428571429</ele><time>2026-04-08T09:46:46.51Z</time></trkpt><trkpt lat="45.3949414" lon="10.6060173"><ele>100.57142857142857</ele><time>2026-04-08T09:46:47.51Z</time></trkpt><trkpt lat="45.3949194" lon="10.6061164"><ele>100.85714285714286</ele><time>2026-04-08T09:46:48.509Z</time></trkpt><trkpt lat="45.3949008" lon="10.6062188"><ele>101.14285714285714</ele><time>2026-04-08T09:46:49.509Z</time></trkpt><trkpt lat="45.3948855" lon="10.6063165"><ele>101.42857142857143</ele><time>2026-04-08T09:46:50.509Z</time></trkpt><trkpt lat="45.3948663" lon="10.6064106"><ele>101.71428571428572</ele><time>2026-04-08T09:46:51.509Z</time></trkpt><trkpt lat="45.3948534" lon="10.6065122"><ele>102.0</ele><time>2026-04-08T09:46:52.509Z</time></trkpt><trkpt lat="45.3948388" lon="10.6066201"><ele>102.0</ele><time>2026-04-08T09:46:53.51Z</time></trkpt><trkpt lat="45.3948239" lon="10.6067343"><ele>102.0</ele><time>2026-04-08T09:46:54.509Z</time></trkpt><trkpt lat="45.3948171" lon="10.606857"><ele>102.0</ele><time>2026-04-08T09:46:55.51Z</time></trkpt><trkpt lat="45.3948133" lon="10.6069776"><ele>102.0</ele><time>2026-04-08T09:46:56.509Z</time></trkpt><trkpt lat="45.3948084" lon="10.6071014"><ele>102.0</ele><time>2026-04-08T09:46:57.509Z</time></trkpt><trkpt lat="45.394804" lon="10.6072283"><ele>102.0</ele><time>2026-04-08T09:46:58.509Z</time></trkpt><trkpt lat="45.3948003" lon="10.6073742"><ele>102.39999999999999</ele><time>2026-04-08T09:46:59.509Z</time></trkpt><trkpt lat="45.3947961" lon="10.607519"><ele>102.8</ele><time>2026-04-08T09:47:00.509Z</time></trkpt><trkpt lat="45.3947908" lon="10.6076575"><ele>103.2</ele><time>2026-04-08T09:47:01.51Z</time></trkpt><trkpt lat="45.3947854" lon="10.607798"><ele>103.6</ele><time>2026-04-08T09:47:02.509Z</time></trkpt><trkpt lat="45.3947828" lon="10.6079457"><ele>104.0</ele><time>2026-04-08T09:47:03.509Z</time></trkpt><trkpt lat="45.394778" lon="10.6080937"><ele>104.0</ele><time>2026-04-08T09:47:04.51Z</time></trkpt><trkpt lat="45.3947689" lon="10.6082429"><ele>104.0</ele><time>2026-04-08T09:47:05.51Z</time></trkpt><trkpt lat="45.3947577" lon="10.6083908"><ele>104.0</ele><time>2026-04-08T09:47:06.509Z</time></trkpt><trkpt lat="45.3947468" lon="10.6085291"><ele>104.0</ele><time>2026-04-08T09:47:07.51Z</time></trkpt><trkpt lat="45.3947316" lon="10.6086594"><ele>104.0</ele><time>2026-04-08T09:47:08.51Z</time></trkpt><trkpt lat="45.3947122" lon="10.6087874"><ele>104.4</ele><time>2026-04-08T09:47:09.51Z</time></trkpt><trkpt lat="45.3946868" lon="10.6089197"><ele>104.80000000000001</ele><time>2026-04-08T09:47:10.511Z</time></trkpt><trkpt lat="45.3946581" lon="10.6090497"><ele>105.19999999999999</ele><time>2026-04-08T09:47:11.511Z</time></trkpt><trkpt lat="45.3946269" lon="10.6091784"><ele>105.6</ele><time>2026-04-08T09:47:12.51Z</time></trkpt><trkpt lat="45.3945883" lon="10.6093041"><ele>106.0</ele><time>2026-04-08T09:47:13.51Z</time></trkpt><trkpt lat="45.3945405" lon="10.6094211"><ele>104.4</ele><time>2026-04-08T09:47:14.51Z</time></trkpt><trkpt lat="45.3944929" lon="10.6095431"><ele>102.8</ele><time>2026-04-08T09:47:15.511Z</time></trkpt><trkpt lat="45.3944436" lon="10.6096703"><ele>101.2</ele><time>2026-04-08T09:47:16.51Z</time></trkpt><trkpt lat="45.394398" lon="10.6097929"><ele>99.60000000000001</ele><time>2026-04-08T09:47:17.511Z</time></trkpt><trkpt lat="45.3943577" lon="10.6099104"><ele>98.0</ele><time>2026-04-08T09:47:18.51Z</time></trkpt><trkpt lat="45.3943221" lon="10.6100255"><ele>98.0</ele><time>2026-04-08T09:47:19.51Z</time></trkpt><trkpt lat="45.3942967" lon="10.6101464"><ele>98.0</ele><time>2026-04-08T09:47:20.51Z</time></trkpt><trkpt lat="45.3942768" lon="10.6102767"><ele>98.0</ele><time>2026-04-08T09:47:21.511Z</time></trkpt><trkpt lat="45.3942636" lon="10.6104123"><ele>98.0</ele><time>2026-04-08T09:47:22.51Z</time></trkpt><trkpt lat="45.3942572" lon="10.6105475"><ele>98.0</ele><time>2026-04-08T09:47:23.511Z</time></trkpt><trkpt lat="45.3942609" lon="10.6106827"><ele>98.33333333333333</ele><time>2026-04-08T09:47:24.511Z</time></trkpt><trkpt lat="45.3942685" lon="10.6108196"><ele>98.66666666666666</ele><time>2026-04-08T09:47:25.51Z</time></trkpt><trkpt lat="45.394274" lon="10.6109477"><ele>99.0</ele><time>2026-04-08T09:47:26.511Z</time></trkpt><trkpt lat="45.3942817" lon="10.6110619"><ele>99.33333333333334</ele><time>2026-04-08T09:47:27.511Z</time></trkpt><trkpt lat="45.3943115" lon="10.6111977"><ele>99.66666666666667</ele><time>2026-04-08T09:47:29.511Z</time></trkpt><trkpt lat="45.3943767" lon="10.6112483"><ele>100.0</ele><time>2026-04-08T09:47:31.51Z</time></trkpt><trkpt lat="45.394465" lon="10.6112071"><ele>100.0</ele><time>2026-04-08T09:47:33.51Z</time></trkpt><trkpt lat="45.3945842" lon="10.6111284"><ele>100.0</ele><time>2026-04-08T09:47:35.511Z</time></trkpt><trkpt lat="45.3946591" lon="10.6110814"><ele>100.0</ele><time>2026-04-08T09:47:36.51Z</time></trkpt><trkpt lat="45.3947336" lon="10.6110366"><ele>100.0</ele><time>2026-04-08T09:47:37.51Z</time></trkpt><trkpt lat="45.3948164" lon="10.6109943"><ele>100.0</ele><time>2026-04-08T09:47:38.51Z</time></trkpt><trkpt lat="45.3948952" lon="10.6109519"><ele>101.66666666666667</ele><time>2026-04-08T09:47:39.511Z</time></trkpt><trkpt lat="45.3949731" lon="10.6109012"><ele>103.33333333333334</ele><time>2026-04-08T09:47:40.51Z</time></trkpt><trkpt lat="45.3950574" lon="10.6108488"><ele>105.0</ele><time>2026-04-08T09:47:41.51Z</time></trkpt><trkpt lat="45.3951315" lon="10.6108043"><ele>106.66666666666666</ele><time>2026-04-08T09:47:42.51Z</time></trkpt><trkpt lat="45.3951994" lon="10.6107746"><ele>108.33333333333333</ele><time>2026-04-08T09:47:43.511Z</time></trkpt><trkpt lat="45.395269" lon="10.6107497"><ele>110.0</ele><time>2026-04-08T09:47:44.511Z</time></trkpt><trkpt lat="45.3953431" lon="10.6107271"><ele>109.99999999999999</ele><time>2026-04-08T09:47:45.511Z</time></trkpt><trkpt lat="45.3954236" lon="10.6106953"><ele>110.0</ele><time>2026-04-08T09:47:46.511Z</time></trkpt><trkpt lat="45.3955093" lon="10.6106615"><ele>110.0</ele><time>2026-04-08T09:47:47.511Z</time></trkpt><trkpt lat="45.395596" lon="10.6106293"><ele>110.0</ele><time>2026-04-08T09:47:48.511Z</time></trkpt><trkpt lat="45.3956853" lon="10.6106018"><ele>109.99999999999999</ele><time>2026-04-08T09:47:49.51Z</time></trkpt><trkpt lat="45.3957726" lon="10.6105668"><ele>110.0</ele><time>2026-04-08T09:47:50.511Z</time></trkpt><trkpt lat="45.3958476" lon="10.6105036"><ele>110.83333333333333</ele><time>2026-04-08T09:47:51.511Z</time></trkpt><trkpt lat="45.3959086" lon="10.6104249"><ele>111.66666666666666</ele><time>2026-04-08T09:47:52.511Z</time></trkpt><trkpt lat="45.3959609" lon="10.6103298"><ele>112.5</ele><time>2026-04-08T09:47:53.51Z</time></trkpt><trkpt lat="45.3960124" lon="10.6102324"><ele>113.33333333333334</ele><time>2026-04-08T09:47:54.563Z</time></trkpt><trkpt lat="45.396069" lon="10.6101478"><ele>114.16666666666667</ele><time>2026-04-08T09:47:55.564Z</time></trkpt><trkpt lat="45.3961238" lon="10.6100558"><ele>115.0</ele><time>2026-04-08T09:47:56.563Z</time></trkpt><trkpt lat="45.3961718" lon="10.6099616"><ele>115.14285714285712</ele><time>2026-04-08T09:47:57.563Z</time></trkpt><trkpt lat="45.3962133" lon="10.6098797"><ele>115.28571428571428</ele><time>2026-04-08T09:47:58.564Z</time></trkpt><trkpt lat="45.3962524" lon="10.6098025"><ele>115.42857142857143</ele><time>2026-04-08T09:47:59.563Z</time></trkpt><trkpt lat="45.3962888" lon="10.6097281"><ele>115.57142857142857</ele><time>2026-04-08T09:48:00.563Z</time></trkpt><trkpt lat="45.3963228" lon="10.6096404"><ele>115.71428571428572</ele><time>2026-04-08T09:48:01.563Z</time></trkpt><trkpt lat="45.3963534" lon="10.6095404"><ele>115.85714285714288</ele><time>2026-04-08T09:48:02.564Z</time></trkpt><trkpt lat="45.3963812" lon="10.6094305"><ele>116.00000000000001</ele><time>2026-04-08T09:48:03.564Z</time></trkpt><trkpt lat="45.3964111" lon="10.6093312"><ele>116.8</ele><time>2026-04-08T09:48:04.563Z</time></trkpt><trkpt lat="45.3964438" lon="10.6092396"><ele>117.6</ele><time>2026-04-08T09:48:05.563Z</time></trkpt><trkpt lat="45.3965113" lon="10.6091084"><ele>118.4</ele><time>2026-04-08T09:48:07.563Z</time></trkpt><trkpt lat="45.3966149" lon="10.6090663"><ele>119.2</ele><time>2026-04-08T09:48:09.564Z</time></trkpt><trkpt lat="45.3966886" lon="10.6090696"><ele>120.0</ele><time>2026-04-08T09:48:10.563Z</time></trkpt><trkpt lat="45.3967753" lon="10.6090807"><ele>120.0</ele><time>2026-04-08T09:48:11.564Z</time></trkpt><trkpt lat="45.3968725" lon="10.609094"><ele>120.0</ele><time>2026-04-08T09:48:12.564Z</time></trkpt><trkpt lat="45.3969835" lon="10.6091001"><ele>120.0</ele><time>2026-04-08T09:48:13.564Z</time></trkpt><trkpt lat="45.3970995" lon="10.6091049"><ele>120.0</ele><time>2026-04-08T09:48:14.564Z</time></trkpt><trkpt lat="45.3972214" lon="10.6091085"><ele>120.0</ele><time>2026-04-08T09:48:15.564Z</time></trkpt><trkpt lat="45.3973464" lon="10.6091044"><ele>120.5</ele><time>2026-04-08T09:48:16.564Z</time></trkpt><trkpt lat="45.397472" lon="10.6090951"><ele>121.0</ele><time>2026-04-08T09:48:17.563Z</time></trkpt><trkpt lat="45.3976001" lon="10.6090874"><ele>121.5</ele><time>2026-04-08T09:48:18.563Z</time></trkpt><trkpt lat="45.3977284" lon="10.6090635"><ele>122.0</ele><time>2026-04-08T09:48:19.563Z</time></trkpt><trkpt lat="45.397848" lon="10.609029"><ele>122.0</ele><time>2026-04-08T09:48:20.563Z</time></trkpt><trkpt lat="45.3979559" lon="10.6089932"><ele>121.99999999999999</ele><time>2026-04-08T09:48:21.563Z</time></trkpt><trkpt lat="45.3980558" lon="10.6089558"><ele>121.99999999999999</ele><time>2026-04-08T09:48:22.564Z</time></trkpt><trkpt lat="45.3981494" lon="10.608926"><ele>122.0</ele><time>2026-04-08T09:48:23.563Z</time></trkpt><trkpt lat="45.3982386" lon="10.6089082"><ele>122.0</ele><time>2026-04-08T09:48:24.564Z</time></trkpt><trkpt lat="45.3983138" lon="10.6089024"><ele>121.99999999999999</ele><time>2026-04-08T09:48:25.564Z</time></trkpt><trkpt lat="45.39839" lon="10.6089433"><ele>122.0</ele><time>2026-04-08T09:48:27.563Z</time></trkpt><trkpt lat="45.3983871" lon="10.6090717"><ele>122.0</ele><time>2026-04-08T09:48:29.564Z</time></trkpt><trkpt lat="45.3983744" lon="10.6091807"><ele>122.0</ele><time>2026-04-08T09:48:30.563Z</time></trkpt><trkpt lat="45.3983494" lon="10.6093044"><ele>121.99999999999999</ele><time>2026-04-08T09:48:31.563Z</time></trkpt><trkpt lat="45.3983215" lon="10.6094402"><ele>122.0</ele><time>2026-04-08T09:48:32.563Z</time></trkpt><trkpt lat="45.3982994" lon="10.6095989"><ele>122.75</ele><time>2026-04-08T09:48:33.563Z</time></trkpt><trkpt lat="45.3982787" lon="10.6097744"><ele>123.5</ele><time>2026-04-08T09:48:34.563Z</time></trkpt><trkpt lat="45.3982563" lon="10.6099614"><ele>124.25</ele><time>2026-04-08T09:48:35.564Z</time></trkpt><trkpt lat="45.3982324" lon="10.6101554"><ele>125.0</ele><time>2026-04-08T09:48:36.563Z</time></trkpt><trkpt lat="45.3982074" lon="10.6103561"><ele>125.0</ele><time>2026-04-08T09:48:37.563Z</time></trkpt><trkpt lat="45.3981774" lon="10.6105661"><ele>125.0</ele><time>2026-04-08T09:48:38.563Z</time></trkpt><trkpt lat="45.3981454" lon="10.6107804"><ele>125.0</ele><time>2026-04-08T09:48:39.564Z</time></trkpt><trkpt lat="45.398097" lon="10.6109882"><ele>125.66666666666666</ele><time>2026-04-08T09:48:40.563Z</time></trkpt><trkpt lat="45.3980404" lon="10.6111977"><ele>126.33333333333334</ele><time>2026-04-08T09:48:41.563Z</time></trkpt><trkpt lat="45.3979762" lon="10.611406"><ele>127.0</ele><time>2026-04-08T09:48:42.563Z</time></trkpt><trkpt lat="45.3979046" lon="10.6116109"><ele>124.0</ele><time>2026-04-08T09:48:43.563Z</time></trkpt><trkpt lat="45.3978307" lon="10.6118249"><ele>121.0</ele><time>2026-04-08T09:48:44.563Z</time></trkpt><trkpt lat="45.3977509" lon="10.6120385"><ele>118.0</ele><time>2026-04-08T09:48:45.564Z</time></trkpt><trkpt lat="45.3976788" lon="10.6122512"><ele>118.0</ele><time>2026-04-08T09:48:46.564Z</time></trkpt><trkpt lat="45.3976219" lon="10.6124697"><ele>118.0</ele><time>2026-04-08T09:48:47.564Z</time></trkpt><trkpt lat="45.3975803" lon="10.6127076"><ele>118.0</ele><time>2026-04-08T09:48:48.563Z</time></trkpt><trkpt lat="45.3975626" lon="10.6129553"><ele>118.0</ele><time>2026-04-08T09:48:49.563Z</time></trkpt><trkpt lat="45.3975587" lon="10.6132099"><ele>118.0</ele><time>2026-04-08T09:48:50.564Z</time></trkpt><trkpt lat="45.3975665" lon="10.6134686"><ele>118.0</ele><time>2026-04-08T09:48:51.563Z</time></trkpt><trkpt lat="45.397578" lon="10.6137293"><ele>118.0</ele><time>2026-04-08T09:48:52.563Z</time></trkpt><trkpt lat="45.3975867" lon="10.6139923"><ele>118.0</ele><time>2026-04-08T09:48:53.564Z</time></trkpt><trkpt lat="45.3975967" lon="10.6142587"><ele>118.0</ele><time>2026-04-08T09:48:54.563Z</time></trkpt><trkpt lat="45.3976037" lon="10.6145274"><ele>118.0</ele><time>2026-04-08T09:48:55.563Z</time></trkpt><trkpt lat="45.3976064" lon="10.6147934"><ele>118.0</ele><time>2026-04-08T09:48:56.564Z</time></trkpt><trkpt lat="45.3976066" lon="10.6150503"><ele>118.0</ele><time>2026-04-08T09:48:57.563Z</time></trkpt><trkpt lat="45.3976035" lon="10.6152951"><ele>118.0</ele><time>2026-04-08T09:48:58.563Z</time></trkpt><trkpt lat="45.3976002" lon="10.6155354"><ele>118.0</ele><time>2026-04-08T09:48:59.563Z</time></trkpt><trkpt lat="45.3975886" lon="10.6157792"><ele>118.0</ele><time>2026-04-08T09:49:00.564Z</time></trkpt><trkpt lat="45.397575" lon="10.6160266"><ele>117.33333333333334</ele><time>2026-04-08T09:49:01.564Z</time></trkpt><trkpt lat="45.3975622" lon="10.6162786"><ele>116.66666666666666</ele><time>2026-04-08T09:49:02.563Z</time></trkpt><trkpt lat="45.3975492" lon="10.6165383"><ele>116.0</ele><time>2026-04-08T09:49:03.563Z</time></trkpt><trkpt lat="45.3975382" lon="10.6167879"><ele>115.33333333333333</ele><time>2026-04-08T09:49:04.563Z</time></trkpt><trkpt lat="45.3975273" lon="10.6170282"><ele>114.66666666666666</ele><time>2026-04-08T09:49:05.564Z</time></trkpt><trkpt lat="45.3975157" lon="10.6172527"><ele>114.0</ele><time>2026-04-08T09:49:06.564Z</time></trkpt><trkpt lat="45.3975045" lon="10.6174718"><ele>114.0</ele><time>2026-04-08T09:49:07.563Z</time></trkpt><trkpt lat="45.3974933" lon="10.6176903"><ele>114.0</ele><time>2026-04-08T09:49:08.564Z</time></trkpt><trkpt lat="45.3974792" lon="10.6179049"><ele>114.0</ele><time>2026-04-08T09:49:09.563Z</time></trkpt><trkpt lat="45.397468" lon="10.6181084"><ele>114.0</ele><time>2026-04-08T09:49:10.564Z</time></trkpt><trkpt lat="45.3974581" lon="10.6183068"><ele>113.25</ele><time>2026-04-08T09:49:11.563Z</time></trkpt><trkpt lat="45.3974501" lon="10.6185111"><ele>112.5</ele><time>2026-04-08T09:49:12.563Z</time></trkpt><trkpt lat="45.3974378" lon="10.6187185"><ele>111.75</ele><time>2026-04-08T09:49:13.564Z</time></trkpt><trkpt lat="45.3974176" lon="10.6189267"><ele>111.0</ele><time>2026-04-08T09:49:14.564Z</time></trkpt><trkpt lat="45.3973822" lon="10.6191345"><ele>108.66666666666666</ele><time>2026-04-08T09:49:15.564Z</time></trkpt><trkpt lat="45.3973282" lon="10.6193413"><ele>106.33333333333333</ele><time>2026-04-08T09:49:16.564Z</time></trkpt><trkpt lat="45.3972618" lon="10.6195374"><ele>104.0</ele><time>2026-04-08T09:49:17.563Z</time></trkpt><trkpt lat="45.3971803" lon="10.6197286"><ele>102.66666666666666</ele><time>2026-04-08T09:49:18.563Z</time></trkpt><trkpt lat="45.3970824" lon="10.619911"><ele>101.33333333333334</ele><time>2026-04-08T09:49:19.563Z</time></trkpt><trkpt lat="45.3969679" lon="10.6200755"><ele>100.0</ele><time>2026-04-08T09:49:20.563Z</time></trkpt><trkpt lat="45.3968472" lon="10.6202279"><ele>99.25</ele><time>2026-04-08T09:49:21.563Z</time></trkpt><trkpt lat="45.3967299" lon="10.6203684"><ele>98.5</ele><time>2026-04-08T09:49:22.563Z</time></trkpt><trkpt lat="45.3966167" lon="10.6205"><ele>97.75</ele><time>2026-04-08T09:49:23.563Z</time></trkpt><trkpt lat="45.3965042" lon="10.6206257"><ele>97.0</ele><time>2026-04-08T09:49:24.564Z</time></trkpt><trkpt lat="45.3963993" lon="10.6207494"><ele>96.19999999999999</ele><time>2026-04-08T09:49:25.564Z</time></trkpt><trkpt lat="45.3963031" lon="10.6208668"><ele>95.4</ele><time>2026-04-08T09:49:26.563Z</time></trkpt><trkpt lat="45.3962113" lon="10.6209743"><ele>94.6</ele><time>2026-04-08T09:49:27.563Z</time></trkpt><trkpt lat="45.396129" lon="10.6210636"><ele>93.80000000000001</ele><time>2026-04-08T09:49:28.563Z</time></trkpt><trkpt lat="45.3960559" lon="10.6211507"><ele>93.0</ele><time>2026-04-08T09:49:29.563Z</time></trkpt><trkpt lat="45.3959945" lon="10.6212278"><ele>93.0</ele><time>2026-04-08T09:49:30.564Z</time></trkpt><trkpt lat="45.3959469" lon="10.6212909"><ele>93.0</ele><time>2026-04-08T09:49:31.563Z</time></trkpt><trkpt lat="45.3958581" lon="10.6213677"><ele>93.0</ele><time>2026-04-08T09:49:33.564Z</time></trkpt><trkpt lat="45.3957813" lon="10.6213273"><ele>93.0</ele><time>2026-04-08T09:49:35.563Z</time></trkpt><trkpt lat="45.3957557" lon="10.6211559"><ele>93.0</ele><time>2026-04-08T09:49:37.564Z</time></trkpt><trkpt lat="45.3957592" lon="10.6210419"><ele>93.0</ele><time>2026-04-08T09:49:38.564Z</time></trkpt><trkpt lat="45.3957628" lon="10.6209092"><ele>93.0</ele><time>2026-04-08T09:49:39.564Z</time></trkpt><trkpt lat="45.3957547" lon="10.6207542"><ele>93.0</ele><time>2026-04-08T09:49:40.564Z</time></trkpt><trkpt lat="45.3957431" lon="10.620591"><ele>93.0</ele><time>2026-04-08T09:49:41.564Z</time></trkpt><trkpt lat="45.3957268" lon="10.6204244"><ele>93.0</ele><time>2026-04-08T09:49:42.563Z</time></trkpt><trkpt lat="45.3957019" lon="10.6202573"><ele>93.0</ele><time>2026-04-08T09:49:43.563Z</time></trkpt><trkpt lat="45.3956633" lon="10.6200875"><ele>93.0</ele><time>2026-04-08T09:49:44.563Z</time></trkpt><trkpt lat="45.3956135" lon="10.6199121"><ele>93.0</ele><time>2026-04-08T09:49:45.564Z</time></trkpt><trkpt lat="45.3955519" lon="10.6197341"><ele>93.0</ele><time>2026-04-08T09:49:46.563Z</time></trkpt><trkpt lat="45.3954906" lon="10.6195505"><ele>93.25</ele><time>2026-04-08T09:49:47.563Z</time></trkpt><trkpt lat="45.3954316" lon="10.619373"><ele>93.5</ele><time>2026-04-08T09:49:48.564Z</time></trkpt><trkpt lat="45.3953712" lon="10.6191889"><ele>93.75</ele><time>2026-04-08T09:49:49.563Z</time></trkpt><trkpt lat="45.3953031" lon="10.6190048"><ele>94.0</ele><time>2026-04-08T09:49:50.514Z</time></trkpt><trkpt lat="45.3952321" lon="10.6188104"><ele>95.0</ele><time>2026-04-08T09:49:51.514Z</time></trkpt><trkpt lat="45.3951622" lon="10.6186155"><ele>96.0</ele><time>2026-04-08T09:49:52.513Z</time></trkpt><trkpt lat="45.3950987" lon="10.6184196"><ele>97.0</ele><time>2026-04-08T09:49:53.514Z</time></trkpt><trkpt lat="45.3950264" lon="10.6182211"><ele>97.0</ele><time>2026-04-08T09:49:54.513Z</time></trkpt><trkpt lat="45.3949527" lon="10.6180239"><ele>97.0</ele><time>2026-04-08T09:49:55.514Z</time></trkpt><trkpt lat="45.3948736" lon="10.617836"><ele>97.0</ele><time>2026-04-08T09:49:56.513Z</time></trkpt><trkpt lat="45.3947956" lon="10.6176433"><ele>96.0</ele><time>2026-04-08T09:49:57.514Z</time></trkpt><trkpt lat="45.3947132" lon="10.6174531"><ele>95.0</ele><time>2026-04-08T09:49:58.513Z</time></trkpt><trkpt lat="45.3946273" lon="10.6172611"><ele>94.0</ele><time>2026-04-08T09:49:59.514Z</time></trkpt><trkpt lat="45.3945418" lon="10.6170691"><ele>96.0</ele><time>2026-04-08T09:50:00.514Z</time></trkpt><trkpt lat="45.3944529" lon="10.6168813"><ele>98.0</ele><time>2026-04-08T09:50:01.513Z</time></trkpt><trkpt lat="45.3943543" lon="10.6166929"><ele>100.0</ele><time>2026-04-08T09:50:02.513Z</time></trkpt><trkpt lat="45.3942577" lon="10.6164997"><ele>100.0</ele><time>2026-04-08T09:50:03.514Z</time></trkpt><trkpt lat="45.3941652" lon="10.6163049"><ele>100.0</ele><time>2026-04-08T09:50:04.513Z</time></trkpt><trkpt lat="45.3940756" lon="10.616119"><ele>100.0</ele><time>2026-04-08T09:50:05.514Z</time></trkpt><trkpt lat="45.3939927" lon="10.6159329"><ele>100.66666666666667</ele><time>2026-04-08T09:50:06.514Z</time></trkpt><trkpt lat="45.3939189" lon="10.6157386"><ele>101.33333333333334</ele><time>2026-04-08T09:50:07.514Z</time></trkpt><trkpt lat="45.3938478" lon="10.6155417"><ele>102.0</ele><time>2026-04-08T09:50:08.514Z</time></trkpt><trkpt lat="45.3937801" lon="10.615356"><ele>100.5</ele><time>2026-04-08T09:50:09.514Z</time></trkpt><trkpt lat="45.3937119" lon="10.6151785"><ele>99.0</ele><time>2026-04-08T09:50:10.514Z</time></trkpt><trkpt lat="45.3936426" lon="10.6150047"><ele>97.5</ele><time>2026-04-08T09:50:11.513Z</time></trkpt><trkpt lat="45.3935768" lon="10.6148332"><ele>96.0</ele><time>2026-04-08T09:50:12.514Z</time></trkpt><trkpt lat="45.3935106" lon="10.6146607"><ele>96.75</ele><time>2026-04-08T09:50:13.514Z</time></trkpt><trkpt lat="45.3934464" lon="10.6144867"><ele>97.5</ele><time>2026-04-08T09:50:14.513Z</time></trkpt><trkpt lat="45.3933742" lon="10.6143165"><ele>98.25</ele><time>2026-04-08T09:50:15.513Z</time></trkpt><trkpt lat="45.3933115" lon="10.6141471"><ele>99.0</ele><time>2026-04-08T09:50:16.513Z</time></trkpt><trkpt lat="45.393247" lon="10.6139757"><ele>99.0</ele><time>2026-04-08T09:50:17.514Z</time></trkpt><trkpt lat="45.3931812" lon="10.6138061"><ele>99.0</ele><time>2026-04-08T09:50:18.513Z</time></trkpt><trkpt lat="45.3931153" lon="10.6136432"><ele>99.0</ele><time>2026-04-08T09:50:19.514Z</time></trkpt><trkpt lat="45.3930467" lon="10.6134837"><ele>99.0</ele><time>2026-04-08T09:50:20.513Z</time></trkpt><trkpt lat="45.3929768" lon="10.6133358"><ele>97.5</ele><time>2026-04-08T09:50:21.514Z</time></trkpt><trkpt lat="45.3929025" lon="10.6132003"><ele>96.0</ele><time>2026-04-08T09:50:22.515Z</time></trkpt><trkpt lat="45.3928263" lon="10.6130742"><ele>94.5</ele><time>2026-04-08T09:50:23.515Z</time></trkpt><trkpt lat="45.3927484" lon="10.6129488"><ele>93.0</ele><time>2026-04-08T09:50:24.515Z</time></trkpt><trkpt lat="45.3926754" lon="10.6128314"><ele>93.0</ele><time>2026-04-08T09:50:25.515Z</time></trkpt><trkpt lat="45.3926028" lon="10.6127203"><ele>93.0</ele><time>2026-04-08T09:50:26.515Z</time></trkpt><trkpt lat="45.3925313" lon="10.6126157"><ele>93.0</ele><time>2026-04-08T09:50:27.514Z</time></trkpt><trkpt lat="45.3924613" lon="10.6125122"><ele>93.0</ele><time>2026-04-08T09:50:28.515Z</time></trkpt><trkpt lat="45.3923912" lon="10.6124078"><ele>93.0</ele><time>2026-04-08T09:50:29.514Z</time></trkpt><trkpt lat="45.3923299" lon="10.6123112"><ele>93.0</ele><time>2026-04-08T09:50:30.514Z</time></trkpt><trkpt lat="45.3922719" lon="10.6122134"><ele>93.0</ele><time>2026-04-08T09:50:31.515Z</time></trkpt><trkpt lat="45.3922146" lon="10.6121462"><ele>93.0</ele><time>2026-04-08T09:50:32.515Z</time></trkpt><trkpt lat="45.3921389" lon="10.6121072"><ele>93.0</ele><time>2026-04-08T09:50:33.515Z</time></trkpt><trkpt lat="45.3920506" lon="10.6121117"><ele>93.0</ele><time>2026-04-08T09:50:34.515Z</time></trkpt><trkpt lat="45.3919498" lon="10.612128"><ele>93.0</ele><time>2026-04-08T09:50:35.515Z</time></trkpt><trkpt lat="45.3918428" lon="10.6121514"><ele>93.5</ele><time>2026-04-08T09:50:36.514Z</time></trkpt><trkpt lat="45.3917287" lon="10.6121747"><ele>94.0</ele><time>2026-04-08T09:50:37.514Z</time></trkpt><trkpt lat="45.3916117" lon="10.6121953"><ele>94.5</ele><time>2026-04-08T09:50:38.515Z</time></trkpt><trkpt lat="45.3914955" lon="10.6122242"><ele>95.0</ele><time>2026-04-08T09:50:39.515Z</time></trkpt><trkpt lat="45.391377" lon="10.6122496"><ele>95.5</ele><time>2026-04-08T09:50:40.514Z</time></trkpt><trkpt lat="45.3912559" lon="10.6122725"><ele>96.0</ele><time>2026-04-08T09:50:41.515Z</time></trkpt><trkpt lat="45.3911226" lon="10.6122822"><ele>96.5</ele><time>2026-04-08T09:50:42.515Z</time></trkpt><trkpt lat="45.3909807" lon="10.6122592"><ele>97.0</ele><time>2026-04-08T09:50:43.514Z</time></trkpt><trkpt lat="45.390842" lon="10.6122076"><ele>97.0</ele><time>2026-04-08T09:50:44.515Z</time></trkpt><trkpt lat="45.3907121" lon="10.6121381"><ele>97.0</ele><time>2026-04-08T09:50:45.515Z</time></trkpt><trkpt lat="45.3905858" lon="10.6120494"><ele>97.0</ele><time>2026-04-08T09:50:46.514Z</time></trkpt><trkpt lat="45.3904533" lon="10.6120008"><ele>97.0</ele><time>2026-04-08T09:50:47.514Z</time></trkpt><trkpt lat="45.3903281" lon="10.6119427"><ele>97.25</ele><time>2026-04-08T09:50:48.514Z</time></trkpt><trkpt lat="45.3902055" lon="10.611866"><ele>97.5</ele><time>2026-04-08T09:50:49.514Z</time></trkpt><trkpt lat="45.3900775" lon="10.6117909"><ele>97.75</ele><time>2026-04-08T09:50:50.515Z</time></trkpt><trkpt lat="45.3899434" lon="10.6117153"><ele>98.0</ele><time>2026-04-08T09:50:51.514Z</time></trkpt><trkpt lat="45.3898069" lon="10.6116373"><ele>98.25</ele><time>2026-04-08T09:50:52.514Z</time></trkpt><trkpt lat="45.3896725" lon="10.6115673"><ele>98.5</ele><time>2026-04-08T09:50:53.515Z</time></trkpt><trkpt lat="45.3895365" lon="10.6114986"><ele>98.75</ele><time>2026-04-08T09:50:54.514Z</time></trkpt><trkpt lat="45.3893978" lon="10.611432"><ele>99.0</ele><time>2026-04-08T09:50:55.514Z</time></trkpt><trkpt lat="45.3892581" lon="10.6113748"><ele>99.0</ele><time>2026-04-08T09:50:56.515Z</time></trkpt><trkpt lat="45.3891136" lon="10.611337"><ele>99.0</ele><time>2026-04-08T09:50:57.514Z</time></trkpt><trkpt lat="45.3889645" lon="10.6113126"><ele>99.0</ele><time>2026-04-08T09:50:58.514Z</time></trkpt><trkpt lat="45.3888147" lon="10.6112934"><ele>99.0</ele><time>2026-04-08T09:50:59.514Z</time></trkpt><trkpt lat="45.3886627" lon="10.6112692"><ele>99.0</ele><time>2026-04-08T09:51:00.514Z</time></trkpt><trkpt lat="45.3885107" lon="10.6112445"><ele>99.0</ele><time>2026-04-08T09:51:01.514Z</time></trkpt><trkpt lat="45.3883576" lon="10.6112204"><ele>99.0</ele><time>2026-04-08T09:51:02.514Z</time></trkpt><trkpt lat="45.3882071" lon="10.6112021"><ele>99.0</ele><time>2026-04-08T09:51:03.515Z</time></trkpt><trkpt lat="45.3880553" lon="10.6111862"><ele>99.0</ele><time>2026-04-08T09:51:04.514Z</time></trkpt><trkpt lat="45.3879035" lon="10.6111732"><ele>99.0</ele><time>2026-04-08T09:51:05.515Z</time></trkpt><trkpt lat="45.3877509" lon="10.6111513"><ele>99.0</ele><time>2026-04-08T09:51:06.514Z</time></trkpt><trkpt lat="45.3875945" lon="10.6111313"><ele>99.0</ele><time>2026-04-08T09:51:07.515Z</time></trkpt><trkpt lat="45.3874354" lon="10.6111171"><ele>99.0</ele><time>2026-04-08T09:51:08.514Z</time></trkpt><trkpt lat="45.3872772" lon="10.6111012"><ele>99.33333333333334</ele><time>2026-04-08T09:51:09.514Z</time></trkpt><trkpt lat="45.3871194" lon="10.6110784"><ele>99.66666666666667</ele><time>2026-04-08T09:51:10.516Z</time></trkpt><trkpt lat="45.3869625" lon="10.6110574"><ele>100.0</ele><time>2026-04-08T09:51:11.515Z</time></trkpt><trkpt lat="45.3868013" lon="10.6110414"><ele>100.0</ele><time>2026-04-08T09:51:12.515Z</time></trkpt><trkpt lat="45.386642" lon="10.6110178"><ele>100.0</ele><time>2026-04-08T09:51:13.516Z</time></trkpt><trkpt lat="45.3864911" lon="10.610994"><ele>100.0</ele><time>2026-04-08T09:51:14.516Z</time></trkpt><trkpt lat="45.3863497" lon="10.6109757"><ele>100.25</ele><time>2026-04-08T09:51:15.516Z</time></trkpt><trkpt lat="45.3862102" lon="10.6109567"><ele>100.5</ele><time>2026-04-08T09:51:16.516Z</time></trkpt><trkpt lat="45.3860697" lon="10.6109426"><ele>100.75</ele><time>2026-04-08T09:51:17.515Z</time></trkpt><trkpt lat="45.3859389" lon="10.6109568"><ele>101.0</ele><time>2026-04-08T09:51:18.516Z</time></trkpt><trkpt lat="45.3858173" lon="10.611023"><ele>101.0</ele><time>2026-04-08T09:51:19.515Z</time></trkpt><trkpt lat="45.3856915" lon="10.611122"><ele>101.0</ele><time>2026-04-08T09:51:20.515Z</time></trkpt><trkpt lat="45.3855693" lon="10.6112461"><ele>101.0</ele><time>2026-04-08T09:51:21.516Z</time></trkpt><trkpt lat="45.3854436" lon="10.6113737"><ele>101.0</ele><time>2026-04-08T09:51:22.515Z</time></trkpt><trkpt lat="45.385318" lon="10.6115061"><ele>101.66666666666666</ele><time>2026-04-08T09:51:23.516Z</time></trkpt><trkpt lat="45.3851885" lon="10.6116302"><ele>102.33333333333334</ele><time>2026-04-08T09:51:24.516Z</time></trkpt><trkpt lat="45.3850455" lon="10.6117412"><ele>103.0</ele><time>2026-04-08T09:51:25.515Z</time></trkpt><trkpt lat="45.384897" lon="10.6118324"><ele>103.0</ele><time>2026-04-08T09:51:26.515Z</time></trkpt><trkpt lat="45.384741" lon="10.6119183"><ele>103.0</ele><time>2026-04-08T09:51:27.515Z</time></trkpt><trkpt lat="45.3845803" lon="10.6120008"><ele>103.0</ele><time>2026-04-08T09:51:28.515Z</time></trkpt><trkpt lat="45.3844231" lon="10.6120829"><ele>103.66666666666667</ele><time>2026-04-08T09:51:29.516Z</time></trkpt><trkpt lat="45.3842626" lon="10.6121662"><ele>104.33333333333334</ele><time>2026-04-08T09:51:30.515Z</time></trkpt><trkpt lat="45.3840999" lon="10.6122469"><ele>105.0</ele><time>2026-04-08T09:51:31.516Z</time></trkpt><trkpt lat="45.3839438" lon="10.6123264"><ele>104.33333333333334</ele><time>2026-04-08T09:51:32.516Z</time></trkpt><trkpt lat="45.3837934" lon="10.6124071"><ele>103.66666666666667</ele><time>2026-04-08T09:51:33.515Z</time></trkpt><trkpt lat="45.3836414" lon="10.6124947"><ele>103.0</ele><time>2026-04-08T09:51:34.516Z</time></trkpt><trkpt lat="45.3834897" lon="10.6125969"><ele>103.0</ele><time>2026-04-08T09:51:35.515Z</time></trkpt><trkpt lat="45.3833443" lon="10.6127166"><ele>103.0</ele><time>2026-04-08T09:51:36.516Z</time></trkpt><trkpt lat="45.3832023" lon="10.6128541"><ele>103.0</ele><time>2026-04-08T09:51:37.515Z</time></trkpt><trkpt lat="45.3830604" lon="10.6130016"><ele>103.0</ele><time>2026-04-08T09:51:38.515Z</time></trkpt><trkpt lat="45.3829227" lon="10.6131596"><ele>103.0</ele><time>2026-04-08T09:51:39.516Z</time></trkpt><trkpt lat="45.3827872" lon="10.6133282"><ele>103.0</ele><time>2026-04-08T09:51:40.515Z</time></trkpt><trkpt lat="45.382656" lon="10.6134991"><ele>102.66666666666667</ele><time>2026-04-08T09:51:41.515Z</time></trkpt><trkpt lat="45.3825278" lon="10.6136685"><ele>102.33333333333334</ele><time>2026-04-08T09:51:42.515Z</time></trkpt><trkpt lat="45.3824061" lon="10.6138348"><ele>102.0</ele><time>2026-04-08T09:51:43.516Z</time></trkpt><trkpt lat="45.3822831" lon="10.6139962"><ele>102.33333333333334</ele><time>2026-04-08T09:51:44.515Z</time></trkpt><trkpt lat="45.3821603" lon="10.6141535"><ele>102.66666666666667</ele><time>2026-04-08T09:51:45.516Z</time></trkpt><trkpt lat="45.3820453" lon="10.6143131"><ele>103.0</ele><time>2026-04-08T09:51:46.515Z</time></trkpt><trkpt lat="45.3819377" lon="10.6144674"><ele>103.0</ele><time>2026-04-08T09:51:47.515Z</time></trkpt><trkpt lat="45.3818391" lon="10.6146073"><ele>103.0</ele><time>2026-04-08T09:51:48.516Z</time></trkpt><trkpt lat="45.3817498" lon="10.6147272"><ele>103.0</ele><time>2026-04-08T09:51:49.515Z</time></trkpt><trkpt lat="45.3816638" lon="10.6148462"><ele>103.0</ele><time>2026-04-08T09:51:50.516Z</time></trkpt><trkpt lat="45.381584" lon="10.6149539"><ele>103.0</ele><time>2026-04-08T09:51:51.516Z</time></trkpt><trkpt lat="45.3815095" lon="10.6150533"><ele>103.0</ele><time>2026-04-08T09:51:52.515Z</time></trkpt><trkpt lat="45.3814293" lon="10.6151438"><ele>103.0</ele><time>2026-04-08T09:51:53.515Z</time></trkpt><trkpt lat="45.3813505" lon="10.6152163"><ele>103.0</ele><time>2026-04-08T09:51:54.516Z</time></trkpt><trkpt lat="45.3812745" lon="10.6152768"><ele>103.0</ele><time>2026-04-08T09:51:55.515Z</time></trkpt><trkpt lat="45.3811985" lon="10.6153251"><ele>102.83333333333334</ele><time>2026-04-08T09:51:56.516Z</time></trkpt><trkpt lat="45.3811234" lon="10.6153689"><ele>102.66666666666667</ele><time>2026-04-08T09:51:57.517Z</time></trkpt><trkpt lat="45.38105" lon="10.6154129"><ele>102.5</ele><time>2026-04-08T09:51:58.517Z</time></trkpt><trkpt lat="45.3809782" lon="10.6154515"><ele>102.33333333333334</ele><time>2026-04-08T09:51:59.517Z</time></trkpt><trkpt lat="45.3809132" lon="10.6154857"><ele>102.16666666666667</ele><time>2026-04-08T09:52:00.516Z</time></trkpt><trkpt lat="45.3808145" lon="10.6155344"><ele>102.0</ele><time>2026-04-08T09:52:02.517Z</time></trkpt><trkpt lat="45.3807532" lon="10.6155611"><ele>102.0</ele><time>2026-04-08T09:52:06.516Z</time></trkpt><trkpt lat="45.3808496" lon="10.6155408"><ele>102.0</ele><time>2026-04-08T09:52:10.517Z</time></trkpt><trkpt lat="45.3809627" lon="10.6154745"><ele>102.0</ele><time>2026-04-08T09:52:12.517Z</time></trkpt><trkpt lat="45.3810922" lon="10.6153975"><ele>102.0</ele><time>2026-04-08T09:52:14.517Z</time></trkpt><trkpt lat="45.3811759" lon="10.615348"><ele>102.19999999999999</ele><time>2026-04-08T09:52:15.516Z</time></trkpt><trkpt lat="45.3812614" lon="10.6152871"><ele>102.4</ele><time>2026-04-08T09:52:16.517Z</time></trkpt><trkpt lat="45.3813513" lon="10.6152141"><ele>102.6</ele><time>2026-04-08T09:52:17.516Z</time></trkpt><trkpt lat="45.3814433" lon="10.6151205"><ele>102.80000000000001</ele><time>2026-04-08T09:52:18.517Z</time></trkpt><trkpt lat="45.3815274" lon="10.6150085"><ele>103.0</ele><time>2026-04-08T09:52:19.517Z</time></trkpt><trkpt lat="45.3816061" lon="10.6149073"><ele>103.00000000000001</ele><time>2026-04-08T09:52:20.516Z</time></trkpt><trkpt lat="45.3816708" lon="10.6148169"><ele>103.0</ele><time>2026-04-08T09:52:21.517Z</time></trkpt><trkpt lat="45.38173" lon="10.6147361"><ele>103.0</ele><time>2026-04-08T09:52:22.516Z</time></trkpt><trkpt lat="45.3817818" lon="10.6146688"><ele>103.0</ele><time>2026-04-08T09:52:23.516Z</time></trkpt><trkpt lat="45.3818248" lon="10.6146018"><ele>103.00000000000001</ele><time>2026-04-08T09:52:24.517Z</time></trkpt><trkpt lat="45.3819008" lon="10.614517"><ele>103.0</ele><time>2026-04-08T09:52:26.516Z</time></trkpt><trkpt lat="45.3819629" lon="10.6145362"><ele>102.99999999999999</ele><time>2026-04-08T09:52:29.517Z</time></trkpt><trkpt lat="45.3819987" lon="10.6146189"><ele>103.0</ele><time>2026-04-08T09:52:32.516Z</time></trkpt><trkpt lat="45.3819889" lon="10.6147133"><ele>103.0</ele><time>2026-04-08T09:52:34.517Z</time></trkpt><trkpt lat="45.3819971" lon="10.614818"><ele>103.0</ele><time>2026-04-08T09:52:45.518Z</time></trkpt><trkpt lat="45.3819876" lon="10.6149512"><ele>103.0</ele><time>2026-04-08T09:52:48.518Z</time></trkpt><trkpt lat="45.3819786" lon="10.6150404"><ele>102.99999999999999</ele><time>2026-04-08T09:52:50.517Z</time></trkpt><trkpt lat="45.3819779" lon="10.6151373"><ele>103.0</ele><time>2026-04-08T09:52:52.517Z</time></trkpt><trkpt lat="45.3819755" lon="10.6152335"><ele>103.16666666666667</ele><time>2026-04-08T09:52:54.517Z</time></trkpt><trkpt lat="45.3819702" lon="10.6153252"><ele>103.33333333333334</ele><time>2026-04-08T09:52:56.517Z</time></trkpt><trkpt lat="45.3819668" lon="10.6154585"><ele>103.5</ele><time>2026-04-08T09:52:59.517Z</time></trkpt><trkpt lat="45.3819615" lon="10.6155534"><ele>103.66666666666666</ele><time>2026-04-08T09:53:13.517Z</time></trkpt><trkpt lat="45.3819625" lon="10.6156815"><ele>103.83333333333333</ele><time>2026-04-08T09:53:15.517Z</time></trkpt><trkpt lat="45.3819566" lon="10.6158108"><ele>104.0</ele><time>2026-04-08T09:53:17.517Z</time></trkpt><trkpt lat="45.3819581" lon="10.6159659"><ele>104.0</ele><time>2026-04-08T09:53:19.518Z</time></trkpt><trkpt lat="45.3819527" lon="10.6161358"><ele>104.0</ele><time>2026-04-08T09:53:21.518Z</time></trkpt><trkpt lat="45.3819482" lon="10.6162933"><ele>104.0</ele><time>2026-04-08T09:53:23.517Z</time></trkpt><trkpt lat="45.3819403" lon="10.6164414"><ele>104.0</ele><time>2026-04-08T09:53:25.517Z</time></trkpt><trkpt lat="45.3819386" lon="10.6166067"><ele>103.83333333333333</ele><time>2026-04-08T09:53:27.518Z</time></trkpt><trkpt lat="45.3819377" lon="10.6166979"><ele>103.66666666666666</ele><time>2026-04-08T09:53:28.517Z</time></trkpt><trkpt lat="45.3819381" lon="10.6167921"><ele>103.5</ele><time>2026-04-08T09:53:29.518Z</time></trkpt><trkpt lat="45.381938" lon="10.6168874"><ele>103.33333333333334</ele><time>2026-04-08T09:53:30.517Z</time></trkpt><trkpt lat="45.3819355" lon="10.6169869"><ele>103.16666666666667</ele><time>2026-04-08T09:53:31.517Z</time></trkpt><trkpt lat="45.3819329" lon="10.6170812"><ele>103.0</ele><time>2026-04-08T09:53:32.517Z</time></trkpt><trkpt lat="45.3819277" lon="10.6172473"><ele>102.83333333333334</ele><time>2026-04-08T09:53:34.518Z</time></trkpt><trkpt lat="45.3819176" lon="10.6174147"><ele>102.66666666666667</ele><time>2026-04-08T09:53:36.519Z</time></trkpt><trkpt lat="45.3819247" lon="10.6175241"><ele>102.5</ele><time>2026-04-08T09:53:37.519Z</time></trkpt><trkpt lat="45.3819351" lon="10.6176375"><ele>102.33333333333334</ele><time>2026-04-08T09:53:38.519Z</time></trkpt><trkpt lat="45.3819437" lon="10.6177581"><ele>102.16666666666667</ele><time>2026-04-08T09:53:39.519Z</time></trkpt><trkpt lat="45.3819585" lon="10.6178821"><ele>102.0</ele><time>2026-04-08T09:53:40.518Z</time></trkpt><trkpt lat="45.3819826" lon="10.6180105"><ele>102.0</ele><time>2026-04-08T09:53:41.518Z</time></trkpt><trkpt lat="45.3820165" lon="10.6181501"><ele>102.0</ele><time>2026-04-08T09:53:42.519Z</time></trkpt><trkpt lat="45.3820334" lon="10.6182961"><ele>102.0</ele><time>2026-04-08T09:53:43.518Z</time></trkpt><trkpt lat="45.3820423" lon="10.6184212"><ele>102.0</ele><time>2026-04-08T09:53:44.519Z</time></trkpt><trkpt lat="45.3820406" lon="10.6185482"><ele>102.0</ele><time>2026-04-08T09:53:45.519Z</time></trkpt><trkpt lat="45.3820594" lon="10.6186823"><ele>102.6</ele><time>2026-04-08T09:53:46.518Z</time></trkpt><trkpt lat="45.3820862" lon="10.6188159"><ele>103.19999999999999</ele><time>2026-04-08T09:53:47.519Z</time></trkpt><trkpt lat="45.3821058" lon="10.6189442"><ele>103.8</ele><time>2026-04-08T09:53:48.519Z</time></trkpt><trkpt lat="45.3821214" lon="10.6190551"><ele>104.4</ele><time>2026-04-08T09:53:49.518Z</time></trkpt><trkpt lat="45.3821309" lon="10.6191522"><ele>105.0</ele><time>2026-04-08T09:53:50.519Z</time></trkpt><trkpt lat="45.3821344" lon="10.6193326"><ele>105.0</ele><time>2026-04-08T09:53:52.519Z</time></trkpt><trkpt lat="45.382122" lon="10.6194302"><ele>105.0</ele><time>2026-04-08T09:53:53.519Z</time></trkpt><trkpt lat="45.3821026" lon="10.6195353"><ele>105.0</ele><time>2026-04-08T09:53:54.519Z</time></trkpt><trkpt lat="45.3820788" lon="10.6196477"><ele>105.0</ele><time>2026-04-08T09:53:55.518Z</time></trkpt><trkpt lat="45.3820506" lon="10.6197551"><ele>105.0</ele><time>2026-04-08T09:53:56.518Z</time></trkpt><trkpt lat="45.3820199" lon="10.6198582"><ele>105.0</ele><time>2026-04-08T09:53:57.519Z</time></trkpt><trkpt lat="45.3819905" lon="10.6199593"><ele>104.85714285714286</ele><time>2026-04-08T09:53:58.519Z</time></trkpt><trkpt lat="45.3819628" lon="10.6200549"><ele>104.71428571428572</ele><time>2026-04-08T09:53:59.518Z</time></trkpt><trkpt lat="45.3819334" lon="10.6201492"><ele>104.57142857142857</ele><time>2026-04-08T09:54:00.518Z</time></trkpt><trkpt lat="45.3819047" lon="10.6202379"><ele>104.42857142857143</ele><time>2026-04-08T09:54:01.518Z</time></trkpt><trkpt lat="45.3818731" lon="10.620333"><ele>104.28571428571429</ele><time>2026-04-08T09:54:02.518Z</time></trkpt><trkpt lat="45.3818399" lon="10.6204303"><ele>104.14285714285714</ele><time>2026-04-08T09:54:03.519Z</time></trkpt><trkpt lat="45.3818122" lon="10.6205255"><ele>104.0</ele><time>2026-04-08T09:54:04.519Z</time></trkpt><trkpt lat="45.3817943" lon="10.6206246"><ele>103.4</ele><time>2026-04-08T09:54:05.518Z</time></trkpt><trkpt lat="45.3817831" lon="10.62073"><ele>102.80000000000001</ele><time>2026-04-08T09:54:06.519Z</time></trkpt><trkpt lat="45.3817763" lon="10.6208475"><ele>102.19999999999999</ele><time>2026-04-08T09:54:07.519Z</time></trkpt><trkpt lat="45.3817697" lon="10.6209807"><ele>101.6</ele><time>2026-04-08T09:54:08.518Z</time></trkpt><trkpt lat="45.3817657" lon="10.6211234"><ele>101.0</ele><time>2026-04-08T09:54:09.518Z</time></trkpt><trkpt lat="45.381763" lon="10.6212684"><ele>100.83333333333333</ele><time>2026-04-08T09:54:10.518Z</time></trkpt><trkpt lat="45.3817655" lon="10.6213977"><ele>100.66666666666666</ele><time>2026-04-08T09:54:11.518Z</time></trkpt><trkpt lat="45.3817706" lon="10.6215126"><ele>100.5</ele><time>2026-04-08T09:54:12.518Z</time></trkpt><trkpt lat="45.3817677" lon="10.6216272"><ele>100.33333333333334</ele><time>2026-04-08T09:54:13.518Z</time></trkpt><trkpt lat="45.3817635" lon="10.6217494"><ele>100.16666666666667</ele><time>2026-04-08T09:54:14.519Z</time></trkpt><trkpt lat="45.3817566" lon="10.6218772"><ele>100.0</ele><time>2026-04-08T09:54:15.518Z</time></trkpt><trkpt lat="45.3817503" lon="10.6220155"><ele>100.00000000000001</ele><time>2026-04-08T09:54:16.518Z</time></trkpt><trkpt lat="45.3817443" lon="10.6221485"><ele>100.0</ele><time>2026-04-08T09:54:17.519Z</time></trkpt><trkpt lat="45.3817371" lon="10.622258"><ele>100.0</ele><time>2026-04-08T09:54:18.518Z</time></trkpt><trkpt lat="45.3817305" lon="10.6223602"><ele>100.0</ele><time>2026-04-08T09:54:19.518Z</time></trkpt><trkpt lat="45.3817236" lon="10.6224733"><ele>100.00000000000001</ele><time>2026-04-08T09:54:20.519Z</time></trkpt><trkpt lat="45.3817208" lon="10.6225942"><ele>100.0</ele><time>2026-04-08T09:54:21.519Z</time></trkpt><trkpt lat="45.3817103" lon="10.6227163"><ele>100.00000000000001</ele><time>2026-04-08T09:54:22.519Z</time></trkpt><trkpt lat="45.3816993" lon="10.6228318"><ele>100.0</ele><time>2026-04-08T09:54:23.52Z</time></trkpt><trkpt lat="45.3816911" lon="10.6229443"><ele>100.0</ele><time>2026-04-08T09:54:24.519Z</time></trkpt><trkpt lat="45.381684" lon="10.6230555"><ele>100.0</ele><time>2026-04-08T09:54:25.52Z</time></trkpt><trkpt lat="45.3816821" lon="10.6231641"><ele>100.00000000000001</ele><time>2026-04-08T09:54:26.519Z</time></trkpt><trkpt lat="45.3816981" lon="10.6232692"><ele>100.0</ele><time>2026-04-08T09:54:27.519Z</time></trkpt><trkpt lat="45.3817103" lon="10.623376"><ele>100.00000000000001</ele><time>2026-04-08T09:54:28.519Z</time></trkpt><trkpt lat="45.3817158" lon="10.6234912"><ele>100.0</ele><time>2026-04-08T09:54:29.519Z</time></trkpt><trkpt lat="45.3817118" lon="10.6236108"><ele>100.0</ele><time>2026-04-08T09:54:30.519Z</time></trkpt><trkpt lat="45.3817008" lon="10.6237332"><ele>100.0</ele><time>2026-04-08T09:54:31.519Z</time></trkpt><trkpt lat="45.3816864" lon="10.6238525"><ele>100.00000000000001</ele><time>2026-04-08T09:54:32.52Z</time></trkpt><trkpt lat="45.3816703" lon="10.623974"><ele>100.0</ele><time>2026-04-08T09:54:33.519Z</time></trkpt><trkpt lat="45.3816605" lon="10.624092"><ele>100.16666666666667</ele><time>2026-04-08T09:54:34.52Z</time></trkpt><trkpt lat="45.3816534" lon="10.6242157"><ele>100.33333333333334</ele><time>2026-04-08T09:54:35.571Z</time></trkpt><trkpt lat="45.3816469" lon="10.624339"><ele>100.5</ele><time>2026-04-08T09:54:36.571Z</time></trkpt><trkpt lat="45.3816399" lon="10.6244637"><ele>100.66666666666666</ele><time>2026-04-08T09:54:37.572Z</time></trkpt><trkpt lat="45.3816342" lon="10.6245878"><ele>100.83333333333333</ele><time>2026-04-08T09:54:38.572Z</time></trkpt><trkpt lat="45.3816313" lon="10.6247105"><ele>101.0</ele><time>2026-04-08T09:54:39.571Z</time></trkpt><trkpt lat="45.3816297" lon="10.6248368"><ele>100.83333333333333</ele><time>2026-04-08T09:54:40.571Z</time></trkpt><trkpt lat="45.3816245" lon="10.6249593"><ele>100.66666666666666</ele><time>2026-04-08T09:54:41.571Z</time></trkpt><trkpt lat="45.3816152" lon="10.6250822"><ele>100.5</ele><time>2026-04-08T09:54:42.571Z</time></trkpt><trkpt lat="45.3816031" lon="10.6252063"><ele>100.33333333333334</ele><time>2026-04-08T09:54:43.571Z</time></trkpt><trkpt lat="45.3815882" lon="10.6253323"><ele>100.16666666666667</ele><time>2026-04-08T09:54:44.572Z</time></trkpt><trkpt lat="45.3815701" lon="10.6254602"><ele>100.0</ele><time>2026-04-08T09:54:45.571Z</time></trkpt><trkpt lat="45.3815545" lon="10.6255863"><ele>100.0</ele><time>2026-04-08T09:54:46.572Z</time></trkpt><trkpt lat="45.3815414" lon="10.6257115"><ele>100.0</ele><time>2026-04-08T09:54:47.571Z</time></trkpt><trkpt lat="45.381528" lon="10.6258408"><ele>100.0</ele><time>2026-04-08T09:54:48.571Z</time></trkpt><trkpt lat="45.381511" lon="10.6259726"><ele>100.0</ele><time>2026-04-08T09:54:49.572Z</time></trkpt><trkpt lat="45.3814906" lon="10.6261089"><ele>100.0</ele><time>2026-04-08T09:54:50.572Z</time></trkpt><trkpt lat="45.3814649" lon="10.6262547"><ele>100.2</ele><time>2026-04-08T09:54:51.571Z</time></trkpt><trkpt lat="45.3814397" lon="10.6263987"><ele>100.4</ele><time>2026-04-08T09:54:52.572Z</time></trkpt><trkpt lat="45.3814213" lon="10.6265359"><ele>100.6</ele><time>2026-04-08T09:54:53.572Z</time></trkpt><trkpt lat="45.3814025" lon="10.6266735"><ele>100.8</ele><time>2026-04-08T09:54:54.571Z</time></trkpt><trkpt lat="45.3813836" lon="10.626815"><ele>101.0</ele><time>2026-04-08T09:54:55.571Z</time></trkpt><trkpt lat="45.3813646" lon="10.626952"><ele>101.99999999999999</ele><time>2026-04-08T09:54:56.571Z</time></trkpt><trkpt lat="45.3813452" lon="10.6270846"><ele>103.0</ele><time>2026-04-08T09:54:57.571Z</time></trkpt><trkpt lat="45.3813268" lon="10.6272167"><ele>104.0</ele><time>2026-04-08T09:54:58.571Z</time></trkpt><trkpt lat="45.3813111" lon="10.627344"><ele>105.0</ele><time>2026-04-08T09:54:59.572Z</time></trkpt><trkpt lat="45.3812969" lon="10.6274591"><ele>105.99999999999999</ele><time>2026-04-08T09:55:00.572Z</time></trkpt><trkpt lat="45.3812836" lon="10.6275601"><ele>107.0</ele><time>2026-04-08T09:55:01.571Z</time></trkpt><trkpt lat="45.3812742" lon="10.627652"><ele>107.0</ele><time>2026-04-08T09:55:02.572Z</time></trkpt><trkpt lat="45.3812386" lon="10.6278053"><ele>106.99999999999999</ele><time>2026-04-08T09:55:04.572Z</time></trkpt><trkpt lat="45.3811188" lon="10.6278881"><ele>106.99999999999999</ele><time>2026-04-08T09:55:06.572Z</time></trkpt><trkpt lat="45.3810368" lon="10.6279181"><ele>107.0</ele><time>2026-04-08T09:55:07.571Z</time></trkpt><trkpt lat="45.3809407" lon="10.6279464"><ele>107.0</ele><time>2026-04-08T09:55:08.572Z</time></trkpt><trkpt lat="45.3808403" lon="10.6279853"><ele>107.19999999999999</ele><time>2026-04-08T09:55:09.572Z</time></trkpt><trkpt lat="45.3807338" lon="10.6280336"><ele>107.39999999999999</ele><time>2026-04-08T09:55:10.572Z</time></trkpt><trkpt lat="45.3806264" lon="10.6280855"><ele>107.60000000000001</ele><time>2026-04-08T09:55:11.572Z</time></trkpt><trkpt lat="45.3805235" lon="10.6281374"><ele>107.80000000000001</ele><time>2026-04-08T09:55:12.571Z</time></trkpt><trkpt lat="45.3804256" lon="10.6281977"><ele>108.0</ele><time>2026-04-08T09:55:13.572Z</time></trkpt><trkpt lat="45.3803415" lon="10.6282636"><ele>108.0</ele><time>2026-04-08T09:55:14.572Z</time></trkpt><trkpt lat="45.3802721" lon="10.6283333"><ele>108.0</ele><time>2026-04-08T09:55:15.571Z</time></trkpt><trkpt lat="45.3802102" lon="10.6283985"><ele>108.0</ele><time>2026-04-08T09:55:16.572Z</time></trkpt><trkpt lat="45.3801427" lon="10.6284575"><ele>108.0</ele><time>2026-04-08T09:55:17.572Z</time></trkpt><trkpt lat="45.380069" lon="10.6285043"><ele>108.0</ele><time>2026-04-08T09:55:18.571Z</time></trkpt><trkpt lat="45.3799857" lon="10.6285295"><ele>108.0</ele><time>2026-04-08T09:55:19.571Z</time></trkpt><trkpt lat="45.3798978" lon="10.6285361"><ele>108.0</ele><time>2026-04-08T09:55:20.571Z</time></trkpt><trkpt lat="45.3798057" lon="10.6285186"><ele>108.00000000000001</ele><time>2026-04-08T09:55:21.571Z</time></trkpt><trkpt lat="45.3797116" lon="10.628501"><ele>108.00000000000001</ele><time>2026-04-08T09:55:22.571Z</time></trkpt><trkpt lat="45.3796198" lon="10.6284719"><ele>108.0</ele><time>2026-04-08T09:55:23.571Z</time></trkpt><trkpt lat="45.3795356" lon="10.6284391"><ele>108.0</ele><time>2026-04-08T09:55:24.572Z</time></trkpt><trkpt lat="45.3794501" lon="10.6284017"><ele>108.28571428571428</ele><time>2026-04-08T09:55:25.571Z</time></trkpt><trkpt lat="45.3793722" lon="10.6283787"><ele>108.57142857142857</ele><time>2026-04-08T09:55:26.572Z</time></trkpt><trkpt lat="45.3793073" lon="10.6283793"><ele>108.85714285714286</ele><time>2026-04-08T09:55:27.571Z</time></trkpt><trkpt lat="45.3792418" lon="10.6283905"><ele>109.14285714285714</ele><time>2026-04-08T09:55:28.571Z</time></trkpt><trkpt lat="45.3791747" lon="10.6284144"><ele>109.42857142857143</ele><time>2026-04-08T09:55:29.571Z</time></trkpt><trkpt lat="45.3790974" lon="10.6284374"><ele>109.71428571428571</ele><time>2026-04-08T09:55:30.571Z</time></trkpt><trkpt lat="45.3790094" lon="10.6284556"><ele>110.0</ele><time>2026-04-08T09:55:31.571Z</time></trkpt><trkpt lat="45.3789158" lon="10.6284752"><ele>109.0</ele><time>2026-04-08T09:55:32.571Z</time></trkpt><trkpt lat="45.3788235" lon="10.6285003"><ele>108.0</ele><time>2026-04-08T09:55:33.572Z</time></trkpt><trkpt lat="45.3787376" lon="10.6285349"><ele>107.0</ele><time>2026-04-08T09:55:34.572Z</time></trkpt><trkpt lat="45.3786531" lon="10.6285828"><ele>106.0</ele><time>2026-04-08T09:55:35.571Z</time></trkpt><trkpt lat="45.3785673" lon="10.6286424"><ele>105.0</ele><time>2026-04-08T09:55:36.571Z</time></trkpt><trkpt lat="45.378471" lon="10.6287175"><ele>105.0</ele><time>2026-04-08T09:55:37.571Z</time></trkpt><trkpt lat="45.378371" lon="10.6288073"><ele>105.0</ele><time>2026-04-08T09:55:38.571Z</time></trkpt><trkpt lat="45.3782707" lon="10.6288966"><ele>105.0</ele><time>2026-04-08T09:55:39.571Z</time></trkpt><trkpt lat="45.3781767" lon="10.6289872"><ele>105.0</ele><time>2026-04-08T09:55:40.571Z</time></trkpt><trkpt lat="45.3780795" lon="10.6290779"><ele>105.25</ele><time>2026-04-08T09:55:41.572Z</time></trkpt><trkpt lat="45.3779782" lon="10.6291708"><ele>105.5</ele><time>2026-04-08T09:55:42.572Z</time></trkpt><trkpt lat="45.3778799" lon="10.6292689"><ele>105.75</ele><time>2026-04-08T09:55:43.572Z</time></trkpt><trkpt lat="45.3777906" lon="10.6293758"><ele>106.0</ele><time>2026-04-08T09:55:44.572Z</time></trkpt><trkpt lat="45.3777097" lon="10.6294974"><ele>106.0</ele><time>2026-04-08T09:55:45.572Z</time></trkpt><trkpt lat="45.3776335" lon="10.6296223"><ele>106.0</ele><time>2026-04-08T09:55:46.572Z</time></trkpt><trkpt lat="45.3775652" lon="10.6297424"><ele>106.0</ele><time>2026-04-08T09:55:47.571Z</time></trkpt><trkpt lat="45.3774977" lon="10.6298399"><ele>106.0</ele><time>2026-04-08T09:55:48.572Z</time></trkpt><trkpt lat="45.3774317" lon="10.6299335"><ele>106.0</ele><time>2026-04-08T09:55:49.571Z</time></trkpt><trkpt lat="45.3773706" lon="10.630033"><ele>106.00000000000001</ele><time>2026-04-08T09:55:50.571Z</time></trkpt><trkpt lat="45.37731" lon="10.6301245"><ele>106.0</ele><time>2026-04-08T09:55:51.571Z</time></trkpt><trkpt lat="45.3772484" lon="10.6301981"><ele>106.0</ele><time>2026-04-08T09:55:52.571Z</time></trkpt><trkpt lat="45.3771785" lon="10.630254"><ele>106.0</ele><time>2026-04-08T09:55:53.572Z</time></trkpt><trkpt lat="45.3770963" lon="10.6302869"><ele>106.00000000000001</ele><time>2026-04-08T09:55:54.571Z</time></trkpt><trkpt lat="45.3770044" lon="10.630304"><ele>106.0</ele><time>2026-04-08T09:55:55.572Z</time></trkpt><trkpt lat="45.3769089" lon="10.6303223"><ele>107.00000000000001</ele><time>2026-04-08T09:55:56.572Z</time></trkpt><trkpt lat="45.3768096" lon="10.6303439"><ele>108.0</ele><time>2026-04-08T09:55:57.572Z</time></trkpt><trkpt lat="45.3767278" lon="10.6303799"><ele>109.0</ele><time>2026-04-08T09:55:58.572Z</time></trkpt><trkpt lat="45.3766667" lon="10.6304174"><ele>110.0</ele><time>2026-04-08T09:55:59.571Z</time></trkpt><trkpt lat="45.3766103" lon="10.6304767"><ele>111.00000000000001</ele><time>2026-04-08T09:56:00.572Z</time></trkpt><trkpt lat="45.3765583" lon="10.6305609"><ele>112.0</ele><time>2026-04-08T09:56:01.572Z</time></trkpt><trkpt lat="45.3765085" lon="10.6306696"><ele>112.0</ele><time>2026-04-08T09:56:02.571Z</time></trkpt><trkpt lat="45.376456" lon="10.630794"><ele>111.99999999999999</ele><time>2026-04-08T09:56:03.572Z</time></trkpt><trkpt lat="45.3764061" lon="10.6309196"><ele>111.99999999999999</ele><time>2026-04-08T09:56:04.572Z</time></trkpt><trkpt lat="45.3763686" lon="10.631051"><ele>112.0</ele><time>2026-04-08T09:56:05.571Z</time></trkpt><trkpt lat="45.3763342" lon="10.6311919"><ele>112.0</ele><time>2026-04-08T09:56:06.571Z</time></trkpt><trkpt lat="45.3762886" lon="10.6313431"><ele>114.0</ele><time>2026-04-08T09:56:07.572Z</time></trkpt><trkpt lat="45.3762404" lon="10.6314998"><ele>116.0</ele><time>2026-04-08T09:56:08.571Z</time></trkpt><trkpt lat="45.3761931" lon="10.6316635"><ele>118.0</ele><time>2026-04-08T09:56:09.572Z</time></trkpt><trkpt lat="45.3761444" lon="10.6318308"><ele>120.0</ele><time>2026-04-08T09:56:10.572Z</time></trkpt><trkpt lat="45.3760965" lon="10.6319947"><ele>120.0</ele><time>2026-04-08T09:56:11.571Z</time></trkpt><trkpt lat="45.3760603" lon="10.6321568"><ele>120.0</ele><time>2026-04-08T09:56:12.571Z</time></trkpt><trkpt lat="45.3760282" lon="10.632325"><ele>120.0</ele><time>2026-04-08T09:56:13.572Z</time></trkpt><trkpt lat="45.3760008" lon="10.6325053"><ele>120.0</ele><time>2026-04-08T09:56:14.572Z</time></trkpt><trkpt lat="45.3759774" lon="10.6326875"><ele>118.2</ele><time>2026-04-08T09:56:15.572Z</time></trkpt><trkpt lat="45.3759564" lon="10.6328624"><ele>116.4</ele><time>2026-04-08T09:56:16.571Z</time></trkpt><trkpt lat="45.3759408" lon="10.6330255"><ele>114.6</ele><time>2026-04-08T09:56:17.571Z</time></trkpt><trkpt lat="45.3759371" lon="10.6331717"><ele>112.8</ele><time>2026-04-08T09:56:18.571Z</time></trkpt><trkpt lat="45.3759314" lon="10.6333104"><ele>111.0</ele><time>2026-04-08T09:56:19.571Z</time></trkpt><trkpt lat="45.3759107" lon="10.6334381"><ele>111.0</ele><time>2026-04-08T09:56:20.571Z</time></trkpt><trkpt lat="45.3758835" lon="10.63355"><ele>111.0</ele><time>2026-04-08T09:56:21.572Z</time></trkpt><trkpt lat="45.3758658" lon="10.6336567"><ele>111.0</ele><time>2026-04-08T09:56:22.571Z</time></trkpt><trkpt lat="45.3758739" lon="10.6338123"><ele>111.0</ele><time>2026-04-08T09:56:24.572Z</time></trkpt><trkpt lat="45.3759664" lon="10.6339551"><ele>111.0</ele><time>2026-04-08T09:56:26.572Z</time></trkpt><trkpt lat="45.3760239" lon="10.6340455"><ele>110.5</ele><time>2026-04-08T09:56:27.572Z</time></trkpt><trkpt lat="45.3760881" lon="10.6341337"><ele>110.0</ele><time>2026-04-08T09:56:28.572Z</time></trkpt><trkpt lat="45.3761627" lon="10.6342093"><ele>109.5</ele><time>2026-04-08T09:56:29.571Z</time></trkpt><trkpt lat="45.3762389" lon="10.6342866"><ele>109.0</ele><time>2026-04-08T09:56:30.522Z</time></trkpt><trkpt lat="45.3763093" lon="10.6343675"><ele>108.5</ele><time>2026-04-08T09:56:31.521Z</time></trkpt><trkpt lat="45.3763597" lon="10.6344489"><ele>108.0</ele><time>2026-04-08T09:56:32.522Z</time></trkpt><trkpt lat="45.3764072" lon="10.6345437"><ele>107.60000000000001</ele><time>2026-04-08T09:56:33.521Z</time></trkpt><trkpt lat="45.3764376" lon="10.6346609"><ele>107.20000000000002</ele><time>2026-04-08T09:56:34.522Z</time></trkpt><trkpt lat="45.3764721" lon="10.6347775"><ele>106.8</ele><time>2026-04-08T09:56:35.521Z</time></trkpt><trkpt lat="45.3765054" lon="10.634895"><ele>106.4</ele><time>2026-04-08T09:56:36.522Z</time></trkpt><trkpt lat="45.3765399" lon="10.6350212"><ele>106.0</ele><time>2026-04-08T09:56:37.521Z</time></trkpt><trkpt lat="45.3765781" lon="10.6351381"><ele>106.00000000000001</ele><time>2026-04-08T09:56:38.521Z</time></trkpt><trkpt lat="45.3766003" lon="10.6352316"><ele>106.0</ele><time>2026-04-08T09:56:39.522Z</time></trkpt><trkpt lat="45.3765954" lon="10.6353631"><ele>106.0</ele><time>2026-04-08T09:56:41.522Z</time></trkpt><trkpt lat="45.3765648" lon="10.6354524"><ele>106.0</ele><time>2026-04-08T09:56:43.521Z</time></trkpt><trkpt lat="45.3765073" lon="10.6355993"><ele>106.00000000000001</ele><time>2026-04-08T09:56:46.522Z</time></trkpt><trkpt lat="45.3764728" lon="10.635678"><ele>106.0</ele><time>2026-04-08T09:56:47.523Z</time></trkpt><trkpt lat="45.3764487" lon="10.635771"><ele>107.6</ele><time>2026-04-08T09:56:48.522Z</time></trkpt><trkpt lat="45.3764282" lon="10.6358597"><ele>109.19999999999999</ele><time>2026-04-08T09:56:51.583Z</time></trkpt><trkpt lat="45.3763886" lon="10.6357821"><ele>110.80000000000001</ele><time>2026-04-08T09:57:00.644Z</time></trkpt><trkpt lat="45.3762104" lon="10.6356608"><ele>112.4</ele><time>2026-04-08T09:57:02.522Z</time></trkpt><trkpt lat="45.376107" lon="10.635594"><ele>114.0</ele><time>2026-04-08T09:57:03.522Z</time></trkpt><trkpt lat="45.376019" lon="10.6355186"><ele>114.28571428571428</ele><time>2026-04-08T09:57:04.523Z</time></trkpt><trkpt lat="45.3759427" lon="10.6354604"><ele>114.57142857142856</ele><time>2026-04-08T09:57:05.523Z</time></trkpt><trkpt lat="45.375877" lon="10.6354224"><ele>114.85714285714286</ele><time>2026-04-08T09:57:06.522Z</time></trkpt><trkpt lat="45.3758104" lon="10.6353939"><ele>115.14285714285714</ele><time>2026-04-08T09:57:07.522Z</time></trkpt><trkpt lat="45.3757416" lon="10.6353681"><ele>115.42857142857143</ele><time>2026-04-08T09:57:08.522Z</time></trkpt><trkpt lat="45.3756751" lon="10.6353471"><ele>115.71428571428572</ele><time>2026-04-08T09:57:09.522Z</time></trkpt><trkpt lat="45.3756047" lon="10.6353344"><ele>116.00000000000001</ele><time>2026-04-08T09:57:10.522Z</time></trkpt><trkpt lat="45.3755236" lon="10.6353403"><ele>115.19999999999999</ele><time>2026-04-08T09:57:11.523Z</time></trkpt><trkpt lat="45.3754315" lon="10.6353698"><ele>114.39999999999999</ele><time>2026-04-08T09:57:12.522Z</time></trkpt><trkpt lat="45.3753408" lon="10.6354361"><ele>113.6</ele><time>2026-04-08T09:57:13.523Z</time></trkpt><trkpt lat="45.3752592" lon="10.6355309"><ele>112.8</ele><time>2026-04-08T09:57:14.522Z</time></trkpt><trkpt lat="45.3751914" lon="10.6356399"><ele>112.0</ele><time>2026-04-08T09:57:15.523Z</time></trkpt><trkpt lat="45.375126" lon="10.6357474"><ele>112.0</ele><time>2026-04-08T09:57:16.523Z</time></trkpt><trkpt lat="45.3750489" lon="10.6358443"><ele>111.99999999999999</ele><time>2026-04-08T09:57:17.523Z</time></trkpt><trkpt lat="45.3749636" lon="10.6359299"><ele>111.99999999999999</ele><time>2026-04-08T09:57:18.522Z</time></trkpt><trkpt lat="45.3748866" lon="10.6360208"><ele>112.0</ele><time>2026-04-08T09:57:19.522Z</time></trkpt><trkpt lat="45.3748189" lon="10.6361105"><ele>112.0</ele><time>2026-04-08T09:57:20.522Z</time></trkpt><trkpt lat="45.3747601" lon="10.6361917"><ele>112.33333333333334</ele><time>2026-04-08T09:57:21.522Z</time></trkpt><trkpt lat="45.3746957" lon="10.6362529"><ele>112.66666666666667</ele><time>2026-04-08T09:57:22.523Z</time></trkpt><trkpt lat="45.3746267" lon="10.6362973"><ele>113.0</ele><time>2026-04-08T09:57:23.522Z</time></trkpt><trkpt lat="45.3745659" lon="10.6363443"><ele>113.33333333333334</ele><time>2026-04-08T09:57:24.522Z</time></trkpt><trkpt lat="45.3745085" lon="10.6363923"><ele>113.66666666666667</ele><time>2026-04-08T09:57:25.523Z</time></trkpt><trkpt lat="45.3744372" lon="10.6365229"><ele>114.0</ele><time>2026-04-08T09:57:27.522Z</time></trkpt><trkpt lat="45.374436" lon="10.6366213"><ele>113.33333333333333</ele><time>2026-04-08T09:57:28.523Z</time></trkpt><trkpt lat="45.3744508" lon="10.6367193"><ele>112.66666666666666</ele><time>2026-04-08T09:57:29.522Z</time></trkpt><trkpt lat="45.3744948" lon="10.6368217"><ele>112.0</ele><time>2026-04-08T09:57:30.522Z</time></trkpt><trkpt lat="45.374541" lon="10.6369451"><ele>111.33333333333333</ele><time>2026-04-08T09:57:31.523Z</time></trkpt><trkpt lat="45.3745755" lon="10.6370704"><ele>110.66666666666666</ele><time>2026-04-08T09:57:32.522Z</time></trkpt><trkpt lat="45.3746012" lon="10.6371923"><ele>110.0</ele><time>2026-04-08T09:57:33.524Z</time></trkpt><trkpt lat="45.3746145" lon="10.6373296"><ele>110.0</ele><time>2026-04-08T09:57:34.523Z</time></trkpt><trkpt lat="45.37461" lon="10.6374806"><ele>110.0</ele><time>2026-04-08T09:57:35.524Z</time></trkpt><trkpt lat="45.3746069" lon="10.6376355"><ele>110.0</ele><time>2026-04-08T09:57:36.523Z</time></trkpt><trkpt lat="45.3746193" lon="10.6378062"><ele>110.0</ele><time>2026-04-08T09:57:37.523Z</time></trkpt><trkpt lat="45.3746431" lon="10.6379821"><ele>110.5</ele><time>2026-04-08T09:57:38.524Z</time></trkpt><trkpt lat="45.374675" lon="10.6381471"><ele>111.0</ele><time>2026-04-08T09:57:39.523Z</time></trkpt><trkpt lat="45.374709" lon="10.6383087"><ele>111.5</ele><time>2026-04-08T09:57:40.523Z</time></trkpt><trkpt lat="45.3747473" lon="10.6384597"><ele>112.0</ele><time>2026-04-08T09:57:41.524Z</time></trkpt><trkpt lat="45.3747857" lon="10.6386193"><ele>113.75</ele><time>2026-04-08T09:57:42.523Z</time></trkpt><trkpt lat="45.3748133" lon="10.6387888"><ele>115.5</ele><time>2026-04-08T09:57:43.523Z</time></trkpt><trkpt lat="45.3748302" lon="10.638959"><ele>117.25</ele><time>2026-04-08T09:57:44.523Z</time></trkpt><trkpt lat="45.3748327" lon="10.6391381"><ele>119.0</ele><time>2026-04-08T09:57:45.524Z</time></trkpt><trkpt lat="45.3748333" lon="10.6393151"><ele>118.75</ele><time>2026-04-08T09:57:46.524Z</time></trkpt><trkpt lat="45.3748468" lon="10.6394878"><ele>118.5</ele><time>2026-04-08T09:57:47.524Z</time></trkpt><trkpt lat="45.3748789" lon="10.6396619"><ele>118.25</ele><time>2026-04-08T09:57:48.523Z</time></trkpt><trkpt lat="45.3749267" lon="10.6398274"><ele>118.0</ele><time>2026-04-08T09:57:49.524Z</time></trkpt><trkpt lat="45.3749822" lon="10.639971"><ele>118.0</ele><time>2026-04-08T09:57:50.523Z</time></trkpt><trkpt lat="45.3750425" lon="10.6400928"><ele>118.00000000000001</ele><time>2026-04-08T09:57:51.524Z</time></trkpt><trkpt lat="45.3751029" lon="10.6402072"><ele>118.00000000000001</ele><time>2026-04-08T09:57:52.524Z</time></trkpt><trkpt lat="45.3751616" lon="10.6403152"><ele>118.0</ele><time>2026-04-08T09:57:53.524Z</time></trkpt><trkpt lat="45.3752154" lon="10.6404234"><ele>118.0</ele><time>2026-04-08T09:57:54.524Z</time></trkpt><trkpt lat="45.3752632" lon="10.6405267"><ele>117.16666666666667</ele><time>2026-04-08T09:57:55.524Z</time></trkpt><trkpt lat="45.3753026" lon="10.6406314"><ele>116.33333333333334</ele><time>2026-04-08T09:57:56.523Z</time></trkpt><trkpt lat="45.3753162" lon="10.6407398"><ele>115.5</ele><time>2026-04-08T09:57:57.523Z</time></trkpt><trkpt lat="45.3753124" lon="10.6408407"><ele>114.66666666666666</ele><time>2026-04-08T09:57:58.524Z</time></trkpt><trkpt lat="45.3752928" lon="10.6409363"><ele>113.83333333333333</ele><time>2026-04-08T09:57:59.524Z</time></trkpt><trkpt lat="45.3752241" lon="10.6410635"><ele>113.0</ele><time>2026-04-08T09:58:01.523Z</time></trkpt><trkpt lat="45.3751163" lon="10.641121"><ele>112.4</ele><time>2026-04-08T09:58:03.523Z</time></trkpt><trkpt lat="45.3750361" lon="10.6411484"><ele>111.80000000000001</ele><time>2026-04-08T09:58:04.523Z</time></trkpt><trkpt lat="45.3749404" lon="10.6411655"><ele>111.2</ele><time>2026-04-08T09:58:05.523Z</time></trkpt><trkpt lat="45.3748388" lon="10.6411829"><ele>110.6</ele><time>2026-04-08T09:58:06.523Z</time></trkpt><trkpt lat="45.3747238" lon="10.6411978"><ele>110.0</ele><time>2026-04-08T09:58:07.523Z</time></trkpt><trkpt lat="45.3746013" lon="10.6411981"><ele>109.75</ele><time>2026-04-08T09:58:08.524Z</time></trkpt><trkpt lat="45.3744789" lon="10.641192"><ele>109.5</ele><time>2026-04-08T09:58:09.523Z</time></trkpt><trkpt lat="45.3743461" lon="10.6411915"><ele>109.25</ele><time>2026-04-08T09:58:10.523Z</time></trkpt><trkpt lat="45.3742069" lon="10.6411903"><ele>109.0</ele><time>2026-04-08T09:58:11.523Z</time></trkpt><trkpt lat="45.3740607" lon="10.6411966"><ele>109.0</ele><time>2026-04-08T09:58:12.524Z</time></trkpt><trkpt lat="45.3739082" lon="10.6412331"><ele>109.0</ele><time>2026-04-08T09:58:13.524Z</time></trkpt><trkpt lat="45.3737543" lon="10.6413045"><ele>109.0</ele><time>2026-04-08T09:58:14.523Z</time></trkpt><trkpt lat="45.3736043" lon="10.6414107"><ele>108.0</ele><time>2026-04-08T09:58:15.524Z</time></trkpt><trkpt lat="45.3734595" lon="10.6415455"><ele>107.0</ele><time>2026-04-08T09:58:16.523Z</time></trkpt><trkpt lat="45.3733185" lon="10.6416842"><ele>106.0</ele><time>2026-04-08T09:58:17.523Z</time></trkpt><trkpt lat="45.3731768" lon="10.6418188"><ele>106.0</ele><time>2026-04-08T09:58:18.524Z</time></trkpt><trkpt lat="45.3730384" lon="10.6419521"><ele>106.0</ele><time>2026-04-08T09:58:19.523Z</time></trkpt><trkpt lat="45.3729027" lon="10.6420747"><ele>106.0</ele><time>2026-04-08T09:58:20.525Z</time></trkpt><trkpt lat="45.3727558" lon="10.6421813"><ele>106.0</ele><time>2026-04-08T09:58:21.525Z</time></trkpt><trkpt lat="45.3725941" lon="10.6422523"><ele>106.0</ele><time>2026-04-08T09:58:22.524Z</time></trkpt><trkpt lat="45.3724234" lon="10.6422921"><ele>106.0</ele><time>2026-04-08T09:58:23.525Z</time></trkpt><trkpt lat="45.3722457" lon="10.6423165"><ele>107.0</ele><time>2026-04-08T09:58:24.524Z</time></trkpt><trkpt lat="45.3720683" lon="10.6423511"><ele>108.0</ele><time>2026-04-08T09:58:25.525Z</time></trkpt><trkpt lat="45.3718908" lon="10.6423893"><ele>109.0</ele><time>2026-04-08T09:58:26.525Z</time></trkpt><trkpt lat="45.3717126" lon="10.6424235"><ele>109.0</ele><time>2026-04-08T09:58:27.524Z</time></trkpt><trkpt lat="45.3715403" lon="10.6424569"><ele>109.0</ele><time>2026-04-08T09:58:28.525Z</time></trkpt><trkpt lat="45.3713743" lon="10.6424991"><ele>109.0</ele><time>2026-04-08T09:58:29.524Z</time></trkpt><trkpt lat="45.3712164" lon="10.6425723"><ele>108.66666666666667</ele><time>2026-04-08T09:58:30.525Z</time></trkpt><trkpt lat="45.3710731" lon="10.6426848"><ele>108.33333333333334</ele><time>2026-04-08T09:58:31.525Z</time></trkpt><trkpt lat="45.3709452" lon="10.6428484"><ele>108.0</ele><time>2026-04-08T09:58:32.524Z</time></trkpt><trkpt lat="45.3708319" lon="10.6430243"><ele>108.0</ele><time>2026-04-08T09:58:33.524Z</time></trkpt><trkpt lat="45.3707206" lon="10.6431954"><ele>108.0</ele><time>2026-04-08T09:58:34.525Z</time></trkpt><trkpt lat="45.3705941" lon="10.6433518"><ele>108.0</ele><time>2026-04-08T09:58:35.525Z</time></trkpt><trkpt lat="45.3704483" lon="10.6434744"><ele>108.33333333333334</ele><time>2026-04-08T09:58:36.525Z</time></trkpt><trkpt lat="45.3702822" lon="10.6435479"><ele>108.66666666666667</ele><time>2026-04-08T09:58:37.524Z</time></trkpt><trkpt lat="45.3701251" lon="10.6436063"><ele>109.0</ele><time>2026-04-08T09:58:38.525Z</time></trkpt><trkpt lat="45.3699639" lon="10.6436709"><ele>109.66666666666667</ele><time>2026-04-08T09:58:39.524Z</time></trkpt><trkpt lat="45.3698015" lon="10.6437396"><ele>110.33333333333334</ele><time>2026-04-08T09:58:40.525Z</time></trkpt><trkpt lat="45.3696392" lon="10.6438099"><ele>111.0</ele><time>2026-04-08T09:58:41.524Z</time></trkpt><trkpt lat="45.3694835" lon="10.6438804"><ele>111.0</ele><time>2026-04-08T09:58:42.525Z</time></trkpt><trkpt lat="45.3693292" lon="10.643959"><ele>111.0</ele><time>2026-04-08T09:58:43.524Z</time></trkpt><trkpt lat="45.3691772" lon="10.6440431"><ele>111.0</ele><time>2026-04-08T09:58:44.525Z</time></trkpt><trkpt lat="45.3690223" lon="10.6441311"><ele>111.0</ele><time>2026-04-08T09:58:45.525Z</time></trkpt><trkpt lat="45.3688636" lon="10.6442076"><ele>111.0</ele><time>2026-04-08T09:58:46.524Z</time></trkpt><trkpt lat="45.3687005" lon="10.6442472"><ele>111.0</ele><time>2026-04-08T09:58:47.524Z</time></trkpt><trkpt lat="45.3685327" lon="10.6442629"><ele>110.66666666666666</ele><time>2026-04-08T09:58:48.525Z</time></trkpt><trkpt lat="45.3683702" lon="10.6442705"><ele>110.33333333333333</ele><time>2026-04-08T09:58:49.525Z</time></trkpt><trkpt lat="45.3682106" lon="10.6442853"><ele>110.0</ele><time>2026-04-08T09:58:50.525Z</time></trkpt><trkpt lat="45.3680501" lon="10.644298"><ele>110.0</ele><time>2026-04-08T09:58:51.524Z</time></trkpt><trkpt lat="45.3678952" lon="10.6442866"><ele>110.0</ele><time>2026-04-08T09:58:52.524Z</time></trkpt><trkpt lat="45.3677358" lon="10.6442396"><ele>110.0</ele><time>2026-04-08T09:58:53.524Z</time></trkpt><trkpt lat="45.3675766" lon="10.644171"><ele>110.0</ele><time>2026-04-08T09:58:54.524Z</time></trkpt><trkpt lat="45.3674227" lon="10.6440778"><ele>110.0</ele><time>2026-04-08T09:58:55.525Z</time></trkpt><trkpt lat="45.3672762" lon="10.6439633"><ele>110.0</ele><time>2026-04-08T09:58:56.525Z</time></trkpt><trkpt lat="45.3671336" lon="10.6438221"><ele>109.66666666666666</ele><time>2026-04-08T09:58:57.524Z</time></trkpt><trkpt lat="45.3669994" lon="10.6436701"><ele>109.33333333333334</ele><time>2026-04-08T09:58:58.525Z</time></trkpt><trkpt lat="45.3668598" lon="10.6435155"><ele>109.0</ele><time>2026-04-08T09:58:59.524Z</time></trkpt><trkpt lat="45.3667084" lon="10.6433733"><ele>108.33333333333334</ele><time>2026-04-08T09:59:00.525Z</time></trkpt><trkpt lat="45.3665498" lon="10.6432677"><ele>107.66666666666666</ele><time>2026-04-08T09:59:01.524Z</time></trkpt><trkpt lat="45.36639" lon="10.6431931"><ele>107.0</ele><time>2026-04-08T09:59:02.524Z</time></trkpt><trkpt lat="45.3662313" lon="10.6431676"><ele>106.66666666666666</ele><time>2026-04-08T09:59:03.524Z</time></trkpt><trkpt lat="45.366079" lon="10.6431955"><ele>106.33333333333334</ele><time>2026-04-08T09:59:04.524Z</time></trkpt><trkpt lat="45.3659346" lon="10.6432736"><ele>106.0</ele><time>2026-04-08T09:59:05.525Z</time></trkpt><trkpt lat="45.3657966" lon="10.6433948"><ele>106.0</ele><time>2026-04-08T09:59:06.524Z</time></trkpt><trkpt lat="45.3656661" lon="10.64352"><ele>106.0</ele><time>2026-04-08T09:59:07.526Z</time></trkpt><trkpt lat="45.3655371" lon="10.6436352"><ele>106.0</ele><time>2026-04-08T09:59:08.526Z</time></trkpt><trkpt lat="45.3654061" lon="10.643734"><ele>106.33333333333334</ele><time>2026-04-08T09:59:09.526Z</time></trkpt><trkpt lat="45.3652688" lon="10.6438221"><ele>106.66666666666666</ele><time>2026-04-08T09:59:10.525Z</time></trkpt><trkpt lat="45.3651226" lon="10.6438808"><ele>107.0</ele><time>2026-04-08T09:59:11.525Z</time></trkpt><trkpt lat="45.3649736" lon="10.6439078"><ele>107.0</ele><time>2026-04-08T09:59:12.525Z</time></trkpt><trkpt lat="45.3648186" lon="10.6439084"><ele>107.0</ele><time>2026-04-08T09:59:13.525Z</time></trkpt><trkpt lat="45.3646698" lon="10.6438777"><ele>107.0</ele><time>2026-04-08T09:59:14.525Z</time></trkpt><trkpt lat="45.3645221" lon="10.6438296"><ele>107.25</ele><time>2026-04-08T09:59:15.526Z</time></trkpt><trkpt lat="45.3643747" lon="10.6437713"><ele>107.5</ele><time>2026-04-08T09:59:16.526Z</time></trkpt><trkpt lat="45.36423" lon="10.6437152"><ele>107.75</ele><time>2026-04-08T09:59:17.525Z</time></trkpt><trkpt lat="45.3640948" lon="10.6436628"><ele>108.0</ele><time>2026-04-08T09:59:18.525Z</time></trkpt><trkpt lat="45.3639568" lon="10.643655"><ele>109.25</ele><time>2026-04-08T09:59:19.525Z</time></trkpt><trkpt lat="45.3638229" lon="10.6437087"><ele>110.5</ele><time>2026-04-08T09:59:20.526Z</time></trkpt><trkpt lat="45.3636877" lon="10.6437851"><ele>111.75</ele><time>2026-04-08T09:59:21.525Z</time></trkpt><trkpt lat="45.3635521" lon="10.6438754"><ele>113.0</ele><time>2026-04-08T09:59:22.526Z</time></trkpt><trkpt lat="45.3634125" lon="10.6439606"><ele>113.0</ele><time>2026-04-08T09:59:23.525Z</time></trkpt><trkpt lat="45.3632713" lon="10.6440451"><ele>113.0</ele><time>2026-04-08T09:59:24.526Z</time></trkpt><trkpt lat="45.3631308" lon="10.6441284"><ele>113.0</ele><time>2026-04-08T09:59:25.525Z</time></trkpt><trkpt lat="45.3629896" lon="10.6442233"><ele>114.33333333333333</ele><time>2026-04-08T09:59:26.525Z</time></trkpt><trkpt lat="45.3628416" lon="10.6443093"><ele>115.66666666666666</ele><time>2026-04-08T09:59:27.525Z</time></trkpt><trkpt lat="45.3626822" lon="10.6443634"><ele>117.0</ele><time>2026-04-08T09:59:28.526Z</time></trkpt><trkpt lat="45.3625186" lon="10.6443828"><ele>117.0</ele><time>2026-04-08T09:59:29.525Z</time></trkpt><trkpt lat="45.3623509" lon="10.6443838"><ele>117.0</ele><time>2026-04-08T09:59:30.525Z</time></trkpt><trkpt lat="45.3621952" lon="10.6443823"><ele>117.0</ele><time>2026-04-08T09:59:31.526Z</time></trkpt><trkpt lat="45.3620475" lon="10.6444076"><ele>118.25</ele><time>2026-04-08T09:59:32.526Z</time></trkpt><trkpt lat="45.361912" lon="10.6444564"><ele>119.5</ele><time>2026-04-08T09:59:33.526Z</time></trkpt><trkpt lat="45.3617834" lon="10.6445422"><ele>120.75</ele><time>2026-04-08T09:59:34.525Z</time></trkpt><trkpt lat="45.3616646" lon="10.6446605"><ele>122.0</ele><time>2026-04-08T09:59:35.525Z</time></trkpt><trkpt lat="45.3615538" lon="10.6447855"><ele>123.5</ele><time>2026-04-08T09:59:36.525Z</time></trkpt><trkpt lat="45.3614361" lon="10.6449013"><ele>125.0</ele><time>2026-04-08T09:59:37.525Z</time></trkpt><trkpt lat="45.3613004" lon="10.6449798"><ele>126.5</ele><time>2026-04-08T09:59:38.526Z</time></trkpt><trkpt lat="45.3611634" lon="10.6450137"><ele>128.0</ele><time>2026-04-08T09:59:39.525Z</time></trkpt><trkpt lat="45.3610259" lon="10.6450121"><ele>128.0</ele><time>2026-04-08T09:59:40.525Z</time></trkpt><trkpt lat="45.3608884" lon="10.6449602"><ele>128.0</ele><time>2026-04-08T09:59:41.525Z</time></trkpt><trkpt lat="45.3607481" lon="10.6448926"><ele>128.0</ele><time>2026-04-08T09:59:42.525Z</time></trkpt><trkpt lat="45.3606046" lon="10.6448263"><ele>128.0</ele><time>2026-04-08T09:59:43.525Z</time></trkpt><trkpt lat="45.3604501" lon="10.644763"><ele>125.66666666666666</ele><time>2026-04-08T09:59:44.525Z</time></trkpt><trkpt lat="45.3602883" lon="10.6447057"><ele>123.33333333333334</ele><time>2026-04-08T09:59:45.526Z</time></trkpt><trkpt lat="45.3601216" lon="10.6446515"><ele>121.0</ele><time>2026-04-08T09:59:46.525Z</time></trkpt><trkpt lat="45.359953" lon="10.6446043"><ele>121.0</ele><time>2026-04-08T09:59:47.526Z</time></trkpt><trkpt lat="45.3597817" lon="10.6445654"><ele>121.0</ele><time>2026-04-08T09:59:48.525Z</time></trkpt><trkpt lat="45.3596103" lon="10.6445228"><ele>121.0</ele><time>2026-04-08T09:59:49.525Z</time></trkpt><trkpt lat="45.359438" lon="10.6444704"><ele>122.0</ele><time>2026-04-08T09:59:50.526Z</time></trkpt><trkpt lat="45.3592681" lon="10.6444207"><ele>123.0</ele><time>2026-04-08T09:59:51.526Z</time></trkpt><trkpt lat="45.3591005" lon="10.6443744"><ele>124.0</ele><time>2026-04-08T09:59:52.526Z</time></trkpt><trkpt lat="45.3589357" lon="10.6443331"><ele>123.75</ele><time>2026-04-08T09:59:53.527Z</time></trkpt><trkpt lat="45.3587801" lon="10.6442951"><ele>123.5</ele><time>2026-04-08T09:59:54.526Z</time></trkpt><trkpt lat="45.3586389" lon="10.6442617"><ele>123.25</ele><time>2026-04-08T09:59:55.527Z</time></trkpt><trkpt lat="45.3585019" lon="10.644233"><ele>123.0</ele><time>2026-04-08T09:59:56.526Z</time></trkpt><trkpt lat="45.3583696" lon="10.6442116"><ele>123.0</ele><time>2026-04-08T09:59:57.526Z</time></trkpt><trkpt lat="45.3582399" lon="10.644183"><ele>123.00000000000001</ele><time>2026-04-08T09:59:58.526Z</time></trkpt><trkpt lat="45.3581208" lon="10.6441443"><ele>123.00000000000001</ele><time>2026-04-08T09:59:59.527Z</time></trkpt><trkpt lat="45.3580206" lon="10.6440983"><ele>123.0</ele><time>2026-04-08T10:00:00.526Z</time></trkpt><trkpt lat="45.3579383" lon="10.6440601"><ele>123.0</ele><time>2026-04-08T10:00:01.526Z</time></trkpt><trkpt lat="45.3578757" lon="10.6440456"><ele>122.5</ele><time>2026-04-08T10:00:02.526Z</time></trkpt><trkpt lat="45.3578063" lon="10.6440596"><ele>122.0</ele><time>2026-04-08T10:00:04.527Z</time></trkpt><trkpt lat="45.3577237" lon="10.6440958"><ele>121.5</ele><time>2026-04-08T10:00:06.526Z</time></trkpt><trkpt lat="45.3576618" lon="10.6441224"><ele>121.0</ele><time>2026-04-08T10:00:07.526Z</time></trkpt><trkpt lat="45.3575877" lon="10.6441529"><ele>120.5</ele><time>2026-04-08T10:00:08.527Z</time></trkpt><trkpt lat="45.3575" lon="10.6441771"><ele>120.0</ele><time>2026-04-08T10:00:09.527Z</time></trkpt><trkpt lat="45.3573983" lon="10.6441819"><ele>120.0</ele><time>2026-04-08T10:00:10.526Z</time></trkpt><trkpt lat="45.3572859" lon="10.6441757"><ele>120.0</ele><time>2026-04-08T10:00:11.526Z</time></trkpt><trkpt lat="45.3571621" lon="10.6441651"><ele>120.0</ele><time>2026-04-08T10:00:12.526Z</time></trkpt><trkpt lat="45.3570317" lon="10.6441694"><ele>120.0</ele><time>2026-04-08T10:00:13.527Z</time></trkpt><trkpt lat="45.3568931" lon="10.6441775"><ele>119.66666666666666</ele><time>2026-04-08T10:00:14.526Z</time></trkpt><trkpt lat="45.3567483" lon="10.6441788"><ele>119.33333333333333</ele><time>2026-04-08T10:00:15.527Z</time></trkpt><trkpt lat="45.3565968" lon="10.6441729"><ele>119.0</ele><time>2026-04-08T10:00:16.526Z</time></trkpt><trkpt lat="45.3564392" lon="10.644152"><ele>119.33333333333333</ele><time>2026-04-08T10:00:17.526Z</time></trkpt><trkpt lat="45.3562813" lon="10.644106"><ele>119.66666666666666</ele><time>2026-04-08T10:00:18.526Z</time></trkpt><trkpt lat="45.3561246" lon="10.6440361"><ele>120.0</ele><time>2026-04-08T10:00:19.526Z</time></trkpt><trkpt lat="45.3559666" lon="10.6439495"><ele>120.0</ele><time>2026-04-08T10:00:20.527Z</time></trkpt><trkpt lat="45.3558094" lon="10.6438607"><ele>120.0</ele><time>2026-04-08T10:00:21.527Z</time></trkpt><trkpt lat="45.3556509" lon="10.6437738"><ele>120.0</ele><time>2026-04-08T10:00:22.526Z</time></trkpt><trkpt lat="45.3554981" lon="10.6436861"><ele>119.5</ele><time>2026-04-08T10:00:23.526Z</time></trkpt><trkpt lat="45.3553621" lon="10.6435969"><ele>119.0</ele><time>2026-04-08T10:00:24.526Z</time></trkpt><trkpt lat="45.3552322" lon="10.6435167"><ele>118.5</ele><time>2026-04-08T10:00:25.526Z</time></trkpt><trkpt lat="45.3550944" lon="10.6434574"><ele>118.0</ele><time>2026-04-08T10:00:26.527Z</time></trkpt><trkpt lat="45.3549424" lon="10.6434525"><ele>118.0</ele><time>2026-04-08T10:00:27.526Z</time></trkpt><trkpt lat="45.3547952" lon="10.6434991"><ele>118.0</ele><time>2026-04-08T10:00:28.527Z</time></trkpt><trkpt lat="45.3546489" lon="10.643588"><ele>118.0</ele><time>2026-04-08T10:00:29.526Z</time></trkpt><trkpt lat="45.354501" lon="10.6436944"><ele>115.66666666666667</ele><time>2026-04-08T10:00:30.526Z</time></trkpt><trkpt lat="45.3543466" lon="10.6438088"><ele>113.33333333333334</ele><time>2026-04-08T10:00:31.526Z</time></trkpt><trkpt lat="45.3541842" lon="10.6439166"><ele>111.0</ele><time>2026-04-08T10:00:32.527Z</time></trkpt><trkpt lat="45.3540229" lon="10.6440259"><ele>110.66666666666666</ele><time>2026-04-08T10:00:33.527Z</time></trkpt><trkpt lat="45.3538616" lon="10.6441369"><ele>110.33333333333333</ele><time>2026-04-08T10:00:34.526Z</time></trkpt><trkpt lat="45.3536992" lon="10.6442565"><ele>110.0</ele><time>2026-04-08T10:00:35.526Z</time></trkpt><trkpt lat="45.3535373" lon="10.6443791"><ele>108.33333333333333</ele><time>2026-04-08T10:00:36.526Z</time></trkpt><trkpt lat="45.353378" lon="10.6445101"><ele>106.66666666666666</ele><time>2026-04-08T10:00:37.527Z</time></trkpt><trkpt lat="45.353225" lon="10.6446447"><ele>105.0</ele><time>2026-04-08T10:00:38.527Z</time></trkpt><trkpt lat="45.3530737" lon="10.6447803"><ele>106.66666666666666</ele><time>2026-04-08T10:00:39.526Z</time></trkpt><trkpt lat="45.3529275" lon="10.6449165"><ele>108.33333333333333</ele><time>2026-04-08T10:00:40.527Z</time></trkpt><trkpt lat="45.3527902" lon="10.64504"><ele>110.0</ele><time>2026-04-08T10:00:41.527Z</time></trkpt><trkpt lat="45.3526597" lon="10.6451493"><ele>110.0</ele><time>2026-04-08T10:00:42.528Z</time></trkpt><trkpt lat="45.3525353" lon="10.6452531"><ele>110.0</ele><time>2026-04-08T10:00:43.528Z</time></trkpt><trkpt lat="45.3524232" lon="10.6453536"><ele>110.0</ele><time>2026-04-08T10:00:44.527Z</time></trkpt><trkpt lat="45.3523134" lon="10.6454543"><ele>110.0</ele><time>2026-04-08T10:00:45.528Z</time></trkpt><trkpt lat="45.3522103" lon="10.6455469"><ele>109.8</ele><time>2026-04-08T10:00:46.527Z</time></trkpt><trkpt lat="45.3521109" lon="10.645631"><ele>109.6</ele><time>2026-04-08T10:00:47.527Z</time></trkpt><trkpt lat="45.3520173" lon="10.6457045"><ele>109.4</ele><time>2026-04-08T10:00:48.527Z</time></trkpt><trkpt lat="45.3519319" lon="10.6457737"><ele>109.2</ele><time>2026-04-08T10:00:49.527Z</time></trkpt><trkpt lat="45.3518532" lon="10.6458383"><ele>109.0</ele><time>2026-04-08T10:00:50.527Z</time></trkpt><trkpt lat="45.3517739" lon="10.6458937"><ele>109.00000000000001</ele><time>2026-04-08T10:00:51.527Z</time></trkpt><trkpt lat="45.35171" lon="10.6458923"><ele>109.0</ele><time>2026-04-08T10:00:52.527Z</time></trkpt><trkpt lat="45.3516466" lon="10.6457546"><ele>109.0</ele><time>2026-04-08T10:00:54.527Z</time></trkpt><trkpt lat="45.3516418" lon="10.6456519"><ele>109.0</ele><time>2026-04-08T10:00:55.528Z</time></trkpt><trkpt lat="45.3516515" lon="10.6455481"><ele>109.00000000000001</ele><time>2026-04-08T10:00:56.528Z</time></trkpt><trkpt lat="45.3516753" lon="10.6454368"><ele>109.0</ele><time>2026-04-08T10:00:57.528Z</time></trkpt><trkpt lat="45.3517114" lon="10.6453248"><ele>109.2</ele><time>2026-04-08T10:00:58.527Z</time></trkpt><trkpt lat="45.351751" lon="10.6452049"><ele>109.4</ele><time>2026-04-08T10:00:59.527Z</time></trkpt><trkpt lat="45.3517952" lon="10.6450853"><ele>109.6</ele><time>2026-04-08T10:01:00.528Z</time></trkpt><trkpt lat="45.3518494" lon="10.6449736"><ele>109.8</ele><time>2026-04-08T10:01:01.527Z</time></trkpt><trkpt lat="45.3519134" lon="10.6448675"><ele>110.0</ele><time>2026-04-08T10:01:02.528Z</time></trkpt><trkpt lat="45.3519854" lon="10.6447742"><ele>109.99999999999999</ele><time>2026-04-08T10:01:03.528Z</time></trkpt><trkpt lat="45.3520482" lon="10.6446859"><ele>110.0</ele><time>2026-04-08T10:01:04.528Z</time></trkpt><trkpt lat="45.3520999" lon="10.6445933"><ele>110.0</ele><time>2026-04-08T10:01:05.528Z</time></trkpt><trkpt lat="45.3521493" lon="10.6445074"><ele>110.0</ele><time>2026-04-08T10:01:06.527Z</time></trkpt><trkpt lat="45.3521962" lon="10.6444345"><ele>109.99999999999999</ele><time>2026-04-08T10:01:07.528Z</time></trkpt><trkpt lat="45.3522484" lon="10.6443275"><ele>110.0</ele><time>2026-04-08T10:01:09.528Z</time></trkpt><trkpt lat="45.3522192" lon="10.6442276"><ele>110.2</ele><time>2026-04-08T10:01:12.528Z</time></trkpt><trkpt lat="45.3521435" lon="10.6442089"><ele>110.4</ele><time>2026-04-08T10:02:09.58Z</time></trkpt><trkpt lat="45.3520254" lon="10.6441584"><ele>110.6</ele><time>2026-04-08T10:02:11.579Z</time></trkpt><trkpt lat="45.351918" lon="10.6440862"><ele>110.8</ele><time>2026-04-08T10:02:13.58Z</time></trkpt><trkpt lat="45.3518081" lon="10.6440089"><ele>111.0</ele><time>2026-04-08T10:02:15.579Z</time></trkpt><trkpt lat="45.3517451" lon="10.6439633"><ele>111.0</ele><time>2026-04-08T10:02:16.58Z</time></trkpt><trkpt lat="45.35168" lon="10.6439171"><ele>111.0</ele><time>2026-04-08T10:02:17.579Z</time></trkpt><trkpt lat="45.3516159" lon="10.643858"><ele>111.0</ele><time>2026-04-08T10:02:18.58Z</time></trkpt><trkpt lat="45.3515557" lon="10.6437951"><ele>111.0</ele><time>2026-04-08T10:02:19.579Z</time></trkpt><trkpt lat="45.3514966" lon="10.6437348"><ele>111.0</ele><time>2026-04-08T10:02:20.579Z</time></trkpt><trkpt lat="45.3513892" lon="10.6436614"><ele>111.0</ele><time>2026-04-08T10:02:22.579Z</time></trkpt><trkpt lat="45.3512785" lon="10.6435978"><ele>110.57142857142857</ele><time>2026-04-08T10:02:24.58Z</time></trkpt><trkpt lat="45.351212" lon="10.6435567"><ele>110.14285714285715</ele><time>2026-04-08T10:02:25.579Z</time></trkpt><trkpt lat="45.3511471" lon="10.6435188"><ele>109.71428571428572</ele><time>2026-04-08T10:02:26.579Z</time></trkpt><trkpt lat="45.35108" lon="10.6434816"><ele>109.28571428571428</ele><time>2026-04-08T10:02:27.579Z</time></trkpt><trkpt lat="45.3510153" lon="10.6434384"><ele>108.85714285714286</ele><time>2026-04-08T10:02:28.58Z</time></trkpt><trkpt lat="45.3509532" lon="10.6433971"><ele>108.42857142857143</ele><time>2026-04-08T10:02:29.58Z</time></trkpt><trkpt lat="45.3508885" lon="10.64336"><ele>108.0</ele><time>2026-04-08T10:02:30.58Z</time></trkpt><trkpt lat="45.3508249" lon="10.64332"><ele>108.0</ele><time>2026-04-08T10:02:31.58Z</time></trkpt><trkpt lat="45.3507581" lon="10.6432805"><ele>108.0</ele><time>2026-04-08T10:02:32.58Z</time></trkpt><trkpt lat="45.3506853" lon="10.6432399"><ele>108.0</ele><time>2026-04-08T10:02:33.58Z</time></trkpt><trkpt lat="45.3506112" lon="10.6431994"><ele>108.0</ele><time>2026-04-08T10:02:34.58Z</time></trkpt><trkpt lat="45.3505332" lon="10.6431598"><ele>108.0</ele><time>2026-04-08T10:02:35.579Z</time></trkpt><trkpt lat="45.350455" lon="10.6431223"><ele>108.0</ele><time>2026-04-08T10:02:36.579Z</time></trkpt><trkpt lat="45.3503763" lon="10.6430869"><ele>107.80000000000001</ele><time>2026-04-08T10:02:37.58Z</time></trkpt><trkpt lat="45.3502986" lon="10.6430521"><ele>107.60000000000001</ele><time>2026-04-08T10:02:38.579Z</time></trkpt><trkpt lat="45.350225" lon="10.6430185"><ele>107.39999999999999</ele><time>2026-04-08T10:02:39.58Z</time></trkpt><trkpt lat="45.3501613" lon="10.6429908"><ele>107.19999999999999</ele><time>2026-04-08T10:02:40.58Z</time></trkpt><trkpt lat="45.3500545" lon="10.6429401"><ele>107.0</ele><time>2026-04-08T10:02:42.58Z</time></trkpt><trkpt lat="45.3499445" lon="10.642894"><ele>107.0</ele><time>2026-04-08T10:02:44.579Z</time></trkpt><trkpt lat="45.3498392" lon="10.6428427"><ele>106.99999999999999</ele><time>2026-04-08T10:02:46.579Z</time></trkpt><trkpt lat="45.3497477" lon="10.6428047"><ele>106.99999999999999</ele><time>2026-04-08T10:02:48.58Z</time></trkpt><trkpt lat="45.3496667" lon="10.6427704"><ele>107.0</ele><time>2026-04-08T10:02:53.58Z</time></trkpt><trkpt lat="45.3495609" lon="10.6427373"><ele>107.0</ele><time>2026-04-08T10:02:55.579Z</time></trkpt><trkpt lat="45.3494949" lon="10.6427196"><ele>106.66666666666666</ele><time>2026-04-08T10:02:56.579Z</time></trkpt><trkpt lat="45.3493764" lon="10.6426776"><ele>106.33333333333333</ele><time>2026-04-08T10:02:58.58Z</time></trkpt><trkpt lat="45.3493128" lon="10.6426548"><ele>106.0</ele><time>2026-04-08T10:02:59.579Z</time></trkpt><trkpt lat="45.3492431" lon="10.6426348"><ele>105.66666666666666</ele><time>2026-04-08T10:03:00.58Z</time></trkpt><trkpt lat="45.3491735" lon="10.6426136"><ele>105.33333333333333</ele><time>2026-04-08T10:03:01.579Z</time></trkpt><trkpt lat="45.3491058" lon="10.6425973"><ele>105.0</ele><time>2026-04-08T10:03:02.579Z</time></trkpt><trkpt lat="45.3490383" lon="10.6425764"><ele>105.0</ele><time>2026-04-08T10:03:03.53Z</time></trkpt><trkpt lat="45.3489743" lon="10.6425605"><ele>105.0</ele><time>2026-04-08T10:03:04.53Z</time></trkpt><trkpt lat="45.348859" lon="10.6425223"><ele>105.0</ele><time>2026-04-08T10:03:06.531Z</time></trkpt><trkpt lat="45.3487722" lon="10.6424683"><ele>105.0</ele><time>2026-04-08T10:03:08.531Z</time></trkpt><trkpt lat="45.3487379" lon="10.6423506"><ele>105.0</ele><time>2026-04-08T10:03:10.53Z</time></trkpt><trkpt lat="45.3487349" lon="10.6422019"><ele>105.4</ele><time>2026-04-08T10:03:12.53Z</time></trkpt><trkpt lat="45.3487479" lon="10.6420454"><ele>105.8</ele><time>2026-04-08T10:03:14.531Z</time></trkpt><trkpt lat="45.3487502" lon="10.6418938"><ele>106.19999999999999</ele><time>2026-04-08T10:03:16.531Z</time></trkpt><trkpt lat="45.3487149" lon="10.6417939"><ele>106.6</ele><time>2026-04-08T10:03:18.53Z</time></trkpt><trkpt lat="45.3486368" lon="10.6417446"><ele>107.0</ele><time>2026-04-08T10:03:20.531Z</time></trkpt><trkpt lat="45.3485353" lon="10.6417735"><ele>106.99999999999999</ele><time>2026-04-08T10:03:22.53Z</time></trkpt><trkpt lat="45.3484687" lon="10.6417861"><ele>107.0</ele><time>2026-04-08T10:03:23.53Z</time></trkpt><trkpt lat="45.3484029" lon="10.6417943"><ele>107.0</ele><time>2026-04-08T10:03:24.531Z</time></trkpt><trkpt lat="45.3483348" lon="10.6418009"><ele>107.0</ele><time>2026-04-08T10:03:25.531Z</time></trkpt><trkpt lat="45.3482204" lon="10.6418224"><ele>106.99999999999999</ele><time>2026-04-08T10:03:27.53Z</time></trkpt><trkpt lat="45.3481327" lon="10.6418392"><ele>107.0</ele><time>2026-04-08T10:03:29.531Z</time></trkpt><trkpt lat="45.3480352" lon="10.6418653"><ele>107.39999999999999</ele><time>2026-04-08T10:03:31.531Z</time></trkpt><trkpt lat="45.3479282" lon="10.6418881"><ele>107.79999999999998</ele><time>2026-04-08T10:03:33.531Z</time></trkpt><trkpt lat="45.3478231" lon="10.6419114"><ele>108.2</ele><time>2026-04-08T10:03:35.53Z</time></trkpt><trkpt lat="45.3477228" lon="10.6419266"><ele>108.6</ele><time>2026-04-08T10:03:37.53Z</time></trkpt><trkpt lat="45.3476367" lon="10.6419487"><ele>109.0</ele><time>2026-04-08T10:03:39.531Z</time></trkpt><trkpt lat="45.3475474" lon="10.641959"><ele>108.6</ele><time>2026-04-08T10:03:41.531Z</time></trkpt><trkpt lat="45.3474494" lon="10.6419767"><ele>108.2</ele><time>2026-04-08T10:03:43.531Z</time></trkpt><trkpt lat="45.3473554" lon="10.642"><ele>107.79999999999998</ele><time>2026-04-08T10:03:45.531Z</time></trkpt><trkpt lat="45.3472686" lon="10.6420184"><ele>107.39999999999999</ele><time>2026-04-08T10:03:47.531Z</time></trkpt><trkpt lat="45.3471718" lon="10.6420373"><ele>107.0</ele><time>2026-04-08T10:03:49.531Z</time></trkpt><trkpt lat="45.3470936" lon="10.642057"><ele>106.57142857142858</ele><time>2026-04-08T10:03:51.53Z</time></trkpt><trkpt lat="45.347023" lon="10.6420689"><ele>106.14285714285714</ele><time>2026-04-08T10:03:53.532Z</time></trkpt><trkpt lat="45.3469561" lon="10.6420715"><ele>105.71428571428572</ele><time>2026-04-08T10:03:55.532Z</time></trkpt><trkpt lat="45.3468771" lon="10.6420893"><ele>105.28571428571429</ele><time>2026-04-08T10:03:57.531Z</time></trkpt><trkpt lat="45.3467991" lon="10.642095"><ele>104.85714285714286</ele><time>2026-04-08T10:04:01.532Z</time></trkpt><trkpt lat="45.3467258" lon="10.6421011"><ele>104.42857142857143</ele><time>2026-04-08T10:04:05.532Z</time></trkpt><trkpt lat="45.3466751" lon="10.6420455"><ele>104.0</ele><time>2026-04-08T10:04:09.531Z</time></trkpt><trkpt lat="45.3466394" lon="10.6419265"><ele>105.2</ele><time>2026-04-08T10:04:12.532Z</time></trkpt><trkpt lat="45.3466083" lon="10.6418322"><ele>106.4</ele><time>2026-04-08T10:04:14.531Z</time></trkpt><trkpt lat="45.3465719" lon="10.6417219"><ele>107.6</ele><time>2026-04-08T10:04:16.531Z</time></trkpt><trkpt lat="45.3465392" lon="10.641605"><ele>108.8</ele><time>2026-04-08T10:04:18.531Z</time></trkpt><trkpt lat="45.3464911" lon="10.6414617"><ele>110.0</ele><time>2026-04-08T10:04:20.532Z</time></trkpt><trkpt lat="45.3464399" lon="10.6413299"><ele>110.0</ele><time>2026-04-08T10:04:22.531Z</time></trkpt><trkpt lat="45.3463878" lon="10.6412006"><ele>110.0</ele><time>2026-04-08T10:04:24.531Z</time></trkpt><trkpt lat="45.3463571" lon="10.6410639"><ele>110.0</ele><time>2026-04-08T10:04:26.531Z</time></trkpt><trkpt lat="45.3463647" lon="10.6409346"><ele>110.0</ele><time>2026-04-08T10:04:28.532Z</time></trkpt><trkpt lat="45.3463846" lon="10.6407767"><ele>110.0</ele><time>2026-04-08T10:04:30.532Z</time></trkpt><trkpt lat="45.3464135" lon="10.6406143"><ele>110.25</ele><time>2026-04-08T10:04:32.532Z</time></trkpt><trkpt lat="45.3464299" lon="10.6404498"><ele>110.5</ele><time>2026-04-08T10:04:34.531Z</time></trkpt><trkpt lat="45.3464229" lon="10.6402819"><ele>110.75</ele><time>2026-04-08T10:04:36.532Z</time></trkpt><trkpt lat="45.3463944" lon="10.6401202"><ele>111.0</ele><time>2026-04-08T10:04:38.532Z</time></trkpt><trkpt lat="45.3463595" lon="10.6399551"><ele>113.19999999999999</ele><time>2026-04-08T10:04:40.531Z</time></trkpt><trkpt lat="45.3463289" lon="10.6397985"><ele>115.39999999999999</ele><time>2026-04-08T10:04:42.533Z</time></trkpt><trkpt lat="45.3463004" lon="10.6396507"><ele>117.6</ele><time>2026-04-08T10:04:44.532Z</time></trkpt><trkpt lat="45.3462784" lon="10.6395013"><ele>119.8</ele><time>2026-04-08T10:04:46.532Z</time></trkpt><trkpt lat="45.3462559" lon="10.6393465"><ele>122.0</ele><time>2026-04-08T10:04:48.532Z</time></trkpt><trkpt lat="45.3462383" lon="10.6391868"><ele>122.0</ele><time>2026-04-08T10:04:50.533Z</time></trkpt><trkpt lat="45.3462254" lon="10.6390257"><ele>121.99999999999999</ele><time>2026-04-08T10:04:52.533Z</time></trkpt><trkpt lat="45.3462098" lon="10.638869"><ele>121.99999999999999</ele><time>2026-04-08T10:04:54.532Z</time></trkpt><trkpt lat="45.3461813" lon="10.6387238"><ele>122.0</ele><time>2026-04-08T10:04:56.532Z</time></trkpt><trkpt lat="45.3461323" lon="10.638592"><ele>122.0</ele><time>2026-04-08T10:04:58.532Z</time></trkpt><trkpt lat="45.346071" lon="10.6384571"><ele>121.99999999999999</ele><time>2026-04-08T10:05:00.532Z</time></trkpt><trkpt lat="45.3460369" lon="10.6383817"><ele>122.0</ele><time>2026-04-08T10:05:01.532Z</time></trkpt><trkpt lat="45.3460065" lon="10.6383004"><ele>121.99999999999999</ele><time>2026-04-08T10:05:02.532Z</time></trkpt><trkpt lat="45.3459728" lon="10.6382173"><ele>121.99999999999999</ele><time>2026-04-08T10:05:03.532Z</time></trkpt><trkpt lat="45.3459372" lon="10.6381262"><ele>122.0</ele><time>2026-04-08T10:05:04.533Z</time></trkpt><trkpt lat="45.3459065" lon="10.638039"><ele>121.99999999999999</ele><time>2026-04-08T10:05:05.532Z</time></trkpt><trkpt lat="45.3458663" lon="10.63789"><ele>121.99999999999999</ele><time>2026-04-08T10:05:07.533Z</time></trkpt><trkpt lat="45.3458333" lon="10.6377539"><ele>121.99999999999999</ele><time>2026-04-08T10:05:09.533Z</time></trkpt><trkpt lat="45.3457876" lon="10.6376797"><ele>122.0</ele><time>2026-04-08T10:05:11.533Z</time></trkpt><trkpt lat="45.345696" lon="10.6376278"><ele>122.0</ele><time>2026-04-08T10:05:13.533Z</time></trkpt><trkpt lat="45.3456367" lon="10.6375712"><ele>122.0</ele><time>2026-04-08T10:05:14.532Z</time></trkpt><trkpt lat="45.3455752" lon="10.6374952"><ele>121.99999999999999</ele><time>2026-04-08T10:05:15.533Z</time></trkpt><trkpt lat="45.3454999" lon="10.6374257"><ele>122.0</ele><time>2026-04-08T10:05:16.533Z</time></trkpt><trkpt lat="45.3454134" lon="10.6373673"><ele>122.0</ele><time>2026-04-08T10:05:17.532Z</time></trkpt><trkpt lat="45.3453207" lon="10.6373107"><ele>121.99999999999999</ele><time>2026-04-08T10:05:18.532Z</time></trkpt><trkpt lat="45.3452304" lon="10.6372504"><ele>121.99999999999999</ele><time>2026-04-08T10:05:19.533Z</time></trkpt><trkpt lat="45.3451533" lon="10.6371914"><ele>122.0</ele><time>2026-04-08T10:05:20.533Z</time></trkpt><trkpt lat="45.3450832" lon="10.6371262"><ele>122.0</ele><time>2026-04-08T10:05:21.532Z</time></trkpt><trkpt lat="45.345017" lon="10.6370506"><ele>122.16666666666666</ele><time>2026-04-08T10:05:22.532Z</time></trkpt><trkpt lat="45.3449558" lon="10.6369685"><ele>122.33333333333333</ele><time>2026-04-08T10:05:23.532Z</time></trkpt><trkpt lat="45.3449022" lon="10.636879"><ele>122.5</ele><time>2026-04-08T10:05:24.532Z</time></trkpt><trkpt lat="45.344852" lon="10.6367858"><ele>122.66666666666666</ele><time>2026-04-08T10:05:25.532Z</time></trkpt><trkpt lat="45.3447902" lon="10.6366916"><ele>122.83333333333333</ele><time>2026-04-08T10:05:26.533Z</time></trkpt><trkpt lat="45.3447346" lon="10.6365749"><ele>123.0</ele><time>2026-04-08T10:05:27.532Z</time></trkpt><trkpt lat="45.3446789" lon="10.6364278"><ele>123.80000000000001</ele><time>2026-04-08T10:05:28.534Z</time></trkpt><trkpt lat="45.3446443" lon="10.636297"><ele>124.60000000000001</ele><time>2026-04-08T10:05:29.533Z</time></trkpt><trkpt lat="45.3446181" lon="10.6361829"><ele>125.39999999999999</ele><time>2026-04-08T10:05:30.534Z</time></trkpt><trkpt lat="45.3445853" lon="10.6360668"><ele>126.19999999999999</ele><time>2026-04-08T10:05:31.533Z</time></trkpt><trkpt lat="45.3445468" lon="10.635957"><ele>127.0</ele><time>2026-04-08T10:05:32.534Z</time></trkpt><trkpt lat="45.3444906" lon="10.6358499"><ele>127.0</ele><time>2026-04-08T10:05:33.533Z</time></trkpt><trkpt lat="45.344417" lon="10.6357496"><ele>126.99999999999999</ele><time>2026-04-08T10:05:34.534Z</time></trkpt><trkpt lat="45.3443356" lon="10.6356475"><ele>126.99999999999999</ele><time>2026-04-08T10:05:35.533Z</time></trkpt><trkpt lat="45.3442461" lon="10.6355417"><ele>127.0</ele><time>2026-04-08T10:05:36.533Z</time></trkpt><trkpt lat="45.3441568" lon="10.6354304"><ele>127.0</ele><time>2026-04-08T10:05:37.533Z</time></trkpt><trkpt lat="45.3440692" lon="10.6353196"><ele>127.0</ele><time>2026-04-08T10:05:38.533Z</time></trkpt><trkpt lat="45.3439855" lon="10.6352141"><ele>126.99999999999999</ele><time>2026-04-08T10:05:39.533Z</time></trkpt><trkpt lat="45.3439105" lon="10.6351131"><ele>126.99999999999999</ele><time>2026-04-08T10:05:40.534Z</time></trkpt><trkpt lat="45.3438433" lon="10.6350056"><ele>127.0</ele><time>2026-04-08T10:05:41.533Z</time></trkpt><trkpt lat="45.3437897" lon="10.6348895"><ele>127.0</ele><time>2026-04-08T10:05:42.534Z</time></trkpt><trkpt lat="45.3437497" lon="10.6347672"><ele>125.39999999999999</ele><time>2026-04-08T10:05:43.533Z</time></trkpt><trkpt lat="45.3437228" lon="10.634636"><ele>123.79999999999998</ele><time>2026-04-08T10:05:44.534Z</time></trkpt><trkpt lat="45.3437062" lon="10.6345075"><ele>122.2</ele><time>2026-04-08T10:05:45.534Z</time></trkpt><trkpt lat="45.3436837" lon="10.6343649"><ele>120.6</ele><time>2026-04-08T10:05:46.533Z</time></trkpt><trkpt lat="45.3436645" lon="10.6342071"><ele>119.0</ele><time>2026-04-08T10:05:47.533Z</time></trkpt><trkpt lat="45.3436447" lon="10.6340512"><ele>119.0</ele><time>2026-04-08T10:05:48.533Z</time></trkpt><trkpt lat="45.3436279" lon="10.6339071"><ele>119.0</ele><time>2026-04-08T10:05:49.533Z</time></trkpt><trkpt lat="45.3436353" lon="10.6337643"><ele>119.0</ele><time>2026-04-08T10:05:50.534Z</time></trkpt><trkpt lat="45.3436703" lon="10.6336269"><ele>119.0</ele><time>2026-04-08T10:05:51.533Z</time></trkpt><trkpt lat="45.3437289" lon="10.6334966"><ele>119.0</ele><time>2026-04-08T10:05:52.534Z</time></trkpt><trkpt lat="45.3437969" lon="10.633371"><ele>120.80000000000001</ele><time>2026-04-08T10:05:53.533Z</time></trkpt><trkpt lat="45.343861" lon="10.6332394"><ele>122.60000000000001</ele><time>2026-04-08T10:05:54.533Z</time></trkpt><trkpt lat="45.3439039" lon="10.6331044"><ele>124.4</ele><time>2026-04-08T10:05:55.533Z</time></trkpt><trkpt lat="45.3439239" lon="10.632945"><ele>126.2</ele><time>2026-04-08T10:05:56.534Z</time></trkpt><trkpt lat="45.343922" lon="10.6327816"><ele>128.0</ele><time>2026-04-08T10:05:57.534Z</time></trkpt><trkpt lat="45.3439211" lon="10.6326139"><ele>128.25</ele><time>2026-04-08T10:05:58.534Z</time></trkpt><trkpt lat="45.3439278" lon="10.6324415"><ele>128.5</ele><time>2026-04-08T10:05:59.534Z</time></trkpt><trkpt lat="45.3439462" lon="10.6322733"><ele>128.75</ele><time>2026-04-08T10:06:00.534Z</time></trkpt><trkpt lat="45.3439612" lon="10.6320994"><ele>129.0</ele><time>2026-04-08T10:06:01.534Z</time></trkpt><trkpt lat="45.3439834" lon="10.6319227"><ele>130.0</ele><time>2026-04-08T10:06:02.534Z</time></trkpt><trkpt lat="45.3440074" lon="10.6317524"><ele>131.0</ele><time>2026-04-08T10:06:03.533Z</time></trkpt><trkpt lat="45.3440284" lon="10.6315807"><ele>132.0</ele><time>2026-04-08T10:06:04.534Z</time></trkpt><trkpt lat="45.3440435" lon="10.6314204"><ele>133.0</ele><time>2026-04-08T10:06:05.534Z</time></trkpt><trkpt lat="45.3440551" lon="10.6312808"><ele>133.0</ele><time>2026-04-08T10:06:06.534Z</time></trkpt><trkpt lat="45.3440702" lon="10.6311551"><ele>133.0</ele><time>2026-04-08T10:06:07.533Z</time></trkpt><trkpt lat="45.3440925" lon="10.6310343"><ele>133.0</ele><time>2026-04-08T10:06:08.533Z</time></trkpt><trkpt lat="45.3441184" lon="10.6309126"><ele>133.0</ele><time>2026-04-08T10:06:09.533Z</time></trkpt><trkpt lat="45.3441567" lon="10.6307767"><ele>133.0</ele><time>2026-04-08T10:06:10.533Z</time></trkpt><trkpt lat="45.3442023" lon="10.6306432"><ele>133.20000000000002</ele><time>2026-04-08T10:06:11.534Z</time></trkpt><trkpt lat="45.344259" lon="10.6305163"><ele>133.4</ele><time>2026-04-08T10:06:12.533Z</time></trkpt><trkpt lat="45.3443187" lon="10.6303896"><ele>133.60000000000002</ele><time>2026-04-08T10:06:13.533Z</time></trkpt><trkpt lat="45.3443769" lon="10.6302702"><ele>133.8</ele><time>2026-04-08T10:06:14.534Z</time></trkpt><trkpt lat="45.3444255" lon="10.6301753"><ele>134.0</ele><time>2026-04-08T10:06:15.534Z</time></trkpt><trkpt lat="45.3444696" lon="10.6300444"><ele>134.0</ele><time>2026-04-08T10:06:17.534Z</time></trkpt><trkpt lat="45.3444518" lon="10.6299476"><ele>134.0</ele><time>2026-04-08T10:06:20.534Z</time></trkpt><trkpt lat="45.3443733" lon="10.6298553"><ele>134.0</ele><time>2026-04-08T10:06:23.535Z</time></trkpt><trkpt lat="45.3442995" lon="10.6298149"><ele>134.0</ele><time>2026-04-08T10:06:25.534Z</time></trkpt><trkpt lat="45.3442196" lon="10.6297988"><ele>134.0</ele><time>2026-04-08T10:06:27.534Z</time></trkpt><trkpt lat="45.3441144" lon="10.6298141"><ele>134.0</ele><time>2026-04-08T10:06:29.534Z</time></trkpt><trkpt lat="45.3440043" lon="10.6298966"><ele>134.0</ele><time>2026-04-08T10:06:31.534Z</time></trkpt><trkpt lat="45.3439454" lon="10.629969"><ele>134.0</ele><time>2026-04-08T10:06:32.534Z</time></trkpt><trkpt lat="45.3438741" lon="10.6300475"><ele>134.0</ele><time>2026-04-08T10:06:33.534Z</time></trkpt><trkpt lat="45.343792" lon="10.6301233"><ele>134.0</ele><time>2026-04-08T10:06:34.534Z</time></trkpt><trkpt lat="45.3437021" lon="10.6302051"><ele>134.0</ele><time>2026-04-08T10:06:35.534Z</time></trkpt><trkpt lat="45.3436056" lon="10.6302943"><ele>133.75</ele><time>2026-04-08T10:06:36.535Z</time></trkpt><trkpt lat="45.3435056" lon="10.6303821"><ele>133.5</ele><time>2026-04-08T10:06:37.534Z</time></trkpt><trkpt lat="45.3434031" lon="10.6304739"><ele>133.25</ele><time>2026-04-08T10:06:38.535Z</time></trkpt><trkpt lat="45.3432963" lon="10.6305697"><ele>133.0</ele><time>2026-04-08T10:06:39.535Z</time></trkpt><trkpt lat="45.3431899" lon="10.6306716"><ele>133.0</ele><time>2026-04-08T10:06:40.534Z</time></trkpt><trkpt lat="45.3430834" lon="10.6307718"><ele>133.0</ele><time>2026-04-08T10:06:41.535Z</time></trkpt><trkpt lat="45.3429726" lon="10.6308724"><ele>133.0</ele><time>2026-04-08T10:06:42.535Z</time></trkpt><trkpt lat="45.3428582" lon="10.6309688"><ele>133.0</ele><time>2026-04-08T10:06:43.535Z</time></trkpt><trkpt lat="45.3427417" lon="10.6310638"><ele>132.75</ele><time>2026-04-08T10:06:44.534Z</time></trkpt><trkpt lat="45.3426246" lon="10.6311589"><ele>132.5</ele><time>2026-04-08T10:06:45.534Z</time></trkpt><trkpt lat="45.3425091" lon="10.6312531"><ele>132.25</ele><time>2026-04-08T10:06:46.535Z</time></trkpt><trkpt lat="45.3423966" lon="10.6313518"><ele>132.0</ele><time>2026-04-08T10:06:47.535Z</time></trkpt><trkpt lat="45.342293" lon="10.6314554"><ele>130.5</ele><time>2026-04-08T10:06:48.534Z</time></trkpt><trkpt lat="45.3422082" lon="10.6315668"><ele>129.0</ele><time>2026-04-08T10:06:49.534Z</time></trkpt><trkpt lat="45.342139" lon="10.631697"><ele>127.5</ele><time>2026-04-08T10:06:50.535Z</time></trkpt><trkpt lat="45.3420787" lon="10.6318475"><ele>126.0</ele><time>2026-04-08T10:06:51.534Z</time></trkpt><trkpt lat="45.3420173" lon="10.6320071"><ele>126.0</ele><time>2026-04-08T10:06:52.534Z</time></trkpt><trkpt lat="45.3419509" lon="10.63217"><ele>126.0</ele><time>2026-04-08T10:06:53.535Z</time></trkpt><trkpt lat="45.3418773" lon="10.6323301"><ele>126.0</ele><time>2026-04-08T10:06:54.535Z</time></trkpt><trkpt lat="45.3418011" lon="10.6324958"><ele>126.0</ele><time>2026-04-08T10:06:55.535Z</time></trkpt><trkpt lat="45.3417135" lon="10.632658"><ele>126.0</ele><time>2026-04-08T10:06:56.534Z</time></trkpt><trkpt lat="45.3416183" lon="10.6327973"><ele>126.0</ele><time>2026-04-08T10:06:57.534Z</time></trkpt><trkpt lat="45.3415265" lon="10.6329229"><ele>126.0</ele><time>2026-04-08T10:06:58.534Z</time></trkpt><trkpt lat="45.341442" lon="10.6330384"><ele>126.0</ele><time>2026-04-08T10:06:59.534Z</time></trkpt><trkpt lat="45.3413575" lon="10.6331392"><ele>125.66666666666667</ele><time>2026-04-08T10:07:00.534Z</time></trkpt><trkpt lat="45.3412748" lon="10.6332169"><ele>125.33333333333334</ele><time>2026-04-08T10:07:01.534Z</time></trkpt><trkpt lat="45.3411938" lon="10.6332752"><ele>125.0</ele><time>2026-04-08T10:07:02.535Z</time></trkpt><trkpt lat="45.3411181" lon="10.6333194"><ele>124.66666666666667</ele><time>2026-04-08T10:07:03.535Z</time></trkpt><trkpt lat="45.3410528" lon="10.6333622"><ele>124.33333333333334</ele><time>2026-04-08T10:07:04.536Z</time></trkpt><trkpt lat="45.3409912" lon="10.6333974"><ele>124.0</ele><time>2026-04-08T10:07:05.535Z</time></trkpt><trkpt lat="45.3409307" lon="10.6334313"><ele>124.0</ele><time>2026-04-08T10:07:06.535Z</time></trkpt><trkpt lat="45.3408643" lon="10.6334668"><ele>124.00000000000001</ele><time>2026-04-08T10:07:07.535Z</time></trkpt><trkpt lat="45.3407921" lon="10.6335002"><ele>124.0</ele><time>2026-04-08T10:07:08.535Z</time></trkpt><trkpt lat="45.3407222" lon="10.6335282"><ele>124.0</ele><time>2026-04-08T10:07:09.535Z</time></trkpt><trkpt lat="45.3406538" lon="10.6335667"><ele>124.00000000000001</ele><time>2026-04-08T10:07:10.536Z</time></trkpt><trkpt lat="45.3405912" lon="10.63361"><ele>124.0</ele><time>2026-04-08T10:07:11.536Z</time></trkpt><trkpt lat="45.3405323" lon="10.633649"><ele>124.0</ele><time>2026-04-08T10:07:12.536Z</time></trkpt><trkpt lat="45.3404079" lon="10.6337052"><ele>123.83333333333334</ele><time>2026-04-08T10:07:14.535Z</time></trkpt><trkpt lat="45.3403384" lon="10.6337347"><ele>123.66666666666667</ele><time>2026-04-08T10:07:15.536Z</time></trkpt><trkpt lat="45.3402635" lon="10.6337633"><ele>123.5</ele><time>2026-04-08T10:07:16.535Z</time></trkpt><trkpt lat="45.3401847" lon="10.6337924"><ele>123.33333333333334</ele><time>2026-04-08T10:07:17.535Z</time></trkpt><trkpt lat="45.3401045" lon="10.6338228"><ele>123.16666666666667</ele><time>2026-04-08T10:07:18.535Z</time></trkpt><trkpt lat="45.3400237" lon="10.6338576"><ele>123.0</ele><time>2026-04-08T10:07:19.535Z</time></trkpt><trkpt lat="45.339938" lon="10.6338867"><ele>123.0</ele><time>2026-04-08T10:07:20.536Z</time></trkpt><trkpt lat="45.3398543" lon="10.633912"><ele>123.0</ele><time>2026-04-08T10:07:21.536Z</time></trkpt><trkpt lat="45.3397757" lon="10.6339432"><ele>123.0</ele><time>2026-04-08T10:07:22.535Z</time></trkpt><trkpt lat="45.3396957" lon="10.6339767"><ele>123.0</ele><time>2026-04-08T10:07:23.536Z</time></trkpt><trkpt lat="45.3396147" lon="10.6340084"><ele>123.0</ele><time>2026-04-08T10:07:24.535Z</time></trkpt><trkpt lat="45.3395375" lon="10.6340455"><ele>123.0</ele><time>2026-04-08T10:07:25.536Z</time></trkpt><trkpt lat="45.3394607" lon="10.6340742"><ele>122.33333333333333</ele><time>2026-04-08T10:07:26.536Z</time></trkpt><trkpt lat="45.3393879" lon="10.6341099"><ele>121.66666666666666</ele><time>2026-04-08T10:07:27.535Z</time></trkpt><trkpt lat="45.3393261" lon="10.6341445"><ele>121.0</ele><time>2026-04-08T10:07:28.535Z</time></trkpt><trkpt lat="45.3392204" lon="10.6341743"><ele>120.33333333333333</ele><time>2026-04-08T10:07:30.535Z</time></trkpt><trkpt lat="45.3391366" lon="10.6341588"><ele>119.66666666666666</ele><time>2026-04-08T10:07:33.535Z</time></trkpt><trkpt lat="45.3390737" lon="10.6340729"><ele>119.0</ele><time>2026-04-08T10:07:36.535Z</time></trkpt><trkpt lat="45.3390295" lon="10.633999"><ele>118.99999999999999</ele><time>2026-04-08T10:07:38.535Z</time></trkpt><trkpt lat="45.3389665" lon="10.6339459"><ele>119.0</ele><time>2026-04-08T10:07:40.535Z</time></trkpt><trkpt lat="45.3388707" lon="10.6340021"><ele>119.0</ele><time>2026-04-08T10:07:42.535Z</time></trkpt><trkpt lat="45.338812" lon="10.6340586"><ele>119.0</ele><time>2026-04-08T10:07:43.536Z</time></trkpt><trkpt lat="45.3387571" lon="10.6341081"><ele>118.99999999999999</ele><time>2026-04-08T10:07:44.535Z</time></trkpt><trkpt lat="45.3386468" lon="10.634205"><ele>119.0</ele><time>2026-04-08T10:07:46.535Z</time></trkpt><trkpt lat="45.3385855" lon="10.6342587"><ele>119.14285714285714</ele><time>2026-04-08T10:07:47.535Z</time></trkpt><trkpt lat="45.3385226" lon="10.6343123"><ele>119.28571428571428</ele><time>2026-04-08T10:07:48.536Z</time></trkpt><trkpt lat="45.3384614" lon="10.6343657"><ele>119.42857142857143</ele><time>2026-04-08T10:07:49.536Z</time></trkpt><trkpt lat="45.3383949" lon="10.634415"><ele>119.57142857142857</ele><time>2026-04-08T10:07:50.535Z</time></trkpt><trkpt lat="45.3383315" lon="10.634468"><ele>119.71428571428571</ele><time>2026-04-08T10:07:51.536Z</time></trkpt><trkpt lat="45.3382734" lon="10.6345205"><ele>119.85714285714286</ele><time>2026-04-08T10:07:52.536Z</time></trkpt><trkpt lat="45.3382183" lon="10.6345745"><ele>120.0</ele><time>2026-04-08T10:07:53.537Z</time></trkpt><trkpt lat="45.3381641" lon="10.6346269"><ele>120.0</ele><time>2026-04-08T10:07:54.537Z</time></trkpt><trkpt lat="45.3381065" lon="10.6346826"><ele>120.0</ele><time>2026-04-08T10:07:55.589Z</time></trkpt><trkpt lat="45.3380533" lon="10.634741"><ele>120.0</ele><time>2026-04-08T10:07:56.589Z</time></trkpt><trkpt lat="45.3379978" lon="10.634795"><ele>120.0</ele><time>2026-04-08T10:07:57.59Z</time></trkpt><trkpt lat="45.3379383" lon="10.6348513"><ele>120.0</ele><time>2026-04-08T10:07:58.589Z</time></trkpt><trkpt lat="45.3378743" lon="10.6349096"><ele>120.0</ele><time>2026-04-08T10:07:59.589Z</time></trkpt><trkpt lat="45.337811" lon="10.6349688"><ele>120.0</ele><time>2026-04-08T10:08:00.59Z</time></trkpt><trkpt lat="45.3377482" lon="10.6350224"><ele>119.33333333333333</ele><time>2026-04-08T10:08:01.59Z</time></trkpt><trkpt lat="45.3376929" lon="10.6350683"><ele>118.66666666666666</ele><time>2026-04-08T10:08:02.589Z</time></trkpt><trkpt lat="45.337608" lon="10.6351724"><ele>118.0</ele><time>2026-04-08T10:08:04.589Z</time></trkpt><trkpt lat="45.337544" lon="10.6352726"><ele>117.33333333333333</ele><time>2026-04-08T10:08:06.589Z</time></trkpt><trkpt lat="45.3374712" lon="10.635305"><ele>116.66666666666666</ele><time>2026-04-08T10:08:08.59Z</time></trkpt><trkpt lat="45.3374024" lon="10.6352844"><ele>116.0</ele><time>2026-04-08T10:08:10.59Z</time></trkpt><trkpt lat="45.3373312" lon="10.6352259"><ele>115.19999999999999</ele><time>2026-04-08T10:08:13.589Z</time></trkpt><trkpt lat="45.3372785" lon="10.6351582"><ele>114.39999999999999</ele><time>2026-04-08T10:08:15.589Z</time></trkpt><trkpt lat="45.3372146" lon="10.6350859"><ele>113.6</ele><time>2026-04-08T10:08:17.589Z</time></trkpt><trkpt lat="45.3371098" lon="10.6349935"><ele>112.8</ele><time>2026-04-08T10:08:19.589Z</time></trkpt><trkpt lat="45.3370172" lon="10.6349186"><ele>112.0</ele><time>2026-04-08T10:08:21.589Z</time></trkpt><trkpt lat="45.3369424" lon="10.6348588"><ele>110.6</ele><time>2026-04-08T10:08:23.59Z</time></trkpt><trkpt lat="45.336839" lon="10.6347761"><ele>109.19999999999999</ele><time>2026-04-08T10:08:25.589Z</time></trkpt><trkpt lat="45.3367497" lon="10.6346762"><ele>107.8</ele><time>2026-04-08T10:08:27.589Z</time></trkpt><trkpt lat="45.3366745" lon="10.6345653"><ele>106.4</ele><time>2026-04-08T10:08:29.59Z</time></trkpt><trkpt lat="45.3366295" lon="10.6344513"><ele>105.0</ele><time>2026-04-08T10:08:31.589Z</time></trkpt><trkpt lat="45.3365626" lon="10.634366"><ele>105.0</ele><time>2026-04-08T10:08:34.721Z</time></trkpt><trkpt lat="45.336448" lon="10.6343516"><ele>105.0</ele><time>2026-04-08T10:08:36.589Z</time></trkpt><trkpt lat="45.3363752" lon="10.6343906"><ele>105.0</ele><time>2026-04-08T10:08:37.59Z</time></trkpt><trkpt lat="45.3363028" lon="10.6344213"><ele>105.0</ele><time>2026-04-08T10:08:38.589Z</time></trkpt><trkpt lat="45.336229" lon="10.6344512"><ele>105.0</ele><time>2026-04-08T10:08:39.589Z</time></trkpt><trkpt lat="45.3361463" lon="10.6344867"><ele>105.0</ele><time>2026-04-08T10:08:40.589Z</time></trkpt><trkpt lat="45.336072" lon="10.6345339"><ele>104.57142857142857</ele><time>2026-04-08T10:08:41.589Z</time></trkpt><trkpt lat="45.3360124" lon="10.6345878"><ele>104.14285714285714</ele><time>2026-04-08T10:08:42.589Z</time></trkpt><trkpt lat="45.3359615" lon="10.6346583"><ele>103.71428571428572</ele><time>2026-04-08T10:08:43.589Z</time></trkpt><trkpt lat="45.3359191" lon="10.6347391"><ele>103.28571428571428</ele><time>2026-04-08T10:08:44.589Z</time></trkpt><trkpt lat="45.3358815" lon="10.6348299"><ele>102.85714285714286</ele><time>2026-04-08T10:08:45.59Z</time></trkpt><trkpt lat="45.3358367" lon="10.6349225"><ele>102.42857142857143</ele><time>2026-04-08T10:08:46.589Z</time></trkpt><trkpt lat="45.335785" lon="10.6350129"><ele>102.0</ele><time>2026-04-08T10:08:47.589Z</time></trkpt><trkpt lat="45.3357383" lon="10.6351039"><ele>102.0</ele><time>2026-04-08T10:08:48.59Z</time></trkpt><trkpt lat="45.3357006" lon="10.6351909"><ele>102.0</ele><time>2026-04-08T10:08:49.589Z</time></trkpt><trkpt lat="45.3356655" lon="10.6352687"><ele>102.0</ele><time>2026-04-08T10:08:50.589Z</time></trkpt><trkpt lat="45.335627" lon="10.6353554"><ele>102.0</ele><time>2026-04-08T10:08:51.59Z</time></trkpt><trkpt lat="45.3355913" lon="10.6354397"><ele>102.0</ele><time>2026-04-08T10:08:52.59Z</time></trkpt><trkpt lat="45.3355548" lon="10.6355255"><ele>102.0</ele><time>2026-04-08T10:08:53.589Z</time></trkpt><trkpt lat="45.3355161" lon="10.6356156"><ele>102.0</ele><time>2026-04-08T10:08:54.59Z</time></trkpt><trkpt lat="45.3354799" lon="10.6357013"><ele>101.16666666666667</ele><time>2026-04-08T10:08:55.589Z</time></trkpt><trkpt lat="45.3354416" lon="10.6357846"><ele>100.33333333333334</ele><time>2026-04-08T10:08:56.589Z</time></trkpt><trkpt lat="45.3353955" lon="10.6358668"><ele>99.5</ele><time>2026-04-08T10:08:57.589Z</time></trkpt><trkpt lat="45.3353507" lon="10.6359381"><ele>98.66666666666667</ele><time>2026-04-08T10:08:58.589Z</time></trkpt><trkpt lat="45.3352597" lon="10.6360417"><ele>97.83333333333334</ele><time>2026-04-08T10:09:00.589Z</time></trkpt><trkpt lat="45.3352064" lon="10.6360914"><ele>97.0</ele><time>2026-04-08T10:09:01.59Z</time></trkpt><trkpt lat="45.3350974" lon="10.636191"><ele>97.00000000000001</ele><time>2026-04-08T10:09:03.59Z</time></trkpt><trkpt lat="45.3350406" lon="10.6362458"><ele>97.0</ele><time>2026-04-08T10:09:04.589Z</time></trkpt><trkpt lat="45.3349835" lon="10.6362976"><ele>97.0</ele><time>2026-04-08T10:09:05.589Z</time></trkpt><trkpt lat="45.3349295" lon="10.6363499"><ele>97.0</ele><time>2026-04-08T10:09:06.589Z</time></trkpt><trkpt lat="45.3348794" lon="10.6364061"><ele>97.00000000000001</ele><time>2026-04-08T10:09:07.59Z</time></trkpt><trkpt lat="45.3347815" lon="10.6364929"><ele>97.0</ele><time>2026-04-08T10:09:09.59Z</time></trkpt><trkpt lat="45.334695" lon="10.6365825"><ele>97.0</ele><time>2026-04-08T10:09:11.59Z</time></trkpt><trkpt lat="45.3346179" lon="10.636698"><ele>97.0</ele><time>2026-04-08T10:09:13.59Z</time></trkpt><trkpt lat="45.3345447" lon="10.6368072"><ele>97.0</ele><time>2026-04-08T10:09:15.589Z</time></trkpt><trkpt lat="45.3344876" lon="10.6369266"><ele>97.0</ele><time>2026-04-08T10:09:17.59Z</time></trkpt><trkpt lat="45.3344165" lon="10.637055"><ele>97.0</ele><time>2026-04-08T10:09:19.59Z</time></trkpt><trkpt lat="45.3343764" lon="10.6371257"><ele>96.0</ele><time>2026-04-08T10:09:20.59Z</time></trkpt><trkpt lat="45.3343318" lon="10.6371951"><ele>95.0</ele><time>2026-04-08T10:09:21.589Z</time></trkpt><trkpt lat="45.3342517" lon="10.6373262"><ele>94.0</ele><time>2026-04-08T10:09:23.589Z</time></trkpt><trkpt lat="45.3341674" lon="10.6374111"><ele>93.0</ele><time>2026-04-08T10:09:25.59Z</time></trkpt><trkpt lat="45.3340417" lon="10.6374927"><ele>92.0</ele><time>2026-04-08T10:09:27.589Z</time></trkpt><trkpt lat="45.3339678" lon="10.6375421"><ele>92.0</ele><time>2026-04-08T10:09:28.589Z</time></trkpt><trkpt lat="45.3338983" lon="10.6375817"><ele>92.0</ele><time>2026-04-08T10:09:29.589Z</time></trkpt><trkpt lat="45.3338331" lon="10.6376128"><ele>92.0</ele><time>2026-04-08T10:09:30.589Z</time></trkpt><trkpt lat="45.3337119" lon="10.6376656"><ele>92.0</ele><time>2026-04-08T10:09:32.589Z</time></trkpt><trkpt lat="45.3336399" lon="10.6377016"><ele>92.0</ele><time>2026-04-08T10:09:33.589Z</time></trkpt><trkpt lat="45.3335653" lon="10.6377365"><ele>92.0</ele><time>2026-04-08T10:09:34.589Z</time></trkpt><trkpt lat="45.3334906" lon="10.6377689"><ele>91.57142857142857</ele><time>2026-04-08T10:09:35.589Z</time></trkpt><trkpt lat="45.3334198" lon="10.6378014"><ele>91.14285714285714</ele><time>2026-04-08T10:09:36.589Z</time></trkpt><trkpt lat="45.3333501" lon="10.6378399"><ele>90.71428571428571</ele><time>2026-04-08T10:09:37.59Z</time></trkpt><trkpt lat="45.3332814" lon="10.6378822"><ele>90.28571428571428</ele><time>2026-04-08T10:09:38.589Z</time></trkpt><trkpt lat="45.3332191" lon="10.6379301"><ele>89.85714285714286</ele><time>2026-04-08T10:09:39.59Z</time></trkpt><trkpt lat="45.3331612" lon="10.6379811"><ele>89.42857142857142</ele><time>2026-04-08T10:09:40.59Z</time></trkpt><trkpt lat="45.3331001" lon="10.6380455"><ele>89.0</ele><time>2026-04-08T10:09:41.589Z</time></trkpt><trkpt lat="45.3330385" lon="10.6381231"><ele>90.33333333333334</ele><time>2026-04-08T10:09:42.589Z</time></trkpt><trkpt lat="45.3329701" lon="10.6382073"><ele>91.66666666666667</ele><time>2026-04-08T10:09:43.59Z</time></trkpt><trkpt lat="45.3328993" lon="10.6382876"><ele>93.0</ele><time>2026-04-08T10:09:44.589Z</time></trkpt><trkpt lat="45.3328369" lon="10.6383581"><ele>94.33333333333334</ele><time>2026-04-08T10:09:45.589Z</time></trkpt><trkpt lat="45.3327855" lon="10.638416"><ele>95.66666666666667</ele><time>2026-04-08T10:09:46.59Z</time></trkpt><trkpt lat="45.332698" lon="10.6385164"><ele>97.0</ele><time>2026-04-08T10:09:48.59Z</time></trkpt><trkpt lat="45.3326429" lon="10.6385632"><ele>97.0</ele><time>2026-04-08T10:09:49.59Z</time></trkpt><trkpt lat="45.3325794" lon="10.6386093"><ele>97.0</ele><time>2026-04-08T10:09:50.589Z</time></trkpt><trkpt lat="45.33252" lon="10.6386642"><ele>97.0</ele><time>2026-04-08T10:09:51.589Z</time></trkpt><trkpt lat="45.3324645" lon="10.6387157"><ele>97.0</ele><time>2026-04-08T10:09:52.589Z</time></trkpt><trkpt lat="45.3324113" lon="10.6387681"><ele>97.0</ele><time>2026-04-08T10:09:53.59Z</time></trkpt><trkpt lat="45.3323505" lon="10.6388088"><ele>97.0</ele><time>2026-04-08T10:09:54.589Z</time></trkpt><trkpt lat="45.3322893" lon="10.6388472"><ele>97.0</ele><time>2026-04-08T10:09:55.589Z</time></trkpt><trkpt lat="45.3321908" lon="10.6389124"><ele>94.39999999999999</ele><time>2026-04-08T10:09:57.589Z</time></trkpt><trkpt lat="45.3321053" lon="10.6389837"><ele>91.8</ele><time>2026-04-08T10:09:59.589Z</time></trkpt><trkpt lat="45.3320272" lon="10.639089"><ele>89.2</ele><time>2026-04-08T10:10:01.59Z</time></trkpt><trkpt lat="45.3319863" lon="10.6391591"><ele>86.6</ele><time>2026-04-08T10:10:02.589Z</time></trkpt><trkpt lat="45.3319087" lon="10.6392904"><ele>84.0</ele><time>2026-04-08T10:10:04.589Z</time></trkpt><trkpt lat="45.3318499" lon="10.6393489"><ele>84.0</ele><time>2026-04-08T10:10:05.59Z</time></trkpt><trkpt lat="45.3317837" lon="10.6394049"><ele>84.0</ele><time>2026-04-08T10:10:06.589Z</time></trkpt><trkpt lat="45.331722" lon="10.6394521"><ele>84.0</ele><time>2026-04-08T10:10:07.589Z</time></trkpt><trkpt lat="45.3316461" lon="10.6395694"><ele>84.0</ele><time>2026-04-08T10:10:09.59Z</time></trkpt><trkpt lat="45.3316278" lon="10.6396641"><ele>84.0</ele><time>2026-04-08T10:10:10.589Z</time></trkpt><trkpt lat="45.3316152" lon="10.6397624"><ele>84.0</ele><time>2026-04-08T10:10:11.589Z</time></trkpt><trkpt lat="45.331591" lon="10.6398583"><ele>84.0</ele><time>2026-04-08T10:10:13.59Z</time></trkpt><trkpt lat="45.3315376" lon="10.6399154"><ele>84.0</ele><time>2026-04-08T10:10:16.59Z</time></trkpt><trkpt lat="45.3314152" lon="10.6398881"><ele>84.0</ele><time>2026-04-08T10:10:18.589Z</time></trkpt><trkpt lat="45.3313308" lon="10.6398723"><ele>84.0</ele><time>2026-04-08T10:10:19.589Z</time></trkpt><trkpt lat="45.3312358" lon="10.6398719"><ele>84.0</ele><time>2026-04-08T10:10:20.589Z</time></trkpt><trkpt lat="45.3311376" lon="10.6398786"><ele>84.75</ele><time>2026-04-08T10:10:21.589Z</time></trkpt><trkpt lat="45.3310349" lon="10.639875"><ele>85.5</ele><time>2026-04-08T10:10:22.59Z</time></trkpt><trkpt lat="45.3309245" lon="10.6398702"><ele>86.25</ele><time>2026-04-08T10:10:23.589Z</time></trkpt><trkpt lat="45.3308068" lon="10.6398693"><ele>87.0</ele><time>2026-04-08T10:10:24.589Z</time></trkpt><trkpt lat="45.3306828" lon="10.6398696"><ele>87.0</ele><time>2026-04-08T10:10:25.589Z</time></trkpt><trkpt lat="45.3305509" lon="10.6398424"><ele>87.0</ele><time>2026-04-08T10:10:26.589Z</time></trkpt><trkpt lat="45.3304181" lon="10.6397916"><ele>87.0</ele><time>2026-04-08T10:10:27.59Z</time></trkpt><trkpt lat="45.3302961" lon="10.6397458"><ele>87.0</ele><time>2026-04-08T10:10:28.59Z</time></trkpt><trkpt lat="45.330188" lon="10.6397066"><ele>87.0</ele><time>2026-04-08T10:10:29.59Z</time></trkpt><trkpt lat="45.3300852" lon="10.639667"><ele>87.0</ele><time>2026-04-08T10:10:30.589Z</time></trkpt><trkpt lat="45.329991" lon="10.6396256"><ele>87.0</ele><time>2026-04-08T10:10:31.59Z</time></trkpt><trkpt lat="45.3298997" lon="10.6396026"><ele>87.0</ele><time>2026-04-08T10:10:32.59Z</time></trkpt><trkpt lat="45.3298124" lon="10.6396125"><ele>87.0</ele><time>2026-04-08T10:10:33.54Z</time></trkpt><trkpt lat="45.3297327" lon="10.63965"><ele>86.28571428571428</ele><time>2026-04-08T10:10:34.54Z</time></trkpt><trkpt lat="45.3296639" lon="10.6397104"><ele>85.57142857142857</ele><time>2026-04-08T10:10:35.539Z</time></trkpt><trkpt lat="45.3296076" lon="10.6397823"><ele>84.85714285714286</ele><time>2026-04-08T10:10:36.539Z</time></trkpt><trkpt lat="45.3295542" lon="10.6398456"><ele>84.14285714285714</ele><time>2026-04-08T10:10:37.54Z</time></trkpt><trkpt lat="45.3295078" lon="10.6399066"><ele>83.42857142857143</ele><time>2026-04-08T10:10:38.54Z</time></trkpt><trkpt lat="45.3294515" lon="10.639987"><ele>82.71428571428571</ele><time>2026-04-08T10:10:40.54Z</time></trkpt><trkpt lat="45.3294298" lon="10.6400942"><ele>82.0</ele><time>2026-04-08T10:10:43.539Z</time></trkpt><trkpt lat="45.3294514" lon="10.6402826"><ele>82.39999999999999</ele><time>2026-04-08T10:10:45.539Z</time></trkpt><trkpt lat="45.3294697" lon="10.6403828"><ele>82.8</ele><time>2026-04-08T10:10:46.54Z</time></trkpt><trkpt lat="45.3294885" lon="10.6404879"><ele>83.2</ele><time>2026-04-08T10:10:47.54Z</time></trkpt><trkpt lat="45.3295157" lon="10.6406189"><ele>83.6</ele><time>2026-04-08T10:10:48.539Z</time></trkpt><trkpt lat="45.3295526" lon="10.6407635"><ele>84.0</ele><time>2026-04-08T10:10:49.54Z</time></trkpt><trkpt lat="45.3295831" lon="10.6409015"><ele>84.0</ele><time>2026-04-08T10:10:50.539Z</time></trkpt><trkpt lat="45.3296057" lon="10.6410331"><ele>84.0</ele><time>2026-04-08T10:10:51.54Z</time></trkpt><trkpt lat="45.3296181" lon="10.641177"><ele>84.0</ele><time>2026-04-08T10:10:52.539Z</time></trkpt><trkpt lat="45.3295936" lon="10.6413411"><ele>84.0</ele><time>2026-04-08T10:10:53.539Z</time></trkpt><trkpt lat="45.3295354" lon="10.6414985"><ele>84.0</ele><time>2026-04-08T10:10:54.539Z</time></trkpt><trkpt lat="45.3294565" lon="10.6416468"><ele>83.75</ele><time>2026-04-08T10:10:55.54Z</time></trkpt><trkpt lat="45.3293734" lon="10.6417883"><ele>83.5</ele><time>2026-04-08T10:10:56.54Z</time></trkpt><trkpt lat="45.3292934" lon="10.6419331"><ele>83.25</ele><time>2026-04-08T10:10:57.54Z</time></trkpt><trkpt lat="45.3292287" lon="10.6421003"><ele>83.0</ele><time>2026-04-08T10:10:58.54Z</time></trkpt><trkpt lat="45.3291893" lon="10.6422852"><ele>82.75</ele><time>2026-04-08T10:10:59.54Z</time></trkpt><trkpt lat="45.3291632" lon="10.6424855"><ele>82.5</ele><time>2026-04-08T10:11:00.539Z</time></trkpt><trkpt lat="45.3291414" lon="10.6426905"><ele>82.25</ele><time>2026-04-08T10:11:01.54Z</time></trkpt><trkpt lat="45.3291219" lon="10.6428928"><ele>82.0</ele><time>2026-04-08T10:11:02.54Z</time></trkpt><trkpt lat="45.3291067" lon="10.6430924"><ele>82.25</ele><time>2026-04-08T10:11:03.54Z</time></trkpt><trkpt lat="45.3290934" lon="10.6432917"><ele>82.5</ele><time>2026-04-08T10:11:04.54Z</time></trkpt><trkpt lat="45.3290781" lon="10.643496"><ele>82.75</ele><time>2026-04-08T10:11:05.541Z</time></trkpt><trkpt lat="45.3290622" lon="10.6437019"><ele>83.0</ele><time>2026-04-08T10:11:06.541Z</time></trkpt><trkpt lat="45.3290525" lon="10.6439127"><ele>83.0</ele><time>2026-04-08T10:11:07.541Z</time></trkpt><trkpt lat="45.3290484" lon="10.6441267"><ele>83.0</ele><time>2026-04-08T10:11:08.541Z</time></trkpt><trkpt lat="45.3290448" lon="10.6443453"><ele>83.0</ele><time>2026-04-08T10:11:09.54Z</time></trkpt><trkpt lat="45.329035" lon="10.6445626"><ele>83.5</ele><time>2026-04-08T10:11:10.541Z</time></trkpt><trkpt lat="45.3290235" lon="10.6447772"><ele>84.0</ele><time>2026-04-08T10:11:11.54Z</time></trkpt><trkpt lat="45.329018" lon="10.6449905"><ele>84.5</ele><time>2026-04-08T10:11:12.54Z</time></trkpt><trkpt lat="45.3290113" lon="10.6451898"><ele>85.0</ele><time>2026-04-08T10:11:13.54Z</time></trkpt><trkpt lat="45.3290031" lon="10.6453733"><ele>85.4</ele><time>2026-04-08T10:11:14.541Z</time></trkpt><trkpt lat="45.3289925" lon="10.6455432"><ele>85.8</ele><time>2026-04-08T10:11:15.54Z</time></trkpt><trkpt lat="45.3289784" lon="10.6457013"><ele>86.19999999999999</ele><time>2026-04-08T10:11:16.541Z</time></trkpt><trkpt lat="45.3289617" lon="10.6458395"><ele>86.6</ele><time>2026-04-08T10:11:17.54Z</time></trkpt><trkpt lat="45.3289426" lon="10.6459494"><ele>87.0</ele><time>2026-04-08T10:11:18.54Z</time></trkpt><trkpt lat="45.3289213" lon="10.6460384"><ele>87.0</ele><time>2026-04-08T10:11:19.541Z</time></trkpt><trkpt lat="45.3288907" lon="10.6461265"><ele>87.0</ele><time>2026-04-08T10:11:21.54Z</time></trkpt><trkpt lat="45.3288456" lon="10.6461975"><ele>87.0</ele><time>2026-04-08T10:11:24.541Z</time></trkpt><trkpt lat="45.3288117" lon="10.6463682"><ele>87.0</ele><time>2026-04-08T10:11:26.54Z</time></trkpt><trkpt lat="45.328782" lon="10.6464697"><ele>87.0</ele><time>2026-04-08T10:11:27.541Z</time></trkpt><trkpt lat="45.3287432" lon="10.6465703"><ele>87.0</ele><time>2026-04-08T10:11:28.541Z</time></trkpt><trkpt lat="45.3286977" lon="10.6466903"><ele>87.39999999999999</ele><time>2026-04-08T10:11:29.54Z</time></trkpt><trkpt lat="45.3286528" lon="10.6468208"><ele>87.8</ele><time>2026-04-08T10:11:30.54Z</time></trkpt><trkpt lat="45.3286018" lon="10.6469558"><ele>88.2</ele><time>2026-04-08T10:11:31.541Z</time></trkpt><trkpt lat="45.3285438" lon="10.6470921"><ele>88.6</ele><time>2026-04-08T10:11:32.541Z</time></trkpt><trkpt lat="45.3284545" lon="10.647216"><ele>89.0</ele><time>2026-04-08T10:11:33.54Z</time></trkpt><trkpt lat="45.3283543" lon="10.6473358"><ele>89.0</ele><time>2026-04-08T10:11:34.541Z</time></trkpt><trkpt lat="45.3282464" lon="10.6474592"><ele>89.0</ele><time>2026-04-08T10:11:35.541Z</time></trkpt><trkpt lat="45.3281486" lon="10.6475923"><ele>89.0</ele><time>2026-04-08T10:11:36.541Z</time></trkpt><trkpt lat="45.3280481" lon="10.6477348"><ele>89.0</ele><time>2026-04-08T10:11:37.54Z</time></trkpt><trkpt lat="45.3279578" lon="10.6478948"><ele>92.75</ele><time>2026-04-08T10:11:38.541Z</time></trkpt><trkpt lat="45.3278739" lon="10.6480646"><ele>96.5</ele><time>2026-04-08T10:11:39.54Z</time></trkpt><trkpt lat="45.3277889" lon="10.6482423"><ele>100.25</ele><time>2026-04-08T10:11:40.54Z</time></trkpt><trkpt lat="45.3277089" lon="10.6484131"><ele>104.0</ele><time>2026-04-08T10:11:41.541Z</time></trkpt><trkpt lat="45.3276287" lon="10.6485791"><ele>103.0</ele><time>2026-04-08T10:11:42.54Z</time></trkpt><trkpt lat="45.3275546" lon="10.6487398"><ele>102.0</ele><time>2026-04-08T10:11:43.54Z</time></trkpt><trkpt lat="45.3274864" lon="10.648887"><ele>101.0</ele><time>2026-04-08T10:11:44.541Z</time></trkpt><trkpt lat="45.3274273" lon="10.6490206"><ele>100.0</ele><time>2026-04-08T10:11:45.54Z</time></trkpt><trkpt lat="45.3273778" lon="10.6491466"><ele>100.00000000000001</ele><time>2026-04-08T10:11:46.54Z</time></trkpt><trkpt lat="45.3273337" lon="10.6492599"><ele>100.0</ele><time>2026-04-08T10:11:47.54Z</time></trkpt><trkpt lat="45.3272839" lon="10.6493675"><ele>100.0</ele><time>2026-04-08T10:11:48.541Z</time></trkpt><trkpt lat="45.3272355" lon="10.6494697"><ele>100.0</ele><time>2026-04-08T10:11:49.541Z</time></trkpt><trkpt lat="45.3271927" lon="10.6495701"><ele>100.00000000000001</ele><time>2026-04-08T10:11:50.54Z</time></trkpt><trkpt lat="45.3271557" lon="10.6496842"><ele>100.0</ele><time>2026-04-08T10:11:51.541Z</time></trkpt><trkpt lat="45.3271127" lon="10.6497957"><ele>100.8</ele><time>2026-04-08T10:11:52.541Z</time></trkpt><trkpt lat="45.3270597" lon="10.6499106"><ele>101.6</ele><time>2026-04-08T10:11:53.542Z</time></trkpt><trkpt lat="45.3269998" lon="10.6500399"><ele>102.4</ele><time>2026-04-08T10:11:54.541Z</time></trkpt><trkpt lat="45.3269371" lon="10.6501801"><ele>103.2</ele><time>2026-04-08T10:11:55.541Z</time></trkpt><trkpt lat="45.3268844" lon="10.6503146"><ele>104.0</ele><time>2026-04-08T10:11:56.542Z</time></trkpt><trkpt lat="45.3268385" lon="10.6504477"><ele>104.0</ele><time>2026-04-08T10:11:57.541Z</time></trkpt><trkpt lat="45.3267822" lon="10.6505693"><ele>104.0</ele><time>2026-04-08T10:11:58.542Z</time></trkpt><trkpt lat="45.3267292" lon="10.6506774"><ele>104.0</ele><time>2026-04-08T10:11:59.541Z</time></trkpt><trkpt lat="45.3266777" lon="10.6507805"><ele>104.0</ele><time>2026-04-08T10:12:00.542Z</time></trkpt><trkpt lat="45.3266284" lon="10.6508792"><ele>104.0</ele><time>2026-04-08T10:12:01.541Z</time></trkpt><trkpt lat="45.3265719" lon="10.6509743"><ele>103.99999999999999</ele><time>2026-04-08T10:12:02.541Z</time></trkpt><trkpt lat="45.3265092" lon="10.6510595"><ele>104.0</ele><time>2026-04-08T10:12:03.541Z</time></trkpt><trkpt lat="45.326445" lon="10.6511241"><ele>104.0</ele><time>2026-04-08T10:12:04.542Z</time></trkpt><trkpt lat="45.3263818" lon="10.6511846"><ele>104.0</ele><time>2026-04-08T10:12:05.541Z</time></trkpt><trkpt lat="45.3263208" lon="10.651247"><ele>103.99999999999999</ele><time>2026-04-08T10:12:06.542Z</time></trkpt><trkpt lat="45.3262543" lon="10.6513112"><ele>104.0</ele><time>2026-04-08T10:12:07.542Z</time></trkpt><trkpt lat="45.326187" lon="10.651381"><ele>106.80000000000001</ele><time>2026-04-08T10:12:08.542Z</time></trkpt><trkpt lat="45.3261191" lon="10.6514594"><ele>109.60000000000001</ele><time>2026-04-08T10:12:09.542Z</time></trkpt><trkpt lat="45.3260508" lon="10.6515439"><ele>112.4</ele><time>2026-04-08T10:12:10.541Z</time></trkpt><trkpt lat="45.3259812" lon="10.6516369"><ele>115.2</ele><time>2026-04-08T10:12:11.542Z</time></trkpt><trkpt lat="45.3259073" lon="10.6517362"><ele>118.0</ele><time>2026-04-08T10:12:12.541Z</time></trkpt><trkpt lat="45.3258269" lon="10.6518289"><ele>118.0</ele><time>2026-04-08T10:12:13.542Z</time></trkpt><trkpt lat="45.3257413" lon="10.6519231"><ele>118.0</ele><time>2026-04-08T10:12:14.542Z</time></trkpt><trkpt lat="45.3256564" lon="10.6520255"><ele>118.0</ele><time>2026-04-08T10:12:15.542Z</time></trkpt><trkpt lat="45.3255729" lon="10.652143"><ele>118.0</ele><time>2026-04-08T10:12:16.542Z</time></trkpt><trkpt lat="45.325489" lon="10.6522748"><ele>119.0</ele><time>2026-04-08T10:12:17.541Z</time></trkpt><trkpt lat="45.3254097" lon="10.6524155"><ele>120.0</ele><time>2026-04-08T10:12:18.541Z</time></trkpt><trkpt lat="45.3253404" lon="10.6525622"><ele>121.0</ele><time>2026-04-08T10:12:19.541Z</time></trkpt><trkpt lat="45.3252889" lon="10.6527168"><ele>122.0</ele><time>2026-04-08T10:12:20.541Z</time></trkpt><trkpt lat="45.3252364" lon="10.6528717"><ele>122.0</ele><time>2026-04-08T10:12:21.541Z</time></trkpt><trkpt lat="45.3251749" lon="10.6530114"><ele>121.99999999999999</ele><time>2026-04-08T10:12:22.541Z</time></trkpt><trkpt lat="45.3251163" lon="10.6531236"><ele>121.99999999999999</ele><time>2026-04-08T10:12:23.542Z</time></trkpt><trkpt lat="45.3250697" lon="10.6532315"><ele>122.0</ele><time>2026-04-08T10:12:24.542Z</time></trkpt><trkpt lat="45.3250174" lon="10.6533253"><ele>122.0</ele><time>2026-04-08T10:12:25.542Z</time></trkpt><trkpt lat="45.3249666" lon="10.6534044"><ele>121.99999999999999</ele><time>2026-04-08T10:12:26.542Z</time></trkpt><trkpt lat="45.3249162" lon="10.6534804"><ele>122.0</ele><time>2026-04-08T10:12:27.542Z</time></trkpt><trkpt lat="45.3248661" lon="10.6535478"><ele>122.0</ele><time>2026-04-08T10:12:28.542Z</time></trkpt><trkpt lat="45.3248221" lon="10.6536147"><ele>122.0</ele><time>2026-04-08T10:12:29.541Z</time></trkpt><trkpt lat="45.3247708" lon="10.653672"><ele>121.99999999999999</ele><time>2026-04-08T10:12:30.541Z</time></trkpt><trkpt lat="45.3247218" lon="10.6537314"><ele>122.0</ele><time>2026-04-08T10:12:31.541Z</time></trkpt><trkpt lat="45.3246411" lon="10.6538517"><ele>122.16666666666666</ele><time>2026-04-08T10:12:33.542Z</time></trkpt><trkpt lat="45.3245985" lon="10.6539335"><ele>122.33333333333333</ele><time>2026-04-08T10:12:35.542Z</time></trkpt><trkpt lat="45.3246762" lon="10.6539946"><ele>122.5</ele><time>2026-04-08T10:12:37.541Z</time></trkpt><trkpt lat="45.3247541" lon="10.6540007"><ele>122.66666666666666</ele><time>2026-04-08T10:12:38.542Z</time></trkpt><trkpt lat="45.3248268" lon="10.6540087"><ele>122.83333333333333</ele><time>2026-04-08T10:12:39.542Z</time></trkpt><trkpt lat="45.3248979" lon="10.6540588"><ele>123.0</ele><time>2026-04-08T10:12:40.543Z</time></trkpt><trkpt lat="45.3249663" lon="10.6541301"><ele>123.0</ele><time>2026-04-08T10:12:41.542Z</time></trkpt><trkpt lat="45.3250368" lon="10.6542083"><ele>123.0</ele><time>2026-04-08T10:12:42.542Z</time></trkpt><trkpt lat="45.3251051" lon="10.6542875"><ele>123.0</ele><time>2026-04-08T10:12:43.543Z</time></trkpt><trkpt lat="45.325169" lon="10.6543622"><ele>123.0</ele><time>2026-04-08T10:12:44.543Z</time></trkpt><trkpt lat="45.3252327" lon="10.6544313"><ele>123.0</ele><time>2026-04-08T10:12:45.542Z</time></trkpt><trkpt lat="45.3252914" lon="10.6545092"><ele>123.0</ele><time>2026-04-08T10:12:46.543Z</time></trkpt><trkpt lat="45.3253454" lon="10.6546125"><ele>123.2</ele><time>2026-04-08T10:12:47.542Z</time></trkpt><trkpt lat="45.3253778" lon="10.6547334"><ele>123.4</ele><time>2026-04-08T10:12:48.542Z</time></trkpt><trkpt lat="45.3253922" lon="10.6548655"><ele>123.60000000000001</ele><time>2026-04-08T10:12:49.543Z</time></trkpt><trkpt lat="45.3253952" lon="10.6550096"><ele>123.80000000000001</ele><time>2026-04-08T10:12:50.543Z</time></trkpt><trkpt lat="45.325385" lon="10.6551619"><ele>124.0</ele><time>2026-04-08T10:12:51.543Z</time></trkpt><trkpt lat="45.3253515" lon="10.6553074"><ele>123.2</ele><time>2026-04-08T10:12:52.543Z</time></trkpt><trkpt lat="45.3253195" lon="10.6554424"><ele>122.4</ele><time>2026-04-08T10:12:53.543Z</time></trkpt><trkpt lat="45.3252934" lon="10.655576"><ele>121.6</ele><time>2026-04-08T10:12:54.543Z</time></trkpt><trkpt lat="45.325273" lon="10.6557181"><ele>120.8</ele><time>2026-04-08T10:12:55.543Z</time></trkpt><trkpt lat="45.325238" lon="10.655864"><ele>120.0</ele><time>2026-04-08T10:12:56.543Z</time></trkpt><trkpt lat="45.3251986" lon="10.6560159"><ele>117.8</ele><time>2026-04-08T10:12:57.543Z</time></trkpt><trkpt lat="45.3251655" lon="10.6561711"><ele>115.6</ele><time>2026-04-08T10:12:58.542Z</time></trkpt><trkpt lat="45.3251312" lon="10.6563111"><ele>113.4</ele><time>2026-04-08T10:12:59.542Z</time></trkpt><trkpt lat="45.3251" lon="10.6564354"><ele>111.2</ele><time>2026-04-08T10:13:00.542Z</time></trkpt><trkpt lat="45.3250811" lon="10.6565716"><ele>109.0</ele><time>2026-04-08T10:13:01.542Z</time></trkpt><trkpt lat="45.3250774" lon="10.656728"><ele>109.0</ele><time>2026-04-08T10:13:02.543Z</time></trkpt><trkpt lat="45.325087" lon="10.6568713"><ele>109.0</ele><time>2026-04-08T10:13:03.542Z</time></trkpt><trkpt lat="45.3251049" lon="10.6570182"><ele>109.0</ele><time>2026-04-08T10:13:04.542Z</time></trkpt><trkpt lat="45.3251271" lon="10.6571589"><ele>109.0</ele><time>2026-04-08T10:13:05.543Z</time></trkpt><trkpt lat="45.3251534" lon="10.6572929"><ele>109.0</ele><time>2026-04-08T10:13:06.542Z</time></trkpt><trkpt lat="45.3251786" lon="10.6574286"><ele>108.50000000000001</ele><time>2026-04-08T10:13:07.542Z</time></trkpt><trkpt lat="45.3252029" lon="10.6575612"><ele>108.0</ele><time>2026-04-08T10:13:08.542Z</time></trkpt><trkpt lat="45.3252255" lon="10.6576909"><ele>107.5</ele><time>2026-04-08T10:13:09.542Z</time></trkpt><trkpt lat="45.3252445" lon="10.6578124"><ele>107.0</ele><time>2026-04-08T10:13:10.543Z</time></trkpt><trkpt lat="45.3252639" lon="10.6579318"><ele>106.50000000000001</ele><time>2026-04-08T10:13:11.543Z</time></trkpt><trkpt lat="45.3252951" lon="10.6580382"><ele>106.0</ele><time>2026-04-08T10:13:12.542Z</time></trkpt><trkpt lat="45.3253105" lon="10.6581356"><ele>106.00000000000001</ele><time>2026-04-08T10:13:13.542Z</time></trkpt><trkpt lat="45.3253251" lon="10.6582305"><ele>106.0</ele><time>2026-04-08T10:13:14.543Z</time></trkpt><trkpt lat="45.3253294" lon="10.6583247"><ele>106.0</ele><time>2026-04-08T10:13:15.543Z</time></trkpt><trkpt lat="45.3253541" lon="10.6584482"><ele>106.0</ele><time>2026-04-08T10:13:17.543Z</time></trkpt><trkpt lat="45.3254496" lon="10.6585105"><ele>106.00000000000001</ele><time>2026-04-08T10:13:20.543Z</time></trkpt><trkpt lat="45.3255657" lon="10.6584779"><ele>106.0</ele><time>2026-04-08T10:13:22.542Z</time></trkpt><trkpt lat="45.3256286" lon="10.6584567"><ele>105.50000000000001</ele><time>2026-04-08T10:13:23.542Z</time></trkpt><trkpt lat="45.3257389" lon="10.6584256"><ele>105.0</ele><time>2026-04-08T10:13:25.542Z</time></trkpt><trkpt lat="45.3258003" lon="10.6584055"><ele>104.5</ele><time>2026-04-08T10:13:26.543Z</time></trkpt><trkpt lat="45.3258724" lon="10.6583847"><ele>104.0</ele><time>2026-04-08T10:13:27.542Z</time></trkpt><trkpt lat="45.3259542" lon="10.6583703"><ele>103.50000000000001</ele><time>2026-04-08T10:13:28.542Z</time></trkpt><trkpt lat="45.3260366" lon="10.6583459"><ele>103.0</ele><time>2026-04-08T10:13:29.544Z</time></trkpt><trkpt lat="45.3261249" lon="10.6583173"><ele>103.00000000000001</ele><time>2026-04-08T10:13:30.544Z</time></trkpt><trkpt lat="45.3262164" lon="10.6582909"><ele>103.0</ele><time>2026-04-08T10:13:31.543Z</time></trkpt><trkpt lat="45.3263036" lon="10.6582643"><ele>103.0</ele><time>2026-04-08T10:13:32.543Z</time></trkpt><trkpt lat="45.3263833" lon="10.6582414"><ele>103.0</ele><time>2026-04-08T10:13:33.544Z</time></trkpt><trkpt lat="45.3264585" lon="10.6582246"><ele>103.00000000000001</ele><time>2026-04-08T10:13:34.543Z</time></trkpt><trkpt lat="45.3265289" lon="10.6581977"><ele>103.0</ele><time>2026-04-08T10:13:35.543Z</time></trkpt><trkpt lat="45.3266057" lon="10.6581867"><ele>102.66666666666667</ele><time>2026-04-08T10:13:36.544Z</time></trkpt><trkpt lat="45.3266806" lon="10.6582231"><ele>102.33333333333334</ele><time>2026-04-08T10:13:37.543Z</time></trkpt><trkpt lat="45.3267456" lon="10.6583002"><ele>102.0</ele><time>2026-04-08T10:13:38.543Z</time></trkpt><trkpt lat="45.3267841" lon="10.6584127"><ele>101.66666666666666</ele><time>2026-04-08T10:13:39.544Z</time></trkpt><trkpt lat="45.3267993" lon="10.6585387"><ele>101.33333333333333</ele><time>2026-04-08T10:13:40.543Z</time></trkpt><trkpt lat="45.3268037" lon="10.6586802"><ele>101.0</ele><time>2026-04-08T10:13:41.544Z</time></trkpt><trkpt lat="45.3268124" lon="10.6588338"><ele>100.19999999999999</ele><time>2026-04-08T10:13:42.543Z</time></trkpt><trkpt lat="45.3268086" lon="10.6589879"><ele>99.39999999999999</ele><time>2026-04-08T10:13:43.543Z</time></trkpt><trkpt lat="45.3267923" lon="10.6591413"><ele>98.6</ele><time>2026-04-08T10:13:44.543Z</time></trkpt><trkpt lat="45.3267698" lon="10.6592863"><ele>97.8</ele><time>2026-04-08T10:13:45.543Z</time></trkpt><trkpt lat="45.3267479" lon="10.6594269"><ele>97.0</ele><time>2026-04-08T10:13:46.543Z</time></trkpt><trkpt lat="45.3267231" lon="10.6595533"><ele>96.66666666666667</ele><time>2026-04-08T10:13:47.543Z</time></trkpt><trkpt lat="45.326687" lon="10.6596643"><ele>96.33333333333334</ele><time>2026-04-08T10:13:48.544Z</time></trkpt><trkpt lat="45.3266543" lon="10.6597585"><ele>96.0</ele><time>2026-04-08T10:13:49.544Z</time></trkpt><trkpt lat="45.3266508" lon="10.6598736"><ele>95.66666666666667</ele><time>2026-04-08T10:13:50.544Z</time></trkpt><trkpt lat="45.3266726" lon="10.6600026"><ele>95.33333333333334</ele><time>2026-04-08T10:13:51.544Z</time></trkpt><trkpt lat="45.326705" lon="10.6601402"><ele>95.0</ele><time>2026-04-08T10:13:52.543Z</time></trkpt><trkpt lat="45.3267288" lon="10.6602913"><ele>94.25</ele><time>2026-04-08T10:13:53.544Z</time></trkpt><trkpt lat="45.3267493" lon="10.6604532"><ele>93.5</ele><time>2026-04-08T10:13:54.543Z</time></trkpt><trkpt lat="45.3267704" lon="10.6606288"><ele>92.75</ele><time>2026-04-08T10:13:55.544Z</time></trkpt><trkpt lat="45.3267964" lon="10.6608116"><ele>92.0</ele><time>2026-04-08T10:13:56.544Z</time></trkpt><trkpt lat="45.3268226" lon="10.661001"><ele>91.25</ele><time>2026-04-08T10:13:57.543Z</time></trkpt><trkpt lat="45.3268402" lon="10.6611978"><ele>90.5</ele><time>2026-04-08T10:13:58.543Z</time></trkpt><trkpt lat="45.3268454" lon="10.6613876"><ele>89.75</ele><time>2026-04-08T10:13:59.544Z</time></trkpt><trkpt lat="45.3268495" lon="10.6615695"><ele>89.0</ele><time>2026-04-08T10:14:00.544Z</time></trkpt><trkpt lat="45.3268454" lon="10.6617504"><ele>89.0</ele><time>2026-04-08T10:14:01.544Z</time></trkpt><trkpt lat="45.3268397" lon="10.661923"><ele>89.0</ele><time>2026-04-08T10:14:02.543Z</time></trkpt><trkpt lat="45.3268304" lon="10.6620766"><ele>89.0</ele><time>2026-04-08T10:14:03.543Z</time></trkpt><trkpt lat="45.326814" lon="10.662217"><ele>89.0</ele><time>2026-04-08T10:14:04.544Z</time></trkpt><trkpt lat="45.3267942" lon="10.6623446"><ele>89.0</ele><time>2026-04-08T10:14:05.543Z</time></trkpt><trkpt lat="45.3267689" lon="10.6624538"><ele>89.0</ele><time>2026-04-08T10:14:06.543Z</time></trkpt><trkpt lat="45.3267366" lon="10.6625438"><ele>89.0</ele><time>2026-04-08T10:14:07.543Z</time></trkpt><trkpt lat="45.3267456" lon="10.6627137"><ele>89.0</ele><time>2026-04-08T10:14:09.543Z</time></trkpt><trkpt lat="45.3267948" lon="10.6627866"><ele>89.0</ele><time>2026-04-08T10:14:10.543Z</time></trkpt><trkpt lat="45.3268582" lon="10.6628442"><ele>89.0</ele><time>2026-04-08T10:14:11.543Z</time></trkpt><trkpt lat="45.326927" lon="10.6629166"><ele>89.0</ele><time>2026-04-08T10:14:12.544Z</time></trkpt><trkpt lat="45.3270015" lon="10.6629982"><ele>89.0</ele><time>2026-04-08T10:14:13.543Z</time></trkpt><trkpt lat="45.3270915" lon="10.6630764"><ele>89.0</ele><time>2026-04-08T10:14:14.544Z</time></trkpt><trkpt lat="45.3271954" lon="10.663153"><ele>89.0</ele><time>2026-04-08T10:14:15.543Z</time></trkpt><trkpt lat="45.3272966" lon="10.663231"><ele>89.0</ele><time>2026-04-08T10:14:16.545Z</time></trkpt><trkpt lat="45.3273965" lon="10.663316"><ele>89.0</ele><time>2026-04-08T10:14:17.544Z</time></trkpt><trkpt lat="45.3275068" lon="10.6634039"><ele>89.0</ele><time>2026-04-08T10:14:18.544Z</time></trkpt><trkpt lat="45.3276211" lon="10.6634961"><ele>89.0</ele><time>2026-04-08T10:14:19.544Z</time></trkpt><trkpt lat="45.3277381" lon="10.6635914"><ele>89.0</ele><time>2026-04-08T10:14:20.545Z</time></trkpt><trkpt lat="45.3278582" lon="10.663688"><ele>88.5</ele><time>2026-04-08T10:14:21.544Z</time></trkpt><trkpt lat="45.3279793" lon="10.6637903"><ele>88.0</ele><time>2026-04-08T10:14:22.544Z</time></trkpt><trkpt lat="45.3281036" lon="10.663896"><ele>87.5</ele><time>2026-04-08T10:14:23.545Z</time></trkpt><trkpt lat="45.3282378" lon="10.6639936"><ele>87.0</ele><time>2026-04-08T10:14:24.544Z</time></trkpt><trkpt lat="45.3283795" lon="10.6640781"><ele>86.66666666666667</ele><time>2026-04-08T10:14:25.545Z</time></trkpt><trkpt lat="45.3285263" lon="10.6641543"><ele>86.33333333333334</ele><time>2026-04-08T10:14:26.544Z</time></trkpt><trkpt lat="45.3286772" lon="10.6642324"><ele>86.0</ele><time>2026-04-08T10:14:27.545Z</time></trkpt><trkpt lat="45.3288294" lon="10.6643067"><ele>87.0</ele><time>2026-04-08T10:14:28.545Z</time></trkpt><trkpt lat="45.3289768" lon="10.6643832"><ele>88.0</ele><time>2026-04-08T10:14:29.545Z</time></trkpt><trkpt lat="45.3291209" lon="10.6644676"><ele>89.0</ele><time>2026-04-08T10:14:30.545Z</time></trkpt><trkpt lat="45.3292597" lon="10.6645641"><ele>89.33333333333334</ele><time>2026-04-08T10:14:31.544Z</time></trkpt><trkpt lat="45.3293855" lon="10.6646912"><ele>89.66666666666667</ele><time>2026-04-08T10:14:32.545Z</time></trkpt><trkpt lat="45.3294989" lon="10.6648394"><ele>90.0</ele><time>2026-04-08T10:14:33.544Z</time></trkpt><trkpt lat="45.3295971" lon="10.6650003"><ele>90.0</ele><time>2026-04-08T10:14:34.545Z</time></trkpt><trkpt lat="45.3296922" lon="10.6651668"><ele>90.0</ele><time>2026-04-08T10:14:35.545Z</time></trkpt><trkpt lat="45.3297889" lon="10.6653296"><ele>90.0</ele><time>2026-04-08T10:14:36.597Z</time></trkpt><trkpt lat="45.3298882" lon="10.665492"><ele>90.33333333333333</ele><time>2026-04-08T10:14:37.597Z</time></trkpt><trkpt lat="45.3299853" lon="10.6656603"><ele>90.66666666666666</ele><time>2026-04-08T10:14:38.596Z</time></trkpt><trkpt lat="45.330078" lon="10.6658391"><ele>91.0</ele><time>2026-04-08T10:14:39.596Z</time></trkpt><trkpt lat="45.3301631" lon="10.6660211"><ele>90.33333333333333</ele><time>2026-04-08T10:14:40.596Z</time></trkpt><trkpt lat="45.3302474" lon="10.666215"><ele>89.66666666666667</ele><time>2026-04-08T10:14:41.597Z</time></trkpt><trkpt lat="45.3303254" lon="10.6664136"><ele>89.0</ele><time>2026-04-08T10:14:42.596Z</time></trkpt><trkpt lat="45.3304014" lon="10.6666178"><ele>89.0</ele><time>2026-04-08T10:14:43.596Z</time></trkpt><trkpt lat="45.3304776" lon="10.6668259"><ele>89.0</ele><time>2026-04-08T10:14:44.596Z</time></trkpt><trkpt lat="45.3305528" lon="10.6670386"><ele>89.0</ele><time>2026-04-08T10:14:45.597Z</time></trkpt><trkpt lat="45.3306292" lon="10.6672554"><ele>89.66666666666667</ele><time>2026-04-08T10:14:46.596Z</time></trkpt><trkpt lat="45.330705" lon="10.6674706"><ele>90.33333333333333</ele><time>2026-04-08T10:14:47.596Z</time></trkpt><trkpt lat="45.3307826" lon="10.6676852"><ele>91.0</ele><time>2026-04-08T10:14:48.597Z</time></trkpt><trkpt lat="45.3308552" lon="10.6678927"><ele>91.25</ele><time>2026-04-08T10:14:49.597Z</time></trkpt><trkpt lat="45.3309229" lon="10.6680844"><ele>91.5</ele><time>2026-04-08T10:14:50.596Z</time></trkpt><trkpt lat="45.3309913" lon="10.6682689"><ele>91.75</ele><time>2026-04-08T10:14:51.596Z</time></trkpt><trkpt lat="45.3310629" lon="10.6684522"><ele>92.0</ele><time>2026-04-08T10:14:52.596Z</time></trkpt><trkpt lat="45.3311387" lon="10.6686299"><ele>92.25</ele><time>2026-04-08T10:14:53.596Z</time></trkpt><trkpt lat="45.3312207" lon="10.6687993"><ele>92.5</ele><time>2026-04-08T10:14:54.597Z</time></trkpt><trkpt lat="45.3313136" lon="10.6689511"><ele>92.75</ele><time>2026-04-08T10:14:55.597Z</time></trkpt><trkpt lat="45.3314155" lon="10.6690914"><ele>93.0</ele><time>2026-04-08T10:14:56.596Z</time></trkpt><trkpt lat="45.33153" lon="10.66922"><ele>92.25</ele><time>2026-04-08T10:14:57.597Z</time></trkpt><trkpt lat="45.3316575" lon="10.6693397"><ele>91.5</ele><time>2026-04-08T10:14:58.597Z</time></trkpt><trkpt lat="45.3317908" lon="10.6694323"><ele>90.75</ele><time>2026-04-08T10:14:59.597Z</time></trkpt><trkpt lat="45.3319196" lon="10.6695069"><ele>90.0</ele><time>2026-04-08T10:15:00.597Z</time></trkpt><trkpt lat="45.3320427" lon="10.6695796"><ele>89.75</ele><time>2026-04-08T10:15:01.596Z</time></trkpt><trkpt lat="45.3321665" lon="10.6696538"><ele>89.5</ele><time>2026-04-08T10:15:02.596Z</time></trkpt><trkpt lat="45.3322897" lon="10.6697182"><ele>89.25</ele><time>2026-04-08T10:15:03.597Z</time></trkpt><trkpt lat="45.3324093" lon="10.6697761"><ele>89.0</ele><time>2026-04-08T10:15:04.597Z</time></trkpt><trkpt lat="45.3325236" lon="10.6698344"><ele>88.6</ele><time>2026-04-08T10:15:05.597Z</time></trkpt><trkpt lat="45.3326269" lon="10.669884"><ele>88.2</ele><time>2026-04-08T10:15:06.596Z</time></trkpt><trkpt lat="45.3327164" lon="10.6699274"><ele>87.8</ele><time>2026-04-08T10:15:07.597Z</time></trkpt><trkpt lat="45.3327947" lon="10.6699606"><ele>87.39999999999999</ele><time>2026-04-08T10:15:08.596Z</time></trkpt><trkpt lat="45.3328587" lon="10.6699925"><ele>87.0</ele><time>2026-04-08T10:15:09.596Z</time></trkpt><trkpt lat="45.3329635" lon="10.6700544"><ele>87.0</ele><time>2026-04-08T10:15:11.596Z</time></trkpt><trkpt lat="45.3330285" lon="10.6700899"><ele>87.0</ele><time>2026-04-08T10:15:12.597Z</time></trkpt><trkpt lat="45.3331034" lon="10.670127"><ele>87.0</ele><time>2026-04-08T10:15:13.597Z</time></trkpt><trkpt lat="45.3331804" lon="10.6701682"><ele>87.0</ele><time>2026-04-08T10:15:14.597Z</time></trkpt><trkpt lat="45.3332657" lon="10.6702232"><ele>87.0</ele><time>2026-04-08T10:15:15.597Z</time></trkpt><trkpt lat="45.3333569" lon="10.6702931"><ele>87.0</ele><time>2026-04-08T10:15:16.596Z</time></trkpt><trkpt lat="45.3334498" lon="10.6703709"><ele>86.5</ele><time>2026-04-08T10:15:17.596Z</time></trkpt><trkpt lat="45.3335462" lon="10.6704613"><ele>86.0</ele><time>2026-04-08T10:15:18.597Z</time></trkpt><trkpt lat="45.3336489" lon="10.6705558"><ele>85.5</ele><time>2026-04-08T10:15:19.596Z</time></trkpt><trkpt lat="45.3337518" lon="10.6706574"><ele>85.0</ele><time>2026-04-08T10:15:20.596Z</time></trkpt><trkpt lat="45.3338492" lon="10.6707723"><ele>84.25</ele><time>2026-04-08T10:15:21.596Z</time></trkpt><trkpt lat="45.3339445" lon="10.6708917"><ele>83.5</ele><time>2026-04-08T10:15:22.597Z</time></trkpt><trkpt lat="45.3340403" lon="10.6710103"><ele>82.75</ele><time>2026-04-08T10:15:23.596Z</time></trkpt><trkpt lat="45.3341289" lon="10.6711234"><ele>82.0</ele><time>2026-04-08T10:15:24.597Z</time></trkpt><trkpt lat="45.334214" lon="10.6712265"><ele>82.0</ele><time>2026-04-08T10:15:25.596Z</time></trkpt><trkpt lat="45.334297" lon="10.6713258"><ele>82.0</ele><time>2026-04-08T10:15:26.596Z</time></trkpt><trkpt lat="45.3343796" lon="10.6714147"><ele>82.0</ele><time>2026-04-08T10:15:27.597Z</time></trkpt><trkpt lat="45.3344627" lon="10.6714872"><ele>82.0</ele><time>2026-04-08T10:15:28.596Z</time></trkpt><trkpt lat="45.3345492" lon="10.6715442"><ele>82.0</ele><time>2026-04-08T10:15:29.596Z</time></trkpt><trkpt lat="45.33463" lon="10.6715781"><ele>82.0</ele><time>2026-04-08T10:15:30.596Z</time></trkpt><trkpt lat="45.3347021" lon="10.6716035"><ele>82.0</ele><time>2026-04-08T10:15:31.596Z</time></trkpt><trkpt lat="45.3347769" lon="10.6716917"><ele>82.0</ele><time>2026-04-08T10:15:33.597Z</time></trkpt><trkpt lat="45.3347573" lon="10.6718471"><ele>82.0</ele><time>2026-04-08T10:15:35.596Z</time></trkpt><trkpt lat="45.3347295" lon="10.6719415"><ele>82.0</ele><time>2026-04-08T10:15:36.596Z</time></trkpt><trkpt lat="45.334698" lon="10.6720419"><ele>82.0</ele><time>2026-04-08T10:15:37.597Z</time></trkpt><trkpt lat="45.3346699" lon="10.6721526"><ele>82.19999999999999</ele><time>2026-04-08T10:15:38.596Z</time></trkpt><trkpt lat="45.3346357" lon="10.6722684"><ele>82.4</ele><time>2026-04-08T10:15:39.597Z</time></trkpt><trkpt lat="45.3345936" lon="10.6723908"><ele>82.6</ele><time>2026-04-08T10:15:40.596Z</time></trkpt><trkpt lat="45.3345449" lon="10.6725129"><ele>82.80000000000001</ele><time>2026-04-08T10:15:41.597Z</time></trkpt><trkpt lat="45.3344867" lon="10.6726268"><ele>83.0</ele><time>2026-04-08T10:15:42.596Z</time></trkpt><trkpt lat="45.3344295" lon="10.6727378"><ele>83.2</ele><time>2026-04-08T10:15:43.596Z</time></trkpt><trkpt lat="45.3343656" lon="10.6728494"><ele>83.4</ele><time>2026-04-08T10:15:44.597Z</time></trkpt><trkpt lat="45.3342905" lon="10.6729553"><ele>83.60000000000001</ele><time>2026-04-08T10:15:45.597Z</time></trkpt><trkpt lat="45.3342055" lon="10.6730601"><ele>83.80000000000001</ele><time>2026-04-08T10:15:46.596Z</time></trkpt><trkpt lat="45.334121" lon="10.6731764"><ele>84.0</ele><time>2026-04-08T10:15:47.596Z</time></trkpt><trkpt lat="45.3340313" lon="10.6732915"><ele>84.0</ele><time>2026-04-08T10:15:48.597Z</time></trkpt><trkpt lat="45.3339375" lon="10.6734083"><ele>84.0</ele><time>2026-04-08T10:15:49.597Z</time></trkpt><trkpt lat="45.3338424" lon="10.6735241"><ele>84.0</ele><time>2026-04-08T10:15:50.596Z</time></trkpt><trkpt lat="45.3337562" lon="10.6736488"><ele>84.0</ele><time>2026-04-08T10:15:51.597Z</time></trkpt><trkpt lat="45.3336768" lon="10.6737747"><ele>83.6</ele><time>2026-04-08T10:15:52.596Z</time></trkpt><trkpt lat="45.3336047" lon="10.673898"><ele>83.2</ele><time>2026-04-08T10:15:53.596Z</time></trkpt><trkpt lat="45.3335387" lon="10.6740194"><ele>82.8</ele><time>2026-04-08T10:15:54.596Z</time></trkpt><trkpt lat="45.3334836" lon="10.6741436"><ele>82.39999999999999</ele><time>2026-04-08T10:15:55.596Z</time></trkpt><trkpt lat="45.3334382" lon="10.6742689"><ele>82.0</ele><time>2026-04-08T10:15:56.547Z</time></trkpt><trkpt lat="45.3334069" lon="10.674391"><ele>82.0</ele><time>2026-04-08T10:15:57.546Z</time></trkpt><trkpt lat="45.3333883" lon="10.6745127"><ele>82.0</ele><time>2026-04-08T10:15:58.596Z</time></trkpt><trkpt lat="45.3333955" lon="10.6746431"><ele>82.0</ele><time>2026-04-08T10:15:59.597Z</time></trkpt><trkpt lat="45.3334249" lon="10.6747681"><ele>82.0</ele><time>2026-04-08T10:16:00.596Z</time></trkpt><trkpt lat="45.333472" lon="10.6748941"><ele>82.0</ele><time>2026-04-08T10:16:01.596Z</time></trkpt><trkpt lat="45.3335199" lon="10.6750165"><ele>82.0</ele><time>2026-04-08T10:16:02.597Z</time></trkpt><trkpt lat="45.333563" lon="10.675127"><ele>82.0</ele><time>2026-04-08T10:16:03.597Z</time></trkpt><trkpt lat="45.3336028" lon="10.6752287"><ele>82.0</ele><time>2026-04-08T10:16:04.596Z</time></trkpt><trkpt lat="45.3336418" lon="10.6753194"><ele>82.0</ele><time>2026-04-08T10:16:05.597Z</time></trkpt><trkpt lat="45.3336815" lon="10.6754039"><ele>82.0</ele><time>2026-04-08T10:16:06.597Z</time></trkpt><trkpt lat="45.333773" lon="10.6755064"><ele>82.0</ele><time>2026-04-08T10:16:08.596Z</time></trkpt><trkpt lat="45.3338734" lon="10.6755671"><ele>82.0</ele><time>2026-04-08T10:16:10.597Z</time></trkpt><trkpt lat="45.3339011" lon="10.6757219"><ele>82.0</ele><time>2026-04-08T10:16:12.596Z</time></trkpt><trkpt lat="45.3338914" lon="10.6758313"><ele>82.0</ele><time>2026-04-08T10:16:13.596Z</time></trkpt><trkpt lat="45.3338839" lon="10.6759505"><ele>82.0</ele><time>2026-04-08T10:16:14.596Z</time></trkpt><trkpt lat="45.3338837" lon="10.6760631"><ele>82.0</ele><time>2026-04-08T10:16:15.596Z</time></trkpt><trkpt lat="45.3338882" lon="10.6761737"><ele>82.0</ele><time>2026-04-08T10:16:16.597Z</time></trkpt><trkpt lat="45.3338927" lon="10.6762889"><ele>82.66666666666666</ele><time>2026-04-08T10:16:17.547Z</time></trkpt><trkpt lat="45.3339045" lon="10.676407"><ele>83.33333333333333</ele><time>2026-04-08T10:16:18.547Z</time></trkpt><trkpt lat="45.3339229" lon="10.6765286"><ele>84.0</ele><time>2026-04-08T10:16:19.546Z</time></trkpt><trkpt lat="45.333938" lon="10.6766528"><ele>84.66666666666667</ele><time>2026-04-08T10:16:20.547Z</time></trkpt><trkpt lat="45.3339532" lon="10.6767752"><ele>85.33333333333334</ele><time>2026-04-08T10:16:21.546Z</time></trkpt><trkpt lat="45.3339691" lon="10.6768957"><ele>86.0</ele><time>2026-04-08T10:16:22.547Z</time></trkpt><trkpt lat="45.3339861" lon="10.6770082"><ele>86.33333333333334</ele><time>2026-04-08T10:16:23.547Z</time></trkpt><trkpt lat="45.3340021" lon="10.6771175"><ele>86.66666666666667</ele><time>2026-04-08T10:16:24.546Z</time></trkpt><trkpt lat="45.3340209" lon="10.6772279"><ele>87.0</ele><time>2026-04-08T10:16:25.546Z</time></trkpt><trkpt lat="45.3340428" lon="10.6773316"><ele>87.33333333333333</ele><time>2026-04-08T10:16:26.547Z</time></trkpt><trkpt lat="45.3340697" lon="10.6774299"><ele>87.66666666666666</ele><time>2026-04-08T10:16:27.547Z</time></trkpt><trkpt lat="45.3340977" lon="10.6775159"><ele>88.0</ele><time>2026-04-08T10:16:28.546Z</time></trkpt><trkpt lat="45.3341504" lon="10.6776757"><ele>88.5</ele><time>2026-04-08T10:16:30.546Z</time></trkpt><trkpt lat="45.3342084" lon="10.6778251"><ele>89.0</ele><time>2026-04-08T10:16:32.546Z</time></trkpt><trkpt lat="45.3342536" lon="10.6779818"><ele>89.5</ele><time>2026-04-08T10:16:34.547Z</time></trkpt><trkpt lat="45.3342968" lon="10.6781405"><ele>90.0</ele><time>2026-04-08T10:16:36.547Z</time></trkpt><trkpt lat="45.3343298" lon="10.6782618"><ele>90.0</ele><time>2026-04-08T10:16:38.547Z</time></trkpt><trkpt lat="45.334368" lon="10.6783374"><ele>90.0</ele><time>2026-04-08T10:20:25.551Z</time></trkpt><trkpt lat="45.3344239" lon="10.6784175"><ele>90.0</ele><time>2026-04-08T10:20:28.552Z</time></trkpt><trkpt lat="45.3344726" lon="10.678484"><ele>90.0</ele><time>2026-04-08T10:20:30.552Z</time></trkpt><trkpt lat="45.3345362" lon="10.6785517"><ele>90.0</ele><time>2026-04-08T10:20:32.552Z</time></trkpt><trkpt lat="45.3346033" lon="10.6786134"><ele>90.0</ele><time>2026-04-08T10:20:34.551Z</time></trkpt><trkpt lat="45.3346724" lon="10.6786579"><ele>90.0</ele><time>2026-04-08T10:20:36.551Z</time></trkpt><trkpt lat="45.3347489" lon="10.6786687"><ele>90.5</ele><time>2026-04-08T10:20:38.552Z</time></trkpt><trkpt lat="45.3348239" lon="10.6786343"><ele>91.0</ele><time>2026-04-08T10:20:40.552Z</time></trkpt><trkpt lat="45.3348943" lon="10.6785867"><ele>91.5</ele><time>2026-04-08T10:20:42.552Z</time></trkpt><trkpt lat="45.3349727" lon="10.6785295"><ele>92.0</ele><time>2026-04-08T10:20:44.552Z</time></trkpt><trkpt lat="45.335048" lon="10.6784712"><ele>92.5</ele><time>2026-04-08T10:20:46.551Z</time></trkpt><trkpt lat="45.3351149" lon="10.6784076"><ele>93.0</ele><time>2026-04-08T10:20:48.551Z</time></trkpt><trkpt lat="45.3351766" lon="10.6783593"><ele>93.0</ele><time>2026-04-08T10:20:50.551Z</time></trkpt><trkpt lat="45.3352621" lon="10.6783467"><ele>93.0</ele><time>2026-04-08T10:20:54.551Z</time></trkpt><trkpt lat="45.3353248" lon="10.6783615"><ele>93.0</ele><time>2026-04-08T10:20:57.551Z</time></trkpt><trkpt lat="45.3353953" lon="10.6784127"><ele>93.0</ele><time>2026-04-08T10:21:01.552Z</time></trkpt><trkpt lat="45.3354675" lon="10.6785107"><ele>93.0</ele><time>2026-04-08T10:21:04.551Z</time></trkpt><trkpt lat="45.3355339" lon="10.6786096"><ele>93.0</ele><time>2026-04-08T10:21:06.552Z</time></trkpt><trkpt lat="45.3356186" lon="10.6787256"><ele>91.66666666666667</ele><time>2026-04-08T10:21:08.552Z</time></trkpt><trkpt lat="45.335668" lon="10.6788046"><ele>90.33333333333333</ele><time>2026-04-08T10:21:09.551Z</time></trkpt><trkpt lat="45.3357176" lon="10.6788897"><ele>89.0</ele><time>2026-04-08T10:21:10.552Z</time></trkpt><trkpt lat="45.3357707" lon="10.6789766"><ele>87.66666666666666</ele><time>2026-04-08T10:21:11.552Z</time></trkpt><trkpt lat="45.3358172" lon="10.6790533"><ele>86.33333333333333</ele><time>2026-04-08T10:21:12.551Z</time></trkpt><trkpt lat="45.3359006" lon="10.6791844"><ele>85.0</ele><time>2026-04-08T10:21:14.552Z</time></trkpt><trkpt lat="45.3359866" lon="10.6793125"><ele>85.0</ele><time>2026-04-08T10:21:16.604Z</time></trkpt><trkpt lat="45.3360709" lon="10.6794432"><ele>85.0</ele><time>2026-04-08T10:21:18.605Z</time></trkpt><trkpt lat="45.3361133" lon="10.6795098"><ele>85.0</ele><time>2026-04-08T10:21:19.605Z</time></trkpt><trkpt lat="45.3361582" lon="10.6795796"><ele>85.0</ele><time>2026-04-08T10:21:20.604Z</time></trkpt><trkpt lat="45.336206" lon="10.6796552"><ele>85.0</ele><time>2026-04-08T10:21:21.604Z</time></trkpt><trkpt lat="45.3362517" lon="10.6797305"><ele>85.0</ele><time>2026-04-08T10:21:22.605Z</time></trkpt><trkpt lat="45.3363258" lon="10.6798456"><ele>85.0</ele><time>2026-04-08T10:21:24.605Z</time></trkpt><trkpt lat="45.3363759" lon="10.679938"><ele>85.0</ele><time>2026-04-08T10:21:26.604Z</time></trkpt><trkpt lat="45.3364322" lon="10.680022"><ele>85.0</ele><time>2026-04-08T10:21:28.604Z</time></trkpt><trkpt lat="45.3364861" lon="10.6801062"><ele>85.0</ele><time>2026-04-08T10:21:30.604Z</time></trkpt><trkpt lat="45.3365313" lon="10.6801731"><ele>85.0</ele><time>2026-04-08T10:21:32.604Z</time></trkpt><trkpt lat="45.3365781" lon="10.6802347"><ele>85.0</ele><time>2026-04-08T10:21:34.605Z</time></trkpt><trkpt lat="45.3366219" lon="10.6803116"><ele>85.0</ele><time>2026-04-08T10:21:36.605Z</time></trkpt><trkpt lat="45.3366739" lon="10.6804072"><ele>85.0</ele><time>2026-04-08T10:21:38.604Z</time></trkpt><trkpt lat="45.3367488" lon="10.6804786"><ele>85.0</ele><time>2026-04-08T10:21:41.604Z</time></trkpt><trkpt lat="45.3368281" lon="10.680397"><ele>85.0</ele><time>2026-04-08T10:21:43.604Z</time></trkpt><trkpt lat="45.3368808" lon="10.6803229"><ele>85.0</ele><time>2026-04-08T10:21:44.604Z</time></trkpt><trkpt lat="45.3369427" lon="10.6802403"><ele>85.0</ele><time>2026-04-08T10:21:45.605Z</time></trkpt><trkpt lat="45.3370097" lon="10.6801529"><ele>85.0</ele><time>2026-04-08T10:21:46.604Z</time></trkpt><trkpt lat="45.3370833" lon="10.6800556"><ele>85.0</ele><time>2026-04-08T10:21:47.605Z</time></trkpt><trkpt lat="45.3371587" lon="10.679951"><ele>85.0</ele><time>2026-04-08T10:21:48.604Z</time></trkpt><trkpt lat="45.3372395" lon="10.6798416"><ele>85.0</ele><time>2026-04-08T10:21:49.604Z</time></trkpt><trkpt lat="45.3373285" lon="10.6797261"><ele>85.0</ele><time>2026-04-08T10:21:50.605Z</time></trkpt><trkpt lat="45.3374199" lon="10.6796066"><ele>85.75</ele><time>2026-04-08T10:21:51.604Z</time></trkpt><trkpt lat="45.3375154" lon="10.6794873"><ele>86.5</ele><time>2026-04-08T10:21:52.604Z</time></trkpt><trkpt lat="45.3376154" lon="10.6793663"><ele>87.25</ele><time>2026-04-08T10:21:53.604Z</time></trkpt><trkpt lat="45.3377212" lon="10.6792471"><ele>88.0</ele><time>2026-04-08T10:21:54.605Z</time></trkpt><trkpt lat="45.3378274" lon="10.6791348"><ele>88.0</ele><time>2026-04-08T10:21:55.604Z</time></trkpt><trkpt lat="45.337927" lon="10.6790398"><ele>88.0</ele><time>2026-04-08T10:21:56.604Z</time></trkpt><trkpt lat="45.3380207" lon="10.6789503"><ele>88.0</ele><time>2026-04-08T10:21:57.605Z</time></trkpt><trkpt lat="45.3381172" lon="10.6788626"><ele>88.0</ele><time>2026-04-08T10:21:58.604Z</time></trkpt><trkpt lat="45.3382184" lon="10.6787807"><ele>88.0</ele><time>2026-04-08T10:21:59.604Z</time></trkpt><trkpt lat="45.3383139" lon="10.6786964"><ele>88.0</ele><time>2026-04-08T10:22:00.604Z</time></trkpt><trkpt lat="45.3383862" lon="10.678623"><ele>88.0</ele><time>2026-04-08T10:22:01.605Z</time></trkpt><trkpt lat="45.3384369" lon="10.6785676"><ele>88.0</ele><time>2026-04-08T10:22:02.605Z</time></trkpt><trkpt lat="45.3385076" lon="10.6785288"><ele>88.0</ele><time>2026-04-08T10:22:04.605Z</time></trkpt><trkpt lat="45.3385659" lon="10.6785908"><ele>88.0</ele><time>2026-04-08T10:22:06.604Z</time></trkpt><trkpt lat="45.3386299" lon="10.6787244"><ele>88.0</ele><time>2026-04-08T10:22:08.605Z</time></trkpt><trkpt lat="45.3386573" lon="10.6788081"><ele>88.0</ele><time>2026-04-08T10:22:09.604Z</time></trkpt><trkpt lat="45.3386917" lon="10.6788897"><ele>88.0</ele><time>2026-04-08T10:22:10.605Z</time></trkpt><trkpt lat="45.338732" lon="10.6789748"><ele>88.0</ele><time>2026-04-08T10:22:11.604Z</time></trkpt><trkpt lat="45.3387798" lon="10.6790723"><ele>88.0</ele><time>2026-04-08T10:22:12.604Z</time></trkpt><trkpt lat="45.338829" lon="10.6791787"><ele>88.0</ele><time>2026-04-08T10:22:13.605Z</time></trkpt><trkpt lat="45.3388712" lon="10.6792768"><ele>88.4</ele><time>2026-04-08T10:22:14.604Z</time></trkpt><trkpt lat="45.3389091" lon="10.6793633"><ele>88.80000000000001</ele><time>2026-04-08T10:22:15.604Z</time></trkpt><trkpt lat="45.3389677" lon="10.6794799"><ele>89.2</ele><time>2026-04-08T10:22:17.605Z</time></trkpt><trkpt lat="45.3390226" lon="10.6795597"><ele>89.6</ele><time>2026-04-08T10:22:20.604Z</time></trkpt><trkpt lat="45.3390514" lon="10.6796688"><ele>90.0</ele><time>2026-04-08T10:22:22.604Z</time></trkpt><trkpt lat="45.3391097" lon="10.679831"><ele>90.0</ele><time>2026-04-08T10:22:24.604Z</time></trkpt><trkpt lat="45.3391775" lon="10.6799922"><ele>90.0</ele><time>2026-04-08T10:22:26.605Z</time></trkpt><trkpt lat="45.3392133" lon="10.6800866"><ele>90.0</ele><time>2026-04-08T10:22:27.604Z</time></trkpt><trkpt lat="45.3392523" lon="10.680185"><ele>90.0</ele><time>2026-04-08T10:22:28.605Z</time></trkpt><trkpt lat="45.3392926" lon="10.6802797"><ele>90.0</ele><time>2026-04-08T10:22:29.605Z</time></trkpt><trkpt lat="45.3393299" lon="10.6803848"><ele>90.0</ele><time>2026-04-08T10:22:30.604Z</time></trkpt><trkpt lat="45.339367" lon="10.6804894"><ele>90.0</ele><time>2026-04-08T10:22:31.604Z</time></trkpt><trkpt lat="45.3394049" lon="10.680586"><ele>90.0</ele><time>2026-04-08T10:22:32.604Z</time></trkpt><trkpt lat="45.3394418" lon="10.680678"><ele>90.0</ele><time>2026-04-08T10:22:33.604Z</time></trkpt><trkpt lat="45.3394791" lon="10.6807659"><ele>90.0</ele><time>2026-04-08T10:22:34.604Z</time></trkpt><trkpt lat="45.3395182" lon="10.6808536"><ele>90.0</ele><time>2026-04-08T10:22:35.604Z</time></trkpt><trkpt lat="45.3395593" lon="10.6809451"><ele>90.0</ele><time>2026-04-08T10:22:36.605Z</time></trkpt><trkpt lat="45.3395961" lon="10.6810354"><ele>90.0</ele><time>2026-04-08T10:22:37.605Z</time></trkpt><trkpt lat="45.3396329" lon="10.6811242"><ele>90.14285714285714</ele><time>2026-04-08T10:22:38.604Z</time></trkpt><trkpt lat="45.339669" lon="10.6812118"><ele>90.28571428571429</ele><time>2026-04-08T10:22:39.604Z</time></trkpt><trkpt lat="45.3397053" lon="10.6812976"><ele>90.42857142857143</ele><time>2026-04-08T10:22:40.604Z</time></trkpt><trkpt lat="45.3397438" lon="10.6813819"><ele>90.57142857142857</ele><time>2026-04-08T10:22:41.605Z</time></trkpt><trkpt lat="45.3397847" lon="10.6814661"><ele>90.71428571428572</ele><time>2026-04-08T10:22:42.605Z</time></trkpt><trkpt lat="45.3398219" lon="10.6815568"><ele>90.85714285714286</ele><time>2026-04-08T10:22:43.604Z</time></trkpt><trkpt lat="45.3398587" lon="10.6816481"><ele>91.0</ele><time>2026-04-08T10:22:44.605Z</time></trkpt><trkpt lat="45.3398939" lon="10.6817417"><ele>91.0</ele><time>2026-04-08T10:22:45.604Z</time></trkpt><trkpt lat="45.3399239" lon="10.6818286"><ele>91.0</ele><time>2026-04-08T10:22:46.605Z</time></trkpt><trkpt lat="45.3399672" lon="10.6819734"><ele>91.0</ele><time>2026-04-08T10:22:48.604Z</time></trkpt><trkpt lat="45.3399879" lon="10.6821303"><ele>91.0</ele><time>2026-04-08T10:22:50.605Z</time></trkpt><trkpt lat="45.3399776" lon="10.682311"><ele>91.0</ele><time>2026-04-08T10:22:52.605Z</time></trkpt><trkpt lat="45.3399781" lon="10.6824093"><ele>91.0</ele><time>2026-04-08T10:22:53.604Z</time></trkpt><trkpt lat="45.3399819" lon="10.6825106"><ele>91.0</ele><time>2026-04-08T10:22:54.604Z</time></trkpt><trkpt lat="45.3399919" lon="10.6826118"><ele>91.0</ele><time>2026-04-08T10:22:55.604Z</time></trkpt><trkpt lat="45.3400136" lon="10.6827122"><ele>91.0</ele><time>2026-04-08T10:22:56.604Z</time></trkpt><trkpt lat="45.3400404" lon="10.682811"><ele>91.0</ele><time>2026-04-08T10:22:57.605Z</time></trkpt><trkpt lat="45.3400696" lon="10.6829161"><ele>91.0</ele><time>2026-04-08T10:22:58.605Z</time></trkpt><trkpt lat="45.3401054" lon="10.683023"><ele>91.14285714285714</ele><time>2026-04-08T10:22:59.605Z</time></trkpt><trkpt lat="45.3401402" lon="10.6831285"><ele>91.28571428571428</ele><time>2026-04-08T10:23:00.604Z</time></trkpt><trkpt lat="45.3401718" lon="10.6832251"><ele>91.42857142857143</ele><time>2026-04-08T10:23:01.604Z</time></trkpt><trkpt lat="45.3402065" lon="10.6833182"><ele>91.57142857142857</ele><time>2026-04-08T10:23:02.604Z</time></trkpt><trkpt lat="45.3402376" lon="10.6834139"><ele>91.71428571428571</ele><time>2026-04-08T10:23:03.604Z</time></trkpt><trkpt lat="45.3402658" lon="10.6835033"><ele>91.85714285714286</ele><time>2026-04-08T10:23:04.605Z</time></trkpt><trkpt lat="45.3402943" lon="10.6835938"><ele>92.0</ele><time>2026-04-08T10:23:05.605Z</time></trkpt><trkpt lat="45.3403267" lon="10.6836924"><ele>91.6</ele><time>2026-04-08T10:23:06.604Z</time></trkpt><trkpt lat="45.3403576" lon="10.6837836"><ele>91.19999999999999</ele><time>2026-04-08T10:23:07.605Z</time></trkpt><trkpt lat="45.3404039" lon="10.6839275"><ele>90.8</ele><time>2026-04-08T10:23:09.605Z</time></trkpt><trkpt lat="45.3404472" lon="10.6840632"><ele>90.4</ele><time>2026-04-08T10:23:11.604Z</time></trkpt><trkpt lat="45.3404857" lon="10.6842065"><ele>90.0</ele><time>2026-04-08T10:23:13.605Z</time></trkpt><trkpt lat="45.3405207" lon="10.684367"><ele>90.0</ele><time>2026-04-08T10:23:15.604Z</time></trkpt><trkpt lat="45.3405448" lon="10.6845401"><ele>90.0</ele><time>2026-04-08T10:23:17.604Z</time></trkpt><trkpt lat="45.3405522" lon="10.6846296"><ele>90.0</ele><time>2026-04-08T10:23:18.604Z</time></trkpt><trkpt lat="45.3405603" lon="10.684721"><ele>90.0</ele><time>2026-04-08T10:23:19.605Z</time></trkpt><trkpt lat="45.3405724" lon="10.6848202"><ele>90.0</ele><time>2026-04-08T10:23:20.605Z</time></trkpt><trkpt lat="45.3405862" lon="10.6849227"><ele>90.0</ele><time>2026-04-08T10:23:21.605Z</time></trkpt><trkpt lat="45.3406004" lon="10.6850299"><ele>90.16666666666667</ele><time>2026-04-08T10:23:22.605Z</time></trkpt><trkpt lat="45.3406156" lon="10.6851396"><ele>90.33333333333333</ele><time>2026-04-08T10:23:23.604Z</time></trkpt><trkpt lat="45.3406335" lon="10.68525"><ele>90.5</ele><time>2026-04-08T10:23:24.605Z</time></trkpt><trkpt lat="45.3406515" lon="10.6853575"><ele>90.66666666666666</ele><time>2026-04-08T10:23:25.604Z</time></trkpt><trkpt lat="45.3406714" lon="10.6854667"><ele>90.83333333333333</ele><time>2026-04-08T10:23:26.605Z</time></trkpt><trkpt lat="45.3406931" lon="10.6855824"><ele>91.0</ele><time>2026-04-08T10:23:27.605Z</time></trkpt><trkpt lat="45.3407137" lon="10.6856898"><ele>91.0</ele><time>2026-04-08T10:23:28.605Z</time></trkpt><trkpt lat="45.3407314" lon="10.6857783"><ele>91.0</ele><time>2026-04-08T10:23:29.605Z</time></trkpt><trkpt lat="45.3407649" lon="10.6859433"><ele>91.0</ele><time>2026-04-08T10:23:31.605Z</time></trkpt><trkpt lat="45.3407853" lon="10.6860351"><ele>91.0</ele><time>2026-04-08T10:23:32.604Z</time></trkpt><trkpt lat="45.3408065" lon="10.6861336"><ele>91.0</ele><time>2026-04-08T10:23:33.605Z</time></trkpt><trkpt lat="45.3408264" lon="10.6862376"><ele>91.0</ele><time>2026-04-08T10:23:34.604Z</time></trkpt><trkpt lat="45.3408494" lon="10.6863353"><ele>91.0</ele><time>2026-04-08T10:23:35.604Z</time></trkpt><trkpt lat="45.3408749" lon="10.6864202"><ele>91.0</ele><time>2026-04-08T10:23:36.604Z</time></trkpt><trkpt lat="45.3409152" lon="10.6865887"><ele>91.0</ele><time>2026-04-08T10:23:38.605Z</time></trkpt><trkpt lat="45.3409322" lon="10.6866821"><ele>91.0</ele><time>2026-04-08T10:23:39.604Z</time></trkpt><trkpt lat="45.3409475" lon="10.6867847"><ele>91.0</ele><time>2026-04-08T10:23:40.604Z</time></trkpt><trkpt lat="45.3409573" lon="10.6868967"><ele>91.0</ele><time>2026-04-08T10:23:41.604Z</time></trkpt><trkpt lat="45.3409589" lon="10.6870127"><ele>91.0</ele><time>2026-04-08T10:23:42.554Z</time></trkpt><trkpt lat="45.3409591" lon="10.687123"><ele>91.0</ele><time>2026-04-08T10:23:43.554Z</time></trkpt><trkpt lat="45.3409673" lon="10.6872269"><ele>91.0</ele><time>2026-04-08T10:23:44.554Z</time></trkpt><trkpt lat="45.3409787" lon="10.6873305"><ele>91.0</ele><time>2026-04-08T10:23:45.555Z</time></trkpt><trkpt lat="45.3409991" lon="10.6874376"><ele>91.0</ele><time>2026-04-08T10:23:46.555Z</time></trkpt><trkpt lat="45.3410202" lon="10.6875481"><ele>91.0</ele><time>2026-04-08T10:23:47.555Z</time></trkpt><trkpt lat="45.3410417" lon="10.6876605"><ele>91.0</ele><time>2026-04-08T10:23:48.554Z</time></trkpt><trkpt lat="45.3410627" lon="10.6877763"><ele>91.0</ele><time>2026-04-08T10:23:49.554Z</time></trkpt><trkpt lat="45.3410847" lon="10.6878926"><ele>91.0</ele><time>2026-04-08T10:23:50.555Z</time></trkpt><trkpt lat="45.3411057" lon="10.6880058"><ele>91.0</ele><time>2026-04-08T10:23:51.554Z</time></trkpt><trkpt lat="45.3411276" lon="10.6881156"><ele>91.0</ele><time>2026-04-08T10:23:52.555Z</time></trkpt><trkpt lat="45.3411477" lon="10.688224"><ele>91.0</ele><time>2026-04-08T10:23:53.556Z</time></trkpt><trkpt lat="45.3411678" lon="10.6883326"><ele>91.0</ele><time>2026-04-08T10:23:54.555Z</time></trkpt><trkpt lat="45.3411932" lon="10.6884455"><ele>91.0</ele><time>2026-04-08T10:23:55.556Z</time></trkpt><trkpt lat="45.341221" lon="10.6885574"><ele>91.0</ele><time>2026-04-08T10:23:56.555Z</time></trkpt><trkpt lat="45.3412477" lon="10.6886673"><ele>91.0</ele><time>2026-04-08T10:23:57.555Z</time></trkpt><trkpt lat="45.341275" lon="10.6887787"><ele>91.0</ele><time>2026-04-08T10:23:58.555Z</time></trkpt><trkpt lat="45.3413008" lon="10.6888877"><ele>91.0</ele><time>2026-04-08T10:23:59.556Z</time></trkpt><trkpt lat="45.3413269" lon="10.6889981"><ele>91.0</ele><time>2026-04-08T10:24:00.555Z</time></trkpt><trkpt lat="45.341353" lon="10.6891152"><ele>91.0</ele><time>2026-04-08T10:24:01.555Z</time></trkpt><trkpt lat="45.3413842" lon="10.6892322"><ele>91.0</ele><time>2026-04-08T10:24:02.555Z</time></trkpt><trkpt lat="45.3414209" lon="10.6893459"><ele>91.0</ele><time>2026-04-08T10:24:03.556Z</time></trkpt><trkpt lat="45.3414525" lon="10.6894542"><ele>91.0</ele><time>2026-04-08T10:24:04.556Z</time></trkpt><trkpt lat="45.3414771" lon="10.6895523"><ele>91.0</ele><time>2026-04-08T10:24:05.556Z</time></trkpt><trkpt lat="45.3415041" lon="10.6896487"><ele>91.0</ele><time>2026-04-08T10:24:06.556Z</time></trkpt><trkpt lat="45.3415301" lon="10.6897451"><ele>91.0</ele><time>2026-04-08T10:24:07.556Z</time></trkpt><trkpt lat="45.3415611" lon="10.6898403"><ele>91.0</ele><time>2026-04-08T10:24:08.555Z</time></trkpt><trkpt lat="45.3415992" lon="10.6899326"><ele>91.0</ele><time>2026-04-08T10:24:09.555Z</time></trkpt><trkpt lat="45.3416348" lon="10.6900319"><ele>91.0</ele><time>2026-04-08T10:24:10.556Z</time></trkpt><trkpt lat="45.3416698" lon="10.6901406"><ele>91.0</ele><time>2026-04-08T10:24:11.556Z</time></trkpt><trkpt lat="45.3417063" lon="10.6902505"><ele>91.16666666666666</ele><time>2026-04-08T10:24:12.555Z</time></trkpt><trkpt lat="45.3417421" lon="10.6903588"><ele>91.33333333333333</ele><time>2026-04-08T10:24:13.555Z</time></trkpt><trkpt lat="45.3417768" lon="10.6904686"><ele>91.5</ele><time>2026-04-08T10:24:14.555Z</time></trkpt><trkpt lat="45.3418147" lon="10.6905796"><ele>91.66666666666667</ele><time>2026-04-08T10:24:15.556Z</time></trkpt><trkpt lat="45.3418569" lon="10.690693"><ele>91.83333333333334</ele><time>2026-04-08T10:24:16.556Z</time></trkpt><trkpt lat="45.3419011" lon="10.6908111"><ele>92.0</ele><time>2026-04-08T10:24:17.555Z</time></trkpt><trkpt lat="45.3419397" lon="10.6909408"><ele>92.0</ele><time>2026-04-08T10:24:18.555Z</time></trkpt><trkpt lat="45.3419699" lon="10.6910866"><ele>92.0</ele><time>2026-04-08T10:24:19.556Z</time></trkpt><trkpt lat="45.3419877" lon="10.6912387"><ele>92.0</ele><time>2026-04-08T10:24:20.556Z</time></trkpt><trkpt lat="45.3419962" lon="10.6913978"><ele>92.0</ele><time>2026-04-08T10:24:21.555Z</time></trkpt><trkpt lat="45.3419962" lon="10.6915645"><ele>92.0</ele><time>2026-04-08T10:24:22.556Z</time></trkpt><trkpt lat="45.3419955" lon="10.6917326"><ele>92.19999999999999</ele><time>2026-04-08T10:24:23.555Z</time></trkpt><trkpt lat="45.3419996" lon="10.6919054"><ele>92.4</ele><time>2026-04-08T10:24:24.555Z</time></trkpt><trkpt lat="45.3420092" lon="10.6920757"><ele>92.6</ele><time>2026-04-08T10:24:25.555Z</time></trkpt><trkpt lat="45.3420199" lon="10.6922215"><ele>92.80000000000001</ele><time>2026-04-08T10:24:26.555Z</time></trkpt><trkpt lat="45.3420313" lon="10.6923414"><ele>93.0</ele><time>2026-04-08T10:24:27.555Z</time></trkpt><trkpt lat="45.3420437" lon="10.6924506"><ele>93.16666666666667</ele><time>2026-04-08T10:24:28.555Z</time></trkpt><trkpt lat="45.3420593" lon="10.6925543"><ele>93.33333333333333</ele><time>2026-04-08T10:24:29.556Z</time></trkpt><trkpt lat="45.3420786" lon="10.6926596"><ele>93.5</ele><time>2026-04-08T10:24:30.555Z</time></trkpt><trkpt lat="45.3421023" lon="10.6927621"><ele>93.66666666666666</ele><time>2026-04-08T10:24:31.555Z</time></trkpt><trkpt lat="45.3421313" lon="10.6928729"><ele>93.83333333333333</ele><time>2026-04-08T10:24:32.556Z</time></trkpt><trkpt lat="45.3421666" lon="10.6929893"><ele>94.0</ele><time>2026-04-08T10:24:33.555Z</time></trkpt><trkpt lat="45.3422013" lon="10.6931073"><ele>95.16666666666666</ele><time>2026-04-08T10:24:34.556Z</time></trkpt><trkpt lat="45.3422337" lon="10.6932241"><ele>96.33333333333333</ele><time>2026-04-08T10:24:35.556Z</time></trkpt><trkpt lat="45.3422691" lon="10.693338"><ele>97.5</ele><time>2026-04-08T10:24:36.556Z</time></trkpt><trkpt lat="45.3423011" lon="10.693456"><ele>98.66666666666666</ele><time>2026-04-08T10:24:37.555Z</time></trkpt><trkpt lat="45.3423324" lon="10.6935702"><ele>99.83333333333333</ele><time>2026-04-08T10:24:38.555Z</time></trkpt><trkpt lat="45.3423628" lon="10.6936881"><ele>101.0</ele><time>2026-04-08T10:24:39.555Z</time></trkpt><trkpt lat="45.3423948" lon="10.6938043"><ele>100.99999999999999</ele><time>2026-04-08T10:24:40.556Z</time></trkpt><trkpt lat="45.3424302" lon="10.6939137"><ele>101.0</ele><time>2026-04-08T10:24:41.555Z</time></trkpt><trkpt lat="45.3424632" lon="10.6940129"><ele>101.0</ele><time>2026-04-08T10:24:42.556Z</time></trkpt><trkpt lat="45.3424947" lon="10.6940976"><ele>101.0</ele><time>2026-04-08T10:24:43.557Z</time></trkpt><trkpt lat="45.3425433" lon="10.6942639"><ele>100.99999999999999</ele><time>2026-04-08T10:24:45.557Z</time></trkpt><trkpt lat="45.3425641" lon="10.6943648"><ele>101.0</ele><time>2026-04-08T10:24:46.557Z</time></trkpt><trkpt lat="45.3425857" lon="10.6944932"><ele>100.75</ele><time>2026-04-08T10:24:47.557Z</time></trkpt><trkpt lat="45.3426086" lon="10.6946336"><ele>100.5</ele><time>2026-04-08T10:24:48.556Z</time></trkpt><trkpt lat="45.3426362" lon="10.6947836"><ele>100.25</ele><time>2026-04-08T10:24:49.557Z</time></trkpt><trkpt lat="45.3426657" lon="10.6949444"><ele>100.0</ele><time>2026-04-08T10:24:50.556Z</time></trkpt><trkpt lat="45.3426963" lon="10.6951148"><ele>99.75</ele><time>2026-04-08T10:24:51.556Z</time></trkpt><trkpt lat="45.3427311" lon="10.6952961"><ele>99.5</ele><time>2026-04-08T10:24:52.556Z</time></trkpt><trkpt lat="45.3427572" lon="10.6954786"><ele>99.25</ele><time>2026-04-08T10:24:53.557Z</time></trkpt><trkpt lat="45.3427758" lon="10.6956527"><ele>99.0</ele><time>2026-04-08T10:24:54.557Z</time></trkpt><trkpt lat="45.3427963" lon="10.6958169"><ele>99.0</ele><time>2026-04-08T10:24:55.556Z</time></trkpt><trkpt lat="45.3428158" lon="10.6959719"><ele>99.0</ele><time>2026-04-08T10:24:56.557Z</time></trkpt><trkpt lat="45.3428328" lon="10.6961111"><ele>99.0</ele><time>2026-04-08T10:24:57.556Z</time></trkpt><trkpt lat="45.3428456" lon="10.6962341"><ele>99.0</ele><time>2026-04-08T10:24:58.557Z</time></trkpt><trkpt lat="45.3428565" lon="10.6963316"><ele>99.0</ele><time>2026-04-08T10:24:59.557Z</time></trkpt><trkpt lat="45.3428826" lon="10.6965095"><ele>98.80000000000001</ele><time>2026-04-08T10:25:01.557Z</time></trkpt><trkpt lat="45.3429113" lon="10.6966141"><ele>98.60000000000001</ele><time>2026-04-08T10:25:02.557Z</time></trkpt><trkpt lat="45.3429411" lon="10.6967275"><ele>98.4</ele><time>2026-04-08T10:25:03.556Z</time></trkpt><trkpt lat="45.3429788" lon="10.6968545"><ele>98.2</ele><time>2026-04-08T10:25:04.556Z</time></trkpt><trkpt lat="45.3430244" lon="10.6969907"><ele>98.0</ele><time>2026-04-08T10:25:05.557Z</time></trkpt><trkpt lat="45.3430679" lon="10.6971344"><ele>98.25</ele><time>2026-04-08T10:25:06.557Z</time></trkpt><trkpt lat="45.343113" lon="10.6972846"><ele>98.5</ele><time>2026-04-08T10:25:07.557Z</time></trkpt><trkpt lat="45.3431684" lon="10.6974393"><ele>98.75</ele><time>2026-04-08T10:25:08.557Z</time></trkpt><trkpt lat="45.3432293" lon="10.6975979"><ele>99.0</ele><time>2026-04-08T10:25:09.556Z</time></trkpt><trkpt lat="45.3432853" lon="10.6977532"><ele>99.0</ele><time>2026-04-08T10:25:10.557Z</time></trkpt><trkpt lat="45.3433306" lon="10.6979027"><ele>99.0</ele><time>2026-04-08T10:25:11.556Z</time></trkpt><trkpt lat="45.3433761" lon="10.6980554"><ele>99.0</ele><time>2026-04-08T10:25:12.557Z</time></trkpt><trkpt lat="45.3434296" lon="10.6982115"><ele>99.0</ele><time>2026-04-08T10:25:13.556Z</time></trkpt><trkpt lat="45.3434967" lon="10.698363"><ele>99.0</ele><time>2026-04-08T10:25:14.557Z</time></trkpt><trkpt lat="45.3435782" lon="10.6985076"><ele>99.0</ele><time>2026-04-08T10:25:15.556Z</time></trkpt><trkpt lat="45.3436748" lon="10.6986506"><ele>99.0</ele><time>2026-04-08T10:25:16.557Z</time></trkpt><trkpt lat="45.3437697" lon="10.6988069"><ele>99.0</ele><time>2026-04-08T10:25:17.556Z</time></trkpt><trkpt lat="45.3438548" lon="10.6989817"><ele>99.0</ele><time>2026-04-08T10:25:18.557Z</time></trkpt><trkpt lat="45.3439364" lon="10.6991558"><ele>99.0</ele><time>2026-04-08T10:25:19.557Z</time></trkpt><trkpt lat="45.3440172" lon="10.6993324"><ele>99.0</ele><time>2026-04-08T10:25:20.557Z</time></trkpt><trkpt lat="45.3440994" lon="10.699517"><ele>99.0</ele><time>2026-04-08T10:25:21.556Z</time></trkpt><trkpt lat="45.3441786" lon="10.6996997"><ele>98.25</ele><time>2026-04-08T10:25:22.556Z</time></trkpt><trkpt lat="45.3442505" lon="10.6998837"><ele>97.5</ele><time>2026-04-08T10:25:23.556Z</time></trkpt><trkpt lat="45.3443221" lon="10.7000652"><ele>96.75</ele><time>2026-04-08T10:25:24.557Z</time></trkpt><trkpt lat="45.3443935" lon="10.7002368"><ele>96.0</ele><time>2026-04-08T10:25:25.557Z</time></trkpt><trkpt lat="45.3444563" lon="10.7003989"><ele>96.0</ele><time>2026-04-08T10:25:26.556Z</time></trkpt><trkpt lat="45.3445189" lon="10.7005504"><ele>96.0</ele><time>2026-04-08T10:25:27.556Z</time></trkpt><trkpt lat="45.3445813" lon="10.7006951"><ele>96.0</ele><time>2026-04-08T10:25:28.557Z</time></trkpt><trkpt lat="45.3446345" lon="10.7008342"><ele>96.0</ele><time>2026-04-08T10:25:29.556Z</time></trkpt><trkpt lat="45.3446842" lon="10.7009629"><ele>96.0</ele><time>2026-04-08T10:25:30.556Z</time></trkpt><trkpt lat="45.3447303" lon="10.7010801"><ele>96.0</ele><time>2026-04-08T10:25:31.557Z</time></trkpt><trkpt lat="45.3447717" lon="10.7011775"><ele>96.0</ele><time>2026-04-08T10:25:32.557Z</time></trkpt><trkpt lat="45.3448059" lon="10.7012652"><ele>96.0</ele><time>2026-04-08T10:25:33.557Z</time></trkpt><trkpt lat="45.3448481" lon="10.7013844"><ele>96.0</ele><time>2026-04-08T10:25:35.558Z</time></trkpt><trkpt lat="45.3449178" lon="10.7014203"><ele>96.0</ele><time>2026-04-08T10:25:40.557Z</time></trkpt><trkpt lat="45.3449933" lon="10.7012835"><ele>96.0</ele><time>2026-04-08T10:25:42.558Z</time></trkpt><trkpt lat="45.3450336" lon="10.7011894"><ele>96.0</ele><time>2026-04-08T10:25:43.558Z</time></trkpt><trkpt lat="45.3450811" lon="10.7010853"><ele>96.0</ele><time>2026-04-08T10:25:44.558Z</time></trkpt><trkpt lat="45.3451318" lon="10.7009724"><ele>96.0</ele><time>2026-04-08T10:25:45.557Z</time></trkpt><trkpt lat="45.3451894" lon="10.7008545"><ele>96.0</ele><time>2026-04-08T10:25:46.557Z</time></trkpt><trkpt lat="45.3452455" lon="10.7007254"><ele>96.19999999999999</ele><time>2026-04-08T10:25:47.558Z</time></trkpt><trkpt lat="45.3452978" lon="10.7005915"><ele>96.39999999999999</ele><time>2026-04-08T10:25:48.557Z</time></trkpt><trkpt lat="45.3453517" lon="10.7004573"><ele>96.6</ele><time>2026-04-08T10:25:49.557Z</time></trkpt><trkpt lat="45.3454078" lon="10.700325"><ele>96.8</ele><time>2026-04-08T10:25:50.557Z</time></trkpt><trkpt lat="45.3454701" lon="10.7001928"><ele>97.0</ele><time>2026-04-08T10:25:51.557Z</time></trkpt><trkpt lat="45.3455421" lon="10.7000608"><ele>100.0</ele><time>2026-04-08T10:25:52.557Z</time></trkpt><trkpt lat="45.3456203" lon="10.6999425"><ele>103.0</ele><time>2026-04-08T10:25:53.558Z</time></trkpt><trkpt lat="45.3456941" lon="10.6998204"><ele>106.0</ele><time>2026-04-08T10:25:54.557Z</time></trkpt><trkpt lat="45.3457682" lon="10.6996898"><ele>109.0</ele><time>2026-04-08T10:25:55.558Z</time></trkpt><trkpt lat="45.3458498" lon="10.6995594"><ele>109.0</ele><time>2026-04-08T10:25:56.558Z</time></trkpt><trkpt lat="45.34593" lon="10.6994287"><ele>109.0</ele><time>2026-04-08T10:25:57.558Z</time></trkpt><trkpt lat="45.3460052" lon="10.6992953"><ele>109.0</ele><time>2026-04-08T10:25:58.558Z</time></trkpt><trkpt lat="45.3460703" lon="10.6991621"><ele>109.0</ele><time>2026-04-08T10:25:59.557Z</time></trkpt><trkpt lat="45.3461193" lon="10.6990282"><ele>109.4</ele><time>2026-04-08T10:26:00.558Z</time></trkpt><trkpt lat="45.3461638" lon="10.6988981"><ele>109.80000000000001</ele><time>2026-04-08T10:26:01.558Z</time></trkpt><trkpt lat="45.3462025" lon="10.6987599"><ele>110.19999999999999</ele><time>2026-04-08T10:26:02.557Z</time></trkpt><trkpt lat="45.346241" lon="10.6986274"><ele>110.6</ele><time>2026-04-08T10:26:03.557Z</time></trkpt><trkpt lat="45.3462723" lon="10.698497"><ele>111.0</ele><time>2026-04-08T10:26:04.558Z</time></trkpt><trkpt lat="45.3463056" lon="10.6983648"><ele>110.0</ele><time>2026-04-08T10:26:05.558Z</time></trkpt><trkpt lat="45.3463454" lon="10.6982282"><ele>109.0</ele><time>2026-04-08T10:26:06.557Z</time></trkpt><trkpt lat="45.3464041" lon="10.6980905"><ele>108.0</ele><time>2026-04-08T10:26:07.558Z</time></trkpt><trkpt lat="45.3464682" lon="10.6979439"><ele>107.0</ele><time>2026-04-08T10:26:08.557Z</time></trkpt><trkpt lat="45.3465388" lon="10.6977885"><ele>105.5</ele><time>2026-04-08T10:26:09.558Z</time></trkpt><trkpt lat="45.346623" lon="10.6976292"><ele>104.0</ele><time>2026-04-08T10:26:10.557Z</time></trkpt><trkpt lat="45.3467148" lon="10.6974779"><ele>102.5</ele><time>2026-04-08T10:26:11.557Z</time></trkpt><trkpt lat="45.3468015" lon="10.6973361"><ele>101.0</ele><time>2026-04-08T10:26:12.557Z</time></trkpt><trkpt lat="45.346884" lon="10.6971968"><ele>101.0</ele><time>2026-04-08T10:26:13.558Z</time></trkpt><trkpt lat="45.3469718" lon="10.6970659"><ele>101.0</ele><time>2026-04-08T10:26:14.558Z</time></trkpt><trkpt lat="45.3470694" lon="10.6969381"><ele>101.0</ele><time>2026-04-08T10:26:15.557Z</time></trkpt><trkpt lat="45.3471812" lon="10.6968251"><ele>101.0</ele><time>2026-04-08T10:26:16.558Z</time></trkpt><trkpt lat="45.3473023" lon="10.696726"><ele>100.5</ele><time>2026-04-08T10:26:17.557Z</time></trkpt><trkpt lat="45.347433" lon="10.696644"><ele>100.0</ele><time>2026-04-08T10:26:18.557Z</time></trkpt><trkpt lat="45.3475652" lon="10.6965716"><ele>99.5</ele><time>2026-04-08T10:26:19.558Z</time></trkpt><trkpt lat="45.3476879" lon="10.6964995"><ele>99.0</ele><time>2026-04-08T10:26:20.557Z</time></trkpt><trkpt lat="45.3477957" lon="10.6964205"><ele>99.0</ele><time>2026-04-08T10:26:21.558Z</time></trkpt><trkpt lat="45.34789" lon="10.6963428"><ele>99.0</ele><time>2026-04-08T10:26:22.559Z</time></trkpt><trkpt lat="45.3479763" lon="10.6962642"><ele>99.0</ele><time>2026-04-08T10:26:23.558Z</time></trkpt><trkpt lat="45.34806" lon="10.6961986"><ele>99.0</ele><time>2026-04-08T10:26:24.559Z</time></trkpt><trkpt lat="45.3481527" lon="10.6961538"><ele>99.0</ele><time>2026-04-08T10:26:25.558Z</time></trkpt><trkpt lat="45.3482568" lon="10.6961441"><ele>98.6</ele><time>2026-04-08T10:26:26.558Z</time></trkpt><trkpt lat="45.348364" lon="10.6961446"><ele>98.2</ele><time>2026-04-08T10:26:27.559Z</time></trkpt><trkpt lat="45.3484755" lon="10.6961483"><ele>97.8</ele><time>2026-04-08T10:26:28.558Z</time></trkpt><trkpt lat="45.3485902" lon="10.6961476"><ele>97.39999999999999</ele><time>2026-04-08T10:26:29.558Z</time></trkpt><trkpt lat="45.3487049" lon="10.6961477"><ele>97.0</ele><time>2026-04-08T10:26:30.559Z</time></trkpt><trkpt lat="45.3488219" lon="10.6961503"><ele>96.19999999999999</ele><time>2026-04-08T10:26:31.559Z</time></trkpt><trkpt lat="45.3489385" lon="10.6961504"><ele>95.4</ele><time>2026-04-08T10:26:32.559Z</time></trkpt><trkpt lat="45.3490579" lon="10.6961466"><ele>94.6</ele><time>2026-04-08T10:26:33.559Z</time></trkpt><trkpt lat="45.3491714" lon="10.6961466"><ele>93.80000000000001</ele><time>2026-04-08T10:26:34.559Z</time></trkpt><trkpt lat="45.3492704" lon="10.6961625"><ele>93.0</ele><time>2026-04-08T10:26:35.558Z</time></trkpt><trkpt lat="45.349357" lon="10.6962098"><ele>93.0</ele><time>2026-04-08T10:26:36.559Z</time></trkpt><trkpt lat="45.3494281" lon="10.6962926"><ele>93.0</ele><time>2026-04-08T10:26:37.558Z</time></trkpt><trkpt lat="45.3494733" lon="10.6964216"><ele>93.0</ele><time>2026-04-08T10:26:38.559Z</time></trkpt><trkpt lat="45.3494947" lon="10.6965758"><ele>93.0</ele><time>2026-04-08T10:26:39.558Z</time></trkpt><trkpt lat="45.3494948" lon="10.6967374"><ele>93.0</ele><time>2026-04-08T10:26:40.559Z</time></trkpt><trkpt lat="45.3494928" lon="10.6969115"><ele>93.5</ele><time>2026-04-08T10:26:41.559Z</time></trkpt><trkpt lat="45.3494983" lon="10.6970982"><ele>94.0</ele><time>2026-04-08T10:26:42.559Z</time></trkpt><trkpt lat="45.349513" lon="10.697296"><ele>94.5</ele><time>2026-04-08T10:26:43.558Z</time></trkpt><trkpt lat="45.3495259" lon="10.6974977"><ele>95.0</ele><time>2026-04-08T10:26:44.559Z</time></trkpt><trkpt lat="45.3495434" lon="10.6977037"><ele>95.33333333333334</ele><time>2026-04-08T10:26:45.558Z</time></trkpt><trkpt lat="45.3495642" lon="10.6979156"><ele>95.66666666666667</ele><time>2026-04-08T10:26:46.558Z</time></trkpt><trkpt lat="45.3495864" lon="10.6981317"><ele>96.0</ele><time>2026-04-08T10:26:47.558Z</time></trkpt><trkpt lat="45.3496016" lon="10.6983624"><ele>97.33333333333334</ele><time>2026-04-08T10:26:48.558Z</time></trkpt><trkpt lat="45.349613" lon="10.6985945"><ele>98.66666666666667</ele><time>2026-04-08T10:26:49.559Z</time></trkpt><trkpt lat="45.3496178" lon="10.6988137"><ele>100.0</ele><time>2026-04-08T10:26:50.559Z</time></trkpt><trkpt lat="45.349624" lon="10.6990183"><ele>100.0</ele><time>2026-04-08T10:26:51.558Z</time></trkpt><trkpt lat="45.3496314" lon="10.6992203"><ele>100.0</ele><time>2026-04-08T10:26:52.559Z</time></trkpt><trkpt lat="45.3496368" lon="10.6994261"><ele>100.0</ele><time>2026-04-08T10:26:53.558Z</time></trkpt><trkpt lat="45.3496349" lon="10.6996375"><ele>100.0</ele><time>2026-04-08T10:26:54.558Z</time></trkpt><trkpt lat="45.3496222" lon="10.6998578"><ele>99.0</ele><time>2026-04-08T10:26:55.558Z</time></trkpt><trkpt lat="45.3496003" lon="10.7000803"><ele>98.0</ele><time>2026-04-08T10:26:56.558Z</time></trkpt><trkpt lat="45.3495754" lon="10.7003034"><ele>97.0</ele><time>2026-04-08T10:26:57.558Z</time></trkpt><trkpt lat="45.3495543" lon="10.7005254"><ele>96.25</ele><time>2026-04-08T10:26:58.558Z</time></trkpt><trkpt lat="45.3495389" lon="10.7007304"><ele>95.5</ele><time>2026-04-08T10:26:59.558Z</time></trkpt><trkpt lat="45.3495213" lon="10.7009242"><ele>94.75</ele><time>2026-04-08T10:27:00.558Z</time></trkpt><trkpt lat="45.3495016" lon="10.7011117"><ele>94.0</ele><time>2026-04-08T10:27:01.558Z</time></trkpt><trkpt lat="45.3494757" lon="10.7012947"><ele>93.75</ele><time>2026-04-08T10:27:02.558Z</time></trkpt><trkpt lat="45.3494586" lon="10.7014813"><ele>93.5</ele><time>2026-04-08T10:27:03.558Z</time></trkpt><trkpt lat="45.3494552" lon="10.7016754"><ele>93.25</ele><time>2026-04-08T10:27:04.558Z</time></trkpt><trkpt lat="45.3494719" lon="10.7018777"><ele>93.0</ele><time>2026-04-08T10:27:05.559Z</time></trkpt><trkpt lat="45.3494865" lon="10.7020858"><ele>92.5</ele><time>2026-04-08T10:27:06.558Z</time></trkpt><trkpt lat="45.3494985" lon="10.7023005"><ele>92.0</ele><time>2026-04-08T10:27:07.558Z</time></trkpt><trkpt lat="45.349509" lon="10.7025062"><ele>91.5</ele><time>2026-04-08T10:27:08.559Z</time></trkpt><trkpt lat="45.3495185" lon="10.7027051"><ele>91.0</ele><time>2026-04-08T10:27:09.558Z</time></trkpt><trkpt lat="45.3495255" lon="10.7028968"><ele>90.0</ele><time>2026-04-08T10:27:10.558Z</time></trkpt><trkpt lat="45.3495381" lon="10.7030904"><ele>89.0</ele><time>2026-04-08T10:27:11.56Z</time></trkpt><trkpt lat="45.3495519" lon="10.7032812"><ele>88.0</ele><time>2026-04-08T10:27:12.559Z</time></trkpt><trkpt lat="45.3495638" lon="10.7034738"><ele>87.0</ele><time>2026-04-08T10:27:13.56Z</time></trkpt><trkpt lat="45.3495756" lon="10.7036683"><ele>86.25</ele><time>2026-04-08T10:27:14.559Z</time></trkpt><trkpt lat="45.3495826" lon="10.703865"><ele>85.5</ele><time>2026-04-08T10:27:15.56Z</time></trkpt><trkpt lat="45.3495768" lon="10.7040737"><ele>84.75</ele><time>2026-04-08T10:27:16.56Z</time></trkpt><trkpt lat="45.3495526" lon="10.7042888"><ele>84.0</ele><time>2026-04-08T10:27:17.56Z</time></trkpt><trkpt lat="45.3495162" lon="10.7044929"><ele>84.0</ele><time>2026-04-08T10:27:18.559Z</time></trkpt><trkpt lat="45.3494879" lon="10.704692"><ele>84.0</ele><time>2026-04-08T10:27:19.559Z</time></trkpt><trkpt lat="45.349477" lon="10.7048975"><ele>84.0</ele><time>2026-04-08T10:27:20.559Z</time></trkpt><trkpt lat="45.3494919" lon="10.7051106"><ele>84.0</ele><time>2026-04-08T10:27:21.559Z</time></trkpt><trkpt lat="45.3495276" lon="10.7053125"><ele>84.5</ele><time>2026-04-08T10:27:22.559Z</time></trkpt><trkpt lat="45.3495879" lon="10.7054904"><ele>85.0</ele><time>2026-04-08T10:27:23.559Z</time></trkpt><trkpt lat="45.3496782" lon="10.7056638"><ele>85.5</ele><time>2026-04-08T10:27:24.559Z</time></trkpt><trkpt lat="45.3497773" lon="10.7058375"><ele>86.0</ele><time>2026-04-08T10:27:25.559Z</time></trkpt><trkpt lat="45.3498716" lon="10.7060131"><ele>79.33333333333334</ele><time>2026-04-08T10:27:26.56Z</time></trkpt><trkpt lat="45.3499648" lon="10.7061996"><ele>72.66666666666667</ele><time>2026-04-08T10:27:27.56Z</time></trkpt><trkpt lat="45.3500568" lon="10.7063816"><ele>66.0</ele><time>2026-04-08T10:27:28.56Z</time></trkpt><trkpt lat="45.3501526" lon="10.7065659"><ele>66.0</ele><time>2026-04-08T10:27:29.559Z</time></trkpt><trkpt lat="45.3502447" lon="10.7067556"><ele>66.0</ele><time>2026-04-08T10:27:30.56Z</time></trkpt><trkpt lat="45.3503299" lon="10.7069525"><ele>66.0</ele><time>2026-04-08T10:27:31.56Z</time></trkpt><trkpt lat="45.3504117" lon="10.7071527"><ele>66.0</ele><time>2026-04-08T10:27:32.56Z</time></trkpt><trkpt lat="45.3504903" lon="10.7073523"><ele>66.0</ele><time>2026-04-08T10:27:33.559Z</time></trkpt><trkpt lat="45.3505699" lon="10.7075474"><ele>66.0</ele><time>2026-04-08T10:27:34.559Z</time></trkpt><trkpt lat="45.3506498" lon="10.7077394"><ele>67.66666666666667</ele><time>2026-04-08T10:27:35.559Z</time></trkpt><trkpt lat="45.3507294" lon="10.7079323"><ele>69.33333333333334</ele><time>2026-04-08T10:27:36.559Z</time></trkpt><trkpt lat="45.3508072" lon="10.7081174"><ele>71.0</ele><time>2026-04-08T10:27:37.56Z</time></trkpt><trkpt lat="45.3508849" lon="10.708298"><ele>71.0</ele><time>2026-04-08T10:27:38.559Z</time></trkpt><trkpt lat="45.3509576" lon="10.7084661"><ele>71.0</ele><time>2026-04-08T10:27:39.56Z</time></trkpt><trkpt lat="45.3510127" lon="10.7086208"><ele>71.0</ele><time>2026-04-08T10:27:40.56Z</time></trkpt><trkpt lat="45.3510588" lon="10.7087704"><ele>71.0</ele><time>2026-04-08T10:27:41.559Z</time></trkpt><trkpt lat="45.3511102" lon="10.7089189"><ele>70.6</ele><time>2026-04-08T10:27:42.56Z</time></trkpt><trkpt lat="45.3511582" lon="10.7090549"><ele>70.19999999999999</ele><time>2026-04-08T10:27:43.559Z</time></trkpt><trkpt lat="45.3511994" lon="10.7091839"><ele>69.80000000000001</ele><time>2026-04-08T10:27:44.56Z</time></trkpt><trkpt lat="45.3512345" lon="10.709308"><ele>69.4</ele><time>2026-04-08T10:27:45.559Z</time></trkpt><trkpt lat="45.3512718" lon="10.7094284"><ele>69.0</ele><time>2026-04-08T10:27:46.56Z</time></trkpt><trkpt lat="45.3513049" lon="10.7095397"><ele>68.8</ele><time>2026-04-08T10:27:47.56Z</time></trkpt><trkpt lat="45.3513361" lon="10.7096568"><ele>68.60000000000001</ele><time>2026-04-08T10:27:48.56Z</time></trkpt><trkpt lat="45.3513673" lon="10.7097722"><ele>68.4</ele><time>2026-04-08T10:27:49.559Z</time></trkpt><trkpt lat="45.3513975" lon="10.7098931"><ele>68.2</ele><time>2026-04-08T10:27:50.56Z</time></trkpt><trkpt lat="45.351437" lon="10.7100151"><ele>68.0</ele><time>2026-04-08T10:27:51.559Z</time></trkpt><trkpt lat="45.3514829" lon="10.7101403"><ele>67.5</ele><time>2026-04-08T10:27:52.559Z</time></trkpt><trkpt lat="45.3515294" lon="10.710271"><ele>67.0</ele><time>2026-04-08T10:27:53.559Z</time></trkpt><trkpt lat="45.3515823" lon="10.7104117"><ele>66.5</ele><time>2026-04-08T10:27:54.559Z</time></trkpt><trkpt lat="45.3516441" lon="10.7105592"><ele>66.0</ele><time>2026-04-08T10:27:55.56Z</time></trkpt><trkpt lat="45.3517136" lon="10.7107081"><ele>66.0</ele><time>2026-04-08T10:27:56.614Z</time></trkpt><trkpt lat="45.3517924" lon="10.7108582"><ele>66.0</ele><time>2026-04-08T10:27:57.614Z</time></trkpt><trkpt lat="45.3518746" lon="10.7109965"><ele>66.0</ele><time>2026-04-08T10:27:58.613Z</time></trkpt><trkpt lat="45.3519554" lon="10.7111226"><ele>66.0</ele><time>2026-04-08T10:27:59.614Z</time></trkpt><trkpt lat="45.352029" lon="10.7112475"><ele>66.25</ele><time>2026-04-08T10:28:00.613Z</time></trkpt><trkpt lat="45.3520971" lon="10.7113764"><ele>66.5</ele><time>2026-04-08T10:28:01.614Z</time></trkpt><trkpt lat="45.3521673" lon="10.7115004"><ele>66.75</ele><time>2026-04-08T10:28:02.613Z</time></trkpt><trkpt lat="45.3522457" lon="10.7116206"><ele>67.0</ele><time>2026-04-08T10:28:03.613Z</time></trkpt><trkpt lat="45.3523271" lon="10.7117376"><ele>67.0</ele><time>2026-04-08T10:28:04.613Z</time></trkpt><trkpt lat="45.3524053" lon="10.7118575"><ele>67.0</ele><time>2026-04-08T10:28:05.614Z</time></trkpt><trkpt lat="45.352477" lon="10.7119746"><ele>67.0</ele><time>2026-04-08T10:28:06.614Z</time></trkpt><trkpt lat="45.3525377" lon="10.7120914"><ele>67.0</ele><time>2026-04-08T10:28:07.614Z</time></trkpt><trkpt lat="45.3525946" lon="10.7122151"><ele>67.0</ele><time>2026-04-08T10:28:08.613Z</time></trkpt><trkpt lat="45.3526511" lon="10.7123478"><ele>67.0</ele><time>2026-04-08T10:28:09.614Z</time></trkpt><trkpt lat="45.3527099" lon="10.7124748"><ele>67.0</ele><time>2026-04-08T10:28:10.613Z</time></trkpt><trkpt lat="45.3527726" lon="10.7125861"><ele>67.0</ele><time>2026-04-08T10:28:11.614Z</time></trkpt><trkpt lat="45.3528396" lon="10.7126985"><ele>67.0</ele><time>2026-04-08T10:28:12.614Z</time></trkpt><trkpt lat="45.3529122" lon="10.7128208"><ele>67.0</ele><time>2026-04-08T10:28:13.613Z</time></trkpt><trkpt lat="45.3529847" lon="10.7129508"><ele>68.5</ele><time>2026-04-08T10:28:14.613Z</time></trkpt><trkpt lat="45.3530584" lon="10.7130847"><ele>70.0</ele><time>2026-04-08T10:28:15.614Z</time></trkpt><trkpt lat="45.3531393" lon="10.7132188"><ele>71.5</ele><time>2026-04-08T10:28:16.613Z</time></trkpt><trkpt lat="45.3532252" lon="10.71336"><ele>73.0</ele><time>2026-04-08T10:28:17.614Z</time></trkpt><trkpt lat="45.3533002" lon="10.7134941"><ele>71.75</ele><time>2026-04-08T10:28:18.614Z</time></trkpt><trkpt lat="45.353371" lon="10.7136218"><ele>70.5</ele><time>2026-04-08T10:28:19.614Z</time></trkpt><trkpt lat="45.3534428" lon="10.7137487"><ele>69.25</ele><time>2026-04-08T10:28:20.613Z</time></trkpt><trkpt lat="45.3535172" lon="10.7138864"><ele>68.0</ele><time>2026-04-08T10:28:21.614Z</time></trkpt><trkpt lat="45.3535859" lon="10.7140407"><ele>68.0</ele><time>2026-04-08T10:28:22.613Z</time></trkpt><trkpt lat="45.3536448" lon="10.7142144"><ele>68.0</ele><time>2026-04-08T10:28:23.614Z</time></trkpt><trkpt lat="45.3536892" lon="10.7144073"><ele>68.0</ele><time>2026-04-08T10:28:24.614Z</time></trkpt><trkpt lat="45.3537208" lon="10.7146085"><ele>68.0</ele><time>2026-04-08T10:28:25.614Z</time></trkpt><trkpt lat="45.3537523" lon="10.7148233"><ele>67.33333333333334</ele><time>2026-04-08T10:28:26.613Z</time></trkpt><trkpt lat="45.3537734" lon="10.715047"><ele>66.66666666666667</ele><time>2026-04-08T10:28:27.613Z</time></trkpt><trkpt lat="45.3537903" lon="10.7152804"><ele>66.0</ele><time>2026-04-08T10:28:28.613Z</time></trkpt><trkpt lat="45.3537995" lon="10.7155184"><ele>65.0</ele><time>2026-04-08T10:28:29.614Z</time></trkpt><trkpt lat="45.3538044" lon="10.7157517"><ele>64.0</ele><time>2026-04-08T10:28:30.613Z</time></trkpt><trkpt lat="45.3537932" lon="10.715987"><ele>63.0</ele><time>2026-04-08T10:28:31.614Z</time></trkpt><trkpt lat="45.3537773" lon="10.7162244"><ele>62.66666666666667</ele><time>2026-04-08T10:28:32.613Z</time></trkpt><trkpt lat="45.3537699" lon="10.7164653"><ele>62.333333333333336</ele><time>2026-04-08T10:28:33.613Z</time></trkpt><trkpt lat="45.3537781" lon="10.7166992"><ele>62.0</ele><time>2026-04-08T10:28:34.613Z</time></trkpt><trkpt lat="45.3538057" lon="10.7169408"><ele>61.333333333333336</ele><time>2026-04-08T10:28:35.613Z</time></trkpt><trkpt lat="45.3538518" lon="10.7171736"><ele>60.66666666666667</ele><time>2026-04-08T10:28:36.613Z</time></trkpt><trkpt lat="45.3539167" lon="10.7173977"><ele>60.0</ele><time>2026-04-08T10:28:37.613Z</time></trkpt><trkpt lat="45.3540042" lon="10.7176149"><ele>61.0</ele><time>2026-04-08T10:28:38.613Z</time></trkpt><trkpt lat="45.3541047" lon="10.7178175"><ele>62.0</ele><time>2026-04-08T10:28:39.613Z</time></trkpt><trkpt lat="45.3542162" lon="10.7180152"><ele>63.0</ele><time>2026-04-08T10:28:40.614Z</time></trkpt><trkpt lat="45.3543237" lon="10.7182178"><ele>63.0</ele><time>2026-04-08T10:28:41.614Z</time></trkpt><trkpt lat="45.3544287" lon="10.7184166"><ele>63.0</ele><time>2026-04-08T10:28:42.614Z</time></trkpt><trkpt lat="45.3545337" lon="10.7186108"><ele>63.0</ele><time>2026-04-08T10:28:43.613Z</time></trkpt><trkpt lat="45.3546367" lon="10.7188011"><ele>64.33333333333333</ele><time>2026-04-08T10:28:44.613Z</time></trkpt><trkpt lat="45.3547374" lon="10.7189901"><ele>65.66666666666666</ele><time>2026-04-08T10:28:45.614Z</time></trkpt><trkpt lat="45.3548323" lon="10.719173"><ele>67.0</ele><time>2026-04-08T10:28:46.614Z</time></trkpt><trkpt lat="45.3549273" lon="10.7193446"><ele>66.0</ele><time>2026-04-08T10:28:47.614Z</time></trkpt><trkpt lat="45.3550208" lon="10.7195179"><ele>65.0</ele><time>2026-04-08T10:28:48.614Z</time></trkpt><trkpt lat="45.3551121" lon="10.7196874"><ele>64.0</ele><time>2026-04-08T10:28:49.614Z</time></trkpt><trkpt lat="45.3552018" lon="10.7198541"><ele>64.0</ele><time>2026-04-08T10:28:50.613Z</time></trkpt><trkpt lat="45.3552925" lon="10.7200188"><ele>64.0</ele><time>2026-04-08T10:28:51.613Z</time></trkpt><trkpt lat="45.3553814" lon="10.7201865"><ele>64.0</ele><time>2026-04-08T10:28:52.613Z</time></trkpt><trkpt lat="45.3554679" lon="10.7203489"><ele>64.0</ele><time>2026-04-08T10:28:53.613Z</time></trkpt><trkpt lat="45.3555492" lon="10.7205044"><ele>65.25</ele><time>2026-04-08T10:28:54.613Z</time></trkpt><trkpt lat="45.355627" lon="10.7206447"><ele>66.5</ele><time>2026-04-08T10:28:55.613Z</time></trkpt><trkpt lat="45.355697" lon="10.7207794"><ele>67.75</ele><time>2026-04-08T10:28:56.613Z</time></trkpt><trkpt lat="45.3557623" lon="10.7209022"><ele>69.0</ele><time>2026-04-08T10:28:57.614Z</time></trkpt><trkpt lat="45.3558277" lon="10.7210145"><ele>68.16666666666667</ele><time>2026-04-08T10:28:58.614Z</time></trkpt><trkpt lat="45.3558983" lon="10.7211055"><ele>67.33333333333333</ele><time>2026-04-08T10:28:59.614Z</time></trkpt><trkpt lat="45.3559686" lon="10.7211804"><ele>66.5</ele><time>2026-04-08T10:29:00.613Z</time></trkpt><trkpt lat="45.3560344" lon="10.7212474"><ele>65.66666666666666</ele><time>2026-04-08T10:29:01.613Z</time></trkpt><trkpt lat="45.3560851" lon="10.7213237"><ele>64.83333333333333</ele><time>2026-04-08T10:29:02.613Z</time></trkpt><trkpt lat="45.3561149" lon="10.7214061"><ele>64.0</ele><time>2026-04-08T10:29:03.613Z</time></trkpt><trkpt lat="45.3561256" lon="10.7214948"><ele>64.0</ele><time>2026-04-08T10:29:04.613Z</time></trkpt><trkpt lat="45.3560822" lon="10.7216669"><ele>64.0</ele><time>2026-04-08T10:29:06.613Z</time></trkpt><trkpt lat="45.356045" lon="10.7217656"><ele>64.0</ele><time>2026-04-08T10:29:07.614Z</time></trkpt><trkpt lat="45.3560016" lon="10.7218792"><ele>64.0</ele><time>2026-04-08T10:29:08.613Z</time></trkpt><trkpt lat="45.3559576" lon="10.721998"><ele>64.0</ele><time>2026-04-08T10:29:09.613Z</time></trkpt><trkpt lat="45.3559125" lon="10.7221197"><ele>63.800000000000004</ele><time>2026-04-08T10:29:10.613Z</time></trkpt><trkpt lat="45.3558668" lon="10.7222481"><ele>63.60000000000001</ele><time>2026-04-08T10:29:11.614Z</time></trkpt><trkpt lat="45.3558172" lon="10.7223847"><ele>63.4</ele><time>2026-04-08T10:29:12.614Z</time></trkpt><trkpt lat="45.3557662" lon="10.7225288"><ele>63.2</ele><time>2026-04-08T10:29:13.613Z</time></trkpt><trkpt lat="45.3557173" lon="10.7226848"><ele>63.0</ele><time>2026-04-08T10:29:14.613Z</time></trkpt><trkpt lat="45.355665" lon="10.7228381"><ele>63.0</ele><time>2026-04-08T10:29:15.613Z</time></trkpt><trkpt lat="45.355606" lon="10.7229932"><ele>63.0</ele><time>2026-04-08T10:29:16.614Z</time></trkpt><trkpt lat="45.3555478" lon="10.7231546"><ele>63.0</ele><time>2026-04-08T10:29:17.614Z</time></trkpt><trkpt lat="45.3554907" lon="10.7233201"><ele>63.0</ele><time>2026-04-08T10:29:18.614Z</time></trkpt><trkpt lat="45.3554327" lon="10.7234884"><ele>62.0</ele><time>2026-04-08T10:29:19.613Z</time></trkpt><trkpt lat="45.3553694" lon="10.7236555"><ele>61.0</ele><time>2026-04-08T10:29:20.614Z</time></trkpt><trkpt lat="45.3553094" lon="10.723821"><ele>60.0</ele><time>2026-04-08T10:29:21.614Z</time></trkpt><trkpt lat="45.355251" lon="10.7239865"><ele>59.0</ele><time>2026-04-08T10:29:22.613Z</time></trkpt><trkpt lat="45.3551942" lon="10.724145"><ele>59.0</ele><time>2026-04-08T10:29:23.613Z</time></trkpt><trkpt lat="45.3551372" lon="10.7242949"><ele>59.00000000000001</ele><time>2026-04-08T10:29:24.613Z</time></trkpt><trkpt lat="45.355086" lon="10.724435"><ele>59.00000000000001</ele><time>2026-04-08T10:29:25.613Z</time></trkpt><trkpt lat="45.35504" lon="10.7245664"><ele>59.0</ele><time>2026-04-08T10:29:26.614Z</time></trkpt><trkpt lat="45.3550009" lon="10.7246818"><ele>59.0</ele><time>2026-04-08T10:29:27.613Z</time></trkpt><trkpt lat="45.3549682" lon="10.7247816"><ele>59.2</ele><time>2026-04-08T10:29:28.613Z</time></trkpt><trkpt lat="45.3549396" lon="10.7248633"><ele>59.400000000000006</ele><time>2026-04-08T10:29:29.613Z</time></trkpt><trkpt lat="45.3548967" lon="10.7249863"><ele>59.6</ele><time>2026-04-08T10:29:38.614Z</time></trkpt><trkpt lat="45.3548472" lon="10.7251423"><ele>59.8</ele><time>2026-04-08T10:29:40.613Z</time></trkpt><trkpt lat="45.3547932" lon="10.7252997"><ele>60.0</ele><time>2026-04-08T10:29:42.613Z</time></trkpt><trkpt lat="45.3547651" lon="10.7253882"><ele>59.5</ele><time>2026-04-08T10:29:43.614Z</time></trkpt><trkpt lat="45.354731" lon="10.7254834"><ele>59.0</ele><time>2026-04-08T10:29:44.613Z</time></trkpt><trkpt lat="45.3546941" lon="10.7255787"><ele>58.5</ele><time>2026-04-08T10:29:45.614Z</time></trkpt><trkpt lat="45.3546568" lon="10.7256789"><ele>58.0</ele><time>2026-04-08T10:29:46.614Z</time></trkpt><trkpt lat="45.3546136" lon="10.7257834"><ele>57.5</ele><time>2026-04-08T10:29:47.614Z</time></trkpt><trkpt lat="45.3545724" lon="10.7258824"><ele>57.0</ele><time>2026-04-08T10:29:48.613Z</time></trkpt><trkpt lat="45.354533" lon="10.7259923"><ele>57.400000000000006</ele><time>2026-04-08T10:29:49.614Z</time></trkpt><trkpt lat="45.3544949" lon="10.726112"><ele>57.800000000000004</ele><time>2026-04-08T10:29:50.614Z</time></trkpt><trkpt lat="45.354452" lon="10.7262292"><ele>58.2</ele><time>2026-04-08T10:29:51.614Z</time></trkpt><trkpt lat="45.3544088" lon="10.7263464"><ele>58.6</ele><time>2026-04-08T10:29:52.613Z</time></trkpt><trkpt lat="45.3543644" lon="10.7264688"><ele>59.0</ele><time>2026-04-08T10:29:53.614Z</time></trkpt><trkpt lat="45.3543199" lon="10.7265888"><ele>59.0</ele><time>2026-04-08T10:29:54.613Z</time></trkpt><trkpt lat="45.354277" lon="10.7267122"><ele>59.00000000000001</ele><time>2026-04-08T10:29:55.614Z</time></trkpt><trkpt lat="45.3542326" lon="10.7268423"><ele>59.00000000000001</ele><time>2026-04-08T10:29:56.613Z</time></trkpt><trkpt lat="45.3541903" lon="10.7269673"><ele>59.0</ele><time>2026-04-08T10:29:57.613Z</time></trkpt><trkpt lat="45.3541498" lon="10.7270821"><ele>59.0</ele><time>2026-04-08T10:29:58.613Z</time></trkpt><trkpt lat="45.3541088" lon="10.7271847"><ele>59.16666666666667</ele><time>2026-04-08T10:29:59.614Z</time></trkpt><trkpt lat="45.3540694" lon="10.727285"><ele>59.333333333333336</ele><time>2026-04-08T10:30:00.614Z</time></trkpt><trkpt lat="45.3540363" lon="10.7273792"><ele>59.5</ele><time>2026-04-08T10:30:01.613Z</time></trkpt><trkpt lat="45.3540056" lon="10.7274715"><ele>59.66666666666667</ele><time>2026-04-08T10:30:02.613Z</time></trkpt><trkpt lat="45.3539744" lon="10.7275652"><ele>59.833333333333336</ele><time>2026-04-08T10:30:03.613Z</time></trkpt><trkpt lat="45.3539416" lon="10.727653"><ele>60.0</ele><time>2026-04-08T10:30:04.614Z</time></trkpt><trkpt lat="45.3538869" lon="10.7278081"><ele>63.2</ele><time>2026-04-08T10:30:06.613Z</time></trkpt><trkpt lat="45.3538284" lon="10.7279541"><ele>66.4</ele><time>2026-04-08T10:30:08.614Z</time></trkpt><trkpt lat="45.3537786" lon="10.7280994"><ele>69.6</ele><time>2026-04-08T10:30:10.613Z</time></trkpt><trkpt lat="45.353741" lon="10.7282243"><ele>72.8</ele><time>2026-04-08T10:30:12.614Z</time></trkpt><trkpt lat="45.3536845" lon="10.7282846"><ele>76.0</ele><time>2026-04-08T10:30:14.614Z</time></trkpt><trkpt lat="45.3536508" lon="10.7283669"><ele>76.0</ele><time>2026-04-08T10:30:16.613Z</time></trkpt><trkpt lat="45.3536882" lon="10.7284676"><ele>76.0</ele><time>2026-04-08T10:30:18.614Z</time></trkpt><trkpt lat="45.3537751" lon="10.7285698"><ele>76.0</ele><time>2026-04-08T10:30:20.613Z</time></trkpt><trkpt lat="45.3538677" lon="10.7286768"><ele>76.0</ele><time>2026-04-08T10:30:22.614Z</time></trkpt><trkpt lat="45.3539342" lon="10.7287275"><ele>76.0</ele><time>2026-04-08T10:33:34.567Z</time></trkpt><trkpt lat="45.354025" lon="10.7287429"><ele>77.0</ele><time>2026-04-08T10:33:36.566Z</time></trkpt><trkpt lat="45.3540919" lon="10.7287744"><ele>78.0</ele><time>2026-04-08T10:33:37.566Z</time></trkpt><trkpt lat="45.3541623" lon="10.7288174"><ele>79.0</ele><time>2026-04-08T10:33:38.567Z</time></trkpt><trkpt lat="45.3542389" lon="10.7288527"><ele>80.0</ele><time>2026-04-08T10:33:39.566Z</time></trkpt><trkpt lat="45.3543209" lon="10.7288865"><ele>81.0</ele><time>2026-04-08T10:33:40.567Z</time></trkpt><trkpt lat="45.3544146" lon="10.7289205"><ele>82.0</ele><time>2026-04-08T10:33:41.567Z</time></trkpt><trkpt lat="45.3545105" lon="10.7289599"><ele>82.0</ele><time>2026-04-08T10:33:42.566Z</time></trkpt><trkpt lat="45.3546141" lon="10.7290054"><ele>82.0</ele><time>2026-04-08T10:33:43.566Z</time></trkpt><trkpt lat="45.3547256" lon="10.7290605"><ele>82.0</ele><time>2026-04-08T10:33:44.567Z</time></trkpt><trkpt lat="45.3548391" lon="10.7291121"><ele>82.0</ele><time>2026-04-08T10:33:45.566Z</time></trkpt><trkpt lat="45.3549644" lon="10.7291567"><ele>81.5</ele><time>2026-04-08T10:33:46.567Z</time></trkpt><trkpt lat="45.3550943" lon="10.7291941"><ele>81.0</ele><time>2026-04-08T10:33:47.567Z</time></trkpt><trkpt lat="45.355223" lon="10.7292282"><ele>80.5</ele><time>2026-04-08T10:33:48.567Z</time></trkpt><trkpt lat="45.3553507" lon="10.7292586"><ele>80.0</ele><time>2026-04-08T10:33:49.566Z</time></trkpt><trkpt lat="45.35548" lon="10.7292889"><ele>79.75</ele><time>2026-04-08T10:33:50.567Z</time></trkpt><trkpt lat="45.3556127" lon="10.729319"><ele>79.5</ele><time>2026-04-08T10:33:51.566Z</time></trkpt><trkpt lat="45.3557453" lon="10.7293517"><ele>79.25</ele><time>2026-04-08T10:33:52.566Z</time></trkpt><trkpt lat="45.3558747" lon="10.7293811"><ele>79.0</ele><time>2026-04-08T10:33:53.567Z</time></trkpt><trkpt lat="45.3559995" lon="10.7293907"><ele>79.0</ele><time>2026-04-08T10:33:54.566Z</time></trkpt><trkpt lat="45.3561102" lon="10.7293881"><ele>79.0</ele><time>2026-04-08T10:33:55.567Z</time></trkpt><trkpt lat="45.3562142" lon="10.7293676"><ele>79.0</ele><time>2026-04-08T10:33:56.567Z</time></trkpt><trkpt lat="45.3563145" lon="10.7293407"><ele>79.0</ele><time>2026-04-08T10:33:57.566Z</time></trkpt><trkpt lat="45.3564029" lon="10.729315"><ele>79.0</ele><time>2026-04-08T10:33:58.567Z</time></trkpt><trkpt lat="45.3564777" lon="10.7292909"><ele>79.66666666666666</ele><time>2026-04-08T10:33:59.566Z</time></trkpt><trkpt lat="45.3565893" lon="10.7292999"><ele>80.33333333333333</ele><time>2026-04-08T10:34:01.568Z</time></trkpt><trkpt lat="45.3566107" lon="10.7294022"><ele>81.0</ele><time>2026-04-08T10:34:03.568Z</time></trkpt><trkpt lat="45.356541" lon="10.7294493"><ele>81.66666666666667</ele><time>2026-04-08T10:34:05.568Z</time></trkpt><trkpt lat="45.3564424" lon="10.7295071"><ele>82.33333333333334</ele><time>2026-04-08T10:34:07.568Z</time></trkpt><trkpt lat="45.3563702" lon="10.7295508"><ele>83.0</ele><time>2026-04-08T10:34:08.568Z</time></trkpt><trkpt lat="45.356288" lon="10.7295972"><ele>85.80000000000001</ele><time>2026-04-08T10:34:09.567Z</time></trkpt><trkpt lat="45.3562018" lon="10.729642"><ele>88.6</ele><time>2026-04-08T10:34:10.568Z</time></trkpt><trkpt lat="45.356114" lon="10.7296883"><ele>91.4</ele><time>2026-04-08T10:34:11.567Z</time></trkpt><trkpt lat="45.3560225" lon="10.7297463"><ele>94.19999999999999</ele><time>2026-04-08T10:34:12.567Z</time></trkpt><trkpt lat="45.3559341" lon="10.7298154"><ele>97.0</ele><time>2026-04-08T10:34:13.567Z</time></trkpt><trkpt lat="45.3558496" lon="10.7298936"><ele>97.0</ele><time>2026-04-08T10:34:14.567Z</time></trkpt><trkpt lat="45.3557737" lon="10.7299819"><ele>97.0</ele><time>2026-04-08T10:34:15.568Z</time></trkpt><trkpt lat="45.3557176" lon="10.7300897"><ele>97.0</ele><time>2026-04-08T10:34:16.567Z</time></trkpt><trkpt lat="45.3556904" lon="10.7302157"><ele>97.0</ele><time>2026-04-08T10:34:17.568Z</time></trkpt><trkpt lat="45.3556996" lon="10.7303503"><ele>97.0</ele><time>2026-04-08T10:34:18.567Z</time></trkpt><trkpt lat="45.3557356" lon="10.7304967"><ele>98.0</ele><time>2026-04-08T10:34:19.568Z</time></trkpt><trkpt lat="45.3557738" lon="10.7306427"><ele>99.0</ele><time>2026-04-08T10:34:20.567Z</time></trkpt><trkpt lat="45.355806" lon="10.7307837"><ele>100.0</ele><time>2026-04-08T10:34:21.567Z</time></trkpt><trkpt lat="45.3558351" lon="10.7309281"><ele>101.0</ele><time>2026-04-08T10:34:22.568Z</time></trkpt><trkpt lat="45.355867" lon="10.7310617"><ele>102.0</ele><time>2026-04-08T10:34:23.567Z</time></trkpt><trkpt lat="45.3558847" lon="10.7311844"><ele>102.0</ele><time>2026-04-08T10:34:24.568Z</time></trkpt><trkpt lat="45.3559029" lon="10.7313009"><ele>102.0</ele><time>2026-04-08T10:34:25.568Z</time></trkpt><trkpt lat="45.3559188" lon="10.7314086"><ele>102.0</ele><time>2026-04-08T10:34:26.567Z</time></trkpt><trkpt lat="45.3559266" lon="10.7315"><ele>102.0</ele><time>2026-04-08T10:34:27.568Z</time></trkpt><trkpt lat="45.355911" lon="10.7316732"><ele>102.0</ele><time>2026-04-08T10:34:29.567Z</time></trkpt><trkpt lat="45.3558903" lon="10.7317703"><ele>102.0</ele><time>2026-04-08T10:34:30.568Z</time></trkpt><trkpt lat="45.3558584" lon="10.7318701"><ele>100.83333333333333</ele><time>2026-04-08T10:34:31.568Z</time></trkpt><trkpt lat="45.3558172" lon="10.7319752"><ele>99.66666666666667</ele><time>2026-04-08T10:34:32.567Z</time></trkpt><trkpt lat="45.355769" lon="10.7320868"><ele>98.5</ele><time>2026-04-08T10:34:33.568Z</time></trkpt><trkpt lat="45.3557257" lon="10.7321918"><ele>97.33333333333334</ele><time>2026-04-08T10:34:34.567Z</time></trkpt><trkpt lat="45.355683" lon="10.7322898"><ele>96.16666666666667</ele><time>2026-04-08T10:34:35.568Z</time></trkpt><trkpt lat="45.355643" lon="10.7323729"><ele>95.0</ele><time>2026-04-08T10:34:36.568Z</time></trkpt><trkpt lat="45.3556074" lon="10.7324548"><ele>95.0</ele><time>2026-04-08T10:34:37.62Z</time></trkpt><trkpt lat="45.3555662" lon="10.7325395"><ele>95.0</ele><time>2026-04-08T10:34:38.62Z</time></trkpt><trkpt lat="45.3555236" lon="10.7326169"><ele>95.0</ele><time>2026-04-08T10:34:39.621Z</time></trkpt><trkpt lat="45.3554798" lon="10.7326901"><ele>95.0</ele><time>2026-04-08T10:34:40.62Z</time></trkpt><trkpt lat="45.3554338" lon="10.7327591"><ele>95.0</ele><time>2026-04-08T10:34:41.62Z</time></trkpt><trkpt lat="45.355395" lon="10.7328362"><ele>95.0</ele><time>2026-04-08T10:34:42.62Z</time></trkpt><trkpt lat="45.3553522" lon="10.7329226"><ele>95.0</ele><time>2026-04-08T10:34:43.62Z</time></trkpt><trkpt lat="45.3553017" lon="10.7330024"><ele>94.83333333333334</ele><time>2026-04-08T10:34:44.62Z</time></trkpt><trkpt lat="45.3552595" lon="10.7330944"><ele>94.66666666666667</ele><time>2026-04-08T10:34:45.62Z</time></trkpt><trkpt lat="45.3552221" lon="10.7331881"><ele>94.5</ele><time>2026-04-08T10:34:46.621Z</time></trkpt><trkpt lat="45.3551846" lon="10.7332791"><ele>94.33333333333333</ele><time>2026-04-08T10:34:47.62Z</time></trkpt><trkpt lat="45.3551577" lon="10.7333863"><ele>94.16666666666666</ele><time>2026-04-08T10:34:48.621Z</time></trkpt><trkpt lat="45.3551307" lon="10.7334962"><ele>94.0</ele><time>2026-04-08T10:34:49.62Z</time></trkpt><trkpt lat="45.3551064" lon="10.7335917"><ele>93.83333333333333</ele><time>2026-04-08T10:34:50.62Z</time></trkpt><trkpt lat="45.3550814" lon="10.733679"><ele>93.66666666666666</ele><time>2026-04-08T10:34:51.621Z</time></trkpt><trkpt lat="45.3550567" lon="10.7337627"><ele>93.5</ele><time>2026-04-08T10:34:52.621Z</time></trkpt><trkpt lat="45.3550037" lon="10.7339262"><ele>93.33333333333333</ele><time>2026-04-08T10:34:54.621Z</time></trkpt><trkpt lat="45.3549581" lon="10.7340088"><ele>93.16666666666667</ele><time>2026-04-08T10:34:55.621Z</time></trkpt><trkpt lat="45.3548867" lon="10.7341312"><ele>93.0</ele><time>2026-04-08T10:34:57.62Z</time></trkpt><trkpt lat="45.3548425" lon="10.7342071"><ele>93.0</ele><time>2026-04-08T10:34:59.621Z</time></trkpt><trkpt lat="45.3548322" lon="10.734297"><ele>93.0</ele><time>2026-04-08T10:35:01.62Z</time></trkpt><trkpt lat="45.3548957" lon="10.7343606"><ele>93.0</ele><time>2026-04-08T10:35:03.62Z</time></trkpt><trkpt lat="45.3549966" lon="10.7343686"><ele>93.0</ele><time>2026-04-08T10:35:05.62Z</time></trkpt><trkpt lat="45.3550907" lon="10.7343818"><ele>93.0</ele><time>2026-04-08T10:35:07.621Z</time></trkpt><trkpt lat="45.3552036" lon="10.7344032"><ele>93.16666666666667</ele><time>2026-04-08T10:35:09.62Z</time></trkpt><trkpt lat="45.3552652" lon="10.7344218"><ele>93.33333333333333</ele><time>2026-04-08T10:35:10.621Z</time></trkpt><trkpt lat="45.3553317" lon="10.7344425"><ele>93.5</ele><time>2026-04-08T10:35:11.621Z</time></trkpt><trkpt lat="45.3553952" lon="10.7344601"><ele>93.66666666666666</ele><time>2026-04-08T10:35:12.621Z</time></trkpt><trkpt lat="45.3555227" lon="10.7345102"><ele>93.83333333333333</ele><time>2026-04-08T10:35:14.621Z</time></trkpt><trkpt lat="45.3555922" lon="10.7345353"><ele>94.0</ele><time>2026-04-08T10:35:15.62Z</time></trkpt><trkpt lat="45.3556585" lon="10.7345679"><ele>94.0</ele><time>2026-04-08T10:35:16.62Z</time></trkpt><trkpt lat="45.3557793" lon="10.7346162"><ele>94.0</ele><time>2026-04-08T10:35:18.62Z</time></trkpt><trkpt lat="45.3558792" lon="10.7346758"><ele>94.0</ele><time>2026-04-08T10:35:20.62Z</time></trkpt><trkpt lat="45.3559653" lon="10.7347432"><ele>94.0</ele><time>2026-04-08T10:35:22.621Z</time></trkpt><trkpt lat="45.3560449" lon="10.7347958"><ele>94.0</ele><time>2026-04-08T10:35:24.621Z</time></trkpt><trkpt lat="45.3561205" lon="10.7348219"><ele>94.0</ele><time>2026-04-08T10:35:26.62Z</time></trkpt><trkpt lat="45.3562218" lon="10.7348526"><ele>94.0</ele><time>2026-04-08T10:35:28.62Z</time></trkpt><trkpt lat="45.3563254" lon="10.7348872"><ele>94.0</ele><time>2026-04-08T10:35:30.621Z</time></trkpt><trkpt lat="45.3564402" lon="10.734921"><ele>94.0</ele><time>2026-04-08T10:35:32.62Z</time></trkpt><trkpt lat="45.3565555" lon="10.7349638"><ele>94.0</ele><time>2026-04-08T10:35:34.62Z</time></trkpt><trkpt lat="45.3566628" lon="10.7350032"><ele>93.83333333333333</ele><time>2026-04-08T10:35:36.621Z</time></trkpt><trkpt lat="45.3567621" lon="10.7350331"><ele>93.66666666666666</ele><time>2026-04-08T10:35:38.621Z</time></trkpt><trkpt lat="45.3568594" lon="10.7350472"><ele>93.5</ele><time>2026-04-08T10:35:40.62Z</time></trkpt><trkpt lat="45.3569244" lon="10.7350492"><ele>93.33333333333333</ele><time>2026-04-08T10:35:41.621Z</time></trkpt><trkpt lat="45.3569951" lon="10.7350499"><ele>93.16666666666667</ele><time>2026-04-08T10:35:42.62Z</time></trkpt><trkpt lat="45.3570654" lon="10.7350402"><ele>93.0</ele><time>2026-04-08T10:35:43.62Z</time></trkpt><trkpt lat="45.3571373" lon="10.7350369"><ele>93.0</ele><time>2026-04-08T10:35:44.621Z</time></trkpt><trkpt lat="45.3572006" lon="10.7350235"><ele>93.0</ele><time>2026-04-08T10:35:45.621Z</time></trkpt><trkpt lat="45.3573201" lon="10.7350036"><ele>93.0</ele><time>2026-04-08T10:35:47.62Z</time></trkpt><trkpt lat="45.3573831" lon="10.7349852"><ele>93.0</ele><time>2026-04-08T10:35:48.62Z</time></trkpt><trkpt lat="45.3574455" lon="10.7349724"><ele>93.0</ele><time>2026-04-08T10:35:49.62Z</time></trkpt><trkpt lat="45.3575091" lon="10.734963"><ele>93.0</ele><time>2026-04-08T10:35:50.621Z</time></trkpt><trkpt lat="45.3576441" lon="10.7349548"><ele>93.0</ele><time>2026-04-08T10:35:52.62Z</time></trkpt><trkpt lat="45.357724" lon="10.7349462"><ele>93.0</ele><time>2026-04-08T10:35:53.62Z</time></trkpt><trkpt lat="45.3577988" lon="10.7349406"><ele>93.0</ele><time>2026-04-08T10:35:54.621Z</time></trkpt><trkpt lat="45.3578814" lon="10.7349357"><ele>93.0</ele><time>2026-04-08T10:35:55.62Z</time></trkpt><trkpt lat="45.3579783" lon="10.7349282"><ele>93.0</ele><time>2026-04-08T10:35:56.62Z</time></trkpt><trkpt lat="45.3580665" lon="10.7349223"><ele>93.0</ele><time>2026-04-08T10:35:57.62Z</time></trkpt><trkpt lat="45.3581498" lon="10.7349071"><ele>93.60000000000001</ele><time>2026-04-08T10:35:58.62Z</time></trkpt><trkpt lat="45.3582293" lon="10.734899"><ele>94.2</ele><time>2026-04-08T10:35:59.621Z</time></trkpt><trkpt lat="45.3583141" lon="10.7348965"><ele>94.8</ele><time>2026-04-08T10:36:00.621Z</time></trkpt><trkpt lat="45.3584085" lon="10.7349066"><ele>95.4</ele><time>2026-04-08T10:36:01.621Z</time></trkpt><trkpt lat="45.3585101" lon="10.734914"><ele>96.0</ele><time>2026-04-08T10:36:02.62Z</time></trkpt><trkpt lat="45.3586116" lon="10.7349216"><ele>96.0</ele><time>2026-04-08T10:36:03.62Z</time></trkpt><trkpt lat="45.358717" lon="10.7349336"><ele>96.0</ele><time>2026-04-08T10:36:04.62Z</time></trkpt><trkpt lat="45.358824" lon="10.7349489"><ele>96.0</ele><time>2026-04-08T10:36:05.62Z</time></trkpt><trkpt lat="45.3589232" lon="10.7349593"><ele>96.0</ele><time>2026-04-08T10:36:06.621Z</time></trkpt><trkpt lat="45.3590208" lon="10.734974"><ele>96.0</ele><time>2026-04-08T10:36:07.62Z</time></trkpt><trkpt lat="45.359114" lon="10.7349901"><ele>96.16666666666667</ele><time>2026-04-08T10:36:08.621Z</time></trkpt><trkpt lat="45.3592081" lon="10.7349999"><ele>96.33333333333334</ele><time>2026-04-08T10:36:09.62Z</time></trkpt><trkpt lat="45.3592924" lon="10.7350172"><ele>96.5</ele><time>2026-04-08T10:36:10.62Z</time></trkpt><trkpt lat="45.3593757" lon="10.7350327"><ele>96.66666666666667</ele><time>2026-04-08T10:36:11.62Z</time></trkpt><trkpt lat="45.3594603" lon="10.735047"><ele>96.83333333333334</ele><time>2026-04-08T10:36:12.621Z</time></trkpt><trkpt lat="45.3595352" lon="10.73506"><ele>97.0</ele><time>2026-04-08T10:36:13.621Z</time></trkpt><trkpt lat="45.3596046" lon="10.7350689"><ele>97.0</ele><time>2026-04-08T10:36:14.62Z</time></trkpt><trkpt lat="45.3596695" lon="10.7350801"><ele>97.0</ele><time>2026-04-08T10:36:15.621Z</time></trkpt><trkpt lat="45.3597908" lon="10.7350999"><ele>97.0</ele><time>2026-04-08T10:36:17.621Z</time></trkpt><trkpt lat="45.3598965" lon="10.735121"><ele>97.0</ele><time>2026-04-08T10:36:19.621Z</time></trkpt><trkpt lat="45.3599359" lon="10.7352184"><ele>97.0</ele><time>2026-04-08T10:36:21.62Z</time></trkpt><trkpt lat="45.3599247" lon="10.7353619"><ele>96.50000000000001</ele><time>2026-04-08T10:36:23.62Z</time></trkpt><trkpt lat="45.3599139" lon="10.7355274"><ele>96.0</ele><time>2026-04-08T10:36:25.621Z</time></trkpt><trkpt lat="45.3599045" lon="10.7356169"><ele>95.5</ele><time>2026-04-08T10:36:26.621Z</time></trkpt><trkpt lat="45.3599018" lon="10.7357255"><ele>95.0</ele><time>2026-04-08T10:36:27.621Z</time></trkpt><trkpt lat="45.3598943" lon="10.7358475"><ele>94.5</ele><time>2026-04-08T10:36:28.62Z</time></trkpt><trkpt lat="45.3598794" lon="10.7359815"><ele>94.0</ele><time>2026-04-08T10:36:29.62Z</time></trkpt><trkpt lat="45.3598634" lon="10.7361258"><ele>94.0</ele><time>2026-04-08T10:36:30.62Z</time></trkpt><trkpt lat="45.3598513" lon="10.736276"><ele>94.0</ele><time>2026-04-08T10:36:31.62Z</time></trkpt><trkpt lat="45.3598437" lon="10.7364405"><ele>94.0</ele><time>2026-04-08T10:36:32.621Z</time></trkpt><trkpt lat="45.3598327" lon="10.7366068"><ele>94.0</ele><time>2026-04-08T10:36:33.62Z</time></trkpt><trkpt lat="45.3598201" lon="10.7367815"><ele>94.0</ele><time>2026-04-08T10:36:34.62Z</time></trkpt><trkpt lat="45.3598097" lon="10.7369649"><ele>94.0</ele><time>2026-04-08T10:36:35.62Z</time></trkpt><trkpt lat="45.3597944" lon="10.7371451"><ele>94.0</ele><time>2026-04-08T10:36:36.62Z</time></trkpt><trkpt lat="45.3597763" lon="10.7373158"><ele>94.0</ele><time>2026-04-08T10:36:37.621Z</time></trkpt><trkpt lat="45.3597587" lon="10.7374775"><ele>94.0</ele><time>2026-04-08T10:36:38.621Z</time></trkpt><trkpt lat="45.3597494" lon="10.7376314"><ele>94.0</ele><time>2026-04-08T10:36:39.621Z</time></trkpt><trkpt lat="45.3597394" lon="10.7377701"><ele>94.0</ele><time>2026-04-08T10:36:40.62Z</time></trkpt><trkpt lat="45.3597272" lon="10.7378965"><ele>94.0</ele><time>2026-04-08T10:36:41.62Z</time></trkpt><trkpt lat="45.3597101" lon="10.7380189"><ele>94.0</ele><time>2026-04-08T10:36:42.621Z</time></trkpt><trkpt lat="45.3597024" lon="10.7381456"><ele>93.80000000000001</ele><time>2026-04-08T10:36:43.621Z</time></trkpt><trkpt lat="45.3597159" lon="10.7382812"><ele>93.60000000000001</ele><time>2026-04-08T10:36:44.62Z</time></trkpt><trkpt lat="45.3597446" lon="10.7384172"><ele>93.4</ele><time>2026-04-08T10:36:45.62Z</time></trkpt><trkpt lat="45.3597753" lon="10.7385435"><ele>93.2</ele><time>2026-04-08T10:36:46.621Z</time></trkpt><trkpt lat="45.3598005" lon="10.7386638"><ele>93.0</ele><time>2026-04-08T10:36:47.621Z</time></trkpt><trkpt lat="45.3598209" lon="10.7387706"><ele>93.0</ele><time>2026-04-08T10:36:48.57Z</time></trkpt><trkpt lat="45.3598395" lon="10.7388766"><ele>93.0</ele><time>2026-04-08T10:36:49.57Z</time></trkpt><trkpt lat="45.3598494" lon="10.738978"><ele>93.0</ele><time>2026-04-08T10:36:50.57Z</time></trkpt><trkpt lat="45.3598551" lon="10.739071"><ele>93.0</ele><time>2026-04-08T10:36:51.57Z</time></trkpt><trkpt lat="45.3599541" lon="10.7391986"><ele>93.0</ele><time>2026-04-08T10:36:53.57Z</time></trkpt><trkpt lat="45.3600363" lon="10.7392464"><ele>93.0</ele><time>2026-04-08T10:36:54.571Z</time></trkpt><trkpt lat="45.3601318" lon="10.7393059"><ele>93.0</ele><time>2026-04-08T10:36:55.57Z</time></trkpt><trkpt lat="45.3602275" lon="10.7393743"><ele>93.0</ele><time>2026-04-08T10:36:56.57Z</time></trkpt><trkpt lat="45.3603281" lon="10.739445"><ele>93.0</ele><time>2026-04-08T10:36:57.57Z</time></trkpt><trkpt lat="45.3604388" lon="10.739513"><ele>93.0</ele><time>2026-04-08T10:36:58.571Z</time></trkpt><trkpt lat="45.3605529" lon="10.73958"><ele>93.60000000000001</ele><time>2026-04-08T10:36:59.57Z</time></trkpt><trkpt lat="45.3606585" lon="10.7396419"><ele>94.2</ele><time>2026-04-08T10:37:00.57Z</time></trkpt><trkpt lat="45.3607576" lon="10.7397018"><ele>94.8</ele><time>2026-04-08T10:37:01.57Z</time></trkpt><trkpt lat="45.3608462" lon="10.739776"><ele>95.4</ele><time>2026-04-08T10:37:02.57Z</time></trkpt><trkpt lat="45.3609178" lon="10.739888"><ele>96.0</ele><time>2026-04-08T10:37:03.57Z</time></trkpt><trkpt lat="45.3609788" lon="10.7400214"><ele>96.0</ele><time>2026-04-08T10:37:04.571Z</time></trkpt><trkpt lat="45.3610411" lon="10.7401625"><ele>96.0</ele><time>2026-04-08T10:37:05.57Z</time></trkpt><trkpt lat="45.361103" lon="10.7403043"><ele>96.0</ele><time>2026-04-08T10:37:06.57Z</time></trkpt><trkpt lat="45.3611677" lon="10.7404467"><ele>96.0</ele><time>2026-04-08T10:37:07.571Z</time></trkpt><trkpt lat="45.3612337" lon="10.7405974"><ele>96.0</ele><time>2026-04-08T10:37:08.57Z</time></trkpt><trkpt lat="45.3612953" lon="10.7407515"><ele>96.0</ele><time>2026-04-08T10:37:09.571Z</time></trkpt><trkpt lat="45.3613572" lon="10.7409102"><ele>96.0</ele><time>2026-04-08T10:37:10.571Z</time></trkpt><trkpt lat="45.3614215" lon="10.7410743"><ele>96.0</ele><time>2026-04-08T10:37:11.57Z</time></trkpt><trkpt lat="45.3614835" lon="10.7412389"><ele>95.0</ele><time>2026-04-08T10:37:12.571Z</time></trkpt><trkpt lat="45.3615383" lon="10.7414069"><ele>94.0</ele><time>2026-04-08T10:37:13.57Z</time></trkpt><trkpt lat="45.3615904" lon="10.7415787"><ele>93.0</ele><time>2026-04-08T10:37:14.57Z</time></trkpt><trkpt lat="45.3616377" lon="10.7417456"><ele>92.0</ele><time>2026-04-08T10:37:15.57Z</time></trkpt><trkpt lat="45.3616844" lon="10.7419124"><ele>92.0</ele><time>2026-04-08T10:37:16.571Z</time></trkpt><trkpt lat="45.3617326" lon="10.7420908"><ele>92.0</ele><time>2026-04-08T10:37:17.57Z</time></trkpt><trkpt lat="45.3617801" lon="10.7422698"><ele>92.0</ele><time>2026-04-08T10:37:18.57Z</time></trkpt><trkpt lat="45.361832" lon="10.7424525"><ele>92.0</ele><time>2026-04-08T10:37:19.571Z</time></trkpt><trkpt lat="45.3618843" lon="10.7426374"><ele>92.0</ele><time>2026-04-08T10:37:20.571Z</time></trkpt><trkpt lat="45.3619353" lon="10.742826"><ele>92.0</ele><time>2026-04-08T10:37:21.57Z</time></trkpt><trkpt lat="45.3619897" lon="10.7430166"><ele>92.0</ele><time>2026-04-08T10:37:22.572Z</time></trkpt><trkpt lat="45.3620447" lon="10.7432058"><ele>92.0</ele><time>2026-04-08T10:37:23.571Z</time></trkpt><trkpt lat="45.3621028" lon="10.7434042"><ele>91.75</ele><time>2026-04-08T10:37:24.572Z</time></trkpt><trkpt lat="45.3621613" lon="10.7436015"><ele>91.5</ele><time>2026-04-08T10:37:25.572Z</time></trkpt><trkpt lat="45.3622258" lon="10.7437819"><ele>91.25</ele><time>2026-04-08T10:37:26.571Z</time></trkpt><trkpt lat="45.3622892" lon="10.7439739"><ele>91.0</ele><time>2026-04-08T10:37:27.571Z</time></trkpt><trkpt lat="45.3623514" lon="10.7441717"><ele>91.66666666666666</ele><time>2026-04-08T10:37:28.572Z</time></trkpt><trkpt lat="45.3624143" lon="10.7443733"><ele>92.33333333333333</ele><time>2026-04-08T10:37:29.571Z</time></trkpt><trkpt lat="45.3624775" lon="10.7445764"><ele>93.0</ele><time>2026-04-08T10:37:30.572Z</time></trkpt><trkpt lat="45.3625409" lon="10.7447778"><ele>93.0</ele><time>2026-04-08T10:37:31.572Z</time></trkpt><trkpt lat="45.3625992" lon="10.7449799"><ele>93.0</ele><time>2026-04-08T10:37:32.571Z</time></trkpt><trkpt lat="45.3626572" lon="10.7451845"><ele>93.0</ele><time>2026-04-08T10:37:33.571Z</time></trkpt><trkpt lat="45.3627199" lon="10.7454033"><ele>93.0</ele><time>2026-04-08T10:37:34.572Z</time></trkpt><trkpt lat="45.3627865" lon="10.7456186"><ele>93.0</ele><time>2026-04-08T10:37:35.572Z</time></trkpt><trkpt lat="45.3628432" lon="10.7458137"><ele>93.0</ele><time>2026-04-08T10:37:36.572Z</time></trkpt><trkpt lat="45.3629048" lon="10.7460168"><ele>92.66666666666667</ele><time>2026-04-08T10:37:37.571Z</time></trkpt><trkpt lat="45.362973" lon="10.7462175"><ele>92.33333333333334</ele><time>2026-04-08T10:37:38.571Z</time></trkpt><trkpt lat="45.3630489" lon="10.7464129"><ele>92.0</ele><time>2026-04-08T10:37:39.571Z</time></trkpt><trkpt lat="45.3631261" lon="10.7466035"><ele>92.0</ele><time>2026-04-08T10:37:40.571Z</time></trkpt><trkpt lat="45.3632093" lon="10.7467924"><ele>92.0</ele><time>2026-04-08T10:37:41.571Z</time></trkpt><trkpt lat="45.3632956" lon="10.7469794"><ele>92.0</ele><time>2026-04-08T10:37:42.572Z</time></trkpt><trkpt lat="45.3633861" lon="10.7471612"><ele>92.0</ele><time>2026-04-08T10:37:43.571Z</time></trkpt><trkpt lat="45.3634848" lon="10.7473371"><ele>92.0</ele><time>2026-04-08T10:37:44.572Z</time></trkpt><trkpt lat="45.3635837" lon="10.7475116"><ele>92.0</ele><time>2026-04-08T10:37:45.571Z</time></trkpt><trkpt lat="45.3636819" lon="10.7476833"><ele>92.0</ele><time>2026-04-08T10:37:46.572Z</time></trkpt><trkpt lat="45.3637754" lon="10.7478554"><ele>92.0</ele><time>2026-04-08T10:37:47.572Z</time></trkpt><trkpt lat="45.3638624" lon="10.7480379"><ele>92.0</ele><time>2026-04-08T10:37:48.571Z</time></trkpt><trkpt lat="45.3639418" lon="10.7482244"><ele>92.33333333333334</ele><time>2026-04-08T10:37:49.572Z</time></trkpt><trkpt lat="45.3640207" lon="10.748411"><ele>92.66666666666667</ele><time>2026-04-08T10:37:50.572Z</time></trkpt><trkpt lat="45.3640986" lon="10.7485991"><ele>93.0</ele><time>2026-04-08T10:37:51.571Z</time></trkpt><trkpt lat="45.3641765" lon="10.7487853"><ele>93.0</ele><time>2026-04-08T10:37:52.572Z</time></trkpt><trkpt lat="45.3642546" lon="10.7489701"><ele>93.0</ele><time>2026-04-08T10:37:53.571Z</time></trkpt><trkpt lat="45.3643294" lon="10.7491577"><ele>93.0</ele><time>2026-04-08T10:37:54.572Z</time></trkpt><trkpt lat="45.3644032" lon="10.7493436"><ele>93.0</ele><time>2026-04-08T10:37:55.572Z</time></trkpt><trkpt lat="45.3644813" lon="10.7495291"><ele>93.0</ele><time>2026-04-08T10:37:56.571Z</time></trkpt><trkpt lat="45.3645603" lon="10.7497159"><ele>93.0</ele><time>2026-04-08T10:37:57.572Z</time></trkpt><trkpt lat="45.3646391" lon="10.7499038"><ele>94.0</ele><time>2026-04-08T10:37:58.571Z</time></trkpt><trkpt lat="45.3647186" lon="10.750094"><ele>95.0</ele><time>2026-04-08T10:37:59.571Z</time></trkpt><trkpt lat="45.3647978" lon="10.7502808"><ele>96.0</ele><time>2026-04-08T10:38:00.572Z</time></trkpt><trkpt lat="45.3648795" lon="10.7504634"><ele>96.0</ele><time>2026-04-08T10:38:01.571Z</time></trkpt><trkpt lat="45.3649681" lon="10.7506442"><ele>96.0</ele><time>2026-04-08T10:38:02.571Z</time></trkpt><trkpt lat="45.3650569" lon="10.7508232"><ele>96.0</ele><time>2026-04-08T10:38:03.572Z</time></trkpt><trkpt lat="45.3651451" lon="10.7510015"><ele>95.33333333333333</ele><time>2026-04-08T10:38:04.571Z</time></trkpt><trkpt lat="45.3652338" lon="10.7511792"><ele>94.66666666666666</ele><time>2026-04-08T10:38:05.572Z</time></trkpt><trkpt lat="45.3653257" lon="10.7513587"><ele>94.0</ele><time>2026-04-08T10:38:06.571Z</time></trkpt><trkpt lat="45.3654189" lon="10.7515361"><ele>94.0</ele><time>2026-04-08T10:38:07.571Z</time></trkpt><trkpt lat="45.3655118" lon="10.7517123"><ele>94.0</ele><time>2026-04-08T10:38:08.571Z</time></trkpt><trkpt lat="45.3656044" lon="10.751885"><ele>94.0</ele><time>2026-04-08T10:38:09.571Z</time></trkpt><trkpt lat="45.3656942" lon="10.7520623"><ele>94.0</ele><time>2026-04-08T10:38:10.571Z</time></trkpt><trkpt lat="45.3657803" lon="10.7522439"><ele>94.0</ele><time>2026-04-08T10:38:11.571Z</time></trkpt><trkpt lat="45.3658628" lon="10.7524272"><ele>94.0</ele><time>2026-04-08T10:38:12.572Z</time></trkpt><trkpt lat="45.3659444" lon="10.7526142"><ele>94.0</ele><time>2026-04-08T10:38:13.572Z</time></trkpt><trkpt lat="45.3660256" lon="10.7528"><ele>94.0</ele><time>2026-04-08T10:38:14.572Z</time></trkpt><trkpt lat="45.3661064" lon="10.7529852"><ele>94.0</ele><time>2026-04-08T10:38:15.572Z</time></trkpt><trkpt lat="45.3661841" lon="10.753174"><ele>94.0</ele><time>2026-04-08T10:38:16.572Z</time></trkpt><trkpt lat="45.3662582" lon="10.7533678"><ele>94.0</ele><time>2026-04-08T10:38:17.572Z</time></trkpt><trkpt lat="45.3663281" lon="10.7535598"><ele>94.0</ele><time>2026-04-08T10:38:18.573Z</time></trkpt><trkpt lat="45.3663959" lon="10.7537539"><ele>93.66666666666666</ele><time>2026-04-08T10:38:19.572Z</time></trkpt><trkpt lat="45.3664631" lon="10.7539494"><ele>93.33333333333333</ele><time>2026-04-08T10:38:20.573Z</time></trkpt><trkpt lat="45.3665285" lon="10.7541429"><ele>93.0</ele><time>2026-04-08T10:38:21.573Z</time></trkpt><trkpt lat="45.366597" lon="10.7543336"><ele>93.66666666666667</ele><time>2026-04-08T10:38:22.572Z</time></trkpt><trkpt lat="45.366671" lon="10.7545216"><ele>94.33333333333334</ele><time>2026-04-08T10:38:23.572Z</time></trkpt><trkpt lat="45.3667478" lon="10.7547059"><ele>95.0</ele><time>2026-04-08T10:38:24.572Z</time></trkpt><trkpt lat="45.3668289" lon="10.7548858"><ele>95.0</ele><time>2026-04-08T10:38:25.573Z</time></trkpt><trkpt lat="45.3669129" lon="10.7550636"><ele>95.0</ele><time>2026-04-08T10:38:26.573Z</time></trkpt><trkpt lat="45.3669975" lon="10.7552419"><ele>95.0</ele><time>2026-04-08T10:38:27.572Z</time></trkpt><trkpt lat="45.367081" lon="10.7554249"><ele>94.66666666666667</ele><time>2026-04-08T10:38:28.573Z</time></trkpt><trkpt lat="45.3671688" lon="10.7556039"><ele>94.33333333333333</ele><time>2026-04-08T10:38:29.572Z</time></trkpt><trkpt lat="45.3672575" lon="10.7557798"><ele>94.0</ele><time>2026-04-08T10:38:30.572Z</time></trkpt><trkpt lat="45.3673461" lon="10.7559572"><ele>94.33333333333333</ele><time>2026-04-08T10:38:31.573Z</time></trkpt><trkpt lat="45.3674295" lon="10.7561396"><ele>94.66666666666667</ele><time>2026-04-08T10:38:32.572Z</time></trkpt><trkpt lat="45.3675133" lon="10.7563217"><ele>95.0</ele><time>2026-04-08T10:38:33.572Z</time></trkpt><trkpt lat="45.3676035" lon="10.7565003"><ele>95.0</ele><time>2026-04-08T10:38:34.573Z</time></trkpt><trkpt lat="45.3676923" lon="10.7566681"><ele>95.0</ele><time>2026-04-08T10:38:35.573Z</time></trkpt><trkpt lat="45.3677659" lon="10.7568374"><ele>95.0</ele><time>2026-04-08T10:38:36.573Z</time></trkpt><trkpt lat="45.3678212" lon="10.7570134"><ele>95.0</ele><time>2026-04-08T10:38:37.573Z</time></trkpt><trkpt lat="45.3678472" lon="10.7572"><ele>95.25</ele><time>2026-04-08T10:38:38.572Z</time></trkpt><trkpt lat="45.3678614" lon="10.7573949"><ele>95.5</ele><time>2026-04-08T10:38:39.572Z</time></trkpt><trkpt lat="45.367871" lon="10.7576064"><ele>95.75</ele><time>2026-04-08T10:38:40.572Z</time></trkpt><trkpt lat="45.367906" lon="10.7578141"><ele>96.0</ele><time>2026-04-08T10:38:41.572Z</time></trkpt><trkpt lat="45.3679445" lon="10.7580115"><ele>96.25</ele><time>2026-04-08T10:38:42.572Z</time></trkpt><trkpt lat="45.36798" lon="10.7582155"><ele>96.5</ele><time>2026-04-08T10:38:43.572Z</time></trkpt><trkpt lat="45.3680185" lon="10.7584233"><ele>96.75</ele><time>2026-04-08T10:38:44.572Z</time></trkpt><trkpt lat="45.3680516" lon="10.7586282"><ele>97.0</ele><time>2026-04-08T10:38:45.572Z</time></trkpt><trkpt lat="45.368089" lon="10.75884"><ele>97.0</ele><time>2026-04-08T10:38:46.572Z</time></trkpt><trkpt lat="45.368127" lon="10.7590522"><ele>97.0</ele><time>2026-04-08T10:38:47.573Z</time></trkpt><trkpt lat="45.3681564" lon="10.7592644"><ele>97.0</ele><time>2026-04-08T10:38:48.573Z</time></trkpt><trkpt lat="45.3681847" lon="10.7594761"><ele>97.0</ele><time>2026-04-08T10:38:49.573Z</time></trkpt><trkpt lat="45.3682232" lon="10.7596881"><ele>97.0</ele><time>2026-04-08T10:38:50.573Z</time></trkpt><trkpt lat="45.3682598" lon="10.7598985"><ele>97.0</ele><time>2026-04-08T10:38:51.572Z</time></trkpt><trkpt lat="45.3682893" lon="10.7601098"><ele>97.5</ele><time>2026-04-08T10:38:52.573Z</time></trkpt><trkpt lat="45.3683205" lon="10.760306"><ele>98.0</ele><time>2026-04-08T10:38:53.572Z</time></trkpt><trkpt lat="45.3683565" lon="10.7604936"><ele>98.5</ele><time>2026-04-08T10:38:54.572Z</time></trkpt><trkpt lat="45.3683993" lon="10.7606642"><ele>99.0</ele><time>2026-04-08T10:38:55.573Z</time></trkpt><trkpt lat="45.3684386" lon="10.7608123"><ele>99.0</ele><time>2026-04-08T10:38:56.572Z</time></trkpt><trkpt lat="45.3684754" lon="10.760943"><ele>99.0</ele><time>2026-04-08T10:38:57.572Z</time></trkpt><trkpt lat="45.3685121" lon="10.7610552"><ele>99.0</ele><time>2026-04-08T10:38:58.573Z</time></trkpt><trkpt lat="45.3685525" lon="10.761161"><ele>99.0</ele><time>2026-04-08T10:38:59.573Z</time></trkpt><trkpt lat="45.3685864" lon="10.7612794"><ele>99.0</ele><time>2026-04-08T10:39:00.572Z</time></trkpt><trkpt lat="45.3686277" lon="10.7614113"><ele>98.5</ele><time>2026-04-08T10:39:01.573Z</time></trkpt><trkpt lat="45.3686743" lon="10.7615522"><ele>98.0</ele><time>2026-04-08T10:39:02.573Z</time></trkpt><trkpt lat="45.3687269" lon="10.7617023"><ele>97.5</ele><time>2026-04-08T10:39:03.574Z</time></trkpt><trkpt lat="45.36878" lon="10.76187"><ele>97.0</ele><time>2026-04-08T10:39:04.574Z</time></trkpt><trkpt lat="45.3688315" lon="10.7620379"><ele>96.75</ele><time>2026-04-08T10:39:05.573Z</time></trkpt><trkpt lat="45.3688835" lon="10.7622113"><ele>96.5</ele><time>2026-04-08T10:39:06.573Z</time></trkpt><trkpt lat="45.3689398" lon="10.7623921"><ele>96.25</ele><time>2026-04-08T10:39:07.573Z</time></trkpt><trkpt lat="45.3689922" lon="10.7625809"><ele>96.0</ele><time>2026-04-08T10:39:08.574Z</time></trkpt><trkpt lat="45.3690433" lon="10.7627716"><ele>96.0</ele><time>2026-04-08T10:39:09.574Z</time></trkpt><trkpt lat="45.3690977" lon="10.7629714"><ele>96.0</ele><time>2026-04-08T10:39:10.574Z</time></trkpt><trkpt lat="45.3691515" lon="10.7631669"><ele>96.0</ele><time>2026-04-08T10:39:11.574Z</time></trkpt><trkpt lat="45.3692028" lon="10.7633551"><ele>96.0</ele><time>2026-04-08T10:39:12.574Z</time></trkpt><trkpt lat="45.3692444" lon="10.7635485"><ele>96.25</ele><time>2026-04-08T10:39:13.574Z</time></trkpt><trkpt lat="45.3692623" lon="10.7637492"><ele>96.5</ele><time>2026-04-08T10:39:14.573Z</time></trkpt><trkpt lat="45.369259" lon="10.7639553"><ele>96.75</ele><time>2026-04-08T10:39:15.573Z</time></trkpt><trkpt lat="45.3692461" lon="10.7641647"><ele>97.0</ele><time>2026-04-08T10:39:16.573Z</time></trkpt><trkpt lat="45.369231" lon="10.7643754"><ele>97.0</ele><time>2026-04-08T10:39:17.574Z</time></trkpt><trkpt lat="45.3692199" lon="10.7645856"><ele>97.0</ele><time>2026-04-08T10:39:18.574Z</time></trkpt><trkpt lat="45.3692176" lon="10.7647872"><ele>97.0</ele><time>2026-04-08T10:39:19.573Z</time></trkpt><trkpt lat="45.3692281" lon="10.7649765"><ele>97.0</ele><time>2026-04-08T10:39:20.574Z</time></trkpt><trkpt lat="45.36925" lon="10.7651647"><ele>97.0</ele><time>2026-04-08T10:39:21.573Z</time></trkpt><trkpt lat="45.3692865" lon="10.7653506"><ele>97.0</ele><time>2026-04-08T10:39:22.574Z</time></trkpt><trkpt lat="45.3693339" lon="10.7655343"><ele>97.0</ele><time>2026-04-08T10:39:23.573Z</time></trkpt><trkpt lat="45.3693834" lon="10.7657226"><ele>97.0</ele><time>2026-04-08T10:39:24.574Z</time></trkpt><trkpt lat="45.3694311" lon="10.7659136"><ele>97.25</ele><time>2026-04-08T10:39:25.573Z</time></trkpt><trkpt lat="45.3694787" lon="10.766108"><ele>97.5</ele><time>2026-04-08T10:39:26.573Z</time></trkpt><trkpt lat="45.3695322" lon="10.7663051"><ele>97.75</ele><time>2026-04-08T10:39:27.574Z</time></trkpt><trkpt lat="45.3695858" lon="10.7664993"><ele>98.0</ele><time>2026-04-08T10:39:28.574Z</time></trkpt><trkpt lat="45.3696323" lon="10.7666802"><ele>98.0</ele><time>2026-04-08T10:39:29.573Z</time></trkpt><trkpt lat="45.3696714" lon="10.7668435"><ele>98.0</ele><time>2026-04-08T10:39:30.574Z</time></trkpt><trkpt lat="45.369708" lon="10.7669955"><ele>98.0</ele><time>2026-04-08T10:39:31.573Z</time></trkpt><trkpt lat="45.3697468" lon="10.7671341"><ele>98.0</ele><time>2026-04-08T10:39:32.573Z</time></trkpt><trkpt lat="45.3697889" lon="10.7672631"><ele>98.0</ele><time>2026-04-08T10:39:33.573Z</time></trkpt><trkpt lat="45.3698365" lon="10.7673785"><ele>98.99999999999999</ele><time>2026-04-08T10:39:34.573Z</time></trkpt><trkpt lat="45.3698888" lon="10.7674713"><ele>100.0</ele><time>2026-04-08T10:39:35.573Z</time></trkpt><trkpt lat="45.3699436" lon="10.767558"><ele>101.0</ele><time>2026-04-08T10:39:36.573Z</time></trkpt><trkpt lat="45.370004" lon="10.767647"><ele>102.0</ele><time>2026-04-08T10:39:37.573Z</time></trkpt><trkpt lat="45.3700626" lon="10.7677371"><ele>102.99999999999999</ele><time>2026-04-08T10:39:38.573Z</time></trkpt><trkpt lat="45.3701185" lon="10.767828"><ele>104.0</ele><time>2026-04-08T10:39:39.573Z</time></trkpt><trkpt lat="45.3701666" lon="10.7679205"><ele>103.99999999999999</ele><time>2026-04-08T10:39:40.573Z</time></trkpt><trkpt lat="45.3702088" lon="10.7680005"><ele>104.0</ele><time>2026-04-08T10:39:41.574Z</time></trkpt><trkpt lat="45.3702732" lon="10.7681356"><ele>104.0</ele><time>2026-04-08T10:39:43.574Z</time></trkpt><trkpt lat="45.3703056" lon="10.7682255"><ele>104.0</ele><time>2026-04-08T10:39:45.573Z</time></trkpt><trkpt lat="45.3703689" lon="10.7682152"><ele>103.99999999999999</ele><time>2026-04-08T10:39:49.574Z</time></trkpt><trkpt lat="45.3702991" lon="10.7681178"><ele>104.0</ele><time>2026-04-08T10:39:52.574Z</time></trkpt><trkpt lat="45.3702065" lon="10.7680023"><ele>104.0</ele><time>2026-04-08T10:39:54.575Z</time></trkpt><trkpt lat="45.3701547" lon="10.7679155"><ele>104.0</ele><time>2026-04-08T10:39:55.574Z</time></trkpt><trkpt lat="45.3700948" lon="10.7678252"><ele>104.0</ele><time>2026-04-08T10:39:56.574Z</time></trkpt><trkpt lat="45.3700233" lon="10.7677252"><ele>104.0</ele><time>2026-04-08T10:39:57.574Z</time></trkpt><trkpt lat="45.3699524" lon="10.767609"><ele>104.0</ele><time>2026-04-08T10:39:58.574Z</time></trkpt><trkpt lat="45.3698868" lon="10.7674785"><ele>104.5</ele><time>2026-04-08T10:39:59.574Z</time></trkpt><trkpt lat="45.3698323" lon="10.7673538"><ele>105.0</ele><time>2026-04-08T10:40:00.574Z</time></trkpt><trkpt lat="45.3697731" lon="10.7672186"><ele>105.5</ele><time>2026-04-08T10:40:01.574Z</time></trkpt><trkpt lat="45.3697222" lon="10.7670713"><ele>106.0</ele><time>2026-04-08T10:40:02.574Z</time></trkpt><trkpt lat="45.3696798" lon="10.7669046"><ele>104.0</ele><time>2026-04-08T10:40:03.575Z</time></trkpt><trkpt lat="45.369643" lon="10.7667358"><ele>102.0</ele><time>2026-04-08T10:40:04.574Z</time></trkpt><trkpt lat="45.3696056" lon="10.7665768"><ele>100.0</ele><time>2026-04-08T10:40:05.574Z</time></trkpt><trkpt lat="45.3695696" lon="10.7664334"><ele>98.0</ele><time>2026-04-08T10:40:06.575Z</time></trkpt><trkpt lat="45.3695297" lon="10.766293"><ele>98.0</ele><time>2026-04-08T10:40:07.574Z</time></trkpt><trkpt lat="45.3694939" lon="10.766167"><ele>98.0</ele><time>2026-04-08T10:40:08.574Z</time></trkpt><trkpt lat="45.3694592" lon="10.7660447"><ele>98.0</ele><time>2026-04-08T10:40:09.575Z</time></trkpt><trkpt lat="45.3694252" lon="10.7659256"><ele>98.0</ele><time>2026-04-08T10:40:10.574Z</time></trkpt><trkpt lat="45.3693945" lon="10.7658094"><ele>98.0</ele><time>2026-04-08T10:40:11.575Z</time></trkpt><trkpt lat="45.3693682" lon="10.7656945"><ele>97.83333333333333</ele><time>2026-04-08T10:40:12.575Z</time></trkpt><trkpt lat="45.3693449" lon="10.765588"><ele>97.66666666666666</ele><time>2026-04-08T10:40:13.575Z</time></trkpt><trkpt lat="45.3693233" lon="10.7654826"><ele>97.5</ele><time>2026-04-08T10:40:14.574Z</time></trkpt><trkpt lat="45.3693062" lon="10.7653848"><ele>97.33333333333334</ele><time>2026-04-08T10:40:15.575Z</time></trkpt><trkpt lat="45.369274" lon="10.7652569"><ele>97.16666666666667</ele><time>2026-04-08T10:40:17.574Z</time></trkpt><trkpt lat="45.3692036" lon="10.7652465"><ele>97.0</ele><time>2026-04-08T10:40:21.574Z</time></trkpt><trkpt lat="45.3691706" lon="10.7653574"><ele>97.00000000000001</ele><time>2026-04-08T10:40:23.574Z</time></trkpt><trkpt lat="45.36915" lon="10.7654449"><ele>97.0</ele><time>2026-04-08T10:40:24.574Z</time></trkpt><trkpt lat="45.3691182" lon="10.7655397"><ele>97.0</ele><time>2026-04-08T10:40:25.574Z</time></trkpt><trkpt lat="45.3690799" lon="10.7656415"><ele>97.0</ele><time>2026-04-08T10:40:26.574Z</time></trkpt><trkpt lat="45.36904" lon="10.7657454"><ele>97.00000000000001</ele><time>2026-04-08T10:40:27.575Z</time></trkpt><trkpt lat="45.368996" lon="10.765853"><ele>97.0</ele><time>2026-04-08T10:40:28.574Z</time></trkpt><trkpt lat="45.368948" lon="10.765965"><ele>97.16666666666667</ele><time>2026-04-08T10:40:29.574Z</time></trkpt><trkpt lat="45.368905" lon="10.7660755"><ele>97.33333333333334</ele><time>2026-04-08T10:40:30.575Z</time></trkpt><trkpt lat="45.3688685" lon="10.7661831"><ele>97.5</ele><time>2026-04-08T10:40:31.574Z</time></trkpt><trkpt lat="45.3688325" lon="10.766291"><ele>97.66666666666666</ele><time>2026-04-08T10:40:32.574Z</time></trkpt><trkpt lat="45.3687964" lon="10.7664089"><ele>97.83333333333333</ele><time>2026-04-08T10:40:33.574Z</time></trkpt><trkpt lat="45.3687572" lon="10.7665312"><ele>98.0</ele><time>2026-04-08T10:40:34.575Z</time></trkpt><trkpt lat="45.368718" lon="10.7666602"><ele>97.0</ele><time>2026-04-08T10:40:35.575Z</time></trkpt><trkpt lat="45.3686797" lon="10.7667894"><ele>96.0</ele><time>2026-04-08T10:40:36.574Z</time></trkpt><trkpt lat="45.368646" lon="10.7669124"><ele>95.0</ele><time>2026-04-08T10:40:37.574Z</time></trkpt><trkpt lat="45.3686131" lon="10.7670261"><ele>94.0</ele><time>2026-04-08T10:40:38.576Z</time></trkpt><trkpt lat="45.3685807" lon="10.7671433"><ele>93.0</ele><time>2026-04-08T10:40:39.575Z</time></trkpt><trkpt lat="45.3685509" lon="10.7672588"><ele>93.0</ele><time>2026-04-08T10:40:40.575Z</time></trkpt><trkpt lat="45.368524" lon="10.7673788"><ele>93.0</ele><time>2026-04-08T10:40:41.576Z</time></trkpt><trkpt lat="45.3684976" lon="10.7674976"><ele>93.0</ele><time>2026-04-08T10:40:42.576Z</time></trkpt><trkpt lat="45.3684737" lon="10.7676136"><ele>93.0</ele><time>2026-04-08T10:40:43.575Z</time></trkpt><trkpt lat="45.3684486" lon="10.7677283"><ele>93.0</ele><time>2026-04-08T10:40:44.575Z</time></trkpt><trkpt lat="45.3684271" lon="10.7678431"><ele>93.0</ele><time>2026-04-08T10:40:45.576Z</time></trkpt><trkpt lat="45.3684058" lon="10.7679571"><ele>93.0</ele><time>2026-04-08T10:40:46.576Z</time></trkpt><trkpt lat="45.3683894" lon="10.7680794"><ele>93.0</ele><time>2026-04-08T10:40:47.575Z</time></trkpt><trkpt lat="45.3683717" lon="10.7681971"><ele>93.0</ele><time>2026-04-08T10:40:48.576Z</time></trkpt><trkpt lat="45.3683603" lon="10.7683175"><ele>93.0</ele><time>2026-04-08T10:40:49.576Z</time></trkpt><trkpt lat="45.3683465" lon="10.7684418"><ele>93.0</ele><time>2026-04-08T10:40:50.575Z</time></trkpt><trkpt lat="45.3683347" lon="10.768571"><ele>93.0</ele><time>2026-04-08T10:40:51.576Z</time></trkpt><trkpt lat="45.3683266" lon="10.7687046"><ele>93.2</ele><time>2026-04-08T10:40:52.575Z</time></trkpt><trkpt lat="45.3683172" lon="10.7688379"><ele>93.4</ele><time>2026-04-08T10:40:53.575Z</time></trkpt><trkpt lat="45.3683088" lon="10.7689745"><ele>93.60000000000001</ele><time>2026-04-08T10:40:54.575Z</time></trkpt><trkpt lat="45.3682973" lon="10.7691067"><ele>93.80000000000001</ele><time>2026-04-08T10:40:55.576Z</time></trkpt><trkpt lat="45.3682865" lon="10.7692475"><ele>94.0</ele><time>2026-04-08T10:40:56.575Z</time></trkpt><trkpt lat="45.3682799" lon="10.769385"><ele>94.2</ele><time>2026-04-08T10:40:57.575Z</time></trkpt><trkpt lat="45.3682763" lon="10.7695245"><ele>94.4</ele><time>2026-04-08T10:40:58.576Z</time></trkpt><trkpt lat="45.3682766" lon="10.769668"><ele>94.6</ele><time>2026-04-08T10:40:59.575Z</time></trkpt><trkpt lat="45.3682829" lon="10.769816"><ele>94.8</ele><time>2026-04-08T10:41:00.575Z</time></trkpt><trkpt lat="45.3682902" lon="10.7699573"><ele>95.0</ele><time>2026-04-08T10:41:01.576Z</time></trkpt><trkpt lat="45.3682969" lon="10.7701048"><ele>95.0</ele><time>2026-04-08T10:41:02.575Z</time></trkpt><trkpt lat="45.3682947" lon="10.7702476"><ele>95.0</ele><time>2026-04-08T10:41:03.575Z</time></trkpt><trkpt lat="45.3682889" lon="10.770391"><ele>95.0</ele><time>2026-04-08T10:41:04.575Z</time></trkpt><trkpt lat="45.3682772" lon="10.7705313"><ele>95.0</ele><time>2026-04-08T10:41:05.575Z</time></trkpt><trkpt lat="45.3682615" lon="10.7706752"><ele>95.0</ele><time>2026-04-08T10:41:06.575Z</time></trkpt><trkpt lat="45.3682425" lon="10.7708156"><ele>95.0</ele><time>2026-04-08T10:41:07.575Z</time></trkpt><trkpt lat="45.3682238" lon="10.7709565"><ele>95.0</ele><time>2026-04-08T10:41:08.575Z</time></trkpt><trkpt lat="45.3682035" lon="10.7710966"><ele>95.0</ele><time>2026-04-08T10:41:09.575Z</time></trkpt><trkpt lat="45.3681816" lon="10.7712249"><ele>95.0</ele><time>2026-04-08T10:41:10.576Z</time></trkpt><trkpt lat="45.3681565" lon="10.7713442"><ele>95.0</ele><time>2026-04-08T10:41:11.576Z</time></trkpt><trkpt lat="45.3681206" lon="10.7714682"><ele>95.4</ele><time>2026-04-08T10:41:12.576Z</time></trkpt><trkpt lat="45.3680779" lon="10.7715946"><ele>95.8</ele><time>2026-04-08T10:41:13.576Z</time></trkpt><trkpt lat="45.3680355" lon="10.7717255"><ele>96.19999999999999</ele><time>2026-04-08T10:41:14.575Z</time></trkpt><trkpt lat="45.3679971" lon="10.7718566"><ele>96.6</ele><time>2026-04-08T10:41:15.575Z</time></trkpt><trkpt lat="45.3679642" lon="10.7719838"><ele>97.0</ele><time>2026-04-08T10:41:16.576Z</time></trkpt><trkpt lat="45.3679369" lon="10.7721129"><ele>96.0</ele><time>2026-04-08T10:41:17.628Z</time></trkpt><trkpt lat="45.3679043" lon="10.7722485"><ele>95.0</ele><time>2026-04-08T10:41:18.629Z</time></trkpt><trkpt lat="45.3678763" lon="10.7723874"><ele>94.0</ele><time>2026-04-08T10:41:19.629Z</time></trkpt><trkpt lat="45.3678518" lon="10.7725328"><ele>93.0</ele><time>2026-04-08T10:41:20.628Z</time></trkpt><trkpt lat="45.3678291" lon="10.7726819"><ele>92.0</ele><time>2026-04-08T10:41:21.629Z</time></trkpt><trkpt lat="45.3678092" lon="10.7728336"><ele>91.8</ele><time>2026-04-08T10:41:22.628Z</time></trkpt><trkpt lat="45.3677896" lon="10.7729857"><ele>91.6</ele><time>2026-04-08T10:41:23.628Z</time></trkpt><trkpt lat="45.367773" lon="10.7731202"><ele>91.39999999999999</ele><time>2026-04-08T10:41:24.628Z</time></trkpt><trkpt lat="45.3677586" lon="10.7732493"><ele>91.19999999999999</ele><time>2026-04-08T10:41:25.628Z</time></trkpt><trkpt lat="45.3677415" lon="10.7733786"><ele>91.0</ele><time>2026-04-08T10:41:26.628Z</time></trkpt><trkpt lat="45.3677241" lon="10.7735107"><ele>91.75</ele><time>2026-04-08T10:41:27.628Z</time></trkpt><trkpt lat="45.3677062" lon="10.7736547"><ele>92.5</ele><time>2026-04-08T10:41:28.628Z</time></trkpt><trkpt lat="45.3676886" lon="10.7738119"><ele>93.25</ele><time>2026-04-08T10:41:29.629Z</time></trkpt><trkpt lat="45.3676729" lon="10.7739776"><ele>94.0</ele><time>2026-04-08T10:41:30.629Z</time></trkpt><trkpt lat="45.3676516" lon="10.7741451"><ele>94.0</ele><time>2026-04-08T10:41:31.628Z</time></trkpt><trkpt lat="45.3676345" lon="10.7743163"><ele>94.0</ele><time>2026-04-08T10:41:32.628Z</time></trkpt><trkpt lat="45.367616" lon="10.7744809"><ele>94.0</ele><time>2026-04-08T10:41:33.629Z</time></trkpt><trkpt lat="45.3675992" lon="10.7746326"><ele>94.0</ele><time>2026-04-08T10:41:34.628Z</time></trkpt><trkpt lat="45.3675812" lon="10.7747786"><ele>94.0</ele><time>2026-04-08T10:41:35.628Z</time></trkpt><trkpt lat="45.367566" lon="10.7749205"><ele>94.0</ele><time>2026-04-08T10:41:36.629Z</time></trkpt><trkpt lat="45.3675512" lon="10.7750564"><ele>94.0</ele><time>2026-04-08T10:41:37.628Z</time></trkpt><trkpt lat="45.3675371" lon="10.775194"><ele>94.0</ele><time>2026-04-08T10:41:38.628Z</time></trkpt><trkpt lat="45.3675224" lon="10.7753345"><ele>94.0</ele><time>2026-04-08T10:41:39.629Z</time></trkpt><trkpt lat="45.3675078" lon="10.7754797"><ele>94.0</ele><time>2026-04-08T10:41:40.628Z</time></trkpt><trkpt lat="45.3674928" lon="10.7756278"><ele>94.0</ele><time>2026-04-08T10:41:41.628Z</time></trkpt><trkpt lat="45.3674747" lon="10.7757835"><ele>94.0</ele><time>2026-04-08T10:41:42.629Z</time></trkpt><trkpt lat="45.3674663" lon="10.7759427"><ele>94.0</ele><time>2026-04-08T10:41:43.628Z</time></trkpt><trkpt lat="45.3674538" lon="10.7760968"><ele>94.0</ele><time>2026-04-08T10:41:44.629Z</time></trkpt><trkpt lat="45.3674437" lon="10.7762325"><ele>94.16666666666666</ele><time>2026-04-08T10:41:45.629Z</time></trkpt><trkpt lat="45.3674335" lon="10.7763473"><ele>94.33333333333333</ele><time>2026-04-08T10:41:46.629Z</time></trkpt><trkpt lat="45.3674243" lon="10.776454"><ele>94.5</ele><time>2026-04-08T10:41:47.629Z</time></trkpt><trkpt lat="45.3674152" lon="10.7765642"><ele>94.66666666666667</ele><time>2026-04-08T10:41:48.628Z</time></trkpt><trkpt lat="45.3674107" lon="10.7766743"><ele>94.83333333333334</ele><time>2026-04-08T10:41:49.628Z</time></trkpt><trkpt lat="45.367408" lon="10.7767871"><ele>95.0</ele><time>2026-04-08T10:41:50.629Z</time></trkpt><trkpt lat="45.3674077" lon="10.7769079"><ele>94.66666666666667</ele><time>2026-04-08T10:41:51.628Z</time></trkpt><trkpt lat="45.3674122" lon="10.7770276"><ele>94.33333333333334</ele><time>2026-04-08T10:41:52.628Z</time></trkpt><trkpt lat="45.367417" lon="10.7771533"><ele>94.0</ele><time>2026-04-08T10:41:53.629Z</time></trkpt><trkpt lat="45.3674236" lon="10.7772806"><ele>93.66666666666667</ele><time>2026-04-08T10:41:54.628Z</time></trkpt><trkpt lat="45.3674322" lon="10.7774099"><ele>93.33333333333333</ele><time>2026-04-08T10:41:55.629Z</time></trkpt><trkpt lat="45.3674449" lon="10.7775342"><ele>93.0</ele><time>2026-04-08T10:41:56.628Z</time></trkpt><trkpt lat="45.3674598" lon="10.7776518"><ele>92.57142857142858</ele><time>2026-04-08T10:41:57.629Z</time></trkpt><trkpt lat="45.3674771" lon="10.7777499"><ele>92.14285714285714</ele><time>2026-04-08T10:41:58.629Z</time></trkpt><trkpt lat="45.3674923" lon="10.7778489"><ele>91.71428571428572</ele><time>2026-04-08T10:41:59.628Z</time></trkpt><trkpt lat="45.367504" lon="10.7779579"><ele>91.28571428571429</ele><time>2026-04-08T10:42:00.628Z</time></trkpt><trkpt lat="45.3675139" lon="10.7780636"><ele>90.85714285714286</ele><time>2026-04-08T10:42:01.628Z</time></trkpt><trkpt lat="45.3675203" lon="10.7781666"><ele>90.42857142857143</ele><time>2026-04-08T10:42:02.629Z</time></trkpt><trkpt lat="45.3675167" lon="10.7782714"><ele>90.0</ele><time>2026-04-08T10:42:03.629Z</time></trkpt><trkpt lat="45.3675047" lon="10.7783788"><ele>90.0</ele><time>2026-04-08T10:42:04.628Z</time></trkpt><trkpt lat="45.3674917" lon="10.7784813"><ele>90.0</ele><time>2026-04-08T10:42:05.628Z</time></trkpt><trkpt lat="45.3674768" lon="10.7785831"><ele>90.0</ele><time>2026-04-08T10:42:06.628Z</time></trkpt><trkpt lat="45.3674479" lon="10.7786971"><ele>90.0</ele><time>2026-04-08T10:42:07.629Z</time></trkpt><trkpt lat="45.3674177" lon="10.7788186"><ele>90.0</ele><time>2026-04-08T10:42:08.628Z</time></trkpt><trkpt lat="45.3673893" lon="10.7789415"><ele>90.0</ele><time>2026-04-08T10:42:09.629Z</time></trkpt><trkpt lat="45.36736" lon="10.7790598"><ele>89.66666666666667</ele><time>2026-04-08T10:42:10.628Z</time></trkpt><trkpt lat="45.3673276" lon="10.7791665"><ele>89.33333333333333</ele><time>2026-04-08T10:42:11.628Z</time></trkpt><trkpt lat="45.3673017" lon="10.7792667"><ele>89.0</ele><time>2026-04-08T10:42:12.629Z</time></trkpt><trkpt lat="45.3672774" lon="10.7793556"><ele>88.66666666666666</ele><time>2026-04-08T10:42:13.629Z</time></trkpt><trkpt lat="45.3672618" lon="10.7794707"><ele>88.33333333333333</ele><time>2026-04-08T10:42:15.629Z</time></trkpt><trkpt lat="45.3672994" lon="10.7795943"><ele>88.0</ele><time>2026-04-08T10:42:17.628Z</time></trkpt><trkpt lat="45.367393" lon="10.7796496"><ele>87.80000000000001</ele><time>2026-04-08T10:42:19.629Z</time></trkpt><trkpt lat="45.3675232" lon="10.7796757"><ele>87.6</ele><time>2026-04-08T10:42:21.628Z</time></trkpt><trkpt lat="45.3675993" lon="10.7796964"><ele>87.4</ele><time>2026-04-08T10:42:22.629Z</time></trkpt><trkpt lat="45.3676851" lon="10.7797323"><ele>87.19999999999999</ele><time>2026-04-08T10:42:23.628Z</time></trkpt><trkpt lat="45.3677766" lon="10.7797684"><ele>87.0</ele><time>2026-04-08T10:42:24.628Z</time></trkpt><trkpt lat="45.3678728" lon="10.779805"><ele>87.0</ele><time>2026-04-08T10:42:25.628Z</time></trkpt><trkpt lat="45.3679674" lon="10.779843"><ele>87.0</ele><time>2026-04-08T10:42:26.628Z</time></trkpt><trkpt lat="45.3680612" lon="10.7798849"><ele>87.0</ele><time>2026-04-08T10:42:27.629Z</time></trkpt><trkpt lat="45.3681545" lon="10.7799226"><ele>87.0</ele><time>2026-04-08T10:42:28.629Z</time></trkpt><trkpt lat="45.3682423" lon="10.7799564"><ele>87.0</ele><time>2026-04-08T10:42:29.629Z</time></trkpt><trkpt lat="45.3683254" lon="10.7799859"><ele>87.8</ele><time>2026-04-08T10:42:30.629Z</time></trkpt><trkpt lat="45.3684154" lon="10.7800244"><ele>88.6</ele><time>2026-04-08T10:42:31.629Z</time></trkpt><trkpt lat="45.3685111" lon="10.7800564"><ele>89.39999999999999</ele><time>2026-04-08T10:42:32.628Z</time></trkpt><trkpt lat="45.3686074" lon="10.7800929"><ele>90.19999999999999</ele><time>2026-04-08T10:42:33.629Z</time></trkpt><trkpt lat="45.3686977" lon="10.7801228"><ele>91.0</ele><time>2026-04-08T10:42:34.628Z</time></trkpt><trkpt lat="45.3687849" lon="10.7801522"><ele>91.16666666666666</ele><time>2026-04-08T10:42:35.628Z</time></trkpt><trkpt lat="45.3688703" lon="10.7801848"><ele>91.33333333333333</ele><time>2026-04-08T10:42:36.629Z</time></trkpt><trkpt lat="45.3689579" lon="10.7802195"><ele>91.5</ele><time>2026-04-08T10:42:37.628Z</time></trkpt><trkpt lat="45.3690425" lon="10.7802546"><ele>91.66666666666667</ele><time>2026-04-08T10:42:38.628Z</time></trkpt><trkpt lat="45.3691266" lon="10.7802856"><ele>91.83333333333334</ele><time>2026-04-08T10:42:39.629Z</time></trkpt><trkpt lat="45.3692099" lon="10.7803214"><ele>92.0</ele><time>2026-04-08T10:42:40.628Z</time></trkpt><trkpt lat="45.3692932" lon="10.78036"><ele>92.0</ele><time>2026-04-08T10:42:41.629Z</time></trkpt><trkpt lat="45.3693763" lon="10.7803947"><ele>92.0</ele><time>2026-04-08T10:42:42.628Z</time></trkpt><trkpt lat="45.3694514" lon="10.780424"><ele>92.0</ele><time>2026-04-08T10:42:43.628Z</time></trkpt><trkpt lat="45.3695222" lon="10.7804558"><ele>92.0</ele><time>2026-04-08T10:42:44.628Z</time></trkpt><trkpt lat="45.3695934" lon="10.7804928"><ele>92.0</ele><time>2026-04-08T10:42:45.629Z</time></trkpt><trkpt lat="45.3696658" lon="10.7805336"><ele>92.0</ele><time>2026-04-08T10:42:46.629Z</time></trkpt><trkpt lat="45.3697314" lon="10.7805684"><ele>92.57142857142857</ele><time>2026-04-08T10:42:47.628Z</time></trkpt><trkpt lat="45.3697961" lon="10.7806069"><ele>93.14285714285714</ele><time>2026-04-08T10:42:48.629Z</time></trkpt><trkpt lat="45.3698597" lon="10.7806507"><ele>93.71428571428571</ele><time>2026-04-08T10:42:49.629Z</time></trkpt><trkpt lat="45.3699224" lon="10.7806947"><ele>94.28571428571428</ele><time>2026-04-08T10:42:50.628Z</time></trkpt><trkpt lat="45.369984" lon="10.7807513"><ele>94.85714285714286</ele><time>2026-04-08T10:42:51.629Z</time></trkpt><trkpt lat="45.3700364" lon="10.7808135"><ele>95.42857142857142</ele><time>2026-04-08T10:42:52.629Z</time></trkpt><trkpt lat="45.3700853" lon="10.7808772"><ele>96.0</ele><time>2026-04-08T10:42:53.628Z</time></trkpt><trkpt lat="45.3701297" lon="10.7809531"><ele>95.33333333333333</ele><time>2026-04-08T10:42:54.629Z</time></trkpt><trkpt lat="45.3701691" lon="10.7810394"><ele>94.66666666666667</ele><time>2026-04-08T10:42:55.628Z</time></trkpt><trkpt lat="45.3702116" lon="10.7811265"><ele>94.0</ele><time>2026-04-08T10:42:56.629Z</time></trkpt><trkpt lat="45.3702648" lon="10.7811924"><ele>93.33333333333334</ele><time>2026-04-08T10:42:57.629Z</time></trkpt><trkpt lat="45.3703209" lon="10.781239"><ele>92.66666666666667</ele><time>2026-04-08T10:42:58.629Z</time></trkpt><trkpt lat="45.3704338" lon="10.7812962"><ele>92.0</ele><time>2026-04-08T10:43:00.629Z</time></trkpt><trkpt lat="45.3705344" lon="10.7813301"><ele>91.6</ele><time>2026-04-08T10:43:02.629Z</time></trkpt><trkpt lat="45.3706211" lon="10.7813651"><ele>91.19999999999999</ele><time>2026-04-08T10:43:04.628Z</time></trkpt><trkpt lat="45.3706965" lon="10.7813937"><ele>90.8</ele><time>2026-04-08T10:43:06.629Z</time></trkpt><trkpt lat="45.3707896" lon="10.7814307"><ele>90.4</ele><time>2026-04-08T10:43:08.629Z</time></trkpt><trkpt lat="45.3708819" lon="10.7814718"><ele>90.0</ele><time>2026-04-08T10:43:10.628Z</time></trkpt><trkpt lat="45.3709893" lon="10.7815349"><ele>90.0</ele><time>2026-04-08T10:43:12.628Z</time></trkpt><trkpt lat="45.3710975" lon="10.7816135"><ele>90.0</ele><time>2026-04-08T10:43:14.628Z</time></trkpt><trkpt lat="45.3711854" lon="10.7816995"><ele>90.0</ele><time>2026-04-08T10:43:16.628Z</time></trkpt><trkpt lat="45.3712492" lon="10.7817904"><ele>90.0</ele><time>2026-04-08T10:43:18.629Z</time></trkpt><trkpt lat="45.3713287" lon="10.7819089"><ele>90.0</ele><time>2026-04-08T10:43:20.628Z</time></trkpt><trkpt lat="45.3713937" lon="10.7819699"><ele>89.5</ele><time>2026-04-08T10:43:21.628Z</time></trkpt><trkpt lat="45.3714659" lon="10.7820226"><ele>89.0</ele><time>2026-04-08T10:43:22.629Z</time></trkpt><trkpt lat="45.3715376" lon="10.7820651"><ele>88.5</ele><time>2026-04-08T10:43:23.629Z</time></trkpt><trkpt lat="45.3716079" lon="10.7821223"><ele>88.0</ele><time>2026-04-08T10:43:24.629Z</time></trkpt><trkpt lat="45.3716754" lon="10.7821772"><ele>87.5</ele><time>2026-04-08T10:43:25.628Z</time></trkpt><trkpt lat="45.3717418" lon="10.7822299"><ele>87.0</ele><time>2026-04-08T10:43:26.629Z</time></trkpt><trkpt lat="45.3718037" lon="10.7822811"><ele>87.0</ele><time>2026-04-08T10:43:27.629Z</time></trkpt><trkpt lat="45.3718592" lon="10.7823288"><ele>87.0</ele><time>2026-04-08T10:43:28.629Z</time></trkpt><trkpt lat="45.3719131" lon="10.7823844"><ele>87.0</ele><time>2026-04-08T10:43:29.629Z</time></trkpt><trkpt lat="45.3719679" lon="10.7824421"><ele>87.0</ele><time>2026-04-08T10:43:30.629Z</time></trkpt><trkpt lat="45.3720261" lon="10.7824983"><ele>87.0</ele><time>2026-04-08T10:43:31.628Z</time></trkpt><trkpt lat="45.3720819" lon="10.7825485"><ele>87.0</ele><time>2026-04-08T10:43:32.629Z</time></trkpt><trkpt lat="45.372137" lon="10.7826053"><ele>87.0</ele><time>2026-04-08T10:43:33.629Z</time></trkpt><trkpt lat="45.3721933" lon="10.7826705"><ele>85.6</ele><time>2026-04-08T10:43:34.629Z</time></trkpt><trkpt lat="45.3722473" lon="10.7827465"><ele>84.19999999999999</ele><time>2026-04-08T10:43:35.628Z</time></trkpt><trkpt lat="45.3723033" lon="10.7828316"><ele>82.8</ele><time>2026-04-08T10:43:36.579Z</time></trkpt><trkpt lat="45.372373" lon="10.7829212"><ele>81.4</ele><time>2026-04-08T10:43:37.578Z</time></trkpt><trkpt lat="45.3724529" lon="10.7830159"><ele>80.0</ele><time>2026-04-08T10:43:38.578Z</time></trkpt><trkpt lat="45.372535" lon="10.7831193"><ele>80.0</ele><time>2026-04-08T10:43:39.578Z</time></trkpt><trkpt lat="45.3726165" lon="10.7832212"><ele>80.0</ele><time>2026-04-08T10:43:40.578Z</time></trkpt><trkpt lat="45.3727032" lon="10.7833165"><ele>80.0</ele><time>2026-04-08T10:43:41.578Z</time></trkpt><trkpt lat="45.3727971" lon="10.783403"><ele>80.0</ele><time>2026-04-08T10:43:42.578Z</time></trkpt><trkpt lat="45.372889" lon="10.7834753"><ele>80.0</ele><time>2026-04-08T10:43:43.579Z</time></trkpt><trkpt lat="45.3729816" lon="10.7835441"><ele>77.5</ele><time>2026-04-08T10:43:44.579Z</time></trkpt><trkpt lat="45.3730779" lon="10.7836074"><ele>75.0</ele><time>2026-04-08T10:43:45.578Z</time></trkpt><trkpt lat="45.3731828" lon="10.7836657"><ele>72.5</ele><time>2026-04-08T10:43:46.578Z</time></trkpt><trkpt lat="45.3733002" lon="10.7837"><ele>70.0</ele><time>2026-04-08T10:43:47.579Z</time></trkpt><trkpt lat="45.3734292" lon="10.7837151"><ele>70.0</ele><time>2026-04-08T10:43:48.579Z</time></trkpt><trkpt lat="45.3735601" lon="10.7837163"><ele>70.0</ele><time>2026-04-08T10:43:49.579Z</time></trkpt><trkpt lat="45.3736831" lon="10.7837254"><ele>70.0</ele><time>2026-04-08T10:43:50.578Z</time></trkpt><trkpt lat="45.3737941" lon="10.7837405"><ele>70.0</ele><time>2026-04-08T10:43:51.579Z</time></trkpt><trkpt lat="45.3739041" lon="10.7837612"><ele>70.0</ele><time>2026-04-08T10:43:52.578Z</time></trkpt><trkpt lat="45.3740085" lon="10.7837724"><ele>70.0</ele><time>2026-04-08T10:43:53.578Z</time></trkpt><trkpt lat="45.3741042" lon="10.7837947"><ele>70.0</ele><time>2026-04-08T10:43:54.58Z</time></trkpt><trkpt lat="45.3741959" lon="10.7838094"><ele>70.0</ele><time>2026-04-08T10:43:55.58Z</time></trkpt><trkpt lat="45.3742758" lon="10.7838129"><ele>70.0</ele><time>2026-04-08T10:43:56.579Z</time></trkpt><trkpt lat="45.3743452" lon="10.7838172"><ele>70.0</ele><time>2026-04-08T10:43:57.58Z</time></trkpt><trkpt lat="45.3744091" lon="10.7838331"><ele>70.0</ele><time>2026-04-08T10:43:58.58Z</time></trkpt><trkpt lat="45.3745071" lon="10.7838245"><ele>70.0</ele><time>2026-04-08T10:44:00.58Z</time></trkpt><trkpt lat="45.3745565" lon="10.7837659"><ele>70.0</ele><time>2026-04-08T10:44:01.58Z</time></trkpt><trkpt lat="45.3746086" lon="10.7836813"><ele>70.0</ele><time>2026-04-08T10:44:02.58Z</time></trkpt><trkpt lat="45.3746639" lon="10.7835793"><ele>70.0</ele><time>2026-04-08T10:44:03.58Z</time></trkpt><trkpt lat="45.3747334" lon="10.7834696"><ele>70.0</ele><time>2026-04-08T10:44:04.58Z</time></trkpt><trkpt lat="45.3748123" lon="10.783355"><ele>70.25</ele><time>2026-04-08T10:44:05.579Z</time></trkpt><trkpt lat="45.3749063" lon="10.7832432"><ele>70.5</ele><time>2026-04-08T10:44:06.579Z</time></trkpt><trkpt lat="45.3750215" lon="10.7831515"><ele>70.75</ele><time>2026-04-08T10:44:07.579Z</time></trkpt><trkpt lat="45.3751486" lon="10.7830892"><ele>71.0</ele><time>2026-04-08T10:44:08.579Z</time></trkpt><trkpt lat="45.3752817" lon="10.7830493"><ele>71.0</ele><time>2026-04-08T10:44:09.579Z</time></trkpt><trkpt lat="45.3754101" lon="10.7830127"><ele>71.0</ele><time>2026-04-08T10:44:10.58Z</time></trkpt><trkpt lat="45.3755385" lon="10.7829696"><ele>71.0</ele><time>2026-04-08T10:44:11.58Z</time></trkpt><trkpt lat="45.3756654" lon="10.782919"><ele>71.0</ele><time>2026-04-08T10:44:12.58Z</time></trkpt><trkpt lat="45.37579" lon="10.7828602"><ele>70.5</ele><time>2026-04-08T10:44:13.579Z</time></trkpt><trkpt lat="45.3759142" lon="10.7827853"><ele>70.0</ele><time>2026-04-08T10:44:14.579Z</time></trkpt><trkpt lat="45.3760281" lon="10.7826947"><ele>69.5</ele><time>2026-04-08T10:44:15.579Z</time></trkpt><trkpt lat="45.3761351" lon="10.7825686"><ele>69.0</ele><time>2026-04-08T10:44:16.579Z</time></trkpt><trkpt lat="45.3762296" lon="10.7824192"><ele>69.33333333333333</ele><time>2026-04-08T10:44:17.579Z</time></trkpt><trkpt lat="45.3763197" lon="10.7822529"><ele>69.66666666666666</ele><time>2026-04-08T10:44:18.58Z</time></trkpt><trkpt lat="45.3764081" lon="10.7820755"><ele>70.0</ele><time>2026-04-08T10:44:19.58Z</time></trkpt><trkpt lat="45.376495" lon="10.7818974"><ele>71.33333333333333</ele><time>2026-04-08T10:44:20.579Z</time></trkpt><trkpt lat="45.3765814" lon="10.781718"><ele>72.66666666666667</ele><time>2026-04-08T10:44:21.579Z</time></trkpt><trkpt lat="45.3766615" lon="10.7815339"><ele>74.0</ele><time>2026-04-08T10:44:22.58Z</time></trkpt><trkpt lat="45.3767308" lon="10.7813476"><ele>74.0</ele><time>2026-04-08T10:44:23.579Z</time></trkpt><trkpt lat="45.3767929" lon="10.7811573"><ele>74.0</ele><time>2026-04-08T10:44:24.579Z</time></trkpt><trkpt lat="45.3768529" lon="10.7809648"><ele>74.0</ele><time>2026-04-08T10:44:25.58Z</time></trkpt><trkpt lat="45.3769031" lon="10.7807618"><ele>74.0</ele><time>2026-04-08T10:44:26.579Z</time></trkpt><trkpt lat="45.3769413" lon="10.7805533"><ele>74.66666666666667</ele><time>2026-04-08T10:44:27.58Z</time></trkpt><trkpt lat="45.3769751" lon="10.7803376"><ele>75.33333333333333</ele><time>2026-04-08T10:44:28.58Z</time></trkpt><trkpt lat="45.3770097" lon="10.7801267"><ele>76.0</ele><time>2026-04-08T10:44:29.58Z</time></trkpt><trkpt lat="45.3770446" lon="10.7799169"><ele>76.25</ele><time>2026-04-08T10:44:30.58Z</time></trkpt><trkpt lat="45.3770812" lon="10.779714"><ele>76.5</ele><time>2026-04-08T10:44:31.579Z</time></trkpt><trkpt lat="45.3771208" lon="10.7795146"><ele>76.75</ele><time>2026-04-08T10:44:32.579Z</time></trkpt><trkpt lat="45.3771667" lon="10.7793202"><ele>77.0</ele><time>2026-04-08T10:44:33.58Z</time></trkpt><trkpt lat="45.3772213" lon="10.7791289"><ele>77.0</ele><time>2026-04-08T10:44:34.579Z</time></trkpt><trkpt lat="45.377277" lon="10.7789406"><ele>77.0</ele><time>2026-04-08T10:44:35.579Z</time></trkpt><trkpt lat="45.3773317" lon="10.7787542"><ele>77.0</ele><time>2026-04-08T10:44:36.579Z</time></trkpt><trkpt lat="45.3773865" lon="10.7785697"><ele>77.0</ele><time>2026-04-08T10:44:37.58Z</time></trkpt><trkpt lat="45.3774514" lon="10.7783816"><ele>77.5</ele><time>2026-04-08T10:44:38.579Z</time></trkpt><trkpt lat="45.3775164" lon="10.778198"><ele>78.0</ele><time>2026-04-08T10:44:39.58Z</time></trkpt><trkpt lat="45.3775777" lon="10.7780201"><ele>78.5</ele><time>2026-04-08T10:44:40.579Z</time></trkpt><trkpt lat="45.3776491" lon="10.7778584"><ele>79.0</ele><time>2026-04-08T10:44:41.579Z</time></trkpt><trkpt lat="45.3777189" lon="10.7777015"><ele>78.2</ele><time>2026-04-08T10:44:42.579Z</time></trkpt><trkpt lat="45.3777855" lon="10.7775549"><ele>77.4</ele><time>2026-04-08T10:44:43.58Z</time></trkpt><trkpt lat="45.3778516" lon="10.7774227"><ele>76.6</ele><time>2026-04-08T10:44:44.581Z</time></trkpt><trkpt lat="45.3779144" lon="10.7773001"><ele>75.8</ele><time>2026-04-08T10:44:45.581Z</time></trkpt><trkpt lat="45.3779902" lon="10.7772114"><ele>75.0</ele><time>2026-04-08T10:44:46.581Z</time></trkpt><trkpt lat="45.378081" lon="10.7771687"><ele>75.0</ele><time>2026-04-08T10:44:47.581Z</time></trkpt><trkpt lat="45.3781929" lon="10.777167"><ele>75.0</ele><time>2026-04-08T10:44:48.581Z</time></trkpt><trkpt lat="45.3783067" lon="10.7772144"><ele>75.0</ele><time>2026-04-08T10:44:49.58Z</time></trkpt><trkpt lat="45.3784211" lon="10.7772906"><ele>75.0</ele><time>2026-04-08T10:44:50.581Z</time></trkpt><trkpt lat="45.3785363" lon="10.7773663"><ele>75.0</ele><time>2026-04-08T10:44:51.58Z</time></trkpt><trkpt lat="45.3786531" lon="10.7774062"><ele>75.0</ele><time>2026-04-08T10:44:52.58Z</time></trkpt><trkpt lat="45.3787792" lon="10.7773909"><ele>75.0</ele><time>2026-04-08T10:44:53.58Z</time></trkpt><trkpt lat="45.3789057" lon="10.7773361"><ele>75.0</ele><time>2026-04-08T10:44:54.58Z</time></trkpt><trkpt lat="45.3790382" lon="10.777249"><ele>74.5</ele><time>2026-04-08T10:44:55.581Z</time></trkpt><trkpt lat="45.3791709" lon="10.7771618"><ele>74.0</ele><time>2026-04-08T10:44:56.58Z</time></trkpt><trkpt lat="45.3793062" lon="10.7770815"><ele>73.5</ele><time>2026-04-08T10:44:57.581Z</time></trkpt><trkpt lat="45.3794427" lon="10.776995"><ele>73.0</ele><time>2026-04-08T10:44:58.581Z</time></trkpt><trkpt lat="45.3795797" lon="10.7769058"><ele>74.33333333333333</ele><time>2026-04-08T10:44:59.58Z</time></trkpt><trkpt lat="45.3797164" lon="10.7768082"><ele>75.66666666666667</ele><time>2026-04-08T10:45:00.581Z</time></trkpt><trkpt lat="45.3798512" lon="10.776696"><ele>77.0</ele><time>2026-04-08T10:45:01.58Z</time></trkpt><trkpt lat="45.3799851" lon="10.7765751"><ele>77.0</ele><time>2026-04-08T10:45:02.58Z</time></trkpt><trkpt lat="45.3801273" lon="10.7764645"><ele>77.0</ele><time>2026-04-08T10:45:03.58Z</time></trkpt><trkpt lat="45.3802799" lon="10.7763688"><ele>77.0</ele><time>2026-04-08T10:45:04.581Z</time></trkpt><trkpt lat="45.3804399" lon="10.7762861"><ele>76.66666666666667</ele><time>2026-04-08T10:45:05.58Z</time></trkpt><trkpt lat="45.3806003" lon="10.7762072"><ele>76.33333333333333</ele><time>2026-04-08T10:45:06.58Z</time></trkpt><trkpt lat="45.3807632" lon="10.7761307"><ele>76.0</ele><time>2026-04-08T10:45:07.581Z</time></trkpt><trkpt lat="45.3809291" lon="10.7760509"><ele>77.0</ele><time>2026-04-08T10:45:08.581Z</time></trkpt><trkpt lat="45.3810885" lon="10.7759688"><ele>78.0</ele><time>2026-04-08T10:45:09.581Z</time></trkpt><trkpt lat="45.3812425" lon="10.7758838"><ele>79.0</ele><time>2026-04-08T10:45:10.581Z</time></trkpt><trkpt lat="45.3813862" lon="10.7758008"><ele>79.0</ele><time>2026-04-08T10:45:11.581Z</time></trkpt><trkpt lat="45.381521" lon="10.7757131"><ele>79.0</ele><time>2026-04-08T10:45:12.58Z</time></trkpt><trkpt lat="45.3816453" lon="10.775626"><ele>79.0</ele><time>2026-04-08T10:45:13.58Z</time></trkpt><trkpt lat="45.3817634" lon="10.7755484"><ele>79.0</ele><time>2026-04-08T10:45:14.58Z</time></trkpt><trkpt lat="45.3818576" lon="10.7754593"><ele>79.0</ele><time>2026-04-08T10:45:15.58Z</time></trkpt><trkpt lat="45.3819182" lon="10.7753341"><ele>79.0</ele><time>2026-04-08T10:45:16.581Z</time></trkpt><trkpt lat="45.3819264" lon="10.775183"><ele>79.0</ele><time>2026-04-08T10:45:17.581Z</time></trkpt><trkpt lat="45.3819048" lon="10.7750263"><ele>79.0</ele><time>2026-04-08T10:45:18.581Z</time></trkpt><trkpt lat="45.3818578" lon="10.7748802"><ele>79.0</ele><time>2026-04-08T10:45:19.581Z</time></trkpt><trkpt lat="45.381806" lon="10.7747354"><ele>80.2</ele><time>2026-04-08T10:45:20.581Z</time></trkpt><trkpt lat="45.3817586" lon="10.7745892"><ele>81.4</ele><time>2026-04-08T10:45:21.58Z</time></trkpt><trkpt lat="45.3817185" lon="10.7744409"><ele>82.6</ele><time>2026-04-08T10:45:22.58Z</time></trkpt><trkpt lat="45.3816905" lon="10.7742915"><ele>83.8</ele><time>2026-04-08T10:45:23.58Z</time></trkpt><trkpt lat="45.3816812" lon="10.7741283"><ele>85.0</ele><time>2026-04-08T10:45:24.58Z</time></trkpt><trkpt lat="45.3816868" lon="10.773962"><ele>87.5</ele><time>2026-04-08T10:45:25.58Z</time></trkpt><trkpt lat="45.3816882" lon="10.773788"><ele>90.0</ele><time>2026-04-08T10:45:26.58Z</time></trkpt><trkpt lat="45.3816859" lon="10.7736061"><ele>92.5</ele><time>2026-04-08T10:45:27.58Z</time></trkpt><trkpt lat="45.3816806" lon="10.7734239"><ele>95.0</ele><time>2026-04-08T10:45:28.58Z</time></trkpt><trkpt lat="45.3816731" lon="10.7732605"><ele>96.0</ele><time>2026-04-08T10:45:29.58Z</time></trkpt><trkpt lat="45.3816755" lon="10.773106"><ele>97.0</ele><time>2026-04-08T10:45:30.581Z</time></trkpt><trkpt lat="45.3816968" lon="10.7729529"><ele>98.0</ele><time>2026-04-08T10:45:31.581Z</time></trkpt><trkpt lat="45.3817324" lon="10.7727958"><ele>99.0</ele><time>2026-04-08T10:45:32.581Z</time></trkpt><trkpt lat="45.3817744" lon="10.7726328"><ele>99.25</ele><time>2026-04-08T10:45:33.582Z</time></trkpt><trkpt lat="45.3818246" lon="10.7724651"><ele>99.5</ele><time>2026-04-08T10:45:34.582Z</time></trkpt><trkpt lat="45.3818811" lon="10.7722909"><ele>99.75</ele><time>2026-04-08T10:45:35.582Z</time></trkpt><trkpt lat="45.3819349" lon="10.7721207"><ele>100.0</ele><time>2026-04-08T10:45:36.581Z</time></trkpt><trkpt lat="45.3819848" lon="10.7719566"><ele>100.5</ele><time>2026-04-08T10:45:37.581Z</time></trkpt><trkpt lat="45.3820396" lon="10.7717847"><ele>101.0</ele><time>2026-04-08T10:45:38.582Z</time></trkpt><trkpt lat="45.3820994" lon="10.7716079"><ele>101.5</ele><time>2026-04-08T10:45:39.581Z</time></trkpt><trkpt lat="45.3821643" lon="10.7714346"><ele>102.0</ele><time>2026-04-08T10:45:40.581Z</time></trkpt><trkpt lat="45.3822455" lon="10.7712721"><ele>103.75</ele><time>2026-04-08T10:45:41.582Z</time></trkpt><trkpt lat="45.3823449" lon="10.7711207"><ele>105.5</ele><time>2026-04-08T10:45:42.581Z</time></trkpt><trkpt lat="45.3824533" lon="10.7709722"><ele>107.25</ele><time>2026-04-08T10:45:43.582Z</time></trkpt><trkpt lat="45.3825529" lon="10.7708265"><ele>109.0</ele><time>2026-04-08T10:45:44.581Z</time></trkpt><trkpt lat="45.382633" lon="10.7706924"><ele>109.16666666666667</ele><time>2026-04-08T10:45:45.582Z</time></trkpt><trkpt lat="45.3826852" lon="10.7705569"><ele>109.33333333333334</ele><time>2026-04-08T10:45:46.582Z</time></trkpt><trkpt lat="45.3827113" lon="10.7704196"><ele>109.5</ele><time>2026-04-08T10:45:47.581Z</time></trkpt><trkpt lat="45.3827027" lon="10.7702947"><ele>109.66666666666666</ele><time>2026-04-08T10:45:48.582Z</time></trkpt><trkpt lat="45.382678" lon="10.7701908"><ele>109.83333333333333</ele><time>2026-04-08T10:45:49.581Z</time></trkpt><trkpt lat="45.3826674" lon="10.7701019"><ele>110.0</ele><time>2026-04-08T10:45:50.581Z</time></trkpt><trkpt lat="45.3827335" lon="10.7699656"><ele>110.16666666666666</ele><time>2026-04-08T10:45:52.581Z</time></trkpt><trkpt lat="45.38279" lon="10.7699227"><ele>110.33333333333333</ele><time>2026-04-08T10:45:53.581Z</time></trkpt><trkpt lat="45.3828857" lon="10.769854"><ele>110.5</ele><time>2026-04-08T10:45:55.581Z</time></trkpt><trkpt lat="45.3828043" lon="10.7698664"><ele>110.66666666666666</ele><time>2026-04-08T10:46:00.581Z</time></trkpt><trkpt lat="45.3827128" lon="10.7699605"><ele>110.83333333333333</ele><time>2026-04-08T10:46:02.582Z</time></trkpt><trkpt lat="45.3826479" lon="10.7700094"><ele>111.0</ele><time>2026-04-08T10:46:04.582Z</time></trkpt><trkpt lat="45.3826377" lon="10.7701251"><ele>110.83333333333333</ele><time>2026-04-08T10:46:08.581Z</time></trkpt><trkpt lat="45.382699" lon="10.7702608"><ele>110.66666666666666</ele><time>2026-04-08T10:46:10.581Z</time></trkpt><trkpt lat="45.3827302" lon="10.7703391"><ele>110.5</ele><time>2026-04-08T10:46:11.582Z</time></trkpt><trkpt lat="45.3827703" lon="10.7704268"><ele>110.33333333333333</ele><time>2026-04-08T10:46:12.582Z</time></trkpt><trkpt lat="45.3828223" lon="10.7705179"><ele>110.16666666666666</ele><time>2026-04-08T10:46:13.581Z</time></trkpt><trkpt lat="45.3828773" lon="10.7706172"><ele>110.0</ele><time>2026-04-08T10:46:14.581Z</time></trkpt><trkpt lat="45.3829306" lon="10.7707277"><ele>110.0</ele><time>2026-04-08T10:46:15.582Z</time></trkpt><trkpt lat="45.382985" lon="10.7708421"><ele>110.0</ele><time>2026-04-08T10:46:16.581Z</time></trkpt><trkpt lat="45.3830461" lon="10.7709633"><ele>110.0</ele><time>2026-04-08T10:46:17.581Z</time></trkpt><trkpt lat="45.3831085" lon="10.7710815"><ele>110.0</ele><time>2026-04-08T10:46:18.581Z</time></trkpt><trkpt lat="45.3831696" lon="10.7711969"><ele>110.0</ele><time>2026-04-08T10:46:19.582Z</time></trkpt><trkpt lat="45.3832382" lon="10.7713169"><ele>110.75</ele><time>2026-04-08T10:46:20.582Z</time></trkpt><trkpt lat="45.3833152" lon="10.7714411"><ele>111.5</ele><time>2026-04-08T10:46:21.583Z</time></trkpt><trkpt lat="45.3834051" lon="10.7715691"><ele>112.25</ele><time>2026-04-08T10:46:22.583Z</time></trkpt><trkpt lat="45.3834976" lon="10.7716879"><ele>113.0</ele><time>2026-04-08T10:46:23.582Z</time></trkpt><trkpt lat="45.3835997" lon="10.7718086"><ele>112.25</ele><time>2026-04-08T10:46:24.583Z</time></trkpt><trkpt lat="45.3837047" lon="10.7719326"><ele>111.5</ele><time>2026-04-08T10:46:25.583Z</time></trkpt><trkpt lat="45.3838091" lon="10.7720513"><ele>110.75</ele><time>2026-04-08T10:46:26.582Z</time></trkpt><trkpt lat="45.3839138" lon="10.772162"><ele>110.0</ele><time>2026-04-08T10:46:27.582Z</time></trkpt><trkpt lat="45.3840164" lon="10.7722689"><ele>111.75</ele><time>2026-04-08T10:46:28.583Z</time></trkpt><trkpt lat="45.3841175" lon="10.7723637"><ele>113.5</ele><time>2026-04-08T10:46:29.583Z</time></trkpt><trkpt lat="45.3842128" lon="10.7724614"><ele>115.25</ele><time>2026-04-08T10:46:30.582Z</time></trkpt><trkpt lat="45.384298" lon="10.7725687"><ele>117.0</ele><time>2026-04-08T10:46:31.582Z</time></trkpt><trkpt lat="45.3843828" lon="10.7726692"><ele>117.0</ele><time>2026-04-08T10:46:32.583Z</time></trkpt><trkpt lat="45.3844635" lon="10.7727593"><ele>116.99999999999999</ele><time>2026-04-08T10:46:33.583Z</time></trkpt><trkpt lat="45.3845394" lon="10.7728383"><ele>116.99999999999999</ele><time>2026-04-08T10:46:34.583Z</time></trkpt><trkpt lat="45.3845934" lon="10.772896"><ele>117.0</ele><time>2026-04-08T10:46:35.582Z</time></trkpt><trkpt lat="45.3846846" lon="10.7729744"><ele>117.0</ele><time>2026-04-08T10:46:37.582Z</time></trkpt><trkpt lat="45.3847816" lon="10.7730354"><ele>117.0</ele><time>2026-04-08T10:46:39.583Z</time></trkpt><trkpt lat="45.3848685" lon="10.7730731"><ele>116.99999999999999</ele><time>2026-04-08T10:46:41.583Z</time></trkpt><trkpt lat="45.3849481" lon="10.7730859"><ele>116.99999999999999</ele><time>2026-04-08T10:46:43.582Z</time></trkpt><trkpt lat="45.3850435" lon="10.7731146"><ele>117.0</ele><time>2026-04-08T10:46:45.583Z</time></trkpt><trkpt lat="45.3851525" lon="10.7731489"><ele>117.0</ele><time>2026-04-08T10:46:47.582Z</time></trkpt><trkpt lat="45.3852744" lon="10.7731794"><ele>117.0</ele><time>2026-04-08T10:46:49.582Z</time></trkpt><trkpt lat="45.3853383" lon="10.7731972"><ele>117.0</ele><time>2026-04-08T10:46:50.583Z</time></trkpt><trkpt lat="45.3854025" lon="10.7732157"><ele>117.0</ele><time>2026-04-08T10:46:51.582Z</time></trkpt><trkpt lat="45.3855215" lon="10.7732808"><ele>117.0</ele><time>2026-04-08T10:46:53.582Z</time></trkpt><trkpt lat="45.3855761" lon="10.7733408"><ele>117.0</ele><time>2026-04-08T10:46:54.583Z</time></trkpt><trkpt lat="45.3856271" lon="10.7734021"><ele>117.0</ele><time>2026-04-08T10:46:55.583Z</time></trkpt><trkpt lat="45.3856794" lon="10.7734599"><ele>117.33333333333333</ele><time>2026-04-08T10:46:56.582Z</time></trkpt><trkpt lat="45.3857731" lon="10.773568"><ele>117.66666666666666</ele><time>2026-04-08T10:46:58.583Z</time></trkpt><trkpt lat="45.3858227" lon="10.7736259"><ele>118.0</ele><time>2026-04-08T10:46:59.582Z</time></trkpt><trkpt lat="45.3858758" lon="10.7736789"><ele>118.33333333333333</ele><time>2026-04-08T10:47:00.582Z</time></trkpt><trkpt lat="45.3859324" lon="10.7737222"><ele>118.66666666666666</ele><time>2026-04-08T10:47:01.582Z</time></trkpt><trkpt lat="45.3859944" lon="10.7737629"><ele>119.0</ele><time>2026-04-08T10:47:02.583Z</time></trkpt><trkpt lat="45.3860597" lon="10.7738079"><ele>118.99999999999999</ele><time>2026-04-08T10:47:03.582Z</time></trkpt><trkpt lat="45.3861251" lon="10.7738578"><ele>119.0</ele><time>2026-04-08T10:47:04.582Z</time></trkpt><trkpt lat="45.3861886" lon="10.7739103"><ele>119.0</ele><time>2026-04-08T10:47:05.582Z</time></trkpt><trkpt lat="45.3862532" lon="10.7739695"><ele>119.0</ele><time>2026-04-08T10:47:06.583Z</time></trkpt><trkpt lat="45.3863186" lon="10.7740359"><ele>118.99999999999999</ele><time>2026-04-08T10:47:07.582Z</time></trkpt><trkpt lat="45.3863774" lon="10.7741042"><ele>119.0</ele><time>2026-04-08T10:47:08.582Z</time></trkpt><trkpt lat="45.3864313" lon="10.7741783"><ele>119.28571428571428</ele><time>2026-04-08T10:47:09.582Z</time></trkpt><trkpt lat="45.3864861" lon="10.7742454"><ele>119.57142857142857</ele><time>2026-04-08T10:47:10.583Z</time></trkpt><trkpt lat="45.386545" lon="10.7743177"><ele>119.85714285714286</ele><time>2026-04-08T10:47:11.583Z</time></trkpt><trkpt lat="45.3866011" lon="10.7743849"><ele>120.14285714285714</ele><time>2026-04-08T10:47:12.584Z</time></trkpt><trkpt lat="45.3866591" lon="10.7744379"><ele>120.42857142857142</ele><time>2026-04-08T10:47:13.584Z</time></trkpt><trkpt lat="45.3867153" lon="10.774488"><ele>120.71428571428571</ele><time>2026-04-08T10:47:14.583Z</time></trkpt><trkpt lat="45.3867735" lon="10.7745322"><ele>121.0</ele><time>2026-04-08T10:47:15.584Z</time></trkpt><trkpt lat="45.3868712" lon="10.774648"><ele>121.0</ele><time>2026-04-08T10:47:17.583Z</time></trkpt><trkpt lat="45.3869158" lon="10.7747256"><ele>120.99999999999999</ele><time>2026-04-08T10:47:18.583Z</time></trkpt><trkpt lat="45.386968" lon="10.7748065"><ele>121.0</ele><time>2026-04-08T10:47:19.583Z</time></trkpt><trkpt lat="45.3870161" lon="10.7748847"><ele>121.0</ele><time>2026-04-08T10:47:20.583Z</time></trkpt><trkpt lat="45.3870584" lon="10.7749579"><ele>120.99999999999999</ele><time>2026-04-08T10:47:21.584Z</time></trkpt><trkpt lat="45.3871063" lon="10.77503"><ele>121.0</ele><time>2026-04-08T10:47:22.583Z</time></trkpt><trkpt lat="45.387152" lon="10.7750953"><ele>121.0</ele><time>2026-04-08T10:47:23.584Z</time></trkpt><trkpt lat="45.3872364" lon="10.7752069"><ele>121.19999999999999</ele><time>2026-04-08T10:47:25.583Z</time></trkpt><trkpt lat="45.387317" lon="10.7753002"><ele>121.39999999999999</ele><time>2026-04-08T10:47:27.583Z</time></trkpt><trkpt lat="45.3873934" lon="10.7753919"><ele>121.6</ele><time>2026-04-08T10:47:29.583Z</time></trkpt><trkpt lat="45.3874871" lon="10.7754988"><ele>121.8</ele><time>2026-04-08T10:47:31.584Z</time></trkpt><trkpt lat="45.3875913" lon="10.7755882"><ele>122.0</ele><time>2026-04-08T10:47:33.584Z</time></trkpt><trkpt lat="45.3876925" lon="10.7756478"><ele>122.0</ele><time>2026-04-08T10:47:35.583Z</time></trkpt><trkpt lat="45.387784" lon="10.7757124"><ele>121.99999999999999</ele><time>2026-04-08T10:47:37.584Z</time></trkpt><trkpt lat="45.3878917" lon="10.7758066"><ele>121.99999999999999</ele><time>2026-04-08T10:47:39.584Z</time></trkpt><trkpt lat="45.3879387" lon="10.7758678"><ele>122.0</ele><time>2026-04-08T10:47:40.584Z</time></trkpt><trkpt lat="45.3880141" lon="10.7759917"><ele>122.0</ele><time>2026-04-08T10:47:42.584Z</time></trkpt><trkpt lat="45.3880746" lon="10.7760851"><ele>121.6</ele><time>2026-04-08T10:47:44.584Z</time></trkpt><trkpt lat="45.3881352" lon="10.7761929"><ele>121.19999999999999</ele><time>2026-04-08T10:47:46.583Z</time></trkpt><trkpt lat="45.3881957" lon="10.7763025"><ele>120.8</ele><time>2026-04-08T10:47:48.583Z</time></trkpt><trkpt lat="45.3882615" lon="10.7764234"><ele>120.4</ele><time>2026-04-08T10:47:50.584Z</time></trkpt><trkpt lat="45.3883375" lon="10.7765627"><ele>120.0</ele><time>2026-04-08T10:47:52.583Z</time></trkpt><trkpt lat="45.388377" lon="10.7766409"><ele>120.0</ele><time>2026-04-08T10:47:53.583Z</time></trkpt><trkpt lat="45.3884143" lon="10.7767213"><ele>120.0</ele><time>2026-04-08T10:47:54.584Z</time></trkpt><trkpt lat="45.3884795" lon="10.7768592"><ele>120.0</ele><time>2026-04-08T10:47:56.584Z</time></trkpt><trkpt lat="45.3885496" lon="10.776999"><ele>120.0</ele><time>2026-04-08T10:47:58.636Z</time></trkpt><trkpt lat="45.3886169" lon="10.7771458"><ele>120.0</ele><time>2026-04-08T10:48:00.635Z</time></trkpt><trkpt lat="45.3886728" lon="10.7772865"><ele>118.2</ele><time>2026-04-08T10:48:02.636Z</time></trkpt><trkpt lat="45.3887239" lon="10.7774261"><ele>116.4</ele><time>2026-04-08T10:48:04.635Z</time></trkpt><trkpt lat="45.3887602" lon="10.7775686"><ele>114.6</ele><time>2026-04-08T10:48:06.635Z</time></trkpt><trkpt lat="45.388795" lon="10.7777168"><ele>112.8</ele><time>2026-04-08T10:48:08.636Z</time></trkpt><trkpt lat="45.3888266" lon="10.7778588"><ele>111.0</ele><time>2026-04-08T10:48:10.636Z</time></trkpt><trkpt lat="45.3888603" lon="10.7779871"><ele>111.0</ele><time>2026-04-08T10:48:12.636Z</time></trkpt><trkpt lat="45.3889159" lon="10.7780776"><ele>111.0</ele><time>2026-04-08T10:48:14.635Z</time></trkpt><trkpt lat="45.3889986" lon="10.7781215"><ele>111.0</ele><time>2026-04-08T10:48:16.635Z</time></trkpt><trkpt lat="45.3891201" lon="10.778191"><ele>111.0</ele><time>2026-04-08T10:48:18.635Z</time></trkpt><trkpt lat="45.3891846" lon="10.7782345"><ele>111.0</ele><time>2026-04-08T10:48:19.635Z</time></trkpt><trkpt lat="45.389252" lon="10.7782769"><ele>111.0</ele><time>2026-04-08T10:48:20.636Z</time></trkpt><trkpt lat="45.3893159" lon="10.7783162"><ele>111.0</ele><time>2026-04-08T10:48:21.635Z</time></trkpt><trkpt lat="45.3894154" lon="10.7783843"><ele>111.0</ele><time>2026-04-08T10:48:23.635Z</time></trkpt><trkpt lat="45.3895074" lon="10.7784466"><ele>111.0</ele><time>2026-04-08T10:48:25.636Z</time></trkpt><trkpt lat="45.3896034" lon="10.7785155"><ele>111.0</ele><time>2026-04-08T10:48:27.636Z</time></trkpt><trkpt lat="45.3897076" lon="10.7785908"><ele>111.0</ele><time>2026-04-08T10:48:29.636Z</time></trkpt><trkpt lat="45.3897682" lon="10.778633"><ele>110.6</ele><time>2026-04-08T10:48:30.635Z</time></trkpt><trkpt lat="45.3898319" lon="10.7786712"><ele>110.19999999999999</ele><time>2026-04-08T10:48:31.636Z</time></trkpt><trkpt lat="45.3898977" lon="10.7787151"><ele>109.80000000000001</ele><time>2026-04-08T10:48:32.635Z</time></trkpt><trkpt lat="45.3899669" lon="10.7787569"><ele>109.4</ele><time>2026-04-08T10:48:33.635Z</time></trkpt><trkpt lat="45.3900741" lon="10.778824"><ele>109.0</ele><time>2026-04-08T10:48:35.635Z</time></trkpt><trkpt lat="45.3901821" lon="10.77891"><ele>109.0</ele><time>2026-04-08T10:48:37.635Z</time></trkpt><trkpt lat="45.3902888" lon="10.7789609"><ele>109.0</ele><time>2026-04-08T10:48:39.636Z</time></trkpt><trkpt lat="45.3903711" lon="10.7789639"><ele>109.0</ele><time>2026-04-08T10:48:41.636Z</time></trkpt><trkpt lat="45.3904038" lon="10.7788715"><ele>109.0</ele><time>2026-04-08T10:48:43.636Z</time></trkpt><trkpt lat="45.3904282" lon="10.7786841"><ele>109.0</ele><time>2026-04-08T10:48:45.635Z</time></trkpt><trkpt lat="45.3904585" lon="10.7785798"><ele>109.85714285714286</ele><time>2026-04-08T10:48:46.635Z</time></trkpt><trkpt lat="45.3904875" lon="10.778472"><ele>110.71428571428572</ele><time>2026-04-08T10:48:47.635Z</time></trkpt><trkpt lat="45.3905103" lon="10.7783643"><ele>111.57142857142856</ele><time>2026-04-08T10:48:48.635Z</time></trkpt><trkpt lat="45.3905326" lon="10.7782669"><ele>112.42857142857142</ele><time>2026-04-08T10:48:49.635Z</time></trkpt><trkpt lat="45.390554" lon="10.7781682"><ele>113.28571428571428</ele><time>2026-04-08T10:48:50.636Z</time></trkpt><trkpt lat="45.3905764" lon="10.7780748"><ele>114.14285714285712</ele><time>2026-04-08T10:48:51.636Z</time></trkpt><trkpt lat="45.3906093" lon="10.7779937"><ele>114.99999999999999</ele><time>2026-04-08T10:48:52.635Z</time></trkpt><trkpt lat="45.3907063" lon="10.7779041"><ele>115.0</ele><time>2026-04-08T10:48:54.635Z</time></trkpt><trkpt lat="45.3908077" lon="10.7778023"><ele>115.0</ele><time>2026-04-08T10:48:56.635Z</time></trkpt><trkpt lat="45.3908581" lon="10.7777418"><ele>115.0</ele><time>2026-04-08T10:48:57.635Z</time></trkpt><trkpt lat="45.3909329" lon="10.777617"><ele>115.0</ele><time>2026-04-08T10:48:59.635Z</time></trkpt><trkpt lat="45.3909816" lon="10.7774765"><ele>115.0</ele><time>2026-04-08T10:49:01.635Z</time></trkpt><trkpt lat="45.3909934" lon="10.7773373"><ele>114.8</ele><time>2026-04-08T10:49:03.636Z</time></trkpt><trkpt lat="45.3909895" lon="10.7771637"><ele>114.6</ele><time>2026-04-08T10:49:05.635Z</time></trkpt><trkpt lat="45.3909822" lon="10.7770025"><ele>114.4</ele><time>2026-04-08T10:49:07.636Z</time></trkpt><trkpt lat="45.3909699" lon="10.7768599"><ele>114.2</ele><time>2026-04-08T10:49:09.635Z</time></trkpt><trkpt lat="45.3909366" lon="10.7767364"><ele>114.0</ele><time>2026-04-08T10:49:11.635Z</time></trkpt><trkpt lat="45.3909081" lon="10.776608"><ele>114.0</ele><time>2026-04-08T10:49:13.635Z</time></trkpt><trkpt lat="45.3908602" lon="10.7765183"><ele>114.0</ele><time>2026-04-08T10:49:15.636Z</time></trkpt><trkpt lat="45.390789" lon="10.7764316"><ele>114.0</ele><time>2026-04-08T10:49:17.635Z</time></trkpt><trkpt lat="45.3907161" lon="10.7763556"><ele>114.0</ele><time>2026-04-08T10:49:19.635Z</time></trkpt><trkpt lat="45.3906588" lon="10.7762744"><ele>114.0</ele><time>2026-04-08T10:49:21.636Z</time></trkpt><trkpt lat="45.3906022" lon="10.7761889"><ele>114.0</ele><time>2026-04-08T10:49:23.635Z</time></trkpt><trkpt lat="45.3905699" lon="10.7761037"><ele>112.2</ele><time>2026-04-08T10:49:25.636Z</time></trkpt><trkpt lat="45.3905632" lon="10.7759768"><ele>110.4</ele><time>2026-04-08T10:49:27.635Z</time></trkpt><trkpt lat="45.3905702" lon="10.7758163"><ele>108.6</ele><time>2026-04-08T10:49:29.586Z</time></trkpt><trkpt lat="45.3905844" lon="10.775632"><ele>106.8</ele><time>2026-04-08T10:49:31.586Z</time></trkpt><trkpt lat="45.3905884" lon="10.7755144"><ele>105.0</ele><time>2026-04-08T10:49:32.585Z</time></trkpt><trkpt lat="45.3905871" lon="10.7753835"><ele>105.0</ele><time>2026-04-08T10:49:33.585Z</time></trkpt><trkpt lat="45.3905875" lon="10.7752585"><ele>105.0</ele><time>2026-04-08T10:49:34.586Z</time></trkpt><trkpt lat="45.3905898" lon="10.7751417"><ele>105.0</ele><time>2026-04-08T10:49:35.585Z</time></trkpt><trkpt lat="45.3905944" lon="10.7750403"><ele>105.0</ele><time>2026-04-08T10:49:36.586Z</time></trkpt><trkpt lat="45.3905903" lon="10.7749403"><ele>105.0</ele><time>2026-04-08T10:49:37.585Z</time></trkpt><trkpt lat="45.3905827" lon="10.7748402"><ele>105.0</ele><time>2026-04-08T10:49:38.586Z</time></trkpt><trkpt lat="45.390572" lon="10.7747458"><ele>105.0</ele><time>2026-04-08T10:49:39.585Z</time></trkpt><trkpt lat="45.3905563" lon="10.7746526"><ele>104.83333333333333</ele><time>2026-04-08T10:49:40.586Z</time></trkpt><trkpt lat="45.3905264" lon="10.7744861"><ele>104.66666666666666</ele><time>2026-04-08T10:49:42.587Z</time></trkpt><trkpt lat="45.390505" lon="10.7743968"><ele>104.5</ele><time>2026-04-08T10:49:43.587Z</time></trkpt><trkpt lat="45.390488" lon="10.7743005"><ele>104.33333333333333</ele><time>2026-04-08T10:49:44.587Z</time></trkpt><trkpt lat="45.3904552" lon="10.7741999"><ele>104.16666666666666</ele><time>2026-04-08T10:49:45.586Z</time></trkpt><trkpt lat="45.3904219" lon="10.7740912"><ele>104.0</ele><time>2026-04-08T10:49:46.587Z</time></trkpt><trkpt lat="45.3903925" lon="10.7739817"><ele>103.49999999999999</ele><time>2026-04-08T10:49:47.587Z</time></trkpt><trkpt lat="45.3903708" lon="10.7738827"><ele>103.0</ele><time>2026-04-08T10:49:48.587Z</time></trkpt><trkpt lat="45.3903607" lon="10.773789"><ele>102.5</ele><time>2026-04-08T10:49:49.586Z</time></trkpt><trkpt lat="45.3903977" lon="10.7736564"><ele>102.0</ele><time>2026-04-08T10:49:51.587Z</time></trkpt><trkpt lat="45.390454" lon="10.7735858"><ele>101.49999999999999</ele><time>2026-04-08T10:49:53.587Z</time></trkpt><trkpt lat="45.3905729" lon="10.7735373"><ele>101.0</ele><time>2026-04-08T10:49:55.586Z</time></trkpt><trkpt lat="45.3906433" lon="10.773514"><ele>100.49999999999999</ele><time>2026-04-08T10:49:56.587Z</time></trkpt><trkpt lat="45.3907119" lon="10.7734816"><ele>100.0</ele><time>2026-04-08T10:49:57.586Z</time></trkpt><trkpt lat="45.390773" lon="10.7734544"><ele>99.5</ele><time>2026-04-08T10:49:58.587Z</time></trkpt><trkpt lat="45.3908646" lon="10.7733806"><ele>99.0</ele><time>2026-04-08T10:50:00.586Z</time></trkpt><trkpt lat="45.3909579" lon="10.7733032"><ele>98.49999999999999</ele><time>2026-04-08T10:50:02.586Z</time></trkpt><trkpt lat="45.3910409" lon="10.7732514"><ele>98.0</ele><time>2026-04-08T10:50:04.587Z</time></trkpt><trkpt lat="45.3911913" lon="10.7731259"><ele>97.99999999999999</ele><time>2026-04-08T10:50:08.587Z</time></trkpt><trkpt lat="45.391284" lon="10.7730305"><ele>98.0</ele><time>2026-04-08T10:50:10.586Z</time></trkpt><trkpt lat="45.3913294" lon="10.7729665"><ele>98.0</ele><time>2026-04-08T10:50:11.587Z</time></trkpt><trkpt lat="45.3913771" lon="10.7728887"><ele>98.0</ele><time>2026-04-08T10:50:12.586Z</time></trkpt><trkpt lat="45.3914346" lon="10.7728252"><ele>97.99999999999999</ele><time>2026-04-08T10:50:13.587Z</time></trkpt><trkpt lat="45.3914919" lon="10.7727572"><ele>98.0</ele><time>2026-04-08T10:50:14.586Z</time></trkpt><trkpt lat="45.3915548" lon="10.7726875"><ele>96.42857142857143</ele><time>2026-04-08T10:50:15.586Z</time></trkpt><trkpt lat="45.3916308" lon="10.7726293"><ele>94.85714285714286</ele><time>2026-04-08T10:50:16.587Z</time></trkpt><trkpt lat="45.3916999" lon="10.7725656"><ele>93.28571428571428</ele><time>2026-04-08T10:50:17.587Z</time></trkpt><trkpt lat="45.3917583" lon="10.7725071"><ele>91.71428571428572</ele><time>2026-04-08T10:50:18.587Z</time></trkpt><trkpt lat="45.3918155" lon="10.7724498"><ele>90.14285714285714</ele><time>2026-04-08T10:50:19.587Z</time></trkpt><trkpt lat="45.3918699" lon="10.7723927"><ele>88.57142857142857</ele><time>2026-04-08T10:50:20.586Z</time></trkpt><trkpt lat="45.3919215" lon="10.772333"><ele>87.0</ele><time>2026-04-08T10:50:21.586Z</time></trkpt><trkpt lat="45.3919708" lon="10.7722722"><ele>87.0</ele><time>2026-04-08T10:50:22.587Z</time></trkpt><trkpt lat="45.3920135" lon="10.7722032"><ele>87.0</ele><time>2026-04-08T10:50:23.587Z</time></trkpt><trkpt lat="45.3920573" lon="10.7721278"><ele>87.0</ele><time>2026-04-08T10:50:24.586Z</time></trkpt><trkpt lat="45.3921012" lon="10.7720486"><ele>87.0</ele><time>2026-04-08T10:50:25.586Z</time></trkpt><trkpt lat="45.3921499" lon="10.7719719"><ele>87.0</ele><time>2026-04-08T10:50:26.586Z</time></trkpt><trkpt lat="45.3922051" lon="10.7718978"><ele>87.0</ele><time>2026-04-08T10:50:27.586Z</time></trkpt><trkpt lat="45.3922667" lon="10.7718343"><ele>87.0</ele><time>2026-04-08T10:50:28.586Z</time></trkpt><trkpt lat="45.392333" lon="10.7717839"><ele>86.85714285714286</ele><time>2026-04-08T10:50:29.587Z</time></trkpt><trkpt lat="45.3923998" lon="10.771754"><ele>86.71428571428572</ele><time>2026-04-08T10:50:30.587Z</time></trkpt><trkpt lat="45.3924544" lon="10.7717079"><ele>86.57142857142858</ele><time>2026-04-08T10:50:31.587Z</time></trkpt><trkpt lat="45.3925023" lon="10.7716466"><ele>86.42857142857143</ele><time>2026-04-08T10:50:32.588Z</time></trkpt><trkpt lat="45.3925434" lon="10.7715769"><ele>86.28571428571429</ele><time>2026-04-08T10:50:33.587Z</time></trkpt><trkpt lat="45.3925769" lon="10.7714988"><ele>86.14285714285715</ele><time>2026-04-08T10:50:34.588Z</time></trkpt><trkpt lat="45.3925914" lon="10.7714091"><ele>86.0</ele><time>2026-04-08T10:50:35.588Z</time></trkpt><trkpt lat="45.3925883" lon="10.771309"><ele>86.0</ele><time>2026-04-08T10:50:36.587Z</time></trkpt><trkpt lat="45.3925717" lon="10.771192"><ele>86.0</ele><time>2026-04-08T10:50:37.588Z</time></trkpt><trkpt lat="45.3925501" lon="10.7710614"><ele>86.0</ele><time>2026-04-08T10:50:38.588Z</time></trkpt><trkpt lat="45.392528" lon="10.7709191"><ele>86.0</ele><time>2026-04-08T10:50:39.587Z</time></trkpt><trkpt lat="45.3925076" lon="10.770787"><ele>86.0</ele><time>2026-04-08T10:50:40.588Z</time></trkpt><trkpt lat="45.3924826" lon="10.7706833"><ele>85.8</ele><time>2026-04-08T10:50:41.587Z</time></trkpt><trkpt lat="45.3924646" lon="10.7705821"><ele>85.6</ele><time>2026-04-08T10:50:42.587Z</time></trkpt><trkpt lat="45.3924545" lon="10.7704795"><ele>85.4</ele><time>2026-04-08T10:50:43.587Z</time></trkpt><trkpt lat="45.3924972" lon="10.7703381"><ele>85.2</ele><time>2026-04-08T10:50:45.588Z</time></trkpt><trkpt lat="45.3926186" lon="10.7702783"><ele>85.0</ele><time>2026-04-08T10:50:47.587Z</time></trkpt><trkpt lat="45.392693" lon="10.7702818"><ele>85.0</ele><time>2026-04-08T10:50:48.588Z</time></trkpt><trkpt lat="45.3927727" lon="10.7702935"><ele>85.0</ele><time>2026-04-08T10:50:49.587Z</time></trkpt><trkpt lat="45.3928615" lon="10.7702901"><ele>85.0</ele><time>2026-04-08T10:50:50.587Z</time></trkpt><trkpt lat="45.3929468" lon="10.7702821"><ele>85.0</ele><time>2026-04-08T10:50:51.587Z</time></trkpt><trkpt lat="45.3930389" lon="10.7702663"><ele>85.0</ele><time>2026-04-08T10:50:52.588Z</time></trkpt><trkpt lat="45.3931342" lon="10.770256"><ele>85.0</ele><time>2026-04-08T10:50:53.588Z</time></trkpt><trkpt lat="45.3932222" lon="10.7702575"><ele>85.33333333333333</ele><time>2026-04-08T10:50:54.587Z</time></trkpt><trkpt lat="45.3933033" lon="10.7702662"><ele>85.66666666666666</ele><time>2026-04-08T10:50:55.588Z</time></trkpt><trkpt lat="45.3933802" lon="10.7702776"><ele>86.0</ele><time>2026-04-08T10:50:56.588Z</time></trkpt><trkpt lat="45.3934532" lon="10.7702887"><ele>86.33333333333333</ele><time>2026-04-08T10:50:57.587Z</time></trkpt><trkpt lat="45.3935265" lon="10.7703052"><ele>86.66666666666667</ele><time>2026-04-08T10:50:58.588Z</time></trkpt><trkpt lat="45.3936083" lon="10.7703243"><ele>87.0</ele><time>2026-04-08T10:50:59.588Z</time></trkpt><trkpt lat="45.393695" lon="10.7703496"><ele>87.0</ele><time>2026-04-08T10:51:00.588Z</time></trkpt><trkpt lat="45.3937846" lon="10.7703823"><ele>87.0</ele><time>2026-04-08T10:51:01.588Z</time></trkpt><trkpt lat="45.3938785" lon="10.7704154"><ele>87.0</ele><time>2026-04-08T10:51:02.588Z</time></trkpt><trkpt lat="45.3939723" lon="10.7704538"><ele>87.0</ele><time>2026-04-08T10:51:03.587Z</time></trkpt><trkpt lat="45.3940593" lon="10.7704984"><ele>87.0</ele><time>2026-04-08T10:51:04.587Z</time></trkpt><trkpt lat="45.394135" lon="10.7705439"><ele>88.33333333333333</ele><time>2026-04-08T10:51:05.588Z</time></trkpt><trkpt lat="45.3942056" lon="10.7705894"><ele>89.66666666666667</ele><time>2026-04-08T10:51:06.587Z</time></trkpt><trkpt lat="45.3942758" lon="10.7706444"><ele>91.0</ele><time>2026-04-08T10:51:07.588Z</time></trkpt><trkpt lat="45.3943421" lon="10.7707103"><ele>92.33333333333334</ele><time>2026-04-08T10:51:08.587Z</time></trkpt><trkpt lat="45.3944114" lon="10.770781"><ele>93.66666666666667</ele><time>2026-04-08T10:51:09.587Z</time></trkpt><trkpt lat="45.3944874" lon="10.7708568"><ele>95.0</ele><time>2026-04-08T10:51:10.588Z</time></trkpt><trkpt lat="45.3945679" lon="10.7709399"><ele>96.0</ele><time>2026-04-08T10:51:11.588Z</time></trkpt><trkpt lat="45.3946512" lon="10.7710301"><ele>97.0</ele><time>2026-04-08T10:51:12.587Z</time></trkpt><trkpt lat="45.3947331" lon="10.771128"><ele>98.0</ele><time>2026-04-08T10:51:13.588Z</time></trkpt><trkpt lat="45.3948133" lon="10.7712322"><ele>99.0</ele><time>2026-04-08T10:51:14.588Z</time></trkpt><trkpt lat="45.3948917" lon="10.7713421"><ele>100.0</ele><time>2026-04-08T10:51:15.587Z</time></trkpt><trkpt lat="45.3949683" lon="10.7714473"><ele>100.0</ele><time>2026-04-08T10:51:16.587Z</time></trkpt><trkpt lat="45.3950485" lon="10.7715446"><ele>100.0</ele><time>2026-04-08T10:51:17.587Z</time></trkpt><trkpt lat="45.3951235" lon="10.7716496"><ele>100.0</ele><time>2026-04-08T10:51:18.588Z</time></trkpt><trkpt lat="45.395192" lon="10.7717634"><ele>100.0</ele><time>2026-04-08T10:51:19.589Z</time></trkpt><trkpt lat="45.3952525" lon="10.7718828"><ele>100.0</ele><time>2026-04-08T10:51:20.589Z</time></trkpt><trkpt lat="45.3953033" lon="10.7720028"><ele>98.83333333333334</ele><time>2026-04-08T10:51:21.588Z</time></trkpt><trkpt lat="45.3953496" lon="10.7721263"><ele>97.66666666666667</ele><time>2026-04-08T10:51:22.589Z</time></trkpt><trkpt lat="45.3953958" lon="10.7722426"><ele>96.5</ele><time>2026-04-08T10:51:23.589Z</time></trkpt><trkpt lat="45.3954349" lon="10.772345"><ele>95.33333333333334</ele><time>2026-04-08T10:51:24.588Z</time></trkpt><trkpt lat="45.3954716" lon="10.7724436"><ele>94.16666666666667</ele><time>2026-04-08T10:51:25.589Z</time></trkpt><trkpt lat="45.3955088" lon="10.7725459"><ele>93.0</ele><time>2026-04-08T10:51:26.588Z</time></trkpt><trkpt lat="45.395552" lon="10.7726528"><ele>95.5</ele><time>2026-04-08T10:51:27.588Z</time></trkpt><trkpt lat="45.3955974" lon="10.7727587"><ele>98.0</ele><time>2026-04-08T10:51:28.589Z</time></trkpt><trkpt lat="45.39564" lon="10.7728629"><ele>100.5</ele><time>2026-04-08T10:51:29.588Z</time></trkpt><trkpt lat="45.3956811" lon="10.7729715"><ele>103.0</ele><time>2026-04-08T10:51:30.588Z</time></trkpt><trkpt lat="45.3957226" lon="10.7730865"><ele>105.5</ele><time>2026-04-08T10:51:31.589Z</time></trkpt><trkpt lat="45.3957621" lon="10.7732074"><ele>108.0</ele><time>2026-04-08T10:51:32.588Z</time></trkpt><trkpt lat="45.3957967" lon="10.7733223"><ele>108.0</ele><time>2026-04-08T10:51:33.588Z</time></trkpt><trkpt lat="45.3958266" lon="10.7734313"><ele>108.0</ele><time>2026-04-08T10:51:34.588Z</time></trkpt><trkpt lat="45.3958536" lon="10.7735436"><ele>108.0</ele><time>2026-04-08T10:51:35.588Z</time></trkpt><trkpt lat="45.3958786" lon="10.7736583"><ele>108.0</ele><time>2026-04-08T10:51:36.588Z</time></trkpt><trkpt lat="45.3958991" lon="10.773778"><ele>108.0</ele><time>2026-04-08T10:51:37.588Z</time></trkpt><trkpt lat="45.395916" lon="10.7738994"><ele>108.0</ele><time>2026-04-08T10:51:38.588Z</time></trkpt><trkpt lat="45.3959389" lon="10.7740235"><ele>107.57142857142857</ele><time>2026-04-08T10:51:39.589Z</time></trkpt><trkpt lat="45.3959671" lon="10.7741318"><ele>107.14285714285714</ele><time>2026-04-08T10:51:40.588Z</time></trkpt><trkpt lat="45.3960101" lon="10.7742136"><ele>106.71428571428572</ele><time>2026-04-08T10:51:41.589Z</time></trkpt><trkpt lat="45.3960694" lon="10.7742673"><ele>106.28571428571428</ele><time>2026-04-08T10:51:42.589Z</time></trkpt><trkpt lat="45.3961352" lon="10.7743043"><ele>105.85714285714286</ele><time>2026-04-08T10:51:43.588Z</time></trkpt><trkpt lat="45.3962033" lon="10.7743239"><ele>105.42857142857143</ele><time>2026-04-08T10:51:44.589Z</time></trkpt><trkpt lat="45.3962753" lon="10.7743273"><ele>105.0</ele><time>2026-04-08T10:51:45.588Z</time></trkpt><trkpt lat="45.3963492" lon="10.7743434"><ele>106.2</ele><time>2026-04-08T10:51:46.588Z</time></trkpt><trkpt lat="45.3964295" lon="10.7743687"><ele>107.4</ele><time>2026-04-08T10:51:47.588Z</time></trkpt><trkpt lat="45.3965214" lon="10.7743914"><ele>108.6</ele><time>2026-04-08T10:51:48.588Z</time></trkpt><trkpt lat="45.3966223" lon="10.7744046"><ele>109.8</ele><time>2026-04-08T10:51:49.588Z</time></trkpt><trkpt lat="45.3967186" lon="10.7744142"><ele>111.0</ele><time>2026-04-08T10:51:50.588Z</time></trkpt><trkpt lat="45.3967986" lon="10.7744229"><ele>111.0</ele><time>2026-04-08T10:51:51.589Z</time></trkpt><trkpt lat="45.3968689" lon="10.7744252"><ele>111.0</ele><time>2026-04-08T10:51:52.588Z</time></trkpt><trkpt lat="45.3969379" lon="10.7744679"><ele>111.0</ele><time>2026-04-08T10:51:54.588Z</time></trkpt><trkpt lat="45.3969332" lon="10.7746334"><ele>111.0</ele><time>2026-04-08T10:51:57.588Z</time></trkpt><trkpt lat="45.3969095" lon="10.7747349"><ele>111.0</ele><time>2026-04-08T10:51:58.589Z</time></trkpt><trkpt lat="45.3968812" lon="10.7748476"><ele>111.0</ele><time>2026-04-08T10:51:59.589Z</time></trkpt><trkpt lat="45.3968629" lon="10.774969"><ele>111.0</ele><time>2026-04-08T10:52:00.589Z</time></trkpt><trkpt lat="45.3968481" lon="10.7751012"><ele>111.0</ele><time>2026-04-08T10:52:01.589Z</time></trkpt><trkpt lat="45.3968281" lon="10.7752338"><ele>111.0</ele><time>2026-04-08T10:52:02.588Z</time></trkpt><trkpt lat="45.3968051" lon="10.7753747"><ele>111.0</ele><time>2026-04-08T10:52:03.589Z</time></trkpt><trkpt lat="45.3967819" lon="10.7755152"><ele>111.0</ele><time>2026-04-08T10:52:04.588Z</time></trkpt><trkpt lat="45.3967654" lon="10.7756501"><ele>111.33333333333333</ele><time>2026-04-08T10:52:05.589Z</time></trkpt><trkpt lat="45.3967548" lon="10.7757883"><ele>111.66666666666666</ele><time>2026-04-08T10:52:06.589Z</time></trkpt><trkpt lat="45.3967504" lon="10.7759269"><ele>112.0</ele><time>2026-04-08T10:52:07.588Z</time></trkpt><trkpt lat="45.3967477" lon="10.7760379"><ele>112.33333333333333</ele><time>2026-04-08T10:52:08.589Z</time></trkpt><trkpt lat="45.3967569" lon="10.7761688"><ele>112.66666666666666</ele><time>2026-04-08T10:52:10.589Z</time></trkpt><trkpt lat="45.3968195" lon="10.7762437"><ele>113.0</ele><time>2026-04-08T10:52:12.589Z</time></trkpt><trkpt lat="45.3969234" lon="10.7762689"><ele>112.99999999999999</ele><time>2026-04-08T10:52:14.59Z</time></trkpt><trkpt lat="45.3969919" lon="10.7762833"><ele>113.0</ele><time>2026-04-08T10:52:15.59Z</time></trkpt><trkpt lat="45.3970632" lon="10.7762908"><ele>113.0</ele><time>2026-04-08T10:52:16.59Z</time></trkpt><trkpt lat="45.3971364" lon="10.7762985"><ele>113.0</ele><time>2026-04-08T10:52:17.589Z</time></trkpt><trkpt lat="45.3972037" lon="10.7763104"><ele>112.99999999999999</ele><time>2026-04-08T10:52:18.59Z</time></trkpt><trkpt lat="45.3972661" lon="10.776329"><ele>113.0</ele><time>2026-04-08T10:52:19.59Z</time></trkpt><trkpt lat="45.3973739" lon="10.7763672"><ele>114.25</ele><time>2026-04-08T10:52:21.59Z</time></trkpt><trkpt lat="45.39749" lon="10.7764025"><ele>115.5</ele><time>2026-04-08T10:52:23.59Z</time></trkpt><trkpt lat="45.3976096" lon="10.7764027"><ele>116.75</ele><time>2026-04-08T10:52:25.59Z</time></trkpt><trkpt lat="45.397734" lon="10.7763878"><ele>118.0</ele><time>2026-04-08T10:52:27.589Z</time></trkpt><trkpt lat="45.3978554" lon="10.7763785"><ele>118.0</ele><time>2026-04-08T10:52:29.589Z</time></trkpt><trkpt lat="45.3979541" lon="10.7764187"><ele>118.00000000000001</ele><time>2026-04-08T10:52:31.59Z</time></trkpt><trkpt lat="45.3980112" lon="10.7765398"><ele>118.00000000000001</ele><time>2026-04-08T10:52:33.59Z</time></trkpt><trkpt lat="45.3980241" lon="10.7767054"><ele>118.0</ele><time>2026-04-08T10:52:35.589Z</time></trkpt><trkpt lat="45.3980623" lon="10.7768368"><ele>118.0</ele><time>2026-04-08T10:52:37.589Z</time></trkpt><trkpt lat="45.3981519" lon="10.7769058"><ele>119.0</ele><time>2026-04-08T10:52:39.589Z</time></trkpt><trkpt lat="45.3982905" lon="10.7769067"><ele>120.00000000000001</ele><time>2026-04-08T10:52:41.59Z</time></trkpt><trkpt lat="45.3983695" lon="10.7769234"><ele>121.00000000000001</ele><time>2026-04-08T10:52:42.59Z</time></trkpt><trkpt lat="45.398435" lon="10.7769352"><ele>122.0</ele><time>2026-04-08T10:52:43.59Z</time></trkpt><trkpt lat="45.3985565" lon="10.7769765"><ele>123.0</ele><time>2026-04-08T10:52:45.59Z</time></trkpt><trkpt lat="45.3986539" lon="10.7770457"><ele>123.0</ele><time>2026-04-08T10:52:47.589Z</time></trkpt><trkpt lat="45.3987307" lon="10.7771676"><ele>123.0</ele><time>2026-04-08T10:52:49.589Z</time></trkpt><trkpt lat="45.3987544" lon="10.7772543"><ele>123.0</ele><time>2026-04-08T10:52:50.589Z</time></trkpt><trkpt lat="45.3987808" lon="10.777355"><ele>123.0</ele><time>2026-04-08T10:52:51.589Z</time></trkpt><trkpt lat="45.3988192" lon="10.7774512"><ele>123.0</ele><time>2026-04-08T10:52:52.589Z</time></trkpt><trkpt lat="45.398875" lon="10.7775437"><ele>123.0</ele><time>2026-04-08T10:52:53.59Z</time></trkpt><trkpt lat="45.3989439" lon="10.7776221"><ele>123.0</ele><time>2026-04-08T10:52:54.589Z</time></trkpt><trkpt lat="45.3990032" lon="10.7776919"><ele>123.00000000000001</ele><time>2026-04-08T10:52:55.589Z</time></trkpt><trkpt lat="45.3990554" lon="10.7777559"><ele>123.00000000000001</ele><time>2026-04-08T10:52:56.59Z</time></trkpt><trkpt lat="45.3991336" lon="10.7778898"><ele>123.0</ele><time>2026-04-08T10:52:58.589Z</time></trkpt><trkpt lat="45.3991557" lon="10.7780424"><ele>123.0</ele><time>2026-04-08T10:53:00.591Z</time></trkpt><trkpt lat="45.3991563" lon="10.7782298"><ele>123.0</ele><time>2026-04-08T10:53:02.591Z</time></trkpt><trkpt lat="45.3991706" lon="10.7783434"><ele>123.0</ele><time>2026-04-08T10:53:03.59Z</time></trkpt><trkpt lat="45.3991858" lon="10.7784647"><ele>123.0</ele><time>2026-04-08T10:53:04.591Z</time></trkpt><trkpt lat="45.3992017" lon="10.778591"><ele>123.0</ele><time>2026-04-08T10:53:05.591Z</time></trkpt><trkpt lat="45.3992188" lon="10.7787192"><ele>123.0</ele><time>2026-04-08T10:53:06.591Z</time></trkpt><trkpt lat="45.3992365" lon="10.7788475"><ele>123.0</ele><time>2026-04-08T10:53:07.59Z</time></trkpt><trkpt lat="45.3992522" lon="10.7789713"><ele>122.83333333333333</ele><time>2026-04-08T10:53:08.59Z</time></trkpt><trkpt lat="45.3992671" lon="10.7790892"><ele>122.66666666666666</ele><time>2026-04-08T10:53:09.591Z</time></trkpt><trkpt lat="45.3992814" lon="10.7792015"><ele>122.5</ele><time>2026-04-08T10:53:10.59Z</time></trkpt><trkpt lat="45.3992938" lon="10.7793027"><ele>122.33333333333333</ele><time>2026-04-08T10:53:11.59Z</time></trkpt><trkpt lat="45.399305" lon="10.7793937"><ele>122.16666666666666</ele><time>2026-04-08T10:53:12.59Z</time></trkpt><trkpt lat="45.3993125" lon="10.7795575"><ele>122.0</ele><time>2026-04-08T10:53:14.59Z</time></trkpt><trkpt lat="45.3993157" lon="10.7796896"><ele>121.83333333333333</ele><time>2026-04-08T10:53:16.59Z</time></trkpt><trkpt lat="45.399327" lon="10.779804"><ele>121.66666666666666</ele><time>2026-04-08T10:53:18.591Z</time></trkpt><trkpt lat="45.3993713" lon="10.7798849"><ele>121.5</ele><time>2026-04-08T10:53:20.591Z</time></trkpt><trkpt lat="45.3994557" lon="10.779898"><ele>121.33333333333334</ele><time>2026-04-08T10:53:22.59Z</time></trkpt><trkpt lat="45.3995798" lon="10.7798746"><ele>121.16666666666667</ele><time>2026-04-08T10:53:24.59Z</time></trkpt><trkpt lat="45.399653" lon="10.7798668"><ele>121.0</ele><time>2026-04-08T10:53:25.591Z</time></trkpt><trkpt lat="45.3997282" lon="10.779863"><ele>121.00000000000001</ele><time>2026-04-08T10:53:26.591Z</time></trkpt><trkpt lat="45.3998088" lon="10.7798587"><ele>121.0</ele><time>2026-04-08T10:53:27.59Z</time></trkpt><trkpt lat="45.3998896" lon="10.7798521"><ele>121.0</ele><time>2026-04-08T10:53:28.591Z</time></trkpt><trkpt lat="45.3999726" lon="10.7798498"><ele>121.0</ele><time>2026-04-08T10:53:29.59Z</time></trkpt><trkpt lat="45.4000559" lon="10.7798501"><ele>121.00000000000001</ele><time>2026-04-08T10:53:30.591Z</time></trkpt><trkpt lat="45.400148" lon="10.7798454"><ele>121.0</ele><time>2026-04-08T10:53:31.591Z</time></trkpt><trkpt lat="45.4002466" lon="10.7798408"><ele>121.00000000000001</ele><time>2026-04-08T10:53:32.59Z</time></trkpt><trkpt lat="45.4003391" lon="10.7798387"><ele>121.0</ele><time>2026-04-08T10:53:33.591Z</time></trkpt><trkpt lat="45.4004188" lon="10.7798407"><ele>121.0</ele><time>2026-04-08T10:53:34.59Z</time></trkpt><trkpt lat="45.4004923" lon="10.7798604"><ele>121.0</ele><time>2026-04-08T10:53:35.59Z</time></trkpt><trkpt lat="45.4005675" lon="10.7799006"><ele>121.00000000000001</ele><time>2026-04-08T10:53:36.591Z</time></trkpt><trkpt lat="45.4006495" lon="10.7799586"><ele>121.0</ele><time>2026-04-08T10:53:37.591Z</time></trkpt><trkpt lat="45.4007333" lon="10.7800314"><ele>121.0</ele><time>2026-04-08T10:53:38.59Z</time></trkpt><trkpt lat="45.4008211" lon="10.7801013"><ele>121.0</ele><time>2026-04-08T10:53:39.59Z</time></trkpt><trkpt lat="45.4009139" lon="10.7801774"><ele>121.0</ele><time>2026-04-08T10:53:40.59Z</time></trkpt><trkpt lat="45.4010079" lon="10.7802521"><ele>121.0</ele><time>2026-04-08T10:53:41.59Z</time></trkpt><trkpt lat="45.4011035" lon="10.7803279"><ele>121.0</ele><time>2026-04-08T10:53:42.59Z</time></trkpt><trkpt lat="45.4011925" lon="10.7803955"><ele>121.00000000000001</ele><time>2026-04-08T10:53:43.591Z</time></trkpt><trkpt lat="45.4012775" lon="10.7804486"><ele>121.0</ele><time>2026-04-08T10:53:44.59Z</time></trkpt><trkpt lat="45.4013635" lon="10.7804929"><ele>121.0</ele><time>2026-04-08T10:53:45.591Z</time></trkpt><trkpt lat="45.4014385" lon="10.7805256"><ele>121.0</ele><time>2026-04-08T10:53:46.59Z</time></trkpt><trkpt lat="45.4014976" lon="10.780558"><ele>121.00000000000001</ele><time>2026-04-08T10:53:47.59Z</time></trkpt><trkpt lat="45.4015776" lon="10.7806596"><ele>121.0</ele><time>2026-04-08T10:53:49.591Z</time></trkpt><trkpt lat="45.4016227" lon="10.780811"><ele>121.00000000000001</ele><time>2026-04-08T10:53:51.592Z</time></trkpt><trkpt lat="45.4016534" lon="10.7809172"><ele>121.0</ele><time>2026-04-08T10:53:52.591Z</time></trkpt><trkpt lat="45.4016861" lon="10.7810177"><ele>121.0</ele><time>2026-04-08T10:53:53.591Z</time></trkpt><trkpt lat="45.4017223" lon="10.7811103"><ele>121.0</ele><time>2026-04-08T10:53:54.592Z</time></trkpt><trkpt lat="45.4017671" lon="10.7811994"><ele>121.00000000000001</ele><time>2026-04-08T10:53:55.592Z</time></trkpt><trkpt lat="45.4018205" lon="10.7812951"><ele>121.0</ele><time>2026-04-08T10:53:56.591Z</time></trkpt><trkpt lat="45.4018799" lon="10.7813886"><ele>121.0</ele><time>2026-04-08T10:53:57.592Z</time></trkpt><trkpt lat="45.4019446" lon="10.7814788"><ele>121.0</ele><time>2026-04-08T10:53:58.591Z</time></trkpt><trkpt lat="45.4020147" lon="10.7815642"><ele>121.0</ele><time>2026-04-08T10:53:59.591Z</time></trkpt><trkpt lat="45.4020869" lon="10.7816376"><ele>121.0</ele><time>2026-04-08T10:54:00.592Z</time></trkpt><trkpt lat="45.4021678" lon="10.7816998"><ele>121.0</ele><time>2026-04-08T10:54:01.591Z</time></trkpt><trkpt lat="45.402251" lon="10.781754"><ele>121.0</ele><time>2026-04-08T10:54:02.592Z</time></trkpt><trkpt lat="45.4023332" lon="10.7818153"><ele>121.0</ele><time>2026-04-08T10:54:03.591Z</time></trkpt><trkpt lat="45.4024092" lon="10.7818895"><ele>121.0</ele><time>2026-04-08T10:54:04.592Z</time></trkpt><trkpt lat="45.4024846" lon="10.7819889"><ele>121.0</ele><time>2026-04-08T10:54:05.591Z</time></trkpt><trkpt lat="45.4025576" lon="10.7821041"><ele>121.0</ele><time>2026-04-08T10:54:06.591Z</time></trkpt><trkpt lat="45.402628" lon="10.7822287"><ele>120.8</ele><time>2026-04-08T10:54:07.591Z</time></trkpt><trkpt lat="45.4026964" lon="10.7823561"><ele>120.6</ele><time>2026-04-08T10:54:08.592Z</time></trkpt><trkpt lat="45.4027645" lon="10.7824834"><ele>120.4</ele><time>2026-04-08T10:54:09.591Z</time></trkpt><trkpt lat="45.4028277" lon="10.7825966"><ele>120.2</ele><time>2026-04-08T10:54:10.591Z</time></trkpt><trkpt lat="45.4028895" lon="10.7826921"><ele>120.0</ele><time>2026-04-08T10:54:11.592Z</time></trkpt><trkpt lat="45.4029546" lon="10.7827764"><ele>119.8</ele><time>2026-04-08T10:54:12.592Z</time></trkpt><trkpt lat="45.4030287" lon="10.7828585"><ele>119.6</ele><time>2026-04-08T10:54:13.591Z</time></trkpt><trkpt lat="45.4030971" lon="10.782924"><ele>119.4</ele><time>2026-04-08T10:54:14.592Z</time></trkpt><trkpt lat="45.4031871" lon="10.7830271"><ele>119.2</ele><time>2026-04-08T10:54:16.591Z</time></trkpt><trkpt lat="45.4032388" lon="10.7831783"><ele>119.0</ele><time>2026-04-08T10:54:18.591Z</time></trkpt><trkpt lat="45.4032814" lon="10.7832546"><ele>118.99999999999999</ele><time>2026-04-08T10:54:19.591Z</time></trkpt><trkpt lat="45.4033384" lon="10.7833254"><ele>119.0</ele><time>2026-04-08T10:54:20.592Z</time></trkpt><trkpt lat="45.4033965" lon="10.7834023"><ele>119.0</ele><time>2026-04-08T10:54:21.592Z</time></trkpt><trkpt lat="45.4034484" lon="10.7834911"><ele>119.0</ele><time>2026-04-08T10:54:22.592Z</time></trkpt><trkpt lat="45.4034941" lon="10.7835884"><ele>118.99999999999999</ele><time>2026-04-08T10:54:23.592Z</time></trkpt><trkpt lat="45.4035444" lon="10.7836851"><ele>119.0</ele><time>2026-04-08T10:54:24.592Z</time></trkpt><trkpt lat="45.403603" lon="10.783784"><ele>119.16666666666666</ele><time>2026-04-08T10:54:25.592Z</time></trkpt><trkpt lat="45.403662" lon="10.7838812"><ele>119.33333333333333</ele><time>2026-04-08T10:54:26.592Z</time></trkpt><trkpt lat="45.4037243" lon="10.7839719"><ele>119.5</ele><time>2026-04-08T10:54:27.591Z</time></trkpt><trkpt lat="45.4037868" lon="10.7840594"><ele>119.66666666666666</ele><time>2026-04-08T10:54:28.591Z</time></trkpt><trkpt lat="45.4038453" lon="10.7841527"><ele>119.83333333333333</ele><time>2026-04-08T10:54:29.591Z</time></trkpt><trkpt lat="45.4039019" lon="10.7842502"><ele>120.0</ele><time>2026-04-08T10:54:30.592Z</time></trkpt><trkpt lat="45.4039519" lon="10.7843514"><ele>120.5</ele><time>2026-04-08T10:54:31.592Z</time></trkpt><trkpt lat="45.4039958" lon="10.7844597"><ele>121.0</ele><time>2026-04-08T10:54:32.592Z</time></trkpt><trkpt lat="45.4040267" lon="10.7845735"><ele>121.5</ele><time>2026-04-08T10:54:33.591Z</time></trkpt><trkpt lat="45.4040511" lon="10.7846897"><ele>122.0</ele><time>2026-04-08T10:54:34.591Z</time></trkpt><trkpt lat="45.404067" lon="10.784811"><ele>122.5</ele><time>2026-04-08T10:54:35.591Z</time></trkpt><trkpt lat="45.4040754" lon="10.7849361"><ele>123.0</ele><time>2026-04-08T10:54:36.591Z</time></trkpt><trkpt lat="45.4040812" lon="10.7850639"><ele>123.2</ele><time>2026-04-08T10:54:37.592Z</time></trkpt><trkpt lat="45.4040856" lon="10.7851933"><ele>123.4</ele><time>2026-04-08T10:54:38.645Z</time></trkpt><trkpt lat="45.4040951" lon="10.7853186"><ele>123.60000000000001</ele><time>2026-04-08T10:54:39.645Z</time></trkpt><trkpt lat="45.4041049" lon="10.7854462"><ele>123.80000000000001</ele><time>2026-04-08T10:54:40.645Z</time></trkpt><trkpt lat="45.4041128" lon="10.7855751"><ele>124.0</ele><time>2026-04-08T10:54:41.645Z</time></trkpt><trkpt lat="45.4041263" lon="10.7857037"><ele>124.00000000000001</ele><time>2026-04-08T10:54:42.644Z</time></trkpt><trkpt lat="45.4041555" lon="10.7858177"><ele>124.0</ele><time>2026-04-08T10:54:43.645Z</time></trkpt><trkpt lat="45.4041918" lon="10.7859288"><ele>124.0</ele><time>2026-04-08T10:54:44.645Z</time></trkpt><trkpt lat="45.4042241" lon="10.7860509"><ele>124.0</ele><time>2026-04-08T10:54:45.645Z</time></trkpt><trkpt lat="45.4042482" lon="10.7861663"><ele>124.00000000000001</ele><time>2026-04-08T10:54:46.645Z</time></trkpt><trkpt lat="45.4042747" lon="10.7862755"><ele>124.0</ele><time>2026-04-08T10:54:47.645Z</time></trkpt><trkpt lat="45.4042925" lon="10.7863817"><ele>124.00000000000001</ele><time>2026-04-08T10:54:48.644Z</time></trkpt><trkpt lat="45.4042954" lon="10.7864731"><ele>124.0</ele><time>2026-04-08T10:54:49.644Z</time></trkpt><trkpt lat="45.4042557" lon="10.7866238"><ele>124.0</ele><time>2026-04-08T10:54:51.645Z</time></trkpt><trkpt lat="45.4042221" lon="10.786777"><ele>124.0</ele><time>2026-04-08T10:54:53.645Z</time></trkpt><trkpt lat="45.4042266" lon="10.7868666"><ele>124.00000000000001</ele><time>2026-04-08T10:54:54.645Z</time></trkpt><trkpt lat="45.4042312" lon="10.7869618"><ele>124.0</ele><time>2026-04-08T10:54:55.644Z</time></trkpt><trkpt lat="45.404244" lon="10.7870656"><ele>123.16666666666667</ele><time>2026-04-08T10:54:56.645Z</time></trkpt><trkpt lat="45.4042571" lon="10.7871678"><ele>122.33333333333334</ele><time>2026-04-08T10:54:57.644Z</time></trkpt><trkpt lat="45.4042709" lon="10.7872705"><ele>121.5</ele><time>2026-04-08T10:54:58.644Z</time></trkpt><trkpt lat="45.404287" lon="10.7873774"><ele>120.66666666666666</ele><time>2026-04-08T10:54:59.644Z</time></trkpt><trkpt lat="45.4043069" lon="10.7874888"><ele>119.83333333333333</ele><time>2026-04-08T10:55:00.644Z</time></trkpt><trkpt lat="45.4043331" lon="10.7875977"><ele>119.0</ele><time>2026-04-08T10:55:01.644Z</time></trkpt><trkpt lat="45.4043616" lon="10.7876955"><ele>118.33333333333333</ele><time>2026-04-08T10:55:02.645Z</time></trkpt><trkpt lat="45.4044017" lon="10.7877909"><ele>117.66666666666666</ele><time>2026-04-08T10:55:03.645Z</time></trkpt><trkpt lat="45.4044512" lon="10.7878845"><ele>117.0</ele><time>2026-04-08T10:55:04.645Z</time></trkpt><trkpt lat="45.4045034" lon="10.7879772"><ele>116.33333333333334</ele><time>2026-04-08T10:55:05.645Z</time></trkpt><trkpt lat="45.4045669" lon="10.7880644"><ele>115.66666666666667</ele><time>2026-04-08T10:55:06.645Z</time></trkpt><trkpt lat="45.4046329" lon="10.7881519"><ele>115.0</ele><time>2026-04-08T10:55:07.644Z</time></trkpt><trkpt lat="45.4046977" lon="10.7882193"><ele>114.99999999999999</ele><time>2026-04-08T10:55:08.644Z</time></trkpt><trkpt lat="45.4047568" lon="10.7882988"><ele>115.0</ele><time>2026-04-08T10:55:09.644Z</time></trkpt><trkpt lat="45.4048043" lon="10.7883755"><ele>114.99999999999999</ele><time>2026-04-08T10:55:10.645Z</time></trkpt><trkpt lat="45.4048421" lon="10.788452"><ele>114.99999999999999</ele><time>2026-04-08T10:55:11.644Z</time></trkpt><trkpt lat="45.4048578" lon="10.7885397"><ele>115.0</ele><time>2026-04-08T10:55:12.644Z</time></trkpt><trkpt lat="45.4048611" lon="10.7886427"><ele>114.99999999999999</ele><time>2026-04-08T10:55:13.644Z</time></trkpt><trkpt lat="45.4048621" lon="10.7887595"><ele>114.99999999999999</ele><time>2026-04-08T10:55:14.645Z</time></trkpt><trkpt lat="45.404865" lon="10.7888962"><ele>114.2</ele><time>2026-04-08T10:55:15.644Z</time></trkpt><trkpt lat="45.4048699" lon="10.7890407"><ele>113.4</ele><time>2026-04-08T10:55:16.645Z</time></trkpt><trkpt lat="45.4048785" lon="10.7891811"><ele>112.6</ele><time>2026-04-08T10:55:17.644Z</time></trkpt><trkpt lat="45.4048897" lon="10.7893238"><ele>111.8</ele><time>2026-04-08T10:55:18.645Z</time></trkpt><trkpt lat="45.4049025" lon="10.7894636"><ele>111.0</ele><time>2026-04-08T10:55:19.644Z</time></trkpt><trkpt lat="45.4049123" lon="10.789586"><ele>111.0</ele><time>2026-04-08T10:55:20.645Z</time></trkpt><trkpt lat="45.4049142" lon="10.7897078"><ele>111.0</ele><time>2026-04-08T10:55:21.645Z</time></trkpt><trkpt lat="45.4049108" lon="10.7898454"><ele>111.0</ele><time>2026-04-08T10:55:22.644Z</time></trkpt><trkpt lat="45.4049048" lon="10.7899986"><ele>111.0</ele><time>2026-04-08T10:55:23.645Z</time></trkpt><trkpt lat="45.4049007" lon="10.7901605"><ele>111.0</ele><time>2026-04-08T10:55:24.645Z</time></trkpt><trkpt lat="45.4049008" lon="10.7903347"><ele>110.8</ele><time>2026-04-08T10:55:25.645Z</time></trkpt><trkpt lat="45.4049034" lon="10.7905082"><ele>110.6</ele><time>2026-04-08T10:55:26.645Z</time></trkpt><trkpt lat="45.4049096" lon="10.7906671"><ele>110.4</ele><time>2026-04-08T10:55:27.645Z</time></trkpt><trkpt lat="45.4049141" lon="10.7908108"><ele>110.2</ele><time>2026-04-08T10:55:28.644Z</time></trkpt><trkpt lat="45.4049188" lon="10.7909465"><ele>110.0</ele><time>2026-04-08T10:55:29.644Z</time></trkpt><trkpt lat="45.4049196" lon="10.7910795"><ele>110.33333333333333</ele><time>2026-04-08T10:55:30.644Z</time></trkpt><trkpt lat="45.4049166" lon="10.7912022"><ele>110.66666666666666</ele><time>2026-04-08T10:55:31.644Z</time></trkpt><trkpt lat="45.4049131" lon="10.7913055"><ele>111.0</ele><time>2026-04-08T10:55:32.645Z</time></trkpt><trkpt lat="45.404941" lon="10.7914364"><ele>111.33333333333334</ele><time>2026-04-08T10:55:34.645Z</time></trkpt><trkpt lat="45.4050265" lon="10.7915089"><ele>111.66666666666667</ele><time>2026-04-08T10:55:36.644Z</time></trkpt><trkpt lat="45.4050946" lon="10.7915138"><ele>112.0</ele><time>2026-04-08T10:55:37.644Z</time></trkpt><trkpt lat="45.4051795" lon="10.7915046"><ele>112.0</ele><time>2026-04-08T10:55:38.644Z</time></trkpt><trkpt lat="45.4052742" lon="10.7914927"><ele>111.99999999999999</ele><time>2026-04-08T10:55:39.645Z</time></trkpt><trkpt lat="45.4053794" lon="10.7914863"><ele>111.99999999999999</ele><time>2026-04-08T10:55:40.644Z</time></trkpt><trkpt lat="45.4054925" lon="10.7914785"><ele>112.0</ele><time>2026-04-08T10:55:41.645Z</time></trkpt><trkpt lat="45.4056092" lon="10.7914672"><ele>112.0</ele><time>2026-04-08T10:55:42.644Z</time></trkpt><trkpt lat="45.405725" lon="10.7914576"><ele>112.19999999999999</ele><time>2026-04-08T10:55:43.644Z</time></trkpt><trkpt lat="45.4058403" lon="10.7914459"><ele>112.39999999999999</ele><time>2026-04-08T10:55:44.644Z</time></trkpt><trkpt lat="45.4059486" lon="10.791436"><ele>112.60000000000001</ele><time>2026-04-08T10:55:45.644Z</time></trkpt><trkpt lat="45.4060443" lon="10.7914287"><ele>112.80000000000001</ele><time>2026-04-08T10:55:46.645Z</time></trkpt><trkpt lat="45.4061375" lon="10.7914191"><ele>113.0</ele><time>2026-04-08T10:55:47.644Z</time></trkpt><trkpt lat="45.4062295" lon="10.7914084"><ele>112.99999999999999</ele><time>2026-04-08T10:55:48.644Z</time></trkpt><trkpt lat="45.4063192" lon="10.791403"><ele>113.0</ele><time>2026-04-08T10:55:49.645Z</time></trkpt><trkpt lat="45.4064076" lon="10.7913988"><ele>113.0</ele><time>2026-04-08T10:55:50.644Z</time></trkpt><trkpt lat="45.4064938" lon="10.7913942"><ele>113.0</ele><time>2026-04-08T10:55:51.644Z</time></trkpt><trkpt lat="45.4065796" lon="10.79139"><ele>112.99999999999999</ele><time>2026-04-08T10:55:52.644Z</time></trkpt><trkpt lat="45.4066633" lon="10.7913821"><ele>113.0</ele><time>2026-04-08T10:55:53.644Z</time></trkpt><trkpt lat="45.4067509" lon="10.7913768"><ele>112.83333333333333</ele><time>2026-04-08T10:55:54.645Z</time></trkpt><trkpt lat="45.4068399" lon="10.7913711"><ele>112.66666666666666</ele><time>2026-04-08T10:55:55.644Z</time></trkpt><trkpt lat="45.4069297" lon="10.7913702"><ele>112.5</ele><time>2026-04-08T10:55:56.644Z</time></trkpt><trkpt lat="45.4070151" lon="10.7913687"><ele>112.33333333333334</ele><time>2026-04-08T10:55:57.644Z</time></trkpt><trkpt lat="45.4071007" lon="10.7913584"><ele>112.16666666666667</ele><time>2026-04-08T10:55:58.645Z</time></trkpt><trkpt lat="45.4071974" lon="10.7913487"><ele>112.0</ele><time>2026-04-08T10:55:59.644Z</time></trkpt><trkpt lat="45.4072969" lon="10.7913368"><ele>112.0</ele><time>2026-04-08T10:56:00.645Z</time></trkpt><trkpt lat="45.4074038" lon="10.7913303"><ele>112.0</ele><time>2026-04-08T10:56:01.645Z</time></trkpt><trkpt lat="45.4075171" lon="10.791328"><ele>112.0</ele><time>2026-04-08T10:56:02.645Z</time></trkpt><trkpt lat="45.4076384" lon="10.7913227"><ele>112.0</ele><time>2026-04-08T10:56:03.645Z</time></trkpt><trkpt lat="45.4077678" lon="10.7913159"><ele>112.0</ele><time>2026-04-08T10:56:04.645Z</time></trkpt><trkpt lat="45.4079025" lon="10.7913046"><ele>112.0</ele><time>2026-04-08T10:56:05.645Z</time></trkpt><trkpt lat="45.4080424" lon="10.791291"><ele>112.0</ele><time>2026-04-08T10:56:06.645Z</time></trkpt><trkpt lat="45.4081882" lon="10.7912851"><ele>112.0</ele><time>2026-04-08T10:56:07.644Z</time></trkpt><trkpt lat="45.408327" lon="10.7912784"><ele>112.25</ele><time>2026-04-08T10:56:08.644Z</time></trkpt><trkpt lat="45.4084514" lon="10.7912739"><ele>112.5</ele><time>2026-04-08T10:56:09.644Z</time></trkpt><trkpt lat="45.4085706" lon="10.7912656"><ele>112.75</ele><time>2026-04-08T10:56:10.645Z</time></trkpt><trkpt lat="45.4086823" lon="10.7912645"><ele>113.0</ele><time>2026-04-08T10:56:11.645Z</time></trkpt><trkpt lat="45.4087872" lon="10.7912556"><ele>112.99999999999999</ele><time>2026-04-08T10:56:12.644Z</time></trkpt><trkpt lat="45.4088849" lon="10.7912456"><ele>113.0</ele><time>2026-04-08T10:56:13.644Z</time></trkpt><trkpt lat="45.4089765" lon="10.7912362"><ele>113.0</ele><time>2026-04-08T10:56:14.645Z</time></trkpt><trkpt lat="45.4090614" lon="10.791233"><ele>113.0</ele><time>2026-04-08T10:56:15.644Z</time></trkpt><trkpt lat="45.4091362" lon="10.7912261"><ele>112.99999999999999</ele><time>2026-04-08T10:56:16.644Z</time></trkpt><trkpt lat="45.4091995" lon="10.7912251"><ele>113.0</ele><time>2026-04-08T10:56:17.644Z</time></trkpt><trkpt lat="45.4092744" lon="10.7912227"><ele>112.99999999999999</ele><time>2026-04-08T10:56:19.645Z</time></trkpt><trkpt lat="45.4093147" lon="10.7911208"><ele>113.0</ele><time>2026-04-08T10:56:24.644Z</time></trkpt><trkpt lat="45.4093125" lon="10.791031"><ele>113.0</ele><time>2026-04-08T10:56:25.645Z</time></trkpt><trkpt lat="45.4092977" lon="10.7909249"><ele>113.0</ele><time>2026-04-08T10:56:26.645Z</time></trkpt><trkpt lat="45.4092825" lon="10.7907949"><ele>112.99999999999999</ele><time>2026-04-08T10:56:27.644Z</time></trkpt><trkpt lat="45.4092764" lon="10.7906613"><ele>113.0</ele><time>2026-04-08T10:56:28.645Z</time></trkpt><trkpt lat="45.4092671" lon="10.7905495"><ele>113.2</ele><time>2026-04-08T10:56:29.644Z</time></trkpt><trkpt lat="45.4092616" lon="10.7904507"><ele>113.4</ele><time>2026-04-08T10:56:30.645Z</time></trkpt><trkpt lat="45.4093145" lon="10.7903064"><ele>113.60000000000001</ele><time>2026-04-08T10:56:32.644Z</time></trkpt><trkpt lat="45.4094182" lon="10.7902128"><ele>113.80000000000001</ele><time>2026-04-08T10:56:34.645Z</time></trkpt><trkpt lat="45.4094818" lon="10.7901469"><ele>114.0</ele><time>2026-04-08T10:56:35.644Z</time></trkpt><trkpt lat="45.4095549" lon="10.7900753"><ele>114.2</ele><time>2026-04-08T10:56:36.645Z</time></trkpt><trkpt lat="45.4096378" lon="10.7900078"><ele>114.4</ele><time>2026-04-08T10:56:37.644Z</time></trkpt><trkpt lat="45.4097327" lon="10.7899326"><ele>114.6</ele><time>2026-04-08T10:56:38.644Z</time></trkpt><trkpt lat="45.4098314" lon="10.7898507"><ele>114.8</ele><time>2026-04-08T10:56:39.645Z</time></trkpt><trkpt lat="45.4099311" lon="10.7897605"><ele>115.0</ele><time>2026-04-08T10:56:40.645Z</time></trkpt><trkpt lat="45.410032" lon="10.7896642"><ele>115.0</ele><time>2026-04-08T10:56:41.645Z</time></trkpt><trkpt lat="45.410138" lon="10.789567"><ele>115.0</ele><time>2026-04-08T10:56:42.645Z</time></trkpt><trkpt lat="45.4102388" lon="10.7894777"><ele>115.0</ele><time>2026-04-08T10:56:43.594Z</time></trkpt><trkpt lat="45.4103333" lon="10.7893875"><ele>115.0</ele><time>2026-04-08T10:56:44.594Z</time></trkpt><trkpt lat="45.41042" lon="10.7892993"><ele>115.4</ele><time>2026-04-08T10:56:45.594Z</time></trkpt><trkpt lat="45.4105078" lon="10.7892123"><ele>115.8</ele><time>2026-04-08T10:56:46.595Z</time></trkpt><trkpt lat="45.4105963" lon="10.789131"><ele>116.19999999999999</ele><time>2026-04-08T10:56:47.595Z</time></trkpt><trkpt lat="45.4106835" lon="10.7890514"><ele>116.6</ele><time>2026-04-08T10:56:48.594Z</time></trkpt><trkpt lat="45.4107703" lon="10.7889747"><ele>117.0</ele><time>2026-04-08T10:56:49.595Z</time></trkpt><trkpt lat="45.4108549" lon="10.7889007"><ele>117.0</ele><time>2026-04-08T10:56:50.594Z</time></trkpt><trkpt lat="45.4109467" lon="10.7888248"><ele>116.99999999999999</ele><time>2026-04-08T10:56:51.595Z</time></trkpt><trkpt lat="45.4110337" lon="10.7887461"><ele>116.99999999999999</ele><time>2026-04-08T10:56:52.594Z</time></trkpt><trkpt lat="45.4111124" lon="10.7886538"><ele>117.0</ele><time>2026-04-08T10:56:53.595Z</time></trkpt><trkpt lat="45.411192" lon="10.7885606"><ele>117.0</ele><time>2026-04-08T10:56:54.594Z</time></trkpt><trkpt lat="45.4112679" lon="10.7884587"><ele>117.19999999999999</ele><time>2026-04-08T10:56:55.595Z</time></trkpt><trkpt lat="45.4113445" lon="10.7883606"><ele>117.39999999999999</ele><time>2026-04-08T10:56:56.595Z</time></trkpt><trkpt lat="45.41142" lon="10.788265"><ele>117.60000000000001</ele><time>2026-04-08T10:56:57.594Z</time></trkpt><trkpt lat="45.4114993" lon="10.7881772"><ele>117.80000000000001</ele><time>2026-04-08T10:56:58.594Z</time></trkpt><trkpt lat="45.4115756" lon="10.7880916"><ele>118.0</ele><time>2026-04-08T10:56:59.594Z</time></trkpt><trkpt lat="45.4116486" lon="10.7880117"><ele>118.0</ele><time>2026-04-08T10:57:00.595Z</time></trkpt><trkpt lat="45.4117268" lon="10.7879348"><ele>118.00000000000001</ele><time>2026-04-08T10:57:01.594Z</time></trkpt><trkpt lat="45.4118089" lon="10.7878613"><ele>118.00000000000001</ele><time>2026-04-08T10:57:02.594Z</time></trkpt><trkpt lat="45.4118931" lon="10.7877889"><ele>118.0</ele><time>2026-04-08T10:57:03.594Z</time></trkpt><trkpt lat="45.4119715" lon="10.7877206"><ele>118.0</ele><time>2026-04-08T10:57:04.594Z</time></trkpt><trkpt lat="45.4120358" lon="10.7876426"><ele>118.0</ele><time>2026-04-08T10:57:05.595Z</time></trkpt><trkpt lat="45.4120924" lon="10.7875536"><ele>118.00000000000001</ele><time>2026-04-08T10:57:06.595Z</time></trkpt><trkpt lat="45.4121368" lon="10.7874433"><ele>118.00000000000001</ele><time>2026-04-08T10:57:07.596Z</time></trkpt><trkpt lat="45.4121692" lon="10.7873156"><ele>118.0</ele><time>2026-04-08T10:57:08.596Z</time></trkpt><trkpt lat="45.4121976" lon="10.7871756"><ele>118.0</ele><time>2026-04-08T10:57:09.596Z</time></trkpt><trkpt lat="45.4122288" lon="10.7870349"><ele>118.0</ele><time>2026-04-08T10:57:10.596Z</time></trkpt><trkpt lat="45.4122592" lon="10.7869087"><ele>118.00000000000001</ele><time>2026-04-08T10:57:11.596Z</time></trkpt><trkpt lat="45.4123036" lon="10.7867917"><ele>118.00000000000001</ele><time>2026-04-08T10:57:12.595Z</time></trkpt><trkpt lat="45.4123677" lon="10.7866882"><ele>118.0</ele><time>2026-04-08T10:57:13.596Z</time></trkpt><trkpt lat="45.4124439" lon="10.7865817"><ele>118.0</ele><time>2026-04-08T10:57:14.596Z</time></trkpt><trkpt lat="45.4125241" lon="10.7864709"><ele>118.0</ele><time>2026-04-08T10:57:15.595Z</time></trkpt><trkpt lat="45.4126104" lon="10.7863531"><ele>118.0</ele><time>2026-04-08T10:57:16.596Z</time></trkpt><trkpt lat="45.4127025" lon="10.786228"><ele>118.0</ele><time>2026-04-08T10:57:17.596Z</time></trkpt><trkpt lat="45.4127998" lon="10.7860962"><ele>118.0</ele><time>2026-04-08T10:57:18.595Z</time></trkpt><trkpt lat="45.4128936" lon="10.78597"><ele>118.0</ele><time>2026-04-08T10:57:19.595Z</time></trkpt><trkpt lat="45.4129822" lon="10.7858531"><ele>118.0</ele><time>2026-04-08T10:57:20.596Z</time></trkpt><trkpt lat="45.4130609" lon="10.7857297"><ele>118.0</ele><time>2026-04-08T10:57:21.595Z</time></trkpt><trkpt lat="45.413138" lon="10.7856063"><ele>118.0</ele><time>2026-04-08T10:57:22.595Z</time></trkpt><trkpt lat="45.4132133" lon="10.7854783"><ele>118.25</ele><time>2026-04-08T10:57:23.595Z</time></trkpt><trkpt lat="45.4132919" lon="10.7853502"><ele>118.5</ele><time>2026-04-08T10:57:24.595Z</time></trkpt><trkpt lat="45.4133711" lon="10.7852205"><ele>118.75</ele><time>2026-04-08T10:57:25.595Z</time></trkpt><trkpt lat="45.413453" lon="10.7850875"><ele>119.0</ele><time>2026-04-08T10:57:26.595Z</time></trkpt><trkpt lat="45.413531" lon="10.7849593"><ele>119.6</ele><time>2026-04-08T10:57:27.596Z</time></trkpt><trkpt lat="45.4136033" lon="10.7848313"><ele>120.2</ele><time>2026-04-08T10:57:28.596Z</time></trkpt><trkpt lat="45.4136732" lon="10.7847074"><ele>120.79999999999998</ele><time>2026-04-08T10:57:29.595Z</time></trkpt><trkpt lat="45.4137358" lon="10.784608"><ele>121.39999999999999</ele><time>2026-04-08T10:57:30.596Z</time></trkpt><trkpt lat="45.4137953" lon="10.7845109"><ele>122.0</ele><time>2026-04-08T10:57:31.595Z</time></trkpt><trkpt lat="45.413851" lon="10.7844161"><ele>122.8</ele><time>2026-04-08T10:57:32.596Z</time></trkpt><trkpt lat="45.4138994" lon="10.7843273"><ele>123.6</ele><time>2026-04-08T10:57:33.595Z</time></trkpt><trkpt lat="45.4139408" lon="10.7842524"><ele>124.39999999999999</ele><time>2026-04-08T10:57:34.596Z</time></trkpt><trkpt lat="45.4140272" lon="10.7841879"><ele>125.19999999999999</ele><time>2026-04-08T10:57:36.596Z</time></trkpt><trkpt lat="45.4141433" lon="10.7842239"><ele>126.0</ele><time>2026-04-08T10:57:38.595Z</time></trkpt><trkpt lat="45.4142256" lon="10.7842737"><ele>126.0</ele><time>2026-04-08T10:57:39.596Z</time></trkpt><trkpt lat="45.4143145" lon="10.784337"><ele>126.0</ele><time>2026-04-08T10:57:40.596Z</time></trkpt><trkpt lat="45.4144057" lon="10.7844061"><ele>126.0</ele><time>2026-04-08T10:57:41.596Z</time></trkpt><trkpt lat="45.4145048" lon="10.7844759"><ele>126.0</ele><time>2026-04-08T10:57:42.595Z</time></trkpt><trkpt lat="45.4146116" lon="10.7845412"><ele>126.0</ele><time>2026-04-08T10:57:43.595Z</time></trkpt><trkpt lat="45.4147231" lon="10.7846136"><ele>125.0</ele><time>2026-04-08T10:57:44.596Z</time></trkpt><trkpt lat="45.4148397" lon="10.7846873"><ele>124.0</ele><time>2026-04-08T10:57:45.595Z</time></trkpt><trkpt lat="45.4149568" lon="10.7847674"><ele>123.0</ele><time>2026-04-08T10:57:46.596Z</time></trkpt><trkpt lat="45.4150749" lon="10.7848466"><ele>122.0</ele><time>2026-04-08T10:57:47.595Z</time></trkpt><trkpt lat="45.4151928" lon="10.7849259"><ele>122.0</ele><time>2026-04-08T10:57:48.596Z</time></trkpt><trkpt lat="45.4153051" lon="10.7850023"><ele>122.0</ele><time>2026-04-08T10:57:49.595Z</time></trkpt><trkpt lat="45.4154154" lon="10.7850733"><ele>122.0</ele><time>2026-04-08T10:57:50.595Z</time></trkpt><trkpt lat="45.4155252" lon="10.7851453"><ele>122.0</ele><time>2026-04-08T10:57:51.595Z</time></trkpt><trkpt lat="45.4156345" lon="10.7852183"><ele>121.75</ele><time>2026-04-08T10:57:52.596Z</time></trkpt><trkpt lat="45.4157479" lon="10.785292"><ele>121.5</ele><time>2026-04-08T10:57:53.595Z</time></trkpt><trkpt lat="45.4158692" lon="10.7853725"><ele>121.25</ele><time>2026-04-08T10:57:54.596Z</time></trkpt><trkpt lat="45.4159995" lon="10.7854541"><ele>121.0</ele><time>2026-04-08T10:57:55.595Z</time></trkpt><trkpt lat="45.4161216" lon="10.7855258"><ele>121.0</ele><time>2026-04-08T10:57:56.596Z</time></trkpt><trkpt lat="45.4162335" lon="10.7855937"><ele>121.0</ele><time>2026-04-08T10:57:57.596Z</time></trkpt><trkpt lat="45.4163352" lon="10.7856631"><ele>121.0</ele><time>2026-04-08T10:57:58.597Z</time></trkpt><trkpt lat="45.4164299" lon="10.7857309"><ele>121.0</ele><time>2026-04-08T10:57:59.597Z</time></trkpt><trkpt lat="45.4165251" lon="10.785796"><ele>121.0</ele><time>2026-04-08T10:58:00.597Z</time></trkpt><trkpt lat="45.4166279" lon="10.7858613"><ele>121.0</ele><time>2026-04-08T10:58:01.596Z</time></trkpt><trkpt lat="45.4167323" lon="10.7859327"><ele>121.0</ele><time>2026-04-08T10:58:02.597Z</time></trkpt><trkpt lat="45.4168333" lon="10.7860043"><ele>121.0</ele><time>2026-04-08T10:58:03.596Z</time></trkpt><trkpt lat="45.416934" lon="10.7860782"><ele>121.0</ele><time>2026-04-08T10:58:04.597Z</time></trkpt><trkpt lat="45.4170377" lon="10.7861488"><ele>121.0</ele><time>2026-04-08T10:58:05.597Z</time></trkpt><trkpt lat="45.4171439" lon="10.7862176"><ele>121.0</ele><time>2026-04-08T10:58:06.596Z</time></trkpt><trkpt lat="45.4172512" lon="10.786287"><ele>121.0</ele><time>2026-04-08T10:58:07.596Z</time></trkpt><trkpt lat="45.4173597" lon="10.7863561"><ele>121.0</ele><time>2026-04-08T10:58:08.596Z</time></trkpt><trkpt lat="45.4174695" lon="10.7864193"><ele>122.0</ele><time>2026-04-08T10:58:09.596Z</time></trkpt><trkpt lat="45.4175791" lon="10.7864864"><ele>123.0</ele><time>2026-04-08T10:58:10.597Z</time></trkpt><trkpt lat="45.4176884" lon="10.7865547"><ele>124.0</ele><time>2026-04-08T10:58:11.597Z</time></trkpt><trkpt lat="45.4177984" lon="10.7866287"><ele>125.0</ele><time>2026-04-08T10:58:12.597Z</time></trkpt><trkpt lat="45.4179098" lon="10.786707"><ele>125.0</ele><time>2026-04-08T10:58:13.597Z</time></trkpt><trkpt lat="45.4180232" lon="10.7867834"><ele>125.0</ele><time>2026-04-08T10:58:14.597Z</time></trkpt><trkpt lat="45.4181385" lon="10.7868597"><ele>125.0</ele><time>2026-04-08T10:58:15.597Z</time></trkpt><trkpt lat="45.4182574" lon="10.7869408"><ele>125.0</ele><time>2026-04-08T10:58:16.596Z</time></trkpt><trkpt lat="45.4183758" lon="10.7870301"><ele>125.0</ele><time>2026-04-08T10:58:17.597Z</time></trkpt><trkpt lat="45.4184916" lon="10.7871134"><ele>125.0</ele><time>2026-04-08T10:58:18.596Z</time></trkpt><trkpt lat="45.4185984" lon="10.7871853"><ele>125.0</ele><time>2026-04-08T10:58:19.596Z</time></trkpt><trkpt lat="45.4186995" lon="10.7872444"><ele>125.0</ele><time>2026-04-08T10:58:20.596Z</time></trkpt><trkpt lat="45.4187958" lon="10.7872971"><ele>124.66666666666666</ele><time>2026-04-08T10:58:21.597Z</time></trkpt><trkpt lat="45.4188862" lon="10.7873385"><ele>124.33333333333333</ele><time>2026-04-08T10:58:22.596Z</time></trkpt><trkpt lat="45.4189669" lon="10.7873747"><ele>124.0</ele><time>2026-04-08T10:58:23.596Z</time></trkpt><trkpt lat="45.4190343" lon="10.7873998"><ele>123.66666666666666</ele><time>2026-04-08T10:58:24.597Z</time></trkpt><trkpt lat="45.4191476" lon="10.7873888"><ele>123.33333333333333</ele><time>2026-04-08T10:58:26.597Z</time></trkpt><trkpt lat="45.4192141" lon="10.7873242"><ele>123.0</ele><time>2026-04-08T10:58:28.597Z</time></trkpt><trkpt lat="45.4192443" lon="10.7871711"><ele>123.0</ele><time>2026-04-08T10:58:30.596Z</time></trkpt><trkpt lat="45.4192574" lon="10.7870801"><ele>123.00000000000001</ele><time>2026-04-08T10:58:31.597Z</time></trkpt><trkpt lat="45.4193136" lon="10.7869604"><ele>123.00000000000001</ele><time>2026-04-08T10:58:33.596Z</time></trkpt><trkpt lat="45.4194003" lon="10.7869568"><ele>123.0</ele><time>2026-04-08T10:58:35.596Z</time></trkpt><trkpt lat="45.4195189" lon="10.787025"><ele>123.0</ele><time>2026-04-08T10:58:37.597Z</time></trkpt><trkpt lat="45.4195896" lon="10.7870765"><ele>123.4</ele><time>2026-04-08T10:58:38.596Z</time></trkpt><trkpt lat="45.4196689" lon="10.7871212"><ele>123.80000000000001</ele><time>2026-04-08T10:58:39.596Z</time></trkpt><trkpt lat="45.4197555" lon="10.7871651"><ele>124.2</ele><time>2026-04-08T10:58:40.596Z</time></trkpt><trkpt lat="45.4198466" lon="10.7872156"><ele>124.6</ele><time>2026-04-08T10:58:41.596Z</time></trkpt><trkpt lat="45.4199435" lon="10.7872763"><ele>125.0</ele><time>2026-04-08T10:58:42.597Z</time></trkpt><trkpt lat="45.420039" lon="10.7873492"><ele>125.0</ele><time>2026-04-08T10:58:43.596Z</time></trkpt><trkpt lat="45.4201292" lon="10.7874448"><ele>125.0</ele><time>2026-04-08T10:58:44.597Z</time></trkpt><trkpt lat="45.4202183" lon="10.7875651"><ele>125.0</ele><time>2026-04-08T10:58:45.597Z</time></trkpt><trkpt lat="45.420304" lon="10.787699"><ele>125.0</ele><time>2026-04-08T10:58:46.596Z</time></trkpt><trkpt lat="45.4203859" lon="10.787821"><ele>124.75</ele><time>2026-04-08T10:58:47.597Z</time></trkpt><trkpt lat="45.4204693" lon="10.7879356"><ele>124.5</ele><time>2026-04-08T10:58:48.598Z</time></trkpt><trkpt lat="45.4205591" lon="10.7880449"><ele>124.25</ele><time>2026-04-08T10:58:49.597Z</time></trkpt><trkpt lat="45.4206548" lon="10.7881459"><ele>124.0</ele><time>2026-04-08T10:58:50.598Z</time></trkpt><trkpt lat="45.4207573" lon="10.7882436"><ele>125.25</ele><time>2026-04-08T10:58:51.597Z</time></trkpt><trkpt lat="45.420858" lon="10.7883496"><ele>126.5</ele><time>2026-04-08T10:58:52.598Z</time></trkpt><trkpt lat="45.4209584" lon="10.7884586"><ele>127.75</ele><time>2026-04-08T10:58:53.597Z</time></trkpt><trkpt lat="45.4210458" lon="10.7885568"><ele>129.0</ele><time>2026-04-08T10:58:54.597Z</time></trkpt><trkpt lat="45.4211217" lon="10.788646"><ele>129.0</ele><time>2026-04-08T10:58:55.598Z</time></trkpt><trkpt lat="45.4211919" lon="10.7887337"><ele>129.0</ele><time>2026-04-08T10:58:56.597Z</time></trkpt><trkpt lat="45.4212541" lon="10.7888095"><ele>129.0</ele><time>2026-04-08T10:58:57.597Z</time></trkpt><trkpt lat="45.4213187" lon="10.7888844"><ele>129.0</ele><time>2026-04-08T10:58:58.597Z</time></trkpt><trkpt lat="45.4213883" lon="10.7889607"><ele>129.0</ele><time>2026-04-08T10:58:59.598Z</time></trkpt><trkpt lat="45.4214514" lon="10.7890555"><ele>129.0</ele><time>2026-04-08T10:59:00.597Z</time></trkpt><trkpt lat="45.4215188" lon="10.7891596"><ele>129.2</ele><time>2026-04-08T10:59:01.597Z</time></trkpt><trkpt lat="45.4215891" lon="10.7892606"><ele>129.4</ele><time>2026-04-08T10:59:02.597Z</time></trkpt><trkpt lat="45.4216569" lon="10.7893757"><ele>129.6</ele><time>2026-04-08T10:59:03.597Z</time></trkpt><trkpt lat="45.4217217" lon="10.7895112"><ele>129.8</ele><time>2026-04-08T10:59:04.597Z</time></trkpt><trkpt lat="45.4217792" lon="10.7896548"><ele>130.0</ele><time>2026-04-08T10:59:05.597Z</time></trkpt><trkpt lat="45.4218306" lon="10.7897991"><ele>130.16666666666669</ele><time>2026-04-08T10:59:06.597Z</time></trkpt><trkpt lat="45.4218829" lon="10.7899315"><ele>130.33333333333334</ele><time>2026-04-08T10:59:07.598Z</time></trkpt><trkpt lat="45.4219288" lon="10.790052"><ele>130.5</ele><time>2026-04-08T10:59:08.597Z</time></trkpt><trkpt lat="45.4219641" lon="10.7901651"><ele>130.66666666666666</ele><time>2026-04-08T10:59:09.597Z</time></trkpt><trkpt lat="45.4219932" lon="10.7902702"><ele>130.83333333333331</ele><time>2026-04-08T10:59:10.598Z</time></trkpt><trkpt lat="45.4220271" lon="10.7903573"><ele>131.0</ele><time>2026-04-08T10:59:11.597Z</time></trkpt><trkpt lat="45.4221061" lon="10.7904841"><ele>131.0</ele><time>2026-04-08T10:59:13.598Z</time></trkpt><trkpt lat="45.4222024" lon="10.7904803"><ele>131.0</ele><time>2026-04-08T10:59:15.597Z</time></trkpt><trkpt lat="45.4222574" lon="10.7904311"><ele>131.0</ele><time>2026-04-08T10:59:16.597Z</time></trkpt><trkpt lat="45.4223315" lon="10.7903914"><ele>131.0</ele><time>2026-04-08T10:59:17.597Z</time></trkpt><trkpt lat="45.4224151" lon="10.7903648"><ele>131.0</ele><time>2026-04-08T10:59:18.597Z</time></trkpt><trkpt lat="45.4225108" lon="10.7903544"><ele>131.0</ele><time>2026-04-08T10:59:19.597Z</time></trkpt><trkpt lat="45.4226102" lon="10.7903495"><ele>131.0</ele><time>2026-04-08T10:59:20.597Z</time></trkpt><trkpt lat="45.4227128" lon="10.790339"><ele>131.0</ele><time>2026-04-08T10:59:21.597Z</time></trkpt><trkpt lat="45.4228248" lon="10.7903203"><ele>131.0</ele><time>2026-04-08T10:59:22.597Z</time></trkpt><trkpt lat="45.4229422" lon="10.7902857"><ele>131.0</ele><time>2026-04-08T10:59:23.597Z</time></trkpt><trkpt lat="45.4230592" lon="10.7902422"><ele>130.8</ele><time>2026-04-08T10:59:24.598Z</time></trkpt><trkpt lat="45.423174" lon="10.7902084"><ele>130.6</ele><time>2026-04-08T10:59:25.597Z</time></trkpt><trkpt lat="45.4232825" lon="10.790185"><ele>130.4</ele><time>2026-04-08T10:59:26.597Z</time></trkpt><trkpt lat="45.4233816" lon="10.7901645"><ele>130.2</ele><time>2026-04-08T10:59:27.597Z</time></trkpt><trkpt lat="45.4234773" lon="10.7901376"><ele>130.0</ele><time>2026-04-08T10:59:28.597Z</time></trkpt><trkpt lat="45.4235738" lon="10.7901086"><ele>130.0</ele><time>2026-04-08T10:59:29.597Z</time></trkpt><trkpt lat="45.4236696" lon="10.7900887"><ele>130.0</ele><time>2026-04-08T10:59:30.598Z</time></trkpt><trkpt lat="45.4237602" lon="10.7900581"><ele>130.0</ele><time>2026-04-08T10:59:31.598Z</time></trkpt><trkpt lat="45.4238373" lon="10.7900105"><ele>130.0</ele><time>2026-04-08T10:59:32.597Z</time></trkpt><trkpt lat="45.4238996" lon="10.7899598"><ele>130.0</ele><time>2026-04-08T10:59:33.597Z</time></trkpt><trkpt lat="45.4239916" lon="10.7899659"><ele>130.0</ele><time>2026-04-08T10:59:35.598Z</time></trkpt><trkpt lat="45.424028" lon="10.7900908"><ele>130.16666666666669</ele><time>2026-04-08T10:59:37.598Z</time></trkpt><trkpt lat="45.4240392" lon="10.7901857"><ele>130.33333333333334</ele><time>2026-04-08T10:59:38.599Z</time></trkpt><trkpt lat="45.4240481" lon="10.7902962"><ele>130.5</ele><time>2026-04-08T10:59:39.598Z</time></trkpt><trkpt lat="45.4240557" lon="10.7904214"><ele>130.66666666666666</ele><time>2026-04-08T10:59:40.598Z</time></trkpt><trkpt lat="45.4240654" lon="10.790556"><ele>130.83333333333331</ele><time>2026-04-08T10:59:41.598Z</time></trkpt><trkpt lat="45.4240785" lon="10.7907036"><ele>131.0</ele><time>2026-04-08T10:59:42.598Z</time></trkpt><trkpt lat="45.4240946" lon="10.7908516"><ele>131.0</ele><time>2026-04-08T10:59:43.598Z</time></trkpt><trkpt lat="45.424108" lon="10.7910001"><ele>131.0</ele><time>2026-04-08T10:59:44.599Z</time></trkpt><trkpt lat="45.4241175" lon="10.7911523"><ele>131.0</ele><time>2026-04-08T10:59:45.599Z</time></trkpt><trkpt lat="45.4241176" lon="10.7913054"><ele>131.0</ele><time>2026-04-08T10:59:46.598Z</time></trkpt><trkpt lat="45.4241166" lon="10.7914589"><ele>131.0</ele><time>2026-04-08T10:59:47.599Z</time></trkpt><trkpt lat="45.4241158" lon="10.7916044"><ele>131.0</ele><time>2026-04-08T10:59:48.599Z</time></trkpt><trkpt lat="45.4241167" lon="10.7917448"><ele>131.0</ele><time>2026-04-08T10:59:49.599Z</time></trkpt><trkpt lat="45.4241164" lon="10.7918727"><ele>131.0</ele><time>2026-04-08T10:59:50.598Z</time></trkpt><trkpt lat="45.4241146" lon="10.7919786"><ele>131.0</ele><time>2026-04-08T10:59:51.598Z</time></trkpt><trkpt lat="45.4241508" lon="10.7921186"><ele>131.0</ele><time>2026-04-08T10:59:53.598Z</time></trkpt><trkpt lat="45.4242821" lon="10.7921784"><ele>130.6</ele><time>2026-04-08T10:59:55.598Z</time></trkpt><trkpt lat="45.4243739" lon="10.7921975"><ele>130.2</ele><time>2026-04-08T10:59:56.598Z</time></trkpt><trkpt lat="45.4244727" lon="10.7922366"><ele>129.8</ele><time>2026-04-08T10:59:57.599Z</time></trkpt><trkpt lat="45.4245777" lon="10.7922744"><ele>129.4</ele><time>2026-04-08T10:59:58.598Z</time></trkpt><trkpt lat="45.4246825" lon="10.7923059"><ele>129.0</ele><time>2026-04-08T10:59:59.598Z</time></trkpt><trkpt lat="45.4247829" lon="10.7923401"><ele>128.33333333333334</ele><time>2026-04-08T11:00:00.599Z</time></trkpt><trkpt lat="45.4248761" lon="10.7923814"><ele>127.66666666666666</ele><time>2026-04-08T11:00:01.598Z</time></trkpt><trkpt lat="45.4249581" lon="10.7924143"><ele>127.0</ele><time>2026-04-08T11:00:02.598Z</time></trkpt><trkpt lat="45.4250332" lon="10.7924363"><ele>126.33333333333333</ele><time>2026-04-08T11:00:03.599Z</time></trkpt><trkpt lat="45.4250968" lon="10.7924519"><ele>125.66666666666666</ele><time>2026-04-08T11:00:04.599Z</time></trkpt><trkpt lat="45.4251884" lon="10.7924887"><ele>125.0</ele><time>2026-04-08T11:00:06.598Z</time></trkpt><trkpt lat="45.425268" lon="10.7925092"><ele>125.0</ele><time>2026-04-08T11:00:19.598Z</time></trkpt><trkpt lat="45.4253691" lon="10.7925171"><ele>125.0</ele><time>2026-04-08T11:00:21.598Z</time></trkpt><trkpt lat="45.4254879" lon="10.7924858"><ele>125.0</ele><time>2026-04-08T11:00:23.599Z</time></trkpt><trkpt lat="45.4255622" lon="10.7924589"><ele>125.0</ele><time>2026-04-08T11:00:24.599Z</time></trkpt><trkpt lat="45.4256426" lon="10.7924312"><ele>125.0</ele><time>2026-04-08T11:00:25.598Z</time></trkpt><trkpt lat="45.4257201" lon="10.7924085"><ele>125.16666666666666</ele><time>2026-04-08T11:00:26.6Z</time></trkpt><trkpt lat="45.4257947" lon="10.7923886"><ele>125.33333333333333</ele><time>2026-04-08T11:00:27.6Z</time></trkpt><trkpt lat="45.4258643" lon="10.7923671"><ele>125.5</ele><time>2026-04-08T11:00:28.6Z</time></trkpt><trkpt lat="45.4259286" lon="10.7923493"><ele>125.66666666666666</ele><time>2026-04-08T11:00:29.6Z</time></trkpt><trkpt lat="45.4260484" lon="10.7923209"><ele>125.83333333333333</ele><time>2026-04-08T11:00:31.599Z</time></trkpt><trkpt lat="45.4261545" lon="10.7923001"><ele>126.0</ele><time>2026-04-08T11:00:33.6Z</time></trkpt><trkpt lat="45.4262394" lon="10.7923"><ele>125.6</ele><time>2026-04-08T11:00:35.599Z</time></trkpt><trkpt lat="45.4263131" lon="10.7922605"><ele>125.19999999999999</ele><time>2026-04-08T11:00:38.599Z</time></trkpt><trkpt lat="45.4264891" lon="10.7921528"><ele>124.80000000000001</ele><time>2026-04-08T11:04:21.603Z</time></trkpt><trkpt lat="45.4265622" lon="10.792131"><ele>124.4</ele><time>2026-04-08T11:04:22.603Z</time></trkpt><trkpt lat="45.426645" lon="10.7921051"><ele>124.0</ele><time>2026-04-08T11:04:23.603Z</time></trkpt><trkpt lat="45.4267404" lon="10.7920752"><ele>124.0</ele><time>2026-04-08T11:04:24.604Z</time></trkpt><trkpt lat="45.4268449" lon="10.7920444"><ele>124.0</ele><time>2026-04-08T11:04:25.603Z</time></trkpt><trkpt lat="45.4269523" lon="10.7920087"><ele>124.0</ele><time>2026-04-08T11:04:26.603Z</time></trkpt><trkpt lat="45.427067" lon="10.7919711"><ele>124.0</ele><time>2026-04-08T11:04:27.603Z</time></trkpt><trkpt lat="45.427184" lon="10.791934"><ele>124.0</ele><time>2026-04-08T11:04:28.603Z</time></trkpt><trkpt lat="45.4273076" lon="10.7918914"><ele>124.0</ele><time>2026-04-08T11:04:29.603Z</time></trkpt><trkpt lat="45.427439" lon="10.7918455"><ele>124.0</ele><time>2026-04-08T11:04:30.604Z</time></trkpt><trkpt lat="45.4275759" lon="10.7918011"><ele>124.0</ele><time>2026-04-08T11:04:31.604Z</time></trkpt><trkpt lat="45.4277174" lon="10.7917586"><ele>124.0</ele><time>2026-04-08T11:04:32.604Z</time></trkpt><trkpt lat="45.4278611" lon="10.7917155"><ele>124.0</ele><time>2026-04-08T11:04:33.603Z</time></trkpt><trkpt lat="45.4280089" lon="10.791668"><ele>124.0</ele><time>2026-04-08T11:04:34.604Z</time></trkpt><trkpt lat="45.4281607" lon="10.7916213"><ele>124.33333333333334</ele><time>2026-04-08T11:04:35.603Z</time></trkpt><trkpt lat="45.4283141" lon="10.7915706"><ele>124.66666666666666</ele><time>2026-04-08T11:04:36.603Z</time></trkpt><trkpt lat="45.4284694" lon="10.7915194"><ele>125.0</ele><time>2026-04-08T11:04:37.604Z</time></trkpt><trkpt lat="45.4286229" lon="10.7914713"><ele>125.0</ele><time>2026-04-08T11:04:38.603Z</time></trkpt><trkpt lat="45.4287798" lon="10.791416"><ele>125.0</ele><time>2026-04-08T11:04:39.604Z</time></trkpt><trkpt lat="45.4289371" lon="10.7913657"><ele>125.0</ele><time>2026-04-08T11:04:40.604Z</time></trkpt><trkpt lat="45.429088" lon="10.7913175"><ele>125.0</ele><time>2026-04-08T11:04:41.604Z</time></trkpt><trkpt lat="45.4292273" lon="10.7912712"><ele>125.0</ele><time>2026-04-08T11:04:42.603Z</time></trkpt><trkpt lat="45.4293541" lon="10.7912273"><ele>125.0</ele><time>2026-04-08T11:04:43.604Z</time></trkpt><trkpt lat="45.4294655" lon="10.7911888"><ele>125.0</ele><time>2026-04-08T11:04:44.604Z</time></trkpt><trkpt lat="45.4295646" lon="10.7911523"><ele>125.16666666666666</ele><time>2026-04-08T11:04:45.603Z</time></trkpt><trkpt lat="45.429644" lon="10.7911265"><ele>125.33333333333333</ele><time>2026-04-08T11:04:46.603Z</time></trkpt><trkpt lat="45.4297103" lon="10.7911043"><ele>125.5</ele><time>2026-04-08T11:04:47.604Z</time></trkpt><trkpt lat="45.4298012" lon="10.7911119"><ele>125.66666666666666</ele><time>2026-04-08T11:04:49.603Z</time></trkpt><trkpt lat="45.4298996" lon="10.7912032"><ele>125.83333333333333</ele><time>2026-04-08T11:04:51.603Z</time></trkpt><trkpt lat="45.4299475" lon="10.7912839"><ele>126.0</ele><time>2026-04-08T11:04:52.603Z</time></trkpt><trkpt lat="45.4299909" lon="10.7913769"><ele>126.0</ele><time>2026-04-08T11:04:53.604Z</time></trkpt><trkpt lat="45.4300376" lon="10.7914743"><ele>126.0</ele><time>2026-04-08T11:04:54.603Z</time></trkpt><trkpt lat="45.4300998" lon="10.7915625"><ele>126.0</ele><time>2026-04-08T11:04:55.604Z</time></trkpt><trkpt lat="45.4301856" lon="10.7916052"><ele>126.0</ele><time>2026-04-08T11:04:56.604Z</time></trkpt><trkpt lat="45.4302881" lon="10.791593"><ele>126.0</ele><time>2026-04-08T11:04:57.605Z</time></trkpt><trkpt lat="45.4303955" lon="10.7915533"><ele>126.25</ele><time>2026-04-08T11:04:58.605Z</time></trkpt><trkpt lat="45.4305103" lon="10.7915125"><ele>126.5</ele><time>2026-04-08T11:04:59.604Z</time></trkpt><trkpt lat="45.4306356" lon="10.7914872"><ele>126.75</ele><time>2026-04-08T11:05:00.604Z</time></trkpt><trkpt lat="45.430767" lon="10.7914698"><ele>127.0</ele><time>2026-04-08T11:05:01.604Z</time></trkpt><trkpt lat="45.4309071" lon="10.7914567"><ele>127.0</ele><time>2026-04-08T11:05:02.605Z</time></trkpt><trkpt lat="45.4310496" lon="10.7914405"><ele>127.0</ele><time>2026-04-08T11:05:03.604Z</time></trkpt><trkpt lat="45.431195" lon="10.7914239"><ele>127.0</ele><time>2026-04-08T11:05:04.605Z</time></trkpt><trkpt lat="45.4313458" lon="10.7914226"><ele>127.0</ele><time>2026-04-08T11:05:05.605Z</time></trkpt><trkpt lat="45.4314939" lon="10.7914478"><ele>126.33333333333334</ele><time>2026-04-08T11:05:06.604Z</time></trkpt><trkpt lat="45.431636" lon="10.7915044"><ele>125.66666666666666</ele><time>2026-04-08T11:05:07.604Z</time></trkpt><trkpt lat="45.4317763" lon="10.7915849"><ele>125.0</ele><time>2026-04-08T11:05:08.604Z</time></trkpt><trkpt lat="45.4319169" lon="10.7916752"><ele>125.0</ele><time>2026-04-08T11:05:09.604Z</time></trkpt><trkpt lat="45.4320589" lon="10.7917645"><ele>125.0</ele><time>2026-04-08T11:05:10.604Z</time></trkpt><trkpt lat="45.4321992" lon="10.7918562"><ele>125.0</ele><time>2026-04-08T11:05:11.604Z</time></trkpt><trkpt lat="45.4323408" lon="10.7919554"><ele>125.66666666666666</ele><time>2026-04-08T11:05:12.604Z</time></trkpt><trkpt lat="45.4324848" lon="10.7920522"><ele>126.33333333333334</ele><time>2026-04-08T11:05:13.604Z</time></trkpt><trkpt lat="45.4326351" lon="10.7921455"><ele>127.0</ele><time>2026-04-08T11:05:14.604Z</time></trkpt><trkpt lat="45.4327889" lon="10.7922268"><ele>127.0</ele><time>2026-04-08T11:05:15.604Z</time></trkpt><trkpt lat="45.4329506" lon="10.7922798"><ele>127.0</ele><time>2026-04-08T11:05:16.605Z</time></trkpt><trkpt lat="45.4331176" lon="10.7923144"><ele>127.0</ele><time>2026-04-08T11:05:17.605Z</time></trkpt><trkpt lat="45.4332855" lon="10.7923422"><ele>128.33333333333334</ele><time>2026-04-08T11:05:18.605Z</time></trkpt><trkpt lat="45.4334537" lon="10.7923679"><ele>129.66666666666666</ele><time>2026-04-08T11:05:19.604Z</time></trkpt><trkpt lat="45.4336269" lon="10.7923772"><ele>131.0</ele><time>2026-04-08T11:05:20.605Z</time></trkpt><trkpt lat="45.4338052" lon="10.79238"><ele>131.0</ele><time>2026-04-08T11:05:21.605Z</time></trkpt><trkpt lat="45.4339824" lon="10.7923742"><ele>131.0</ele><time>2026-04-08T11:05:22.605Z</time></trkpt><trkpt lat="45.4341549" lon="10.792366"><ele>131.0</ele><time>2026-04-08T11:05:23.604Z</time></trkpt><trkpt lat="45.4343312" lon="10.7923476"><ele>131.0</ele><time>2026-04-08T11:05:24.604Z</time></trkpt><trkpt lat="45.4345142" lon="10.7923402"><ele>131.0</ele><time>2026-04-08T11:05:25.605Z</time></trkpt><trkpt lat="45.434702" lon="10.7923177"><ele>131.0</ele><time>2026-04-08T11:05:26.604Z</time></trkpt><trkpt lat="45.4348891" lon="10.7922993"><ele>131.0</ele><time>2026-04-08T11:05:27.604Z</time></trkpt><trkpt lat="45.4350748" lon="10.7922746"><ele>131.0</ele><time>2026-04-08T11:05:28.604Z</time></trkpt><trkpt lat="45.4352592" lon="10.7922526"><ele>131.0</ele><time>2026-04-08T11:05:29.604Z</time></trkpt><trkpt lat="45.4354435" lon="10.792228"><ele>132.0</ele><time>2026-04-08T11:05:30.605Z</time></trkpt><trkpt lat="45.4356284" lon="10.7921978"><ele>133.0</ele><time>2026-04-08T11:05:31.605Z</time></trkpt><trkpt lat="45.4358142" lon="10.792165"><ele>134.0</ele><time>2026-04-08T11:05:32.604Z</time></trkpt><trkpt lat="45.4359984" lon="10.7921358"><ele>134.0</ele><time>2026-04-08T11:05:33.605Z</time></trkpt><trkpt lat="45.4361833" lon="10.7921146"><ele>134.0</ele><time>2026-04-08T11:05:34.604Z</time></trkpt><trkpt lat="45.4363611" lon="10.7920861"><ele>134.0</ele><time>2026-04-08T11:05:35.605Z</time></trkpt><trkpt lat="45.4365342" lon="10.7920443"><ele>133.66666666666666</ele><time>2026-04-08T11:05:36.604Z</time></trkpt><trkpt lat="45.4367145" lon="10.792023"><ele>133.33333333333334</ele><time>2026-04-08T11:05:37.604Z</time></trkpt><trkpt lat="45.4368922" lon="10.7920051"><ele>133.0</ele><time>2026-04-08T11:05:38.605Z</time></trkpt><trkpt lat="45.4370571" lon="10.7920147"><ele>133.25</ele><time>2026-04-08T11:05:39.604Z</time></trkpt><trkpt lat="45.4372078" lon="10.7920425"><ele>133.5</ele><time>2026-04-08T11:05:40.605Z</time></trkpt><trkpt lat="45.4373473" lon="10.7920705"><ele>133.75</ele><time>2026-04-08T11:05:41.604Z</time></trkpt><trkpt lat="45.4374772" lon="10.7921181"><ele>134.0</ele><time>2026-04-08T11:05:42.605Z</time></trkpt><trkpt lat="45.4376022" lon="10.7921786"><ele>134.0</ele><time>2026-04-08T11:05:43.605Z</time></trkpt><trkpt lat="45.4377247" lon="10.792253"><ele>134.0</ele><time>2026-04-08T11:05:44.604Z</time></trkpt><trkpt lat="45.4378368" lon="10.7923219"><ele>134.0</ele><time>2026-04-08T11:05:45.604Z</time></trkpt><trkpt lat="45.4379386" lon="10.792386"><ele>134.0</ele><time>2026-04-08T11:05:46.605Z</time></trkpt><trkpt lat="45.4380293" lon="10.7924415"><ele>134.33333333333331</ele><time>2026-04-08T11:05:47.604Z</time></trkpt><trkpt lat="45.4381053" lon="10.7924822"><ele>134.66666666666666</ele><time>2026-04-08T11:05:48.604Z</time></trkpt><trkpt lat="45.4381712" lon="10.7925197"><ele>135.0</ele><time>2026-04-08T11:05:49.604Z</time></trkpt><trkpt lat="45.4382337" lon="10.7925997"><ele>135.33333333333334</ele><time>2026-04-08T11:05:51.604Z</time></trkpt><trkpt lat="45.4382607" lon="10.7925161"><ele>135.66666666666669</ele><time>2026-04-08T11:05:55.605Z</time></trkpt><trkpt lat="45.4381573" lon="10.7924658"><ele>136.0</ele><time>2026-04-08T11:05:57.605Z</time></trkpt><trkpt lat="45.4380929" lon="10.7924488"><ele>136.0</ele><time>2026-04-08T11:05:58.606Z</time></trkpt><trkpt lat="45.4380334" lon="10.7924177"><ele>136.0</ele><time>2026-04-08T11:05:59.605Z</time></trkpt><trkpt lat="45.4379656" lon="10.7923799"><ele>136.0</ele><time>2026-04-08T11:06:00.606Z</time></trkpt><trkpt lat="45.4378871" lon="10.7923367"><ele>136.0</ele><time>2026-04-08T11:06:01.606Z</time></trkpt><trkpt lat="45.4378011" lon="10.7922763"><ele>136.0</ele><time>2026-04-08T11:06:02.605Z</time></trkpt><trkpt lat="45.4377129" lon="10.7922167"><ele>136.0</ele><time>2026-04-08T11:06:03.606Z</time></trkpt><trkpt lat="45.4376138" lon="10.7921546"><ele>135.6</ele><time>2026-04-08T11:06:04.605Z</time></trkpt><trkpt lat="45.4375112" lon="10.7921015"><ele>135.2</ele><time>2026-04-08T11:06:05.606Z</time></trkpt><trkpt lat="45.4374023" lon="10.7920616"><ele>134.8</ele><time>2026-04-08T11:06:06.605Z</time></trkpt><trkpt lat="45.4373007" lon="10.7920295"><ele>134.4</ele><time>2026-04-08T11:06:07.606Z</time></trkpt><trkpt lat="45.4372103" lon="10.7920105"><ele>134.0</ele><time>2026-04-08T11:06:08.605Z</time></trkpt><trkpt lat="45.4371214" lon="10.7920036"><ele>134.0</ele><time>2026-04-08T11:06:09.606Z</time></trkpt><trkpt lat="45.4370421" lon="10.7920047"><ele>134.0</ele><time>2026-04-08T11:06:10.605Z</time></trkpt><trkpt lat="45.4369716" lon="10.7920078"><ele>134.0</ele><time>2026-04-08T11:06:11.606Z</time></trkpt><trkpt lat="45.4368852" lon="10.7919661"><ele>134.0</ele><time>2026-04-08T11:06:13.606Z</time></trkpt><trkpt lat="45.4368677" lon="10.7918796"><ele>134.0</ele><time>2026-04-08T11:06:15.605Z</time></trkpt><trkpt lat="45.4368897" lon="10.7917556"><ele>134.0</ele><time>2026-04-08T11:06:17.606Z</time></trkpt><trkpt lat="45.4369504" lon="10.7916305"><ele>134.0</ele><time>2026-04-08T11:06:19.605Z</time></trkpt><trkpt lat="45.437008" lon="10.791498"><ele>134.0</ele><time>2026-04-08T11:06:21.606Z</time></trkpt><trkpt lat="45.437028" lon="10.7913462"><ele>134.0</ele><time>2026-04-08T11:06:23.606Z</time></trkpt><trkpt lat="45.4370026" lon="10.7911768"><ele>134.0</ele><time>2026-04-08T11:06:25.606Z</time></trkpt><trkpt lat="45.4369694" lon="10.7910895"><ele>134.0</ele><time>2026-04-08T11:06:26.605Z</time></trkpt><trkpt lat="45.4369277" lon="10.7910035"><ele>134.0</ele><time>2026-04-08T11:06:27.605Z</time></trkpt><trkpt lat="45.4368805" lon="10.7909137"><ele>134.0</ele><time>2026-04-08T11:06:28.606Z</time></trkpt><trkpt lat="45.4368381" lon="10.790826"><ele>134.0</ele><time>2026-04-08T11:06:29.605Z</time></trkpt><trkpt lat="45.4367925" lon="10.7907556"><ele>134.0</ele><time>2026-04-08T11:06:30.606Z</time></trkpt><trkpt lat="45.4367039" lon="10.790642"><ele>134.0</ele><time>2026-04-08T11:06:32.605Z</time></trkpt><trkpt lat="45.4366309" lon="10.7905269"><ele>134.0</ele><time>2026-04-08T11:06:34.605Z</time></trkpt><trkpt lat="45.4366252" lon="10.7904278"><ele>134.0</ele><time>2026-04-08T11:06:36.605Z</time></trkpt><trkpt lat="45.4366627" lon="10.7903399"><ele>134.0</ele><time>2026-04-08T11:06:39.605Z</time></trkpt><trkpt lat="45.4367349" lon="10.7902667"><ele>134.0</ele><time>2026-04-08T11:06:41.605Z</time></trkpt><trkpt lat="45.4367825" lon="10.7902068"><ele>134.0</ele><time>2026-04-08T11:06:42.605Z</time></trkpt><trkpt lat="45.4368661" lon="10.7900708"><ele>134.0</ele><time>2026-04-08T11:06:44.605Z</time></trkpt><trkpt lat="45.4369126" lon="10.7899982"><ele>134.0</ele><time>2026-04-08T11:06:45.605Z</time></trkpt><trkpt lat="45.4369559" lon="10.7899276"><ele>133.4</ele><time>2026-04-08T11:06:46.607Z</time></trkpt><trkpt lat="45.4370002" lon="10.7898616"><ele>132.8</ele><time>2026-04-08T11:06:47.607Z</time></trkpt><trkpt lat="45.4370859" lon="10.7897365"><ele>132.2</ele><time>2026-04-08T11:06:49.606Z</time></trkpt><trkpt lat="45.4371622" lon="10.7896227"><ele>131.6</ele><time>2026-04-08T11:06:51.606Z</time></trkpt><trkpt lat="45.4372172" lon="10.7895184"><ele>131.0</ele><time>2026-04-08T11:06:53.606Z</time></trkpt><trkpt lat="45.4372505" lon="10.7894236"><ele>130.5</ele><time>2026-04-08T11:06:56.606Z</time></trkpt><trkpt lat="45.4372796" lon="10.7893319"><ele>130.0</ele><time>2026-04-08T11:07:00.606Z</time></trkpt><trkpt lat="45.4373585" lon="10.7892939"><ele>129.5</ele><time>2026-04-08T11:07:14.606Z</time></trkpt><trkpt lat="45.437426" lon="10.789275"><ele>129.0</ele><time>2026-04-08T11:07:16.606Z</time></trkpt><trkpt lat="45.4374939" lon="10.7892564"><ele>128.5</ele><time>2026-04-08T11:07:18.606Z</time></trkpt><trkpt lat="45.4375651" lon="10.789235"><ele>128.0</ele><time>2026-04-08T11:07:21.607Z</time></trkpt><trkpt lat="45.4374588" lon="10.7892532"><ele>128.0</ele><time>2026-04-08T11:07:28.607Z</time></trkpt><trkpt lat="45.4373465" lon="10.7892998"><ele>128.0</ele><time>2026-04-08T11:07:30.606Z</time></trkpt><trkpt lat="45.4372468" lon="10.7893111"><ele>128.0</ele><time>2026-04-08T11:07:32.606Z</time></trkpt><trkpt lat="45.4371807" lon="10.7892832"><ele>128.0</ele><time>2026-04-08T11:07:34.607Z</time></trkpt><trkpt lat="45.4370927" lon="10.7892449"><ele>128.0</ele><time>2026-04-08T11:07:36.607Z</time></trkpt><trkpt lat="45.4370085" lon="10.789199"><ele>128.16666666666666</ele><time>2026-04-08T11:07:38.606Z</time></trkpt><trkpt lat="45.4369386" lon="10.7891409"><ele>128.33333333333331</ele><time>2026-04-08T11:07:40.606Z</time></trkpt><trkpt lat="45.4369115" lon="10.7890447"><ele>128.5</ele><time>2026-04-08T11:07:42.608Z</time></trkpt><trkpt lat="45.4369312" lon="10.7889367"><ele>128.66666666666666</ele><time>2026-04-08T11:07:44.607Z</time></trkpt><trkpt lat="45.4369785" lon="10.7888427"><ele>128.83333333333334</ele><time>2026-04-08T11:07:46.607Z</time></trkpt><trkpt lat="45.4370221" lon="10.7887503"><ele>129.0</ele><time>2026-04-08T11:07:48.608Z</time></trkpt><trkpt lat="45.4370376" lon="10.7886197"><ele>129.0</ele><time>2026-04-08T11:07:50.608Z</time></trkpt><trkpt lat="45.437032" lon="10.7885297"><ele>129.0</ele><time>2026-04-08T11:07:51.608Z</time></trkpt><trkpt lat="45.4370257" lon="10.7884272"><ele>129.0</ele><time>2026-04-08T11:07:52.607Z</time></trkpt><trkpt lat="45.4370193" lon="10.7883206"><ele>129.0</ele><time>2026-04-08T11:07:53.607Z</time></trkpt><trkpt lat="45.4370052" lon="10.7882227"><ele>129.0</ele><time>2026-04-08T11:07:54.607Z</time></trkpt><trkpt lat="45.4369885" lon="10.788056"><ele>129.0</ele><time>2026-04-08T11:07:56.607Z</time></trkpt><trkpt lat="45.4369693" lon="10.7879233"><ele>128.83333333333334</ele><time>2026-04-08T11:07:58.661Z</time></trkpt><trkpt lat="45.4369582" lon="10.7878333"><ele>128.66666666666666</ele><time>2026-04-08T11:07:59.661Z</time></trkpt><trkpt lat="45.436946" lon="10.7877183"><ele>128.5</ele><time>2026-04-08T11:08:00.661Z</time></trkpt><trkpt lat="45.4369412" lon="10.7875991"><ele>128.33333333333331</ele><time>2026-04-08T11:08:01.661Z</time></trkpt><trkpt lat="45.436945" lon="10.7874812"><ele>128.16666666666666</ele><time>2026-04-08T11:08:02.661Z</time></trkpt><trkpt lat="45.436957" lon="10.7873666"><ele>128.0</ele><time>2026-04-08T11:08:03.66Z</time></trkpt><trkpt lat="45.4369803" lon="10.7872596"><ele>128.0</ele><time>2026-04-08T11:08:04.66Z</time></trkpt><trkpt lat="45.4370052" lon="10.7871666"><ele>127.99999999999999</ele><time>2026-04-08T11:08:05.661Z</time></trkpt><trkpt lat="45.437026" lon="10.7870739"><ele>128.0</ele><time>2026-04-08T11:08:06.661Z</time></trkpt><trkpt lat="45.437045" lon="10.786975"><ele>128.0</ele><time>2026-04-08T11:08:07.661Z</time></trkpt><trkpt lat="45.4370713" lon="10.7868783"><ele>127.99999999999999</ele><time>2026-04-08T11:08:08.661Z</time></trkpt><trkpt lat="45.4371093" lon="10.7867947"><ele>128.0</ele><time>2026-04-08T11:08:09.661Z</time></trkpt><trkpt lat="45.4371411" lon="10.7867098"><ele>128.0</ele><time>2026-04-08T11:08:10.66Z</time></trkpt><trkpt lat="45.4371681" lon="10.7866192"><ele>127.83333333333333</ele><time>2026-04-08T11:08:11.661Z</time></trkpt><trkpt lat="45.4371886" lon="10.786529"><ele>127.66666666666666</ele><time>2026-04-08T11:08:12.66Z</time></trkpt><trkpt lat="45.4372123" lon="10.7864438"><ele>127.5</ele><time>2026-04-08T11:08:13.661Z</time></trkpt><trkpt lat="45.4372287" lon="10.7863549"><ele>127.33333333333334</ele><time>2026-04-08T11:08:14.66Z</time></trkpt><trkpt lat="45.4372525" lon="10.7861864"><ele>127.16666666666667</ele><time>2026-04-08T11:08:16.66Z</time></trkpt><trkpt lat="45.4372895" lon="10.7860209"><ele>127.0</ele><time>2026-04-08T11:08:18.661Z</time></trkpt><trkpt lat="45.4373158" lon="10.7859379"><ele>127.85714285714286</ele><time>2026-04-08T11:08:19.661Z</time></trkpt><trkpt lat="45.437339" lon="10.7858453"><ele>128.71428571428572</ele><time>2026-04-08T11:08:20.66Z</time></trkpt><trkpt lat="45.4373596" lon="10.7857446"><ele>129.57142857142856</ele><time>2026-04-08T11:08:21.661Z</time></trkpt><trkpt lat="45.4373874" lon="10.7856535"><ele>130.42857142857144</ele><time>2026-04-08T11:08:22.661Z</time></trkpt><trkpt lat="45.4374087" lon="10.7855616"><ele>131.28571428571428</ele><time>2026-04-08T11:08:23.661Z</time></trkpt><trkpt lat="45.4374349" lon="10.7854729"><ele>132.14285714285714</ele><time>2026-04-08T11:08:24.661Z</time></trkpt><trkpt lat="45.4374587" lon="10.7853802"><ele>133.0</ele><time>2026-04-08T11:08:25.661Z</time></trkpt><trkpt lat="45.4374823" lon="10.7852763"><ele>133.66666666666669</ele><time>2026-04-08T11:08:26.66Z</time></trkpt><trkpt lat="45.4375061" lon="10.7851714"><ele>134.33333333333334</ele><time>2026-04-08T11:08:27.661Z</time></trkpt><trkpt lat="45.4375257" lon="10.7850784"><ele>135.0</ele><time>2026-04-08T11:08:28.661Z</time></trkpt><trkpt lat="45.4375348" lon="10.784981"><ele>135.66666666666666</ele><time>2026-04-08T11:08:29.66Z</time></trkpt><trkpt lat="45.4375483" lon="10.7848843"><ele>136.33333333333331</ele><time>2026-04-08T11:08:30.661Z</time></trkpt><trkpt lat="45.4375562" lon="10.784789"><ele>137.0</ele><time>2026-04-08T11:08:31.66Z</time></trkpt><trkpt lat="45.4375758" lon="10.7846327"><ele>137.0</ele><time>2026-04-08T11:08:33.661Z</time></trkpt><trkpt lat="45.4375901" lon="10.7844715"><ele>137.0</ele><time>2026-04-08T11:08:35.66Z</time></trkpt><trkpt lat="45.4376057" lon="10.7843756"><ele>137.0</ele><time>2026-04-08T11:08:36.66Z</time></trkpt><trkpt lat="45.4376238" lon="10.784269"><ele>137.0</ele><time>2026-04-08T11:08:37.661Z</time></trkpt><trkpt lat="45.4376326" lon="10.7841493"><ele>137.0</ele><time>2026-04-08T11:08:38.66Z</time></trkpt><trkpt lat="45.4376415" lon="10.7840375"><ele>137.0</ele><time>2026-04-08T11:08:39.661Z</time></trkpt><trkpt lat="45.4376482" lon="10.7839314"><ele>136.6</ele><time>2026-04-08T11:08:40.66Z</time></trkpt><trkpt lat="45.4376512" lon="10.7838381"><ele>136.2</ele><time>2026-04-08T11:08:41.661Z</time></trkpt><trkpt lat="45.4376563" lon="10.7836602"><ele>135.8</ele><time>2026-04-08T11:08:43.661Z</time></trkpt><trkpt lat="45.4376741" lon="10.7834862"><ele>135.4</ele><time>2026-04-08T11:08:45.66Z</time></trkpt><trkpt lat="45.4376883" lon="10.7833766"><ele>135.0</ele><time>2026-04-08T11:08:46.66Z</time></trkpt><trkpt lat="45.4377105" lon="10.7832497"><ele>134.0</ele><time>2026-04-08T11:08:47.66Z</time></trkpt><trkpt lat="45.437729" lon="10.7831039"><ele>133.0</ele><time>2026-04-08T11:08:48.661Z</time></trkpt><trkpt lat="45.4377427" lon="10.7829524"><ele>132.0</ele><time>2026-04-08T11:08:49.661Z</time></trkpt><trkpt lat="45.4377548" lon="10.7828105"><ele>131.0</ele><time>2026-04-08T11:08:50.66Z</time></trkpt><trkpt lat="45.4377677" lon="10.782674"><ele>130.0</ele><time>2026-04-08T11:08:51.66Z</time></trkpt><trkpt lat="45.437778" lon="10.7825523"><ele>129.0</ele><time>2026-04-08T11:08:52.66Z</time></trkpt><trkpt lat="45.4377648" lon="10.7824514"><ele>128.0</ele><time>2026-04-08T11:08:53.66Z</time></trkpt><trkpt lat="45.4377912" lon="10.7823136"><ele>127.0</ele><time>2026-04-08T11:08:55.661Z</time></trkpt><trkpt lat="45.4378675" lon="10.7822818"><ele>126.0</ele><time>2026-04-08T11:08:56.661Z</time></trkpt><trkpt lat="45.4379529" lon="10.7822863"><ele>125.00000000000001</ele><time>2026-04-08T11:08:57.66Z</time></trkpt><trkpt lat="45.4380482" lon="10.7823077"><ele>124.0</ele><time>2026-04-08T11:08:58.66Z</time></trkpt><trkpt lat="45.4381523" lon="10.7823198"><ele>123.5</ele><time>2026-04-08T11:08:59.661Z</time></trkpt><trkpt lat="45.4382715" lon="10.7823204"><ele>123.0</ele><time>2026-04-08T11:09:00.66Z</time></trkpt><trkpt lat="45.4383923" lon="10.7823348"><ele>122.5</ele><time>2026-04-08T11:09:01.66Z</time></trkpt><trkpt lat="45.4385164" lon="10.7823549"><ele>122.0</ele><time>2026-04-08T11:09:02.661Z</time></trkpt><trkpt lat="45.4386472" lon="10.7823688"><ele>122.0</ele><time>2026-04-08T11:09:03.66Z</time></trkpt><trkpt lat="45.4387868" lon="10.782375"><ele>122.0</ele><time>2026-04-08T11:09:04.66Z</time></trkpt><trkpt lat="45.4389328" lon="10.7823901"><ele>122.0</ele><time>2026-04-08T11:09:05.661Z</time></trkpt><trkpt lat="45.4390681" lon="10.7823996"><ele>122.0</ele><time>2026-04-08T11:09:06.661Z</time></trkpt><trkpt lat="45.4391912" lon="10.7824054"><ele>122.19999999999999</ele><time>2026-04-08T11:09:07.66Z</time></trkpt><trkpt lat="45.4393084" lon="10.7824177"><ele>122.39999999999999</ele><time>2026-04-08T11:09:08.66Z</time></trkpt><trkpt lat="45.439419" lon="10.7824294"><ele>122.60000000000001</ele><time>2026-04-08T11:09:09.661Z</time></trkpt><trkpt lat="45.4395242" lon="10.7824413"><ele>122.80000000000001</ele><time>2026-04-08T11:09:10.661Z</time></trkpt><trkpt lat="45.4396154" lon="10.7824573"><ele>123.0</ele><time>2026-04-08T11:09:11.66Z</time></trkpt><trkpt lat="45.4396804" lon="10.7824703"><ele>123.16666666666667</ele><time>2026-04-08T11:09:12.66Z</time></trkpt><trkpt lat="45.4397452" lon="10.7824786"><ele>123.33333333333334</ele><time>2026-04-08T11:09:14.661Z</time></trkpt><trkpt lat="45.4398177" lon="10.782384"><ele>123.5</ele><time>2026-04-08T11:09:24.66Z</time></trkpt><trkpt lat="45.4398438" lon="10.7822982"><ele>123.66666666666667</ele><time>2026-04-08T11:09:25.661Z</time></trkpt><trkpt lat="45.439856" lon="10.7821876"><ele>123.83333333333334</ele><time>2026-04-08T11:09:26.661Z</time></trkpt><trkpt lat="45.4398621" lon="10.7820635"><ele>124.0</ele><time>2026-04-08T11:09:27.66Z</time></trkpt><trkpt lat="45.4398687" lon="10.7819198"><ele>123.6</ele><time>2026-04-08T11:09:28.66Z</time></trkpt><trkpt lat="45.4398819" lon="10.7817743"><ele>123.2</ele><time>2026-04-08T11:09:29.66Z</time></trkpt><trkpt lat="45.4399001" lon="10.7816223"><ele>122.79999999999998</ele><time>2026-04-08T11:09:30.661Z</time></trkpt><trkpt lat="45.4399063" lon="10.7814644"><ele>122.39999999999999</ele><time>2026-04-08T11:09:31.66Z</time></trkpt><trkpt lat="45.4399119" lon="10.7813226"><ele>122.0</ele><time>2026-04-08T11:09:32.66Z</time></trkpt><trkpt lat="45.4399193" lon="10.7811919"><ele>121.99999999999999</ele><time>2026-04-08T11:09:33.66Z</time></trkpt><trkpt lat="45.4399324" lon="10.7810703"><ele>122.0</ele><time>2026-04-08T11:09:34.66Z</time></trkpt><trkpt lat="45.4399601" lon="10.7809632"><ele>122.0</ele><time>2026-04-08T11:09:35.661Z</time></trkpt><trkpt lat="45.4400176" lon="10.780884"><ele>122.0</ele><time>2026-04-08T11:09:36.66Z</time></trkpt><trkpt lat="45.4400991" lon="10.7808474"><ele>121.99999999999999</ele><time>2026-04-08T11:09:37.661Z</time></trkpt><trkpt lat="45.4401961" lon="10.780845"><ele>122.0</ele><time>2026-04-08T11:09:38.66Z</time></trkpt><trkpt lat="45.4402992" lon="10.7808769"><ele>121.75</ele><time>2026-04-08T11:09:39.661Z</time></trkpt><trkpt lat="45.4404049" lon="10.7809209"><ele>121.5</ele><time>2026-04-08T11:09:40.66Z</time></trkpt><trkpt lat="45.4405215" lon="10.7809674"><ele>121.25</ele><time>2026-04-08T11:09:41.66Z</time></trkpt><trkpt lat="45.4406455" lon="10.7810298"><ele>121.0</ele><time>2026-04-08T11:09:42.661Z</time></trkpt><trkpt lat="45.4407703" lon="10.7811166"><ele>120.66666666666667</ele><time>2026-04-08T11:09:43.66Z</time></trkpt><trkpt lat="45.440896" lon="10.7812191"><ele>120.33333333333334</ele><time>2026-04-08T11:09:44.66Z</time></trkpt><trkpt lat="45.4410284" lon="10.7813259"><ele>120.0</ele><time>2026-04-08T11:09:45.66Z</time></trkpt><trkpt lat="45.4411624" lon="10.7814317"><ele>120.0</ele><time>2026-04-08T11:09:46.661Z</time></trkpt><trkpt lat="45.441301" lon="10.7815416"><ele>120.0</ele><time>2026-04-08T11:09:47.661Z</time></trkpt><trkpt lat="45.4414396" lon="10.7816458"><ele>120.0</ele><time>2026-04-08T11:09:48.661Z</time></trkpt><trkpt lat="45.4415781" lon="10.7817497"><ele>119.75</ele><time>2026-04-08T11:09:49.661Z</time></trkpt><trkpt lat="45.441715" lon="10.7818495"><ele>119.5</ele><time>2026-04-08T11:09:50.66Z</time></trkpt><trkpt lat="45.4418446" lon="10.7819204"><ele>119.25</ele><time>2026-04-08T11:09:51.66Z</time></trkpt><trkpt lat="45.4419716" lon="10.7819754"><ele>119.0</ele><time>2026-04-08T11:09:52.661Z</time></trkpt><trkpt lat="45.4421044" lon="10.7820069"><ele>118.75</ele><time>2026-04-08T11:09:53.66Z</time></trkpt><trkpt lat="45.4422432" lon="10.7820383"><ele>118.5</ele><time>2026-04-08T11:09:54.66Z</time></trkpt><trkpt lat="45.4423817" lon="10.7820788"><ele>118.25</ele><time>2026-04-08T11:09:55.661Z</time></trkpt><trkpt lat="45.4425262" lon="10.7821345"><ele>118.0</ele><time>2026-04-08T11:09:56.661Z</time></trkpt><trkpt lat="45.442671" lon="10.7821834"><ele>118.0</ele><time>2026-04-08T11:09:57.661Z</time></trkpt><trkpt lat="45.4428152" lon="10.7822297"><ele>118.0</ele><time>2026-04-08T11:09:58.66Z</time></trkpt><trkpt lat="45.4429654" lon="10.7822702"><ele>118.0</ele><time>2026-04-08T11:09:59.66Z</time></trkpt><trkpt lat="45.4431169" lon="10.782301"><ele>118.33333333333334</ele><time>2026-04-08T11:10:00.66Z</time></trkpt><trkpt lat="45.4432702" lon="10.7823319"><ele>118.66666666666666</ele><time>2026-04-08T11:10:01.66Z</time></trkpt><trkpt lat="45.4434255" lon="10.7823631"><ele>119.0</ele><time>2026-04-08T11:10:02.661Z</time></trkpt><trkpt lat="45.4435808" lon="10.7823952"><ele>119.0</ele><time>2026-04-08T11:10:03.66Z</time></trkpt><trkpt lat="45.4437372" lon="10.7824234"><ele>119.0</ele><time>2026-04-08T11:10:04.661Z</time></trkpt><trkpt lat="45.4438936" lon="10.7824524"><ele>119.0</ele><time>2026-04-08T11:10:05.66Z</time></trkpt><trkpt lat="45.4440516" lon="10.7824823"><ele>119.66666666666666</ele><time>2026-04-08T11:10:06.66Z</time></trkpt><trkpt lat="45.4442094" lon="10.7825106"><ele>120.33333333333334</ele><time>2026-04-08T11:10:07.66Z</time></trkpt><trkpt lat="45.4443673" lon="10.7825347"><ele>121.0</ele><time>2026-04-08T11:10:08.66Z</time></trkpt><trkpt lat="45.4445237" lon="10.7825627"><ele>121.33333333333334</ele><time>2026-04-08T11:10:09.66Z</time></trkpt><trkpt lat="45.4446826" lon="10.7825947"><ele>121.66666666666666</ele><time>2026-04-08T11:10:10.66Z</time></trkpt><trkpt lat="45.4448411" lon="10.7826356"><ele>122.0</ele><time>2026-04-08T11:10:11.661Z</time></trkpt><trkpt lat="45.4449904" lon="10.7826719"><ele>121.75</ele><time>2026-04-08T11:10:12.66Z</time></trkpt><trkpt lat="45.4451338" lon="10.7826926"><ele>121.5</ele><time>2026-04-08T11:10:13.661Z</time></trkpt><trkpt lat="45.4452728" lon="10.7826984"><ele>121.25</ele><time>2026-04-08T11:10:14.661Z</time></trkpt><trkpt lat="45.4454095" lon="10.7826844"><ele>121.0</ele><time>2026-04-08T11:10:15.661Z</time></trkpt><trkpt lat="45.4455378" lon="10.7826356"><ele>120.5</ele><time>2026-04-08T11:10:16.661Z</time></trkpt><trkpt lat="45.4456655" lon="10.7825663"><ele>120.0</ele><time>2026-04-08T11:10:17.66Z</time></trkpt><trkpt lat="45.4457975" lon="10.7825009"><ele>119.5</ele><time>2026-04-08T11:10:18.66Z</time></trkpt><trkpt lat="45.4459311" lon="10.7824306"><ele>119.0</ele><time>2026-04-08T11:10:19.66Z</time></trkpt><trkpt lat="45.4460619" lon="10.7823548"><ele>119.0</ele><time>2026-04-08T11:10:20.661Z</time></trkpt><trkpt lat="45.4461986" lon="10.7822813"><ele>119.0</ele><time>2026-04-08T11:10:21.661Z</time></trkpt><trkpt lat="45.4463397" lon="10.7822165"><ele>119.0</ele><time>2026-04-08T11:10:22.66Z</time></trkpt><trkpt lat="45.446479" lon="10.7821498"><ele>119.0</ele><time>2026-04-08T11:10:23.66Z</time></trkpt><trkpt lat="45.4466085" lon="10.7820731"><ele>118.75</ele><time>2026-04-08T11:10:24.66Z</time></trkpt><trkpt lat="45.446726" lon="10.7819815"><ele>118.5</ele><time>2026-04-08T11:10:25.661Z</time></trkpt><trkpt lat="45.4468381" lon="10.7818655"><ele>118.25</ele><time>2026-04-08T11:10:26.66Z</time></trkpt><trkpt lat="45.4469427" lon="10.7817333"><ele>118.0</ele><time>2026-04-08T11:10:27.66Z</time></trkpt><trkpt lat="45.4470428" lon="10.7815895"><ele>116.75</ele><time>2026-04-08T11:10:28.661Z</time></trkpt><trkpt lat="45.4471423" lon="10.7814412"><ele>115.5</ele><time>2026-04-08T11:10:29.66Z</time></trkpt><trkpt lat="45.4472462" lon="10.7812981"><ele>114.25</ele><time>2026-04-08T11:10:30.66Z</time></trkpt><trkpt lat="45.4473526" lon="10.7811567"><ele>113.0</ele><time>2026-04-08T11:10:31.661Z</time></trkpt><trkpt lat="45.4474782" lon="10.7810303"><ele>113.0</ele><time>2026-04-08T11:10:32.661Z</time></trkpt><trkpt lat="45.4476254" lon="10.7809404"><ele>113.0</ele><time>2026-04-08T11:10:33.66Z</time></trkpt><trkpt lat="45.4477738" lon="10.7808671"><ele>113.0</ele><time>2026-04-08T11:10:34.61Z</time></trkpt><trkpt lat="45.4479298" lon="10.7808002"><ele>114.0</ele><time>2026-04-08T11:10:35.61Z</time></trkpt><trkpt lat="45.4480834" lon="10.7807278"><ele>115.0</ele><time>2026-04-08T11:10:36.611Z</time></trkpt><trkpt lat="45.4482356" lon="10.7806539"><ele>116.0</ele><time>2026-04-08T11:10:37.611Z</time></trkpt><trkpt lat="45.4483871" lon="10.7805792"><ele>116.0</ele><time>2026-04-08T11:10:38.61Z</time></trkpt><trkpt lat="45.4485363" lon="10.7804904"><ele>116.0</ele><time>2026-04-08T11:10:39.611Z</time></trkpt><trkpt lat="45.4486783" lon="10.7803722"><ele>116.0</ele><time>2026-04-08T11:10:40.611Z</time></trkpt><trkpt lat="45.4488077" lon="10.7802238"><ele>116.4</ele><time>2026-04-08T11:10:41.61Z</time></trkpt><trkpt lat="45.4489177" lon="10.7800738"><ele>116.8</ele><time>2026-04-08T11:10:42.61Z</time></trkpt><trkpt lat="45.4489994" lon="10.7799512"><ele>117.20000000000002</ele><time>2026-04-08T11:10:43.61Z</time></trkpt><trkpt lat="45.4490535" lon="10.7798676"><ele>117.60000000000001</ele><time>2026-04-08T11:10:44.611Z</time></trkpt><trkpt lat="45.449079" lon="10.7797736"><ele>118.0</ele><time>2026-04-08T11:10:46.611Z</time></trkpt><trkpt lat="45.4490292" lon="10.7797004"><ele>118.0</ele><time>2026-04-08T11:10:49.61Z</time></trkpt><trkpt lat="45.4489469" lon="10.7796305"><ele>118.00000000000001</ele><time>2026-04-08T11:10:51.61Z</time></trkpt><trkpt lat="45.4488841" lon="10.7795685"><ele>118.00000000000001</ele><time>2026-04-08T11:10:52.611Z</time></trkpt><trkpt lat="45.4488127" lon="10.7794954"><ele>118.0</ele><time>2026-04-08T11:10:53.61Z</time></trkpt><trkpt lat="45.4487408" lon="10.7794041"><ele>118.0</ele><time>2026-04-08T11:10:54.611Z</time></trkpt><trkpt lat="45.4486593" lon="10.779304"><ele>117.75</ele><time>2026-04-08T11:10:55.61Z</time></trkpt><trkpt lat="45.4485669" lon="10.7791935"><ele>117.5</ele><time>2026-04-08T11:10:56.61Z</time></trkpt><trkpt lat="45.4484734" lon="10.7790751"><ele>117.25</ele><time>2026-04-08T11:10:57.61Z</time></trkpt><trkpt lat="45.4483747" lon="10.7789494"><ele>117.0</ele><time>2026-04-08T11:10:58.611Z</time></trkpt><trkpt lat="45.4482755" lon="10.7788197"><ele>117.0</ele><time>2026-04-08T11:10:59.61Z</time></trkpt><trkpt lat="45.4481735" lon="10.7786914"><ele>117.0</ele><time>2026-04-08T11:11:00.611Z</time></trkpt><trkpt lat="45.4480688" lon="10.778562"><ele>117.0</ele><time>2026-04-08T11:11:01.61Z</time></trkpt><trkpt lat="45.4479634" lon="10.77843"><ele>117.0</ele><time>2026-04-08T11:11:02.611Z</time></trkpt><trkpt lat="45.4478593" lon="10.778298"><ele>116.25</ele><time>2026-04-08T11:11:03.611Z</time></trkpt><trkpt lat="45.4477528" lon="10.7781635"><ele>115.5</ele><time>2026-04-08T11:11:04.61Z</time></trkpt><trkpt lat="45.4476472" lon="10.7780244"><ele>114.75</ele><time>2026-04-08T11:11:05.61Z</time></trkpt><trkpt lat="45.4475411" lon="10.7778858"><ele>114.0</ele><time>2026-04-08T11:11:06.611Z</time></trkpt><trkpt lat="45.4474318" lon="10.7777424"><ele>114.5</ele><time>2026-04-08T11:11:07.61Z</time></trkpt><trkpt lat="45.4473222" lon="10.7775989"><ele>115.0</ele><time>2026-04-08T11:11:08.61Z</time></trkpt><trkpt lat="45.4472133" lon="10.777456"><ele>115.5</ele><time>2026-04-08T11:11:09.611Z</time></trkpt><trkpt lat="45.4471021" lon="10.777308"><ele>116.0</ele><time>2026-04-08T11:11:10.611Z</time></trkpt><trkpt lat="45.4469876" lon="10.7771574"><ele>116.0</ele><time>2026-04-08T11:11:11.611Z</time></trkpt><trkpt lat="45.4468719" lon="10.7770011"><ele>116.0</ele><time>2026-04-08T11:11:12.611Z</time></trkpt><trkpt lat="45.4467583" lon="10.776852"><ele>116.0</ele><time>2026-04-08T11:11:13.611Z</time></trkpt><trkpt lat="45.4466479" lon="10.7766961"><ele>116.0</ele><time>2026-04-08T11:11:14.611Z</time></trkpt><trkpt lat="45.4465516" lon="10.7765449"><ele>116.0</ele><time>2026-04-08T11:11:15.61Z</time></trkpt><trkpt lat="45.446463" lon="10.7763978"><ele>116.0</ele><time>2026-04-08T11:11:16.61Z</time></trkpt><trkpt lat="45.4463783" lon="10.7762498"><ele>116.0</ele><time>2026-04-08T11:11:17.611Z</time></trkpt><trkpt lat="45.4463" lon="10.7760911"><ele>115.0</ele><time>2026-04-08T11:11:18.61Z</time></trkpt><trkpt lat="45.4462369" lon="10.775936"><ele>114.0</ele><time>2026-04-08T11:11:19.611Z</time></trkpt><trkpt lat="45.4461827" lon="10.7757798"><ele>113.0</ele><time>2026-04-08T11:11:20.61Z</time></trkpt><trkpt lat="45.4461377" lon="10.7756256"><ele>112.0</ele><time>2026-04-08T11:11:21.61Z</time></trkpt><trkpt lat="45.4460944" lon="10.7754661"><ele>112.0</ele><time>2026-04-08T11:11:22.611Z</time></trkpt><trkpt lat="45.4460478" lon="10.7752998"><ele>112.0</ele><time>2026-04-08T11:11:23.611Z</time></trkpt><trkpt lat="45.4459973" lon="10.7751317"><ele>112.0</ele><time>2026-04-08T11:11:24.612Z</time></trkpt><trkpt lat="45.4459425" lon="10.7749619"><ele>112.0</ele><time>2026-04-08T11:11:25.611Z</time></trkpt><trkpt lat="45.4458897" lon="10.7747894"><ele>112.25</ele><time>2026-04-08T11:11:26.611Z</time></trkpt><trkpt lat="45.4458389" lon="10.774613"><ele>112.5</ele><time>2026-04-08T11:11:27.611Z</time></trkpt><trkpt lat="45.4457912" lon="10.7744326"><ele>112.75</ele><time>2026-04-08T11:11:28.612Z</time></trkpt><trkpt lat="45.4457458" lon="10.7742496"><ele>113.0</ele><time>2026-04-08T11:11:29.611Z</time></trkpt><trkpt lat="45.4457134" lon="10.7740815"><ele>113.0</ele><time>2026-04-08T11:11:30.612Z</time></trkpt><trkpt lat="45.4456827" lon="10.7739265"><ele>113.0</ele><time>2026-04-08T11:11:31.612Z</time></trkpt><trkpt lat="45.4456466" lon="10.7737709"><ele>113.0</ele><time>2026-04-08T11:11:32.612Z</time></trkpt><trkpt lat="45.4456061" lon="10.7736103"><ele>113.0</ele><time>2026-04-08T11:11:33.612Z</time></trkpt><trkpt lat="45.4455528" lon="10.7734416"><ele>112.75</ele><time>2026-04-08T11:11:34.612Z</time></trkpt><trkpt lat="45.4454909" lon="10.7732632"><ele>112.5</ele><time>2026-04-08T11:11:35.612Z</time></trkpt><trkpt lat="45.4454315" lon="10.7730873"><ele>112.25</ele><time>2026-04-08T11:11:36.612Z</time></trkpt><trkpt lat="45.4453683" lon="10.7729188"><ele>112.0</ele><time>2026-04-08T11:11:37.612Z</time></trkpt><trkpt lat="45.4452925" lon="10.7727592"><ele>111.75</ele><time>2026-04-08T11:11:38.612Z</time></trkpt><trkpt lat="45.4452128" lon="10.7726181"><ele>111.5</ele><time>2026-04-08T11:11:39.611Z</time></trkpt><trkpt lat="45.4451328" lon="10.772485"><ele>111.25</ele><time>2026-04-08T11:11:40.611Z</time></trkpt><trkpt lat="45.4450671" lon="10.7723513"><ele>111.0</ele><time>2026-04-08T11:11:41.612Z</time></trkpt><trkpt lat="45.4450205" lon="10.7722087"><ele>111.0</ele><time>2026-04-08T11:11:42.612Z</time></trkpt><trkpt lat="45.444989" lon="10.7720647"><ele>111.0</ele><time>2026-04-08T11:11:43.611Z</time></trkpt><trkpt lat="45.4449732" lon="10.7719259"><ele>111.0</ele><time>2026-04-08T11:11:44.611Z</time></trkpt><trkpt lat="45.4449698" lon="10.7717913"><ele>111.0</ele><time>2026-04-08T11:11:45.611Z</time></trkpt><trkpt lat="45.4449642" lon="10.7716499"><ele>111.0</ele><time>2026-04-08T11:11:46.611Z</time></trkpt><trkpt lat="45.4449579" lon="10.7715091"><ele>111.19999999999999</ele><time>2026-04-08T11:11:47.612Z</time></trkpt><trkpt lat="45.4449477" lon="10.7713632"><ele>111.39999999999999</ele><time>2026-04-08T11:11:48.612Z</time></trkpt><trkpt lat="45.4449364" lon="10.7712086"><ele>111.6</ele><time>2026-04-08T11:11:49.611Z</time></trkpt><trkpt lat="45.4449267" lon="10.7710445"><ele>111.8</ele><time>2026-04-08T11:11:50.611Z</time></trkpt><trkpt lat="45.4449144" lon="10.7708767"><ele>112.0</ele><time>2026-04-08T11:11:51.612Z</time></trkpt><trkpt lat="45.4449017" lon="10.7707208"><ele>113.19999999999999</ele><time>2026-04-08T11:11:52.611Z</time></trkpt><trkpt lat="45.4448882" lon="10.7705711"><ele>114.39999999999999</ele><time>2026-04-08T11:11:53.612Z</time></trkpt><trkpt lat="45.4448742" lon="10.7704269"><ele>115.60000000000001</ele><time>2026-04-08T11:11:54.611Z</time></trkpt><trkpt lat="45.4448562" lon="10.770284"><ele>116.80000000000001</ele><time>2026-04-08T11:11:55.611Z</time></trkpt><trkpt lat="45.4448328" lon="10.7701541"><ele>118.0</ele><time>2026-04-08T11:11:56.611Z</time></trkpt><trkpt lat="45.4448019" lon="10.7700392"><ele>118.66666666666667</ele><time>2026-04-08T11:11:57.612Z</time></trkpt><trkpt lat="45.4447642" lon="10.7699343"><ele>119.33333333333334</ele><time>2026-04-08T11:11:58.612Z</time></trkpt><trkpt lat="45.4447206" lon="10.769843"><ele>120.0</ele><time>2026-04-08T11:11:59.611Z</time></trkpt><trkpt lat="45.4446758" lon="10.7697524"><ele>120.66666666666666</ele><time>2026-04-08T11:12:00.612Z</time></trkpt><trkpt lat="45.4446341" lon="10.7696569"><ele>121.33333333333333</ele><time>2026-04-08T11:12:01.612Z</time></trkpt><trkpt lat="45.4445975" lon="10.7695537"><ele>122.0</ele><time>2026-04-08T11:12:02.612Z</time></trkpt><trkpt lat="45.4445591" lon="10.7694614"><ele>121.99999999999999</ele><time>2026-04-08T11:12:03.612Z</time></trkpt><trkpt lat="45.4445258" lon="10.7693715"><ele>122.0</ele><time>2026-04-08T11:12:04.611Z</time></trkpt><trkpt lat="45.4444873" lon="10.7692793"><ele>122.0</ele><time>2026-04-08T11:12:05.612Z</time></trkpt><trkpt lat="45.4444554" lon="10.7691789"><ele>122.0</ele><time>2026-04-08T11:12:06.611Z</time></trkpt><trkpt lat="45.4444071" lon="10.7690686"><ele>121.99999999999999</ele><time>2026-04-08T11:12:07.612Z</time></trkpt><trkpt lat="45.4443526" lon="10.7689613"><ele>122.0</ele><time>2026-04-08T11:12:08.611Z</time></trkpt><trkpt lat="45.4442966" lon="10.768847"><ele>121.83333333333333</ele><time>2026-04-08T11:12:09.611Z</time></trkpt><trkpt lat="45.4442376" lon="10.7687565"><ele>121.66666666666666</ele><time>2026-04-08T11:12:10.611Z</time></trkpt><trkpt lat="45.4441694" lon="10.7686812"><ele>121.5</ele><time>2026-04-08T11:12:11.612Z</time></trkpt><trkpt lat="45.4440961" lon="10.7686112"><ele>121.33333333333334</ele><time>2026-04-08T11:12:12.611Z</time></trkpt><trkpt lat="45.4440242" lon="10.7685426"><ele>121.16666666666667</ele><time>2026-04-08T11:12:13.611Z</time></trkpt><trkpt lat="45.4439548" lon="10.7684751"><ele>121.0</ele><time>2026-04-08T11:12:14.612Z</time></trkpt><trkpt lat="45.4439003" lon="10.7684244"><ele>120.16666666666667</ele><time>2026-04-08T11:12:15.612Z</time></trkpt><trkpt lat="45.4438499" lon="10.7683048"><ele>119.33333333333334</ele><time>2026-04-08T11:12:17.611Z</time></trkpt><trkpt lat="45.4438853" lon="10.7682115"><ele>118.5</ele><time>2026-04-08T11:12:19.612Z</time></trkpt><trkpt lat="45.4439701" lon="10.7681598"><ele>117.66666666666666</ele><time>2026-04-08T11:12:25.613Z</time></trkpt><trkpt lat="45.4440382" lon="10.7681513"><ele>116.83333333333333</ele><time>2026-04-08T11:12:26.613Z</time></trkpt><trkpt lat="45.4441037" lon="10.7681446"><ele>116.0</ele><time>2026-04-08T11:12:27.612Z</time></trkpt><trkpt lat="45.4441733" lon="10.7681406"><ele>116.0</ele><time>2026-04-08T11:12:28.612Z</time></trkpt><trkpt lat="45.4442556" lon="10.7681386"><ele>116.0</ele><time>2026-04-08T11:12:29.612Z</time></trkpt><trkpt lat="45.4443603" lon="10.7681269"><ele>116.0</ele><time>2026-04-08T11:12:30.612Z</time></trkpt><trkpt lat="45.4444689" lon="10.7681057"><ele>116.0</ele><time>2026-04-08T11:12:31.612Z</time></trkpt><trkpt lat="45.4445806" lon="10.7680898"><ele>116.0</ele><time>2026-04-08T11:12:32.613Z</time></trkpt><trkpt lat="45.4446977" lon="10.7680871"><ele>116.0</ele><time>2026-04-08T11:12:33.612Z</time></trkpt><trkpt lat="45.4448241" lon="10.7680799"><ele>116.0</ele><time>2026-04-08T11:12:34.613Z</time></trkpt><trkpt lat="45.4449587" lon="10.7680659"><ele>116.0</ele><time>2026-04-08T11:12:35.612Z</time></trkpt><trkpt lat="45.445097" lon="10.7680476"><ele>116.0</ele><time>2026-04-08T11:12:36.613Z</time></trkpt><trkpt lat="45.4452373" lon="10.7680306"><ele>116.0</ele><time>2026-04-08T11:12:37.612Z</time></trkpt><trkpt lat="45.4453707" lon="10.7680165"><ele>116.0</ele><time>2026-04-08T11:12:38.612Z</time></trkpt><trkpt lat="45.4454965" lon="10.7680055"><ele>116.0</ele><time>2026-04-08T11:12:39.613Z</time></trkpt><trkpt lat="45.4456209" lon="10.7679951"><ele>116.0</ele><time>2026-04-08T11:12:40.613Z</time></trkpt><trkpt lat="45.4457521" lon="10.767988"><ele>115.5</ele><time>2026-04-08T11:12:41.612Z</time></trkpt><trkpt lat="45.4458893" lon="10.7679934"><ele>115.0</ele><time>2026-04-08T11:12:42.612Z</time></trkpt><trkpt lat="45.446028" lon="10.7680178"><ele>114.5</ele><time>2026-04-08T11:12:43.613Z</time></trkpt><trkpt lat="45.4461713" lon="10.7680555"><ele>114.0</ele><time>2026-04-08T11:12:44.612Z</time></trkpt><trkpt lat="45.4463181" lon="10.7681"><ele>113.33333333333334</ele><time>2026-04-08T11:12:45.612Z</time></trkpt><trkpt lat="45.4464656" lon="10.7681479"><ele>112.66666666666667</ele><time>2026-04-08T11:12:46.612Z</time></trkpt><trkpt lat="45.4466196" lon="10.7682118"><ele>112.0</ele><time>2026-04-08T11:12:47.613Z</time></trkpt><trkpt lat="45.4467764" lon="10.7682911"><ele>112.0</ele><time>2026-04-08T11:12:48.612Z</time></trkpt><trkpt lat="45.4469294" lon="10.768374"><ele>112.0</ele><time>2026-04-08T11:12:49.612Z</time></trkpt><trkpt lat="45.4470707" lon="10.7684515"><ele>112.0</ele><time>2026-04-08T11:12:50.613Z</time></trkpt><trkpt lat="45.4472071" lon="10.7685287"><ele>113.0</ele><time>2026-04-08T11:12:51.613Z</time></trkpt><trkpt lat="45.4473442" lon="10.7686112"><ele>114.0</ele><time>2026-04-08T11:12:52.612Z</time></trkpt><trkpt lat="45.447478" lon="10.7687044"><ele>115.0</ele><time>2026-04-08T11:12:53.613Z</time></trkpt><trkpt lat="45.4476175" lon="10.7687959"><ele>115.0</ele><time>2026-04-08T11:12:54.612Z</time></trkpt><trkpt lat="45.4477583" lon="10.7688858"><ele>115.0</ele><time>2026-04-08T11:12:55.613Z</time></trkpt><trkpt lat="45.4478947" lon="10.7689725"><ele>115.0</ele><time>2026-04-08T11:12:56.613Z</time></trkpt><trkpt lat="45.4480275" lon="10.7690666"><ele>114.66666666666667</ele><time>2026-04-08T11:12:57.612Z</time></trkpt><trkpt lat="45.4481572" lon="10.7691741"><ele>114.33333333333334</ele><time>2026-04-08T11:12:58.612Z</time></trkpt><trkpt lat="45.4482869" lon="10.7692906"><ele>114.0</ele><time>2026-04-08T11:12:59.612Z</time></trkpt><trkpt lat="45.4484138" lon="10.769412"><ele>113.75</ele><time>2026-04-08T11:13:00.612Z</time></trkpt><trkpt lat="45.4485373" lon="10.7695313"><ele>113.5</ele><time>2026-04-08T11:13:01.613Z</time></trkpt><trkpt lat="45.4486501" lon="10.7696494"><ele>113.25</ele><time>2026-04-08T11:13:02.612Z</time></trkpt><trkpt lat="45.4487503" lon="10.7697646"><ele>113.0</ele><time>2026-04-08T11:13:03.613Z</time></trkpt><trkpt lat="45.4488429" lon="10.7698802"><ele>113.4</ele><time>2026-04-08T11:13:04.613Z</time></trkpt><trkpt lat="45.4489253" lon="10.7699899"><ele>113.80000000000001</ele><time>2026-04-08T11:13:05.612Z</time></trkpt><trkpt lat="45.4489983" lon="10.7700945"><ele>114.2</ele><time>2026-04-08T11:13:06.612Z</time></trkpt><trkpt lat="45.4490622" lon="10.7701979"><ele>114.6</ele><time>2026-04-08T11:13:07.612Z</time></trkpt><trkpt lat="45.4491198" lon="10.7702902"><ele>115.0</ele><time>2026-04-08T11:13:08.612Z</time></trkpt><trkpt lat="45.449173" lon="10.7703622"><ele>115.00000000000001</ele><time>2026-04-08T11:13:09.612Z</time></trkpt><trkpt lat="45.449237" lon="10.7703982"><ele>115.0</ele><time>2026-04-08T11:13:10.613Z</time></trkpt><trkpt lat="45.4493084" lon="10.770394"><ele>115.0</ele><time>2026-04-08T11:13:11.613Z</time></trkpt><trkpt lat="45.4493901" lon="10.7703886"><ele>115.0</ele><time>2026-04-08T11:13:12.612Z</time></trkpt><trkpt lat="45.4494795" lon="10.7703899"><ele>115.00000000000001</ele><time>2026-04-08T11:13:13.613Z</time></trkpt><trkpt lat="45.4495818" lon="10.7704055"><ele>115.0</ele><time>2026-04-08T11:13:14.612Z</time></trkpt><trkpt lat="45.4496917" lon="10.7704165"><ele>115.0</ele><time>2026-04-08T11:13:15.612Z</time></trkpt><trkpt lat="45.4498031" lon="10.7704282"><ele>115.0</ele><time>2026-04-08T11:13:16.612Z</time></trkpt><trkpt lat="45.4499222" lon="10.7704465"><ele>115.0</ele><time>2026-04-08T11:13:17.612Z</time></trkpt><trkpt lat="45.450041" lon="10.7704649"><ele>115.0</ele><time>2026-04-08T11:13:18.613Z</time></trkpt><trkpt lat="45.4501562" lon="10.7704831"><ele>115.0</ele><time>2026-04-08T11:13:19.613Z</time></trkpt><trkpt lat="45.4502654" lon="10.7704991"><ele>115.0</ele><time>2026-04-08T11:13:20.613Z</time></trkpt><trkpt lat="45.4503716" lon="10.7705112"><ele>115.0</ele><time>2026-04-08T11:13:21.613Z</time></trkpt><trkpt lat="45.4504784" lon="10.7705227"><ele>115.0</ele><time>2026-04-08T11:13:22.613Z</time></trkpt><trkpt lat="45.4505855" lon="10.7705398"><ele>115.0</ele><time>2026-04-08T11:13:23.613Z</time></trkpt><trkpt lat="45.4506923" lon="10.7705537"><ele>115.2</ele><time>2026-04-08T11:13:24.613Z</time></trkpt><trkpt lat="45.4508002" lon="10.7705722"><ele>115.4</ele><time>2026-04-08T11:13:25.613Z</time></trkpt><trkpt lat="45.4509005" lon="10.7705803"><ele>115.6</ele><time>2026-04-08T11:13:26.613Z</time></trkpt><trkpt lat="45.4509919" lon="10.7705814"><ele>115.8</ele><time>2026-04-08T11:13:27.613Z</time></trkpt><trkpt lat="45.4510854" lon="10.7705973"><ele>116.0</ele><time>2026-04-08T11:13:28.613Z</time></trkpt><trkpt lat="45.4511766" lon="10.7706101"><ele>116.0</ele><time>2026-04-08T11:13:29.614Z</time></trkpt><trkpt lat="45.4512675" lon="10.7706171"><ele>116.0</ele><time>2026-04-08T11:13:30.613Z</time></trkpt><trkpt lat="45.4513596" lon="10.7706351"><ele>116.0</ele><time>2026-04-08T11:13:31.614Z</time></trkpt><trkpt lat="45.4514576" lon="10.7706567"><ele>116.0</ele><time>2026-04-08T11:13:32.614Z</time></trkpt><trkpt lat="45.4515586" lon="10.7706767"><ele>116.0</ele><time>2026-04-08T11:13:33.614Z</time></trkpt><trkpt lat="45.4516578" lon="10.7706924"><ele>116.19999999999999</ele><time>2026-04-08T11:13:34.614Z</time></trkpt><trkpt lat="45.4517617" lon="10.7707156"><ele>116.39999999999999</ele><time>2026-04-08T11:13:35.613Z</time></trkpt><trkpt lat="45.4518645" lon="10.7707316"><ele>116.6</ele><time>2026-04-08T11:13:36.614Z</time></trkpt><trkpt lat="45.4519659" lon="10.7707444"><ele>116.8</ele><time>2026-04-08T11:13:37.613Z</time></trkpt><trkpt lat="45.4520588" lon="10.7707585"><ele>117.0</ele><time>2026-04-08T11:13:38.613Z</time></trkpt><trkpt lat="45.452148" lon="10.7707717"><ele>117.39999999999999</ele><time>2026-04-08T11:13:39.613Z</time></trkpt><trkpt lat="45.4522437" lon="10.7707828"><ele>117.79999999999998</ele><time>2026-04-08T11:13:40.613Z</time></trkpt><trkpt lat="45.4523386" lon="10.770807"><ele>118.2</ele><time>2026-04-08T11:13:41.614Z</time></trkpt><trkpt lat="45.4524339" lon="10.7708286"><ele>118.6</ele><time>2026-04-08T11:13:42.613Z</time></trkpt><trkpt lat="45.4525263" lon="10.7708478"><ele>119.0</ele><time>2026-04-08T11:13:43.613Z</time></trkpt><trkpt lat="45.4526136" lon="10.7708576"><ele>119.0</ele><time>2026-04-08T11:13:44.614Z</time></trkpt><trkpt lat="45.4527022" lon="10.7708742"><ele>119.0</ele><time>2026-04-08T11:13:45.613Z</time></trkpt><trkpt lat="45.4527905" lon="10.7708834"><ele>119.0</ele><time>2026-04-08T11:13:46.613Z</time></trkpt><trkpt lat="45.452879" lon="10.7709009"><ele>119.0</ele><time>2026-04-08T11:13:47.614Z</time></trkpt><trkpt lat="45.4529691" lon="10.7709163"><ele>119.0</ele><time>2026-04-08T11:13:48.613Z</time></trkpt><trkpt lat="45.4530662" lon="10.7709321"><ele>118.80000000000001</ele><time>2026-04-08T11:13:49.614Z</time></trkpt><trkpt lat="45.4531619" lon="10.7709469"><ele>118.60000000000001</ele><time>2026-04-08T11:13:50.613Z</time></trkpt><trkpt lat="45.453257" lon="10.7709767"><ele>118.4</ele><time>2026-04-08T11:13:51.614Z</time></trkpt><trkpt lat="45.4533525" lon="10.7709944"><ele>118.2</ele><time>2026-04-08T11:13:52.613Z</time></trkpt><trkpt lat="45.4534492" lon="10.7710099"><ele>118.0</ele><time>2026-04-08T11:13:53.613Z</time></trkpt><trkpt lat="45.4535533" lon="10.7710223"><ele>118.0</ele><time>2026-04-08T11:13:54.613Z</time></trkpt><trkpt lat="45.4536549" lon="10.7710386"><ele>118.00000000000001</ele><time>2026-04-08T11:13:55.613Z</time></trkpt><trkpt lat="45.4537549" lon="10.7710464"><ele>118.00000000000001</ele><time>2026-04-08T11:13:56.613Z</time></trkpt><trkpt lat="45.4538547" lon="10.7710663"><ele>118.0</ele><time>2026-04-08T11:13:57.613Z</time></trkpt><trkpt lat="45.4539578" lon="10.7710857"><ele>118.0</ele><time>2026-04-08T11:13:58.613Z</time></trkpt><trkpt lat="45.4540656" lon="10.7711042"><ele>117.80000000000001</ele><time>2026-04-08T11:13:59.613Z</time></trkpt><trkpt lat="45.4541704" lon="10.7711202"><ele>117.60000000000001</ele><time>2026-04-08T11:14:00.613Z</time></trkpt><trkpt lat="45.4542782" lon="10.7711402"><ele>117.39999999999999</ele><time>2026-04-08T11:14:01.614Z</time></trkpt><trkpt lat="45.4543889" lon="10.771154"><ele>117.19999999999999</ele><time>2026-04-08T11:14:02.613Z</time></trkpt><trkpt lat="45.454498" lon="10.7711688"><ele>117.0</ele><time>2026-04-08T11:14:03.613Z</time></trkpt><trkpt lat="45.4546022" lon="10.7711905"><ele>117.5</ele><time>2026-04-08T11:14:04.614Z</time></trkpt><trkpt lat="45.4546958" lon="10.7712063"><ele>118.0</ele><time>2026-04-08T11:14:05.614Z</time></trkpt><trkpt lat="45.4547781" lon="10.7712195"><ele>118.5</ele><time>2026-04-08T11:14:06.614Z</time></trkpt><trkpt lat="45.454854" lon="10.7712273"><ele>119.0</ele><time>2026-04-08T11:14:07.613Z</time></trkpt><trkpt lat="45.4549181" lon="10.7712416"><ele>119.5</ele><time>2026-04-08T11:14:08.614Z</time></trkpt><trkpt lat="45.4550147" lon="10.7712833"><ele>120.0</ele><time>2026-04-08T11:14:10.614Z</time></trkpt><trkpt lat="45.4550458" lon="10.7713688"><ele>120.0</ele><time>2026-04-08T11:14:12.614Z</time></trkpt><trkpt lat="45.4550216" lon="10.7714678"><ele>120.0</ele><time>2026-04-08T11:14:14.613Z</time></trkpt><trkpt lat="45.4550168" lon="10.7716126"><ele>120.0</ele><time>2026-04-08T11:14:16.615Z</time></trkpt><trkpt lat="45.4550686" lon="10.7716816"><ele>120.0</ele><time>2026-04-08T11:14:18.614Z</time></trkpt><trkpt lat="45.4551429" lon="10.7717034"><ele>120.0</ele><time>2026-04-08T11:14:19.614Z</time></trkpt><trkpt lat="45.4552198" lon="10.7717131"><ele>120.0</ele><time>2026-04-08T11:14:20.615Z</time></trkpt><trkpt lat="45.4553021" lon="10.7717343"><ele>120.0</ele><time>2026-04-08T11:14:21.615Z</time></trkpt><trkpt lat="45.4553905" lon="10.771762"><ele>120.0</ele><time>2026-04-08T11:14:22.614Z</time></trkpt><trkpt lat="45.4554886" lon="10.7717829"><ele>120.0</ele><time>2026-04-08T11:14:23.614Z</time></trkpt><trkpt lat="45.4555953" lon="10.7718048"><ele>120.0</ele><time>2026-04-08T11:14:24.615Z</time></trkpt><trkpt lat="45.4557026" lon="10.7718338"><ele>120.0</ele><time>2026-04-08T11:14:25.614Z</time></trkpt><trkpt lat="45.4558035" lon="10.7718569"><ele>120.2</ele><time>2026-04-08T11:14:26.614Z</time></trkpt><trkpt lat="45.4558983" lon="10.771881"><ele>120.4</ele><time>2026-04-08T11:14:27.615Z</time></trkpt><trkpt lat="45.4559935" lon="10.7719006"><ele>120.6</ele><time>2026-04-08T11:14:28.614Z</time></trkpt><trkpt lat="45.4560821" lon="10.7719165"><ele>120.8</ele><time>2026-04-08T11:14:29.615Z</time></trkpt><trkpt lat="45.4561676" lon="10.7719274"><ele>121.0</ele><time>2026-04-08T11:14:30.615Z</time></trkpt><trkpt lat="45.4562557" lon="10.7719512"><ele>121.0</ele><time>2026-04-08T11:14:31.615Z</time></trkpt><trkpt lat="45.456349" lon="10.7719802"><ele>121.0</ele><time>2026-04-08T11:14:32.614Z</time></trkpt><trkpt lat="45.4564419" lon="10.7720032"><ele>121.0</ele><time>2026-04-08T11:14:33.614Z</time></trkpt><trkpt lat="45.4565434" lon="10.7720267"><ele>121.0</ele><time>2026-04-08T11:14:34.615Z</time></trkpt><trkpt lat="45.4566542" lon="10.772042"><ele>121.0</ele><time>2026-04-08T11:14:35.614Z</time></trkpt><trkpt lat="45.4567677" lon="10.7720504"><ele>121.0</ele><time>2026-04-08T11:14:36.614Z</time></trkpt><trkpt lat="45.4568859" lon="10.7720528"><ele>121.0</ele><time>2026-04-08T11:14:37.615Z</time></trkpt><trkpt lat="45.4570109" lon="10.7720665"><ele>121.0</ele><time>2026-04-08T11:14:38.614Z</time></trkpt><trkpt lat="45.4571337" lon="10.7720743"><ele>121.0</ele><time>2026-04-08T11:14:39.667Z</time></trkpt><trkpt lat="45.4572537" lon="10.7720732"><ele>121.0</ele><time>2026-04-08T11:14:40.667Z</time></trkpt><trkpt lat="45.4573665" lon="10.7720733"><ele>121.0</ele><time>2026-04-08T11:14:41.667Z</time></trkpt><trkpt lat="45.4574735" lon="10.7720756"><ele>121.0</ele><time>2026-04-08T11:14:42.667Z</time></trkpt><trkpt lat="45.4575686" lon="10.7720708"><ele>121.0</ele><time>2026-04-08T11:14:43.667Z</time></trkpt><trkpt lat="45.4576512" lon="10.7720677"><ele>121.0</ele><time>2026-04-08T11:14:44.667Z</time></trkpt><trkpt lat="45.4577351" lon="10.77207"><ele>121.0</ele><time>2026-04-08T11:14:45.668Z</time></trkpt><trkpt lat="45.4578288" lon="10.7720698"><ele>121.0</ele><time>2026-04-08T11:14:46.667Z</time></trkpt><trkpt lat="45.4579279" lon="10.7720612"><ele>121.0</ele><time>2026-04-08T11:14:47.668Z</time></trkpt><trkpt lat="45.4580358" lon="10.7720565"><ele>121.0</ele><time>2026-04-08T11:14:48.667Z</time></trkpt><trkpt lat="45.45815" lon="10.77206"><ele>121.0</ele><time>2026-04-08T11:14:49.667Z</time></trkpt><trkpt lat="45.4582715" lon="10.7720653"><ele>121.0</ele><time>2026-04-08T11:14:50.668Z</time></trkpt><trkpt lat="45.4583951" lon="10.7720601"><ele>121.0</ele><time>2026-04-08T11:14:51.667Z</time></trkpt><trkpt lat="45.458519" lon="10.7720382"><ele>121.0</ele><time>2026-04-08T11:14:52.667Z</time></trkpt><trkpt lat="45.4586447" lon="10.7720185"><ele>121.0</ele><time>2026-04-08T11:14:53.667Z</time></trkpt><trkpt lat="45.4587707" lon="10.7720003"><ele>121.0</ele><time>2026-04-08T11:14:54.668Z</time></trkpt><trkpt lat="45.4588926" lon="10.7719823"><ele>121.0</ele><time>2026-04-08T11:14:55.668Z</time></trkpt><trkpt lat="45.4590079" lon="10.7719617"><ele>121.0</ele><time>2026-04-08T11:14:56.667Z</time></trkpt><trkpt lat="45.4591157" lon="10.7719394"><ele>121.0</ele><time>2026-04-08T11:14:57.668Z</time></trkpt><trkpt lat="45.4592142" lon="10.7719206"><ele>121.0</ele><time>2026-04-08T11:14:58.668Z</time></trkpt><trkpt lat="45.4593086" lon="10.771904"><ele>121.0</ele><time>2026-04-08T11:14:59.668Z</time></trkpt><trkpt lat="45.4594003" lon="10.7718911"><ele>121.0</ele><time>2026-04-08T11:15:00.667Z</time></trkpt><trkpt lat="45.459491" lon="10.7718856"><ele>121.0</ele><time>2026-04-08T11:15:01.668Z</time></trkpt><trkpt lat="45.4595846" lon="10.7718919"><ele>121.0</ele><time>2026-04-08T11:15:02.667Z</time></trkpt><trkpt lat="45.4596799" lon="10.7719059"><ele>121.0</ele><time>2026-04-08T11:15:03.667Z</time></trkpt><trkpt lat="45.4597838" lon="10.771923"><ele>121.25</ele><time>2026-04-08T11:15:04.668Z</time></trkpt><trkpt lat="45.4598968" lon="10.7719282"><ele>121.5</ele><time>2026-04-08T11:15:05.667Z</time></trkpt><trkpt lat="45.460022" lon="10.7719277"><ele>121.75</ele><time>2026-04-08T11:15:06.667Z</time></trkpt><trkpt lat="45.4601576" lon="10.7719291"><ele>122.0</ele><time>2026-04-08T11:15:07.668Z</time></trkpt><trkpt lat="45.4602984" lon="10.7719357"><ele>122.0</ele><time>2026-04-08T11:15:08.667Z</time></trkpt><trkpt lat="45.4604428" lon="10.7719414"><ele>122.0</ele><time>2026-04-08T11:15:09.667Z</time></trkpt><trkpt lat="45.4605785" lon="10.7719452"><ele>122.0</ele><time>2026-04-08T11:15:10.668Z</time></trkpt><trkpt lat="45.4607027" lon="10.7719485"><ele>122.0</ele><time>2026-04-08T11:15:11.667Z</time></trkpt><trkpt lat="45.4608167" lon="10.7719586"><ele>122.19999999999999</ele><time>2026-04-08T11:15:12.668Z</time></trkpt><trkpt lat="45.4609222" lon="10.7719684"><ele>122.39999999999999</ele><time>2026-04-08T11:15:13.667Z</time></trkpt><trkpt lat="45.4610174" lon="10.771973"><ele>122.60000000000001</ele><time>2026-04-08T11:15:14.668Z</time></trkpt><trkpt lat="45.4610959" lon="10.7719693"><ele>122.80000000000001</ele><time>2026-04-08T11:15:15.668Z</time></trkpt><trkpt lat="45.4611883" lon="10.7719789"><ele>123.0</ele><time>2026-04-08T11:15:17.667Z</time></trkpt><trkpt lat="45.4612453" lon="10.7720542"><ele>123.0</ele><time>2026-04-08T11:15:20.668Z</time></trkpt><trkpt lat="45.4612521" lon="10.7722339"><ele>123.00000000000001</ele><time>2026-04-08T11:15:22.667Z</time></trkpt><trkpt lat="45.4612521" lon="10.7724096"><ele>123.00000000000001</ele><time>2026-04-08T11:15:24.668Z</time></trkpt><trkpt lat="45.4613007" lon="10.7725388"><ele>123.0</ele><time>2026-04-08T11:15:26.668Z</time></trkpt><trkpt lat="45.4613649" lon="10.7725621"><ele>123.0</ele><time>2026-04-08T11:15:27.667Z</time></trkpt><trkpt lat="45.4614511" lon="10.7725666"><ele>123.4</ele><time>2026-04-08T11:15:28.667Z</time></trkpt><trkpt lat="45.4615427" lon="10.7725651"><ele>123.80000000000001</ele><time>2026-04-08T11:15:29.667Z</time></trkpt><trkpt lat="45.4616397" lon="10.7725731"><ele>124.2</ele><time>2026-04-08T11:15:30.668Z</time></trkpt><trkpt lat="45.4617444" lon="10.7725717"><ele>124.6</ele><time>2026-04-08T11:15:31.668Z</time></trkpt><trkpt lat="45.4618514" lon="10.7725753"><ele>125.0</ele><time>2026-04-08T11:15:32.668Z</time></trkpt><trkpt lat="45.4619583" lon="10.7725666"><ele>125.0</ele><time>2026-04-08T11:15:33.667Z</time></trkpt><trkpt lat="45.4620726" lon="10.772552"><ele>125.0</ele><time>2026-04-08T11:15:34.667Z</time></trkpt><trkpt lat="45.4621902" lon="10.7725266"><ele>125.0</ele><time>2026-04-08T11:15:35.668Z</time></trkpt><trkpt lat="45.4623149" lon="10.7724954"><ele>125.0</ele><time>2026-04-08T11:15:36.667Z</time></trkpt><trkpt lat="45.4624462" lon="10.7724624"><ele>125.5</ele><time>2026-04-08T11:15:37.667Z</time></trkpt><trkpt lat="45.4625786" lon="10.7724297"><ele>126.0</ele><time>2026-04-08T11:15:38.668Z</time></trkpt><trkpt lat="45.4627016" lon="10.772392"><ele>126.5</ele><time>2026-04-08T11:15:39.667Z</time></trkpt><trkpt lat="45.4628159" lon="10.7723629"><ele>127.0</ele><time>2026-04-08T11:15:40.667Z</time></trkpt><trkpt lat="45.462924" lon="10.7723527"><ele>128.0</ele><time>2026-04-08T11:15:41.667Z</time></trkpt><trkpt lat="45.4630422" lon="10.7723642"><ele>129.0</ele><time>2026-04-08T11:15:42.668Z</time></trkpt><trkpt lat="45.4631665" lon="10.7723919"><ele>130.0</ele><time>2026-04-08T11:15:43.668Z</time></trkpt><trkpt lat="45.4632957" lon="10.7724242"><ele>131.0</ele><time>2026-04-08T11:15:44.668Z</time></trkpt><trkpt lat="45.4634259" lon="10.7724456"><ele>131.0</ele><time>2026-04-08T11:15:45.667Z</time></trkpt><trkpt lat="45.4635532" lon="10.7724737"><ele>131.0</ele><time>2026-04-08T11:15:46.667Z</time></trkpt><trkpt lat="45.4636779" lon="10.7725256"><ele>131.0</ele><time>2026-04-08T11:15:47.668Z</time></trkpt><trkpt lat="45.4637982" lon="10.7725929"><ele>131.0</ele><time>2026-04-08T11:15:48.667Z</time></trkpt><trkpt lat="45.4639056" lon="10.7726592"><ele>132.2</ele><time>2026-04-08T11:15:49.668Z</time></trkpt><trkpt lat="45.4640028" lon="10.7727185"><ele>133.39999999999998</ele><time>2026-04-08T11:15:50.667Z</time></trkpt><trkpt lat="45.4640837" lon="10.7727896"><ele>134.6</ele><time>2026-04-08T11:15:51.667Z</time></trkpt><trkpt lat="45.4641491" lon="10.7728597"><ele>135.79999999999998</ele><time>2026-04-08T11:15:52.667Z</time></trkpt><trkpt lat="45.4642024" lon="10.7729256"><ele>137.0</ele><time>2026-04-08T11:15:53.667Z</time></trkpt><trkpt lat="45.4642854" lon="10.7730528"><ele>137.0</ele><time>2026-04-08T11:15:55.667Z</time></trkpt><trkpt lat="45.4643004" lon="10.7731933"><ele>137.0</ele><time>2026-04-08T11:15:57.668Z</time></trkpt><trkpt lat="45.4642715" lon="10.7732758"><ele>137.0</ele><time>2026-04-08T11:15:58.667Z</time></trkpt><trkpt lat="45.4642279" lon="10.7733696"><ele>137.0</ele><time>2026-04-08T11:15:59.668Z</time></trkpt><trkpt lat="45.4641781" lon="10.7734653"><ele>137.0</ele><time>2026-04-08T11:16:00.667Z</time></trkpt><trkpt lat="45.4641354" lon="10.773572"><ele>137.0</ele><time>2026-04-08T11:16:01.667Z</time></trkpt><trkpt lat="45.4640885" lon="10.7736854"><ele>137.79999999999998</ele><time>2026-04-08T11:16:02.668Z</time></trkpt><trkpt lat="45.464038" lon="10.7738053"><ele>138.6</ele><time>2026-04-08T11:16:03.668Z</time></trkpt><trkpt lat="45.4639815" lon="10.7739264"><ele>139.39999999999998</ele><time>2026-04-08T11:16:04.667Z</time></trkpt><trkpt lat="45.4639246" lon="10.7740451"><ele>140.2</ele><time>2026-04-08T11:16:05.667Z</time></trkpt><trkpt lat="45.4638741" lon="10.7741713"><ele>141.0</ele><time>2026-04-08T11:16:06.667Z</time></trkpt><trkpt lat="45.4638339" lon="10.7742968"><ele>141.16666666666666</ele><time>2026-04-08T11:16:07.667Z</time></trkpt><trkpt lat="45.4638096" lon="10.7744042"><ele>141.33333333333334</ele><time>2026-04-08T11:16:08.668Z</time></trkpt><trkpt lat="45.4638483" lon="10.7744863"><ele>141.5</ele><time>2026-04-08T11:16:12.667Z</time></trkpt><trkpt lat="45.4639319" lon="10.7745363"><ele>141.66666666666669</ele><time>2026-04-08T11:16:14.668Z</time></trkpt><trkpt lat="45.4640314" lon="10.7746392"><ele>141.83333333333334</ele><time>2026-04-08T11:16:16.667Z</time></trkpt><trkpt lat="45.4640881" lon="10.7747024"><ele>142.0</ele><time>2026-04-08T11:16:17.667Z</time></trkpt><trkpt lat="45.4641527" lon="10.7747754"><ele>142.0</ele><time>2026-04-08T11:16:18.667Z</time></trkpt><trkpt lat="45.4642149" lon="10.774852"><ele>142.0</ele><time>2026-04-08T11:16:19.667Z</time></trkpt><trkpt lat="45.4642786" lon="10.7749318"><ele>142.0</ele><time>2026-04-08T11:16:20.668Z</time></trkpt><trkpt lat="45.4643526" lon="10.7750183"><ele>142.0</ele><time>2026-04-08T11:16:21.667Z</time></trkpt><trkpt lat="45.4644237" lon="10.775103"><ele>142.0</ele><time>2026-04-08T11:16:22.667Z</time></trkpt><trkpt lat="45.4644875" lon="10.7751763"><ele>142.0</ele><time>2026-04-08T11:16:23.668Z</time></trkpt><trkpt lat="45.4645521" lon="10.7752439"><ele>143.16666666666669</ele><time>2026-04-08T11:16:24.668Z</time></trkpt><trkpt lat="45.4646221" lon="10.7753114"><ele>144.33333333333334</ele><time>2026-04-08T11:16:25.667Z</time></trkpt><trkpt lat="45.4646936" lon="10.7753835"><ele>145.5</ele><time>2026-04-08T11:16:26.667Z</time></trkpt><trkpt lat="45.464767" lon="10.7754552"><ele>146.66666666666666</ele><time>2026-04-08T11:16:27.667Z</time></trkpt><trkpt lat="45.4648336" lon="10.7755157"><ele>147.83333333333331</ele><time>2026-04-08T11:16:28.668Z</time></trkpt><trkpt lat="45.4649015" lon="10.7755647"><ele>149.0</ele><time>2026-04-08T11:16:29.667Z</time></trkpt><trkpt lat="45.4649715" lon="10.7756092"><ele>149.0</ele><time>2026-04-08T11:16:30.668Z</time></trkpt><trkpt lat="45.4650448" lon="10.7756604"><ele>149.0</ele><time>2026-04-08T11:16:31.668Z</time></trkpt><trkpt lat="45.4651227" lon="10.7757279"><ele>149.0</ele><time>2026-04-08T11:16:32.668Z</time></trkpt><trkpt lat="45.465204" lon="10.775807"><ele>149.0</ele><time>2026-04-08T11:16:33.668Z</time></trkpt><trkpt lat="45.4652827" lon="10.775882"><ele>149.0</ele><time>2026-04-08T11:16:34.668Z</time></trkpt><trkpt lat="45.4653568" lon="10.7759455"><ele>149.0</ele><time>2026-04-08T11:16:35.668Z</time></trkpt><trkpt lat="45.4654287" lon="10.7759984"><ele>149.0</ele><time>2026-04-08T11:16:36.668Z</time></trkpt><trkpt lat="45.4655032" lon="10.7760506"><ele>149.0</ele><time>2026-04-08T11:16:37.668Z</time></trkpt><trkpt lat="45.465577" lon="10.7761078"><ele>149.0</ele><time>2026-04-08T11:16:38.668Z</time></trkpt><trkpt lat="45.4656472" lon="10.7761496"><ele>149.0</ele><time>2026-04-08T11:16:39.668Z</time></trkpt><trkpt lat="45.465715" lon="10.7761937"><ele>149.0</ele><time>2026-04-08T11:16:40.667Z</time></trkpt><trkpt lat="45.465781" lon="10.7762345"><ele>149.28571428571428</ele><time>2026-04-08T11:16:41.667Z</time></trkpt><trkpt lat="45.4658459" lon="10.7762672"><ele>149.57142857142856</ele><time>2026-04-08T11:16:42.668Z</time></trkpt><trkpt lat="45.4659094" lon="10.7762848"><ele>149.85714285714286</ele><time>2026-04-08T11:16:43.667Z</time></trkpt><trkpt lat="45.4659734" lon="10.7762926"><ele>150.14285714285714</ele><time>2026-04-08T11:16:44.667Z</time></trkpt><trkpt lat="45.466036" lon="10.7763029"><ele>150.42857142857144</ele><time>2026-04-08T11:16:45.667Z</time></trkpt><trkpt lat="45.466101" lon="10.7763298"><ele>150.71428571428572</ele><time>2026-04-08T11:16:46.667Z</time></trkpt><trkpt lat="45.4661787" lon="10.7763686"><ele>151.0</ele><time>2026-04-08T11:16:47.667Z</time></trkpt><trkpt lat="45.4662574" lon="10.7764094"><ele>151.42857142857144</ele><time>2026-04-08T11:16:48.667Z</time></trkpt><trkpt lat="45.466337" lon="10.7764594"><ele>151.85714285714286</ele><time>2026-04-08T11:16:49.668Z</time></trkpt><trkpt lat="45.4664121" lon="10.7765016"><ele>152.28571428571428</ele><time>2026-04-08T11:16:50.667Z</time></trkpt><trkpt lat="45.4664757" lon="10.7765263"><ele>152.71428571428572</ele><time>2026-04-08T11:16:51.668Z</time></trkpt><trkpt lat="45.4665414" lon="10.7765507"><ele>153.14285714285714</ele><time>2026-04-08T11:16:52.667Z</time></trkpt><trkpt lat="45.4666041" lon="10.7765877"><ele>153.57142857142858</ele><time>2026-04-08T11:16:53.667Z</time></trkpt><trkpt lat="45.4666682" lon="10.7766255"><ele>154.0</ele><time>2026-04-08T11:16:54.667Z</time></trkpt><trkpt lat="45.466789" lon="10.7766722"><ele>154.0</ele><time>2026-04-08T11:16:56.668Z</time></trkpt><trkpt lat="45.4668788" lon="10.7767225"><ele>154.0</ele><time>2026-04-08T11:16:58.668Z</time></trkpt><trkpt lat="45.4669611" lon="10.7767717"><ele>154.0</ele><time>2026-04-08T11:17:00.667Z</time></trkpt><trkpt lat="45.467085" lon="10.7768385"><ele>154.0</ele><time>2026-04-08T11:17:02.668Z</time></trkpt><trkpt lat="45.4671598" lon="10.7768766"><ele>154.0</ele><time>2026-04-08T11:17:03.668Z</time></trkpt><trkpt lat="45.467236" lon="10.7769149"><ele>154.66666666666669</ele><time>2026-04-08T11:17:04.668Z</time></trkpt><trkpt lat="45.4673147" lon="10.7769563"><ele>155.33333333333334</ele><time>2026-04-08T11:17:05.668Z</time></trkpt><trkpt lat="45.4673926" lon="10.7769965"><ele>156.0</ele><time>2026-04-08T11:17:06.668Z</time></trkpt><trkpt lat="45.4674697" lon="10.7770369"><ele>156.66666666666666</ele><time>2026-04-08T11:17:07.667Z</time></trkpt><trkpt lat="45.4675444" lon="10.7770812"><ele>157.33333333333331</ele><time>2026-04-08T11:17:08.667Z</time></trkpt><trkpt lat="45.4676159" lon="10.7771272"><ele>158.0</ele><time>2026-04-08T11:17:09.667Z</time></trkpt><trkpt lat="45.4676831" lon="10.7771689"><ele>158.0</ele><time>2026-04-08T11:17:10.668Z</time></trkpt><trkpt lat="45.4677413" lon="10.7772074"><ele>158.0</ele><time>2026-04-08T11:17:11.668Z</time></trkpt><trkpt lat="45.4678001" lon="10.7772575"><ele>158.0</ele><time>2026-04-08T11:17:12.667Z</time></trkpt><trkpt lat="45.4678677" lon="10.7773136"><ele>158.0</ele><time>2026-04-08T11:17:13.667Z</time></trkpt><trkpt lat="45.4679391" lon="10.7773611"><ele>158.0</ele><time>2026-04-08T11:17:14.668Z</time></trkpt><trkpt lat="45.4680171" lon="10.7774036"><ele>158.0</ele><time>2026-04-08T11:17:15.668Z</time></trkpt><trkpt lat="45.4681062" lon="10.7774524"><ele>157.66666666666666</ele><time>2026-04-08T11:17:16.668Z</time></trkpt><trkpt lat="45.4681945" lon="10.7774979"><ele>157.33333333333331</ele><time>2026-04-08T11:17:17.667Z</time></trkpt><trkpt lat="45.4682783" lon="10.7775372"><ele>157.0</ele><time>2026-04-08T11:17:18.668Z</time></trkpt><trkpt lat="45.4683578" lon="10.7775749"><ele>156.66666666666666</ele><time>2026-04-08T11:17:19.667Z</time></trkpt><trkpt lat="45.468431" lon="10.7776166"><ele>156.33333333333334</ele><time>2026-04-08T11:17:20.668Z</time></trkpt><trkpt lat="45.4685053" lon="10.7776637"><ele>156.0</ele><time>2026-04-08T11:17:21.667Z</time></trkpt><trkpt lat="45.4685755" lon="10.7777019"><ele>155.66666666666666</ele><time>2026-04-08T11:17:22.667Z</time></trkpt><trkpt lat="45.4686579" lon="10.7777497"><ele>155.33333333333334</ele><time>2026-04-08T11:17:23.668Z</time></trkpt><trkpt lat="45.4687319" lon="10.777793"><ele>155.0</ele><time>2026-04-08T11:17:24.667Z</time></trkpt><trkpt lat="45.4688011" lon="10.7778323"><ele>154.66666666666669</ele><time>2026-04-08T11:17:25.668Z</time></trkpt><trkpt lat="45.4688732" lon="10.7778794"><ele>154.33333333333334</ele><time>2026-04-08T11:17:26.668Z</time></trkpt><trkpt lat="45.4689502" lon="10.7779291"><ele>154.0</ele><time>2026-04-08T11:17:27.668Z</time></trkpt><trkpt lat="45.4690207" lon="10.7779692"><ele>154.0</ele><time>2026-04-08T11:17:28.667Z</time></trkpt><trkpt lat="45.4691305" lon="10.7780276"><ele>154.0</ele><time>2026-04-08T11:17:30.667Z</time></trkpt><trkpt lat="45.4691951" lon="10.7780916"><ele>154.0</ele><time>2026-04-08T11:17:32.667Z</time></trkpt><trkpt lat="45.4691935" lon="10.7782205"><ele>154.0</ele><time>2026-04-08T11:17:35.667Z</time></trkpt><trkpt lat="45.4691356" lon="10.7783615"><ele>154.0</ele><time>2026-04-08T11:17:37.617Z</time></trkpt><trkpt lat="45.4690922" lon="10.7784364"><ele>154.0</ele><time>2026-04-08T11:17:38.618Z</time></trkpt><trkpt lat="45.4690442" lon="10.7785289"><ele>154.0</ele><time>2026-04-08T11:17:39.618Z</time></trkpt><trkpt lat="45.4689838" lon="10.7786183"><ele>154.0</ele><time>2026-04-08T11:17:40.617Z</time></trkpt><trkpt lat="45.4689151" lon="10.7787153"><ele>154.0</ele><time>2026-04-08T11:17:41.618Z</time></trkpt><trkpt lat="45.4688379" lon="10.7788289"><ele>154.0</ele><time>2026-04-08T11:17:42.617Z</time></trkpt><trkpt lat="45.4687589" lon="10.7789459"><ele>153.5</ele><time>2026-04-08T11:17:43.618Z</time></trkpt><trkpt lat="45.4686786" lon="10.7790673"><ele>153.0</ele><time>2026-04-08T11:17:44.617Z</time></trkpt><trkpt lat="45.4685942" lon="10.7791955"><ele>152.5</ele><time>2026-04-08T11:17:45.618Z</time></trkpt><trkpt lat="45.4685108" lon="10.7793192"><ele>152.0</ele><time>2026-04-08T11:17:46.618Z</time></trkpt><trkpt lat="45.4684283" lon="10.779434"><ele>152.0</ele><time>2026-04-08T11:17:47.618Z</time></trkpt><trkpt lat="45.468347" lon="10.7795412"><ele>152.0</ele><time>2026-04-08T11:17:48.618Z</time></trkpt><trkpt lat="45.4682629" lon="10.7796424"><ele>152.0</ele><time>2026-04-08T11:17:49.617Z</time></trkpt><trkpt lat="45.4681724" lon="10.7797342"><ele>152.0</ele><time>2026-04-08T11:17:50.617Z</time></trkpt><trkpt lat="45.4680777" lon="10.7798044"><ele>152.0</ele><time>2026-04-08T11:17:51.617Z</time></trkpt><trkpt lat="45.4679863" lon="10.7798656"><ele>152.2</ele><time>2026-04-08T11:17:52.617Z</time></trkpt><trkpt lat="45.4678988" lon="10.7799255"><ele>152.39999999999998</ele><time>2026-04-08T11:17:53.617Z</time></trkpt><trkpt lat="45.4678155" lon="10.7799937"><ele>152.60000000000002</ele><time>2026-04-08T11:17:54.617Z</time></trkpt><trkpt lat="45.4677328" lon="10.780077"><ele>152.8</ele><time>2026-04-08T11:17:55.618Z</time></trkpt><trkpt lat="45.4676572" lon="10.7801771"><ele>153.0</ele><time>2026-04-08T11:17:56.617Z</time></trkpt><trkpt lat="45.4675848" lon="10.7802935"><ele>154.0</ele><time>2026-04-08T11:17:57.617Z</time></trkpt><trkpt lat="45.4675206" lon="10.7804124"><ele>155.0</ele><time>2026-04-08T11:17:58.617Z</time></trkpt><trkpt lat="45.46746" lon="10.7805361"><ele>156.0</ele><time>2026-04-08T11:17:59.617Z</time></trkpt><trkpt lat="45.4673981" lon="10.7806588"><ele>157.0</ele><time>2026-04-08T11:18:00.618Z</time></trkpt><trkpt lat="45.4673361" lon="10.7807793"><ele>158.0</ele><time>2026-04-08T11:18:01.617Z</time></trkpt><trkpt lat="45.4672738" lon="10.7808954"><ele>158.0</ele><time>2026-04-08T11:18:02.618Z</time></trkpt><trkpt lat="45.4672119" lon="10.7810008"><ele>158.0</ele><time>2026-04-08T11:18:03.616Z</time></trkpt><trkpt lat="45.4671556" lon="10.7810945"><ele>158.0</ele><time>2026-04-08T11:18:04.618Z</time></trkpt><trkpt lat="45.4671046" lon="10.7811872"><ele>158.0</ele><time>2026-04-08T11:18:05.618Z</time></trkpt><trkpt lat="45.4670531" lon="10.7812888"><ele>158.0</ele><time>2026-04-08T11:18:06.617Z</time></trkpt><trkpt lat="45.4670103" lon="10.7814003"><ele>158.0</ele><time>2026-04-08T11:18:07.618Z</time></trkpt><trkpt lat="45.4669649" lon="10.7815214"><ele>157.20000000000002</ele><time>2026-04-08T11:18:08.618Z</time></trkpt><trkpt lat="45.4669221" lon="10.7816488"><ele>156.4</ele><time>2026-04-08T11:18:09.617Z</time></trkpt><trkpt lat="45.4668867" lon="10.7817786"><ele>155.60000000000002</ele><time>2026-04-08T11:18:10.618Z</time></trkpt><trkpt lat="45.4668555" lon="10.781918"><ele>154.8</ele><time>2026-04-08T11:18:11.618Z</time></trkpt><trkpt lat="45.4668293" lon="10.7820739"><ele>154.0</ele><time>2026-04-08T11:18:12.618Z</time></trkpt><trkpt lat="45.4668088" lon="10.7822418"><ele>154.0</ele><time>2026-04-08T11:18:13.618Z</time></trkpt><trkpt lat="45.4667899" lon="10.7824086"><ele>154.0</ele><time>2026-04-08T11:18:14.618Z</time></trkpt><trkpt lat="45.4667726" lon="10.7825673"><ele>154.0</ele><time>2026-04-08T11:18:15.617Z</time></trkpt><trkpt lat="45.4667533" lon="10.7827178"><ele>154.0</ele><time>2026-04-08T11:18:16.617Z</time></trkpt><trkpt lat="45.4667326" lon="10.7828714"><ele>154.0</ele><time>2026-04-08T11:18:17.618Z</time></trkpt><trkpt lat="45.4667008" lon="10.7830247"><ele>153.8</ele><time>2026-04-08T11:18:18.618Z</time></trkpt><trkpt lat="45.466663" lon="10.7831745"><ele>153.60000000000002</ele><time>2026-04-08T11:18:19.617Z</time></trkpt><trkpt lat="45.4666268" lon="10.7833215"><ele>153.4</ele><time>2026-04-08T11:18:20.617Z</time></trkpt><trkpt lat="45.4665941" lon="10.7834706"><ele>153.20000000000002</ele><time>2026-04-08T11:18:21.618Z</time></trkpt><trkpt lat="45.4665697" lon="10.7836214"><ele>153.0</ele><time>2026-04-08T11:18:22.618Z</time></trkpt><trkpt lat="45.4665561" lon="10.7837784"><ele>152.8</ele><time>2026-04-08T11:18:23.618Z</time></trkpt><trkpt lat="45.4665524" lon="10.7839328"><ele>152.60000000000002</ele><time>2026-04-08T11:18:24.618Z</time></trkpt><trkpt lat="45.4665564" lon="10.7840757"><ele>152.39999999999998</ele><time>2026-04-08T11:18:25.619Z</time></trkpt><trkpt lat="45.4665599" lon="10.7842103"><ele>152.2</ele><time>2026-04-08T11:18:26.618Z</time></trkpt><trkpt lat="45.4665566" lon="10.7843332"><ele>152.0</ele><time>2026-04-08T11:18:27.619Z</time></trkpt><trkpt lat="45.4665394" lon="10.7844379"><ele>152.5</ele><time>2026-04-08T11:18:28.619Z</time></trkpt><trkpt lat="45.4665387" lon="10.7845632"><ele>153.0</ele><time>2026-04-08T11:18:30.619Z</time></trkpt><trkpt lat="45.4666271" lon="10.7845961"><ele>153.5</ele><time>2026-04-08T11:18:32.619Z</time></trkpt><trkpt lat="45.4666937" lon="10.7845715"><ele>154.0</ele><time>2026-04-08T11:18:33.618Z</time></trkpt><trkpt lat="45.4667607" lon="10.7845469"><ele>154.5</ele><time>2026-04-08T11:18:34.619Z</time></trkpt><trkpt lat="45.466833" lon="10.7845542"><ele>155.0</ele><time>2026-04-08T11:18:35.618Z</time></trkpt><trkpt lat="45.4669191" lon="10.7845947"><ele>155.0</ele><time>2026-04-08T11:18:36.618Z</time></trkpt><trkpt lat="45.4669984" lon="10.7846424"><ele>155.0</ele><time>2026-04-08T11:18:37.619Z</time></trkpt><trkpt lat="45.4670736" lon="10.7846819"><ele>155.0</ele><time>2026-04-08T11:18:38.619Z</time></trkpt><trkpt lat="45.46715" lon="10.7846798"><ele>155.0</ele><time>2026-04-08T11:18:39.618Z</time></trkpt><trkpt lat="45.4672292" lon="10.7846364"><ele>155.0</ele><time>2026-04-08T11:18:40.618Z</time></trkpt><trkpt lat="45.4672968" lon="10.7845661"><ele>155.0</ele><time>2026-04-08T11:18:41.619Z</time></trkpt><trkpt lat="45.4673771" lon="10.7845023"><ele>155.0</ele><time>2026-04-08T11:18:42.618Z</time></trkpt><trkpt lat="45.4674513" lon="10.7844529"><ele>155.0</ele><time>2026-04-08T11:18:43.619Z</time></trkpt><trkpt lat="45.4675304" lon="10.7844196"><ele>155.0</ele><time>2026-04-08T11:18:44.618Z</time></trkpt><trkpt lat="45.4676177" lon="10.7844015"><ele>155.0</ele><time>2026-04-08T11:18:45.618Z</time></trkpt><trkpt lat="45.4677174" lon="10.7843968"><ele>155.0</ele><time>2026-04-08T11:18:46.619Z</time></trkpt><trkpt lat="45.4678214" lon="10.7843922"><ele>155.0</ele><time>2026-04-08T11:18:47.619Z</time></trkpt><trkpt lat="45.4679187" lon="10.7843885"><ele>155.0</ele><time>2026-04-08T11:18:48.619Z</time></trkpt><trkpt lat="45.4680068" lon="10.7843816"><ele>155.0</ele><time>2026-04-08T11:18:49.618Z</time></trkpt><trkpt lat="45.4681021" lon="10.7843685"><ele>155.0</ele><time>2026-04-08T11:18:50.618Z</time></trkpt><trkpt lat="45.468195" lon="10.7843491"><ele>155.0</ele><time>2026-04-08T11:18:51.618Z</time></trkpt><trkpt lat="45.4682746" lon="10.7843276"><ele>154.66666666666666</ele><time>2026-04-08T11:18:52.619Z</time></trkpt><trkpt lat="45.4683412" lon="10.7842919"><ele>154.33333333333331</ele><time>2026-04-08T11:18:53.618Z</time></trkpt><trkpt lat="45.4684088" lon="10.7842456"><ele>154.0</ele><time>2026-04-08T11:18:54.618Z</time></trkpt><trkpt lat="45.4684683" lon="10.7841873"><ele>153.66666666666666</ele><time>2026-04-08T11:18:55.619Z</time></trkpt><trkpt lat="45.4685587" lon="10.7841095"><ele>153.33333333333334</ele><time>2026-04-08T11:18:57.618Z</time></trkpt><trkpt lat="45.4686487" lon="10.7840549"><ele>153.0</ele><time>2026-04-08T11:18:59.618Z</time></trkpt><trkpt lat="45.4687688" lon="10.7840083"><ele>152.20000000000002</ele><time>2026-04-08T11:19:01.619Z</time></trkpt><trkpt lat="45.4688475" lon="10.7839814"><ele>151.4</ele><time>2026-04-08T11:19:02.618Z</time></trkpt><trkpt lat="45.4689361" lon="10.7839533"><ele>150.60000000000002</ele><time>2026-04-08T11:19:03.619Z</time></trkpt><trkpt lat="45.4690231" lon="10.7839217"><ele>149.8</ele><time>2026-04-08T11:19:04.619Z</time></trkpt><trkpt lat="45.4691149" lon="10.7838902"><ele>149.0</ele><time>2026-04-08T11:19:05.618Z</time></trkpt><trkpt lat="45.4692129" lon="10.783857"><ele>149.0</ele><time>2026-04-08T11:19:06.618Z</time></trkpt><trkpt lat="45.4693168" lon="10.7838193"><ele>149.0</ele><time>2026-04-08T11:19:07.619Z</time></trkpt><trkpt lat="45.4694255" lon="10.7837928"><ele>149.0</ele><time>2026-04-08T11:19:08.618Z</time></trkpt><trkpt lat="45.4695336" lon="10.7837758"><ele>149.0</ele><time>2026-04-08T11:19:09.618Z</time></trkpt><trkpt lat="45.4696341" lon="10.7837643"><ele>149.0</ele><time>2026-04-08T11:19:10.618Z</time></trkpt><trkpt lat="45.4697332" lon="10.7837609"><ele>148.4</ele><time>2026-04-08T11:19:11.618Z</time></trkpt><trkpt lat="45.4698342" lon="10.7837629"><ele>147.8</ele><time>2026-04-08T11:19:12.618Z</time></trkpt><trkpt lat="45.4699363" lon="10.783775"><ele>147.2</ele><time>2026-04-08T11:19:13.619Z</time></trkpt><trkpt lat="45.4700405" lon="10.7837945"><ele>146.6</ele><time>2026-04-08T11:19:14.619Z</time></trkpt><trkpt lat="45.4701492" lon="10.7838167"><ele>146.0</ele><time>2026-04-08T11:19:15.619Z</time></trkpt><trkpt lat="45.4702636" lon="10.7838384"><ele>146.0</ele><time>2026-04-08T11:19:16.618Z</time></trkpt><trkpt lat="45.470372" lon="10.7838591"><ele>146.0</ele><time>2026-04-08T11:19:17.618Z</time></trkpt><trkpt lat="45.4704759" lon="10.7838736"><ele>146.0</ele><time>2026-04-08T11:19:18.618Z</time></trkpt><trkpt lat="45.4705753" lon="10.7838827"><ele>146.0</ele><time>2026-04-08T11:19:19.618Z</time></trkpt><trkpt lat="45.4706755" lon="10.7838813"><ele>146.0</ele><time>2026-04-08T11:19:20.619Z</time></trkpt><trkpt lat="45.4707769" lon="10.7838672"><ele>145.25</ele><time>2026-04-08T11:19:21.619Z</time></trkpt><trkpt lat="45.4708862" lon="10.7838425"><ele>144.5</ele><time>2026-04-08T11:19:22.618Z</time></trkpt><trkpt lat="45.4710001" lon="10.7838075"><ele>143.75</ele><time>2026-04-08T11:19:23.619Z</time></trkpt><trkpt lat="45.4711198" lon="10.7837749"><ele>143.0</ele><time>2026-04-08T11:19:24.619Z</time></trkpt><trkpt lat="45.4712427" lon="10.7837443"><ele>142.25</ele><time>2026-04-08T11:19:25.619Z</time></trkpt><trkpt lat="45.4713713" lon="10.7837118"><ele>141.5</ele><time>2026-04-08T11:19:26.62Z</time></trkpt><trkpt lat="45.4715054" lon="10.7836758"><ele>140.75</ele><time>2026-04-08T11:19:27.62Z</time></trkpt><trkpt lat="45.4716362" lon="10.7836426"><ele>140.0</ele><time>2026-04-08T11:19:28.619Z</time></trkpt><trkpt lat="45.4717527" lon="10.7836043"><ele>140.0</ele><time>2026-04-08T11:19:29.619Z</time></trkpt><trkpt lat="45.4718611" lon="10.783581"><ele>140.0</ele><time>2026-04-08T11:19:30.62Z</time></trkpt><trkpt lat="45.4719626" lon="10.7835566"><ele>140.0</ele><time>2026-04-08T11:19:31.619Z</time></trkpt><trkpt lat="45.4720577" lon="10.7835286"><ele>140.0</ele><time>2026-04-08T11:19:32.62Z</time></trkpt><trkpt lat="45.4721552" lon="10.7835033"><ele>140.0</ele><time>2026-04-08T11:19:33.619Z</time></trkpt><trkpt lat="45.4722522" lon="10.783481"><ele>139.75</ele><time>2026-04-08T11:19:34.619Z</time></trkpt><trkpt lat="45.4723561" lon="10.7834562"><ele>139.5</ele><time>2026-04-08T11:19:35.62Z</time></trkpt><trkpt lat="45.4724707" lon="10.7834369"><ele>139.25</ele><time>2026-04-08T11:19:36.619Z</time></trkpt><trkpt lat="45.4725923" lon="10.783423"><ele>139.0</ele><time>2026-04-08T11:19:37.62Z</time></trkpt><trkpt lat="45.4727131" lon="10.7834059"><ele>139.0</ele><time>2026-04-08T11:19:38.619Z</time></trkpt><trkpt lat="45.4728313" lon="10.783396"><ele>139.0</ele><time>2026-04-08T11:19:39.62Z</time></trkpt><trkpt lat="45.4729451" lon="10.7833833"><ele>139.0</ele><time>2026-04-08T11:19:40.619Z</time></trkpt><trkpt lat="45.4730469" lon="10.7833763"><ele>139.0</ele><time>2026-04-08T11:19:41.619Z</time></trkpt><trkpt lat="45.4731382" lon="10.7833722"><ele>139.0</ele><time>2026-04-08T11:19:42.62Z</time></trkpt><trkpt lat="45.4732201" lon="10.7833743"><ele>139.0</ele><time>2026-04-08T11:19:43.62Z</time></trkpt><trkpt lat="45.4732875" lon="10.7833738"><ele>139.0</ele><time>2026-04-08T11:19:44.619Z</time></trkpt><trkpt lat="45.4733888" lon="10.7833674"><ele>139.0</ele><time>2026-04-08T11:19:46.619Z</time></trkpt><trkpt lat="45.4733982" lon="10.7832727"><ele>139.0</ele><time>2026-04-08T11:19:56.619Z</time></trkpt><trkpt lat="45.4733134" lon="10.7831194"><ele>139.0</ele><time>2026-04-08T11:19:58.62Z</time></trkpt><trkpt lat="45.473274" lon="10.7830288"><ele>139.0</ele><time>2026-04-08T11:19:59.619Z</time></trkpt><trkpt lat="45.4732283" lon="10.782936"><ele>139.0</ele><time>2026-04-08T11:20:00.619Z</time></trkpt><trkpt lat="45.473174" lon="10.7828488"><ele>139.0</ele><time>2026-04-08T11:20:01.62Z</time></trkpt><trkpt lat="45.4731187" lon="10.7827589"><ele>139.0</ele><time>2026-04-08T11:20:02.619Z</time></trkpt><trkpt lat="45.4730641" lon="10.7826669"><ele>139.0</ele><time>2026-04-08T11:20:03.62Z</time></trkpt><trkpt lat="45.4730137" lon="10.7825671"><ele>139.0</ele><time>2026-04-08T11:20:04.62Z</time></trkpt><trkpt lat="45.4729553" lon="10.7824605"><ele>139.0</ele><time>2026-04-08T11:20:05.619Z</time></trkpt><trkpt lat="45.4728823" lon="10.7823527"><ele>139.5</ele><time>2026-04-08T11:20:06.62Z</time></trkpt><trkpt lat="45.4728082" lon="10.7822438"><ele>140.0</ele><time>2026-04-08T11:20:07.619Z</time></trkpt><trkpt lat="45.4727332" lon="10.7821275"><ele>140.5</ele><time>2026-04-08T11:20:08.62Z</time></trkpt><trkpt lat="45.4726548" lon="10.7820053"><ele>141.0</ele><time>2026-04-08T11:20:09.619Z</time></trkpt><trkpt lat="45.4725778" lon="10.7818777"><ele>140.5</ele><time>2026-04-08T11:20:10.619Z</time></trkpt><trkpt lat="45.4724945" lon="10.7817488"><ele>140.0</ele><time>2026-04-08T11:20:11.619Z</time></trkpt><trkpt lat="45.4724068" lon="10.7816181"><ele>139.5</ele><time>2026-04-08T11:20:12.62Z</time></trkpt><trkpt lat="45.4723187" lon="10.7814781"><ele>139.0</ele><time>2026-04-08T11:20:13.619Z</time></trkpt><trkpt lat="45.4722298" lon="10.7813397"><ele>139.0</ele><time>2026-04-08T11:20:14.619Z</time></trkpt><trkpt lat="45.4721433" lon="10.781195"><ele>139.0</ele><time>2026-04-08T11:20:15.619Z</time></trkpt><trkpt lat="45.47206" lon="10.7810467"><ele>139.0</ele><time>2026-04-08T11:20:16.619Z</time></trkpt><trkpt lat="45.4719822" lon="10.7808987"><ele>139.0</ele><time>2026-04-08T11:20:17.62Z</time></trkpt><trkpt lat="45.4719199" lon="10.7807579"><ele>139.0</ele><time>2026-04-08T11:20:18.62Z</time></trkpt><trkpt lat="45.4718603" lon="10.7806216"><ele>139.0</ele><time>2026-04-08T11:20:19.62Z</time></trkpt><trkpt lat="45.4718108" lon="10.7804854"><ele>139.0</ele><time>2026-04-08T11:20:20.619Z</time></trkpt><trkpt lat="45.4717628" lon="10.7803611"><ele>139.0</ele><time>2026-04-08T11:20:21.62Z</time></trkpt><trkpt lat="45.4717098" lon="10.7802402"><ele>139.0</ele><time>2026-04-08T11:20:22.62Z</time></trkpt><trkpt lat="45.4716504" lon="10.7801253"><ele>139.0</ele><time>2026-04-08T11:20:23.62Z</time></trkpt><trkpt lat="45.4715989" lon="10.7799932"><ele>139.0</ele><time>2026-04-08T11:20:24.621Z</time></trkpt><trkpt lat="45.4715727" lon="10.7798452"><ele>139.0</ele><time>2026-04-08T11:20:25.62Z</time></trkpt><trkpt lat="45.4715635" lon="10.7796894"><ele>139.0</ele><time>2026-04-08T11:20:26.621Z</time></trkpt><trkpt lat="45.471559" lon="10.7795216"><ele>139.0</ele><time>2026-04-08T11:20:27.621Z</time></trkpt><trkpt lat="45.4715482" lon="10.7793509"><ele>138.75</ele><time>2026-04-08T11:20:28.62Z</time></trkpt><trkpt lat="45.4715276" lon="10.7791791"><ele>138.5</ele><time>2026-04-08T11:20:29.621Z</time></trkpt><trkpt lat="45.4714934" lon="10.7790101"><ele>138.25</ele><time>2026-04-08T11:20:30.621Z</time></trkpt><trkpt lat="45.4714476" lon="10.7788382"><ele>138.0</ele><time>2026-04-08T11:20:31.621Z</time></trkpt><trkpt lat="45.4713906" lon="10.7786727"><ele>137.6</ele><time>2026-04-08T11:20:32.621Z</time></trkpt><trkpt lat="45.4713267" lon="10.7785113"><ele>137.20000000000002</ele><time>2026-04-08T11:20:33.62Z</time></trkpt><trkpt lat="45.4712689" lon="10.7783622"><ele>136.8</ele><time>2026-04-08T11:20:34.62Z</time></trkpt><trkpt lat="45.4712152" lon="10.7782276"><ele>136.4</ele><time>2026-04-08T11:20:35.62Z</time></trkpt><trkpt lat="45.4711712" lon="10.7781222"><ele>136.0</ele><time>2026-04-08T11:20:36.62Z</time></trkpt><trkpt lat="45.4711234" lon="10.7779908"><ele>136.0</ele><time>2026-04-08T11:20:38.62Z</time></trkpt><trkpt lat="45.4711598" lon="10.7781336"><ele>136.0</ele><time>2026-04-08T11:20:45.62Z</time></trkpt><trkpt lat="45.4711966" lon="10.7782088"><ele>136.0</ele><time>2026-04-08T11:20:46.62Z</time></trkpt><trkpt lat="45.4712609" lon="10.7783912"><ele>136.0</ele><time>2026-04-08T11:20:48.621Z</time></trkpt><trkpt lat="45.4712894" lon="10.778506"><ele>136.0</ele><time>2026-04-08T11:20:49.62Z</time></trkpt><trkpt lat="45.4713432" lon="10.7786288"><ele>136.5</ele><time>2026-04-08T11:20:50.621Z</time></trkpt><trkpt lat="45.4713965" lon="10.7787575"><ele>137.0</ele><time>2026-04-08T11:20:51.621Z</time></trkpt><trkpt lat="45.4714457" lon="10.778901"><ele>137.5</ele><time>2026-04-08T11:20:52.621Z</time></trkpt><trkpt lat="45.4714893" lon="10.7790613"><ele>138.0</ele><time>2026-04-08T11:20:53.62Z</time></trkpt><trkpt lat="45.4715238" lon="10.7792287"><ele>138.25</ele><time>2026-04-08T11:20:54.62Z</time></trkpt><trkpt lat="45.4715424" lon="10.7793956"><ele>138.5</ele><time>2026-04-08T11:20:55.62Z</time></trkpt><trkpt lat="45.4715499" lon="10.7795682"><ele>138.75</ele><time>2026-04-08T11:20:56.621Z</time></trkpt><trkpt lat="45.4715608" lon="10.7797399"><ele>139.0</ele><time>2026-04-08T11:20:57.62Z</time></trkpt><trkpt lat="45.4715889" lon="10.7799132"><ele>139.0</ele><time>2026-04-08T11:20:58.621Z</time></trkpt><trkpt lat="45.471636" lon="10.7800771"><ele>139.0</ele><time>2026-04-08T11:20:59.621Z</time></trkpt><trkpt lat="45.4716927" lon="10.7802296"><ele>139.0</ele><time>2026-04-08T11:21:00.62Z</time></trkpt><trkpt lat="45.471754" lon="10.7803667"><ele>139.0</ele><time>2026-04-08T11:21:01.621Z</time></trkpt><trkpt lat="45.471815" lon="10.780499"><ele>139.0</ele><time>2026-04-08T11:21:02.62Z</time></trkpt><trkpt lat="45.4718716" lon="10.7806319"><ele>139.0</ele><time>2026-04-08T11:21:03.62Z</time></trkpt><trkpt lat="45.4719237" lon="10.7807659"><ele>139.0</ele><time>2026-04-08T11:21:04.621Z</time></trkpt><trkpt lat="45.4719827" lon="10.7809004"><ele>139.0</ele><time>2026-04-08T11:21:05.62Z</time></trkpt><trkpt lat="45.4720497" lon="10.7810268"><ele>139.0</ele><time>2026-04-08T11:21:06.62Z</time></trkpt><trkpt lat="45.4721221" lon="10.7811557"><ele>139.0</ele><time>2026-04-08T11:21:07.62Z</time></trkpt><trkpt lat="45.4721934" lon="10.7812827"><ele>139.0</ele><time>2026-04-08T11:21:08.62Z</time></trkpt><trkpt lat="45.4722568" lon="10.7814069"><ele>139.0</ele><time>2026-04-08T11:21:09.62Z</time></trkpt><trkpt lat="45.4723302" lon="10.7815324"><ele>139.0</ele><time>2026-04-08T11:21:10.62Z</time></trkpt><trkpt lat="45.4724086" lon="10.7816568"><ele>139.0</ele><time>2026-04-08T11:21:11.621Z</time></trkpt><trkpt lat="45.4724891" lon="10.7817757"><ele>139.0</ele><time>2026-04-08T11:21:12.62Z</time></trkpt><trkpt lat="45.4725733" lon="10.7818938"><ele>139.0</ele><time>2026-04-08T11:21:13.62Z</time></trkpt><trkpt lat="45.4726543" lon="10.7820186"><ele>139.0</ele><time>2026-04-08T11:21:14.62Z</time></trkpt><trkpt lat="45.4727346" lon="10.7821401"><ele>139.5</ele><time>2026-04-08T11:21:15.62Z</time></trkpt><trkpt lat="45.4728193" lon="10.782264"><ele>140.0</ele><time>2026-04-08T11:21:16.62Z</time></trkpt><trkpt lat="45.4729043" lon="10.7823903"><ele>140.5</ele><time>2026-04-08T11:21:17.622Z</time></trkpt><trkpt lat="45.4729784" lon="10.7825089"><ele>141.0</ele><time>2026-04-08T11:21:18.622Z</time></trkpt><trkpt lat="45.4730472" lon="10.7826289"><ele>140.6</ele><time>2026-04-08T11:21:19.674Z</time></trkpt><trkpt lat="45.4731124" lon="10.7827458"><ele>140.2</ele><time>2026-04-08T11:21:20.675Z</time></trkpt><trkpt lat="45.4731731" lon="10.7828617"><ele>139.8</ele><time>2026-04-08T11:21:21.675Z</time></trkpt><trkpt lat="45.4732314" lon="10.7829708"><ele>139.4</ele><time>2026-04-08T11:21:22.674Z</time></trkpt><trkpt lat="45.4732847" lon="10.7830791"><ele>139.0</ele><time>2026-04-08T11:21:23.675Z</time></trkpt><trkpt lat="45.4733349" lon="10.7831848"><ele>139.0</ele><time>2026-04-08T11:21:24.675Z</time></trkpt><trkpt lat="45.4733819" lon="10.7832831"><ele>139.0</ele><time>2026-04-08T11:21:25.675Z</time></trkpt><trkpt lat="45.4734596" lon="10.7833996"><ele>139.0</ele><time>2026-04-08T11:21:27.674Z</time></trkpt><trkpt lat="45.4735226" lon="10.7834305"><ele>139.0</ele><time>2026-04-08T11:21:28.675Z</time></trkpt><trkpt lat="45.4735894" lon="10.7834405"><ele>139.0</ele><time>2026-04-08T11:21:29.675Z</time></trkpt><trkpt lat="45.4736626" lon="10.7834397"><ele>139.0</ele><time>2026-04-08T11:21:30.674Z</time></trkpt><trkpt lat="45.4737455" lon="10.7834265"><ele>139.6</ele><time>2026-04-08T11:21:31.674Z</time></trkpt><trkpt lat="45.4738362" lon="10.7833969"><ele>140.2</ele><time>2026-04-08T11:21:32.674Z</time></trkpt><trkpt lat="45.4739313" lon="10.7833537"><ele>140.79999999999998</ele><time>2026-04-08T11:21:33.674Z</time></trkpt><trkpt lat="45.4740289" lon="10.7833048"><ele>141.4</ele><time>2026-04-08T11:21:34.675Z</time></trkpt><trkpt lat="45.4741212" lon="10.783272"><ele>142.0</ele><time>2026-04-08T11:21:35.675Z</time></trkpt><trkpt lat="45.4742113" lon="10.7832411"><ele>142.0</ele><time>2026-04-08T11:21:36.675Z</time></trkpt><trkpt lat="45.4742951" lon="10.7832124"><ele>142.0</ele><time>2026-04-08T11:21:37.674Z</time></trkpt><trkpt lat="45.4743803" lon="10.7831805"><ele>142.0</ele><time>2026-04-08T11:21:38.675Z</time></trkpt><trkpt lat="45.4744732" lon="10.7831413"><ele>142.0</ele><time>2026-04-08T11:21:39.674Z</time></trkpt><trkpt lat="45.4745754" lon="10.7831004"><ele>142.0</ele><time>2026-04-08T11:21:40.674Z</time></trkpt><trkpt lat="45.474674" lon="10.7830655"><ele>141.5</ele><time>2026-04-08T11:21:41.675Z</time></trkpt><trkpt lat="45.4747755" lon="10.7830148"><ele>141.0</ele><time>2026-04-08T11:21:42.674Z</time></trkpt><trkpt lat="45.4748817" lon="10.7829428"><ele>140.5</ele><time>2026-04-08T11:21:43.675Z</time></trkpt><trkpt lat="45.4749849" lon="10.7828599"><ele>140.0</ele><time>2026-04-08T11:21:44.674Z</time></trkpt><trkpt lat="45.475076" lon="10.782767"><ele>140.0</ele><time>2026-04-08T11:21:45.674Z</time></trkpt><trkpt lat="45.4751646" lon="10.7826944"><ele>140.0</ele><time>2026-04-08T11:21:46.674Z</time></trkpt><trkpt lat="45.4752504" lon="10.7826277"><ele>140.0</ele><time>2026-04-08T11:21:47.674Z</time></trkpt><trkpt lat="45.4753299" lon="10.7825565"><ele>140.0</ele><time>2026-04-08T11:21:48.674Z</time></trkpt><trkpt lat="45.4754086" lon="10.7824848"><ele>140.0</ele><time>2026-04-08T11:21:49.674Z</time></trkpt><trkpt lat="45.4754875" lon="10.7824101"><ele>139.66666666666666</ele><time>2026-04-08T11:21:50.674Z</time></trkpt><trkpt lat="45.4755622" lon="10.7823363"><ele>139.33333333333331</ele><time>2026-04-08T11:21:51.675Z</time></trkpt><trkpt lat="45.4756274" lon="10.7822689"><ele>139.0</ele><time>2026-04-08T11:21:52.674Z</time></trkpt><trkpt lat="45.4756885" lon="10.782202"><ele>138.66666666666666</ele><time>2026-04-08T11:21:53.674Z</time></trkpt><trkpt lat="45.4757477" lon="10.7821375"><ele>138.33333333333334</ele><time>2026-04-08T11:21:54.674Z</time></trkpt><trkpt lat="45.475802" lon="10.7820755"><ele>138.0</ele><time>2026-04-08T11:21:55.674Z</time></trkpt><trkpt lat="45.4758534" lon="10.7820125"><ele>138.0</ele><time>2026-04-08T11:21:56.674Z</time></trkpt><trkpt lat="45.4759054" lon="10.7819388"><ele>138.0</ele><time>2026-04-08T11:21:57.674Z</time></trkpt><trkpt lat="45.4759599" lon="10.7818561"><ele>138.0</ele><time>2026-04-08T11:21:58.675Z</time></trkpt><trkpt lat="45.4760202" lon="10.7817636"><ele>138.0</ele><time>2026-04-08T11:21:59.674Z</time></trkpt><trkpt lat="45.4760815" lon="10.7816672"><ele>138.0</ele><time>2026-04-08T11:22:00.675Z</time></trkpt><trkpt lat="45.4761375" lon="10.781579"><ele>138.0</ele><time>2026-04-08T11:22:01.674Z</time></trkpt><trkpt lat="45.4761933" lon="10.7815111"><ele>137.66666666666666</ele><time>2026-04-08T11:22:02.675Z</time></trkpt><trkpt lat="45.4762541" lon="10.7814529"><ele>137.33333333333334</ele><time>2026-04-08T11:22:03.675Z</time></trkpt><trkpt lat="45.4763163" lon="10.7813995"><ele>137.0</ele><time>2026-04-08T11:22:04.674Z</time></trkpt><trkpt lat="45.4763805" lon="10.7813335"><ele>136.66666666666669</ele><time>2026-04-08T11:22:05.675Z</time></trkpt><trkpt lat="45.4764617" lon="10.7812624"><ele>136.33333333333334</ele><time>2026-04-08T11:22:06.674Z</time></trkpt><trkpt lat="45.476549" lon="10.7812012"><ele>136.0</ele><time>2026-04-08T11:22:07.674Z</time></trkpt><trkpt lat="45.4766257" lon="10.781148"><ele>136.0</ele><time>2026-04-08T11:22:08.675Z</time></trkpt><trkpt lat="45.4766921" lon="10.7811065"><ele>136.0</ele><time>2026-04-08T11:22:09.674Z</time></trkpt><trkpt lat="45.4767559" lon="10.781079"><ele>136.0</ele><time>2026-04-08T11:22:10.674Z</time></trkpt><trkpt lat="45.476828" lon="10.7810121"><ele>136.0</ele><time>2026-04-08T11:22:12.674Z</time></trkpt><trkpt lat="45.4768503" lon="10.7808895"><ele>136.0</ele><time>2026-04-08T11:22:14.675Z</time></trkpt><trkpt lat="45.4768466" lon="10.7807961"><ele>136.0</ele><time>2026-04-08T11:22:15.675Z</time></trkpt><trkpt lat="45.4768357" lon="10.7806771"><ele>136.0</ele><time>2026-04-08T11:22:16.675Z</time></trkpt><trkpt lat="45.4768277" lon="10.7805475"><ele>136.0</ele><time>2026-04-08T11:22:17.674Z</time></trkpt><trkpt lat="45.476829" lon="10.7804305"><ele>136.0</ele><time>2026-04-08T11:22:18.674Z</time></trkpt><trkpt lat="45.4768294" lon="10.7803006"><ele>136.0</ele><time>2026-04-08T11:22:19.675Z</time></trkpt><trkpt lat="45.4768264" lon="10.7801645"><ele>136.0</ele><time>2026-04-08T11:22:20.675Z</time></trkpt><trkpt lat="45.4768249" lon="10.780023"><ele>136.33333333333334</ele><time>2026-04-08T11:22:21.675Z</time></trkpt><trkpt lat="45.476826" lon="10.7798789"><ele>136.66666666666669</ele><time>2026-04-08T11:22:22.675Z</time></trkpt><trkpt lat="45.4768262" lon="10.7797483"><ele>137.0</ele><time>2026-04-08T11:22:23.674Z</time></trkpt><trkpt lat="45.4768293" lon="10.7796303"><ele>137.33333333333334</ele><time>2026-04-08T11:22:24.674Z</time></trkpt><trkpt lat="45.4768307" lon="10.7795145"><ele>137.66666666666666</ele><time>2026-04-08T11:22:25.674Z</time></trkpt><trkpt lat="45.4768262" lon="10.7793955"><ele>138.0</ele><time>2026-04-08T11:22:26.674Z</time></trkpt><trkpt lat="45.4768238" lon="10.7792703"><ele>138.16666666666666</ele><time>2026-04-08T11:22:27.674Z</time></trkpt><trkpt lat="45.4768222" lon="10.7791502"><ele>138.33333333333334</ele><time>2026-04-08T11:22:28.674Z</time></trkpt><trkpt lat="45.4768237" lon="10.7790272"><ele>138.5</ele><time>2026-04-08T11:22:29.675Z</time></trkpt><trkpt lat="45.4768236" lon="10.7788967"><ele>138.66666666666669</ele><time>2026-04-08T11:22:30.675Z</time></trkpt><trkpt lat="45.4768223" lon="10.77877"><ele>138.83333333333334</ele><time>2026-04-08T11:22:31.674Z</time></trkpt><trkpt lat="45.4768194" lon="10.7786546"><ele>139.0</ele><time>2026-04-08T11:22:32.674Z</time></trkpt><trkpt lat="45.4768206" lon="10.7785477"><ele>138.57142857142856</ele><time>2026-04-08T11:22:33.674Z</time></trkpt><trkpt lat="45.4768234" lon="10.7784457"><ele>138.14285714285714</ele><time>2026-04-08T11:22:34.674Z</time></trkpt><trkpt lat="45.4768222" lon="10.7783466"><ele>137.71428571428572</ele><time>2026-04-08T11:22:35.675Z</time></trkpt><trkpt lat="45.4768207" lon="10.7782401"><ele>137.28571428571428</ele><time>2026-04-08T11:22:36.674Z</time></trkpt><trkpt lat="45.4768193" lon="10.7781317"><ele>136.85714285714286</ele><time>2026-04-08T11:22:37.674Z</time></trkpt><trkpt lat="45.476819" lon="10.7780227"><ele>136.42857142857142</ele><time>2026-04-08T11:22:38.675Z</time></trkpt><trkpt lat="45.4768173" lon="10.7779072"><ele>136.0</ele><time>2026-04-08T11:22:39.674Z</time></trkpt><trkpt lat="45.476814" lon="10.7777918"><ele>136.0</ele><time>2026-04-08T11:22:40.674Z</time></trkpt><trkpt lat="45.4768107" lon="10.7776881"><ele>136.0</ele><time>2026-04-08T11:22:41.675Z</time></trkpt><trkpt lat="45.4768094" lon="10.7775928"><ele>136.0</ele><time>2026-04-08T11:22:42.675Z</time></trkpt><trkpt lat="45.4768021" lon="10.777418"><ele>136.0</ele><time>2026-04-08T11:22:44.675Z</time></trkpt><trkpt lat="45.4767987" lon="10.7773229"><ele>136.0</ele><time>2026-04-08T11:22:45.675Z</time></trkpt><trkpt lat="45.4768107" lon="10.7772339"><ele>136.0</ele><time>2026-04-08T11:22:46.675Z</time></trkpt><trkpt lat="45.4768973" lon="10.7771018"><ele>135.83333333333334</ele><time>2026-04-08T11:22:48.674Z</time></trkpt><trkpt lat="45.4769695" lon="10.7770588"><ele>135.66666666666669</ele><time>2026-04-08T11:22:49.674Z</time></trkpt><trkpt lat="45.4770417" lon="10.7770226"><ele>135.5</ele><time>2026-04-08T11:22:50.675Z</time></trkpt><trkpt lat="45.4771194" lon="10.7769827"><ele>135.33333333333334</ele><time>2026-04-08T11:22:51.675Z</time></trkpt><trkpt lat="45.4772006" lon="10.7769463"><ele>135.16666666666666</ele><time>2026-04-08T11:22:52.674Z</time></trkpt><trkpt lat="45.4772863" lon="10.7769098"><ele>135.0</ele><time>2026-04-08T11:22:53.675Z</time></trkpt><trkpt lat="45.477367" lon="10.7768707"><ele>134.66666666666666</ele><time>2026-04-08T11:22:54.675Z</time></trkpt><trkpt lat="45.4774498" lon="10.7768418"><ele>134.33333333333334</ele><time>2026-04-08T11:22:55.675Z</time></trkpt><trkpt lat="45.4775343" lon="10.7768072"><ele>134.0</ele><time>2026-04-08T11:22:56.674Z</time></trkpt><trkpt lat="45.4776177" lon="10.7767666"><ele>133.66666666666669</ele><time>2026-04-08T11:22:57.674Z</time></trkpt><trkpt lat="45.4776963" lon="10.776738"><ele>133.33333333333334</ele><time>2026-04-08T11:22:58.675Z</time></trkpt><trkpt lat="45.4777704" lon="10.7767245"><ele>133.0</ele><time>2026-04-08T11:22:59.675Z</time></trkpt><trkpt lat="45.4778476" lon="10.7767228"><ele>133.0</ele><time>2026-04-08T11:23:00.675Z</time></trkpt><trkpt lat="45.4779252" lon="10.7767285"><ele>133.0</ele><time>2026-04-08T11:23:01.675Z</time></trkpt><trkpt lat="45.4779983" lon="10.776739"><ele>133.0</ele><time>2026-04-08T11:23:02.674Z</time></trkpt><trkpt lat="45.4780647" lon="10.7767595"><ele>133.0</ele><time>2026-04-08T11:23:03.674Z</time></trkpt><trkpt lat="45.4781777" lon="10.7767995"><ele>133.0</ele><time>2026-04-08T11:23:05.674Z</time></trkpt><trkpt lat="45.4782531" lon="10.776787"><ele>133.0</ele><time>2026-04-08T11:23:06.675Z</time></trkpt><trkpt lat="45.4783327" lon="10.7767638"><ele>134.6</ele><time>2026-04-08T11:23:07.675Z</time></trkpt><trkpt lat="45.4784154" lon="10.7767284"><ele>136.20000000000002</ele><time>2026-04-08T11:23:08.674Z</time></trkpt><trkpt lat="45.4784875" lon="10.776705"><ele>137.8</ele><time>2026-04-08T11:23:09.674Z</time></trkpt><trkpt lat="45.478553" lon="10.7766786"><ele>139.4</ele><time>2026-04-08T11:23:10.674Z</time></trkpt><trkpt lat="45.4786467" lon="10.7765644"><ele>141.0</ele><time>2026-04-08T11:23:12.674Z</time></trkpt><trkpt lat="45.4786923" lon="10.7764339"><ele>141.0</ele><time>2026-04-08T11:23:14.675Z</time></trkpt><trkpt lat="45.4787106" lon="10.7763188"><ele>141.0</ele><time>2026-04-08T11:23:16.674Z</time></trkpt><trkpt lat="45.4786952" lon="10.7761768"><ele>141.0</ele><time>2026-04-08T11:23:18.674Z</time></trkpt><trkpt lat="45.4787098" lon="10.7760231"><ele>141.0</ele><time>2026-04-08T11:23:20.675Z</time></trkpt><trkpt lat="45.4787764" lon="10.7759428"><ele>141.0</ele><time>2026-04-08T11:23:22.674Z</time></trkpt><trkpt lat="45.4789066" lon="10.7759373"><ele>140.16666666666666</ele><time>2026-04-08T11:23:24.674Z</time></trkpt><trkpt lat="45.4789888" lon="10.7759547"><ele>139.33333333333334</ele><time>2026-04-08T11:23:25.675Z</time></trkpt><trkpt lat="45.4790658" lon="10.7759643"><ele>138.5</ele><time>2026-04-08T11:23:26.675Z</time></trkpt><trkpt lat="45.4791389" lon="10.7759738"><ele>137.66666666666669</ele><time>2026-04-08T11:23:27.675Z</time></trkpt><trkpt lat="45.4792089" lon="10.7759805"><ele>136.83333333333334</ele><time>2026-04-08T11:23:28.675Z</time></trkpt><trkpt lat="45.4793308" lon="10.7760051"><ele>136.0</ele><time>2026-04-08T11:23:30.674Z</time></trkpt><trkpt lat="45.4794374" lon="10.7759891"><ele>136.0</ele><time>2026-04-08T11:23:32.674Z</time></trkpt><trkpt lat="45.4794852" lon="10.7758766"><ele>136.0</ele><time>2026-04-08T11:23:34.675Z</time></trkpt><trkpt lat="45.4795072" lon="10.7756951"><ele>136.0</ele><time>2026-04-08T11:23:36.675Z</time></trkpt><trkpt lat="45.4795264" lon="10.7755847"><ele>136.0</ele><time>2026-04-08T11:23:37.674Z</time></trkpt><trkpt lat="45.4795444" lon="10.775463"><ele>136.0</ele><time>2026-04-08T11:23:38.675Z</time></trkpt><trkpt lat="45.4795632" lon="10.7753432"><ele>135.99999999999997</ele><time>2026-04-08T11:23:39.675Z</time></trkpt><trkpt lat="45.479587" lon="10.7752424"><ele>136.0</ele><time>2026-04-08T11:23:40.674Z</time></trkpt><trkpt lat="45.479616" lon="10.775155"><ele>136.0</ele><time>2026-04-08T11:23:41.675Z</time></trkpt><trkpt lat="45.4796472" lon="10.7750697"><ele>136.0</ele><time>2026-04-08T11:23:42.674Z</time></trkpt><trkpt lat="45.4796776" lon="10.7749838"><ele>136.0</ele><time>2026-04-08T11:23:43.675Z</time></trkpt><trkpt lat="45.4797099" lon="10.7748959"><ele>135.99999999999997</ele><time>2026-04-08T11:23:44.674Z</time></trkpt><trkpt lat="45.4797428" lon="10.7748077"><ele>136.0</ele><time>2026-04-08T11:23:45.675Z</time></trkpt><trkpt lat="45.4797801" lon="10.7747129"><ele>135.5</ele><time>2026-04-08T11:23:46.674Z</time></trkpt><trkpt lat="45.4798134" lon="10.7746126"><ele>135.0</ele><time>2026-04-08T11:23:47.674Z</time></trkpt><trkpt lat="45.4798451" lon="10.7745151"><ele>134.5</ele><time>2026-04-08T11:23:48.674Z</time></trkpt><trkpt lat="45.4798781" lon="10.7744211"><ele>134.0</ele><time>2026-04-08T11:23:49.674Z</time></trkpt><trkpt lat="45.4799135" lon="10.7743255"><ele>133.5</ele><time>2026-04-08T11:23:50.674Z</time></trkpt><trkpt lat="45.4799474" lon="10.774219"><ele>133.0</ele><time>2026-04-08T11:23:51.674Z</time></trkpt><trkpt lat="45.4799831" lon="10.7741128"><ele>133.0</ele><time>2026-04-08T11:23:52.675Z</time></trkpt><trkpt lat="45.4800182" lon="10.7740223"><ele>133.0</ele><time>2026-04-08T11:23:53.674Z</time></trkpt><trkpt lat="45.4800462" lon="10.7739374"><ele>133.0</ele><time>2026-04-08T11:23:54.674Z</time></trkpt><trkpt lat="45.4800735" lon="10.7738455"><ele>133.0</ele><time>2026-04-08T11:23:55.675Z</time></trkpt><trkpt lat="45.4801054" lon="10.7737573"><ele>133.0</ele><time>2026-04-08T11:23:56.675Z</time></trkpt><trkpt lat="45.4801416" lon="10.7736804"><ele>133.0</ele><time>2026-04-08T11:23:57.674Z</time></trkpt><trkpt lat="45.4801866" lon="10.7736119"><ele>133.0</ele><time>2026-04-08T11:23:58.675Z</time></trkpt><trkpt lat="45.4802432" lon="10.7735616"><ele>133.0</ele><time>2026-04-08T11:23:59.674Z</time></trkpt><trkpt lat="45.4803064" lon="10.7735423"><ele>133.0</ele><time>2026-04-08T11:24:00.674Z</time></trkpt><trkpt lat="45.480371" lon="10.773547"><ele>133.0</ele><time>2026-04-08T11:24:01.675Z</time></trkpt><trkpt lat="45.4804342" lon="10.7735709"><ele>133.0</ele><time>2026-04-08T11:24:02.675Z</time></trkpt><trkpt lat="45.4805532" lon="10.7736025"><ele>133.0</ele><time>2026-04-08T11:24:04.675Z</time></trkpt><trkpt lat="45.4806657" lon="10.7736029"><ele>133.0</ele><time>2026-04-08T11:24:06.675Z</time></trkpt><trkpt lat="45.4807468" lon="10.7734975"><ele>133.0</ele><time>2026-04-08T11:24:08.675Z</time></trkpt><trkpt lat="45.4807764" lon="10.7733344"><ele>133.0</ele><time>2026-04-08T11:24:10.674Z</time></trkpt><trkpt lat="45.48079" lon="10.7732368"><ele>133.0</ele><time>2026-04-08T11:24:11.674Z</time></trkpt><trkpt lat="45.480799" lon="10.7731344"><ele>133.0</ele><time>2026-04-08T11:24:12.675Z</time></trkpt><trkpt lat="45.4808035" lon="10.7730298"><ele>133.0</ele><time>2026-04-08T11:24:13.674Z</time></trkpt><trkpt lat="45.4808143" lon="10.772929"><ele>133.0</ele><time>2026-04-08T11:24:14.625Z</time></trkpt><trkpt lat="45.480834" lon="10.7728268"><ele>133.0</ele><time>2026-04-08T11:24:15.624Z</time></trkpt><trkpt lat="45.4808596" lon="10.7727277"><ele>133.0</ele><time>2026-04-08T11:24:16.624Z</time></trkpt><trkpt lat="45.4808981" lon="10.7726332"><ele>133.0</ele><time>2026-04-08T11:24:17.624Z</time></trkpt><trkpt lat="45.4809558" lon="10.7725463"><ele>133.0</ele><time>2026-04-08T11:24:18.624Z</time></trkpt><trkpt lat="45.4810191" lon="10.77247"><ele>133.0</ele><time>2026-04-08T11:24:19.624Z</time></trkpt><trkpt lat="45.4810717" lon="10.7724022"><ele>133.0</ele><time>2026-04-08T11:24:20.625Z</time></trkpt><trkpt lat="45.4811175" lon="10.7723331"><ele>133.28571428571428</ele><time>2026-04-08T11:24:21.624Z</time></trkpt><trkpt lat="45.4811649" lon="10.7722638"><ele>133.57142857142856</ele><time>2026-04-08T11:24:22.625Z</time></trkpt><trkpt lat="45.4812156" lon="10.7721979"><ele>133.85714285714286</ele><time>2026-04-08T11:24:23.624Z</time></trkpt><trkpt lat="45.4812649" lon="10.7721314"><ele>134.14285714285714</ele><time>2026-04-08T11:24:24.625Z</time></trkpt><trkpt lat="45.4813198" lon="10.7720675"><ele>134.42857142857142</ele><time>2026-04-08T11:24:25.625Z</time></trkpt><trkpt lat="45.4813729" lon="10.772001"><ele>134.71428571428572</ele><time>2026-04-08T11:24:26.624Z</time></trkpt><trkpt lat="45.481422" lon="10.7719285"><ele>135.0</ele><time>2026-04-08T11:24:27.624Z</time></trkpt><trkpt lat="45.4814762" lon="10.771858"><ele>135.0</ele><time>2026-04-08T11:24:28.625Z</time></trkpt><trkpt lat="45.4815288" lon="10.7717904"><ele>135.0</ele><time>2026-04-08T11:24:29.624Z</time></trkpt><trkpt lat="45.4815774" lon="10.7717294"><ele>135.0</ele><time>2026-04-08T11:24:30.624Z</time></trkpt><trkpt lat="45.4816775" lon="10.771625"><ele>135.0</ele><time>2026-04-08T11:24:32.624Z</time></trkpt><trkpt lat="45.4817677" lon="10.7715244"><ele>135.0</ele><time>2026-04-08T11:24:34.624Z</time></trkpt><trkpt lat="45.4818507" lon="10.7714107"><ele>135.0</ele><time>2026-04-08T11:24:36.625Z</time></trkpt><trkpt lat="45.4819341" lon="10.7713086"><ele>135.0</ele><time>2026-04-08T11:24:38.624Z</time></trkpt><trkpt lat="45.4820103" lon="10.7712002"><ele>135.0</ele><time>2026-04-08T11:24:40.624Z</time></trkpt><trkpt lat="45.4820961" lon="10.7710728"><ele>135.0</ele><time>2026-04-08T11:24:42.625Z</time></trkpt><trkpt lat="45.4821363" lon="10.7709988"><ele>135.0</ele><time>2026-04-08T11:24:43.625Z</time></trkpt><trkpt lat="45.4821823" lon="10.7709274"><ele>135.0</ele><time>2026-04-08T11:24:44.624Z</time></trkpt><trkpt lat="45.4822313" lon="10.7708612"><ele>135.0</ele><time>2026-04-08T11:24:45.624Z</time></trkpt><trkpt lat="45.4822788" lon="10.7707928"><ele>135.0</ele><time>2026-04-08T11:24:46.625Z</time></trkpt><trkpt lat="45.4823229" lon="10.7707208"><ele>135.0</ele><time>2026-04-08T11:24:47.624Z</time></trkpt><trkpt lat="45.4823669" lon="10.7706563"><ele>135.0</ele><time>2026-04-08T11:24:48.624Z</time></trkpt><trkpt lat="45.4824471" lon="10.77054"><ele>135.0</ele><time>2026-04-08T11:24:50.625Z</time></trkpt><trkpt lat="45.4825225" lon="10.7704179"><ele>135.0</ele><time>2026-04-08T11:24:52.625Z</time></trkpt><trkpt lat="45.4826005" lon="10.7703522"><ele>135.0</ele><time>2026-04-08T11:24:54.625Z</time></trkpt><trkpt lat="45.4826926" lon="10.7703401"><ele>135.0</ele><time>2026-04-08T11:24:56.624Z</time></trkpt><trkpt lat="45.4828169" lon="10.7703888"><ele>135.0</ele><time>2026-04-08T11:24:58.625Z</time></trkpt><trkpt lat="45.4828938" lon="10.7704211"><ele>135.0</ele><time>2026-04-08T11:24:59.625Z</time></trkpt><trkpt lat="45.4829753" lon="10.7704593"><ele>135.4</ele><time>2026-04-08T11:25:00.624Z</time></trkpt><trkpt lat="45.4830602" lon="10.7705012"><ele>135.8</ele><time>2026-04-08T11:25:01.625Z</time></trkpt><trkpt lat="45.4831545" lon="10.7705335"><ele>136.2</ele><time>2026-04-08T11:25:02.625Z</time></trkpt><trkpt lat="45.4832593" lon="10.7705581"><ele>136.6</ele><time>2026-04-08T11:25:03.624Z</time></trkpt><trkpt lat="45.4833636" lon="10.7705781"><ele>137.0</ele><time>2026-04-08T11:25:04.624Z</time></trkpt><trkpt lat="45.4834679" lon="10.7705935"><ele>137.0</ele><time>2026-04-08T11:25:05.625Z</time></trkpt><trkpt lat="45.4835732" lon="10.770604"><ele>137.0</ele><time>2026-04-08T11:25:06.625Z</time></trkpt><trkpt lat="45.4836776" lon="10.7706048"><ele>137.0</ele><time>2026-04-08T11:25:07.626Z</time></trkpt><trkpt lat="45.483782" lon="10.7706153"><ele>137.0</ele><time>2026-04-08T11:25:08.625Z</time></trkpt><trkpt lat="45.4838838" lon="10.7706407"><ele>137.0</ele><time>2026-04-08T11:25:09.625Z</time></trkpt><trkpt lat="45.4839841" lon="10.7706808"><ele>137.4</ele><time>2026-04-08T11:25:10.625Z</time></trkpt><trkpt lat="45.4840805" lon="10.7707221"><ele>137.79999999999998</ele><time>2026-04-08T11:25:11.626Z</time></trkpt><trkpt lat="45.4841691" lon="10.770762"><ele>138.2</ele><time>2026-04-08T11:25:12.626Z</time></trkpt><trkpt lat="45.4842529" lon="10.7708041"><ele>138.6</ele><time>2026-04-08T11:25:13.625Z</time></trkpt><trkpt lat="45.484327" lon="10.7708525"><ele>139.0</ele><time>2026-04-08T11:25:14.625Z</time></trkpt><trkpt lat="45.4844" lon="10.7709212"><ele>139.0</ele><time>2026-04-08T11:25:15.625Z</time></trkpt><trkpt lat="45.4844767" lon="10.7710011"><ele>139.0</ele><time>2026-04-08T11:25:16.625Z</time></trkpt><trkpt lat="45.4845529" lon="10.7710788"><ele>139.0</ele><time>2026-04-08T11:25:17.625Z</time></trkpt><trkpt lat="45.4846278" lon="10.7711548"><ele>139.0</ele><time>2026-04-08T11:25:18.625Z</time></trkpt><trkpt lat="45.4846981" lon="10.7712279"><ele>139.0</ele><time>2026-04-08T11:25:19.626Z</time></trkpt><trkpt lat="45.4847642" lon="10.7712889"><ele>139.0</ele><time>2026-04-08T11:25:20.626Z</time></trkpt><trkpt lat="45.4848314" lon="10.7713416"><ele>138.16666666666669</ele><time>2026-04-08T11:25:21.625Z</time></trkpt><trkpt lat="45.4848963" lon="10.7714029"><ele>137.33333333333334</ele><time>2026-04-08T11:25:22.626Z</time></trkpt><trkpt lat="45.4849659" lon="10.7714709"><ele>136.5</ele><time>2026-04-08T11:25:23.626Z</time></trkpt><trkpt lat="45.485043" lon="10.7715393"><ele>135.66666666666666</ele><time>2026-04-08T11:25:24.625Z</time></trkpt><trkpt lat="45.4851237" lon="10.7716129"><ele>134.83333333333331</ele><time>2026-04-08T11:25:25.625Z</time></trkpt><trkpt lat="45.4852055" lon="10.77169"><ele>134.0</ele><time>2026-04-08T11:25:26.626Z</time></trkpt><trkpt lat="45.4852888" lon="10.7717712"><ele>134.0</ele><time>2026-04-08T11:25:27.626Z</time></trkpt><trkpt lat="45.4853713" lon="10.7718506"><ele>134.0</ele><time>2026-04-08T11:25:28.625Z</time></trkpt><trkpt lat="45.4854481" lon="10.7719347"><ele>134.0</ele><time>2026-04-08T11:25:29.625Z</time></trkpt><trkpt lat="45.485525" lon="10.7720209"><ele>134.0</ele><time>2026-04-08T11:25:30.626Z</time></trkpt><trkpt lat="45.4856029" lon="10.7721069"><ele>134.0</ele><time>2026-04-08T11:25:31.625Z</time></trkpt><trkpt lat="45.4856859" lon="10.772193"><ele>134.2</ele><time>2026-04-08T11:25:32.674Z</time></trkpt><trkpt lat="45.485766" lon="10.7722765"><ele>134.4</ele><time>2026-04-08T11:25:33.626Z</time></trkpt><trkpt lat="45.4858462" lon="10.7723564"><ele>134.6</ele><time>2026-04-08T11:25:34.625Z</time></trkpt><trkpt lat="45.4859245" lon="10.7724312"><ele>134.8</ele><time>2026-04-08T11:25:35.625Z</time></trkpt><trkpt lat="45.4860038" lon="10.7725041"><ele>135.0</ele><time>2026-04-08T11:25:36.625Z</time></trkpt><trkpt lat="45.4860808" lon="10.7725757"><ele>135.0</ele><time>2026-04-08T11:25:37.626Z</time></trkpt><trkpt lat="45.4861486" lon="10.7726394"><ele>135.0</ele><time>2026-04-08T11:25:38.625Z</time></trkpt><trkpt lat="45.4862106" lon="10.7726935"><ele>135.0</ele><time>2026-04-08T11:25:39.674Z</time></trkpt><trkpt lat="45.48632" lon="10.7727198"><ele>135.0</ele><time>2026-04-08T11:25:41.626Z</time></trkpt><trkpt lat="45.4863789" lon="10.7726765"><ele>135.0</ele><time>2026-04-08T11:25:42.626Z</time></trkpt><trkpt lat="45.4864455" lon="10.7725936"><ele>135.0</ele><time>2026-04-08T11:25:43.626Z</time></trkpt><trkpt lat="45.4865253" lon="10.772501"><ele>135.25</ele><time>2026-04-08T11:25:44.625Z</time></trkpt><trkpt lat="45.4866139" lon="10.7724007"><ele>135.5</ele><time>2026-04-08T11:25:45.626Z</time></trkpt><trkpt lat="45.48671" lon="10.7722923"><ele>135.75</ele><time>2026-04-08T11:25:46.674Z</time></trkpt><trkpt lat="45.4868117" lon="10.7721826"><ele>136.0</ele><time>2026-04-08T11:25:47.625Z</time></trkpt><trkpt lat="45.4869192" lon="10.7720578"><ele>136.0</ele><time>2026-04-08T11:25:48.626Z</time></trkpt><trkpt lat="45.4870213" lon="10.7719147"><ele>136.0</ele><time>2026-04-08T11:25:49.626Z</time></trkpt><trkpt lat="45.4871168" lon="10.7717472"><ele>136.0</ele><time>2026-04-08T11:25:50.625Z</time></trkpt><trkpt lat="45.4872079" lon="10.7715701"><ele>136.0</ele><time>2026-04-08T11:25:51.626Z</time></trkpt><trkpt lat="45.4873008" lon="10.7713951"><ele>136.0</ele><time>2026-04-08T11:25:52.626Z</time></trkpt><trkpt lat="45.4873577" lon="10.7712169"><ele>136.0</ele><time>2026-04-08T11:25:53.674Z</time></trkpt><trkpt lat="45.487429" lon="10.7710737"><ele>136.0</ele><time>2026-04-08T11:25:54.626Z</time></trkpt><trkpt lat="45.48751" lon="10.7709364"><ele>136.0</ele><time>2026-04-08T11:25:55.625Z</time></trkpt><trkpt lat="45.48758" lon="10.7708041"><ele>135.83333333333334</ele><time>2026-04-08T11:25:56.626Z</time></trkpt><trkpt lat="45.4876491" lon="10.7706911"><ele>135.66666666666669</ele><time>2026-04-08T11:25:57.625Z</time></trkpt><trkpt lat="45.4877067" lon="10.7705951"><ele>135.5</ele><time>2026-04-08T11:25:58.626Z</time></trkpt><trkpt lat="45.4877564" lon="10.7705191"><ele>135.33333333333334</ele><time>2026-04-08T11:25:59.626Z</time></trkpt><trkpt lat="45.4878194" lon="10.770481"><ele>135.16666666666666</ele><time>2026-04-08T11:26:00.673Z</time></trkpt><trkpt lat="45.4879263" lon="10.770498"><ele>135.0</ele><time>2026-04-08T11:26:02.626Z</time></trkpt><trkpt lat="45.4880431" lon="10.7706009"><ele>135.0</ele><time>2026-04-08T11:26:04.626Z</time></trkpt><trkpt lat="45.4881084" lon="10.7706638"><ele>135.0</ele><time>2026-04-08T11:26:05.627Z</time></trkpt><trkpt lat="45.4881805" lon="10.7707295"><ele>135.0</ele><time>2026-04-08T11:26:06.627Z</time></trkpt><trkpt lat="45.4882463" lon="10.7708024"><ele>135.0</ele><time>2026-04-08T11:26:07.627Z</time></trkpt><trkpt lat="45.4883003" lon="10.7708742"><ele>135.0</ele><time>2026-04-08T11:26:08.626Z</time></trkpt><trkpt lat="45.4883472" lon="10.7709424"><ele>135.0</ele><time>2026-04-08T11:26:09.627Z</time></trkpt><trkpt lat="45.4884113" lon="10.7710585"><ele>135.16666666666666</ele><time>2026-04-08T11:26:11.627Z</time></trkpt><trkpt lat="45.4884438" lon="10.7711469"><ele>135.33333333333334</ele><time>2026-04-08T11:26:27.627Z</time></trkpt><trkpt lat="45.4884389" lon="10.7712496"><ele>135.5</ele><time>2026-04-08T11:26:29.626Z</time></trkpt><trkpt lat="45.4883978" lon="10.7713874"><ele>135.66666666666669</ele><time>2026-04-08T11:26:31.627Z</time></trkpt><trkpt lat="45.488392" lon="10.7715217"><ele>135.83333333333334</ele><time>2026-04-08T11:26:33.627Z</time></trkpt><trkpt lat="45.4884798" lon="10.7715677"><ele>136.0</ele><time>2026-04-08T11:26:35.626Z</time></trkpt><trkpt lat="45.4885741" lon="10.771444"><ele>136.0</ele><time>2026-04-08T11:26:37.627Z</time></trkpt><trkpt lat="45.4886254" lon="10.7713369"><ele>136.0</ele><time>2026-04-08T11:26:38.627Z</time></trkpt><trkpt lat="45.4886901" lon="10.7712448"><ele>136.0</ele><time>2026-04-08T11:26:39.626Z</time></trkpt><trkpt lat="45.4887634" lon="10.7711468"><ele>136.0</ele><time>2026-04-08T11:26:40.627Z</time></trkpt><trkpt lat="45.4888419" lon="10.771042"><ele>136.0</ele><time>2026-04-08T11:26:41.626Z</time></trkpt><trkpt lat="45.4889358" lon="10.770952"><ele>136.4</ele><time>2026-04-08T11:26:42.627Z</time></trkpt><trkpt lat="45.4890473" lon="10.7708845"><ele>136.8</ele><time>2026-04-08T11:26:43.626Z</time></trkpt><trkpt lat="45.489153" lon="10.7708358"><ele>137.20000000000002</ele><time>2026-04-08T11:26:44.626Z</time></trkpt><trkpt lat="45.4892559" lon="10.7707991"><ele>137.6</ele><time>2026-04-08T11:26:45.627Z</time></trkpt><trkpt lat="45.4893553" lon="10.7707499"><ele>138.0</ele><time>2026-04-08T11:26:46.627Z</time></trkpt><trkpt lat="45.4894685" lon="10.7706979"><ele>138.0</ele><time>2026-04-08T11:26:47.626Z</time></trkpt><trkpt lat="45.489592" lon="10.7706587"><ele>138.0</ele><time>2026-04-08T11:26:48.626Z</time></trkpt><trkpt lat="45.4897242" lon="10.77063"><ele>138.0</ele><time>2026-04-08T11:26:49.626Z</time></trkpt><trkpt lat="45.4898638" lon="10.7705943"><ele>138.0</ele><time>2026-04-08T11:26:50.626Z</time></trkpt><trkpt lat="45.4900138" lon="10.7705508"><ele>138.0</ele><time>2026-04-08T11:26:51.627Z</time></trkpt><trkpt lat="45.4901717" lon="10.7705085"><ele>138.0</ele><time>2026-04-08T11:26:52.627Z</time></trkpt><trkpt lat="45.4903324" lon="10.7704727"><ele>138.0</ele><time>2026-04-08T11:26:53.627Z</time></trkpt><trkpt lat="45.4904954" lon="10.7704385"><ele>138.0</ele><time>2026-04-08T11:26:54.626Z</time></trkpt><trkpt lat="45.4906626" lon="10.7703944"><ele>138.0</ele><time>2026-04-08T11:26:55.627Z</time></trkpt><trkpt lat="45.4908328" lon="10.7703417"><ele>138.0</ele><time>2026-04-08T11:26:56.628Z</time></trkpt><trkpt lat="45.4910048" lon="10.77029"><ele>138.0</ele><time>2026-04-08T11:26:57.627Z</time></trkpt><trkpt lat="45.4911753" lon="10.7702412"><ele>138.0</ele><time>2026-04-08T11:26:58.627Z</time></trkpt><trkpt lat="45.4913367" lon="10.7701728"><ele>138.0</ele><time>2026-04-08T11:26:59.627Z</time></trkpt><trkpt lat="45.4914941" lon="10.7701002"><ele>137.0</ele><time>2026-04-08T11:27:00.628Z</time></trkpt><trkpt lat="45.4916487" lon="10.7700313"><ele>136.0</ele><time>2026-04-08T11:27:01.627Z</time></trkpt><trkpt lat="45.4918069" lon="10.7699644"><ele>135.0</ele><time>2026-04-08T11:27:02.627Z</time></trkpt><trkpt lat="45.4919644" lon="10.769882"><ele>134.5</ele><time>2026-04-08T11:27:03.628Z</time></trkpt><trkpt lat="45.4921085" lon="10.769786"><ele>134.0</ele><time>2026-04-08T11:27:04.628Z</time></trkpt><trkpt lat="45.4922301" lon="10.7696938"><ele>133.5</ele><time>2026-04-08T11:27:05.627Z</time></trkpt><trkpt lat="45.4923268" lon="10.7696204"><ele>133.0</ele><time>2026-04-08T11:27:06.627Z</time></trkpt><trkpt lat="45.4924049" lon="10.7695657"><ele>133.0</ele><time>2026-04-08T11:27:07.628Z</time></trkpt><trkpt lat="45.4924925" lon="10.769531"><ele>133.0</ele><time>2026-04-08T11:27:09.628Z</time></trkpt><trkpt lat="45.4925788" lon="10.7696167"><ele>133.0</ele><time>2026-04-08T11:27:12.627Z</time></trkpt><trkpt lat="45.4926474" lon="10.7697609"><ele>133.0</ele><time>2026-04-08T11:27:14.627Z</time></trkpt><trkpt lat="45.4926741" lon="10.7698433"><ele>133.0</ele><time>2026-04-08T11:27:15.627Z</time></trkpt><trkpt lat="45.492706" lon="10.7699208"><ele>133.0</ele><time>2026-04-08T11:27:16.627Z</time></trkpt><trkpt lat="45.4927457" lon="10.7700034"><ele>133.0</ele><time>2026-04-08T11:27:17.627Z</time></trkpt><trkpt lat="45.4927886" lon="10.770086"><ele>133.0</ele><time>2026-04-08T11:27:18.628Z</time></trkpt><trkpt lat="45.4928315" lon="10.7701733"><ele>133.0</ele><time>2026-04-08T11:27:19.627Z</time></trkpt><trkpt lat="45.4928726" lon="10.7702545"><ele>133.0</ele><time>2026-04-08T11:27:20.627Z</time></trkpt><trkpt lat="45.4929388" lon="10.7703992"><ele>133.0</ele><time>2026-04-08T11:27:22.628Z</time></trkpt><trkpt lat="45.4929895" lon="10.770552"><ele>133.0</ele><time>2026-04-08T11:27:24.628Z</time></trkpt><trkpt lat="45.4930554" lon="10.7707094"><ele>133.0</ele><time>2026-04-08T11:27:26.628Z</time></trkpt><trkpt lat="45.4930963" lon="10.7707801"><ele>133.0</ele><time>2026-04-08T11:27:27.627Z</time></trkpt><trkpt lat="45.493144" lon="10.7708509"><ele>133.0</ele><time>2026-04-08T11:27:28.627Z</time></trkpt><trkpt lat="45.4931911" lon="10.7709294"><ele>133.0</ele><time>2026-04-08T11:27:29.627Z</time></trkpt><trkpt lat="45.4932369" lon="10.7710085"><ele>133.0</ele><time>2026-04-08T11:27:30.627Z</time></trkpt><trkpt lat="45.493281" lon="10.7710778"><ele>133.66666666666669</ele><time>2026-04-08T11:27:31.627Z</time></trkpt><trkpt lat="45.4933831" lon="10.7711502"><ele>134.33333333333334</ele><time>2026-04-08T11:27:33.627Z</time></trkpt><trkpt lat="45.4934492" lon="10.7711539"><ele>135.0</ele><time>2026-04-08T11:27:34.628Z</time></trkpt><trkpt lat="45.4935283" lon="10.7711467"><ele>135.66666666666666</ele><time>2026-04-08T11:27:35.627Z</time></trkpt><trkpt lat="45.4936062" lon="10.7711369"><ele>136.33333333333331</ele><time>2026-04-08T11:27:36.627Z</time></trkpt><trkpt lat="45.4936902" lon="10.7711363"><ele>137.0</ele><time>2026-04-08T11:27:37.627Z</time></trkpt><trkpt lat="45.4937807" lon="10.7711372"><ele>137.0</ele><time>2026-04-08T11:27:38.627Z</time></trkpt><trkpt lat="45.4938739" lon="10.7711404"><ele>137.0</ele><time>2026-04-08T11:27:39.628Z</time></trkpt><trkpt lat="45.4939714" lon="10.7711483"><ele>137.0</ele><time>2026-04-08T11:27:40.627Z</time></trkpt><trkpt lat="45.4940613" lon="10.7711604"><ele>137.0</ele><time>2026-04-08T11:27:41.627Z</time></trkpt><trkpt lat="45.4941426" lon="10.771172"><ele>137.0</ele><time>2026-04-08T11:27:42.628Z</time></trkpt><trkpt lat="45.4942133" lon="10.7711789"><ele>137.0</ele><time>2026-04-08T11:27:43.627Z</time></trkpt><trkpt lat="45.4943121" lon="10.771251"><ele>137.0</ele><time>2026-04-08T11:27:45.628Z</time></trkpt><trkpt lat="45.4943582" lon="10.7714077"><ele>137.0</ele><time>2026-04-08T11:27:47.627Z</time></trkpt><trkpt lat="45.4943611" lon="10.7715115"><ele>137.0</ele><time>2026-04-08T11:27:48.628Z</time></trkpt><trkpt lat="45.4943532" lon="10.7716294"><ele>137.0</ele><time>2026-04-08T11:27:49.673Z</time></trkpt><trkpt lat="45.4943523" lon="10.7717527"><ele>137.0</ele><time>2026-04-08T11:27:50.628Z</time></trkpt><trkpt lat="45.4943598" lon="10.7718792"><ele>137.0</ele><time>2026-04-08T11:27:51.629Z</time></trkpt><trkpt lat="45.4943635" lon="10.7719982"><ele>137.0</ele><time>2026-04-08T11:27:52.628Z</time></trkpt><trkpt lat="45.4943698" lon="10.7721169"><ele>137.0</ele><time>2026-04-08T11:27:53.628Z</time></trkpt><trkpt lat="45.4943747" lon="10.7722458"><ele>137.0</ele><time>2026-04-08T11:27:54.628Z</time></trkpt><trkpt lat="45.4943867" lon="10.7723783"><ele>137.0</ele><time>2026-04-08T11:27:55.628Z</time></trkpt><trkpt lat="45.4944007" lon="10.772508"><ele>137.0</ele><time>2026-04-08T11:27:56.629Z</time></trkpt><trkpt lat="45.4944081" lon="10.7726427"><ele>137.2</ele><time>2026-04-08T11:27:57.628Z</time></trkpt><trkpt lat="45.4944133" lon="10.7727792"><ele>137.39999999999998</ele><time>2026-04-08T11:27:58.628Z</time></trkpt><trkpt lat="45.4944228" lon="10.7729242"><ele>137.60000000000002</ele><time>2026-04-08T11:27:59.681Z</time></trkpt><trkpt lat="45.4944382" lon="10.773067"><ele>137.8</ele><time>2026-04-08T11:28:00.68Z</time></trkpt><trkpt lat="45.4944543" lon="10.7732033"><ele>138.0</ele><time>2026-04-08T11:28:01.68Z</time></trkpt><trkpt lat="45.494467" lon="10.7733416"><ele>138.0</ele><time>2026-04-08T11:28:02.681Z</time></trkpt><trkpt lat="45.4944794" lon="10.7734772"><ele>138.0</ele><time>2026-04-08T11:28:03.681Z</time></trkpt><trkpt lat="45.4944905" lon="10.7736134"><ele>138.0</ele><time>2026-04-08T11:28:04.68Z</time></trkpt><trkpt lat="45.4945036" lon="10.7737448"><ele>138.0</ele><time>2026-04-08T11:28:05.68Z</time></trkpt><trkpt lat="45.4945185" lon="10.7738745"><ele>138.0</ele><time>2026-04-08T11:28:06.68Z</time></trkpt><trkpt lat="45.4945369" lon="10.7740034"><ele>138.66666666666666</ele><time>2026-04-08T11:28:07.68Z</time></trkpt><trkpt lat="45.4945574" lon="10.7741348"><ele>139.33333333333334</ele><time>2026-04-08T11:28:08.68Z</time></trkpt><trkpt lat="45.494574" lon="10.7742582"><ele>140.0</ele><time>2026-04-08T11:28:09.681Z</time></trkpt><trkpt lat="45.4945871" lon="10.7743762"><ele>140.66666666666669</ele><time>2026-04-08T11:28:10.68Z</time></trkpt><trkpt lat="45.4946001" lon="10.7744924"><ele>141.33333333333334</ele><time>2026-04-08T11:28:11.681Z</time></trkpt><trkpt lat="45.4946112" lon="10.7746077"><ele>142.0</ele><time>2026-04-08T11:28:12.68Z</time></trkpt><trkpt lat="45.494621" lon="10.7747234"><ele>143.0</ele><time>2026-04-08T11:28:13.68Z</time></trkpt><trkpt lat="45.4946243" lon="10.7748348"><ele>144.0</ele><time>2026-04-08T11:28:14.681Z</time></trkpt><trkpt lat="45.4946296" lon="10.774927"><ele>145.0</ele><time>2026-04-08T11:28:15.681Z</time></trkpt><trkpt lat="45.4946377" lon="10.7750221"><ele>146.0</ele><time>2026-04-08T11:30:34.631Z</time></trkpt><trkpt lat="45.4946286" lon="10.7751218"><ele>147.0</ele><time>2026-04-08T11:30:36.631Z</time></trkpt><trkpt lat="45.4946389" lon="10.7752842"><ele>148.0</ele><time>2026-04-08T11:30:38.631Z</time></trkpt><trkpt lat="45.4946441" lon="10.7754628"><ele>148.0</ele><time>2026-04-08T11:30:40.632Z</time></trkpt><trkpt lat="45.4946473" lon="10.7755571"><ele>148.0</ele><time>2026-04-08T11:30:41.631Z</time></trkpt><trkpt lat="45.4946571" lon="10.7757228"><ele>148.0</ele><time>2026-04-08T11:30:43.631Z</time></trkpt><trkpt lat="45.4946764" lon="10.7758658"><ele>148.0</ele><time>2026-04-08T11:30:45.631Z</time></trkpt><trkpt lat="45.4946744" lon="10.7759853"><ele>148.0</ele><time>2026-04-08T11:30:47.631Z</time></trkpt><trkpt lat="45.4946756" lon="10.7761231"><ele>148.4</ele><time>2026-04-08T11:30:49.631Z</time></trkpt><trkpt lat="45.4946804" lon="10.7762817"><ele>148.8</ele><time>2026-04-08T11:30:51.632Z</time></trkpt><trkpt lat="45.4947195" lon="10.776408"><ele>149.2</ele><time>2026-04-08T11:30:53.632Z</time></trkpt><trkpt lat="45.4948104" lon="10.776504"><ele>149.6</ele><time>2026-04-08T11:30:55.632Z</time></trkpt><trkpt lat="45.4949103" lon="10.7766053"><ele>150.0</ele><time>2026-04-08T11:30:57.631Z</time></trkpt><trkpt lat="45.4949964" lon="10.7767041"><ele>150.0</ele><time>2026-04-08T11:30:59.632Z</time></trkpt><trkpt lat="45.4950892" lon="10.7767976"><ele>150.0</ele><time>2026-04-08T11:31:01.631Z</time></trkpt><trkpt lat="45.4951518" lon="10.7768494"><ele>150.0</ele><time>2026-04-08T11:31:02.632Z</time></trkpt><trkpt lat="45.4952228" lon="10.7769059"><ele>150.0</ele><time>2026-04-08T11:31:03.631Z</time></trkpt><trkpt lat="45.4952991" lon="10.7769677"><ele>150.0</ele><time>2026-04-08T11:31:04.632Z</time></trkpt><trkpt lat="45.4953734" lon="10.7770474"><ele>150.0</ele><time>2026-04-08T11:31:05.632Z</time></trkpt><trkpt lat="45.4954398" lon="10.7771302"><ele>149.2</ele><time>2026-04-08T11:31:06.631Z</time></trkpt><trkpt lat="45.4954968" lon="10.7772106"><ele>148.4</ele><time>2026-04-08T11:31:07.631Z</time></trkpt><trkpt lat="45.4955489" lon="10.7772864"><ele>147.6</ele><time>2026-04-08T11:31:08.631Z</time></trkpt><trkpt lat="45.4955971" lon="10.7773493"><ele>146.8</ele><time>2026-04-08T11:31:09.632Z</time></trkpt><trkpt lat="45.4956804" lon="10.7774806"><ele>146.0</ele><time>2026-04-08T11:31:11.632Z</time></trkpt><trkpt lat="45.4957341" lon="10.7776358"><ele>145.0</ele><time>2026-04-08T11:31:13.632Z</time></trkpt><trkpt lat="45.4957699" lon="10.7777589"><ele>144.0</ele><time>2026-04-08T11:31:15.631Z</time></trkpt><trkpt lat="45.4958112" lon="10.7778288"><ele>143.0</ele><time>2026-04-08T11:31:18.631Z</time></trkpt><trkpt lat="45.4958751" lon="10.777828"><ele>142.0</ele><time>2026-04-08T11:31:27.631Z</time></trkpt><trkpt lat="45.4959644" lon="10.7778515"><ele>141.0</ele><time>2026-04-08T11:31:29.632Z</time></trkpt><trkpt lat="45.4960721" lon="10.7778312"><ele>140.0</ele><time>2026-04-08T11:31:31.632Z</time></trkpt><trkpt lat="45.4961562" lon="10.7778051"><ele>140.0</ele><time>2026-04-08T11:31:33.633Z</time></trkpt><trkpt lat="45.4962193" lon="10.777792"><ele>140.0</ele><time>2026-04-08T11:31:35.633Z</time></trkpt><trkpt lat="45.4963007" lon="10.7777589"><ele>140.0</ele><time>2026-04-08T11:31:46.633Z</time></trkpt><trkpt lat="45.4963983" lon="10.7777269"><ele>140.0</ele><time>2026-04-08T11:31:48.633Z</time></trkpt><trkpt lat="45.4964616" lon="10.7777119"><ele>140.0</ele><time>2026-04-08T11:31:49.632Z</time></trkpt><trkpt lat="45.4965561" lon="10.777669"><ele>140.0</ele><time>2026-04-08T11:31:51.632Z</time></trkpt><trkpt lat="45.4966076" lon="10.7776019"><ele>140.66666666666666</ele><time>2026-04-08T11:31:53.632Z</time></trkpt><trkpt lat="45.4966446" lon="10.7775013"><ele>141.33333333333331</ele><time>2026-04-08T11:31:55.632Z</time></trkpt><trkpt lat="45.4966932" lon="10.7773737"><ele>142.0</ele><time>2026-04-08T11:31:57.632Z</time></trkpt><trkpt lat="45.4967355" lon="10.7772695"><ele>142.66666666666666</ele><time>2026-04-08T11:31:59.632Z</time></trkpt><trkpt lat="45.4967714" lon="10.7771863"><ele>143.33333333333334</ele><time>2026-04-08T11:32:01.632Z</time></trkpt><trkpt lat="45.4967673" lon="10.7770754"><ele>144.0</ele><time>2026-04-08T11:32:04.633Z</time></trkpt><trkpt lat="45.4967701" lon="10.7771669"><ele>144.0</ele><time>2026-04-08T11:32:10.633Z</time></trkpt><trkpt lat="45.4967482" lon="10.7772667"><ele>144.0</ele><time>2026-04-08T11:32:13.633Z</time></trkpt><trkpt lat="45.4967081" lon="10.7773568"><ele>144.0</ele><time>2026-04-08T11:32:15.632Z</time></trkpt><trkpt lat="45.4966547" lon="10.7774747"><ele>144.0</ele><time>2026-04-08T11:32:18.633Z</time></trkpt><trkpt lat="45.4966038" lon="10.7776069"><ele>144.0</ele><time>2026-04-08T11:32:20.632Z</time></trkpt><trkpt lat="45.4965442" lon="10.7776948"><ele>144.0</ele><time>2026-04-08T11:32:22.632Z</time></trkpt><trkpt lat="45.4964626" lon="10.777728"><ele>143.0</ele><time>2026-04-08T11:32:24.632Z</time></trkpt><trkpt lat="45.496334" lon="10.7777526"><ele>142.0</ele><time>2026-04-08T11:32:26.632Z</time></trkpt><trkpt lat="45.4962624" lon="10.7777738"><ele>141.0</ele><time>2026-04-08T11:32:27.633Z</time></trkpt><trkpt lat="45.4961412" lon="10.7778067"><ele>140.0</ele><time>2026-04-08T11:32:29.634Z</time></trkpt><trkpt lat="45.4960182" lon="10.7778424"><ele>140.0</ele><time>2026-04-08T11:32:31.633Z</time></trkpt><trkpt lat="45.4959221" lon="10.7778562"><ele>140.0</ele><time>2026-04-08T11:32:33.633Z</time></trkpt><trkpt lat="45.4958572" lon="10.7778327"><ele>140.0</ele><time>2026-04-08T11:32:35.633Z</time></trkpt><trkpt lat="45.4958454" lon="10.7779284"><ele>140.0</ele><time>2026-04-08T11:32:39.634Z</time></trkpt><trkpt lat="45.4959477" lon="10.7779456"><ele>140.0</ele><time>2026-04-08T11:32:42.634Z</time></trkpt><trkpt lat="45.4960251" lon="10.7779196"><ele>140.0</ele><time>2026-04-08T11:32:44.633Z</time></trkpt><trkpt lat="45.4960917" lon="10.777892"><ele>140.0</ele><time>2026-04-08T11:32:46.633Z</time></trkpt><trkpt lat="45.4961587" lon="10.7778642"><ele>140.0</ele><time>2026-04-08T11:32:48.633Z</time></trkpt><trkpt lat="45.4962375" lon="10.7778539"><ele>140.0</ele><time>2026-04-08T11:32:50.634Z</time></trkpt><trkpt lat="45.496312" lon="10.7778526"><ele>140.0</ele><time>2026-04-08T11:32:52.633Z</time></trkpt><trkpt lat="45.4963921" lon="10.7778494"><ele>140.0</ele><time>2026-04-08T11:32:54.633Z</time></trkpt><trkpt lat="45.4964718" lon="10.7778526"><ele>140.0</ele><time>2026-04-08T11:32:56.634Z</time></trkpt><trkpt lat="45.4965579" lon="10.7778457"><ele>139.8</ele><time>2026-04-08T11:32:58.633Z</time></trkpt><trkpt lat="45.4966356" lon="10.7778353"><ele>139.6</ele><time>2026-04-08T11:33:00.633Z</time></trkpt><trkpt lat="45.4967148" lon="10.7778412"><ele>139.4</ele><time>2026-04-08T11:33:02.633Z</time></trkpt><trkpt lat="45.4967889" lon="10.7778643"><ele>139.2</ele><time>2026-04-08T11:33:04.633Z</time></trkpt><trkpt lat="45.4968783" lon="10.777938"><ele>139.0</ele><time>2026-04-08T11:33:06.634Z</time></trkpt><trkpt lat="45.4969785" lon="10.7780383"><ele>139.0</ele><time>2026-04-08T11:33:08.634Z</time></trkpt><trkpt lat="45.4970329" lon="10.7780988"><ele>139.0</ele><time>2026-04-08T11:33:09.634Z</time></trkpt><trkpt lat="45.4971263" lon="10.7781649"><ele>139.0</ele><time>2026-04-08T11:33:11.634Z</time></trkpt><trkpt lat="45.4972027" lon="10.7782136"><ele>139.0</ele><time>2026-04-08T11:33:13.634Z</time></trkpt><trkpt lat="45.4972437" lon="10.778354"><ele>139.0</ele><time>2026-04-08T11:33:16.633Z</time></trkpt><trkpt lat="45.4972178" lon="10.7784515"><ele>139.0</ele><time>2026-04-08T11:33:17.633Z</time></trkpt><trkpt lat="45.4971961" lon="10.7785449"><ele>139.2</ele><time>2026-04-08T11:33:18.633Z</time></trkpt><trkpt lat="45.4971759" lon="10.7786453"><ele>139.4</ele><time>2026-04-08T11:33:19.634Z</time></trkpt><trkpt lat="45.4971498" lon="10.7787622"><ele>139.6</ele><time>2026-04-08T11:33:20.634Z</time></trkpt><trkpt lat="45.4971232" lon="10.7788921"><ele>139.8</ele><time>2026-04-08T11:33:21.633Z</time></trkpt><trkpt lat="45.4970996" lon="10.7790309"><ele>140.0</ele><time>2026-04-08T11:33:22.633Z</time></trkpt><trkpt lat="45.4970673" lon="10.7791722"><ele>139.6</ele><time>2026-04-08T11:33:23.634Z</time></trkpt><trkpt lat="45.4970389" lon="10.7793009"><ele>139.2</ele><time>2026-04-08T11:33:24.635Z</time></trkpt><trkpt lat="45.4970216" lon="10.7794168"><ele>138.8</ele><time>2026-04-08T11:33:25.635Z</time></trkpt><trkpt lat="45.4970083" lon="10.779543"><ele>138.4</ele><time>2026-04-08T11:33:26.635Z</time></trkpt><trkpt lat="45.4969991" lon="10.7796729"><ele>138.0</ele><time>2026-04-08T11:33:27.634Z</time></trkpt><trkpt lat="45.4969891" lon="10.7798145"><ele>137.4</ele><time>2026-04-08T11:33:28.635Z</time></trkpt><trkpt lat="45.4969825" lon="10.7799637"><ele>136.8</ele><time>2026-04-08T11:33:29.634Z</time></trkpt><trkpt lat="45.4969787" lon="10.7801179"><ele>136.2</ele><time>2026-04-08T11:33:30.634Z</time></trkpt><trkpt lat="45.4969784" lon="10.7802698"><ele>135.6</ele><time>2026-04-08T11:33:31.635Z</time></trkpt><trkpt lat="45.4969753" lon="10.7804118"><ele>135.0</ele><time>2026-04-08T11:33:32.635Z</time></trkpt><trkpt lat="45.4969716" lon="10.7805428"><ele>135.0</ele><time>2026-04-08T11:33:33.635Z</time></trkpt><trkpt lat="45.4969624" lon="10.7806666"><ele>135.0</ele><time>2026-04-08T11:33:34.634Z</time></trkpt><trkpt lat="45.4969349" lon="10.7807732"><ele>135.0</ele><time>2026-04-08T11:33:35.634Z</time></trkpt><trkpt lat="45.4968963" lon="10.7808722"><ele>135.0</ele><time>2026-04-08T11:33:36.635Z</time></trkpt><trkpt lat="45.4968638" lon="10.7809575"><ele>135.0</ele><time>2026-04-08T11:33:37.635Z</time></trkpt><trkpt lat="45.4968604" lon="10.781076"><ele>135.0</ele><time>2026-04-08T11:33:39.634Z</time></trkpt><trkpt lat="45.4969251" lon="10.7811414"><ele>135.4</ele><time>2026-04-08T11:33:41.634Z</time></trkpt><trkpt lat="45.4970535" lon="10.7811431"><ele>135.8</ele><time>2026-04-08T11:33:43.634Z</time></trkpt><trkpt lat="45.49714" lon="10.7811464"><ele>136.2</ele><time>2026-04-08T11:33:44.635Z</time></trkpt><trkpt lat="45.49723" lon="10.7811475"><ele>136.6</ele><time>2026-04-08T11:33:45.634Z</time></trkpt><trkpt lat="45.49733" lon="10.7811499"><ele>137.0</ele><time>2026-04-08T11:33:46.634Z</time></trkpt><trkpt lat="45.4974394" lon="10.7811547"><ele>137.79999999999998</ele><time>2026-04-08T11:33:47.635Z</time></trkpt><trkpt lat="45.4975459" lon="10.781163"><ele>138.6</ele><time>2026-04-08T11:33:48.634Z</time></trkpt><trkpt lat="45.4976413" lon="10.7811664"><ele>139.39999999999998</ele><time>2026-04-08T11:33:49.634Z</time></trkpt><trkpt lat="45.497724" lon="10.7811704"><ele>140.2</ele><time>2026-04-08T11:33:50.634Z</time></trkpt><trkpt lat="45.4977963" lon="10.7811791"><ele>141.0</ele><time>2026-04-08T11:33:51.634Z</time></trkpt><trkpt lat="45.4979012" lon="10.7812548"><ele>143.2</ele><time>2026-04-08T11:33:53.634Z</time></trkpt><trkpt lat="45.4979309" lon="10.7814323"><ele>145.39999999999998</ele><time>2026-04-08T11:33:55.634Z</time></trkpt><trkpt lat="45.4979382" lon="10.7815504"><ele>147.6</ele><time>2026-04-08T11:33:56.635Z</time></trkpt><trkpt lat="45.497947" lon="10.7816788"><ele>149.79999999999998</ele><time>2026-04-08T11:33:57.634Z</time></trkpt><trkpt lat="45.4979577" lon="10.7818079"><ele>152.0</ele><time>2026-04-08T11:33:58.635Z</time></trkpt><trkpt lat="45.4979715" lon="10.7819495"><ele>152.5</ele><time>2026-04-08T11:33:59.634Z</time></trkpt><trkpt lat="45.4979778" lon="10.7821044"><ele>153.0</ele><time>2026-04-08T11:34:00.634Z</time></trkpt><trkpt lat="45.497985" lon="10.7822555"><ele>153.5</ele><time>2026-04-08T11:34:01.635Z</time></trkpt><trkpt lat="45.4980016" lon="10.7824153"><ele>154.0</ele><time>2026-04-08T11:34:02.634Z</time></trkpt><trkpt lat="45.4980199" lon="10.7825879"><ele>154.0</ele><time>2026-04-08T11:34:03.634Z</time></trkpt><trkpt lat="45.4980366" lon="10.7827698"><ele>154.0</ele><time>2026-04-08T11:34:04.634Z</time></trkpt><trkpt lat="45.4980399" lon="10.782936"><ele>154.0</ele><time>2026-04-08T11:34:05.634Z</time></trkpt><trkpt lat="45.4980621" lon="10.78308"><ele>154.0</ele><time>2026-04-08T11:34:06.634Z</time></trkpt><trkpt lat="45.4980919" lon="10.783215"><ele>154.0</ele><time>2026-04-08T11:34:07.635Z</time></trkpt><trkpt lat="45.4981378" lon="10.7833418"><ele>154.0</ele><time>2026-04-08T11:34:08.634Z</time></trkpt><trkpt lat="45.4981806" lon="10.7834595"><ele>154.0</ele><time>2026-04-08T11:34:09.634Z</time></trkpt><trkpt lat="45.4982075" lon="10.7835745"><ele>154.0</ele><time>2026-04-08T11:34:10.634Z</time></trkpt><trkpt lat="45.4982183" lon="10.7836866"><ele>154.0</ele><time>2026-04-08T11:34:11.635Z</time></trkpt><trkpt lat="45.4982214" lon="10.7837918"><ele>154.0</ele><time>2026-04-08T11:34:12.635Z</time></trkpt><trkpt lat="45.4982143" lon="10.783892"><ele>154.0</ele><time>2026-04-08T11:34:13.634Z</time></trkpt><trkpt lat="45.4982076" lon="10.7839857"><ele>154.33333333333334</ele><time>2026-04-08T11:34:14.634Z</time></trkpt><trkpt lat="45.4982258" lon="10.784093"><ele>154.66666666666669</ele><time>2026-04-08T11:34:16.635Z</time></trkpt><trkpt lat="45.4983009" lon="10.7841075"><ele>155.0</ele><time>2026-04-08T11:34:18.636Z</time></trkpt><trkpt lat="45.4983686" lon="10.7841062"><ele>155.33333333333334</ele><time>2026-04-08T11:34:19.635Z</time></trkpt><trkpt lat="45.498439" lon="10.7841046"><ele>155.66666666666666</ele><time>2026-04-08T11:34:20.635Z</time></trkpt><trkpt lat="45.4985158" lon="10.7841012"><ele>156.0</ele><time>2026-04-08T11:34:21.636Z</time></trkpt><trkpt lat="45.4986031" lon="10.7840927"><ele>156.0</ele><time>2026-04-08T11:34:22.635Z</time></trkpt><trkpt lat="45.4986945" lon="10.7840956"><ele>156.0</ele><time>2026-04-08T11:34:23.636Z</time></trkpt><trkpt lat="45.498798" lon="10.7841076"><ele>156.0</ele><time>2026-04-08T11:34:24.636Z</time></trkpt><trkpt lat="45.4989073" lon="10.7841167"><ele>156.0</ele><time>2026-04-08T11:34:25.636Z</time></trkpt><trkpt lat="45.4990083" lon="10.7841228"><ele>156.0</ele><time>2026-04-08T11:34:26.636Z</time></trkpt><trkpt lat="45.4991057" lon="10.7841285"><ele>156.2</ele><time>2026-04-08T11:34:27.636Z</time></trkpt><trkpt lat="45.4992044" lon="10.7841316"><ele>156.39999999999998</ele><time>2026-04-08T11:34:28.635Z</time></trkpt><trkpt lat="45.4993109" lon="10.7841212"><ele>156.6</ele><time>2026-04-08T11:34:29.635Z</time></trkpt><trkpt lat="45.499417" lon="10.784115"><ele>156.79999999999998</ele><time>2026-04-08T11:34:30.635Z</time></trkpt><trkpt lat="45.4995157" lon="10.7841075"><ele>157.0</ele><time>2026-04-08T11:34:31.636Z</time></trkpt><trkpt lat="45.4996048" lon="10.7840663"><ele>157.4</ele><time>2026-04-08T11:34:32.636Z</time></trkpt><trkpt lat="45.4996848" lon="10.7840006"><ele>157.79999999999998</ele><time>2026-04-08T11:34:33.636Z</time></trkpt><trkpt lat="45.4997626" lon="10.7839231"><ele>158.2</ele><time>2026-04-08T11:34:34.635Z</time></trkpt><trkpt lat="45.4998416" lon="10.7838455"><ele>158.6</ele><time>2026-04-08T11:34:35.635Z</time></trkpt><trkpt lat="45.4999288" lon="10.7837768"><ele>159.0</ele><time>2026-04-08T11:34:36.635Z</time></trkpt><trkpt lat="45.500016" lon="10.7837098"><ele>159.0</ele><time>2026-04-08T11:34:37.635Z</time></trkpt><trkpt lat="45.5000945" lon="10.7836464"><ele>159.0</ele><time>2026-04-08T11:34:38.636Z</time></trkpt><trkpt lat="45.500164" lon="10.7835866"><ele>159.0</ele><time>2026-04-08T11:34:39.636Z</time></trkpt><trkpt lat="45.5002256" lon="10.7835328"><ele>159.0</ele><time>2026-04-08T11:34:40.688Z</time></trkpt><trkpt lat="45.5002987" lon="10.7834212"><ele>159.0</ele><time>2026-04-08T11:34:42.689Z</time></trkpt><trkpt lat="45.5003324" lon="10.7833334"><ele>159.0</ele><time>2026-04-08T11:34:44.689Z</time></trkpt><trkpt lat="45.5003903" lon="10.783228"><ele>159.16666666666666</ele><time>2026-04-08T11:34:50.688Z</time></trkpt><trkpt lat="45.5004338" lon="10.7831474"><ele>159.33333333333334</ele><time>2026-04-08T11:34:51.689Z</time></trkpt><trkpt lat="45.500469" lon="10.7830694"><ele>159.5</ele><time>2026-04-08T11:34:52.689Z</time></trkpt><trkpt lat="45.5005125" lon="10.7829921"><ele>159.66666666666669</ele><time>2026-04-08T11:34:53.688Z</time></trkpt><trkpt lat="45.5005607" lon="10.7829252"><ele>159.83333333333334</ele><time>2026-04-08T11:34:54.688Z</time></trkpt><trkpt lat="45.5006484" lon="10.7828241"><ele>160.0</ele><time>2026-04-08T11:34:56.688Z</time></trkpt><trkpt lat="45.500773" lon="10.78279"><ele>160.0</ele><time>2026-04-08T11:34:58.689Z</time></trkpt><trkpt lat="45.5008416" lon="10.7827815"><ele>160.0</ele><time>2026-04-08T11:34:59.688Z</time></trkpt><trkpt lat="45.500913" lon="10.7827677"><ele>160.0</ele><time>2026-04-08T11:35:00.688Z</time></trkpt><trkpt lat="45.5009912" lon="10.7827506"><ele>160.0</ele><time>2026-04-08T11:35:01.689Z</time></trkpt><trkpt lat="45.5010753" lon="10.782741"><ele>160.0</ele><time>2026-04-08T11:35:02.689Z</time></trkpt><trkpt lat="45.5011565" lon="10.782728"><ele>160.0</ele><time>2026-04-08T11:35:03.689Z</time></trkpt><trkpt lat="45.5012345" lon="10.7827115"><ele>160.14285714285714</ele><time>2026-04-08T11:35:04.688Z</time></trkpt><trkpt lat="45.5013057" lon="10.7826999"><ele>160.28571428571428</ele><time>2026-04-08T11:35:05.688Z</time></trkpt><trkpt lat="45.5013692" lon="10.7826889"><ele>160.42857142857144</ele><time>2026-04-08T11:35:06.689Z</time></trkpt><trkpt lat="45.5014329" lon="10.7826752"><ele>160.57142857142856</ele><time>2026-04-08T11:35:07.688Z</time></trkpt><trkpt lat="45.501502" lon="10.782665"><ele>160.71428571428572</ele><time>2026-04-08T11:35:08.688Z</time></trkpt><trkpt lat="45.5015694" lon="10.7826568"><ele>160.85714285714286</ele><time>2026-04-08T11:35:09.688Z</time></trkpt><trkpt lat="45.5016344" lon="10.782658"><ele>161.0</ele><time>2026-04-08T11:35:10.688Z</time></trkpt><trkpt lat="45.5017515" lon="10.7826776"><ele>161.0</ele><time>2026-04-08T11:35:12.688Z</time></trkpt><trkpt lat="45.5018137" lon="10.7826948"><ele>161.0</ele><time>2026-04-08T11:35:13.689Z</time></trkpt><trkpt lat="45.5018821" lon="10.7827203"><ele>161.0</ele><time>2026-04-08T11:35:14.688Z</time></trkpt><trkpt lat="45.5019526" lon="10.7827536"><ele>161.0</ele><time>2026-04-08T11:35:15.688Z</time></trkpt><trkpt lat="45.5020637" lon="10.7828253"><ele>161.0</ele><time>2026-04-08T11:35:17.689Z</time></trkpt><trkpt lat="45.5021226" lon="10.7828735"><ele>161.0</ele><time>2026-04-08T11:35:18.689Z</time></trkpt><trkpt lat="45.5022308" lon="10.7829267"><ele>160.16666666666666</ele><time>2026-04-08T11:35:20.688Z</time></trkpt><trkpt lat="45.5022974" lon="10.7829403"><ele>159.33333333333331</ele><time>2026-04-08T11:35:21.688Z</time></trkpt><trkpt lat="45.5023679" lon="10.782948"><ele>158.5</ele><time>2026-04-08T11:35:22.688Z</time></trkpt><trkpt lat="45.502437" lon="10.7829433"><ele>157.66666666666666</ele><time>2026-04-08T11:35:23.688Z</time></trkpt><trkpt lat="45.5025026" lon="10.7829399"><ele>156.83333333333334</ele><time>2026-04-08T11:35:24.688Z</time></trkpt><trkpt lat="45.5026228" lon="10.7829324"><ele>156.0</ele><time>2026-04-08T11:35:26.688Z</time></trkpt><trkpt lat="45.5027295" lon="10.782916"><ele>156.0</ele><time>2026-04-08T11:35:28.689Z</time></trkpt><trkpt lat="45.5028445" lon="10.7829267"><ele>156.0</ele><time>2026-04-08T11:35:30.688Z</time></trkpt><trkpt lat="45.5029364" lon="10.7829661"><ele>156.0</ele><time>2026-04-08T11:35:32.689Z</time></trkpt><trkpt lat="45.5030463" lon="10.7830064"><ele>156.0</ele><time>2026-04-08T11:35:34.689Z</time></trkpt><trkpt lat="45.5031641" lon="10.7830031"><ele>156.0</ele><time>2026-04-08T11:35:36.689Z</time></trkpt><trkpt lat="45.5032334" lon="10.7829999"><ele>156.0</ele><time>2026-04-08T11:35:37.689Z</time></trkpt><trkpt lat="45.5032981" lon="10.7830101"><ele>156.0</ele><time>2026-04-08T11:35:38.689Z</time></trkpt><trkpt lat="45.5033679" lon="10.7830381"><ele>156.0</ele><time>2026-04-08T11:35:39.688Z</time></trkpt><trkpt lat="45.503444" lon="10.7830675"><ele>156.0</ele><time>2026-04-08T11:35:40.689Z</time></trkpt><trkpt lat="45.5035186" lon="10.783085"><ele>156.0</ele><time>2026-04-08T11:35:41.688Z</time></trkpt><trkpt lat="45.5035904" lon="10.7830882"><ele>156.0</ele><time>2026-04-08T11:35:42.689Z</time></trkpt><trkpt lat="45.5036598" lon="10.7830762"><ele>156.0</ele><time>2026-04-08T11:35:43.689Z</time></trkpt><trkpt lat="45.5037675" lon="10.7830425"><ele>156.0</ele><time>2026-04-08T11:35:45.688Z</time></trkpt><trkpt lat="45.5038338" lon="10.7830292"><ele>156.0</ele><time>2026-04-08T11:35:46.689Z</time></trkpt><trkpt lat="45.5039057" lon="10.7830152"><ele>156.0</ele><time>2026-04-08T11:35:47.688Z</time></trkpt><trkpt lat="45.5039807" lon="10.7830042"><ele>156.0</ele><time>2026-04-08T11:35:48.689Z</time></trkpt><trkpt lat="45.5040634" lon="10.7829943"><ele>156.0</ele><time>2026-04-08T11:35:49.688Z</time></trkpt><trkpt lat="45.5041434" lon="10.7829871"><ele>156.0</ele><time>2026-04-08T11:35:50.688Z</time></trkpt><trkpt lat="45.5042094" lon="10.782982"><ele>156.0</ele><time>2026-04-08T11:35:51.689Z</time></trkpt><trkpt lat="45.5043293" lon="10.7829615"><ele>156.0</ele><time>2026-04-08T11:35:53.689Z</time></trkpt><trkpt lat="45.5043924" lon="10.7829539"><ele>156.0</ele><time>2026-04-08T11:35:54.689Z</time></trkpt><trkpt lat="45.5045084" lon="10.7829783"><ele>156.0</ele><time>2026-04-08T11:35:56.689Z</time></trkpt><trkpt lat="45.5045881" lon="10.7830678"><ele>156.0</ele><time>2026-04-08T11:35:58.689Z</time></trkpt><trkpt lat="45.5046918" lon="10.7831438"><ele>156.0</ele><time>2026-04-08T11:36:00.689Z</time></trkpt><trkpt lat="45.5047548" lon="10.7831621"><ele>155.2</ele><time>2026-04-08T11:36:01.688Z</time></trkpt><trkpt lat="45.5048588" lon="10.7831759"><ele>154.39999999999998</ele><time>2026-04-08T11:36:03.688Z</time></trkpt><trkpt lat="45.5049644" lon="10.7831658"><ele>153.6</ele><time>2026-04-08T11:36:05.688Z</time></trkpt><trkpt lat="45.5050609" lon="10.783158"><ele>152.79999999999998</ele><time>2026-04-08T11:36:07.688Z</time></trkpt><trkpt lat="45.5051409" lon="10.7831882"><ele>152.0</ele><time>2026-04-08T11:36:09.688Z</time></trkpt><trkpt lat="45.5051834" lon="10.78328"><ele>152.0</ele><time>2026-04-08T11:36:11.689Z</time></trkpt><trkpt lat="45.5052107" lon="10.7834247"><ele>152.0</ele><time>2026-04-08T11:36:13.688Z</time></trkpt><trkpt lat="45.5052172" lon="10.7835225"><ele>152.0</ele><time>2026-04-08T11:36:14.689Z</time></trkpt><trkpt lat="45.5052223" lon="10.7836294"><ele>152.0</ele><time>2026-04-08T11:36:15.688Z</time></trkpt><trkpt lat="45.5052288" lon="10.7837429"><ele>152.0</ele><time>2026-04-08T11:36:16.689Z</time></trkpt><trkpt lat="45.5052361" lon="10.7838596"><ele>152.0</ele><time>2026-04-08T11:36:17.688Z</time></trkpt><trkpt lat="45.5052388" lon="10.7839703"><ele>151.83333333333331</ele><time>2026-04-08T11:36:18.689Z</time></trkpt><trkpt lat="45.5052371" lon="10.784079"><ele>151.66666666666666</ele><time>2026-04-08T11:36:19.689Z</time></trkpt><trkpt lat="45.5052329" lon="10.784188"><ele>151.5</ele><time>2026-04-08T11:36:20.689Z</time></trkpt><trkpt lat="45.5052252" lon="10.7842775"><ele>151.33333333333334</ele><time>2026-04-08T11:36:21.688Z</time></trkpt><trkpt lat="45.5052507" lon="10.7844175"><ele>151.16666666666669</ele><time>2026-04-08T11:36:23.688Z</time></trkpt><trkpt lat="45.5053052" lon="10.7845885"><ele>151.0</ele><time>2026-04-08T11:36:25.688Z</time></trkpt><trkpt lat="45.5053305" lon="10.7847012"><ele>150.8</ele><time>2026-04-08T11:36:26.688Z</time></trkpt><trkpt lat="45.5053458" lon="10.7848281"><ele>150.6</ele><time>2026-04-08T11:36:27.688Z</time></trkpt><trkpt lat="45.5053598" lon="10.7849571"><ele>150.4</ele><time>2026-04-08T11:36:28.688Z</time></trkpt><trkpt lat="45.5053748" lon="10.7850854"><ele>150.2</ele><time>2026-04-08T11:36:29.689Z</time></trkpt><trkpt lat="45.5053905" lon="10.7852208"><ele>150.0</ele><time>2026-04-08T11:36:30.688Z</time></trkpt><trkpt lat="45.5054032" lon="10.7853456"><ele>149.8</ele><time>2026-04-08T11:36:31.689Z</time></trkpt><trkpt lat="45.5054185" lon="10.7854625"><ele>149.6</ele><time>2026-04-08T11:36:32.688Z</time></trkpt><trkpt lat="45.5054354" lon="10.7855932"><ele>149.4</ele><time>2026-04-08T11:36:33.689Z</time></trkpt><trkpt lat="45.505452" lon="10.7857275"><ele>149.2</ele><time>2026-04-08T11:36:34.688Z</time></trkpt><trkpt lat="45.5054651" lon="10.7858652"><ele>149.0</ele><time>2026-04-08T11:36:35.689Z</time></trkpt><trkpt lat="45.505478" lon="10.7860039"><ele>148.8</ele><time>2026-04-08T11:36:36.688Z</time></trkpt><trkpt lat="45.5054953" lon="10.7861469"><ele>148.60000000000002</ele><time>2026-04-08T11:36:37.688Z</time></trkpt><trkpt lat="45.5055137" lon="10.7862917"><ele>148.4</ele><time>2026-04-08T11:36:38.688Z</time></trkpt><trkpt lat="45.5055308" lon="10.7864377"><ele>148.20000000000002</ele><time>2026-04-08T11:36:39.688Z</time></trkpt><trkpt lat="45.50555" lon="10.7865784"><ele>148.0</ele><time>2026-04-08T11:36:40.688Z</time></trkpt><trkpt lat="45.505569" lon="10.7867234"><ele>147.4</ele><time>2026-04-08T11:36:41.688Z</time></trkpt><trkpt lat="45.5055875" lon="10.786868"><ele>146.8</ele><time>2026-04-08T11:36:42.689Z</time></trkpt><trkpt lat="45.5056085" lon="10.7870178"><ele>146.2</ele><time>2026-04-08T11:36:43.688Z</time></trkpt><trkpt lat="45.5056276" lon="10.7871665"><ele>145.6</ele><time>2026-04-08T11:36:44.689Z</time></trkpt><trkpt lat="45.5056451" lon="10.78731"><ele>145.0</ele><time>2026-04-08T11:36:45.688Z</time></trkpt><trkpt lat="45.5056647" lon="10.787438"><ele>145.0</ele><time>2026-04-08T11:36:46.689Z</time></trkpt><trkpt lat="45.5056798" lon="10.7875702"><ele>145.0</ele><time>2026-04-08T11:36:47.688Z</time></trkpt><trkpt lat="45.5056956" lon="10.7877201"><ele>145.0</ele><time>2026-04-08T11:36:48.689Z</time></trkpt><trkpt lat="45.5057158" lon="10.7878706"><ele>145.0</ele><time>2026-04-08T11:36:49.689Z</time></trkpt><trkpt lat="45.5057351" lon="10.7880088"><ele>145.0</ele><time>2026-04-08T11:36:50.689Z</time></trkpt><trkpt lat="45.5057555" lon="10.7881373"><ele>145.0</ele><time>2026-04-08T11:36:51.689Z</time></trkpt><trkpt lat="45.505773" lon="10.7882503"><ele>145.0</ele><time>2026-04-08T11:36:52.688Z</time></trkpt><trkpt lat="45.505793" lon="10.7883608"><ele>145.0</ele><time>2026-04-08T11:36:53.688Z</time></trkpt><trkpt lat="45.5058233" lon="10.7884688"><ele>145.0</ele><time>2026-04-08T11:36:54.688Z</time></trkpt><trkpt lat="45.5058664" lon="10.7885644"><ele>145.0</ele><time>2026-04-08T11:36:55.688Z</time></trkpt><trkpt lat="45.5059119" lon="10.7886594"><ele>145.0</ele><time>2026-04-08T11:36:56.688Z</time></trkpt><trkpt lat="45.5059453" lon="10.7887718"><ele>145.0</ele><time>2026-04-08T11:36:57.689Z</time></trkpt><trkpt lat="45.5059703" lon="10.7888931"><ele>145.0</ele><time>2026-04-08T11:36:58.689Z</time></trkpt><trkpt lat="45.5059978" lon="10.7890179"><ele>145.0</ele><time>2026-04-08T11:36:59.688Z</time></trkpt><trkpt lat="45.5060284" lon="10.7891501"><ele>145.0</ele><time>2026-04-08T11:37:00.689Z</time></trkpt><trkpt lat="45.5060566" lon="10.789286"><ele>145.0</ele><time>2026-04-08T11:37:01.688Z</time></trkpt><trkpt lat="45.5060829" lon="10.7894067"><ele>145.5</ele><time>2026-04-08T11:37:02.689Z</time></trkpt><trkpt lat="45.5061076" lon="10.789515"><ele>146.0</ele><time>2026-04-08T11:37:03.689Z</time></trkpt><trkpt lat="45.5061308" lon="10.7896253"><ele>146.5</ele><time>2026-04-08T11:37:04.688Z</time></trkpt><trkpt lat="45.5061557" lon="10.7897375"><ele>147.0</ele><time>2026-04-08T11:37:05.688Z</time></trkpt><trkpt lat="45.5061745" lon="10.7898541"><ele>147.5</ele><time>2026-04-08T11:37:06.688Z</time></trkpt><trkpt lat="45.5061951" lon="10.7899679"><ele>148.0</ele><time>2026-04-08T11:37:07.688Z</time></trkpt><trkpt lat="45.5062149" lon="10.7900856"><ele>148.0</ele><time>2026-04-08T11:37:08.689Z</time></trkpt><trkpt lat="45.5062318" lon="10.7902102"><ele>148.0</ele><time>2026-04-08T11:37:09.688Z</time></trkpt><trkpt lat="45.5062515" lon="10.7903447"><ele>148.0</ele><time>2026-04-08T11:37:10.689Z</time></trkpt><trkpt lat="45.506271" lon="10.7904835"><ele>148.0</ele><time>2026-04-08T11:37:11.689Z</time></trkpt><trkpt lat="45.5062872" lon="10.7906279"><ele>148.0</ele><time>2026-04-08T11:37:12.689Z</time></trkpt><trkpt lat="45.5063029" lon="10.790778"><ele>148.0</ele><time>2026-04-08T11:37:13.688Z</time></trkpt><trkpt lat="45.5063177" lon="10.7909309"><ele>148.0</ele><time>2026-04-08T11:37:14.688Z</time></trkpt><trkpt lat="45.5063331" lon="10.791084"><ele>148.0</ele><time>2026-04-08T11:37:15.689Z</time></trkpt><trkpt lat="45.5063508" lon="10.7912378"><ele>148.0</ele><time>2026-04-08T11:37:16.689Z</time></trkpt><trkpt lat="45.5063636" lon="10.7913898"><ele>148.0</ele><time>2026-04-08T11:37:17.689Z</time></trkpt><trkpt lat="45.506374" lon="10.7915385"><ele>148.20000000000002</ele><time>2026-04-08T11:37:18.688Z</time></trkpt><trkpt lat="45.5063842" lon="10.7916835"><ele>148.4</ele><time>2026-04-08T11:37:19.689Z</time></trkpt><trkpt lat="45.5064028" lon="10.7918268"><ele>148.60000000000002</ele><time>2026-04-08T11:37:20.689Z</time></trkpt><trkpt lat="45.5064285" lon="10.7919695"><ele>148.8</ele><time>2026-04-08T11:37:21.688Z</time></trkpt><trkpt lat="45.5064582" lon="10.7921161"><ele>149.0</ele><time>2026-04-08T11:37:22.689Z</time></trkpt><trkpt lat="45.5064907" lon="10.7922558"><ele>149.0</ele><time>2026-04-08T11:37:23.689Z</time></trkpt><trkpt lat="45.506513" lon="10.7923884"><ele>149.0</ele><time>2026-04-08T11:37:24.689Z</time></trkpt><trkpt lat="45.5065432" lon="10.7925157"><ele>149.0</ele><time>2026-04-08T11:37:25.689Z</time></trkpt><trkpt lat="45.5065747" lon="10.792643"><ele>149.0</ele><time>2026-04-08T11:37:26.639Z</time></trkpt><trkpt lat="45.506601" lon="10.7927694"><ele>149.0</ele><time>2026-04-08T11:37:27.638Z</time></trkpt><trkpt lat="45.5066208" lon="10.7928791"><ele>149.2</ele><time>2026-04-08T11:37:28.638Z</time></trkpt><trkpt lat="45.5066387" lon="10.7930372"><ele>149.4</ele><time>2026-04-08T11:37:30.638Z</time></trkpt><trkpt lat="45.5066466" lon="10.7932087"><ele>149.6</ele><time>2026-04-08T11:37:32.638Z</time></trkpt><trkpt lat="45.5066433" lon="10.7933183"><ele>149.8</ele><time>2026-04-08T11:37:33.638Z</time></trkpt><trkpt lat="45.5066433" lon="10.7934359"><ele>150.0</ele><time>2026-04-08T11:37:34.639Z</time></trkpt><trkpt lat="45.5066378" lon="10.7935664"><ele>150.4</ele><time>2026-04-08T11:37:35.638Z</time></trkpt><trkpt lat="45.5066311" lon="10.7937082"><ele>150.8</ele><time>2026-04-08T11:37:36.638Z</time></trkpt><trkpt lat="45.5066216" lon="10.7938548"><ele>151.2</ele><time>2026-04-08T11:37:37.639Z</time></trkpt><trkpt lat="45.5066151" lon="10.7939978"><ele>151.6</ele><time>2026-04-08T11:37:38.639Z</time></trkpt><trkpt lat="45.5066061" lon="10.7941369"><ele>152.0</ele><time>2026-04-08T11:37:39.638Z</time></trkpt><trkpt lat="45.5065947" lon="10.7942838"><ele>151.83333333333331</ele><time>2026-04-08T11:37:40.639Z</time></trkpt><trkpt lat="45.5065879" lon="10.7944311"><ele>151.66666666666666</ele><time>2026-04-08T11:37:41.639Z</time></trkpt><trkpt lat="45.5065807" lon="10.7945618"><ele>151.5</ele><time>2026-04-08T11:37:42.639Z</time></trkpt><trkpt lat="45.5065713" lon="10.794675"><ele>151.33333333333334</ele><time>2026-04-08T11:37:43.639Z</time></trkpt><trkpt lat="45.5065665" lon="10.794778"><ele>151.16666666666669</ele><time>2026-04-08T11:37:44.639Z</time></trkpt><trkpt lat="45.5065607" lon="10.7948702"><ele>151.0</ele><time>2026-04-08T11:37:45.638Z</time></trkpt><trkpt lat="45.5065532" lon="10.7949601"><ele>151.0</ele><time>2026-04-08T11:37:46.638Z</time></trkpt><trkpt lat="45.5065527" lon="10.7950617"><ele>151.0</ele><time>2026-04-08T11:37:48.639Z</time></trkpt><trkpt lat="45.5066047" lon="10.7951841"><ele>151.0</ele><time>2026-04-08T11:38:12.64Z</time></trkpt><trkpt lat="45.5066531" lon="10.7953512"><ele>151.0</ele><time>2026-04-08T11:38:14.64Z</time></trkpt><trkpt lat="45.506742" lon="10.795438"><ele>151.0</ele><time>2026-04-08T11:38:16.64Z</time></trkpt><trkpt lat="45.5068065" lon="10.7954314"><ele>151.0</ele><time>2026-04-08T11:38:17.64Z</time></trkpt><trkpt lat="45.5068713" lon="10.7953787"><ele>151.0</ele><time>2026-04-08T11:38:18.639Z</time></trkpt><trkpt lat="45.5069143" lon="10.7952824"><ele>151.0</ele><time>2026-04-08T11:38:19.639Z</time></trkpt><trkpt lat="45.5069252" lon="10.7951705"><ele>151.0</ele><time>2026-04-08T11:38:20.639Z</time></trkpt><trkpt lat="45.5069165" lon="10.7950488"><ele>151.0</ele><time>2026-04-08T11:38:21.64Z</time></trkpt><trkpt lat="45.5069188" lon="10.7949219"><ele>151.0</ele><time>2026-04-08T11:38:22.64Z</time></trkpt><trkpt lat="45.5069606" lon="10.7947969"><ele>151.0</ele><time>2026-04-08T11:38:23.64Z</time></trkpt><trkpt lat="45.5070281" lon="10.7946798"><ele>151.0</ele><time>2026-04-08T11:38:24.639Z</time></trkpt><trkpt lat="45.5071193" lon="10.7945771"><ele>151.0</ele><time>2026-04-08T11:38:25.639Z</time></trkpt><trkpt lat="45.5072222" lon="10.7944675"><ele>151.0</ele><time>2026-04-08T11:38:26.639Z</time></trkpt><trkpt lat="45.507325" lon="10.7943431"><ele>151.0</ele><time>2026-04-08T11:38:27.639Z</time></trkpt><trkpt lat="45.5074292" lon="10.7942172"><ele>151.0</ele><time>2026-04-08T11:38:28.639Z</time></trkpt><trkpt lat="45.5075414" lon="10.7940914"><ele>151.0</ele><time>2026-04-08T11:38:29.64Z</time></trkpt><trkpt lat="45.5076547" lon="10.7939586"><ele>151.0</ele><time>2026-04-08T11:38:30.639Z</time></trkpt><trkpt lat="45.5077658" lon="10.7938167"><ele>151.0</ele><time>2026-04-08T11:38:31.639Z</time></trkpt><trkpt lat="45.5078821" lon="10.7936725"><ele>151.0</ele><time>2026-04-08T11:38:32.64Z</time></trkpt><trkpt lat="45.5080025" lon="10.7935392"><ele>151.0</ele><time>2026-04-08T11:38:33.64Z</time></trkpt><trkpt lat="45.5081253" lon="10.793405"><ele>151.0</ele><time>2026-04-08T11:38:34.64Z</time></trkpt><trkpt lat="45.5082528" lon="10.7932639"><ele>151.0</ele><time>2026-04-08T11:38:35.64Z</time></trkpt><trkpt lat="45.5083815" lon="10.7931213"><ele>151.0</ele><time>2026-04-08T11:38:36.64Z</time></trkpt><trkpt lat="45.5085095" lon="10.7929776"><ele>151.0</ele><time>2026-04-08T11:38:37.64Z</time></trkpt><trkpt lat="45.5086317" lon="10.7928455"><ele>151.0</ele><time>2026-04-08T11:38:38.64Z</time></trkpt><trkpt lat="45.5087428" lon="10.7927268"><ele>151.0</ele><time>2026-04-08T11:38:39.639Z</time></trkpt><trkpt lat="45.5088528" lon="10.7926091"><ele>151.0</ele><time>2026-04-08T11:38:40.64Z</time></trkpt><trkpt lat="45.5089546" lon="10.7924897"><ele>151.25</ele><time>2026-04-08T11:38:41.64Z</time></trkpt><trkpt lat="45.5090478" lon="10.7923711"><ele>151.5</ele><time>2026-04-08T11:38:42.64Z</time></trkpt><trkpt lat="45.5091365" lon="10.792257"><ele>151.75</ele><time>2026-04-08T11:38:43.639Z</time></trkpt><trkpt lat="45.5092193" lon="10.7921332"><ele>152.0</ele><time>2026-04-08T11:38:44.639Z</time></trkpt><trkpt lat="45.5092914" lon="10.7919912"><ele>151.75</ele><time>2026-04-08T11:38:45.64Z</time></trkpt><trkpt lat="45.5093568" lon="10.791836"><ele>151.5</ele><time>2026-04-08T11:38:46.639Z</time></trkpt><trkpt lat="45.5094165" lon="10.791676"><ele>151.25</ele><time>2026-04-08T11:38:47.639Z</time></trkpt><trkpt lat="45.5094675" lon="10.7915096"><ele>151.0</ele><time>2026-04-08T11:38:48.639Z</time></trkpt><trkpt lat="45.5095162" lon="10.791336"><ele>151.0</ele><time>2026-04-08T11:38:49.639Z</time></trkpt><trkpt lat="45.5095596" lon="10.7911524"><ele>151.0</ele><time>2026-04-08T11:38:50.639Z</time></trkpt><trkpt lat="45.5095922" lon="10.7909569"><ele>151.0</ele><time>2026-04-08T11:38:51.64Z</time></trkpt><trkpt lat="45.5096116" lon="10.7907523"><ele>151.0</ele><time>2026-04-08T11:38:52.64Z</time></trkpt><trkpt lat="45.5096178" lon="10.7905372"><ele>151.66666666666669</ele><time>2026-04-08T11:38:53.639Z</time></trkpt><trkpt lat="45.5096153" lon="10.7903148"><ele>152.33333333333334</ele><time>2026-04-08T11:38:54.639Z</time></trkpt><trkpt lat="45.509611" lon="10.7900865"><ele>153.0</ele><time>2026-04-08T11:38:55.639Z</time></trkpt><trkpt lat="45.509604" lon="10.7898517"><ele>153.33333333333334</ele><time>2026-04-08T11:38:56.639Z</time></trkpt><trkpt lat="45.5096019" lon="10.7896131"><ele>153.66666666666669</ele><time>2026-04-08T11:38:57.64Z</time></trkpt><trkpt lat="45.5096072" lon="10.7893743"><ele>154.0</ele><time>2026-04-08T11:38:58.64Z</time></trkpt><trkpt lat="45.5096216" lon="10.7891301"><ele>153.33333333333334</ele><time>2026-04-08T11:38:59.639Z</time></trkpt><trkpt lat="45.5096506" lon="10.7888805"><ele>152.66666666666666</ele><time>2026-04-08T11:39:00.639Z</time></trkpt><trkpt lat="45.5096914" lon="10.788634"><ele>152.0</ele><time>2026-04-08T11:39:01.639Z</time></trkpt><trkpt lat="45.5097335" lon="10.7883855"><ele>151.66666666666666</ele><time>2026-04-08T11:39:02.639Z</time></trkpt><trkpt lat="45.5097615" lon="10.7881304"><ele>151.33333333333334</ele><time>2026-04-08T11:39:03.639Z</time></trkpt><trkpt lat="45.5097621" lon="10.7878708"><ele>151.0</ele><time>2026-04-08T11:39:04.639Z</time></trkpt><trkpt lat="45.5097393" lon="10.7876147"><ele>151.66666666666669</ele><time>2026-04-08T11:39:05.64Z</time></trkpt><trkpt lat="45.509704" lon="10.7873708"><ele>152.33333333333334</ele><time>2026-04-08T11:39:06.641Z</time></trkpt><trkpt lat="45.5096729" lon="10.7871473"><ele>153.0</ele><time>2026-04-08T11:39:07.641Z</time></trkpt><trkpt lat="45.5096441" lon="10.7869359"><ele>152.75</ele><time>2026-04-08T11:39:08.641Z</time></trkpt><trkpt lat="45.5096204" lon="10.7867377"><ele>152.5</ele><time>2026-04-08T11:39:09.64Z</time></trkpt><trkpt lat="45.5096007" lon="10.7865574"><ele>152.25</ele><time>2026-04-08T11:39:10.64Z</time></trkpt><trkpt lat="45.5095823" lon="10.7864061"><ele>152.0</ele><time>2026-04-08T11:39:11.64Z</time></trkpt><trkpt lat="45.509565" lon="10.7863016"><ele>152.0</ele><time>2026-04-08T11:39:12.64Z</time></trkpt><trkpt lat="45.5095585" lon="10.786197"><ele>152.0</ele><time>2026-04-08T11:39:14.64Z</time></trkpt><trkpt lat="45.5095493" lon="10.7861035"><ele>152.0</ele><time>2026-04-08T11:39:17.641Z</time></trkpt><trkpt lat="45.5095282" lon="10.785949"><ele>152.0</ele><time>2026-04-08T11:39:19.641Z</time></trkpt><trkpt lat="45.5095247" lon="10.7858427"><ele>152.0</ele><time>2026-04-08T11:39:20.641Z</time></trkpt><trkpt lat="45.5095167" lon="10.7857172"><ele>152.0</ele><time>2026-04-08T11:39:21.64Z</time></trkpt><trkpt lat="45.5095015" lon="10.7855674"><ele>152.0</ele><time>2026-04-08T11:39:22.641Z</time></trkpt><trkpt lat="45.5094906" lon="10.7854289"><ele>152.0</ele><time>2026-04-08T11:39:23.641Z</time></trkpt><trkpt lat="45.5094869" lon="10.7853036"><ele>152.0</ele><time>2026-04-08T11:39:24.641Z</time></trkpt><trkpt lat="45.5094892" lon="10.7851885"><ele>152.0</ele><time>2026-04-08T11:39:25.641Z</time></trkpt><trkpt lat="45.5094935" lon="10.7850834"><ele>152.0</ele><time>2026-04-08T11:39:26.641Z</time></trkpt><trkpt lat="45.5095057" lon="10.7849884"><ele>152.0</ele><time>2026-04-08T11:39:27.64Z</time></trkpt><trkpt lat="45.5095731" lon="10.7848761"><ele>152.2</ele><time>2026-04-08T11:39:29.64Z</time></trkpt><trkpt lat="45.5096994" lon="10.7848429"><ele>152.39999999999998</ele><time>2026-04-08T11:39:31.641Z</time></trkpt><trkpt lat="45.5097782" lon="10.7848456"><ele>152.60000000000002</ele><time>2026-04-08T11:39:32.64Z</time></trkpt><trkpt lat="45.5098656" lon="10.7848451"><ele>152.8</ele><time>2026-04-08T11:39:33.64Z</time></trkpt><trkpt lat="45.5099552" lon="10.7848507"><ele>153.0</ele><time>2026-04-08T11:39:34.641Z</time></trkpt><trkpt lat="45.5100466" lon="10.784856"><ele>153.0</ele><time>2026-04-08T11:39:35.64Z</time></trkpt><trkpt lat="45.5101401" lon="10.7848617"><ele>153.0</ele><time>2026-04-08T11:39:36.641Z</time></trkpt><trkpt lat="45.5102367" lon="10.7848705"><ele>153.0</ele><time>2026-04-08T11:39:37.64Z</time></trkpt><trkpt lat="45.5103349" lon="10.7848842"><ele>153.0</ele><time>2026-04-08T11:39:38.641Z</time></trkpt><trkpt lat="45.5104316" lon="10.7848983"><ele>153.0</ele><time>2026-04-08T11:39:39.641Z</time></trkpt><trkpt lat="45.5105306" lon="10.7849118"><ele>153.4</ele><time>2026-04-08T11:39:40.64Z</time></trkpt><trkpt lat="45.5106333" lon="10.7849242"><ele>153.8</ele><time>2026-04-08T11:39:41.641Z</time></trkpt><trkpt lat="45.5107337" lon="10.7849347"><ele>154.2</ele><time>2026-04-08T11:39:42.64Z</time></trkpt><trkpt lat="45.5108368" lon="10.7849454"><ele>154.6</ele><time>2026-04-08T11:39:43.641Z</time></trkpt><trkpt lat="45.510939" lon="10.7849526"><ele>155.0</ele><time>2026-04-08T11:39:44.641Z</time></trkpt><trkpt lat="45.5110412" lon="10.7849636"><ele>155.0</ele><time>2026-04-08T11:39:45.64Z</time></trkpt><trkpt lat="45.5111447" lon="10.7849737"><ele>155.0</ele><time>2026-04-08T11:39:46.64Z</time></trkpt><trkpt lat="45.5112507" lon="10.7849817"><ele>155.0</ele><time>2026-04-08T11:39:47.641Z</time></trkpt><trkpt lat="45.5113555" lon="10.784988"><ele>155.0</ele><time>2026-04-08T11:39:48.64Z</time></trkpt><trkpt lat="45.5114604" lon="10.7849889"><ele>155.0</ele><time>2026-04-08T11:39:49.64Z</time></trkpt><trkpt lat="45.5115618" lon="10.7849855"><ele>155.33333333333331</ele><time>2026-04-08T11:39:50.641Z</time></trkpt><trkpt lat="45.5116546" lon="10.7849854"><ele>155.66666666666666</ele><time>2026-04-08T11:39:51.641Z</time></trkpt><trkpt lat="45.5117425" lon="10.7849959"><ele>156.0</ele><time>2026-04-08T11:39:52.641Z</time></trkpt><trkpt lat="45.5118204" lon="10.7850104"><ele>156.33333333333334</ele><time>2026-04-08T11:39:53.64Z</time></trkpt><trkpt lat="45.511929" lon="10.7850081"><ele>156.66666666666669</ele><time>2026-04-08T11:39:55.64Z</time></trkpt><trkpt lat="45.511985" lon="10.7849313"><ele>157.0</ele><time>2026-04-08T11:39:57.641Z</time></trkpt><trkpt lat="45.5119956" lon="10.7847824"><ele>157.0</ele><time>2026-04-08T11:39:59.64Z</time></trkpt><trkpt lat="45.5119855" lon="10.78461"><ele>157.0</ele><time>2026-04-08T11:40:01.642Z</time></trkpt><trkpt lat="45.5120011" lon="10.7845015"><ele>157.0</ele><time>2026-04-08T11:40:02.642Z</time></trkpt><trkpt lat="45.5120021" lon="10.7843781"><ele>157.0</ele><time>2026-04-08T11:40:04.641Z</time></trkpt><trkpt lat="45.5120624" lon="10.7843458"><ele>157.0</ele><time>2026-04-08T11:40:06.641Z</time></trkpt><trkpt lat="45.5121558" lon="10.7843601"><ele>157.0</ele><time>2026-04-08T11:40:08.641Z</time></trkpt><trkpt lat="45.5122813" lon="10.7843854"><ele>156.6</ele><time>2026-04-08T11:40:10.641Z</time></trkpt><trkpt lat="45.512402" lon="10.78438"><ele>156.2</ele><time>2026-04-08T11:40:12.641Z</time></trkpt><trkpt lat="45.5124793" lon="10.7843752"><ele>155.8</ele><time>2026-04-08T11:40:13.641Z</time></trkpt><trkpt lat="45.5125595" lon="10.7843683"><ele>155.4</ele><time>2026-04-08T11:40:14.641Z</time></trkpt><trkpt lat="45.5126438" lon="10.7843647"><ele>155.0</ele><time>2026-04-08T11:40:15.642Z</time></trkpt><trkpt lat="45.5127312" lon="10.7843689"><ele>155.0</ele><time>2026-04-08T11:40:16.642Z</time></trkpt><trkpt lat="45.5128235" lon="10.7843664"><ele>155.0</ele><time>2026-04-08T11:40:17.642Z</time></trkpt><trkpt lat="45.5129263" lon="10.7843626"><ele>155.0</ele><time>2026-04-08T11:40:18.641Z</time></trkpt><trkpt lat="45.5130305" lon="10.7843568"><ele>155.0</ele><time>2026-04-08T11:40:19.642Z</time></trkpt><trkpt lat="45.5131365" lon="10.7843515"><ele>155.0</ele><time>2026-04-08T11:40:20.642Z</time></trkpt><trkpt lat="45.513245" lon="10.7843473"><ele>155.6</ele><time>2026-04-08T11:40:21.642Z</time></trkpt><trkpt lat="45.5133543" lon="10.7843353"><ele>156.2</ele><time>2026-04-08T11:40:22.642Z</time></trkpt><trkpt lat="45.513464" lon="10.7843187"><ele>156.8</ele><time>2026-04-08T11:40:23.641Z</time></trkpt><trkpt lat="45.5135642" lon="10.7843086"><ele>157.4</ele><time>2026-04-08T11:40:24.641Z</time></trkpt><trkpt lat="45.5136607" lon="10.7842975"><ele>158.0</ele><time>2026-04-08T11:40:25.641Z</time></trkpt><trkpt lat="45.5137536" lon="10.7842815"><ele>158.8</ele><time>2026-04-08T11:40:26.641Z</time></trkpt><trkpt lat="45.5138495" lon="10.7842677"><ele>159.60000000000002</ele><time>2026-04-08T11:40:27.642Z</time></trkpt><trkpt lat="45.5139462" lon="10.7842511"><ele>160.39999999999998</ele><time>2026-04-08T11:40:28.642Z</time></trkpt><trkpt lat="45.5140415" lon="10.7842365"><ele>161.2</ele><time>2026-04-08T11:40:29.642Z</time></trkpt><trkpt lat="45.5141372" lon="10.784219"><ele>162.0</ele><time>2026-04-08T11:40:30.642Z</time></trkpt><trkpt lat="45.5142317" lon="10.7842004"><ele>162.0</ele><time>2026-04-08T11:40:31.641Z</time></trkpt><trkpt lat="45.5143256" lon="10.7841799"><ele>162.0</ele><time>2026-04-08T11:40:32.641Z</time></trkpt><trkpt lat="45.5144171" lon="10.7841627"><ele>162.0</ele><time>2026-04-08T11:40:33.642Z</time></trkpt><trkpt lat="45.5145129" lon="10.784142"><ele>162.0</ele><time>2026-04-08T11:40:34.641Z</time></trkpt><trkpt lat="45.5146088" lon="10.7841249"><ele>162.0</ele><time>2026-04-08T11:40:35.641Z</time></trkpt><trkpt lat="45.5147074" lon="10.7841092"><ele>162.6</ele><time>2026-04-08T11:40:36.641Z</time></trkpt><trkpt lat="45.5148069" lon="10.7840838"><ele>163.2</ele><time>2026-04-08T11:40:37.641Z</time></trkpt><trkpt lat="45.5149011" lon="10.7840617"><ele>163.8</ele><time>2026-04-08T11:40:38.641Z</time></trkpt><trkpt lat="45.5149928" lon="10.7840418"><ele>164.4</ele><time>2026-04-08T11:40:39.641Z</time></trkpt><trkpt lat="45.5150792" lon="10.7840257"><ele>165.0</ele><time>2026-04-08T11:40:40.642Z</time></trkpt><trkpt lat="45.5151581" lon="10.7840125"><ele>165.0</ele><time>2026-04-08T11:40:41.641Z</time></trkpt><trkpt lat="45.5152318" lon="10.7839916"><ele>165.0</ele><time>2026-04-08T11:40:42.642Z</time></trkpt><trkpt lat="45.5153319" lon="10.7839288"><ele>165.0</ele><time>2026-04-08T11:40:44.641Z</time></trkpt><trkpt lat="45.5153856" lon="10.7838519"><ele>165.0</ele><time>2026-04-08T11:40:46.641Z</time></trkpt><trkpt lat="45.5154732" lon="10.7837773"><ele>165.0</ele><time>2026-04-08T11:40:48.642Z</time></trkpt><trkpt lat="45.5155362" lon="10.7837447"><ele>165.0</ele><time>2026-04-08T11:40:49.642Z</time></trkpt><trkpt lat="45.515608" lon="10.7837103"><ele>165.16666666666666</ele><time>2026-04-08T11:40:50.642Z</time></trkpt><trkpt lat="45.5156942" lon="10.7836767"><ele>165.33333333333334</ele><time>2026-04-08T11:40:51.642Z</time></trkpt><trkpt lat="45.5157793" lon="10.7836608"><ele>165.5</ele><time>2026-04-08T11:40:52.641Z</time></trkpt><trkpt lat="45.5158645" lon="10.7836714"><ele>165.66666666666669</ele><time>2026-04-08T11:40:53.642Z</time></trkpt><trkpt lat="45.5159547" lon="10.7836819"><ele>165.83333333333334</ele><time>2026-04-08T11:40:54.642Z</time></trkpt><trkpt lat="45.5160436" lon="10.7836871"><ele>166.0</ele><time>2026-04-08T11:40:55.642Z</time></trkpt><trkpt lat="45.5161307" lon="10.7836947"><ele>166.0</ele><time>2026-04-08T11:40:56.643Z</time></trkpt><trkpt lat="45.5162142" lon="10.7836999"><ele>166.0</ele><time>2026-04-08T11:40:57.643Z</time></trkpt><trkpt lat="45.5162947" lon="10.7836886"><ele>166.0</ele><time>2026-04-08T11:40:58.642Z</time></trkpt><trkpt lat="45.5163698" lon="10.7836644"><ele>166.0</ele><time>2026-04-08T11:40:59.643Z</time></trkpt><trkpt lat="45.516446" lon="10.7836404"><ele>166.0</ele><time>2026-04-08T11:41:00.642Z</time></trkpt><trkpt lat="45.5165214" lon="10.7836263"><ele>166.0</ele><time>2026-04-08T11:41:01.642Z</time></trkpt><trkpt lat="45.5165975" lon="10.7836108"><ele>166.16666666666669</ele><time>2026-04-08T11:41:02.643Z</time></trkpt><trkpt lat="45.5166699" lon="10.7835948"><ele>166.33333333333334</ele><time>2026-04-08T11:41:03.642Z</time></trkpt><trkpt lat="45.5167346" lon="10.7835823"><ele>166.5</ele><time>2026-04-08T11:41:04.642Z</time></trkpt><trkpt lat="45.5168349" lon="10.7835518"><ele>166.66666666666666</ele><time>2026-04-08T11:41:06.643Z</time></trkpt><trkpt lat="45.51688" lon="10.7834667"><ele>166.83333333333331</ele><time>2026-04-08T11:41:08.643Z</time></trkpt><trkpt lat="45.5169403" lon="10.78343"><ele>167.0</ele><time>2026-04-08T11:41:19.642Z</time></trkpt><trkpt lat="45.5169896" lon="10.7835146"><ele>167.0</ele><time>2026-04-08T11:41:23.696Z</time></trkpt><trkpt lat="45.5170904" lon="10.783535"><ele>167.0</ele><time>2026-04-08T11:41:26.695Z</time></trkpt><trkpt lat="45.5172216" lon="10.7835021"><ele>167.0</ele><time>2026-04-08T11:41:28.695Z</time></trkpt><trkpt lat="45.5172969" lon="10.7834825"><ele>167.0</ele><time>2026-04-08T11:41:29.696Z</time></trkpt><trkpt lat="45.5173712" lon="10.7834641"><ele>167.0</ele><time>2026-04-08T11:41:30.696Z</time></trkpt><trkpt lat="45.5174493" lon="10.7834447"><ele>167.2</ele><time>2026-04-08T11:41:31.696Z</time></trkpt><trkpt lat="45.5175355" lon="10.7834173"><ele>167.39999999999998</ele><time>2026-04-08T11:41:32.696Z</time></trkpt><trkpt lat="45.5176239" lon="10.7833931"><ele>167.60000000000002</ele><time>2026-04-08T11:41:33.696Z</time></trkpt><trkpt lat="45.5177132" lon="10.7833665"><ele>167.8</ele><time>2026-04-08T11:41:34.696Z</time></trkpt><trkpt lat="45.5178041" lon="10.7833411"><ele>168.0</ele><time>2026-04-08T11:41:35.695Z</time></trkpt><trkpt lat="45.51789" lon="10.7833147"><ele>168.60000000000002</ele><time>2026-04-08T11:41:36.696Z</time></trkpt><trkpt lat="45.5179782" lon="10.7832862"><ele>169.20000000000002</ele><time>2026-04-08T11:41:37.695Z</time></trkpt><trkpt lat="45.5180704" lon="10.7832572"><ele>169.8</ele><time>2026-04-08T11:41:38.695Z</time></trkpt><trkpt lat="45.5181666" lon="10.783231"><ele>170.4</ele><time>2026-04-08T11:41:39.695Z</time></trkpt><trkpt lat="45.5182672" lon="10.7832064"><ele>171.0</ele><time>2026-04-08T11:41:40.696Z</time></trkpt><trkpt lat="45.5183669" lon="10.7831793"><ele>171.0</ele><time>2026-04-08T11:41:41.696Z</time></trkpt><trkpt lat="45.5184707" lon="10.7831516"><ele>171.0</ele><time>2026-04-08T11:41:42.695Z</time></trkpt><trkpt lat="45.5185766" lon="10.7831214"><ele>171.0</ele><time>2026-04-08T11:41:43.696Z</time></trkpt><trkpt lat="45.5186847" lon="10.7830824"><ele>171.0</ele><time>2026-04-08T11:41:44.696Z</time></trkpt><trkpt lat="45.5187911" lon="10.7830519"><ele>171.0</ele><time>2026-04-08T11:41:45.696Z</time></trkpt><trkpt lat="45.5188984" lon="10.7830247"><ele>170.25</ele><time>2026-04-08T11:41:46.695Z</time></trkpt><trkpt lat="45.5190083" lon="10.7829963"><ele>169.5</ele><time>2026-04-08T11:41:47.696Z</time></trkpt><trkpt lat="45.5191172" lon="10.7829661"><ele>168.75</ele><time>2026-04-08T11:41:48.696Z</time></trkpt><trkpt lat="45.5192298" lon="10.7829363"><ele>168.0</ele><time>2026-04-08T11:41:49.696Z</time></trkpt><trkpt lat="45.5193449" lon="10.782905"><ele>168.0</ele><time>2026-04-08T11:41:50.696Z</time></trkpt><trkpt lat="45.5194589" lon="10.7828727"><ele>168.0</ele><time>2026-04-08T11:41:51.695Z</time></trkpt><trkpt lat="45.5195709" lon="10.7828439"><ele>168.0</ele><time>2026-04-08T11:41:52.695Z</time></trkpt><trkpt lat="45.5196835" lon="10.7828147"><ele>168.0</ele><time>2026-04-08T11:41:53.696Z</time></trkpt><trkpt lat="45.5197988" lon="10.7827918"><ele>167.75</ele><time>2026-04-08T11:41:54.695Z</time></trkpt><trkpt lat="45.5199127" lon="10.7827695"><ele>167.5</ele><time>2026-04-08T11:41:55.695Z</time></trkpt><trkpt lat="45.5200289" lon="10.7827446"><ele>167.25</ele><time>2026-04-08T11:41:56.695Z</time></trkpt><trkpt lat="45.5201474" lon="10.7827228"><ele>167.0</ele><time>2026-04-08T11:41:57.695Z</time></trkpt><trkpt lat="45.5202643" lon="10.7827014"><ele>167.0</ele><time>2026-04-08T11:41:58.696Z</time></trkpt><trkpt lat="45.5203812" lon="10.7826854"><ele>167.0</ele><time>2026-04-08T11:41:59.695Z</time></trkpt><trkpt lat="45.5204916" lon="10.7826636"><ele>167.0</ele><time>2026-04-08T11:42:00.695Z</time></trkpt><trkpt lat="45.5206019" lon="10.7826438"><ele>167.0</ele><time>2026-04-08T11:42:01.696Z</time></trkpt><trkpt lat="45.520707" lon="10.7826236"><ele>167.0</ele><time>2026-04-08T11:42:02.695Z</time></trkpt><trkpt lat="45.5208118" lon="10.7825916"><ele>167.2</ele><time>2026-04-08T11:42:03.695Z</time></trkpt><trkpt lat="45.5209196" lon="10.7825574"><ele>167.39999999999998</ele><time>2026-04-08T11:42:04.695Z</time></trkpt><trkpt lat="45.5210299" lon="10.7825216"><ele>167.60000000000002</ele><time>2026-04-08T11:42:05.696Z</time></trkpt><trkpt lat="45.5211381" lon="10.7824864"><ele>167.8</ele><time>2026-04-08T11:42:06.696Z</time></trkpt><trkpt lat="45.5212372" lon="10.7824523"><ele>168.0</ele><time>2026-04-08T11:42:07.695Z</time></trkpt><trkpt lat="45.5213267" lon="10.7824238"><ele>168.4</ele><time>2026-04-08T11:42:08.695Z</time></trkpt><trkpt lat="45.5214192" lon="10.7823956"><ele>168.8</ele><time>2026-04-08T11:42:09.696Z</time></trkpt><trkpt lat="45.5215185" lon="10.7823674"><ele>169.2</ele><time>2026-04-08T11:42:10.696Z</time></trkpt><trkpt lat="45.5216197" lon="10.7823362"><ele>169.6</ele><time>2026-04-08T11:42:11.695Z</time></trkpt><trkpt lat="45.5217246" lon="10.782301"><ele>170.0</ele><time>2026-04-08T11:42:12.695Z</time></trkpt><trkpt lat="45.5218336" lon="10.7822691"><ele>170.0</ele><time>2026-04-08T11:42:13.696Z</time></trkpt><trkpt lat="45.5219458" lon="10.7822494"><ele>170.0</ele><time>2026-04-08T11:42:14.695Z</time></trkpt><trkpt lat="45.5220605" lon="10.7822212"><ele>170.0</ele><time>2026-04-08T11:42:15.695Z</time></trkpt><trkpt lat="45.5221761" lon="10.7821895"><ele>170.0</ele><time>2026-04-08T11:42:16.695Z</time></trkpt><trkpt lat="45.5222877" lon="10.7821606"><ele>169.5</ele><time>2026-04-08T11:42:17.696Z</time></trkpt><trkpt lat="45.5224033" lon="10.7821367"><ele>169.0</ele><time>2026-04-08T11:42:18.696Z</time></trkpt><trkpt lat="45.5225265" lon="10.7821072"><ele>168.5</ele><time>2026-04-08T11:42:19.696Z</time></trkpt><trkpt lat="45.5226476" lon="10.7820775"><ele>168.0</ele><time>2026-04-08T11:42:20.696Z</time></trkpt><trkpt lat="45.5227722" lon="10.7820475"><ele>168.0</ele><time>2026-04-08T11:42:21.696Z</time></trkpt><trkpt lat="45.5228956" lon="10.7820225"><ele>168.0</ele><time>2026-04-08T11:42:22.696Z</time></trkpt><trkpt lat="45.5230188" lon="10.7819908"><ele>168.0</ele><time>2026-04-08T11:42:23.695Z</time></trkpt><trkpt lat="45.5231395" lon="10.7819631"><ele>168.0</ele><time>2026-04-08T11:42:24.696Z</time></trkpt><trkpt lat="45.5232549" lon="10.7819376"><ele>167.4</ele><time>2026-04-08T11:42:25.695Z</time></trkpt><trkpt lat="45.5233613" lon="10.7819192"><ele>166.8</ele><time>2026-04-08T11:42:26.696Z</time></trkpt><trkpt lat="45.5234601" lon="10.7818917"><ele>166.2</ele><time>2026-04-08T11:42:27.695Z</time></trkpt><trkpt lat="45.5235557" lon="10.7818615"><ele>165.6</ele><time>2026-04-08T11:42:28.695Z</time></trkpt><trkpt lat="45.5236541" lon="10.7818394"><ele>165.0</ele><time>2026-04-08T11:42:29.696Z</time></trkpt><trkpt lat="45.5237453" lon="10.7818138"><ele>164.66666666666666</ele><time>2026-04-08T11:42:30.695Z</time></trkpt><trkpt lat="45.523832" lon="10.7817879"><ele>164.33333333333334</ele><time>2026-04-08T11:42:31.695Z</time></trkpt><trkpt lat="45.5239176" lon="10.7817637"><ele>164.0</ele><time>2026-04-08T11:42:32.696Z</time></trkpt><trkpt lat="45.5239979" lon="10.7817317"><ele>163.66666666666669</ele><time>2026-04-08T11:42:33.695Z</time></trkpt><trkpt lat="45.5240824" lon="10.781698"><ele>163.33333333333334</ele><time>2026-04-08T11:42:34.695Z</time></trkpt><trkpt lat="45.5241637" lon="10.7816715"><ele>163.0</ele><time>2026-04-08T11:42:35.696Z</time></trkpt><trkpt lat="45.5242343" lon="10.7816528"><ele>163.0</ele><time>2026-04-08T11:42:36.696Z</time></trkpt><trkpt lat="45.5242947" lon="10.781625"><ele>163.0</ele><time>2026-04-08T11:42:37.696Z</time></trkpt><trkpt lat="45.5243519" lon="10.7815794"><ele>163.0</ele><time>2026-04-08T11:42:38.695Z</time></trkpt><trkpt lat="45.524408" lon="10.7815131"><ele>163.0</ele><time>2026-04-08T11:42:39.696Z</time></trkpt><trkpt lat="45.5244616" lon="10.7814217"><ele>163.0</ele><time>2026-04-08T11:42:40.695Z</time></trkpt><trkpt lat="45.5245023" lon="10.7813089"><ele>163.0</ele><time>2026-04-08T11:42:41.695Z</time></trkpt><trkpt lat="45.524538" lon="10.7811861"><ele>162.60000000000002</ele><time>2026-04-08T11:42:42.696Z</time></trkpt><trkpt lat="45.524567" lon="10.7810527"><ele>162.20000000000002</ele><time>2026-04-08T11:42:43.695Z</time></trkpt><trkpt lat="45.5245853" lon="10.7809048"><ele>161.8</ele><time>2026-04-08T11:42:44.696Z</time></trkpt><trkpt lat="45.5245844" lon="10.780743"><ele>161.4</ele><time>2026-04-08T11:42:45.695Z</time></trkpt><trkpt lat="45.5245697" lon="10.7805755"><ele>161.0</ele><time>2026-04-08T11:42:46.696Z</time></trkpt><trkpt lat="45.5245497" lon="10.7804071"><ele>161.0</ele><time>2026-04-08T11:42:47.696Z</time></trkpt><trkpt lat="45.5245383" lon="10.7802319"><ele>161.0</ele><time>2026-04-08T11:42:48.696Z</time></trkpt><trkpt lat="45.5245431" lon="10.780045"><ele>161.0</ele><time>2026-04-08T11:42:49.696Z</time></trkpt><trkpt lat="45.524555" lon="10.7798491"><ele>161.0</ele><time>2026-04-08T11:42:50.695Z</time></trkpt><trkpt lat="45.524569" lon="10.7796518"><ele>161.0</ele><time>2026-04-08T11:42:51.696Z</time></trkpt><trkpt lat="45.5245812" lon="10.7794539"><ele>161.0</ele><time>2026-04-08T11:42:52.695Z</time></trkpt><trkpt lat="45.5245905" lon="10.7792473"><ele>161.0</ele><time>2026-04-08T11:42:53.695Z</time></trkpt><trkpt lat="45.5245875" lon="10.7790361"><ele>161.0</ele><time>2026-04-08T11:42:54.696Z</time></trkpt><trkpt lat="45.524568" lon="10.7788271"><ele>161.5</ele><time>2026-04-08T11:42:55.695Z</time></trkpt><trkpt lat="45.5245476" lon="10.7786207"><ele>162.0</ele><time>2026-04-08T11:42:56.696Z</time></trkpt><trkpt lat="45.5245334" lon="10.7784234"><ele>162.5</ele><time>2026-04-08T11:42:57.696Z</time></trkpt><trkpt lat="45.5245206" lon="10.7782345"><ele>163.0</ele><time>2026-04-08T11:42:58.696Z</time></trkpt><trkpt lat="45.5244939" lon="10.7780586"><ele>163.0</ele><time>2026-04-08T11:42:59.696Z</time></trkpt><trkpt lat="45.5244726" lon="10.7778937"><ele>163.0</ele><time>2026-04-08T11:43:00.695Z</time></trkpt><trkpt lat="45.5244527" lon="10.7777398"><ele>163.0</ele><time>2026-04-08T11:43:01.695Z</time></trkpt><trkpt lat="45.5244379" lon="10.7775747"><ele>163.0</ele><time>2026-04-08T11:43:02.696Z</time></trkpt><trkpt lat="45.524424" lon="10.7774016"><ele>162.0</ele><time>2026-04-08T11:43:03.695Z</time></trkpt><trkpt lat="45.5244111" lon="10.7772202"><ele>161.0</ele><time>2026-04-08T11:43:04.695Z</time></trkpt><trkpt lat="45.5243991" lon="10.7770301"><ele>160.0</ele><time>2026-04-08T11:43:05.695Z</time></trkpt><trkpt lat="45.5243862" lon="10.7768413"><ele>159.0</ele><time>2026-04-08T11:43:06.696Z</time></trkpt><trkpt lat="45.5243734" lon="10.776663"><ele>158.8</ele><time>2026-04-08T11:43:07.696Z</time></trkpt><trkpt lat="45.5243597" lon="10.7764961"><ele>158.60000000000002</ele><time>2026-04-08T11:43:08.696Z</time></trkpt><trkpt lat="45.5243455" lon="10.7763529"><ele>158.4</ele><time>2026-04-08T11:43:09.696Z</time></trkpt><trkpt lat="45.524348" lon="10.7762299"><ele>158.20000000000002</ele><time>2026-04-08T11:43:10.695Z</time></trkpt><trkpt lat="45.5243789" lon="10.7761323"><ele>158.0</ele><time>2026-04-08T11:43:11.695Z</time></trkpt><trkpt lat="45.5244251" lon="10.7760549"><ele>158.0</ele><time>2026-04-08T11:43:12.695Z</time></trkpt><trkpt lat="45.5244859" lon="10.7759999"><ele>158.0</ele><time>2026-04-08T11:43:13.696Z</time></trkpt><trkpt lat="45.5245522" lon="10.7759645"><ele>158.0</ele><time>2026-04-08T11:43:14.696Z</time></trkpt><trkpt lat="45.5246225" lon="10.7759426"><ele>158.0</ele><time>2026-04-08T11:43:15.695Z</time></trkpt><trkpt lat="45.5247047" lon="10.7759309"><ele>158.0</ele><time>2026-04-08T11:43:16.696Z</time></trkpt><trkpt lat="45.5247999" lon="10.7759176"><ele>158.0</ele><time>2026-04-08T11:43:17.695Z</time></trkpt><trkpt lat="45.5249042" lon="10.7759098"><ele>158.0</ele><time>2026-04-08T11:43:18.696Z</time></trkpt><trkpt lat="45.5250054" lon="10.7758838"><ele>158.0</ele><time>2026-04-08T11:43:19.695Z</time></trkpt><trkpt lat="45.5251095" lon="10.7758624"><ele>158.0</ele><time>2026-04-08T11:43:20.696Z</time></trkpt><trkpt lat="45.5252137" lon="10.7758346"><ele>158.0</ele><time>2026-04-08T11:43:21.696Z</time></trkpt><trkpt lat="45.5253259" lon="10.775823"><ele>158.0</ele><time>2026-04-08T11:43:22.696Z</time></trkpt><trkpt lat="45.5254439" lon="10.7758131"><ele>158.0</ele><time>2026-04-08T11:43:23.696Z</time></trkpt><trkpt lat="45.5255611" lon="10.7757933"><ele>158.0</ele><time>2026-04-08T11:43:24.696Z</time></trkpt><trkpt lat="45.5256721" lon="10.7757759"><ele>158.0</ele><time>2026-04-08T11:43:25.696Z</time></trkpt><trkpt lat="45.5257713" lon="10.7757417"><ele>158.0</ele><time>2026-04-08T11:43:26.696Z</time></trkpt><trkpt lat="45.5258646" lon="10.7757315"><ele>158.0</ele><time>2026-04-08T11:43:27.696Z</time></trkpt><trkpt lat="45.5259441" lon="10.7757203"><ele>158.0</ele><time>2026-04-08T11:43:28.695Z</time></trkpt><trkpt lat="45.5260184" lon="10.7756927"><ele>158.0</ele><time>2026-04-08T11:43:29.695Z</time></trkpt><trkpt lat="45.5260952" lon="10.7756629"><ele>158.0</ele><time>2026-04-08T11:43:30.695Z</time></trkpt><trkpt lat="45.5261808" lon="10.7756228"><ele>158.0</ele><time>2026-04-08T11:43:31.695Z</time></trkpt><trkpt lat="45.526273" lon="10.7755729"><ele>158.0</ele><time>2026-04-08T11:43:32.695Z</time></trkpt><trkpt lat="45.5263646" lon="10.775519"><ele>158.0</ele><time>2026-04-08T11:43:33.696Z</time></trkpt><trkpt lat="45.5264498" lon="10.7754725"><ele>158.0</ele><time>2026-04-08T11:43:34.696Z</time></trkpt><trkpt lat="45.5265325" lon="10.7754405"><ele>158.0</ele><time>2026-04-08T11:43:35.695Z</time></trkpt><trkpt lat="45.5266178" lon="10.7754277"><ele>158.0</ele><time>2026-04-08T11:43:36.695Z</time></trkpt><trkpt lat="45.5267074" lon="10.7754327"><ele>158.0</ele><time>2026-04-08T11:43:37.696Z</time></trkpt><trkpt lat="45.526797" lon="10.7754551"><ele>158.0</ele><time>2026-04-08T11:43:38.695Z</time></trkpt><trkpt lat="45.5268848" lon="10.7754806"><ele>158.0</ele><time>2026-04-08T11:43:39.696Z</time></trkpt><trkpt lat="45.5269777" lon="10.7755134"><ele>157.5</ele><time>2026-04-08T11:43:40.695Z</time></trkpt><trkpt lat="45.5270813" lon="10.7755476"><ele>157.0</ele><time>2026-04-08T11:43:41.695Z</time></trkpt><trkpt lat="45.5271831" lon="10.7756079"><ele>156.5</ele><time>2026-04-08T11:43:42.695Z</time></trkpt><trkpt lat="45.5272971" lon="10.7756527"><ele>156.0</ele><time>2026-04-08T11:43:43.696Z</time></trkpt><trkpt lat="45.5274087" lon="10.7757172"><ele>156.0</ele><time>2026-04-08T11:43:44.695Z</time></trkpt><trkpt lat="45.5275247" lon="10.7757828"><ele>156.0</ele><time>2026-04-08T11:43:45.696Z</time></trkpt><trkpt lat="45.5276371" lon="10.7758506"><ele>156.0</ele><time>2026-04-08T11:43:46.695Z</time></trkpt><trkpt lat="45.5277514" lon="10.7759031"><ele>156.0</ele><time>2026-04-08T11:43:47.696Z</time></trkpt><trkpt lat="45.5278621" lon="10.7759441"><ele>156.5</ele><time>2026-04-08T11:43:48.696Z</time></trkpt><trkpt lat="45.5279614" lon="10.7759687"><ele>157.0</ele><time>2026-04-08T11:43:49.695Z</time></trkpt><trkpt lat="45.5280535" lon="10.7759834"><ele>157.5</ele><time>2026-04-08T11:43:50.696Z</time></trkpt><trkpt lat="45.5281378" lon="10.7759898"><ele>158.0</ele><time>2026-04-08T11:43:51.695Z</time></trkpt><trkpt lat="45.528219" lon="10.7759912"><ele>158.5</ele><time>2026-04-08T11:43:52.696Z</time></trkpt><trkpt lat="45.5283063" lon="10.7759945"><ele>159.0</ele><time>2026-04-08T11:43:53.695Z</time></trkpt><trkpt lat="45.5283986" lon="10.7759981"><ele>159.0</ele><time>2026-04-08T11:43:54.696Z</time></trkpt><trkpt lat="45.5284954" lon="10.7760032"><ele>159.0</ele><time>2026-04-08T11:43:55.696Z</time></trkpt><trkpt lat="45.5285924" lon="10.776003"><ele>159.0</ele><time>2026-04-08T11:43:56.696Z</time></trkpt><trkpt lat="45.5286789" lon="10.7759923"><ele>159.0</ele><time>2026-04-08T11:43:57.645Z</time></trkpt><trkpt lat="45.5287596" lon="10.7759736"><ele>159.0</ele><time>2026-04-08T11:43:58.646Z</time></trkpt><trkpt lat="45.5288392" lon="10.7759553"><ele>159.0</ele><time>2026-04-08T11:43:59.645Z</time></trkpt><trkpt lat="45.5289289" lon="10.7759211"><ele>159.25</ele><time>2026-04-08T11:44:00.646Z</time></trkpt><trkpt lat="45.5290291" lon="10.7758704"><ele>159.5</ele><time>2026-04-08T11:44:01.645Z</time></trkpt><trkpt lat="45.5291297" lon="10.7757961"><ele>159.75</ele><time>2026-04-08T11:44:02.645Z</time></trkpt><trkpt lat="45.5292286" lon="10.7757066"><ele>160.0</ele><time>2026-04-08T11:44:03.645Z</time></trkpt><trkpt lat="45.5293238" lon="10.775617"><ele>160.0</ele><time>2026-04-08T11:44:04.646Z</time></trkpt><trkpt lat="45.5294133" lon="10.7755197"><ele>160.0</ele><time>2026-04-08T11:44:05.645Z</time></trkpt><trkpt lat="45.5295085" lon="10.7754226"><ele>160.0</ele><time>2026-04-08T11:44:06.645Z</time></trkpt><trkpt lat="45.5296008" lon="10.7753438"><ele>160.0</ele><time>2026-04-08T11:44:07.646Z</time></trkpt><trkpt lat="45.5296841" lon="10.7752821"><ele>160.0</ele><time>2026-04-08T11:44:08.645Z</time></trkpt><trkpt lat="45.5297568" lon="10.7752499"><ele>160.16666666666669</ele><time>2026-04-08T11:44:09.646Z</time></trkpt><trkpt lat="45.5298354" lon="10.7752388"><ele>160.33333333333334</ele><time>2026-04-08T11:44:10.646Z</time></trkpt><trkpt lat="45.5299102" lon="10.7752609"><ele>160.5</ele><time>2026-04-08T11:44:11.646Z</time></trkpt><trkpt lat="45.5299867" lon="10.7753039"><ele>160.66666666666666</ele><time>2026-04-08T11:44:12.646Z</time></trkpt><trkpt lat="45.5300646" lon="10.775361"><ele>160.83333333333331</ele><time>2026-04-08T11:44:13.645Z</time></trkpt><trkpt lat="45.5301524" lon="10.775415"><ele>161.0</ele><time>2026-04-08T11:44:14.645Z</time></trkpt><trkpt lat="45.5302463" lon="10.7754531"><ele>161.0</ele><time>2026-04-08T11:44:15.645Z</time></trkpt><trkpt lat="45.5303399" lon="10.7755022"><ele>161.0</ele><time>2026-04-08T11:44:16.645Z</time></trkpt><trkpt lat="45.5304303" lon="10.7755486"><ele>161.0</ele><time>2026-04-08T11:44:17.645Z</time></trkpt><trkpt lat="45.5305076" lon="10.7755994"><ele>161.0</ele><time>2026-04-08T11:44:18.645Z</time></trkpt><trkpt lat="45.5305691" lon="10.7756608"><ele>161.0</ele><time>2026-04-08T11:44:19.645Z</time></trkpt><trkpt lat="45.5306305" lon="10.7757498"><ele>161.0</ele><time>2026-04-08T11:44:20.645Z</time></trkpt><trkpt lat="45.5306761" lon="10.7758472"><ele>161.0</ele><time>2026-04-08T11:44:21.646Z</time></trkpt><trkpt lat="45.5307063" lon="10.775961"><ele>161.0</ele><time>2026-04-08T11:44:22.646Z</time></trkpt><trkpt lat="45.5307245" lon="10.7760856"><ele>161.0</ele><time>2026-04-08T11:44:23.646Z</time></trkpt><trkpt lat="45.5307408" lon="10.7761986"><ele>161.0</ele><time>2026-04-08T11:44:24.646Z</time></trkpt><trkpt lat="45.5307654" lon="10.7762922"><ele>161.0</ele><time>2026-04-08T11:44:25.646Z</time></trkpt><trkpt lat="45.5308039" lon="10.77638"><ele>161.0</ele><time>2026-04-08T11:44:26.646Z</time></trkpt><trkpt lat="45.5308627" lon="10.776469"><ele>161.16666666666666</ele><time>2026-04-08T11:44:27.645Z</time></trkpt><trkpt lat="45.5309336" lon="10.7765467"><ele>161.33333333333331</ele><time>2026-04-08T11:44:28.646Z</time></trkpt><trkpt lat="45.5310108" lon="10.7766102"><ele>161.5</ele><time>2026-04-08T11:44:29.645Z</time></trkpt><trkpt lat="45.5310887" lon="10.7766557"><ele>161.66666666666666</ele><time>2026-04-08T11:44:30.646Z</time></trkpt><trkpt lat="45.5311731" lon="10.7766881"><ele>161.83333333333334</ele><time>2026-04-08T11:44:31.646Z</time></trkpt><trkpt lat="45.5312654" lon="10.7767168"><ele>162.0</ele><time>2026-04-08T11:44:32.645Z</time></trkpt><trkpt lat="45.5313567" lon="10.7767428"><ele>162.0</ele><time>2026-04-08T11:44:33.645Z</time></trkpt><trkpt lat="45.5314316" lon="10.7767728"><ele>162.0</ele><time>2026-04-08T11:44:34.645Z</time></trkpt><trkpt lat="45.5314894" lon="10.7768197"><ele>162.0</ele><time>2026-04-08T11:44:35.646Z</time></trkpt><trkpt lat="45.5315406" lon="10.7768841"><ele>162.0</ele><time>2026-04-08T11:44:36.645Z</time></trkpt><trkpt lat="45.5315771" lon="10.7769642"><ele>162.0</ele><time>2026-04-08T11:44:37.645Z</time></trkpt><trkpt lat="45.5315915" lon="10.7771297"><ele>162.0</ele><time>2026-04-08T11:44:39.645Z</time></trkpt><trkpt lat="45.5316007" lon="10.7772545"><ele>162.39999999999998</ele><time>2026-04-08T11:44:41.645Z</time></trkpt><trkpt lat="45.5316485" lon="10.7773598"><ele>162.79999999999998</ele><time>2026-04-08T11:44:59.647Z</time></trkpt><trkpt lat="45.5317158" lon="10.7773462"><ele>163.2</ele><time>2026-04-08T11:45:01.646Z</time></trkpt><trkpt lat="45.5318088" lon="10.7772215"><ele>163.6</ele><time>2026-04-08T11:45:03.647Z</time></trkpt><trkpt lat="45.5318778" lon="10.7771384"><ele>164.0</ele><time>2026-04-08T11:45:04.646Z</time></trkpt><trkpt lat="45.5319553" lon="10.7770546"><ele>164.0</ele><time>2026-04-08T11:45:05.646Z</time></trkpt><trkpt lat="45.532041" lon="10.7769641"><ele>164.0</ele><time>2026-04-08T11:45:06.646Z</time></trkpt><trkpt lat="45.532135" lon="10.7768613"><ele>164.0</ele><time>2026-04-08T11:45:07.646Z</time></trkpt><trkpt lat="45.5322398" lon="10.7767555"><ele>164.0</ele><time>2026-04-08T11:45:08.646Z</time></trkpt><trkpt lat="45.5323493" lon="10.7766436"><ele>164.25</ele><time>2026-04-08T11:45:09.646Z</time></trkpt><trkpt lat="45.5324651" lon="10.7765304"><ele>164.5</ele><time>2026-04-08T11:45:10.646Z</time></trkpt><trkpt lat="45.5325842" lon="10.7764054"><ele>164.75</ele><time>2026-04-08T11:45:11.646Z</time></trkpt><trkpt lat="45.5326996" lon="10.7762839"><ele>165.0</ele><time>2026-04-08T11:45:12.646Z</time></trkpt><trkpt lat="45.5328093" lon="10.7761553"><ele>165.25</ele><time>2026-04-08T11:45:13.647Z</time></trkpt><trkpt lat="45.5329118" lon="10.7760526"><ele>165.5</ele><time>2026-04-08T11:45:14.646Z</time></trkpt><trkpt lat="45.5330261" lon="10.7759555"><ele>165.75</ele><time>2026-04-08T11:45:15.646Z</time></trkpt><trkpt lat="45.533153" lon="10.7758678"><ele>166.0</ele><time>2026-04-08T11:45:16.647Z</time></trkpt><trkpt lat="45.5332955" lon="10.7758144"><ele>166.0</ele><time>2026-04-08T11:45:17.647Z</time></trkpt><trkpt lat="45.5334469" lon="10.7757877"><ele>166.0</ele><time>2026-04-08T11:45:18.647Z</time></trkpt><trkpt lat="45.5336036" lon="10.7757906"><ele>166.0</ele><time>2026-04-08T11:45:19.646Z</time></trkpt><trkpt lat="45.5337535" lon="10.775829"><ele>166.0</ele><time>2026-04-08T11:45:20.647Z</time></trkpt><trkpt lat="45.5339056" lon="10.7758854"><ele>166.0</ele><time>2026-04-08T11:45:21.647Z</time></trkpt><trkpt lat="45.5340562" lon="10.7759483"><ele>166.0</ele><time>2026-04-08T11:45:22.646Z</time></trkpt><trkpt lat="45.5342086" lon="10.7760068"><ele>166.33333333333334</ele><time>2026-04-08T11:45:23.646Z</time></trkpt><trkpt lat="45.5343648" lon="10.776066"><ele>166.66666666666666</ele><time>2026-04-08T11:45:24.646Z</time></trkpt><trkpt lat="45.5345211" lon="10.776127"><ele>167.0</ele><time>2026-04-08T11:45:25.646Z</time></trkpt><trkpt lat="45.5346753" lon="10.7761874"><ele>168.0</ele><time>2026-04-08T11:45:26.646Z</time></trkpt><trkpt lat="45.5348339" lon="10.7762312"><ele>169.0</ele><time>2026-04-08T11:45:27.646Z</time></trkpt><trkpt lat="45.5349974" lon="10.7762385"><ele>170.0</ele><time>2026-04-08T11:45:28.647Z</time></trkpt><trkpt lat="45.5351589" lon="10.7762158"><ele>170.0</ele><time>2026-04-08T11:45:29.646Z</time></trkpt><trkpt lat="45.5353205" lon="10.7761647"><ele>170.0</ele><time>2026-04-08T11:45:30.646Z</time></trkpt><trkpt lat="45.5354786" lon="10.7760879"><ele>170.0</ele><time>2026-04-08T11:45:31.647Z</time></trkpt><trkpt lat="45.5356317" lon="10.7760015"><ele>170.0</ele><time>2026-04-08T11:45:32.647Z</time></trkpt><trkpt lat="45.5357789" lon="10.7759149"><ele>170.0</ele><time>2026-04-08T11:45:33.647Z</time></trkpt><trkpt lat="45.5359199" lon="10.7758279"><ele>170.0</ele><time>2026-04-08T11:45:34.646Z</time></trkpt><trkpt lat="45.5360527" lon="10.7757497"><ele>170.0</ele><time>2026-04-08T11:45:35.646Z</time></trkpt><trkpt lat="45.5361857" lon="10.7756722"><ele>170.0</ele><time>2026-04-08T11:45:36.646Z</time></trkpt><trkpt lat="45.5363145" lon="10.7755968"><ele>170.0</ele><time>2026-04-08T11:45:37.646Z</time></trkpt><trkpt lat="45.5364432" lon="10.7755274"><ele>170.0</ele><time>2026-04-08T11:45:38.647Z</time></trkpt><trkpt lat="45.5365691" lon="10.7754622"><ele>170.25</ele><time>2026-04-08T11:45:39.646Z</time></trkpt><trkpt lat="45.5366939" lon="10.7753969"><ele>170.5</ele><time>2026-04-08T11:45:40.646Z</time></trkpt><trkpt lat="45.5368153" lon="10.7753204"><ele>170.75</ele><time>2026-04-08T11:45:41.647Z</time></trkpt><trkpt lat="45.536932" lon="10.7752477"><ele>171.0</ele><time>2026-04-08T11:45:42.647Z</time></trkpt><trkpt lat="45.537041" lon="10.7751851"><ele>171.5</ele><time>2026-04-08T11:45:43.648Z</time></trkpt><trkpt lat="45.5371418" lon="10.7751309"><ele>172.0</ele><time>2026-04-08T11:45:44.647Z</time></trkpt><trkpt lat="45.5372349" lon="10.7750849"><ele>172.5</ele><time>2026-04-08T11:45:45.647Z</time></trkpt><trkpt lat="45.5373116" lon="10.7750395"><ele>173.0</ele><time>2026-04-08T11:45:46.648Z</time></trkpt><trkpt lat="45.5373755" lon="10.7749981"><ele>173.5</ele><time>2026-04-08T11:45:47.648Z</time></trkpt><trkpt lat="45.5374451" lon="10.7749887"><ele>174.0</ele><time>2026-04-08T11:45:48.648Z</time></trkpt><trkpt lat="45.5375024" lon="10.775043"><ele>174.0</ele><time>2026-04-08T11:45:49.647Z</time></trkpt><trkpt lat="45.5375383" lon="10.775127"><ele>174.0</ele><time>2026-04-08T11:45:50.648Z</time></trkpt><trkpt lat="45.5375537" lon="10.7752432"><ele>174.0</ele><time>2026-04-08T11:45:51.647Z</time></trkpt><trkpt lat="45.5375619" lon="10.7753693"><ele>174.0</ele><time>2026-04-08T11:45:52.647Z</time></trkpt><trkpt lat="45.5375721" lon="10.7755055"><ele>174.0</ele><time>2026-04-08T11:45:53.648Z</time></trkpt><trkpt lat="45.5375847" lon="10.7756565"><ele>174.0</ele><time>2026-04-08T11:45:54.648Z</time></trkpt><trkpt lat="45.5376031" lon="10.7758398"><ele>173.75</ele><time>2026-04-08T11:45:55.648Z</time></trkpt><trkpt lat="45.5376107" lon="10.7760227"><ele>173.5</ele><time>2026-04-08T11:45:56.648Z</time></trkpt><trkpt lat="45.5376113" lon="10.7761972"><ele>173.25</ele><time>2026-04-08T11:45:57.648Z</time></trkpt><trkpt lat="45.5376148" lon="10.7763796"><ele>173.0</ele><time>2026-04-08T11:45:58.647Z</time></trkpt><trkpt lat="45.5376197" lon="10.7765717"><ele>173.0</ele><time>2026-04-08T11:45:59.648Z</time></trkpt><trkpt lat="45.537628" lon="10.776774"><ele>173.0</ele><time>2026-04-08T11:46:00.647Z</time></trkpt><trkpt lat="45.5376341" lon="10.7769809"><ele>173.0</ele><time>2026-04-08T11:46:01.647Z</time></trkpt><trkpt lat="45.5376397" lon="10.7771896"><ele>173.0</ele><time>2026-04-08T11:46:02.648Z</time></trkpt><trkpt lat="45.5376453" lon="10.7773999"><ele>173.5</ele><time>2026-04-08T11:46:03.647Z</time></trkpt><trkpt lat="45.5376516" lon="10.7776132"><ele>174.0</ele><time>2026-04-08T11:46:04.647Z</time></trkpt><trkpt lat="45.5376535" lon="10.7778242"><ele>174.5</ele><time>2026-04-08T11:46:05.648Z</time></trkpt><trkpt lat="45.5376717" lon="10.7779919"><ele>175.0</ele><time>2026-04-08T11:46:06.647Z</time></trkpt><trkpt lat="45.5376859" lon="10.7781596"><ele>175.0</ele><time>2026-04-08T11:46:07.648Z</time></trkpt><trkpt lat="45.537695" lon="10.7783442"><ele>175.0</ele><time>2026-04-08T11:46:08.648Z</time></trkpt><trkpt lat="45.5377031" lon="10.7785332"><ele>175.0</ele><time>2026-04-08T11:46:09.647Z</time></trkpt><trkpt lat="45.5377144" lon="10.7787278"><ele>175.0</ele><time>2026-04-08T11:46:10.648Z</time></trkpt><trkpt lat="45.5377261" lon="10.7789236"><ele>174.5</ele><time>2026-04-08T11:46:11.648Z</time></trkpt><trkpt lat="45.5377384" lon="10.7791097"><ele>174.0</ele><time>2026-04-08T11:46:12.648Z</time></trkpt><trkpt lat="45.5377542" lon="10.7792872"><ele>173.5</ele><time>2026-04-08T11:46:13.648Z</time></trkpt><trkpt lat="45.5377661" lon="10.7794555"><ele>173.0</ele><time>2026-04-08T11:46:14.647Z</time></trkpt><trkpt lat="45.537776" lon="10.7796239"><ele>173.0</ele><time>2026-04-08T11:46:15.647Z</time></trkpt><trkpt lat="45.537789" lon="10.7797943"><ele>173.0</ele><time>2026-04-08T11:46:16.647Z</time></trkpt><trkpt lat="45.5377996" lon="10.7799768"><ele>173.0</ele><time>2026-04-08T11:46:17.647Z</time></trkpt><trkpt lat="45.5377845" lon="10.7800961"><ele>173.0</ele><time>2026-04-08T11:46:18.648Z</time></trkpt><trkpt lat="45.5377554" lon="10.7801973"><ele>173.0</ele><time>2026-04-08T11:46:19.648Z</time></trkpt><trkpt lat="45.5376851" lon="10.7801386"><ele>173.0</ele><time>2026-04-08T11:46:21.648Z</time></trkpt><trkpt lat="45.5376141" lon="10.7801377"><ele>173.0</ele><time>2026-04-08T11:46:22.647Z</time></trkpt><trkpt lat="45.5375406" lon="10.7801361"><ele>173.0</ele><time>2026-04-08T11:46:23.647Z</time></trkpt><trkpt lat="45.5374608" lon="10.7801428"><ele>173.0</ele><time>2026-04-08T11:46:24.648Z</time></trkpt><trkpt lat="45.5373693" lon="10.7801499"><ele>173.0</ele><time>2026-04-08T11:46:25.647Z</time></trkpt><trkpt lat="45.5372665" lon="10.7801614"><ele>173.0</ele><time>2026-04-08T11:46:26.647Z</time></trkpt><trkpt lat="45.5371591" lon="10.7801801"><ele>172.25</ele><time>2026-04-08T11:46:27.648Z</time></trkpt><trkpt lat="45.5370446" lon="10.7802017"><ele>171.5</ele><time>2026-04-08T11:46:28.648Z</time></trkpt><trkpt lat="45.5369245" lon="10.7802195"><ele>170.75</ele><time>2026-04-08T11:46:29.647Z</time></trkpt><trkpt lat="45.5368004" lon="10.7802341"><ele>170.0</ele><time>2026-04-08T11:46:30.648Z</time></trkpt><trkpt lat="45.5366676" lon="10.7802523"><ele>170.0</ele><time>2026-04-08T11:46:31.647Z</time></trkpt><trkpt lat="45.5365278" lon="10.7802719"><ele>170.0</ele><time>2026-04-08T11:46:32.647Z</time></trkpt><trkpt lat="45.5363853" lon="10.7802925"><ele>170.0</ele><time>2026-04-08T11:46:33.647Z</time></trkpt><trkpt lat="45.5362421" lon="10.7803172"><ele>170.0</ele><time>2026-04-08T11:46:34.648Z</time></trkpt><trkpt lat="45.5360927" lon="10.7803467"><ele>167.66666666666666</ele><time>2026-04-08T11:46:35.648Z</time></trkpt><trkpt lat="45.5359388" lon="10.780375"><ele>165.33333333333334</ele><time>2026-04-08T11:46:36.649Z</time></trkpt><trkpt lat="45.5357798" lon="10.7803971"><ele>163.0</ele><time>2026-04-08T11:46:37.648Z</time></trkpt><trkpt lat="45.5356198" lon="10.7804246"><ele>163.0</ele><time>2026-04-08T11:46:38.649Z</time></trkpt><trkpt lat="45.5354563" lon="10.7804531"><ele>163.0</ele><time>2026-04-08T11:46:39.649Z</time></trkpt><trkpt lat="45.5352911" lon="10.7804823"><ele>163.0</ele><time>2026-04-08T11:46:40.648Z</time></trkpt><trkpt lat="45.5351203" lon="10.7805115"><ele>163.33333333333334</ele><time>2026-04-08T11:46:41.648Z</time></trkpt><trkpt lat="45.5349467" lon="10.780538"><ele>163.66666666666666</ele><time>2026-04-08T11:46:42.649Z</time></trkpt><trkpt lat="45.5347713" lon="10.7805567"><ele>164.0</ele><time>2026-04-08T11:46:43.648Z</time></trkpt><trkpt lat="45.5346011" lon="10.7805764"><ele>163.33333333333331</ele><time>2026-04-08T11:46:44.649Z</time></trkpt><trkpt lat="45.5344405" lon="10.7805958"><ele>162.66666666666666</ele><time>2026-04-08T11:46:45.648Z</time></trkpt><trkpt lat="45.5342896" lon="10.7806121"><ele>162.0</ele><time>2026-04-08T11:46:46.649Z</time></trkpt><trkpt lat="45.5341483" lon="10.7806243"><ele>162.0</ele><time>2026-04-08T11:46:47.648Z</time></trkpt><trkpt lat="45.5340211" lon="10.7806359"><ele>162.0</ele><time>2026-04-08T11:46:48.648Z</time></trkpt><trkpt lat="45.5339163" lon="10.7806509"><ele>162.0</ele><time>2026-04-08T11:46:49.648Z</time></trkpt><trkpt lat="45.5338264" lon="10.7806613"><ele>162.0</ele><time>2026-04-08T11:46:50.649Z</time></trkpt><trkpt lat="45.5337531" lon="10.78067"><ele>162.0</ele><time>2026-04-08T11:46:51.648Z</time></trkpt><trkpt lat="45.5336647" lon="10.7807235"><ele>162.0</ele><time>2026-04-08T11:46:53.649Z</time></trkpt><trkpt lat="45.5336413" lon="10.7808238"><ele>162.0</ele><time>2026-04-08T11:46:55.648Z</time></trkpt><trkpt lat="45.5336998" lon="10.7809394"><ele>162.0</ele><time>2026-04-08T11:46:57.649Z</time></trkpt><trkpt lat="45.5337825" lon="10.7810473"><ele>162.0</ele><time>2026-04-08T11:46:59.649Z</time></trkpt><trkpt lat="45.5338219" lon="10.7811298"><ele>162.0</ele><time>2026-04-08T11:47:01.648Z</time></trkpt><trkpt lat="45.5337919" lon="10.7810291"><ele>162.0</ele><time>2026-04-08T11:47:06.648Z</time></trkpt><trkpt lat="45.5337379" lon="10.7809769"><ele>162.39999999999998</ele><time>2026-04-08T11:47:07.649Z</time></trkpt><trkpt lat="45.5336712" lon="10.7808403"><ele>162.79999999999998</ele><time>2026-04-08T11:47:09.648Z</time></trkpt><trkpt lat="45.5335808" lon="10.7807339"><ele>163.2</ele><time>2026-04-08T11:47:11.648Z</time></trkpt><trkpt lat="45.5335079" lon="10.7807083"><ele>163.6</ele><time>2026-04-08T11:47:12.649Z</time></trkpt><trkpt lat="45.5334247" lon="10.7807003"><ele>164.0</ele><time>2026-04-08T11:47:13.649Z</time></trkpt><trkpt lat="45.5333323" lon="10.7807133"><ele>164.0</ele><time>2026-04-08T11:47:14.648Z</time></trkpt><trkpt lat="45.5332414" lon="10.7807224"><ele>164.0</ele><time>2026-04-08T11:47:15.648Z</time></trkpt><trkpt lat="45.533154" lon="10.7807345"><ele>164.0</ele><time>2026-04-08T11:47:16.649Z</time></trkpt><trkpt lat="45.5330638" lon="10.7807476"><ele>164.0</ele><time>2026-04-08T11:47:17.648Z</time></trkpt><trkpt lat="45.5329729" lon="10.7807597"><ele>164.0</ele><time>2026-04-08T11:47:18.649Z</time></trkpt><trkpt lat="45.5328771" lon="10.7807723"><ele>164.39999999999998</ele><time>2026-04-08T11:47:19.648Z</time></trkpt><trkpt lat="45.5327819" lon="10.7807851"><ele>164.8</ele><time>2026-04-08T11:47:20.648Z</time></trkpt><trkpt lat="45.5326845" lon="10.7807975"><ele>165.2</ele><time>2026-04-08T11:47:21.649Z</time></trkpt><trkpt lat="45.5325904" lon="10.780807"><ele>165.60000000000002</ele><time>2026-04-08T11:47:22.649Z</time></trkpt><trkpt lat="45.5325036" lon="10.7808159"><ele>166.0</ele><time>2026-04-08T11:47:23.648Z</time></trkpt><trkpt lat="45.532423" lon="10.7808241"><ele>166.0</ele><time>2026-04-08T11:47:24.649Z</time></trkpt><trkpt lat="45.5323504" lon="10.7808396"><ele>166.0</ele><time>2026-04-08T11:47:25.649Z</time></trkpt><trkpt lat="45.5322844" lon="10.7808592"><ele>166.0</ele><time>2026-04-08T11:47:26.649Z</time></trkpt><trkpt lat="45.5322219" lon="10.7808755"><ele>166.0</ele><time>2026-04-08T11:47:27.649Z</time></trkpt><trkpt lat="45.5321587" lon="10.7808886"><ele>166.0</ele><time>2026-04-08T11:47:28.649Z</time></trkpt><trkpt lat="45.5320952" lon="10.7808938"><ele>166.0</ele><time>2026-04-08T11:47:29.649Z</time></trkpt><trkpt lat="45.5319986" lon="10.7809205"><ele>166.0</ele><time>2026-04-08T11:47:31.649Z</time></trkpt><trkpt lat="45.5319498" lon="10.7810268"><ele>165.66666666666669</ele><time>2026-04-08T11:47:34.649Z</time></trkpt><trkpt lat="45.5319841" lon="10.7811359"><ele>165.33333333333334</ele><time>2026-04-08T11:47:36.649Z</time></trkpt><trkpt lat="45.5320458" lon="10.7812926"><ele>165.0</ele><time>2026-04-08T11:47:38.649Z</time></trkpt><trkpt lat="45.5320752" lon="10.7813766"><ele>164.66666666666666</ele><time>2026-04-08T11:47:39.65Z</time></trkpt><trkpt lat="45.5321045" lon="10.7814649"><ele>164.33333333333331</ele><time>2026-04-08T11:47:40.649Z</time></trkpt><trkpt lat="45.5321356" lon="10.7815594"><ele>164.0</ele><time>2026-04-08T11:47:41.649Z</time></trkpt><trkpt lat="45.5321674" lon="10.7816481"><ele>164.0</ele><time>2026-04-08T11:47:42.649Z</time></trkpt><trkpt lat="45.5322193" lon="10.7818025"><ele>164.0</ele><time>2026-04-08T11:47:44.65Z</time></trkpt><trkpt lat="45.5322703" lon="10.7819668"><ele>164.0</ele><time>2026-04-08T11:47:46.65Z</time></trkpt><trkpt lat="45.5322967" lon="10.7820589"><ele>164.0</ele><time>2026-04-08T11:47:47.649Z</time></trkpt><trkpt lat="45.532324" lon="10.7821567"><ele>164.0</ele><time>2026-04-08T11:47:48.649Z</time></trkpt><trkpt lat="45.5323486" lon="10.7822588"><ele>163.83333333333331</ele><time>2026-04-08T11:47:49.649Z</time></trkpt><trkpt lat="45.5323696" lon="10.7823588"><ele>163.66666666666666</ele><time>2026-04-08T11:47:50.649Z</time></trkpt><trkpt lat="45.5323912" lon="10.7824611"><ele>163.5</ele><time>2026-04-08T11:47:51.65Z</time></trkpt><trkpt lat="45.5324179" lon="10.7825722"><ele>163.33333333333334</ele><time>2026-04-08T11:47:52.649Z</time></trkpt><trkpt lat="45.5324506" lon="10.7826895"><ele>163.16666666666669</ele><time>2026-04-08T11:47:53.649Z</time></trkpt><trkpt lat="45.5324811" lon="10.7828094"><ele>163.0</ele><time>2026-04-08T11:47:54.649Z</time></trkpt><trkpt lat="45.5325099" lon="10.7829288"><ele>163.0</ele><time>2026-04-08T11:47:55.65Z</time></trkpt><trkpt lat="45.5325399" lon="10.7830584"><ele>163.0</ele><time>2026-04-08T11:47:56.649Z</time></trkpt><trkpt lat="45.5325696" lon="10.7831847"><ele>163.0</ele><time>2026-04-08T11:47:57.65Z</time></trkpt><trkpt lat="45.532592" lon="10.7833029"><ele>163.0</ele><time>2026-04-08T11:47:58.649Z</time></trkpt><trkpt lat="45.5326012" lon="10.7834092"><ele>163.0</ele><time>2026-04-08T11:47:59.649Z</time></trkpt><trkpt lat="45.5326006" lon="10.7835058"><ele>163.0</ele><time>2026-04-08T11:48:00.703Z</time></trkpt><trkpt lat="45.5325826" lon="10.7835965"><ele>163.33333333333334</ele><time>2026-04-08T11:48:01.702Z</time></trkpt><trkpt lat="45.5325554" lon="10.7837016"><ele>163.66666666666669</ele><time>2026-04-08T11:48:02.702Z</time></trkpt><trkpt lat="45.5325198" lon="10.7838077"><ele>164.0</ele><time>2026-04-08T11:48:03.702Z</time></trkpt><trkpt lat="45.5324783" lon="10.7839165"><ele>164.33333333333334</ele><time>2026-04-08T11:48:04.702Z</time></trkpt><trkpt lat="45.5324421" lon="10.7840222"><ele>164.66666666666666</ele><time>2026-04-08T11:48:05.702Z</time></trkpt><trkpt lat="45.532411" lon="10.7841221"><ele>165.0</ele><time>2026-04-08T11:48:06.702Z</time></trkpt><trkpt lat="45.5323801" lon="10.7842217"><ele>165.00000000000003</ele><time>2026-04-08T11:48:07.703Z</time></trkpt><trkpt lat="45.5323489" lon="10.7843112"><ele>165.0</ele><time>2026-04-08T11:48:08.702Z</time></trkpt><trkpt lat="45.5323189" lon="10.784393"><ele>165.0</ele><time>2026-04-08T11:48:09.703Z</time></trkpt><trkpt lat="45.5322897" lon="10.7844796"><ele>165.0</ele><time>2026-04-08T11:48:10.702Z</time></trkpt><trkpt lat="45.5322621" lon="10.7845668"><ele>165.0</ele><time>2026-04-08T11:48:11.702Z</time></trkpt><trkpt lat="45.5322425" lon="10.7846653"><ele>165.00000000000003</ele><time>2026-04-08T11:48:12.703Z</time></trkpt><trkpt lat="45.5322353" lon="10.7847578"><ele>165.0</ele><time>2026-04-08T11:48:13.703Z</time></trkpt><trkpt lat="45.5322693" lon="10.7849175"><ele>165.2857142857143</ele><time>2026-04-08T11:48:15.703Z</time></trkpt><trkpt lat="45.5322972" lon="10.7850007"><ele>165.57142857142858</ele><time>2026-04-08T11:48:16.702Z</time></trkpt><trkpt lat="45.5323102" lon="10.7850995"><ele>165.85714285714286</ele><time>2026-04-08T11:48:17.703Z</time></trkpt><trkpt lat="45.5323034" lon="10.7852025"><ele>166.14285714285717</ele><time>2026-04-08T11:48:18.703Z</time></trkpt><trkpt lat="45.5322833" lon="10.7852903"><ele>166.42857142857144</ele><time>2026-04-08T11:48:19.702Z</time></trkpt><trkpt lat="45.5322509" lon="10.7853771"><ele>166.71428571428572</ele><time>2026-04-08T11:48:20.703Z</time></trkpt><trkpt lat="45.5322031" lon="10.7854648"><ele>167.0</ele><time>2026-04-08T11:48:21.703Z</time></trkpt><trkpt lat="45.532146" lon="10.7855659"><ele>167.16666666666666</ele><time>2026-04-08T11:48:22.703Z</time></trkpt><trkpt lat="45.5320875" lon="10.7856697"><ele>167.33333333333331</ele><time>2026-04-08T11:48:23.703Z</time></trkpt><trkpt lat="45.5320266" lon="10.7857683"><ele>167.5</ele><time>2026-04-08T11:48:24.702Z</time></trkpt><trkpt lat="45.5319615" lon="10.7858577"><ele>167.66666666666666</ele><time>2026-04-08T11:48:25.702Z</time></trkpt><trkpt lat="45.5318988" lon="10.7859379"><ele>167.83333333333334</ele><time>2026-04-08T11:48:26.702Z</time></trkpt><trkpt lat="45.5318335" lon="10.7860193"><ele>168.0</ele><time>2026-04-08T11:48:27.702Z</time></trkpt><trkpt lat="45.5317668" lon="10.7861083"><ele>168.4</ele><time>2026-04-08T11:48:28.702Z</time></trkpt><trkpt lat="45.5317036" lon="10.7862059"><ele>168.8</ele><time>2026-04-08T11:48:29.702Z</time></trkpt><trkpt lat="45.5316422" lon="10.7863081"><ele>169.2</ele><time>2026-04-08T11:48:30.702Z</time></trkpt><trkpt lat="45.5315824" lon="10.7864144"><ele>169.6</ele><time>2026-04-08T11:48:31.702Z</time></trkpt><trkpt lat="45.5315183" lon="10.786529"><ele>170.0</ele><time>2026-04-08T11:48:32.702Z</time></trkpt><trkpt lat="45.5314533" lon="10.7866402"><ele>170.0</ele><time>2026-04-08T11:48:33.703Z</time></trkpt><trkpt lat="45.5313925" lon="10.7867472"><ele>170.0</ele><time>2026-04-08T11:48:34.702Z</time></trkpt><trkpt lat="45.5313423" lon="10.7868464"><ele>175.0</ele><time>2026-04-08T11:48:35.703Z</time></trkpt><trkpt lat="45.5312903" lon="10.7869352"><ele>175.0</ele><time>2026-04-08T11:48:36.703Z</time></trkpt></trkseg></trk></gpx>